<?xml version="1.0" encoding="UTF-8" standalone="no" ?>
<gpx xmlns="http://www.topografix.com/GPX/1/1" xmlns:xsi="http://www.w3.org/2001/XMLSchema-instance" xsi:schemaLocation="http://www.topografix.com/GPX/1/1 http://www.topografix.com/GPX/1/1/gpx.xsd" version="1.1" creator="VisuGPX - https://www.visugpx.com">
  <metadata>
    <name>NAUVIALE RANDORALLYE 2011 VTT 80km</name>
    <desc><![CDATA[NAUVIALE RANDORALLYE 2011 VTT 80km
]]></desc>
  </metadata>
  <trk>
    <name><![CDATA[2011-06-04-01 compe gps]]></name>
    <trkseg>
      <trkpt lat="44.52109" lon="2.42795">
        <ele>266.8</ele>
        <time>2011-06-04T07:10:14Z</time>
      </trkpt>
      <trkpt lat="44.52109" lon="2.42787">
        <ele>266.4</ele>
        <time>2011-06-04T07:15:13Z</time>
      </trkpt>
      <trkpt lat="44.52107" lon="2.42761">
        <ele>264.6</ele>
        <time>2011-06-04T07:15:18Z</time>
      </trkpt>
      <trkpt lat="44.52107" lon="2.42731">
        <ele>261.9</ele>
        <time>2011-06-04T07:15:22Z</time>
      </trkpt>
      <trkpt lat="44.52106" lon="2.42713">
        <ele>260.1</ele>
        <time>2011-06-04T07:15:24Z</time>
      </trkpt>
      <trkpt lat="44.52104" lon="2.42667">
        <ele>255.5</ele>
        <time>2011-06-04T07:15:29Z</time>
      </trkpt>
      <trkpt lat="44.52101" lon="2.4259">
        <ele>250</ele>
        <time>2011-06-04T07:15:36Z</time>
      </trkpt>
      <trkpt lat="44.52097" lon="2.42517">
        <ele>247.9</ele>
        <time>2011-06-04T07:15:42Z</time>
      </trkpt>
      <trkpt lat="44.52097" lon="2.42493">
        <ele>247.5</ele>
        <time>2011-06-04T07:15:44Z</time>
      </trkpt>
      <trkpt lat="44.52094" lon="2.42417">
        <ele>247.9</ele>
        <time>2011-06-04T07:15:51Z</time>
      </trkpt>
      <trkpt lat="44.52092" lon="2.42357">
        <ele>245.8</ele>
        <time>2011-06-04T07:15:57Z</time>
      </trkpt>
      <trkpt lat="44.5209" lon="2.42319">
        <ele>244.7</ele>
        <time>2011-06-04T07:16:01Z</time>
      </trkpt>
      <trkpt lat="44.52088" lon="2.42268">
        <ele>243.5</ele>
        <time>2011-06-04T07:16:07Z</time>
      </trkpt>
      <trkpt lat="44.52085" lon="2.42222">
        <ele>243.4</ele>
        <time>2011-06-04T07:16:13Z</time>
      </trkpt>
      <trkpt lat="44.52084" lon="2.42201">
        <ele>243.6</ele>
        <time>2011-06-04T07:16:16Z</time>
      </trkpt>
      <trkpt lat="44.52083" lon="2.42167">
        <ele>244</ele>
        <time>2011-06-04T07:16:21Z</time>
      </trkpt>
      <trkpt lat="44.52083" lon="2.4216">
        <ele>244.1</ele>
        <time>2011-06-04T07:16:22Z</time>
      </trkpt>
      <trkpt lat="44.52082" lon="2.42107">
        <ele>244.7</ele>
        <time>2011-06-04T07:16:28Z</time>
      </trkpt>
      <trkpt lat="44.52079" lon="2.42039">
        <ele>244.5</ele>
        <time>2011-06-04T07:16:35Z</time>
      </trkpt>
      <trkpt lat="44.52077" lon="2.42008">
        <ele>244.2</ele>
        <time>2011-06-04T07:16:39Z</time>
      </trkpt>
      <trkpt lat="44.52076" lon="2.42002">
        <ele>244.1</ele>
        <time>2011-06-04T07:16:40Z</time>
      </trkpt>
      <trkpt lat="44.52074" lon="2.41997">
        <ele>244.1</ele>
        <time>2011-06-04T07:16:41Z</time>
      </trkpt>
      <trkpt lat="44.52061" lon="2.41983">
        <ele>244.3</ele>
        <time>2011-06-04T07:16:45Z</time>
      </trkpt>
      <trkpt lat="44.52055" lon="2.41975">
        <ele>244.5</ele>
        <time>2011-06-04T07:16:47Z</time>
      </trkpt>
      <trkpt lat="44.52052" lon="2.41972">
        <ele>244.7</ele>
        <time>2011-06-04T07:16:48Z</time>
      </trkpt>
      <trkpt lat="44.52048" lon="2.4197">
        <ele>244.8</ele>
        <time>2011-06-04T07:16:49Z</time>
      </trkpt>
      <trkpt lat="44.52044" lon="2.4197">
        <ele>245</ele>
        <time>2011-06-04T07:16:50Z</time>
      </trkpt>
      <trkpt lat="44.52039" lon="2.41978">
        <ele>245</ele>
        <time>2011-06-04T07:16:52Z</time>
      </trkpt>
      <trkpt lat="44.52035" lon="2.41988">
        <ele>244.8</ele>
        <time>2011-06-04T07:16:54Z</time>
      </trkpt>
      <trkpt lat="44.52028" lon="2.42006">
        <ele>244.7</ele>
        <time>2011-06-04T07:16:57Z</time>
      </trkpt>
      <trkpt lat="44.52025" lon="2.42011">
        <ele>244.7</ele>
        <time>2011-06-04T07:16:58Z</time>
      </trkpt>
      <trkpt lat="44.52014" lon="2.42027">
        <ele>244.9</ele>
        <time>2011-06-04T07:17:01Z</time>
      </trkpt>
      <trkpt lat="44.52006" lon="2.42037">
        <ele>245</ele>
        <time>2011-06-04T07:17:03Z</time>
      </trkpt>
      <trkpt lat="44.52002" lon="2.42041">
        <ele>245</ele>
        <time>2011-06-04T07:17:04Z</time>
      </trkpt>
      <trkpt lat="44.51983" lon="2.42055">
        <ele>246.7</ele>
        <time>2011-06-04T07:17:08Z</time>
      </trkpt>
      <trkpt lat="44.51979" lon="2.42058">
        <ele>247.1</ele>
        <time>2011-06-04T07:17:09Z</time>
      </trkpt>
      <trkpt lat="44.51972" lon="2.42067">
        <ele>247.4</ele>
        <time>2011-06-04T07:17:11Z</time>
      </trkpt>
      <trkpt lat="44.51962" lon="2.42081">
        <ele>247.5</ele>
        <time>2011-06-04T07:17:14Z</time>
      </trkpt>
      <trkpt lat="44.51949" lon="2.42101">
        <ele>247.7</ele>
        <time>2011-06-04T07:17:18Z</time>
      </trkpt>
      <trkpt lat="44.51942" lon="2.42112">
        <ele>247.9</ele>
        <time>2011-06-04T07:17:20Z</time>
      </trkpt>
      <trkpt lat="44.51921" lon="2.42147">
        <ele>247.6</ele>
        <time>2011-06-04T07:17:26Z</time>
      </trkpt>
      <trkpt lat="44.51894" lon="2.42185">
        <ele>247.9</ele>
        <time>2011-06-04T07:17:33Z</time>
      </trkpt>
      <trkpt lat="44.51877" lon="2.42205">
        <ele>248.1</ele>
        <time>2011-06-04T07:17:37Z</time>
      </trkpt>
      <trkpt lat="44.51844" lon="2.42238">
        <ele>247.5</ele>
        <time>2011-06-04T07:17:44Z</time>
      </trkpt>
      <trkpt lat="44.51821" lon="2.4226">
        <ele>248.6</ele>
        <time>2011-06-04T07:17:49Z</time>
      </trkpt>
      <trkpt lat="44.51804" lon="2.42277">
        <ele>249.8</ele>
        <time>2011-06-04T07:17:53Z</time>
      </trkpt>
      <trkpt lat="44.51773" lon="2.42304">
        <ele>249.7</ele>
        <time>2011-06-04T07:18:00Z</time>
      </trkpt>
      <trkpt lat="44.51745" lon="2.42323">
        <ele>248.3</ele>
        <time>2011-06-04T07:18:05Z</time>
      </trkpt>
      <trkpt lat="44.51715" lon="2.42342">
        <ele>249.8</ele>
        <time>2011-06-04T07:18:10Z</time>
      </trkpt>
      <trkpt lat="44.51681" lon="2.42369">
        <ele>251.4</ele>
        <time>2011-06-04T07:18:16Z</time>
      </trkpt>
      <trkpt lat="44.51641" lon="2.42397">
        <ele>252.9</ele>
        <time>2011-06-04T07:18:22Z</time>
      </trkpt>
      <trkpt lat="44.51617" lon="2.42413">
        <ele>251.9</ele>
        <time>2011-06-04T07:18:26Z</time>
      </trkpt>
      <trkpt lat="44.51607" lon="2.42421">
        <ele>251.3</ele>
        <time>2011-06-04T07:18:28Z</time>
      </trkpt>
      <trkpt lat="44.51598" lon="2.42432">
        <ele>251.2</ele>
        <time>2011-06-04T07:18:31Z</time>
      </trkpt>
      <trkpt lat="44.51591" lon="2.42438">
        <ele>251.1</ele>
        <time>2011-06-04T07:18:33Z</time>
      </trkpt>
      <trkpt lat="44.51579" lon="2.4245">
        <ele>251.6</ele>
        <time>2011-06-04T07:18:36Z</time>
      </trkpt>
      <trkpt lat="44.51568" lon="2.42465">
        <ele>252.1</ele>
        <time>2011-06-04T07:18:39Z</time>
      </trkpt>
      <trkpt lat="44.51564" lon="2.42471">
        <ele>252</ele>
        <time>2011-06-04T07:18:40Z</time>
      </trkpt>
      <trkpt lat="44.51543" lon="2.42501">
        <ele>249.9</ele>
        <time>2011-06-04T07:18:45Z</time>
      </trkpt>
      <trkpt lat="44.51524" lon="2.42531">
        <ele>250.2</ele>
        <time>2011-06-04T07:18:50Z</time>
      </trkpt>
      <trkpt lat="44.51513" lon="2.42549">
        <ele>250.1</ele>
        <time>2011-06-04T07:18:53Z</time>
      </trkpt>
      <trkpt lat="44.51491" lon="2.4259">
        <ele>250</ele>
        <time>2011-06-04T07:18:59Z</time>
      </trkpt>
      <trkpt lat="44.51474" lon="2.42622">
        <ele>250.4</ele>
        <time>2011-06-04T07:19:04Z</time>
      </trkpt>
      <trkpt lat="44.51465" lon="2.42644">
        <ele>249.8</ele>
        <time>2011-06-04T07:19:07Z</time>
      </trkpt>
      <trkpt lat="44.51451" lon="2.42681">
        <ele>248.4</ele>
        <time>2011-06-04T07:19:12Z</time>
      </trkpt>
      <trkpt lat="44.5144" lon="2.42718">
        <ele>247.8</ele>
        <time>2011-06-04T07:19:17Z</time>
      </trkpt>
      <trkpt lat="44.51434" lon="2.4275">
        <ele>247.2</ele>
        <time>2011-06-04T07:19:21Z</time>
      </trkpt>
      <trkpt lat="44.51432" lon="2.42767">
        <ele>247.1</ele>
        <time>2011-06-04T07:19:23Z</time>
      </trkpt>
      <trkpt lat="44.5143" lon="2.42814">
        <ele>246.8</ele>
        <time>2011-06-04T07:19:28Z</time>
      </trkpt>
      <trkpt lat="44.51427" lon="2.42841">
        <ele>246.6</ele>
        <time>2011-06-04T07:19:31Z</time>
      </trkpt>
      <trkpt lat="44.51421" lon="2.42866">
        <ele>246.6</ele>
        <time>2011-06-04T07:19:34Z</time>
      </trkpt>
      <trkpt lat="44.51419" lon="2.42873">
        <ele>246.6</ele>
        <time>2011-06-04T07:19:35Z</time>
      </trkpt>
      <trkpt lat="44.51408" lon="2.42901">
        <ele>247.3</ele>
        <time>2011-06-04T07:19:39Z</time>
      </trkpt>
      <trkpt lat="44.51394" lon="2.4293">
        <ele>248</ele>
        <time>2011-06-04T07:19:43Z</time>
      </trkpt>
      <trkpt lat="44.51386" lon="2.42945">
        <ele>248.1</ele>
        <time>2011-06-04T07:19:45Z</time>
      </trkpt>
      <trkpt lat="44.51368" lon="2.42973">
        <ele>248.2</ele>
        <time>2011-06-04T07:19:49Z</time>
      </trkpt>
      <trkpt lat="44.51364" lon="2.42979">
        <ele>248.1</ele>
        <time>2011-06-04T07:19:50Z</time>
      </trkpt>
      <trkpt lat="44.51342" lon="2.43005">
        <ele>248.1</ele>
        <time>2011-06-04T07:19:55Z</time>
      </trkpt>
      <trkpt lat="44.51325" lon="2.43027">
        <ele>249.4</ele>
        <time>2011-06-04T07:19:59Z</time>
      </trkpt>
      <trkpt lat="44.51307" lon="2.43049">
        <ele>250.4</ele>
        <time>2011-06-04T07:20:03Z</time>
      </trkpt>
      <trkpt lat="44.51297" lon="2.43059">
        <ele>250.5</ele>
        <time>2011-06-04T07:20:05Z</time>
      </trkpt>
      <trkpt lat="44.51286" lon="2.43066">
        <ele>250.4</ele>
        <time>2011-06-04T07:20:07Z</time>
      </trkpt>
      <trkpt lat="44.51275" lon="2.43071">
        <ele>250.2</ele>
        <time>2011-06-04T07:20:09Z</time>
      </trkpt>
      <trkpt lat="44.51244" lon="2.43078">
        <ele>250</ele>
        <time>2011-06-04T07:20:14Z</time>
      </trkpt>
      <trkpt lat="44.51238" lon="2.43078">
        <ele>250.5</ele>
        <time>2011-06-04T07:20:15Z</time>
      </trkpt>
      <trkpt lat="44.51231" lon="2.43077">
        <ele>251.2</ele>
        <time>2011-06-04T07:20:16Z</time>
      </trkpt>
      <trkpt lat="44.51213" lon="2.43069">
        <ele>253.5</ele>
        <time>2011-06-04T07:20:19Z</time>
      </trkpt>
      <trkpt lat="44.51181" lon="2.43059">
        <ele>257.1</ele>
        <time>2011-06-04T07:20:24Z</time>
      </trkpt>
      <trkpt lat="44.51151" lon="2.43048">
        <ele>259.8</ele>
        <time>2011-06-04T07:20:29Z</time>
      </trkpt>
      <trkpt lat="44.51141" lon="2.43041">
        <ele>260.8</ele>
        <time>2011-06-04T07:20:31Z</time>
      </trkpt>
      <trkpt lat="44.51123" lon="2.43026">
        <ele>263.3</ele>
        <time>2011-06-04T07:20:35Z</time>
      </trkpt>
      <trkpt lat="44.51109" lon="2.43019">
        <ele>264.8</ele>
        <time>2011-06-04T07:20:38Z</time>
      </trkpt>
      <trkpt lat="44.51088" lon="2.4301">
        <ele>267.2</ele>
        <time>2011-06-04T07:20:43Z</time>
      </trkpt>
      <trkpt lat="44.51062" lon="2.43002">
        <ele>268</ele>
        <time>2011-06-04T07:20:49Z</time>
      </trkpt>
      <trkpt lat="44.51057" lon="2.43">
        <ele>268</ele>
        <time>2011-06-04T07:20:50Z</time>
      </trkpt>
      <trkpt lat="44.51025" lon="2.42989">
        <ele>269.8</ele>
        <time>2011-06-04T07:20:56Z</time>
      </trkpt>
      <trkpt lat="44.5101" lon="2.42984">
        <ele>270.5</ele>
        <time>2011-06-04T07:20:59Z</time>
      </trkpt>
      <trkpt lat="44.51005" lon="2.42982">
        <ele>271.1</ele>
        <time>2011-06-04T07:21:00Z</time>
      </trkpt>
      <trkpt lat="44.51001" lon="2.42979">
        <ele>272.1</ele>
        <time>2011-06-04T07:21:01Z</time>
      </trkpt>
      <trkpt lat="44.50985" lon="2.42965">
        <ele>274.5</ele>
        <time>2011-06-04T07:21:05Z</time>
      </trkpt>
      <trkpt lat="44.50974" lon="2.42957">
        <ele>276</ele>
        <time>2011-06-04T07:21:08Z</time>
      </trkpt>
      <trkpt lat="44.50959" lon="2.42949">
        <ele>277.8</ele>
        <time>2011-06-04T07:21:12Z</time>
      </trkpt>
      <trkpt lat="44.50948" lon="2.42942">
        <ele>279.2</ele>
        <time>2011-06-04T07:21:15Z</time>
      </trkpt>
      <trkpt lat="44.50938" lon="2.42935">
        <ele>280.8</ele>
        <time>2011-06-04T07:21:18Z</time>
      </trkpt>
      <trkpt lat="44.50919" lon="2.42921">
        <ele>284.7</ele>
        <time>2011-06-04T07:21:24Z</time>
      </trkpt>
      <trkpt lat="44.50914" lon="2.42916">
        <ele>285.8</ele>
        <time>2011-06-04T07:21:26Z</time>
      </trkpt>
      <trkpt lat="44.50906" lon="2.42908">
        <ele>286.1</ele>
        <time>2011-06-04T07:21:29Z</time>
      </trkpt>
      <trkpt lat="44.50893" lon="2.42897">
        <ele>286.6</ele>
        <time>2011-06-04T07:21:33Z</time>
      </trkpt>
      <trkpt lat="44.50885" lon="2.42894">
        <ele>285.4</ele>
        <time>2011-06-04T07:21:35Z</time>
      </trkpt>
      <trkpt lat="44.50877" lon="2.42889">
        <ele>284.8</ele>
        <time>2011-06-04T07:21:37Z</time>
      </trkpt>
      <trkpt lat="44.50872" lon="2.42885">
        <ele>284.8</ele>
        <time>2011-06-04T07:21:38Z</time>
      </trkpt>
      <trkpt lat="44.50867" lon="2.4288">
        <ele>284.8</ele>
        <time>2011-06-04T07:21:39Z</time>
      </trkpt>
      <trkpt lat="44.5085" lon="2.42857">
        <ele>287.3</ele>
        <time>2011-06-04T07:21:45Z</time>
      </trkpt>
      <trkpt lat="44.50845" lon="2.42853">
        <ele>287.4</ele>
        <time>2011-06-04T07:21:47Z</time>
      </trkpt>
      <trkpt lat="44.50843" lon="2.42851">
        <ele>287.4</ele>
        <time>2011-06-04T07:21:48Z</time>
      </trkpt>
      <trkpt lat="44.50839" lon="2.42847">
        <ele>287.6</ele>
        <time>2011-06-04T07:21:50Z</time>
      </trkpt>
      <trkpt lat="44.50835" lon="2.42843">
        <ele>287.9</ele>
        <time>2011-06-04T07:21:52Z</time>
      </trkpt>
      <trkpt lat="44.50827" lon="2.42834">
        <ele>288.1</ele>
        <time>2011-06-04T07:21:56Z</time>
      </trkpt>
      <trkpt lat="44.5082" lon="2.42826">
        <ele>288.1</ele>
        <time>2011-06-04T07:22:00Z</time>
      </trkpt>
      <trkpt lat="44.50815" lon="2.42819">
        <ele>288.4</ele>
        <time>2011-06-04T07:22:03Z</time>
      </trkpt>
      <trkpt lat="44.50811" lon="2.42816">
        <ele>288.5</ele>
        <time>2011-06-04T07:22:05Z</time>
      </trkpt>
      <trkpt lat="44.50804" lon="2.4281">
        <ele>288</ele>
        <time>2011-06-04T07:22:10Z</time>
      </trkpt>
      <trkpt lat="44.508" lon="2.42808">
        <ele>287.6</ele>
        <time>2011-06-04T07:22:13Z</time>
      </trkpt>
      <trkpt lat="44.50792" lon="2.42806">
        <ele>286</ele>
        <time>2011-06-04T07:22:17Z</time>
      </trkpt>
      <trkpt lat="44.50789" lon="2.42806">
        <ele>285.6</ele>
        <time>2011-06-04T07:22:18Z</time>
      </trkpt>
      <trkpt lat="44.50779" lon="2.42802">
        <ele>283.6</ele>
        <time>2011-06-04T07:22:21Z</time>
      </trkpt>
      <trkpt lat="44.50769" lon="2.428">
        <ele>281.8</ele>
        <time>2011-06-04T07:22:24Z</time>
      </trkpt>
      <trkpt lat="44.50759" lon="2.428">
        <ele>279.2</ele>
        <time>2011-06-04T07:22:27Z</time>
      </trkpt>
      <trkpt lat="44.50749" lon="2.42799">
        <ele>277.2</ele>
        <time>2011-06-04T07:22:32Z</time>
      </trkpt>
      <trkpt lat="44.50742" lon="2.428">
        <ele>276.2</ele>
        <time>2011-06-04T07:22:35Z</time>
      </trkpt>
      <trkpt lat="44.50735" lon="2.428">
        <ele>275.7</ele>
        <time>2011-06-04T07:22:38Z</time>
      </trkpt>
      <trkpt lat="44.50732" lon="2.42802">
        <ele>274.4</ele>
        <time>2011-06-04T07:22:56Z</time>
      </trkpt>
      <trkpt lat="44.50725" lon="2.42805">
        <ele>273</ele>
        <time>2011-06-04T07:23:01Z</time>
      </trkpt>
      <trkpt lat="44.50721" lon="2.42808">
        <ele>271.7</ele>
        <time>2011-06-04T07:23:05Z</time>
      </trkpt>
      <trkpt lat="44.50717" lon="2.42809">
        <ele>270.9</ele>
        <time>2011-06-04T07:23:11Z</time>
      </trkpt>
      <trkpt lat="44.50711" lon="2.42809">
        <ele>270.4</ele>
        <time>2011-06-04T07:23:16Z</time>
      </trkpt>
      <trkpt lat="44.50704" lon="2.42811">
        <ele>268.8</ele>
        <time>2011-06-04T07:23:20Z</time>
      </trkpt>
      <trkpt lat="44.50699" lon="2.42809">
        <ele>269.5</ele>
        <time>2011-06-04T07:23:25Z</time>
      </trkpt>
      <trkpt lat="44.50692" lon="2.42809">
        <ele>268.9</ele>
        <time>2011-06-04T07:23:33Z</time>
      </trkpt>
      <trkpt lat="44.50687" lon="2.42817">
        <ele>265.5</ele>
        <time>2011-06-04T07:23:36Z</time>
      </trkpt>
      <trkpt lat="44.50685" lon="2.42832">
        <ele>259.3</ele>
        <time>2011-06-04T07:23:38Z</time>
      </trkpt>
      <trkpt lat="44.50683" lon="2.42841">
        <ele>257.9</ele>
        <time>2011-06-04T07:23:39Z</time>
      </trkpt>
      <trkpt lat="44.50681" lon="2.42849">
        <ele>256.7</ele>
        <time>2011-06-04T07:23:40Z</time>
      </trkpt>
      <trkpt lat="44.50678" lon="2.42856">
        <ele>255.9</ele>
        <time>2011-06-04T07:23:41Z</time>
      </trkpt>
      <trkpt lat="44.50672" lon="2.42869">
        <ele>254</ele>
        <time>2011-06-04T07:23:43Z</time>
      </trkpt>
      <trkpt lat="44.50665" lon="2.42878">
        <ele>252.9</ele>
        <time>2011-06-04T07:23:45Z</time>
      </trkpt>
      <trkpt lat="44.50662" lon="2.42882">
        <ele>252.8</ele>
        <time>2011-06-04T07:23:46Z</time>
      </trkpt>
      <trkpt lat="44.50658" lon="2.42884">
        <ele>253.1</ele>
        <time>2011-06-04T07:23:47Z</time>
      </trkpt>
      <trkpt lat="44.5065" lon="2.42881">
        <ele>253.9</ele>
        <time>2011-06-04T07:23:49Z</time>
      </trkpt>
      <trkpt lat="44.50643" lon="2.42876">
        <ele>255.3</ele>
        <time>2011-06-04T07:23:51Z</time>
      </trkpt>
      <trkpt lat="44.50639" lon="2.42874">
        <ele>255.8</ele>
        <time>2011-06-04T07:23:52Z</time>
      </trkpt>
      <trkpt lat="44.50623" lon="2.42861">
        <ele>258.7</ele>
        <time>2011-06-04T07:23:56Z</time>
      </trkpt>
      <trkpt lat="44.50609" lon="2.42847">
        <ele>261.8</ele>
        <time>2011-06-04T07:24:01Z</time>
      </trkpt>
      <trkpt lat="44.50596" lon="2.42835">
        <ele>264.5</ele>
        <time>2011-06-04T07:24:06Z</time>
      </trkpt>
      <trkpt lat="44.50577" lon="2.42824">
        <ele>269.4</ele>
        <time>2011-06-04T07:24:12Z</time>
      </trkpt>
      <trkpt lat="44.50557" lon="2.42814">
        <ele>271.8</ele>
        <time>2011-06-04T07:24:18Z</time>
      </trkpt>
      <trkpt lat="44.50547" lon="2.4281">
        <ele>273.3</ele>
        <time>2011-06-04T07:24:21Z</time>
      </trkpt>
      <trkpt lat="44.50531" lon="2.42806">
        <ele>273.6</ele>
        <time>2011-06-04T07:24:27Z</time>
      </trkpt>
      <trkpt lat="44.50525" lon="2.42806">
        <ele>273.3</ele>
        <time>2011-06-04T07:24:29Z</time>
      </trkpt>
      <trkpt lat="44.50514" lon="2.42808">
        <ele>272.3</ele>
        <time>2011-06-04T07:24:33Z</time>
      </trkpt>
      <trkpt lat="44.50511" lon="2.42809">
        <ele>271.7</ele>
        <time>2011-06-04T07:24:34Z</time>
      </trkpt>
      <trkpt lat="44.50506" lon="2.42812">
        <ele>270</ele>
        <time>2011-06-04T07:24:36Z</time>
      </trkpt>
      <trkpt lat="44.50503" lon="2.42815">
        <ele>269.4</ele>
        <time>2011-06-04T07:24:37Z</time>
      </trkpt>
      <trkpt lat="44.50498" lon="2.4282">
        <ele>267.3</ele>
        <time>2011-06-04T07:24:39Z</time>
      </trkpt>
      <trkpt lat="44.50494" lon="2.42825">
        <ele>265</ele>
        <time>2011-06-04T07:24:41Z</time>
      </trkpt>
      <trkpt lat="44.50486" lon="2.42838">
        <ele>261.7</ele>
        <time>2011-06-04T07:24:45Z</time>
      </trkpt>
      <trkpt lat="44.50482" lon="2.42847">
        <ele>260.5</ele>
        <time>2011-06-04T07:24:47Z</time>
      </trkpt>
      <trkpt lat="44.5048" lon="2.42857">
        <ele>259.2</ele>
        <time>2011-06-04T07:24:49Z</time>
      </trkpt>
      <trkpt lat="44.50479" lon="2.42867">
        <ele>257.8</ele>
        <time>2011-06-04T07:24:51Z</time>
      </trkpt>
      <trkpt lat="44.50479" lon="2.42877">
        <ele>256.6</ele>
        <time>2011-06-04T07:24:53Z</time>
      </trkpt>
      <trkpt lat="44.5048" lon="2.42897">
        <ele>254</ele>
        <time>2011-06-04T07:24:57Z</time>
      </trkpt>
      <trkpt lat="44.5048" lon="2.42906">
        <ele>252.6</ele>
        <time>2011-06-04T07:24:59Z</time>
      </trkpt>
      <trkpt lat="44.50478" lon="2.42915">
        <ele>251.4</ele>
        <time>2011-06-04T07:25:01Z</time>
      </trkpt>
      <trkpt lat="44.50474" lon="2.42923">
        <ele>251.7</ele>
        <time>2011-06-04T07:25:03Z</time>
      </trkpt>
      <trkpt lat="44.50462" lon="2.42942">
        <ele>252.4</ele>
        <time>2011-06-04T07:25:08Z</time>
      </trkpt>
      <trkpt lat="44.50455" lon="2.42957">
        <ele>252.8</ele>
        <time>2011-06-04T07:25:11Z</time>
      </trkpt>
      <trkpt lat="44.50454" lon="2.42962">
        <ele>252.9</ele>
        <time>2011-06-04T07:25:12Z</time>
      </trkpt>
      <trkpt lat="44.50448" lon="2.42989">
        <ele>253.4</ele>
        <time>2011-06-04T07:25:17Z</time>
      </trkpt>
      <trkpt lat="44.50444" lon="2.43005">
        <ele>253.7</ele>
        <time>2011-06-04T07:25:20Z</time>
      </trkpt>
      <trkpt lat="44.50439" lon="2.4302">
        <ele>254.4</ele>
        <time>2011-06-04T07:25:23Z</time>
      </trkpt>
      <trkpt lat="44.50435" lon="2.43029">
        <ele>254.5</ele>
        <time>2011-06-04T07:25:25Z</time>
      </trkpt>
      <trkpt lat="44.50428" lon="2.43044">
        <ele>254.7</ele>
        <time>2011-06-04T07:25:28Z</time>
      </trkpt>
      <trkpt lat="44.50418" lon="2.43078">
        <ele>254.9</ele>
        <time>2011-06-04T07:25:35Z</time>
      </trkpt>
      <trkpt lat="44.50417" lon="2.43084">
        <ele>255</ele>
        <time>2011-06-04T07:25:36Z</time>
      </trkpt>
      <trkpt lat="44.50416" lon="2.4309">
        <ele>255.8</ele>
        <time>2011-06-04T07:25:37Z</time>
      </trkpt>
      <trkpt lat="44.50415" lon="2.43107">
        <ele>258</ele>
        <time>2011-06-04T07:25:40Z</time>
      </trkpt>
      <trkpt lat="44.50415" lon="2.43113">
        <ele>258.9</ele>
        <time>2011-06-04T07:25:41Z</time>
      </trkpt>
      <trkpt lat="44.50415" lon="2.43131">
        <ele>261.1</ele>
        <time>2011-06-04T07:25:44Z</time>
      </trkpt>
      <trkpt lat="44.50415" lon="2.43165">
        <ele>265.7</ele>
        <time>2011-06-04T07:25:50Z</time>
      </trkpt>
      <trkpt lat="44.50415" lon="2.43206">
        <ele>270.8</ele>
        <time>2011-06-04T07:25:57Z</time>
      </trkpt>
      <trkpt lat="44.50414" lon="2.43228">
        <ele>273.5</ele>
        <time>2011-06-04T07:26:01Z</time>
      </trkpt>
      <trkpt lat="44.50412" lon="2.43238">
        <ele>274.2</ele>
        <time>2011-06-04T07:26:03Z</time>
      </trkpt>
      <trkpt lat="44.50409" lon="2.43252">
        <ele>275.2</ele>
        <time>2011-06-04T07:26:06Z</time>
      </trkpt>
      <trkpt lat="44.50408" lon="2.43257">
        <ele>275.8</ele>
        <time>2011-06-04T07:26:07Z</time>
      </trkpt>
      <trkpt lat="44.50405" lon="2.43287">
        <ele>279.8</ele>
        <time>2011-06-04T07:26:13Z</time>
      </trkpt>
      <trkpt lat="44.50402" lon="2.43297">
        <ele>280.5</ele>
        <time>2011-06-04T07:26:15Z</time>
      </trkpt>
      <trkpt lat="44.50398" lon="2.43306">
        <ele>280.4</ele>
        <time>2011-06-04T07:26:17Z</time>
      </trkpt>
      <trkpt lat="44.50385" lon="2.43322">
        <ele>279.1</ele>
        <time>2011-06-04T07:26:21Z</time>
      </trkpt>
      <trkpt lat="44.50368" lon="2.43345">
        <ele>276.5</ele>
        <time>2011-06-04T07:26:27Z</time>
      </trkpt>
      <trkpt lat="44.50357" lon="2.4336">
        <ele>273.8</ele>
        <time>2011-06-04T07:26:31Z</time>
      </trkpt>
      <trkpt lat="44.50351" lon="2.43366">
        <ele>272.1</ele>
        <time>2011-06-04T07:26:33Z</time>
      </trkpt>
      <trkpt lat="44.50344" lon="2.43371">
        <ele>270.3</ele>
        <time>2011-06-04T07:26:35Z</time>
      </trkpt>
      <trkpt lat="44.50338" lon="2.43376">
        <ele>268.2</ele>
        <time>2011-06-04T07:26:37Z</time>
      </trkpt>
      <trkpt lat="44.50331" lon="2.43379">
        <ele>266.4</ele>
        <time>2011-06-04T07:26:39Z</time>
      </trkpt>
      <trkpt lat="44.50323" lon="2.43381">
        <ele>265.6</ele>
        <time>2011-06-04T07:26:41Z</time>
      </trkpt>
      <trkpt lat="44.50306" lon="2.43384">
        <ele>263.3</ele>
        <time>2011-06-04T07:26:46Z</time>
      </trkpt>
      <trkpt lat="44.50299" lon="2.43386">
        <ele>262.4</ele>
        <time>2011-06-04T07:26:48Z</time>
      </trkpt>
      <trkpt lat="44.50284" lon="2.43385">
        <ele>260.4</ele>
        <time>2011-06-04T07:26:52Z</time>
      </trkpt>
      <trkpt lat="44.5026" lon="2.43382">
        <ele>257.2</ele>
        <time>2011-06-04T07:26:59Z</time>
      </trkpt>
      <trkpt lat="44.50257" lon="2.43381">
        <ele>256.8</ele>
        <time>2011-06-04T07:27:00Z</time>
      </trkpt>
      <trkpt lat="44.50247" lon="2.43376">
        <ele>256.1</ele>
        <time>2011-06-04T07:27:03Z</time>
      </trkpt>
      <trkpt lat="44.50242" lon="2.4337">
        <ele>256.3</ele>
        <time>2011-06-04T07:27:05Z</time>
      </trkpt>
      <trkpt lat="44.50243" lon="2.43363">
        <ele>256.5</ele>
        <time>2011-06-04T07:27:07Z</time>
      </trkpt>
      <trkpt lat="44.50252" lon="2.43342">
        <ele>257</ele>
        <time>2011-06-04T07:27:14Z</time>
      </trkpt>
      <trkpt lat="44.50253" lon="2.43335">
        <ele>257.2</ele>
        <time>2011-06-04T07:27:16Z</time>
      </trkpt>
      <trkpt lat="44.50255" lon="2.43328">
        <ele>257.4</ele>
        <time>2011-06-04T07:27:18Z</time>
      </trkpt>
      <trkpt lat="44.50255" lon="2.43321">
        <ele>257.3</ele>
        <time>2011-06-04T07:27:20Z</time>
      </trkpt>
      <trkpt lat="44.50253" lon="2.43312">
        <ele>257.2</ele>
        <time>2011-06-04T07:27:23Z</time>
      </trkpt>
      <trkpt lat="44.50246" lon="2.43308">
        <ele>257.1</ele>
        <time>2011-06-04T07:27:27Z</time>
      </trkpt>
      <trkpt lat="44.50242" lon="2.43304">
        <ele>257.3</ele>
        <time>2011-06-04T07:27:29Z</time>
      </trkpt>
      <trkpt lat="44.50226" lon="2.4329">
        <ele>258.3</ele>
        <time>2011-06-04T07:27:36Z</time>
      </trkpt>
      <trkpt lat="44.50212" lon="2.43278">
        <ele>259.6</ele>
        <time>2011-06-04T07:27:41Z</time>
      </trkpt>
      <trkpt lat="44.50207" lon="2.43275">
        <ele>260.1</ele>
        <time>2011-06-04T07:27:43Z</time>
      </trkpt>
      <trkpt lat="44.50189" lon="2.43266">
        <ele>261.9</ele>
        <time>2011-06-04T07:27:49Z</time>
      </trkpt>
      <trkpt lat="44.50176" lon="2.43258">
        <ele>263.5</ele>
        <time>2011-06-04T07:27:54Z</time>
      </trkpt>
      <trkpt lat="44.5017" lon="2.43256">
        <ele>264.3</ele>
        <time>2011-06-04T07:27:56Z</time>
      </trkpt>
      <trkpt lat="44.50167" lon="2.43255">
        <ele>264.5</ele>
        <time>2011-06-04T07:27:57Z</time>
      </trkpt>
      <trkpt lat="44.50154" lon="2.43255">
        <ele>264.2</ele>
        <time>2011-06-04T07:28:02Z</time>
      </trkpt>
      <trkpt lat="44.50133" lon="2.43253">
        <ele>264</ele>
        <time>2011-06-04T07:28:08Z</time>
      </trkpt>
      <trkpt lat="44.50119" lon="2.43249">
        <ele>264.1</ele>
        <time>2011-06-04T07:28:12Z</time>
      </trkpt>
      <trkpt lat="44.50105" lon="2.43246">
        <ele>264.2</ele>
        <time>2011-06-04T07:28:16Z</time>
      </trkpt>
      <trkpt lat="44.50097" lon="2.43247">
        <ele>264</ele>
        <time>2011-06-04T07:28:18Z</time>
      </trkpt>
      <trkpt lat="44.50089" lon="2.43246">
        <ele>264.1</ele>
        <time>2011-06-04T07:28:20Z</time>
      </trkpt>
      <trkpt lat="44.50076" lon="2.43242">
        <ele>264.7</ele>
        <time>2011-06-04T07:28:23Z</time>
      </trkpt>
      <trkpt lat="44.50066" lon="2.4324">
        <ele>265.5</ele>
        <time>2011-06-04T07:28:25Z</time>
      </trkpt>
      <trkpt lat="44.50045" lon="2.43232">
        <ele>267.9</ele>
        <time>2011-06-04T07:28:31Z</time>
      </trkpt>
      <trkpt lat="44.50039" lon="2.43229">
        <ele>269</ele>
        <time>2011-06-04T07:28:33Z</time>
      </trkpt>
      <trkpt lat="44.50033" lon="2.43227">
        <ele>269.6</ele>
        <time>2011-06-04T07:28:35Z</time>
      </trkpt>
      <trkpt lat="44.50019" lon="2.43231">
        <ele>269.2</ele>
        <time>2011-06-04T07:28:38Z</time>
      </trkpt>
      <trkpt lat="44.5001" lon="2.43232">
        <ele>269.2</ele>
        <time>2011-06-04T07:28:41Z</time>
      </trkpt>
      <trkpt lat="44.50003" lon="2.43231">
        <ele>269.8</ele>
        <time>2011-06-04T07:28:43Z</time>
      </trkpt>
      <trkpt lat="44.49997" lon="2.43228">
        <ele>270.9</ele>
        <time>2011-06-04T07:28:45Z</time>
      </trkpt>
      <trkpt lat="44.49992" lon="2.43224">
        <ele>271.9</ele>
        <time>2011-06-04T07:28:47Z</time>
      </trkpt>
      <trkpt lat="44.49986" lon="2.43221">
        <ele>272.6</ele>
        <time>2011-06-04T07:28:49Z</time>
      </trkpt>
      <trkpt lat="44.49972" lon="2.43221">
        <ele>272.6</ele>
        <time>2011-06-04T07:28:53Z</time>
      </trkpt>
      <trkpt lat="44.49966" lon="2.4322">
        <ele>272.6</ele>
        <time>2011-06-04T07:28:55Z</time>
      </trkpt>
      <trkpt lat="44.49956" lon="2.4322">
        <ele>272.6</ele>
        <time>2011-06-04T07:28:58Z</time>
      </trkpt>
      <trkpt lat="44.49941" lon="2.43218">
        <ele>273.3</ele>
        <time>2011-06-04T07:29:03Z</time>
      </trkpt>
      <trkpt lat="44.49937" lon="2.43217">
        <ele>273.3</ele>
        <time>2011-06-04T07:29:04Z</time>
      </trkpt>
      <trkpt lat="44.49931" lon="2.43217">
        <ele>273.7</ele>
        <time>2011-06-04T07:29:06Z</time>
      </trkpt>
      <trkpt lat="44.49915" lon="2.43213">
        <ele>274.8</ele>
        <time>2011-06-04T07:29:11Z</time>
      </trkpt>
      <trkpt lat="44.49903" lon="2.43209">
        <ele>275.1</ele>
        <time>2011-06-04T07:29:16Z</time>
      </trkpt>
      <trkpt lat="44.49896" lon="2.43207">
        <ele>275</ele>
        <time>2011-06-04T07:29:23Z</time>
      </trkpt>
      <trkpt lat="44.49892" lon="2.43213">
        <ele>273.3</ele>
        <time>2011-06-04T07:29:26Z</time>
      </trkpt>
      <trkpt lat="44.49886" lon="2.43219">
        <ele>271</ele>
        <time>2011-06-04T07:29:29Z</time>
      </trkpt>
      <trkpt lat="44.49879" lon="2.43226">
        <ele>268.7</ele>
        <time>2011-06-04T07:29:34Z</time>
      </trkpt>
      <trkpt lat="44.49871" lon="2.43237">
        <ele>265.3</ele>
        <time>2011-06-04T07:29:38Z</time>
      </trkpt>
      <trkpt lat="44.49865" lon="2.43241">
        <ele>263.5</ele>
        <time>2011-06-04T07:29:40Z</time>
      </trkpt>
      <trkpt lat="44.49863" lon="2.43244">
        <ele>262.6</ele>
        <time>2011-06-04T07:29:41Z</time>
      </trkpt>
      <trkpt lat="44.49854" lon="2.43257">
        <ele>260.2</ele>
        <time>2011-06-04T07:29:45Z</time>
      </trkpt>
      <trkpt lat="44.49852" lon="2.4326">
        <ele>260.1</ele>
        <time>2011-06-04T07:29:46Z</time>
      </trkpt>
      <trkpt lat="44.49846" lon="2.43272">
        <ele>259.7</ele>
        <time>2011-06-04T07:29:50Z</time>
      </trkpt>
      <trkpt lat="44.49837" lon="2.43286">
        <ele>259.2</ele>
        <time>2011-06-04T07:29:57Z</time>
      </trkpt>
      <trkpt lat="44.49833" lon="2.43294">
        <ele>259</ele>
        <time>2011-06-04T07:30:00Z</time>
      </trkpt>
      <trkpt lat="44.49829" lon="2.43302">
        <ele>259</ele>
        <time>2011-06-04T07:30:03Z</time>
      </trkpt>
      <trkpt lat="44.49823" lon="2.43314">
        <ele>258.8</ele>
        <time>2011-06-04T07:30:07Z</time>
      </trkpt>
      <trkpt lat="44.49813" lon="2.43335">
        <ele>258.3</ele>
        <time>2011-06-04T07:30:13Z</time>
      </trkpt>
      <trkpt lat="44.49808" lon="2.43351">
        <ele>261</ele>
        <time>2011-06-04T07:30:17Z</time>
      </trkpt>
      <trkpt lat="44.49801" lon="2.43381">
        <ele>265.8</ele>
        <time>2011-06-04T07:30:25Z</time>
      </trkpt>
      <trkpt lat="44.498" lon="2.43386">
        <ele>266.5</ele>
        <time>2011-06-04T07:30:26Z</time>
      </trkpt>
      <trkpt lat="44.49797" lon="2.4341">
        <ele>269.8</ele>
        <time>2011-06-04T07:30:32Z</time>
      </trkpt>
      <trkpt lat="44.49796" lon="2.43421">
        <ele>271.4</ele>
        <time>2011-06-04T07:30:35Z</time>
      </trkpt>
      <trkpt lat="44.49797" lon="2.43427">
        <ele>272.8</ele>
        <time>2011-06-04T07:30:37Z</time>
      </trkpt>
      <trkpt lat="44.49799" lon="2.43434">
        <ele>274.2</ele>
        <time>2011-06-04T07:30:39Z</time>
      </trkpt>
      <trkpt lat="44.49808" lon="2.43461">
        <ele>281</ele>
        <time>2011-06-04T07:30:46Z</time>
      </trkpt>
      <trkpt lat="44.49807" lon="2.43467">
        <ele>281.6</ele>
        <time>2011-06-04T07:30:48Z</time>
      </trkpt>
      <trkpt lat="44.49794" lon="2.43478">
        <ele>279.9</ele>
        <time>2011-06-04T07:30:56Z</time>
      </trkpt>
      <trkpt lat="44.49789" lon="2.43486">
        <ele>279.5</ele>
        <time>2011-06-04T07:31:00Z</time>
      </trkpt>
      <trkpt lat="44.49779" lon="2.43499">
        <ele>278.3</ele>
        <time>2011-06-04T07:31:06Z</time>
      </trkpt>
      <trkpt lat="44.49765" lon="2.43521">
        <ele>275.8</ele>
        <time>2011-06-04T07:31:18Z</time>
      </trkpt>
      <trkpt lat="44.4976" lon="2.43536">
        <ele>275.5</ele>
        <time>2011-06-04T07:31:24Z</time>
      </trkpt>
      <trkpt lat="44.4976" lon="2.43547">
        <ele>276.4</ele>
        <time>2011-06-04T07:31:28Z</time>
      </trkpt>
      <trkpt lat="44.49759" lon="2.43559">
        <ele>276.9</ele>
        <time>2011-06-04T07:31:32Z</time>
      </trkpt>
      <trkpt lat="44.49752" lon="2.43577">
        <ele>276.1</ele>
        <time>2011-06-04T07:31:38Z</time>
      </trkpt>
      <trkpt lat="44.49746" lon="2.43585">
        <ele>275.7</ele>
        <time>2011-06-04T07:31:42Z</time>
      </trkpt>
      <trkpt lat="44.4974" lon="2.43592">
        <ele>276</ele>
        <time>2011-06-04T07:31:46Z</time>
      </trkpt>
      <trkpt lat="44.49738" lon="2.43596">
        <ele>276.2</ele>
        <time>2011-06-04T07:31:48Z</time>
      </trkpt>
      <trkpt lat="44.49729" lon="2.43604">
        <ele>275.9</ele>
        <time>2011-06-04T07:31:54Z</time>
      </trkpt>
      <trkpt lat="44.49725" lon="2.4361">
        <ele>276</ele>
        <time>2011-06-04T07:31:57Z</time>
      </trkpt>
      <trkpt lat="44.49718" lon="2.43619">
        <ele>275.7</ele>
        <time>2011-06-04T07:32:01Z</time>
      </trkpt>
      <trkpt lat="44.49713" lon="2.43624">
        <ele>275.3</ele>
        <time>2011-06-04T07:32:03Z</time>
      </trkpt>
      <trkpt lat="44.4971" lon="2.43626">
        <ele>274.9</ele>
        <time>2011-06-04T07:32:04Z</time>
      </trkpt>
      <trkpt lat="44.49701" lon="2.43633">
        <ele>273.6</ele>
        <time>2011-06-04T07:32:07Z</time>
      </trkpt>
      <trkpt lat="44.49694" lon="2.43639">
        <ele>272.4</ele>
        <time>2011-06-04T07:32:09Z</time>
      </trkpt>
      <trkpt lat="44.49683" lon="2.43651">
        <ele>270.1</ele>
        <time>2011-06-04T07:32:12Z</time>
      </trkpt>
      <trkpt lat="44.49678" lon="2.43654">
        <ele>269.1</ele>
        <time>2011-06-04T07:32:13Z</time>
      </trkpt>
      <trkpt lat="44.49674" lon="2.43658">
        <ele>268</ele>
        <time>2011-06-04T07:32:14Z</time>
      </trkpt>
      <trkpt lat="44.49661" lon="2.43673">
        <ele>267.5</ele>
        <time>2011-06-04T07:32:17Z</time>
      </trkpt>
      <trkpt lat="44.49641" lon="2.43694">
        <ele>270.8</ele>
        <time>2011-06-04T07:32:21Z</time>
      </trkpt>
      <trkpt lat="44.49623" lon="2.43706">
        <ele>271.1</ele>
        <time>2011-06-04T07:32:24Z</time>
      </trkpt>
      <trkpt lat="44.49619" lon="2.43711">
        <ele>271</ele>
        <time>2011-06-04T07:32:25Z</time>
      </trkpt>
      <trkpt lat="44.49611" lon="2.43721">
        <ele>270.4</ele>
        <time>2011-06-04T07:32:27Z</time>
      </trkpt>
      <trkpt lat="44.49606" lon="2.4373">
        <ele>269.7</ele>
        <time>2011-06-04T07:32:29Z</time>
      </trkpt>
      <trkpt lat="44.49602" lon="2.43741">
        <ele>268.9</ele>
        <time>2011-06-04T07:32:31Z</time>
      </trkpt>
      <trkpt lat="44.49599" lon="2.43761">
        <ele>269.6</ele>
        <time>2011-06-04T07:32:35Z</time>
      </trkpt>
      <trkpt lat="44.49598" lon="2.43766">
        <ele>270.1</ele>
        <time>2011-06-04T07:32:36Z</time>
      </trkpt>
      <trkpt lat="44.49592" lon="2.43779">
        <ele>271.1</ele>
        <time>2011-06-04T07:32:39Z</time>
      </trkpt>
      <trkpt lat="44.49581" lon="2.43796">
        <ele>272.1</ele>
        <time>2011-06-04T07:32:44Z</time>
      </trkpt>
      <trkpt lat="44.49577" lon="2.43803">
        <ele>273.2</ele>
        <time>2011-06-04T07:32:46Z</time>
      </trkpt>
      <trkpt lat="44.49571" lon="2.43807">
        <ele>273.4</ele>
        <time>2011-06-04T07:32:48Z</time>
      </trkpt>
      <trkpt lat="44.49565" lon="2.43807">
        <ele>273.3</ele>
        <time>2011-06-04T07:32:50Z</time>
      </trkpt>
      <trkpt lat="44.49561" lon="2.4381">
        <ele>273.4</ele>
        <time>2011-06-04T07:32:52Z</time>
      </trkpt>
      <trkpt lat="44.49558" lon="2.43814">
        <ele>273.8</ele>
        <time>2011-06-04T07:32:54Z</time>
      </trkpt>
      <trkpt lat="44.49555" lon="2.43821">
        <ele>274.2</ele>
        <time>2011-06-04T07:32:56Z</time>
      </trkpt>
      <trkpt lat="44.49552" lon="2.43837">
        <ele>275.5</ele>
        <time>2011-06-04T07:33:00Z</time>
      </trkpt>
      <trkpt lat="44.4955" lon="2.43841">
        <ele>275.9</ele>
        <time>2011-06-04T07:33:01Z</time>
      </trkpt>
      <trkpt lat="44.49546" lon="2.43844">
        <ele>275.7</ele>
        <time>2011-06-04T07:33:03Z</time>
      </trkpt>
      <trkpt lat="44.49542" lon="2.43847">
        <ele>275.9</ele>
        <time>2011-06-04T07:33:05Z</time>
      </trkpt>
      <trkpt lat="44.49538" lon="2.43853">
        <ele>276.1</ele>
        <time>2011-06-04T07:33:07Z</time>
      </trkpt>
      <trkpt lat="44.49536" lon="2.43861">
        <ele>276.9</ele>
        <time>2011-06-04T07:33:09Z</time>
      </trkpt>
      <trkpt lat="44.49535" lon="2.43871">
        <ele>278</ele>
        <time>2011-06-04T07:33:11Z</time>
      </trkpt>
      <trkpt lat="44.49531" lon="2.43891">
        <ele>279.5</ele>
        <time>2011-06-04T07:33:15Z</time>
      </trkpt>
      <trkpt lat="44.49528" lon="2.439">
        <ele>279.9</ele>
        <time>2011-06-04T07:33:17Z</time>
      </trkpt>
      <trkpt lat="44.49524" lon="2.43909">
        <ele>279.8</ele>
        <time>2011-06-04T07:33:19Z</time>
      </trkpt>
      <trkpt lat="44.49515" lon="2.43925">
        <ele>279.6</ele>
        <time>2011-06-04T07:33:23Z</time>
      </trkpt>
      <trkpt lat="44.49504" lon="2.43949">
        <ele>280.9</ele>
        <time>2011-06-04T07:33:30Z</time>
      </trkpt>
      <trkpt lat="44.49501" lon="2.43955">
        <ele>281.4</ele>
        <time>2011-06-04T07:33:32Z</time>
      </trkpt>
      <trkpt lat="44.49495" lon="2.43965">
        <ele>282.5</ele>
        <time>2011-06-04T07:33:35Z</time>
      </trkpt>
      <trkpt lat="44.49491" lon="2.43971">
        <ele>282.7</ele>
        <time>2011-06-04T07:33:37Z</time>
      </trkpt>
      <trkpt lat="44.49488" lon="2.43978">
        <ele>283.3</ele>
        <time>2011-06-04T07:33:40Z</time>
      </trkpt>
      <trkpt lat="44.49481" lon="2.43986">
        <ele>283</ele>
        <time>2011-06-04T07:33:44Z</time>
      </trkpt>
      <trkpt lat="44.49469" lon="2.43997">
        <ele>281.5</ele>
        <time>2011-06-04T07:33:52Z</time>
      </trkpt>
      <trkpt lat="44.49466" lon="2.44004">
        <ele>281.1</ele>
        <time>2011-06-04T07:33:55Z</time>
      </trkpt>
      <trkpt lat="44.49457" lon="2.44023">
        <ele>280.5</ele>
        <time>2011-06-04T07:34:01Z</time>
      </trkpt>
      <trkpt lat="44.49446" lon="2.44046">
        <ele>279.3</ele>
        <time>2011-06-04T07:34:06Z</time>
      </trkpt>
      <trkpt lat="44.49436" lon="2.4406">
        <ele>277.5</ele>
        <time>2011-06-04T07:34:10Z</time>
      </trkpt>
      <trkpt lat="44.4943" lon="2.44065">
        <ele>276.5</ele>
        <time>2011-06-04T07:34:12Z</time>
      </trkpt>
      <trkpt lat="44.49427" lon="2.44069">
        <ele>275.9</ele>
        <time>2011-06-04T07:34:13Z</time>
      </trkpt>
      <trkpt lat="44.49405" lon="2.4409">
        <ele>274.2</ele>
        <time>2011-06-04T07:34:21Z</time>
      </trkpt>
      <trkpt lat="44.49387" lon="2.44103">
        <ele>274.5</ele>
        <time>2011-06-04T07:34:27Z</time>
      </trkpt>
      <trkpt lat="44.49367" lon="2.44114">
        <ele>273.9</ele>
        <time>2011-06-04T07:34:33Z</time>
      </trkpt>
      <trkpt lat="44.49352" lon="2.44117">
        <ele>273.1</ele>
        <time>2011-06-04T07:34:37Z</time>
      </trkpt>
      <trkpt lat="44.49341" lon="2.44119">
        <ele>272.4</ele>
        <time>2011-06-04T07:34:40Z</time>
      </trkpt>
      <trkpt lat="44.49334" lon="2.44119">
        <ele>271.9</ele>
        <time>2011-06-04T07:34:42Z</time>
      </trkpt>
      <trkpt lat="44.49315" lon="2.44121">
        <ele>272.9</ele>
        <time>2011-06-04T07:34:48Z</time>
      </trkpt>
      <trkpt lat="44.49308" lon="2.44123">
        <ele>273.2</ele>
        <time>2011-06-04T07:34:50Z</time>
      </trkpt>
      <trkpt lat="44.493" lon="2.44126">
        <ele>273.4</ele>
        <time>2011-06-04T07:34:53Z</time>
      </trkpt>
      <trkpt lat="44.49294" lon="2.44128">
        <ele>273.4</ele>
        <time>2011-06-04T07:34:55Z</time>
      </trkpt>
      <trkpt lat="44.49281" lon="2.44129">
        <ele>273.9</ele>
        <time>2011-06-04T07:34:59Z</time>
      </trkpt>
      <trkpt lat="44.49266" lon="2.44134">
        <ele>273.6</ele>
        <time>2011-06-04T07:35:04Z</time>
      </trkpt>
      <trkpt lat="44.49257" lon="2.44139">
        <ele>272.8</ele>
        <time>2011-06-04T07:35:07Z</time>
      </trkpt>
      <trkpt lat="44.49253" lon="2.44143">
        <ele>272.1</ele>
        <time>2011-06-04T07:35:09Z</time>
      </trkpt>
      <trkpt lat="44.49247" lon="2.44144">
        <ele>272</ele>
        <time>2011-06-04T07:35:11Z</time>
      </trkpt>
      <trkpt lat="44.49242" lon="2.44146">
        <ele>271.6</ele>
        <time>2011-06-04T07:35:13Z</time>
      </trkpt>
      <trkpt lat="44.49239" lon="2.44154">
        <ele>270.1</ele>
        <time>2011-06-04T07:35:16Z</time>
      </trkpt>
      <trkpt lat="44.49223" lon="2.44168">
        <ele>267.8</ele>
        <time>2011-06-04T07:35:23Z</time>
      </trkpt>
      <trkpt lat="44.49217" lon="2.44172">
        <ele>268.4</ele>
        <time>2011-06-04T07:35:25Z</time>
      </trkpt>
      <trkpt lat="44.49213" lon="2.44178">
        <ele>269</ele>
        <time>2011-06-04T07:35:27Z</time>
      </trkpt>
      <trkpt lat="44.4921" lon="2.4418">
        <ele>269.3</ele>
        <time>2011-06-04T07:35:28Z</time>
      </trkpt>
      <trkpt lat="44.49205" lon="2.44184">
        <ele>269.7</ele>
        <time>2011-06-04T07:35:30Z</time>
      </trkpt>
      <trkpt lat="44.49187" lon="2.44206">
        <ele>270.9</ele>
        <time>2011-06-04T07:35:39Z</time>
      </trkpt>
      <trkpt lat="44.49182" lon="2.44211">
        <ele>270.9</ele>
        <time>2011-06-04T07:35:41Z</time>
      </trkpt>
      <trkpt lat="44.49176" lon="2.44216">
        <ele>270.8</ele>
        <time>2011-06-04T07:35:43Z</time>
      </trkpt>
      <trkpt lat="44.49171" lon="2.44221">
        <ele>270.6</ele>
        <time>2011-06-04T07:35:45Z</time>
      </trkpt>
      <trkpt lat="44.49167" lon="2.44225">
        <ele>270.5</ele>
        <time>2011-06-04T07:35:47Z</time>
      </trkpt>
      <trkpt lat="44.49161" lon="2.44232">
        <ele>270.7</ele>
        <time>2011-06-04T07:35:50Z</time>
      </trkpt>
      <trkpt lat="44.49156" lon="2.44239">
        <ele>270.7</ele>
        <time>2011-06-04T07:35:53Z</time>
      </trkpt>
      <trkpt lat="44.49147" lon="2.44247">
        <ele>270.6</ele>
        <time>2011-06-04T07:35:57Z</time>
      </trkpt>
      <trkpt lat="44.49142" lon="2.44253">
        <ele>271</ele>
        <time>2011-06-04T07:36:00Z</time>
      </trkpt>
      <trkpt lat="44.49139" lon="2.44258">
        <ele>272.1</ele>
        <time>2011-06-04T07:36:02Z</time>
      </trkpt>
      <trkpt lat="44.49135" lon="2.44262">
        <ele>272.8</ele>
        <time>2011-06-04T07:36:04Z</time>
      </trkpt>
      <trkpt lat="44.49132" lon="2.44269">
        <ele>274.1</ele>
        <time>2011-06-04T07:36:06Z</time>
      </trkpt>
      <trkpt lat="44.4913" lon="2.44273">
        <ele>274.8</ele>
        <time>2011-06-04T07:36:07Z</time>
      </trkpt>
      <trkpt lat="44.49127" lon="2.44278">
        <ele>275.7</ele>
        <time>2011-06-04T07:36:09Z</time>
      </trkpt>
      <trkpt lat="44.49122" lon="2.44283">
        <ele>276.4</ele>
        <time>2011-06-04T07:36:11Z</time>
      </trkpt>
      <trkpt lat="44.49121" lon="2.44286">
        <ele>276.8</ele>
        <time>2011-06-04T07:36:12Z</time>
      </trkpt>
      <trkpt lat="44.49116" lon="2.44291">
        <ele>277.4</ele>
        <time>2011-06-04T07:36:14Z</time>
      </trkpt>
      <trkpt lat="44.49107" lon="2.44305">
        <ele>279</ele>
        <time>2011-06-04T07:36:19Z</time>
      </trkpt>
      <trkpt lat="44.49103" lon="2.44309">
        <ele>279.2</ele>
        <time>2011-06-04T07:36:21Z</time>
      </trkpt>
      <trkpt lat="44.49101" lon="2.44314">
        <ele>279.7</ele>
        <time>2011-06-04T07:36:23Z</time>
      </trkpt>
      <trkpt lat="44.49099" lon="2.44323">
        <ele>280.8</ele>
        <time>2011-06-04T07:36:26Z</time>
      </trkpt>
      <trkpt lat="44.49097" lon="2.44332">
        <ele>282.1</ele>
        <time>2011-06-04T07:36:29Z</time>
      </trkpt>
      <trkpt lat="44.49093" lon="2.44342">
        <ele>282.3</ele>
        <time>2011-06-04T07:36:32Z</time>
      </trkpt>
      <trkpt lat="44.4909" lon="2.44347">
        <ele>282.5</ele>
        <time>2011-06-04T07:36:34Z</time>
      </trkpt>
      <trkpt lat="44.49087" lon="2.44356">
        <ele>283</ele>
        <time>2011-06-04T07:36:37Z</time>
      </trkpt>
      <trkpt lat="44.49086" lon="2.44363">
        <ele>283.4</ele>
        <time>2011-06-04T07:36:39Z</time>
      </trkpt>
      <trkpt lat="44.49082" lon="2.44385">
        <ele>285.4</ele>
        <time>2011-06-04T07:36:47Z</time>
      </trkpt>
      <trkpt lat="44.49079" lon="2.44394">
        <ele>285.9</ele>
        <time>2011-06-04T07:36:50Z</time>
      </trkpt>
      <trkpt lat="44.49079" lon="2.44398">
        <ele>286.4</ele>
        <time>2011-06-04T07:36:51Z</time>
      </trkpt>
      <trkpt lat="44.49075" lon="2.44421">
        <ele>287.9</ele>
        <time>2011-06-04T07:36:57Z</time>
      </trkpt>
      <trkpt lat="44.49073" lon="2.44429">
        <ele>287.9</ele>
        <time>2011-06-04T07:36:59Z</time>
      </trkpt>
      <trkpt lat="44.49073" lon="2.44433">
        <ele>287.9</ele>
        <time>2011-06-04T07:37:00Z</time>
      </trkpt>
      <trkpt lat="44.49071" lon="2.44441">
        <ele>287.9</ele>
        <time>2011-06-04T07:37:02Z</time>
      </trkpt>
      <trkpt lat="44.4907" lon="2.44448">
        <ele>287.9</ele>
        <time>2011-06-04T07:37:04Z</time>
      </trkpt>
      <trkpt lat="44.49068" lon="2.44456">
        <ele>287.8</ele>
        <time>2011-06-04T07:37:06Z</time>
      </trkpt>
      <trkpt lat="44.49066" lon="2.44464">
        <ele>287.5</ele>
        <time>2011-06-04T07:37:08Z</time>
      </trkpt>
      <trkpt lat="44.49063" lon="2.44474">
        <ele>287.3</ele>
        <time>2011-06-04T07:37:11Z</time>
      </trkpt>
      <trkpt lat="44.49056" lon="2.44499">
        <ele>286.5</ele>
        <time>2011-06-04T07:37:17Z</time>
      </trkpt>
      <trkpt lat="44.49055" lon="2.44507">
        <ele>286.2</ele>
        <time>2011-06-04T07:37:19Z</time>
      </trkpt>
      <trkpt lat="44.49054" lon="2.44511">
        <ele>286</ele>
        <time>2011-06-04T07:37:20Z</time>
      </trkpt>
      <trkpt lat="44.49052" lon="2.44525">
        <ele>285.6</ele>
        <time>2011-06-04T07:37:24Z</time>
      </trkpt>
      <trkpt lat="44.49051" lon="2.44532">
        <ele>285.4</ele>
        <time>2011-06-04T07:37:26Z</time>
      </trkpt>
      <trkpt lat="44.49046" lon="2.4456">
        <ele>284.4</ele>
        <time>2011-06-04T07:37:35Z</time>
      </trkpt>
      <trkpt lat="44.49045" lon="2.44566">
        <ele>284.2</ele>
        <time>2011-06-04T07:37:37Z</time>
      </trkpt>
      <trkpt lat="44.49044" lon="2.44585">
        <ele>283.9</ele>
        <time>2011-06-04T07:37:41Z</time>
      </trkpt>
      <trkpt lat="44.49043" lon="2.446">
        <ele>283.6</ele>
        <time>2011-06-04T07:37:44Z</time>
      </trkpt>
      <trkpt lat="44.49041" lon="2.44609">
        <ele>283.1</ele>
        <time>2011-06-04T07:37:46Z</time>
      </trkpt>
      <trkpt lat="44.49036" lon="2.44625">
        <ele>281.8</ele>
        <time>2011-06-04T07:37:50Z</time>
      </trkpt>
      <trkpt lat="44.49033" lon="2.44642">
        <ele>280.9</ele>
        <time>2011-06-04T07:37:54Z</time>
      </trkpt>
      <trkpt lat="44.49027" lon="2.4466">
        <ele>279.2</ele>
        <time>2011-06-04T07:37:58Z</time>
      </trkpt>
      <trkpt lat="44.49024" lon="2.44669">
        <ele>278.4</ele>
        <time>2011-06-04T07:38:00Z</time>
      </trkpt>
      <trkpt lat="44.49018" lon="2.447">
        <ele>277.6</ele>
        <time>2011-06-04T07:38:05Z</time>
      </trkpt>
      <trkpt lat="44.49016" lon="2.4472">
        <ele>277.4</ele>
        <time>2011-06-04T07:38:08Z</time>
      </trkpt>
      <trkpt lat="44.49016" lon="2.44726">
        <ele>277.4</ele>
        <time>2011-06-04T07:38:09Z</time>
      </trkpt>
      <trkpt lat="44.49017" lon="2.44739">
        <ele>277.9</ele>
        <time>2011-06-04T07:38:11Z</time>
      </trkpt>
      <trkpt lat="44.49018" lon="2.44744">
        <ele>278.3</ele>
        <time>2011-06-04T07:38:12Z</time>
      </trkpt>
      <trkpt lat="44.49022" lon="2.44753">
        <ele>279.3</ele>
        <time>2011-06-04T07:38:14Z</time>
      </trkpt>
      <trkpt lat="44.49023" lon="2.44758">
        <ele>279.5</ele>
        <time>2011-06-04T07:38:15Z</time>
      </trkpt>
      <trkpt lat="44.49022" lon="2.44765">
        <ele>279.4</ele>
        <time>2011-06-04T07:38:17Z</time>
      </trkpt>
      <trkpt lat="44.49014" lon="2.4478">
        <ele>277.7</ele>
        <time>2011-06-04T07:38:23Z</time>
      </trkpt>
      <trkpt lat="44.49011" lon="2.44785">
        <ele>277.1</ele>
        <time>2011-06-04T07:38:25Z</time>
      </trkpt>
      <trkpt lat="44.49002" lon="2.44795">
        <ele>274.9</ele>
        <time>2011-06-04T07:38:31Z</time>
      </trkpt>
      <trkpt lat="44.48997" lon="2.44801">
        <ele>274.6</ele>
        <time>2011-06-04T07:38:34Z</time>
      </trkpt>
      <trkpt lat="44.48986" lon="2.44812">
        <ele>274.3</ele>
        <time>2011-06-04T07:38:43Z</time>
      </trkpt>
      <trkpt lat="44.48978" lon="2.44814">
        <ele>274.1</ele>
        <time>2011-06-04T07:38:55Z</time>
      </trkpt>
      <trkpt lat="44.4897" lon="2.44826">
        <ele>273.4</ele>
        <time>2011-06-04T07:39:27Z</time>
      </trkpt>
      <trkpt lat="44.4897" lon="2.44819">
        <ele>273.7</ele>
        <time>2011-06-04T07:43:33Z</time>
      </trkpt>
      <trkpt lat="44.48969" lon="2.44828">
        <ele>273.4</ele>
        <time>2011-06-04T07:44:14Z</time>
      </trkpt>
      <trkpt lat="44.48961" lon="2.44836">
        <ele>272.6</ele>
        <time>2011-06-04T07:44:18Z</time>
      </trkpt>
      <trkpt lat="44.4896" lon="2.44846">
        <ele>272.4</ele>
        <time>2011-06-04T07:44:27Z</time>
      </trkpt>
      <trkpt lat="44.48961" lon="2.44852">
        <ele>272.4</ele>
        <time>2011-06-04T07:44:32Z</time>
      </trkpt>
      <trkpt lat="44.48962" lon="2.44858">
        <ele>272.3</ele>
        <time>2011-06-04T07:44:38Z</time>
      </trkpt>
      <trkpt lat="44.48962" lon="2.4487">
        <ele>272.1</ele>
        <time>2011-06-04T07:44:49Z</time>
      </trkpt>
      <trkpt lat="44.4896" lon="2.4488">
        <ele>271.8</ele>
        <time>2011-06-04T07:44:57Z</time>
      </trkpt>
      <trkpt lat="44.48953" lon="2.44882">
        <ele>271.3</ele>
        <time>2011-06-04T07:45:04Z</time>
      </trkpt>
      <trkpt lat="44.48946" lon="2.44878">
        <ele>270.9</ele>
        <time>2011-06-04T07:45:17Z</time>
      </trkpt>
      <trkpt lat="44.4894" lon="2.44871">
        <ele>270.7</ele>
        <time>2011-06-04T07:45:23Z</time>
      </trkpt>
      <trkpt lat="44.48938" lon="2.44867">
        <ele>270.6</ele>
        <time>2011-06-04T07:45:25Z</time>
      </trkpt>
      <trkpt lat="44.48925" lon="2.4485">
        <ele>270.2</ele>
        <time>2011-06-04T07:45:35Z</time>
      </trkpt>
      <trkpt lat="44.48918" lon="2.44842">
        <ele>269.9</ele>
        <time>2011-06-04T07:45:40Z</time>
      </trkpt>
      <trkpt lat="44.48908" lon="2.44828">
        <ele>271.9</ele>
        <time>2011-06-04T07:45:48Z</time>
      </trkpt>
      <trkpt lat="44.48897" lon="2.44817">
        <ele>274.8</ele>
        <time>2011-06-04T07:45:55Z</time>
      </trkpt>
      <trkpt lat="44.48872" lon="2.448">
        <ele>280</ele>
        <time>2011-06-04T07:46:09Z</time>
      </trkpt>
      <trkpt lat="44.48865" lon="2.44795">
        <ele>281.4</ele>
        <time>2011-06-04T07:46:13Z</time>
      </trkpt>
      <trkpt lat="44.48855" lon="2.44783">
        <ele>283.8</ele>
        <time>2011-06-04T07:46:21Z</time>
      </trkpt>
      <trkpt lat="44.48849" lon="2.44778">
        <ele>285</ele>
        <time>2011-06-04T07:46:25Z</time>
      </trkpt>
      <trkpt lat="44.48834" lon="2.44766">
        <ele>287.8</ele>
        <time>2011-06-04T07:46:35Z</time>
      </trkpt>
      <trkpt lat="44.48826" lon="2.44761">
        <ele>288.9</ele>
        <time>2011-06-04T07:46:41Z</time>
      </trkpt>
      <trkpt lat="44.48821" lon="2.44758">
        <ele>289.5</ele>
        <time>2011-06-04T07:46:44Z</time>
      </trkpt>
      <trkpt lat="44.48815" lon="2.44754">
        <ele>290.3</ele>
        <time>2011-06-04T07:46:49Z</time>
      </trkpt>
      <trkpt lat="44.48809" lon="2.4475">
        <ele>291.1</ele>
        <time>2011-06-04T07:46:53Z</time>
      </trkpt>
      <trkpt lat="44.48792" lon="2.44738">
        <ele>293.4</ele>
        <time>2011-06-04T07:47:05Z</time>
      </trkpt>
      <trkpt lat="44.48779" lon="2.44731">
        <ele>295</ele>
        <time>2011-06-04T07:47:13Z</time>
      </trkpt>
      <trkpt lat="44.48764" lon="2.44724">
        <ele>296.8</ele>
        <time>2011-06-04T07:47:23Z</time>
      </trkpt>
      <trkpt lat="44.48757" lon="2.4472">
        <ele>297.5</ele>
        <time>2011-06-04T07:47:27Z</time>
      </trkpt>
      <trkpt lat="44.48745" lon="2.44713">
        <ele>299.1</ele>
        <time>2011-06-04T07:47:35Z</time>
      </trkpt>
      <trkpt lat="44.48735" lon="2.44706">
        <ele>300.5</ele>
        <time>2011-06-04T07:47:42Z</time>
      </trkpt>
      <trkpt lat="44.4873" lon="2.44704">
        <ele>301</ele>
        <time>2011-06-04T07:47:45Z</time>
      </trkpt>
      <trkpt lat="44.48723" lon="2.44709">
        <ele>301.1</ele>
        <time>2011-06-04T07:47:49Z</time>
      </trkpt>
      <trkpt lat="44.4872" lon="2.44712">
        <ele>301.1</ele>
        <time>2011-06-04T07:47:51Z</time>
      </trkpt>
      <trkpt lat="44.48707" lon="2.4472">
        <ele>301.5</ele>
        <time>2011-06-04T07:47:59Z</time>
      </trkpt>
      <trkpt lat="44.48696" lon="2.44726">
        <ele>301.9</ele>
        <time>2011-06-04T07:48:04Z</time>
      </trkpt>
      <trkpt lat="44.48675" lon="2.44736">
        <ele>302.6</ele>
        <time>2011-06-04T07:48:12Z</time>
      </trkpt>
      <trkpt lat="44.48672" lon="2.44738">
        <ele>302.7</ele>
        <time>2011-06-04T07:48:13Z</time>
      </trkpt>
      <trkpt lat="44.48657" lon="2.44748">
        <ele>302.9</ele>
        <time>2011-06-04T07:48:19Z</time>
      </trkpt>
      <trkpt lat="44.4864" lon="2.4476">
        <ele>303.3</ele>
        <time>2011-06-04T07:48:26Z</time>
      </trkpt>
      <trkpt lat="44.48635" lon="2.44763">
        <ele>303.4</ele>
        <time>2011-06-04T07:48:28Z</time>
      </trkpt>
      <trkpt lat="44.48623" lon="2.44775">
        <ele>303.5</ele>
        <time>2011-06-04T07:48:32Z</time>
      </trkpt>
      <trkpt lat="44.48618" lon="2.44781">
        <ele>303.6</ele>
        <time>2011-06-04T07:48:34Z</time>
      </trkpt>
      <trkpt lat="44.48606" lon="2.44797">
        <ele>303.4</ele>
        <time>2011-06-04T07:48:39Z</time>
      </trkpt>
      <trkpt lat="44.48594" lon="2.44813">
        <ele>303.4</ele>
        <time>2011-06-04T07:48:45Z</time>
      </trkpt>
      <trkpt lat="44.48585" lon="2.44822">
        <ele>303.6</ele>
        <time>2011-06-04T07:48:49Z</time>
      </trkpt>
      <trkpt lat="44.48578" lon="2.44832">
        <ele>303.5</ele>
        <time>2011-06-04T07:48:52Z</time>
      </trkpt>
      <trkpt lat="44.48565" lon="2.44853">
        <ele>302.2</ele>
        <time>2011-06-04T07:48:58Z</time>
      </trkpt>
      <trkpt lat="44.48558" lon="2.44863">
        <ele>301.8</ele>
        <time>2011-06-04T07:49:01Z</time>
      </trkpt>
      <trkpt lat="44.48547" lon="2.4488">
        <ele>300.6</ele>
        <time>2011-06-04T07:49:06Z</time>
      </trkpt>
      <trkpt lat="44.48533" lon="2.44906">
        <ele>299.1</ele>
        <time>2011-06-04T07:49:12Z</time>
      </trkpt>
      <trkpt lat="44.4853" lon="2.4491">
        <ele>299</ele>
        <time>2011-06-04T07:49:13Z</time>
      </trkpt>
      <trkpt lat="44.48521" lon="2.44917">
        <ele>298.7</ele>
        <time>2011-06-04T07:49:15Z</time>
      </trkpt>
      <trkpt lat="44.48512" lon="2.44923">
        <ele>298.2</ele>
        <time>2011-06-04T07:49:17Z</time>
      </trkpt>
      <trkpt lat="44.48509" lon="2.44926">
        <ele>297.7</ele>
        <time>2011-06-04T07:49:18Z</time>
      </trkpt>
      <trkpt lat="44.48503" lon="2.44931">
        <ele>297.2</ele>
        <time>2011-06-04T07:49:20Z</time>
      </trkpt>
      <trkpt lat="44.48494" lon="2.44929">
        <ele>298</ele>
        <time>2011-06-04T07:49:23Z</time>
      </trkpt>
      <trkpt lat="44.48488" lon="2.44931">
        <ele>297.8</ele>
        <time>2011-06-04T07:49:25Z</time>
      </trkpt>
      <trkpt lat="44.48484" lon="2.44932">
        <ele>297.8</ele>
        <time>2011-06-04T07:49:26Z</time>
      </trkpt>
      <trkpt lat="44.48471" lon="2.4494">
        <ele>296.8</ele>
        <time>2011-06-04T07:49:30Z</time>
      </trkpt>
      <trkpt lat="44.48454" lon="2.44944">
        <ele>296.8</ele>
        <time>2011-06-04T07:49:35Z</time>
      </trkpt>
      <trkpt lat="44.48438" lon="2.4495">
        <ele>296.4</ele>
        <time>2011-06-04T07:49:39Z</time>
      </trkpt>
      <trkpt lat="44.48433" lon="2.44951">
        <ele>296.3</ele>
        <time>2011-06-04T07:49:40Z</time>
      </trkpt>
      <trkpt lat="44.48419" lon="2.44951">
        <ele>296.9</ele>
        <time>2011-06-04T07:49:43Z</time>
      </trkpt>
      <trkpt lat="44.48402" lon="2.44948">
        <ele>298</ele>
        <time>2011-06-04T07:49:47Z</time>
      </trkpt>
      <trkpt lat="44.48381" lon="2.44945">
        <ele>298.5</ele>
        <time>2011-06-04T07:49:52Z</time>
      </trkpt>
      <trkpt lat="44.48377" lon="2.44944">
        <ele>298.5</ele>
        <time>2011-06-04T07:49:53Z</time>
      </trkpt>
      <trkpt lat="44.48354" lon="2.44943">
        <ele>298.7</ele>
        <time>2011-06-04T07:49:58Z</time>
      </trkpt>
      <trkpt lat="44.48349" lon="2.44942">
        <ele>299.1</ele>
        <time>2011-06-04T07:49:59Z</time>
      </trkpt>
      <trkpt lat="44.48339" lon="2.44942">
        <ele>299</ele>
        <time>2011-06-04T07:50:01Z</time>
      </trkpt>
      <trkpt lat="44.48324" lon="2.44944">
        <ele>298.1</ele>
        <time>2011-06-04T07:50:04Z</time>
      </trkpt>
      <trkpt lat="44.4832" lon="2.44944">
        <ele>298</ele>
        <time>2011-06-04T07:50:05Z</time>
      </trkpt>
      <trkpt lat="44.48301" lon="2.44941">
        <ele>298.8</ele>
        <time>2011-06-04T07:50:09Z</time>
      </trkpt>
      <trkpt lat="44.48292" lon="2.44941">
        <ele>299.1</ele>
        <time>2011-06-04T07:50:11Z</time>
      </trkpt>
      <trkpt lat="44.48275" lon="2.44942">
        <ele>298.6</ele>
        <time>2011-06-04T07:50:15Z</time>
      </trkpt>
      <trkpt lat="44.48257" lon="2.44948">
        <ele>296.6</ele>
        <time>2011-06-04T07:50:19Z</time>
      </trkpt>
      <trkpt lat="44.48247" lon="2.4495">
        <ele>295.6</ele>
        <time>2011-06-04T07:50:21Z</time>
      </trkpt>
      <trkpt lat="44.48239" lon="2.44953">
        <ele>294.1</ele>
        <time>2011-06-04T07:50:23Z</time>
      </trkpt>
      <trkpt lat="44.48227" lon="2.4496">
        <ele>291.6</ele>
        <time>2011-06-04T07:50:27Z</time>
      </trkpt>
      <trkpt lat="44.48225" lon="2.44965">
        <ele>289.8</ele>
        <time>2011-06-04T07:50:29Z</time>
      </trkpt>
      <trkpt lat="44.48223" lon="2.44972">
        <ele>287.5</ele>
        <time>2011-06-04T07:50:31Z</time>
      </trkpt>
      <trkpt lat="44.48218" lon="2.44978">
        <ele>285.2</ele>
        <time>2011-06-04T07:50:33Z</time>
      </trkpt>
      <trkpt lat="44.48205" lon="2.44989">
        <ele>281.5</ele>
        <time>2011-06-04T07:50:37Z</time>
      </trkpt>
      <trkpt lat="44.48195" lon="2.44999">
        <ele>277.8</ele>
        <time>2011-06-04T07:50:40Z</time>
      </trkpt>
      <trkpt lat="44.48175" lon="2.45025">
        <ele>276.7</ele>
        <time>2011-06-04T07:50:46Z</time>
      </trkpt>
      <trkpt lat="44.4816" lon="2.45046">
        <ele>276.4</ele>
        <time>2011-06-04T07:50:50Z</time>
      </trkpt>
      <trkpt lat="44.48148" lon="2.45059">
        <ele>276.7</ele>
        <time>2011-06-04T07:50:53Z</time>
      </trkpt>
      <trkpt lat="44.48138" lon="2.45071">
        <ele>276.7</ele>
        <time>2011-06-04T07:50:56Z</time>
      </trkpt>
      <trkpt lat="44.48119" lon="2.45087">
        <ele>277</ele>
        <time>2011-06-04T07:51:01Z</time>
      </trkpt>
      <trkpt lat="44.48101" lon="2.45099">
        <ele>277.9</ele>
        <time>2011-06-04T07:51:06Z</time>
      </trkpt>
      <trkpt lat="44.48082" lon="2.45112">
        <ele>277.7</ele>
        <time>2011-06-04T07:51:11Z</time>
      </trkpt>
      <trkpt lat="44.48061" lon="2.45123">
        <ele>278.2</ele>
        <time>2011-06-04T07:51:16Z</time>
      </trkpt>
      <trkpt lat="44.48041" lon="2.45135">
        <ele>278.3</ele>
        <time>2011-06-04T07:51:21Z</time>
      </trkpt>
      <trkpt lat="44.48026" lon="2.45145">
        <ele>277.9</ele>
        <time>2011-06-04T07:51:25Z</time>
      </trkpt>
      <trkpt lat="44.48015" lon="2.45156">
        <ele>277.1</ele>
        <time>2011-06-04T07:51:28Z</time>
      </trkpt>
      <trkpt lat="44.48002" lon="2.45172">
        <ele>276</ele>
        <time>2011-06-04T07:51:32Z</time>
      </trkpt>
      <trkpt lat="44.47996" lon="2.45181">
        <ele>276.3</ele>
        <time>2011-06-04T07:51:34Z</time>
      </trkpt>
      <trkpt lat="44.47994" lon="2.45185">
        <ele>276.5</ele>
        <time>2011-06-04T07:51:35Z</time>
      </trkpt>
      <trkpt lat="44.47987" lon="2.45201">
        <ele>276.9</ele>
        <time>2011-06-04T07:51:38Z</time>
      </trkpt>
      <trkpt lat="44.47985" lon="2.45207">
        <ele>276.9</ele>
        <time>2011-06-04T07:51:39Z</time>
      </trkpt>
      <trkpt lat="44.47979" lon="2.45226">
        <ele>276.9</ele>
        <time>2011-06-04T07:51:42Z</time>
      </trkpt>
      <trkpt lat="44.47971" lon="2.45252">
        <ele>276.8</ele>
        <time>2011-06-04T07:51:46Z</time>
      </trkpt>
      <trkpt lat="44.47963" lon="2.45279">
        <ele>278.1</ele>
        <time>2011-06-04T07:51:50Z</time>
      </trkpt>
      <trkpt lat="44.4795" lon="2.45315">
        <ele>278.8</ele>
        <time>2011-06-04T07:51:55Z</time>
      </trkpt>
      <trkpt lat="44.47931" lon="2.4538">
        <ele>280.9</ele>
        <time>2011-06-04T07:52:03Z</time>
      </trkpt>
      <trkpt lat="44.47918" lon="2.45424">
        <ele>281.6</ele>
        <time>2011-06-04T07:52:08Z</time>
      </trkpt>
      <trkpt lat="44.47914" lon="2.45433">
        <ele>281.8</ele>
        <time>2011-06-04T07:52:09Z</time>
      </trkpt>
      <trkpt lat="44.47906" lon="2.45451">
        <ele>282.4</ele>
        <time>2011-06-04T07:52:11Z</time>
      </trkpt>
      <trkpt lat="44.47901" lon="2.45458">
        <ele>282.5</ele>
        <time>2011-06-04T07:52:12Z</time>
      </trkpt>
      <trkpt lat="44.47889" lon="2.45473">
        <ele>282.4</ele>
        <time>2011-06-04T07:52:14Z</time>
      </trkpt>
      <trkpt lat="44.47883" lon="2.45479">
        <ele>282.1</ele>
        <time>2011-06-04T07:52:15Z</time>
      </trkpt>
      <trkpt lat="44.47877" lon="2.45484">
        <ele>281.8</ele>
        <time>2011-06-04T07:52:16Z</time>
      </trkpt>
      <trkpt lat="44.47863" lon="2.45492">
        <ele>280.7</ele>
        <time>2011-06-04T07:52:18Z</time>
      </trkpt>
      <trkpt lat="44.47849" lon="2.45497">
        <ele>279.5</ele>
        <time>2011-06-04T07:52:20Z</time>
      </trkpt>
      <trkpt lat="44.47842" lon="2.45498">
        <ele>278.9</ele>
        <time>2011-06-04T07:52:21Z</time>
      </trkpt>
      <trkpt lat="44.47834" lon="2.45498">
        <ele>278.1</ele>
        <time>2011-06-04T07:52:23Z</time>
      </trkpt>
      <trkpt lat="44.47827" lon="2.45501">
        <ele>278</ele>
        <time>2011-06-04T07:52:29Z</time>
      </trkpt>
      <trkpt lat="44.47823" lon="2.45499">
        <ele>278</ele>
        <time>2011-06-04T07:52:40Z</time>
      </trkpt>
      <trkpt lat="44.47813" lon="2.45489">
        <ele>278.4</ele>
        <time>2011-06-04T07:53:09Z</time>
      </trkpt>
      <trkpt lat="44.4781" lon="2.45485">
        <ele>278.6</ele>
        <time>2011-06-04T07:53:15Z</time>
      </trkpt>
      <trkpt lat="44.47804" lon="2.4547">
        <ele>279.4</ele>
        <time>2011-06-04T07:53:38Z</time>
      </trkpt>
      <trkpt lat="44.478" lon="2.45453">
        <ele>280.4</ele>
        <time>2011-06-04T07:53:52Z</time>
      </trkpt>
      <trkpt lat="44.47792" lon="2.45414">
        <ele>283.2</ele>
        <time>2011-06-04T07:54:26Z</time>
      </trkpt>
      <trkpt lat="44.47789" lon="2.45404">
        <ele>284.4</ele>
        <time>2011-06-04T07:54:33Z</time>
      </trkpt>
      <trkpt lat="44.47787" lon="2.45393">
        <ele>285.6</ele>
        <time>2011-06-04T07:54:41Z</time>
      </trkpt>
      <trkpt lat="44.47787" lon="2.45382">
        <ele>286.7</ele>
        <time>2011-06-04T07:54:49Z</time>
      </trkpt>
      <trkpt lat="44.4779" lon="2.45373">
        <ele>287.2</ele>
        <time>2011-06-04T07:55:00Z</time>
      </trkpt>
      <trkpt lat="44.47789" lon="2.45367">
        <ele>287.8</ele>
        <time>2011-06-04T07:55:05Z</time>
      </trkpt>
      <trkpt lat="44.47785" lon="2.45353">
        <ele>289.4</ele>
        <time>2011-06-04T07:55:13Z</time>
      </trkpt>
      <trkpt lat="44.47783" lon="2.45348">
        <ele>290.1</ele>
        <time>2011-06-04T07:55:16Z</time>
      </trkpt>
      <trkpt lat="44.47777" lon="2.45341">
        <ele>291.5</ele>
        <time>2011-06-04T07:55:22Z</time>
      </trkpt>
      <trkpt lat="44.47769" lon="2.45336">
        <ele>292.8</ele>
        <time>2011-06-04T07:55:28Z</time>
      </trkpt>
      <trkpt lat="44.47762" lon="2.45332">
        <ele>293.9</ele>
        <time>2011-06-04T07:55:35Z</time>
      </trkpt>
      <trkpt lat="44.47755" lon="2.45328">
        <ele>295</ele>
        <time>2011-06-04T07:55:41Z</time>
      </trkpt>
      <trkpt lat="44.47752" lon="2.45321">
        <ele>296.4</ele>
        <time>2011-06-04T07:55:48Z</time>
      </trkpt>
      <trkpt lat="44.4775" lon="2.45294">
        <ele>299.9</ele>
        <time>2011-06-04T07:56:03Z</time>
      </trkpt>
      <trkpt lat="44.4775" lon="2.45272">
        <ele>302.4</ele>
        <time>2011-06-04T07:56:16Z</time>
      </trkpt>
      <trkpt lat="44.47749" lon="2.45261">
        <ele>303.9</ele>
        <time>2011-06-04T07:56:23Z</time>
      </trkpt>
      <trkpt lat="44.47751" lon="2.45251">
        <ele>304.9</ele>
        <time>2011-06-04T07:56:29Z</time>
      </trkpt>
      <trkpt lat="44.47752" lon="2.45246">
        <ele>305.3</ele>
        <time>2011-06-04T07:56:32Z</time>
      </trkpt>
      <trkpt lat="44.47758" lon="2.45236">
        <ele>305.5</ele>
        <time>2011-06-04T07:56:38Z</time>
      </trkpt>
      <trkpt lat="44.4776" lon="2.45231">
        <ele>305.8</ele>
        <time>2011-06-04T07:56:41Z</time>
      </trkpt>
      <trkpt lat="44.47758" lon="2.45225">
        <ele>306.9</ele>
        <time>2011-06-04T07:56:45Z</time>
      </trkpt>
      <trkpt lat="44.47756" lon="2.45221">
        <ele>307.9</ele>
        <time>2011-06-04T07:56:49Z</time>
      </trkpt>
      <trkpt lat="44.47749" lon="2.45206">
        <ele>311</ele>
        <time>2011-06-04T07:57:01Z</time>
      </trkpt>
      <trkpt lat="44.47748" lon="2.45201">
        <ele>311.8</ele>
        <time>2011-06-04T07:57:05Z</time>
      </trkpt>
      <trkpt lat="44.47749" lon="2.45194">
        <ele>312.7</ele>
        <time>2011-06-04T07:57:10Z</time>
      </trkpt>
      <trkpt lat="44.47752" lon="2.45185">
        <ele>313.2</ele>
        <time>2011-06-04T07:57:15Z</time>
      </trkpt>
      <trkpt lat="44.47752" lon="2.45174">
        <ele>314.8</ele>
        <time>2011-06-04T07:57:21Z</time>
      </trkpt>
      <trkpt lat="44.47749" lon="2.45142">
        <ele>319.1</ele>
        <time>2011-06-04T07:57:38Z</time>
      </trkpt>
      <trkpt lat="44.47749" lon="2.45137">
        <ele>319.8</ele>
        <time>2011-06-04T07:57:41Z</time>
      </trkpt>
      <trkpt lat="44.47748" lon="2.45126">
        <ele>321.2</ele>
        <time>2011-06-04T07:57:49Z</time>
      </trkpt>
      <trkpt lat="44.47748" lon="2.4512">
        <ele>321.8</ele>
        <time>2011-06-04T07:57:52Z</time>
      </trkpt>
      <trkpt lat="44.47751" lon="2.45111">
        <ele>322.6</ele>
        <time>2011-06-04T07:57:58Z</time>
      </trkpt>
      <trkpt lat="44.47749" lon="2.451">
        <ele>324.2</ele>
        <time>2011-06-04T07:58:04Z</time>
      </trkpt>
      <trkpt lat="44.47749" lon="2.45067">
        <ele>327.9</ele>
        <time>2011-06-04T07:58:22Z</time>
      </trkpt>
      <trkpt lat="44.47749" lon="2.4504">
        <ele>330.9</ele>
        <time>2011-06-04T07:58:37Z</time>
      </trkpt>
      <trkpt lat="44.47749" lon="2.4502">
        <ele>333</ele>
        <time>2011-06-04T07:58:49Z</time>
      </trkpt>
      <trkpt lat="44.47748" lon="2.45008">
        <ele>334.3</ele>
        <time>2011-06-04T07:58:56Z</time>
      </trkpt>
      <trkpt lat="44.47742" lon="2.44981">
        <ele>337.8</ele>
        <time>2011-06-04T07:59:12Z</time>
      </trkpt>
      <trkpt lat="44.4774" lon="2.44971">
        <ele>338.9</ele>
        <time>2011-06-04T07:59:17Z</time>
      </trkpt>
      <trkpt lat="44.47733" lon="2.44941">
        <ele>342.9</ele>
        <time>2011-06-04T07:59:33Z</time>
      </trkpt>
      <trkpt lat="44.4773" lon="2.4492">
        <ele>345.4</ele>
        <time>2011-06-04T07:59:43Z</time>
      </trkpt>
      <trkpt lat="44.4773" lon="2.44915">
        <ele>345.8</ele>
        <time>2011-06-04T07:59:45Z</time>
      </trkpt>
      <trkpt lat="44.47728" lon="2.44899">
        <ele>347.4</ele>
        <time>2011-06-04T07:59:53Z</time>
      </trkpt>
      <trkpt lat="44.47726" lon="2.44885">
        <ele>348.9</ele>
        <time>2011-06-04T08:00:00Z</time>
      </trkpt>
      <trkpt lat="44.47725" lon="2.44873">
        <ele>350</ele>
        <time>2011-06-04T08:00:06Z</time>
      </trkpt>
      <trkpt lat="44.47722" lon="2.44851">
        <ele>352.2</ele>
        <time>2011-06-04T08:00:18Z</time>
      </trkpt>
      <trkpt lat="44.47721" lon="2.44845">
        <ele>352.7</ele>
        <time>2011-06-04T08:00:21Z</time>
      </trkpt>
      <trkpt lat="44.47718" lon="2.44822">
        <ele>355.6</ele>
        <time>2011-06-04T08:00:33Z</time>
      </trkpt>
      <trkpt lat="44.47711" lon="2.4479">
        <ele>360.3</ele>
        <time>2011-06-04T08:00:51Z</time>
      </trkpt>
      <trkpt lat="44.4771" lon="2.44779">
        <ele>361.7</ele>
        <time>2011-06-04T08:00:57Z</time>
      </trkpt>
      <trkpt lat="44.47711" lon="2.44747">
        <ele>365.8</ele>
        <time>2011-06-04T08:01:15Z</time>
      </trkpt>
      <trkpt lat="44.47711" lon="2.44745">
        <ele>365.9</ele>
        <time>2011-06-04T08:01:16Z</time>
      </trkpt>
      <trkpt lat="44.4771" lon="2.44716">
        <ele>370</ele>
        <time>2011-06-04T08:01:34Z</time>
      </trkpt>
      <trkpt lat="44.4771" lon="2.44709">
        <ele>370.8</ele>
        <time>2011-06-04T08:01:38Z</time>
      </trkpt>
      <trkpt lat="44.47711" lon="2.44699">
        <ele>372.1</ele>
        <time>2011-06-04T08:01:44Z</time>
      </trkpt>
      <trkpt lat="44.47715" lon="2.44679">
        <ele>374.2</ele>
        <time>2011-06-04T08:01:56Z</time>
      </trkpt>
      <trkpt lat="44.47718" lon="2.44675">
        <ele>374.4</ele>
        <time>2011-06-04T08:01:59Z</time>
      </trkpt>
      <trkpt lat="44.47721" lon="2.44671">
        <ele>374.6</ele>
        <time>2011-06-04T08:02:02Z</time>
      </trkpt>
      <trkpt lat="44.47725" lon="2.44669">
        <ele>374.5</ele>
        <time>2011-06-04T08:02:05Z</time>
      </trkpt>
      <trkpt lat="44.47732" lon="2.44663">
        <ele>374.5</ele>
        <time>2011-06-04T08:02:11Z</time>
      </trkpt>
      <trkpt lat="44.47737" lon="2.44657">
        <ele>375</ele>
        <time>2011-06-04T08:02:15Z</time>
      </trkpt>
      <trkpt lat="44.47739" lon="2.44651">
        <ele>375.5</ele>
        <time>2011-06-04T08:02:18Z</time>
      </trkpt>
      <trkpt lat="44.47743" lon="2.44643">
        <ele>376.4</ele>
        <time>2011-06-04T08:02:23Z</time>
      </trkpt>
      <trkpt lat="44.47743" lon="2.44637">
        <ele>377.3</ele>
        <time>2011-06-04T08:02:26Z</time>
      </trkpt>
      <trkpt lat="44.47748" lon="2.44611">
        <ele>380.9</ele>
        <time>2011-06-04T08:02:41Z</time>
      </trkpt>
      <trkpt lat="44.47749" lon="2.446">
        <ele>382.6</ele>
        <time>2011-06-04T08:02:48Z</time>
      </trkpt>
      <trkpt lat="44.47752" lon="2.4459">
        <ele>384</ele>
        <time>2011-06-04T08:02:55Z</time>
      </trkpt>
      <trkpt lat="44.4776" lon="2.44573">
        <ele>385.2</ele>
        <time>2011-06-04T08:03:05Z</time>
      </trkpt>
      <trkpt lat="44.47764" lon="2.44564">
        <ele>386.1</ele>
        <time>2011-06-04T08:03:10Z</time>
      </trkpt>
      <trkpt lat="44.4777" lon="2.44549">
        <ele>387.7</ele>
        <time>2011-06-04T08:03:19Z</time>
      </trkpt>
      <trkpt lat="44.47773" lon="2.4454">
        <ele>388.7</ele>
        <time>2011-06-04T08:03:24Z</time>
      </trkpt>
      <trkpt lat="44.47778" lon="2.44512">
        <ele>391.8</ele>
        <time>2011-06-04T08:03:39Z</time>
      </trkpt>
      <trkpt lat="44.4778" lon="2.44502">
        <ele>393.2</ele>
        <time>2011-06-04T08:03:44Z</time>
      </trkpt>
      <trkpt lat="44.4778" lon="2.44496">
        <ele>393.7</ele>
        <time>2011-06-04T08:03:47Z</time>
      </trkpt>
      <trkpt lat="44.47782" lon="2.44487">
        <ele>394.4</ele>
        <time>2011-06-04T08:03:53Z</time>
      </trkpt>
      <trkpt lat="44.47784" lon="2.44467">
        <ele>396.1</ele>
        <time>2011-06-04T08:04:05Z</time>
      </trkpt>
      <trkpt lat="44.47785" lon="2.44462">
        <ele>396.5</ele>
        <time>2011-06-04T08:04:08Z</time>
      </trkpt>
      <trkpt lat="44.47786" lon="2.44452">
        <ele>397.3</ele>
        <time>2011-06-04T08:04:14Z</time>
      </trkpt>
      <trkpt lat="44.47788" lon="2.44442">
        <ele>398</ele>
        <time>2011-06-04T08:04:20Z</time>
      </trkpt>
      <trkpt lat="44.47789" lon="2.4442">
        <ele>400.1</ele>
        <time>2011-06-04T08:04:33Z</time>
      </trkpt>
      <trkpt lat="44.47793" lon="2.44392">
        <ele>401.7</ele>
        <time>2011-06-04T08:04:48Z</time>
      </trkpt>
      <trkpt lat="44.47795" lon="2.44378">
        <ele>402.5</ele>
        <time>2011-06-04T08:04:55Z</time>
      </trkpt>
      <trkpt lat="44.47797" lon="2.44366">
        <ele>403.3</ele>
        <time>2011-06-04T08:05:01Z</time>
      </trkpt>
      <trkpt lat="44.47798" lon="2.4436">
        <ele>403.6</ele>
        <time>2011-06-04T08:05:04Z</time>
      </trkpt>
      <trkpt lat="44.47799" lon="2.44349">
        <ele>404.4</ele>
        <time>2011-06-04T08:05:10Z</time>
      </trkpt>
      <trkpt lat="44.47801" lon="2.44338">
        <ele>405</ele>
        <time>2011-06-04T08:05:16Z</time>
      </trkpt>
      <trkpt lat="44.47801" lon="2.44332">
        <ele>405.4</ele>
        <time>2011-06-04T08:05:20Z</time>
      </trkpt>
      <trkpt lat="44.47805" lon="2.44307">
        <ele>407.1</ele>
        <time>2011-06-04T08:05:32Z</time>
      </trkpt>
      <trkpt lat="44.47806" lon="2.44302">
        <ele>407.3</ele>
        <time>2011-06-04T08:05:35Z</time>
      </trkpt>
      <trkpt lat="44.47807" lon="2.44293">
        <ele>407.9</ele>
        <time>2011-06-04T08:05:39Z</time>
      </trkpt>
      <trkpt lat="44.47807" lon="2.44287">
        <ele>408.4</ele>
        <time>2011-06-04T08:05:42Z</time>
      </trkpt>
      <trkpt lat="44.4781" lon="2.44271">
        <ele>409.4</ele>
        <time>2011-06-04T08:05:50Z</time>
      </trkpt>
      <trkpt lat="44.4781" lon="2.44265">
        <ele>409.8</ele>
        <time>2011-06-04T08:05:53Z</time>
      </trkpt>
      <trkpt lat="44.47812" lon="2.44257">
        <ele>410.3</ele>
        <time>2011-06-04T08:05:57Z</time>
      </trkpt>
      <trkpt lat="44.47813" lon="2.4424">
        <ele>411.4</ele>
        <time>2011-06-04T08:06:05Z</time>
      </trkpt>
      <trkpt lat="44.47815" lon="2.44232">
        <ele>411.8</ele>
        <time>2011-06-04T08:06:09Z</time>
      </trkpt>
      <trkpt lat="44.47817" lon="2.44211">
        <ele>413</ele>
        <time>2011-06-04T08:06:19Z</time>
      </trkpt>
      <trkpt lat="44.47822" lon="2.44186">
        <ele>414.1</ele>
        <time>2011-06-04T08:06:31Z</time>
      </trkpt>
      <trkpt lat="44.47824" lon="2.44172">
        <ele>414.8</ele>
        <time>2011-06-04T08:06:37Z</time>
      </trkpt>
      <trkpt lat="44.47828" lon="2.44144">
        <ele>416.5</ele>
        <time>2011-06-04T08:06:50Z</time>
      </trkpt>
      <trkpt lat="44.47829" lon="2.44139">
        <ele>416.8</ele>
        <time>2011-06-04T08:06:52Z</time>
      </trkpt>
      <trkpt lat="44.47836" lon="2.44097">
        <ele>419.4</ele>
        <time>2011-06-04T08:07:08Z</time>
      </trkpt>
      <trkpt lat="44.47842" lon="2.44057">
        <ele>421.4</ele>
        <time>2011-06-04T08:07:22Z</time>
      </trkpt>
      <trkpt lat="44.47849" lon="2.44023">
        <ele>422.7</ele>
        <time>2011-06-04T08:07:34Z</time>
      </trkpt>
      <trkpt lat="44.47854" lon="2.44014">
        <ele>422.4</ele>
        <time>2011-06-04T08:07:38Z</time>
      </trkpt>
      <trkpt lat="44.47858" lon="2.44014">
        <ele>421.5</ele>
        <time>2011-06-04T08:07:40Z</time>
      </trkpt>
      <trkpt lat="44.47861" lon="2.44014">
        <ele>420.8</ele>
        <time>2011-06-04T08:07:41Z</time>
      </trkpt>
      <trkpt lat="44.47867" lon="2.44014">
        <ele>419.7</ele>
        <time>2011-06-04T08:07:43Z</time>
      </trkpt>
      <trkpt lat="44.47873" lon="2.44012">
        <ele>418.3</ele>
        <time>2011-06-04T08:07:45Z</time>
      </trkpt>
      <trkpt lat="44.47887" lon="2.44002">
        <ele>416.3</ele>
        <time>2011-06-04T08:07:49Z</time>
      </trkpt>
      <trkpt lat="44.47893" lon="2.43997">
        <ele>415.4</ele>
        <time>2011-06-04T08:07:51Z</time>
      </trkpt>
      <trkpt lat="44.47903" lon="2.43986">
        <ele>414.1</ele>
        <time>2011-06-04T08:07:54Z</time>
      </trkpt>
      <trkpt lat="44.47922" lon="2.43967">
        <ele>412.5</ele>
        <time>2011-06-04T08:07:58Z</time>
      </trkpt>
      <trkpt lat="44.47942" lon="2.43942">
        <ele>413.7</ele>
        <time>2011-06-04T08:08:02Z</time>
      </trkpt>
      <trkpt lat="44.47966" lon="2.43901">
        <ele>415.7</ele>
        <time>2011-06-04T08:08:07Z</time>
      </trkpt>
      <trkpt lat="44.47971" lon="2.43894">
        <ele>415.8</ele>
        <time>2011-06-04T08:08:08Z</time>
      </trkpt>
      <trkpt lat="44.47998" lon="2.4387">
        <ele>414.9</ele>
        <time>2011-06-04T08:08:12Z</time>
      </trkpt>
      <trkpt lat="44.4801" lon="2.43858">
        <ele>414.4</ele>
        <time>2011-06-04T08:08:14Z</time>
      </trkpt>
      <trkpt lat="44.48039" lon="2.43822">
        <ele>413</ele>
        <time>2011-06-04T08:08:20Z</time>
      </trkpt>
      <trkpt lat="44.48053" lon="2.43801">
        <ele>411.9</ele>
        <time>2011-06-04T08:08:24Z</time>
      </trkpt>
      <trkpt lat="44.48055" lon="2.43796">
        <ele>411.7</ele>
        <time>2011-06-04T08:08:25Z</time>
      </trkpt>
      <trkpt lat="44.48057" lon="2.43791">
        <ele>411.5</ele>
        <time>2011-06-04T08:08:26Z</time>
      </trkpt>
      <trkpt lat="44.4806" lon="2.43781">
        <ele>411.1</ele>
        <time>2011-06-04T08:08:28Z</time>
      </trkpt>
      <trkpt lat="44.48062" lon="2.43775">
        <ele>411</ele>
        <time>2011-06-04T08:08:29Z</time>
      </trkpt>
      <trkpt lat="44.48065" lon="2.43765">
        <ele>410.7</ele>
        <time>2011-06-04T08:08:31Z</time>
      </trkpt>
      <trkpt lat="44.48072" lon="2.43748">
        <ele>409.8</ele>
        <time>2011-06-04T08:08:35Z</time>
      </trkpt>
      <trkpt lat="44.48082" lon="2.43728">
        <ele>409.3</ele>
        <time>2011-06-04T08:08:41Z</time>
      </trkpt>
      <trkpt lat="44.48084" lon="2.43722">
        <ele>409.3</ele>
        <time>2011-06-04T08:08:43Z</time>
      </trkpt>
      <trkpt lat="44.48085" lon="2.43715">
        <ele>409.5</ele>
        <time>2011-06-04T08:08:45Z</time>
      </trkpt>
      <trkpt lat="44.48086" lon="2.43683">
        <ele>410.8</ele>
        <time>2011-06-04T08:08:56Z</time>
      </trkpt>
      <trkpt lat="44.48086" lon="2.43663">
        <ele>411.9</ele>
        <time>2011-06-04T08:09:04Z</time>
      </trkpt>
      <trkpt lat="44.48087" lon="2.43658">
        <ele>412.3</ele>
        <time>2011-06-04T08:09:06Z</time>
      </trkpt>
      <trkpt lat="44.48087" lon="2.43648">
        <ele>413.2</ele>
        <time>2011-06-04T08:09:10Z</time>
      </trkpt>
      <trkpt lat="44.48089" lon="2.43638">
        <ele>413.9</ele>
        <time>2011-06-04T08:09:14Z</time>
      </trkpt>
      <trkpt lat="44.48089" lon="2.43629">
        <ele>414.8</ele>
        <time>2011-06-04T08:09:18Z</time>
      </trkpt>
      <trkpt lat="44.48088" lon="2.43618">
        <ele>415.9</ele>
        <time>2011-06-04T08:09:23Z</time>
      </trkpt>
      <trkpt lat="44.48086" lon="2.43608">
        <ele>417.3</ele>
        <time>2011-06-04T08:09:28Z</time>
      </trkpt>
      <trkpt lat="44.4808" lon="2.43589">
        <ele>420.2</ele>
        <time>2011-06-04T08:09:37Z</time>
      </trkpt>
      <trkpt lat="44.48078" lon="2.43586">
        <ele>421</ele>
        <time>2011-06-04T08:09:39Z</time>
      </trkpt>
      <trkpt lat="44.48073" lon="2.43572">
        <ele>422.9</ele>
        <time>2011-06-04T08:09:46Z</time>
      </trkpt>
      <trkpt lat="44.48068" lon="2.43563">
        <ele>424.4</ele>
        <time>2011-06-04T08:09:52Z</time>
      </trkpt>
      <trkpt lat="44.48066" lon="2.43558">
        <ele>424.9</ele>
        <time>2011-06-04T08:09:55Z</time>
      </trkpt>
      <trkpt lat="44.48067" lon="2.43527">
        <ele>426.7</ele>
        <time>2011-06-04T08:10:09Z</time>
      </trkpt>
      <trkpt lat="44.48067" lon="2.43521">
        <ele>427</ele>
        <time>2011-06-04T08:10:11Z</time>
      </trkpt>
      <trkpt lat="44.48069" lon="2.43498">
        <ele>428.1</ele>
        <time>2011-06-04T08:10:19Z</time>
      </trkpt>
      <trkpt lat="44.48069" lon="2.43487">
        <ele>428.9</ele>
        <time>2011-06-04T08:10:23Z</time>
      </trkpt>
      <trkpt lat="44.48069" lon="2.43454">
        <ele>431.2</ele>
        <time>2011-06-04T08:10:35Z</time>
      </trkpt>
      <trkpt lat="44.48068" lon="2.43437">
        <ele>432.5</ele>
        <time>2011-06-04T08:10:41Z</time>
      </trkpt>
      <trkpt lat="44.48066" lon="2.43415">
        <ele>434.2</ele>
        <time>2011-06-04T08:10:48Z</time>
      </trkpt>
      <trkpt lat="44.48063" lon="2.43385">
        <ele>436.8</ele>
        <time>2011-06-04T08:10:57Z</time>
      </trkpt>
      <trkpt lat="44.48061" lon="2.43375">
        <ele>437.5</ele>
        <time>2011-06-04T08:11:00Z</time>
      </trkpt>
      <trkpt lat="44.4806" lon="2.43355">
        <ele>439.1</ele>
        <time>2011-06-04T08:11:06Z</time>
      </trkpt>
      <trkpt lat="44.4806" lon="2.43342">
        <ele>440.1</ele>
        <time>2011-06-04T08:11:10Z</time>
      </trkpt>
      <trkpt lat="44.48062" lon="2.43322">
        <ele>441.9</ele>
        <time>2011-06-04T08:11:16Z</time>
      </trkpt>
      <trkpt lat="44.48063" lon="2.43316">
        <ele>442.6</ele>
        <time>2011-06-04T08:11:18Z</time>
      </trkpt>
      <trkpt lat="44.48063" lon="2.43309">
        <ele>443.3</ele>
        <time>2011-06-04T08:11:20Z</time>
      </trkpt>
      <trkpt lat="44.48064" lon="2.43297">
        <ele>444.6</ele>
        <time>2011-06-04T08:11:24Z</time>
      </trkpt>
      <trkpt lat="44.48064" lon="2.43291">
        <ele>445.2</ele>
        <time>2011-06-04T08:11:26Z</time>
      </trkpt>
      <trkpt lat="44.48063" lon="2.4328">
        <ele>446.3</ele>
        <time>2011-06-04T08:11:30Z</time>
      </trkpt>
      <trkpt lat="44.48061" lon="2.43272">
        <ele>447.1</ele>
        <time>2011-06-04T08:11:33Z</time>
      </trkpt>
      <trkpt lat="44.48058" lon="2.43263">
        <ele>447.8</ele>
        <time>2011-06-04T08:11:36Z</time>
      </trkpt>
      <trkpt lat="44.4805" lon="2.43249">
        <ele>449</ele>
        <time>2011-06-04T08:11:42Z</time>
      </trkpt>
      <trkpt lat="44.48048" lon="2.43245">
        <ele>449.3</ele>
        <time>2011-06-04T08:11:44Z</time>
      </trkpt>
      <trkpt lat="44.48045" lon="2.43239">
        <ele>449.8</ele>
        <time>2011-06-04T08:11:46Z</time>
      </trkpt>
      <trkpt lat="44.48041" lon="2.43234">
        <ele>450.1</ele>
        <time>2011-06-04T08:11:48Z</time>
      </trkpt>
      <trkpt lat="44.48035" lon="2.43229">
        <ele>450.1</ele>
        <time>2011-06-04T08:11:50Z</time>
      </trkpt>
      <trkpt lat="44.48028" lon="2.43226">
        <ele>450</ele>
        <time>2011-06-04T08:11:52Z</time>
      </trkpt>
      <trkpt lat="44.48021" lon="2.43223">
        <ele>449.7</ele>
        <time>2011-06-04T08:11:54Z</time>
      </trkpt>
      <trkpt lat="44.48013" lon="2.43221">
        <ele>449.4</ele>
        <time>2011-06-04T08:11:56Z</time>
      </trkpt>
      <trkpt lat="44.48004" lon="2.43221">
        <ele>448.7</ele>
        <time>2011-06-04T08:11:58Z</time>
      </trkpt>
      <trkpt lat="44.47989" lon="2.43221">
        <ele>447.8</ele>
        <time>2011-06-04T08:12:01Z</time>
      </trkpt>
      <trkpt lat="44.47985" lon="2.43221">
        <ele>447.5</ele>
        <time>2011-06-04T08:12:02Z</time>
      </trkpt>
      <trkpt lat="44.4798" lon="2.43219">
        <ele>447.3</ele>
        <time>2011-06-04T08:12:03Z</time>
      </trkpt>
      <trkpt lat="44.47975" lon="2.43216">
        <ele>447</ele>
        <time>2011-06-04T08:12:04Z</time>
      </trkpt>
      <trkpt lat="44.4797" lon="2.43212">
        <ele>446.7</ele>
        <time>2011-06-04T08:12:05Z</time>
      </trkpt>
      <trkpt lat="44.47966" lon="2.43207">
        <ele>446.4</ele>
        <time>2011-06-04T08:12:06Z</time>
      </trkpt>
      <trkpt lat="44.47943" lon="2.43177">
        <ele>443.2</ele>
        <time>2011-06-04T08:12:11Z</time>
      </trkpt>
      <trkpt lat="44.47926" lon="2.43154">
        <ele>438.6</ele>
        <time>2011-06-04T08:12:15Z</time>
      </trkpt>
      <trkpt lat="44.47906" lon="2.43124">
        <ele>433.1</ele>
        <time>2011-06-04T08:12:21Z</time>
      </trkpt>
      <trkpt lat="44.47902" lon="2.4312">
        <ele>432.5</ele>
        <time>2011-06-04T08:12:22Z</time>
      </trkpt>
      <trkpt lat="44.47897" lon="2.43118">
        <ele>432.1</ele>
        <time>2011-06-04T08:12:23Z</time>
      </trkpt>
      <trkpt lat="44.47892" lon="2.43116">
        <ele>431.8</ele>
        <time>2011-06-04T08:12:24Z</time>
      </trkpt>
      <trkpt lat="44.47887" lon="2.43116">
        <ele>431.7</ele>
        <time>2011-06-04T08:12:25Z</time>
      </trkpt>
      <trkpt lat="44.47883" lon="2.43117">
        <ele>431.8</ele>
        <time>2011-06-04T08:12:26Z</time>
      </trkpt>
      <trkpt lat="44.47868" lon="2.43125">
        <ele>432.3</ele>
        <time>2011-06-04T08:12:29Z</time>
      </trkpt>
      <trkpt lat="44.47853" lon="2.43137">
        <ele>433.1</ele>
        <time>2011-06-04T08:12:32Z</time>
      </trkpt>
      <trkpt lat="44.47843" lon="2.43148">
        <ele>433.7</ele>
        <time>2011-06-04T08:12:34Z</time>
      </trkpt>
      <trkpt lat="44.47827" lon="2.43169">
        <ele>435.1</ele>
        <time>2011-06-04T08:12:38Z</time>
      </trkpt>
      <trkpt lat="44.47823" lon="2.43174">
        <ele>435.3</ele>
        <time>2011-06-04T08:12:39Z</time>
      </trkpt>
      <trkpt lat="44.47819" lon="2.43178">
        <ele>435.6</ele>
        <time>2011-06-04T08:12:40Z</time>
      </trkpt>
      <trkpt lat="44.47813" lon="2.43181">
        <ele>435.8</ele>
        <time>2011-06-04T08:12:41Z</time>
      </trkpt>
      <trkpt lat="44.47784" lon="2.43193">
        <ele>435.7</ele>
        <time>2011-06-04T08:12:45Z</time>
      </trkpt>
      <trkpt lat="44.47739" lon="2.43209">
        <ele>434.3</ele>
        <time>2011-06-04T08:12:51Z</time>
      </trkpt>
      <trkpt lat="44.47691" lon="2.43227">
        <ele>427.7</ele>
        <time>2011-06-04T08:12:58Z</time>
      </trkpt>
      <trkpt lat="44.47661" lon="2.43236">
        <ele>423.6</ele>
        <time>2011-06-04T08:13:03Z</time>
      </trkpt>
      <trkpt lat="44.4764" lon="2.43243">
        <ele>422.2</ele>
        <time>2011-06-04T08:13:08Z</time>
      </trkpt>
      <trkpt lat="44.47634" lon="2.43245">
        <ele>421.6</ele>
        <time>2011-06-04T08:13:10Z</time>
      </trkpt>
      <trkpt lat="44.47621" lon="2.43249">
        <ele>420.6</ele>
        <time>2011-06-04T08:13:15Z</time>
      </trkpt>
      <trkpt lat="44.47618" lon="2.43249">
        <ele>420.3</ele>
        <time>2011-06-04T08:13:18Z</time>
      </trkpt>
      <trkpt lat="44.47613" lon="2.43242">
        <ele>419.5</ele>
        <time>2011-06-04T08:13:23Z</time>
      </trkpt>
      <trkpt lat="44.47611" lon="2.43236">
        <ele>419.1</ele>
        <time>2011-06-04T08:13:25Z</time>
      </trkpt>
      <trkpt lat="44.47603" lon="2.43216">
        <ele>417.8</ele>
        <time>2011-06-04T08:13:30Z</time>
      </trkpt>
      <trkpt lat="44.4759" lon="2.4319">
        <ele>416</ele>
        <time>2011-06-04T08:13:36Z</time>
      </trkpt>
      <trkpt lat="44.47587" lon="2.43186">
        <ele>415.7</ele>
        <time>2011-06-04T08:13:37Z</time>
      </trkpt>
      <trkpt lat="44.47562" lon="2.43148">
        <ele>414.9</ele>
        <time>2011-06-04T08:13:44Z</time>
      </trkpt>
      <trkpt lat="44.47559" lon="2.43142">
        <ele>414.9</ele>
        <time>2011-06-04T08:13:45Z</time>
      </trkpt>
      <trkpt lat="44.47555" lon="2.43136">
        <ele>414.9</ele>
        <time>2011-06-04T08:13:46Z</time>
      </trkpt>
      <trkpt lat="44.47548" lon="2.43126">
        <ele>415.1</ele>
        <time>2011-06-04T08:13:48Z</time>
      </trkpt>
      <trkpt lat="44.47544" lon="2.43118">
        <ele>415.2</ele>
        <time>2011-06-04T08:13:50Z</time>
      </trkpt>
      <trkpt lat="44.47541" lon="2.43101">
        <ele>415.3</ele>
        <time>2011-06-04T08:13:54Z</time>
      </trkpt>
      <trkpt lat="44.47538" lon="2.4308">
        <ele>415.3</ele>
        <time>2011-06-04T08:14:00Z</time>
      </trkpt>
      <trkpt lat="44.47538" lon="2.43074">
        <ele>415.3</ele>
        <time>2011-06-04T08:14:02Z</time>
      </trkpt>
      <trkpt lat="44.47537" lon="2.43064">
        <ele>415.5</ele>
        <time>2011-06-04T08:14:06Z</time>
      </trkpt>
      <trkpt lat="44.47537" lon="2.43058">
        <ele>415.5</ele>
        <time>2011-06-04T08:14:08Z</time>
      </trkpt>
      <trkpt lat="44.47538" lon="2.43036">
        <ele>415.4</ele>
        <time>2011-06-04T08:14:15Z</time>
      </trkpt>
      <trkpt lat="44.47541" lon="2.43015">
        <ele>415</ele>
        <time>2011-06-04T08:14:21Z</time>
      </trkpt>
      <trkpt lat="44.47545" lon="2.42984">
        <ele>414.3</ele>
        <time>2011-06-04T08:14:29Z</time>
      </trkpt>
      <trkpt lat="44.47546" lon="2.42972">
        <ele>413.8</ele>
        <time>2011-06-04T08:14:32Z</time>
      </trkpt>
      <trkpt lat="44.47547" lon="2.42953">
        <ele>413.3</ele>
        <time>2011-06-04T08:14:37Z</time>
      </trkpt>
      <trkpt lat="44.47545" lon="2.42932">
        <ele>412.9</ele>
        <time>2011-06-04T08:14:42Z</time>
      </trkpt>
      <trkpt lat="44.47545" lon="2.42925">
        <ele>412.8</ele>
        <time>2011-06-04T08:14:44Z</time>
      </trkpt>
      <trkpt lat="44.47542" lon="2.42907">
        <ele>413</ele>
        <time>2011-06-04T08:14:49Z</time>
      </trkpt>
      <trkpt lat="44.47539" lon="2.42894">
        <ele>413.3</ele>
        <time>2011-06-04T08:14:53Z</time>
      </trkpt>
      <trkpt lat="44.47537" lon="2.42885">
        <ele>413.7</ele>
        <time>2011-06-04T08:14:56Z</time>
      </trkpt>
      <trkpt lat="44.47531" lon="2.42866">
        <ele>414.6</ele>
        <time>2011-06-04T08:15:02Z</time>
      </trkpt>
      <trkpt lat="44.47526" lon="2.42847">
        <ele>415.5</ele>
        <time>2011-06-04T08:15:10Z</time>
      </trkpt>
      <trkpt lat="44.47518" lon="2.42826">
        <ele>417.4</ele>
        <time>2011-06-04T08:15:22Z</time>
      </trkpt>
      <trkpt lat="44.47517" lon="2.4282">
        <ele>417.9</ele>
        <time>2011-06-04T08:15:25Z</time>
      </trkpt>
      <trkpt lat="44.47515" lon="2.4281">
        <ele>418.8</ele>
        <time>2011-06-04T08:15:31Z</time>
      </trkpt>
      <trkpt lat="44.47511" lon="2.42798">
        <ele>420</ele>
        <time>2011-06-04T08:15:38Z</time>
      </trkpt>
      <trkpt lat="44.47506" lon="2.42773">
        <ele>422.1</ele>
        <time>2011-06-04T08:15:51Z</time>
      </trkpt>
      <trkpt lat="44.47504" lon="2.42757">
        <ele>423.2</ele>
        <time>2011-06-04T08:16:00Z</time>
      </trkpt>
      <trkpt lat="44.47501" lon="2.42725">
        <ele>425.7</ele>
        <time>2011-06-04T08:16:17Z</time>
      </trkpt>
      <trkpt lat="44.475" lon="2.42719">
        <ele>426.2</ele>
        <time>2011-06-04T08:16:20Z</time>
      </trkpt>
      <trkpt lat="44.47497" lon="2.42703">
        <ele>427.9</ele>
        <time>2011-06-04T08:16:29Z</time>
      </trkpt>
      <trkpt lat="44.47492" lon="2.42686">
        <ele>429.9</ele>
        <time>2011-06-04T08:16:39Z</time>
      </trkpt>
      <trkpt lat="44.4749" lon="2.42676">
        <ele>430.8</ele>
        <time>2011-06-04T08:16:44Z</time>
      </trkpt>
      <trkpt lat="44.4749" lon="2.42665">
        <ele>431.5</ele>
        <time>2011-06-04T08:16:50Z</time>
      </trkpt>
      <trkpt lat="44.47491" lon="2.4266">
        <ele>432.2</ele>
        <time>2011-06-04T08:16:53Z</time>
      </trkpt>
      <trkpt lat="44.47491" lon="2.4265">
        <ele>433.1</ele>
        <time>2011-06-04T08:16:58Z</time>
      </trkpt>
      <trkpt lat="44.47491" lon="2.42644">
        <ele>433.9</ele>
        <time>2011-06-04T08:17:01Z</time>
      </trkpt>
      <trkpt lat="44.47491" lon="2.42634">
        <ele>435</ele>
        <time>2011-06-04T08:17:05Z</time>
      </trkpt>
      <trkpt lat="44.47497" lon="2.4261">
        <ele>437.1</ele>
        <time>2011-06-04T08:17:12Z</time>
      </trkpt>
      <trkpt lat="44.47498" lon="2.42606">
        <ele>437.5</ele>
        <time>2011-06-04T08:17:13Z</time>
      </trkpt>
      <trkpt lat="44.47499" lon="2.42598">
        <ele>438.4</ele>
        <time>2011-06-04T08:17:15Z</time>
      </trkpt>
      <trkpt lat="44.475" lon="2.4259">
        <ele>439.2</ele>
        <time>2011-06-04T08:17:17Z</time>
      </trkpt>
      <trkpt lat="44.47503" lon="2.42566">
        <ele>440.6</ele>
        <time>2011-06-04T08:17:23Z</time>
      </trkpt>
      <trkpt lat="44.47501" lon="2.42559">
        <ele>441.3</ele>
        <time>2011-06-04T08:17:25Z</time>
      </trkpt>
      <trkpt lat="44.47498" lon="2.42551">
        <ele>442</ele>
        <time>2011-06-04T08:17:27Z</time>
      </trkpt>
      <trkpt lat="44.47494" lon="2.42544">
        <ele>442.6</ele>
        <time>2011-06-04T08:17:29Z</time>
      </trkpt>
      <trkpt lat="44.47484" lon="2.4253">
        <ele>443.5</ele>
        <time>2011-06-04T08:17:33Z</time>
      </trkpt>
      <trkpt lat="44.47477" lon="2.42515">
        <ele>444.4</ele>
        <time>2011-06-04T08:17:36Z</time>
      </trkpt>
      <trkpt lat="44.47475" lon="2.42511">
        <ele>444.6</ele>
        <time>2011-06-04T08:17:37Z</time>
      </trkpt>
      <trkpt lat="44.47463" lon="2.42486">
        <ele>443.6</ele>
        <time>2011-06-04T08:17:45Z</time>
      </trkpt>
      <trkpt lat="44.47455" lon="2.42463">
        <ele>441</ele>
        <time>2011-06-04T08:17:53Z</time>
      </trkpt>
      <trkpt lat="44.47453" lon="2.42459">
        <ele>440.5</ele>
        <time>2011-06-04T08:17:54Z</time>
      </trkpt>
      <trkpt lat="44.47448" lon="2.42454">
        <ele>439.9</ele>
        <time>2011-06-04T08:17:56Z</time>
      </trkpt>
      <trkpt lat="44.47431" lon="2.42448">
        <ele>438.3</ele>
        <time>2011-06-04T08:18:01Z</time>
      </trkpt>
      <trkpt lat="44.47418" lon="2.42441">
        <ele>436.5</ele>
        <time>2011-06-04T08:18:04Z</time>
      </trkpt>
      <trkpt lat="44.47412" lon="2.42438">
        <ele>435.5</ele>
        <time>2011-06-04T08:18:06Z</time>
      </trkpt>
      <trkpt lat="44.47404" lon="2.42431">
        <ele>433.9</ele>
        <time>2011-06-04T08:18:10Z</time>
      </trkpt>
      <trkpt lat="44.47399" lon="2.42423">
        <ele>432.3</ele>
        <time>2011-06-04T08:18:14Z</time>
      </trkpt>
      <trkpt lat="44.47392" lon="2.4241">
        <ele>429.3</ele>
        <time>2011-06-04T08:18:18Z</time>
      </trkpt>
      <trkpt lat="44.47388" lon="2.42403">
        <ele>427.4</ele>
        <time>2011-06-04T08:18:20Z</time>
      </trkpt>
      <trkpt lat="44.47381" lon="2.42392">
        <ele>424.6</ele>
        <time>2011-06-04T08:18:23Z</time>
      </trkpt>
      <trkpt lat="44.47376" lon="2.42386">
        <ele>422.8</ele>
        <time>2011-06-04T08:18:25Z</time>
      </trkpt>
      <trkpt lat="44.47374" lon="2.42375">
        <ele>420.4</ele>
        <time>2011-06-04T08:18:27Z</time>
      </trkpt>
      <trkpt lat="44.47373" lon="2.42357">
        <ele>416.6</ele>
        <time>2011-06-04T08:18:30Z</time>
      </trkpt>
      <trkpt lat="44.47372" lon="2.42351">
        <ele>415.1</ele>
        <time>2011-06-04T08:18:31Z</time>
      </trkpt>
      <trkpt lat="44.47365" lon="2.42313">
        <ele>406.5</ele>
        <time>2011-06-04T08:18:37Z</time>
      </trkpt>
      <trkpt lat="44.4736" lon="2.42286">
        <ele>400.4</ele>
        <time>2011-06-04T08:18:42Z</time>
      </trkpt>
      <trkpt lat="44.47352" lon="2.42258">
        <ele>394.4</ele>
        <time>2011-06-04T08:18:48Z</time>
      </trkpt>
      <trkpt lat="44.47351" lon="2.42254">
        <ele>393.4</ele>
        <time>2011-06-04T08:18:49Z</time>
      </trkpt>
      <trkpt lat="44.47348" lon="2.42237">
        <ele>391.4</ele>
        <time>2011-06-04T08:18:52Z</time>
      </trkpt>
      <trkpt lat="44.47347" lon="2.42231">
        <ele>390.7</ele>
        <time>2011-06-04T08:18:53Z</time>
      </trkpt>
      <trkpt lat="44.47342" lon="2.4222">
        <ele>389.5</ele>
        <time>2011-06-04T08:18:55Z</time>
      </trkpt>
      <trkpt lat="44.47339" lon="2.42214">
        <ele>389</ele>
        <time>2011-06-04T08:18:56Z</time>
      </trkpt>
      <trkpt lat="44.47323" lon="2.42191">
        <ele>387.6</ele>
        <time>2011-06-04T08:19:00Z</time>
      </trkpt>
      <trkpt lat="44.4732" lon="2.42184">
        <ele>387.2</ele>
        <time>2011-06-04T08:19:01Z</time>
      </trkpt>
      <trkpt lat="44.47313" lon="2.4215">
        <ele>383.8</ele>
        <time>2011-06-04T08:19:05Z</time>
      </trkpt>
      <trkpt lat="44.4731" lon="2.42129">
        <ele>381.6</ele>
        <time>2011-06-04T08:19:07Z</time>
      </trkpt>
      <trkpt lat="44.47309" lon="2.4212">
        <ele>380.4</ele>
        <time>2011-06-04T08:19:08Z</time>
      </trkpt>
      <trkpt lat="44.47309" lon="2.4211">
        <ele>379.4</ele>
        <time>2011-06-04T08:19:09Z</time>
      </trkpt>
      <trkpt lat="44.4731" lon="2.42101">
        <ele>378.3</ele>
        <time>2011-06-04T08:19:10Z</time>
      </trkpt>
      <trkpt lat="44.47312" lon="2.42083">
        <ele>376.1</ele>
        <time>2011-06-04T08:19:12Z</time>
      </trkpt>
      <trkpt lat="44.47313" lon="2.42073">
        <ele>375</ele>
        <time>2011-06-04T08:19:13Z</time>
      </trkpt>
      <trkpt lat="44.47312" lon="2.42063">
        <ele>373.8</ele>
        <time>2011-06-04T08:19:14Z</time>
      </trkpt>
      <trkpt lat="44.47311" lon="2.42052">
        <ele>372.6</ele>
        <time>2011-06-04T08:19:15Z</time>
      </trkpt>
      <trkpt lat="44.47309" lon="2.42042">
        <ele>371.6</ele>
        <time>2011-06-04T08:19:16Z</time>
      </trkpt>
      <trkpt lat="44.47305" lon="2.42032">
        <ele>370.6</ele>
        <time>2011-06-04T08:19:17Z</time>
      </trkpt>
      <trkpt lat="44.47301" lon="2.42023">
        <ele>370</ele>
        <time>2011-06-04T08:19:18Z</time>
      </trkpt>
      <trkpt lat="44.47296" lon="2.42015">
        <ele>369.6</ele>
        <time>2011-06-04T08:19:19Z</time>
      </trkpt>
      <trkpt lat="44.4728" lon="2.41993">
        <ele>369</ele>
        <time>2011-06-04T08:19:22Z</time>
      </trkpt>
      <trkpt lat="44.47275" lon="2.41985">
        <ele>368.7</ele>
        <time>2011-06-04T08:19:23Z</time>
      </trkpt>
      <trkpt lat="44.4727" lon="2.41978">
        <ele>368.3</ele>
        <time>2011-06-04T08:19:24Z</time>
      </trkpt>
      <trkpt lat="44.47264" lon="2.41972">
        <ele>368.3</ele>
        <time>2011-06-04T08:19:25Z</time>
      </trkpt>
      <trkpt lat="44.47241" lon="2.41958">
        <ele>368.4</ele>
        <time>2011-06-04T08:19:29Z</time>
      </trkpt>
      <trkpt lat="44.47239" lon="2.4195">
        <ele>367.6</ele>
        <time>2011-06-04T08:19:32Z</time>
      </trkpt>
      <trkpt lat="44.47244" lon="2.4195">
        <ele>367.3</ele>
        <time>2011-06-04T08:19:34Z</time>
      </trkpt>
      <trkpt lat="44.47249" lon="2.41953">
        <ele>367.4</ele>
        <time>2011-06-04T08:19:36Z</time>
      </trkpt>
      <trkpt lat="44.47273" lon="2.41963">
        <ele>366.6</ele>
        <time>2011-06-04T08:19:43Z</time>
      </trkpt>
      <trkpt lat="44.47286" lon="2.41967">
        <ele>365.9</ele>
        <time>2011-06-04T08:19:46Z</time>
      </trkpt>
      <trkpt lat="44.47294" lon="2.4197">
        <ele>365.6</ele>
        <time>2011-06-04T08:19:48Z</time>
      </trkpt>
      <trkpt lat="44.47312" lon="2.41978">
        <ele>364.6</ele>
        <time>2011-06-04T08:19:53Z</time>
      </trkpt>
      <trkpt lat="44.47323" lon="2.41982">
        <ele>363.9</ele>
        <time>2011-06-04T08:19:56Z</time>
      </trkpt>
      <trkpt lat="44.4733" lon="2.41985">
        <ele>363.4</ele>
        <time>2011-06-04T08:19:58Z</time>
      </trkpt>
      <trkpt lat="44.47342" lon="2.41993">
        <ele>363.2</ele>
        <time>2011-06-04T08:20:02Z</time>
      </trkpt>
      <trkpt lat="44.47353" lon="2.42001">
        <ele>363.3</ele>
        <time>2011-06-04T08:20:06Z</time>
      </trkpt>
      <trkpt lat="44.47358" lon="2.42006">
        <ele>363.7</ele>
        <time>2011-06-04T08:20:08Z</time>
      </trkpt>
      <trkpt lat="44.47377" lon="2.42019">
        <ele>364.5</ele>
        <time>2011-06-04T08:20:14Z</time>
      </trkpt>
      <trkpt lat="44.47383" lon="2.42025">
        <ele>365</ele>
        <time>2011-06-04T08:20:16Z</time>
      </trkpt>
      <trkpt lat="44.47386" lon="2.42028">
        <ele>365.1</ele>
        <time>2011-06-04T08:20:17Z</time>
      </trkpt>
      <trkpt lat="44.47403" lon="2.42043">
        <ele>365.8</ele>
        <time>2011-06-04T08:20:21Z</time>
      </trkpt>
      <trkpt lat="44.4742" lon="2.42055">
        <ele>366.5</ele>
        <time>2011-06-04T08:20:25Z</time>
      </trkpt>
      <trkpt lat="44.47433" lon="2.42062">
        <ele>367.8</ele>
        <time>2011-06-04T08:20:28Z</time>
      </trkpt>
      <trkpt lat="44.47441" lon="2.42068">
        <ele>369</ele>
        <time>2011-06-04T08:20:30Z</time>
      </trkpt>
      <trkpt lat="44.47449" lon="2.42072">
        <ele>369.9</ele>
        <time>2011-06-04T08:20:32Z</time>
      </trkpt>
      <trkpt lat="44.47464" lon="2.42082">
        <ele>372.1</ele>
        <time>2011-06-04T08:20:36Z</time>
      </trkpt>
      <trkpt lat="44.47475" lon="2.42089">
        <ele>374.2</ele>
        <time>2011-06-04T08:20:39Z</time>
      </trkpt>
      <trkpt lat="44.47491" lon="2.42092">
        <ele>375.8</ele>
        <time>2011-06-04T08:20:45Z</time>
      </trkpt>
      <trkpt lat="44.4751" lon="2.42091">
        <ele>375.6</ele>
        <time>2011-06-04T08:20:51Z</time>
      </trkpt>
      <trkpt lat="44.47517" lon="2.4209">
        <ele>374.7</ele>
        <time>2011-06-04T08:20:53Z</time>
      </trkpt>
      <trkpt lat="44.4754" lon="2.42088">
        <ele>372</ele>
        <time>2011-06-04T08:21:01Z</time>
      </trkpt>
      <trkpt lat="44.47552" lon="2.42087">
        <ele>370.6</ele>
        <time>2011-06-04T08:21:06Z</time>
      </trkpt>
      <trkpt lat="44.47566" lon="2.42087">
        <ele>369.2</ele>
        <time>2011-06-04T08:21:13Z</time>
      </trkpt>
      <trkpt lat="44.4757" lon="2.42086">
        <ele>368.8</ele>
        <time>2011-06-04T08:21:16Z</time>
      </trkpt>
      <trkpt lat="44.47574" lon="2.42084">
        <ele>367.9</ele>
        <time>2011-06-04T08:21:28Z</time>
      </trkpt>
      <trkpt lat="44.47574" lon="2.42073">
        <ele>366.3</ele>
        <time>2011-06-04T08:22:54Z</time>
      </trkpt>
      <trkpt lat="44.47576" lon="2.4206">
        <ele>364</ele>
        <time>2011-06-04T08:22:56Z</time>
      </trkpt>
      <trkpt lat="44.47582" lon="2.42018">
        <ele>356.8</ele>
        <time>2011-06-04T08:23:02Z</time>
      </trkpt>
      <trkpt lat="44.47583" lon="2.42009">
        <ele>355.5</ele>
        <time>2011-06-04T08:23:04Z</time>
      </trkpt>
      <trkpt lat="44.47584" lon="2.42004">
        <ele>354.3</ele>
        <time>2011-06-04T08:23:06Z</time>
      </trkpt>
      <trkpt lat="44.47585" lon="2.41998">
        <ele>353.7</ele>
        <time>2011-06-04T08:23:08Z</time>
      </trkpt>
      <trkpt lat="44.47589" lon="2.41981">
        <ele>352.1</ele>
        <time>2011-06-04T08:23:13Z</time>
      </trkpt>
      <trkpt lat="44.47591" lon="2.41973">
        <ele>351.2</ele>
        <time>2011-06-04T08:23:15Z</time>
      </trkpt>
      <trkpt lat="44.47597" lon="2.41946">
        <ele>348.7</ele>
        <time>2011-06-04T08:23:21Z</time>
      </trkpt>
      <trkpt lat="44.47605" lon="2.41922">
        <ele>346.2</ele>
        <time>2011-06-04T08:23:27Z</time>
      </trkpt>
      <trkpt lat="44.4761" lon="2.419">
        <ele>344.1</ele>
        <time>2011-06-04T08:23:31Z</time>
      </trkpt>
      <trkpt lat="44.47613" lon="2.41887">
        <ele>342.8</ele>
        <time>2011-06-04T08:23:33Z</time>
      </trkpt>
      <trkpt lat="44.4762" lon="2.41864">
        <ele>340.5</ele>
        <time>2011-06-04T08:23:36Z</time>
      </trkpt>
      <trkpt lat="44.47623" lon="2.41857">
        <ele>339.8</ele>
        <time>2011-06-04T08:23:37Z</time>
      </trkpt>
      <trkpt lat="44.47636" lon="2.4183">
        <ele>337</ele>
        <time>2011-06-04T08:23:42Z</time>
      </trkpt>
      <trkpt lat="44.4764" lon="2.41823">
        <ele>336.5</ele>
        <time>2011-06-04T08:23:43Z</time>
      </trkpt>
      <trkpt lat="44.47653" lon="2.41803">
        <ele>334.8</ele>
        <time>2011-06-04T08:23:46Z</time>
      </trkpt>
      <trkpt lat="44.47657" lon="2.41797">
        <ele>334.3</ele>
        <time>2011-06-04T08:23:47Z</time>
      </trkpt>
      <trkpt lat="44.47662" lon="2.41794">
        <ele>333.8</ele>
        <time>2011-06-04T08:23:48Z</time>
      </trkpt>
      <trkpt lat="44.47693" lon="2.41784">
        <ele>331.8</ele>
        <time>2011-06-04T08:23:53Z</time>
      </trkpt>
      <trkpt lat="44.47706" lon="2.4178">
        <ele>330.9</ele>
        <time>2011-06-04T08:23:55Z</time>
      </trkpt>
      <trkpt lat="44.47711" lon="2.41776">
        <ele>330.3</ele>
        <time>2011-06-04T08:23:56Z</time>
      </trkpt>
      <trkpt lat="44.47716" lon="2.41771">
        <ele>329.7</ele>
        <time>2011-06-04T08:23:57Z</time>
      </trkpt>
      <trkpt lat="44.4772" lon="2.41764">
        <ele>329.1</ele>
        <time>2011-06-04T08:23:58Z</time>
      </trkpt>
      <trkpt lat="44.47736" lon="2.41735">
        <ele>326.5</ele>
        <time>2011-06-04T08:24:03Z</time>
      </trkpt>
      <trkpt lat="44.47751" lon="2.41705">
        <ele>324.3</ele>
        <time>2011-06-04T08:24:08Z</time>
      </trkpt>
      <trkpt lat="44.47766" lon="2.41671">
        <ele>321.9</ele>
        <time>2011-06-04T08:24:13Z</time>
      </trkpt>
      <trkpt lat="44.47776" lon="2.41648">
        <ele>320.6</ele>
        <time>2011-06-04T08:24:17Z</time>
      </trkpt>
      <trkpt lat="44.47789" lon="2.41617">
        <ele>319.2</ele>
        <time>2011-06-04T08:24:22Z</time>
      </trkpt>
      <trkpt lat="44.47804" lon="2.41575">
        <ele>317.1</ele>
        <time>2011-06-04T08:24:27Z</time>
      </trkpt>
      <trkpt lat="44.47823" lon="2.41518">
        <ele>314.4</ele>
        <time>2011-06-04T08:24:34Z</time>
      </trkpt>
      <trkpt lat="44.47842" lon="2.41469">
        <ele>311.8</ele>
        <time>2011-06-04T08:24:40Z</time>
      </trkpt>
      <trkpt lat="44.47848" lon="2.41455">
        <ele>311.2</ele>
        <time>2011-06-04T08:24:42Z</time>
      </trkpt>
      <trkpt lat="44.47857" lon="2.41427">
        <ele>310.3</ele>
        <time>2011-06-04T08:24:46Z</time>
      </trkpt>
      <trkpt lat="44.47872" lon="2.4138">
        <ele>309.6</ele>
        <time>2011-06-04T08:24:52Z</time>
      </trkpt>
      <trkpt lat="44.47883" lon="2.41348">
        <ele>309.2</ele>
        <time>2011-06-04T08:24:56Z</time>
      </trkpt>
      <trkpt lat="44.47896" lon="2.41315">
        <ele>308.8</ele>
        <time>2011-06-04T08:25:00Z</time>
      </trkpt>
      <trkpt lat="44.47899" lon="2.41308">
        <ele>308.7</ele>
        <time>2011-06-04T08:25:01Z</time>
      </trkpt>
      <trkpt lat="44.47902" lon="2.41302">
        <ele>308.6</ele>
        <time>2011-06-04T08:25:02Z</time>
      </trkpt>
      <trkpt lat="44.47908" lon="2.4129">
        <ele>308.4</ele>
        <time>2011-06-04T08:25:05Z</time>
      </trkpt>
      <trkpt lat="44.47908" lon="2.41282">
        <ele>308.4</ele>
        <time>2011-06-04T08:25:07Z</time>
      </trkpt>
      <trkpt lat="44.47911" lon="2.41266">
        <ele>308.3</ele>
        <time>2011-06-04T08:25:10Z</time>
      </trkpt>
      <trkpt lat="44.47915" lon="2.41253">
        <ele>308.1</ele>
        <time>2011-06-04T08:25:12Z</time>
      </trkpt>
      <trkpt lat="44.47915" lon="2.41248">
        <ele>308.1</ele>
        <time>2011-06-04T08:25:13Z</time>
      </trkpt>
      <trkpt lat="44.47912" lon="2.41241">
        <ele>308.3</ele>
        <time>2011-06-04T08:25:15Z</time>
      </trkpt>
      <trkpt lat="44.47906" lon="2.41236">
        <ele>308.6</ele>
        <time>2011-06-04T08:25:19Z</time>
      </trkpt>
      <trkpt lat="44.47896" lon="2.41232">
        <ele>309</ele>
        <time>2011-06-04T08:25:24Z</time>
      </trkpt>
      <trkpt lat="44.4789" lon="2.41231">
        <ele>309.2</ele>
        <time>2011-06-04T08:25:27Z</time>
      </trkpt>
      <trkpt lat="44.4787" lon="2.41235">
        <ele>310</ele>
        <time>2011-06-04T08:25:38Z</time>
      </trkpt>
      <trkpt lat="44.47855" lon="2.41241">
        <ele>310.7</ele>
        <time>2011-06-04T08:25:48Z</time>
      </trkpt>
      <trkpt lat="44.47848" lon="2.41241">
        <ele>311</ele>
        <time>2011-06-04T08:25:52Z</time>
      </trkpt>
      <trkpt lat="44.47834" lon="2.4124">
        <ele>311.6</ele>
        <time>2011-06-04T08:25:59Z</time>
      </trkpt>
      <trkpt lat="44.47829" lon="2.41239">
        <ele>311.8</ele>
        <time>2011-06-04T08:26:02Z</time>
      </trkpt>
      <trkpt lat="44.47811" lon="2.41238">
        <ele>312.6</ele>
        <time>2011-06-04T08:26:09Z</time>
      </trkpt>
      <trkpt lat="44.47808" lon="2.41237">
        <ele>312.7</ele>
        <time>2011-06-04T08:26:10Z</time>
      </trkpt>
      <trkpt lat="44.47791" lon="2.41232">
        <ele>313.2</ele>
        <time>2011-06-04T08:26:16Z</time>
      </trkpt>
      <trkpt lat="44.47777" lon="2.41225">
        <ele>313.6</ele>
        <time>2011-06-04T08:26:21Z</time>
      </trkpt>
      <trkpt lat="44.47774" lon="2.41224">
        <ele>313.6</ele>
        <time>2011-06-04T08:26:22Z</time>
      </trkpt>
      <trkpt lat="44.47769" lon="2.41219">
        <ele>313.7</ele>
        <time>2011-06-04T08:26:24Z</time>
      </trkpt>
      <trkpt lat="44.47764" lon="2.41216">
        <ele>313.7</ele>
        <time>2011-06-04T08:26:26Z</time>
      </trkpt>
      <trkpt lat="44.47756" lon="2.41209">
        <ele>313.7</ele>
        <time>2011-06-04T08:26:29Z</time>
      </trkpt>
      <trkpt lat="44.47747" lon="2.41202">
        <ele>313.7</ele>
        <time>2011-06-04T08:26:32Z</time>
      </trkpt>
      <trkpt lat="44.47741" lon="2.41198">
        <ele>313.6</ele>
        <time>2011-06-04T08:26:34Z</time>
      </trkpt>
      <trkpt lat="44.47735" lon="2.41195">
        <ele>313.5</ele>
        <time>2011-06-04T08:26:36Z</time>
      </trkpt>
      <trkpt lat="44.47726" lon="2.41189">
        <ele>313.4</ele>
        <time>2011-06-04T08:26:39Z</time>
      </trkpt>
      <trkpt lat="44.4772" lon="2.41187">
        <ele>313.4</ele>
        <time>2011-06-04T08:26:41Z</time>
      </trkpt>
      <trkpt lat="44.47701" lon="2.4118">
        <ele>313.5</ele>
        <time>2011-06-04T08:26:47Z</time>
      </trkpt>
      <trkpt lat="44.47688" lon="2.41174">
        <ele>313.7</ele>
        <time>2011-06-04T08:26:51Z</time>
      </trkpt>
      <trkpt lat="44.47664" lon="2.41165">
        <ele>314</ele>
        <time>2011-06-04T08:26:58Z</time>
      </trkpt>
      <trkpt lat="44.4765" lon="2.41159">
        <ele>314.4</ele>
        <time>2011-06-04T08:27:02Z</time>
      </trkpt>
      <trkpt lat="44.47636" lon="2.41152">
        <ele>314.8</ele>
        <time>2011-06-04T08:27:06Z</time>
      </trkpt>
      <trkpt lat="44.4761" lon="2.41142">
        <ele>316</ele>
        <time>2011-06-04T08:27:14Z</time>
      </trkpt>
      <trkpt lat="44.47585" lon="2.41134">
        <ele>317.3</ele>
        <time>2011-06-04T08:27:22Z</time>
      </trkpt>
      <trkpt lat="44.47558" lon="2.41129">
        <ele>318.7</ele>
        <time>2011-06-04T08:27:30Z</time>
      </trkpt>
      <trkpt lat="44.47544" lon="2.41123">
        <ele>319.4</ele>
        <time>2011-06-04T08:27:34Z</time>
      </trkpt>
      <trkpt lat="44.47536" lon="2.4112">
        <ele>319.7</ele>
        <time>2011-06-04T08:27:36Z</time>
      </trkpt>
      <trkpt lat="44.4753" lon="2.41115">
        <ele>320</ele>
        <time>2011-06-04T08:27:38Z</time>
      </trkpt>
      <trkpt lat="44.47526" lon="2.41113">
        <ele>320.2</ele>
        <time>2011-06-04T08:27:39Z</time>
      </trkpt>
      <trkpt lat="44.47509" lon="2.41102">
        <ele>320.9</ele>
        <time>2011-06-04T08:27:44Z</time>
      </trkpt>
      <trkpt lat="44.47495" lon="2.41094">
        <ele>321.2</ele>
        <time>2011-06-04T08:27:48Z</time>
      </trkpt>
      <trkpt lat="44.4748" lon="2.4109">
        <ele>321.4</ele>
        <time>2011-06-04T08:27:52Z</time>
      </trkpt>
      <trkpt lat="44.47467" lon="2.41087">
        <ele>321.5</ele>
        <time>2011-06-04T08:27:56Z</time>
      </trkpt>
      <trkpt lat="44.47455" lon="2.41083">
        <ele>321.5</ele>
        <time>2011-06-04T08:28:00Z</time>
      </trkpt>
      <trkpt lat="44.47449" lon="2.4108">
        <ele>321.5</ele>
        <time>2011-06-04T08:28:02Z</time>
      </trkpt>
      <trkpt lat="44.47441" lon="2.41075">
        <ele>321.5</ele>
        <time>2011-06-04T08:28:05Z</time>
      </trkpt>
      <trkpt lat="44.47435" lon="2.41069">
        <ele>321.5</ele>
        <time>2011-06-04T08:28:08Z</time>
      </trkpt>
      <trkpt lat="44.47432" lon="2.4106">
        <ele>321.4</ele>
        <time>2011-06-04T08:28:12Z</time>
      </trkpt>
      <trkpt lat="44.47437" lon="2.41057">
        <ele>321.3</ele>
        <time>2011-06-04T08:28:14Z</time>
      </trkpt>
      <trkpt lat="44.47443" lon="2.41054">
        <ele>321.1</ele>
        <time>2011-06-04T08:28:16Z</time>
      </trkpt>
      <trkpt lat="44.47461" lon="2.41051">
        <ele>320.7</ele>
        <time>2011-06-04T08:28:21Z</time>
      </trkpt>
      <trkpt lat="44.47469" lon="2.41048">
        <ele>320.4</ele>
        <time>2011-06-04T08:28:23Z</time>
      </trkpt>
      <trkpt lat="44.47473" lon="2.41046">
        <ele>320.3</ele>
        <time>2011-06-04T08:28:24Z</time>
      </trkpt>
      <trkpt lat="44.47486" lon="2.41036">
        <ele>319.6</ele>
        <time>2011-06-04T08:28:27Z</time>
      </trkpt>
      <trkpt lat="44.47515" lon="2.41012">
        <ele>317.7</ele>
        <time>2011-06-04T08:28:32Z</time>
      </trkpt>
      <trkpt lat="44.47545" lon="2.40991">
        <ele>315.5</ele>
        <time>2011-06-04T08:28:36Z</time>
      </trkpt>
      <trkpt lat="44.47584" lon="2.4097">
        <ele>313.3</ele>
        <time>2011-06-04T08:28:42Z</time>
      </trkpt>
      <trkpt lat="44.47602" lon="2.40965">
        <ele>312.8</ele>
        <time>2011-06-04T08:28:45Z</time>
      </trkpt>
      <trkpt lat="44.47609" lon="2.40964">
        <ele>312.6</ele>
        <time>2011-06-04T08:28:46Z</time>
      </trkpt>
      <trkpt lat="44.47629" lon="2.40965">
        <ele>312.2</ele>
        <time>2011-06-04T08:28:51Z</time>
      </trkpt>
      <trkpt lat="44.47637" lon="2.40962">
        <ele>312</ele>
        <time>2011-06-04T08:29:02Z</time>
      </trkpt>
      <trkpt lat="44.47641" lon="2.40963">
        <ele>312</ele>
        <time>2011-06-04T08:29:10Z</time>
      </trkpt>
      <trkpt lat="44.47646" lon="2.40957">
        <ele>311.9</ele>
        <time>2011-06-04T08:29:21Z</time>
      </trkpt>
      <trkpt lat="44.47672" lon="2.40947">
        <ele>311.7</ele>
        <time>2011-06-04T08:29:38Z</time>
      </trkpt>
      <trkpt lat="44.47682" lon="2.40941">
        <ele>311.9</ele>
        <time>2011-06-04T08:29:44Z</time>
      </trkpt>
      <trkpt lat="44.47688" lon="2.40936">
        <ele>312</ele>
        <time>2011-06-04T08:29:47Z</time>
      </trkpt>
      <trkpt lat="44.47701" lon="2.40925">
        <ele>312.6</ele>
        <time>2011-06-04T08:29:53Z</time>
      </trkpt>
      <trkpt lat="44.47717" lon="2.40911">
        <ele>313.7</ele>
        <time>2011-06-04T08:30:00Z</time>
      </trkpt>
      <trkpt lat="44.47725" lon="2.40904">
        <ele>314.4</ele>
        <time>2011-06-04T08:30:03Z</time>
      </trkpt>
      <trkpt lat="44.47735" lon="2.40894">
        <ele>315.5</ele>
        <time>2011-06-04T08:30:07Z</time>
      </trkpt>
      <trkpt lat="44.47748" lon="2.40882">
        <ele>316.9</ele>
        <time>2011-06-04T08:30:13Z</time>
      </trkpt>
      <trkpt lat="44.47753" lon="2.40876">
        <ele>317.4</ele>
        <time>2011-06-04T08:30:17Z</time>
      </trkpt>
      <trkpt lat="44.47765" lon="2.40861">
        <ele>317.9</ele>
        <time>2011-06-04T08:30:25Z</time>
      </trkpt>
      <trkpt lat="44.47774" lon="2.40854">
        <ele>317.9</ele>
        <time>2011-06-04T08:30:29Z</time>
      </trkpt>
      <trkpt lat="44.47779" lon="2.40852">
        <ele>317.7</ele>
        <time>2011-06-04T08:30:31Z</time>
      </trkpt>
      <trkpt lat="44.47789" lon="2.40851">
        <ele>317.2</ele>
        <time>2011-06-04T08:30:35Z</time>
      </trkpt>
      <trkpt lat="44.47792" lon="2.40851">
        <ele>317.1</ele>
        <time>2011-06-04T08:30:36Z</time>
      </trkpt>
      <trkpt lat="44.47797" lon="2.40852">
        <ele>316.7</ele>
        <time>2011-06-04T08:30:38Z</time>
      </trkpt>
      <trkpt lat="44.47811" lon="2.4086">
        <ele>315.5</ele>
        <time>2011-06-04T08:30:44Z</time>
      </trkpt>
      <trkpt lat="44.47818" lon="2.40863">
        <ele>315.1</ele>
        <time>2011-06-04T08:30:46Z</time>
      </trkpt>
      <trkpt lat="44.47836" lon="2.40867">
        <ele>314.3</ele>
        <time>2011-06-04T08:30:51Z</time>
      </trkpt>
      <trkpt lat="44.47855" lon="2.40868">
        <ele>314.6</ele>
        <time>2011-06-04T08:30:56Z</time>
      </trkpt>
      <trkpt lat="44.47861" lon="2.40865">
        <ele>314.8</ele>
        <time>2011-06-04T08:30:58Z</time>
      </trkpt>
      <trkpt lat="44.47863" lon="2.40859">
        <ele>315</ele>
        <time>2011-06-04T08:31:00Z</time>
      </trkpt>
      <trkpt lat="44.47863" lon="2.40852">
        <ele>315.2</ele>
        <time>2011-06-04T08:31:02Z</time>
      </trkpt>
      <trkpt lat="44.47863" lon="2.40845">
        <ele>315.4</ele>
        <time>2011-06-04T08:31:04Z</time>
      </trkpt>
      <trkpt lat="44.47857" lon="2.40825">
        <ele>315.8</ele>
        <time>2011-06-04T08:31:12Z</time>
      </trkpt>
      <trkpt lat="44.47854" lon="2.40813">
        <ele>316</ele>
        <time>2011-06-04T08:31:16Z</time>
      </trkpt>
      <trkpt lat="44.4785" lon="2.40801">
        <ele>316.3</ele>
        <time>2011-06-04T08:31:20Z</time>
      </trkpt>
      <trkpt lat="44.47844" lon="2.40789">
        <ele>316.6</ele>
        <time>2011-06-04T08:31:24Z</time>
      </trkpt>
      <trkpt lat="44.47837" lon="2.40775">
        <ele>317.1</ele>
        <time>2011-06-04T08:31:30Z</time>
      </trkpt>
      <trkpt lat="44.47829" lon="2.40749">
        <ele>318.3</ele>
        <time>2011-06-04T08:31:39Z</time>
      </trkpt>
      <trkpt lat="44.47827" lon="2.40744">
        <ele>318.6</ele>
        <time>2011-06-04T08:31:41Z</time>
      </trkpt>
      <trkpt lat="44.47825" lon="2.40739">
        <ele>318.9</ele>
        <time>2011-06-04T08:31:43Z</time>
      </trkpt>
      <trkpt lat="44.47816" lon="2.40717">
        <ele>319.9</ele>
        <time>2011-06-04T08:31:51Z</time>
      </trkpt>
      <trkpt lat="44.47812" lon="2.40705">
        <ele>320.3</ele>
        <time>2011-06-04T08:31:55Z</time>
      </trkpt>
      <trkpt lat="44.47812" lon="2.40699">
        <ele>320.5</ele>
        <time>2011-06-04T08:31:57Z</time>
      </trkpt>
      <trkpt lat="44.47813" lon="2.40689">
        <ele>320.7</ele>
        <time>2011-06-04T08:32:00Z</time>
      </trkpt>
      <trkpt lat="44.47818" lon="2.40677">
        <ele>320.9</ele>
        <time>2011-06-04T08:32:04Z</time>
      </trkpt>
      <trkpt lat="44.4782" lon="2.40673">
        <ele>321</ele>
        <time>2011-06-04T08:32:05Z</time>
      </trkpt>
      <trkpt lat="44.47828" lon="2.40662">
        <ele>321.2</ele>
        <time>2011-06-04T08:32:08Z</time>
      </trkpt>
      <trkpt lat="44.47833" lon="2.40654">
        <ele>321.3</ele>
        <time>2011-06-04T08:32:10Z</time>
      </trkpt>
      <trkpt lat="44.47836" lon="2.4065">
        <ele>321.3</ele>
        <time>2011-06-04T08:32:11Z</time>
      </trkpt>
      <trkpt lat="44.4786" lon="2.40621">
        <ele>321.5</ele>
        <time>2011-06-04T08:32:19Z</time>
      </trkpt>
      <trkpt lat="44.47867" lon="2.40612">
        <ele>321.5</ele>
        <time>2011-06-04T08:32:22Z</time>
      </trkpt>
      <trkpt lat="44.47878" lon="2.40604">
        <ele>321.4</ele>
        <time>2011-06-04T08:32:25Z</time>
      </trkpt>
      <trkpt lat="44.47901" lon="2.40587">
        <ele>321.3</ele>
        <time>2011-06-04T08:32:30Z</time>
      </trkpt>
      <trkpt lat="44.47908" lon="2.40582">
        <ele>321.3</ele>
        <time>2011-06-04T08:32:32Z</time>
      </trkpt>
      <trkpt lat="44.47913" lon="2.40575">
        <ele>321.4</ele>
        <time>2011-06-04T08:32:35Z</time>
      </trkpt>
      <trkpt lat="44.47911" lon="2.40569">
        <ele>321.6</ele>
        <time>2011-06-04T08:32:38Z</time>
      </trkpt>
      <trkpt lat="44.47911" lon="2.4056">
        <ele>322</ele>
        <time>2011-06-04T08:32:44Z</time>
      </trkpt>
      <trkpt lat="44.47914" lon="2.40552">
        <ele>322.2</ele>
        <time>2011-06-04T08:32:49Z</time>
      </trkpt>
      <trkpt lat="44.47917" lon="2.40548">
        <ele>322.3</ele>
        <time>2011-06-04T08:32:51Z</time>
      </trkpt>
      <trkpt lat="44.47924" lon="2.40535">
        <ele>322.7</ele>
        <time>2011-06-04T08:32:56Z</time>
      </trkpt>
      <trkpt lat="44.47927" lon="2.40524">
        <ele>323.2</ele>
        <time>2011-06-04T08:33:07Z</time>
      </trkpt>
      <trkpt lat="44.4793" lon="2.40515">
        <ele>323.5</ele>
        <time>2011-06-04T08:33:11Z</time>
      </trkpt>
      <trkpt lat="44.47929" lon="2.40507">
        <ele>323.8</ele>
        <time>2011-06-04T08:33:15Z</time>
      </trkpt>
      <trkpt lat="44.47931" lon="2.40493">
        <ele>324.4</ele>
        <time>2011-06-04T08:33:20Z</time>
      </trkpt>
      <trkpt lat="44.47936" lon="2.40479">
        <ele>325.1</ele>
        <time>2011-06-04T08:33:27Z</time>
      </trkpt>
      <trkpt lat="44.47943" lon="2.40464">
        <ele>325.8</ele>
        <time>2011-06-04T08:33:33Z</time>
      </trkpt>
      <trkpt lat="44.47946" lon="2.40456">
        <ele>326.1</ele>
        <time>2011-06-04T08:33:36Z</time>
      </trkpt>
      <trkpt lat="44.47947" lon="2.40449">
        <ele>326.4</ele>
        <time>2011-06-04T08:33:38Z</time>
      </trkpt>
      <trkpt lat="44.47947" lon="2.40446">
        <ele>326.6</ele>
        <time>2011-06-04T08:33:39Z</time>
      </trkpt>
      <trkpt lat="44.47945" lon="2.40439">
        <ele>327</ele>
        <time>2011-06-04T08:33:41Z</time>
      </trkpt>
      <trkpt lat="44.47941" lon="2.40424">
        <ele>327.7</ele>
        <time>2011-06-04T08:33:46Z</time>
      </trkpt>
      <trkpt lat="44.47939" lon="2.4041">
        <ele>328.1</ele>
        <time>2011-06-04T08:33:50Z</time>
      </trkpt>
      <trkpt lat="44.47936" lon="2.40401">
        <ele>328.3</ele>
        <time>2011-06-04T08:33:53Z</time>
      </trkpt>
      <trkpt lat="44.47929" lon="2.40389">
        <ele>328.6</ele>
        <time>2011-06-04T08:33:58Z</time>
      </trkpt>
      <trkpt lat="44.47918" lon="2.40373">
        <ele>329.1</ele>
        <time>2011-06-04T08:34:05Z</time>
      </trkpt>
      <trkpt lat="44.47913" lon="2.40367">
        <ele>329.2</ele>
        <time>2011-06-04T08:34:10Z</time>
      </trkpt>
      <trkpt lat="44.47906" lon="2.40371">
        <ele>329</ele>
        <time>2011-06-04T08:34:15Z</time>
      </trkpt>
      <trkpt lat="44.47901" lon="2.40376">
        <ele>328.8</ele>
        <time>2011-06-04T08:34:18Z</time>
      </trkpt>
      <trkpt lat="44.47887" lon="2.40393">
        <ele>328.2</ele>
        <time>2011-06-04T08:34:26Z</time>
      </trkpt>
      <trkpt lat="44.47883" lon="2.40398">
        <ele>328.1</ele>
        <time>2011-06-04T08:34:28Z</time>
      </trkpt>
      <trkpt lat="44.47873" lon="2.40409">
        <ele>327.7</ele>
        <time>2011-06-04T08:34:33Z</time>
      </trkpt>
      <trkpt lat="44.47865" lon="2.40419">
        <ele>327.3</ele>
        <time>2011-06-04T08:34:37Z</time>
      </trkpt>
      <trkpt lat="44.47852" lon="2.40433">
        <ele>326.8</ele>
        <time>2011-06-04T08:34:43Z</time>
      </trkpt>
      <trkpt lat="44.47849" lon="2.40439">
        <ele>326.6</ele>
        <time>2011-06-04T08:34:45Z</time>
      </trkpt>
      <trkpt lat="44.47838" lon="2.4045">
        <ele>326.2</ele>
        <time>2011-06-04T08:34:50Z</time>
      </trkpt>
      <trkpt lat="44.47825" lon="2.40464">
        <ele>326.1</ele>
        <time>2011-06-04T08:34:56Z</time>
      </trkpt>
      <trkpt lat="44.47808" lon="2.40482">
        <ele>326.1</ele>
        <time>2011-06-04T08:35:04Z</time>
      </trkpt>
      <trkpt lat="44.47785" lon="2.40501">
        <ele>326.1</ele>
        <time>2011-06-04T08:35:14Z</time>
      </trkpt>
      <trkpt lat="44.47781" lon="2.40505">
        <ele>326.1</ele>
        <time>2011-06-04T08:35:16Z</time>
      </trkpt>
      <trkpt lat="44.47757" lon="2.40521">
        <ele>325.9</ele>
        <time>2011-06-04T08:35:26Z</time>
      </trkpt>
      <trkpt lat="44.47755" lon="2.40521">
        <ele>325.9</ele>
        <time>2011-06-04T08:35:27Z</time>
      </trkpt>
      <trkpt lat="44.4775" lon="2.4052">
        <ele>326.1</ele>
        <time>2011-06-04T08:35:29Z</time>
      </trkpt>
      <trkpt lat="44.47746" lon="2.40515">
        <ele>326.6</ele>
        <time>2011-06-04T08:35:31Z</time>
      </trkpt>
      <trkpt lat="44.4774" lon="2.40492">
        <ele>328</ele>
        <time>2011-06-04T08:35:38Z</time>
      </trkpt>
      <trkpt lat="44.47738" lon="2.40488">
        <ele>328.4</ele>
        <time>2011-06-04T08:35:40Z</time>
      </trkpt>
      <trkpt lat="44.47731" lon="2.40487">
        <ele>328.9</ele>
        <time>2011-06-04T08:35:44Z</time>
      </trkpt>
      <trkpt lat="44.47721" lon="2.40497">
        <ele>329.3</ele>
        <time>2011-06-04T08:35:50Z</time>
      </trkpt>
      <trkpt lat="44.47712" lon="2.40509">
        <ele>329.4</ele>
        <time>2011-06-04T08:35:55Z</time>
      </trkpt>
      <trkpt lat="44.47701" lon="2.40525">
        <ele>329.4</ele>
        <time>2011-06-04T08:36:01Z</time>
      </trkpt>
      <trkpt lat="44.47697" lon="2.4053">
        <ele>329.4</ele>
        <time>2011-06-04T08:36:03Z</time>
      </trkpt>
      <trkpt lat="44.47688" lon="2.40547">
        <ele>329.3</ele>
        <time>2011-06-04T08:36:09Z</time>
      </trkpt>
      <trkpt lat="44.47679" lon="2.40564">
        <ele>329</ele>
        <time>2011-06-04T08:36:15Z</time>
      </trkpt>
      <trkpt lat="44.47675" lon="2.40571">
        <ele>329.1</ele>
        <time>2011-06-04T08:36:18Z</time>
      </trkpt>
      <trkpt lat="44.47671" lon="2.40575">
        <ele>329</ele>
        <time>2011-06-04T08:36:20Z</time>
      </trkpt>
      <trkpt lat="44.47666" lon="2.4058">
        <ele>329.2</ele>
        <time>2011-06-04T08:36:23Z</time>
      </trkpt>
      <trkpt lat="44.47661" lon="2.4058">
        <ele>329.6</ele>
        <time>2011-06-04T08:36:26Z</time>
      </trkpt>
      <trkpt lat="44.47657" lon="2.40578">
        <ele>330</ele>
        <time>2011-06-04T08:36:28Z</time>
      </trkpt>
      <trkpt lat="44.47654" lon="2.40572">
        <ele>330.5</ele>
        <time>2011-06-04T08:36:30Z</time>
      </trkpt>
      <trkpt lat="44.47653" lon="2.40564">
        <ele>330.9</ele>
        <time>2011-06-04T08:36:32Z</time>
      </trkpt>
      <trkpt lat="44.47655" lon="2.40535">
        <ele>332.2</ele>
        <time>2011-06-04T08:36:37Z</time>
      </trkpt>
      <trkpt lat="44.47651" lon="2.40526">
        <ele>332.9</ele>
        <time>2011-06-04T08:36:39Z</time>
      </trkpt>
      <trkpt lat="44.47648" lon="2.40523">
        <ele>333.3</ele>
        <time>2011-06-04T08:36:40Z</time>
      </trkpt>
      <trkpt lat="44.4762" lon="2.40508">
        <ele>336</ele>
        <time>2011-06-04T08:36:46Z</time>
      </trkpt>
      <trkpt lat="44.47591" lon="2.40497">
        <ele>338.5</ele>
        <time>2011-06-04T08:36:52Z</time>
      </trkpt>
      <trkpt lat="44.47575" lon="2.40489">
        <ele>338.4</ele>
        <time>2011-06-04T08:36:56Z</time>
      </trkpt>
      <trkpt lat="44.47571" lon="2.40487">
        <ele>338.2</ele>
        <time>2011-06-04T08:36:57Z</time>
      </trkpt>
      <trkpt lat="44.47566" lon="2.40486">
        <ele>337.9</ele>
        <time>2011-06-04T08:36:58Z</time>
      </trkpt>
      <trkpt lat="44.47562" lon="2.40486">
        <ele>337.6</ele>
        <time>2011-06-04T08:36:59Z</time>
      </trkpt>
      <trkpt lat="44.47539" lon="2.40491">
        <ele>336</ele>
        <time>2011-06-04T08:37:06Z</time>
      </trkpt>
      <trkpt lat="44.47534" lon="2.40493">
        <ele>335.6</ele>
        <time>2011-06-04T08:37:08Z</time>
      </trkpt>
      <trkpt lat="44.47528" lon="2.40497">
        <ele>335.1</ele>
        <time>2011-06-04T08:37:12Z</time>
      </trkpt>
      <trkpt lat="44.47526" lon="2.40502">
        <ele>334.8</ele>
        <time>2011-06-04T08:37:14Z</time>
      </trkpt>
      <trkpt lat="44.47512" lon="2.40522">
        <ele>333.5</ele>
        <time>2011-06-04T08:37:22Z</time>
      </trkpt>
      <trkpt lat="44.47508" lon="2.40527">
        <ele>333.2</ele>
        <time>2011-06-04T08:37:24Z</time>
      </trkpt>
      <trkpt lat="44.47494" lon="2.4055">
        <ele>332.4</ele>
        <time>2011-06-04T08:37:31Z</time>
      </trkpt>
      <trkpt lat="44.47483" lon="2.40566">
        <ele>331.7</ele>
        <time>2011-06-04T08:37:36Z</time>
      </trkpt>
      <trkpt lat="44.4747" lon="2.40587">
        <ele>330.1</ele>
        <time>2011-06-04T08:37:42Z</time>
      </trkpt>
      <trkpt lat="44.47456" lon="2.4061">
        <ele>328.4</ele>
        <time>2011-06-04T08:37:48Z</time>
      </trkpt>
      <trkpt lat="44.47442" lon="2.40634">
        <ele>326.2</ele>
        <time>2011-06-04T08:37:54Z</time>
      </trkpt>
      <trkpt lat="44.47434" lon="2.40645">
        <ele>325</ele>
        <time>2011-06-04T08:37:57Z</time>
      </trkpt>
      <trkpt lat="44.47425" lon="2.40661">
        <ele>323.2</ele>
        <time>2011-06-04T08:38:01Z</time>
      </trkpt>
      <trkpt lat="44.47412" lon="2.40681">
        <ele>321.9</ele>
        <time>2011-06-04T08:38:06Z</time>
      </trkpt>
      <trkpt lat="44.47394" lon="2.4071">
        <ele>322.8</ele>
        <time>2011-06-04T08:38:13Z</time>
      </trkpt>
      <trkpt lat="44.47375" lon="2.40739">
        <ele>324.2</ele>
        <time>2011-06-04T08:38:20Z</time>
      </trkpt>
      <trkpt lat="44.47366" lon="2.40752">
        <ele>325.1</ele>
        <time>2011-06-04T08:38:23Z</time>
      </trkpt>
      <trkpt lat="44.47346" lon="2.40784">
        <ele>328.3</ele>
        <time>2011-06-04T08:38:30Z</time>
      </trkpt>
      <trkpt lat="44.47337" lon="2.40797">
        <ele>329.7</ele>
        <time>2011-06-04T08:38:33Z</time>
      </trkpt>
      <trkpt lat="44.47317" lon="2.40829">
        <ele>332.3</ele>
        <time>2011-06-04T08:38:40Z</time>
      </trkpt>
      <trkpt lat="44.47311" lon="2.40838">
        <ele>332.8</ele>
        <time>2011-06-04T08:38:42Z</time>
      </trkpt>
      <trkpt lat="44.47293" lon="2.40866">
        <ele>334</ele>
        <time>2011-06-04T08:38:48Z</time>
      </trkpt>
      <trkpt lat="44.47272" lon="2.40898">
        <ele>335.7</ele>
        <time>2011-06-04T08:38:55Z</time>
      </trkpt>
      <trkpt lat="44.47261" lon="2.40917">
        <ele>336.8</ele>
        <time>2011-06-04T08:38:59Z</time>
      </trkpt>
      <trkpt lat="44.47245" lon="2.40941">
        <ele>337.1</ele>
        <time>2011-06-04T08:39:04Z</time>
      </trkpt>
      <trkpt lat="44.47224" lon="2.40974">
        <ele>336.3</ele>
        <time>2011-06-04T08:39:11Z</time>
      </trkpt>
      <trkpt lat="44.47212" lon="2.40993">
        <ele>336.4</ele>
        <time>2011-06-04T08:39:15Z</time>
      </trkpt>
      <trkpt lat="44.47209" lon="2.40997">
        <ele>336.5</ele>
        <time>2011-06-04T08:39:16Z</time>
      </trkpt>
      <trkpt lat="44.47193" lon="2.41022">
        <ele>336.9</ele>
        <time>2011-06-04T08:39:21Z</time>
      </trkpt>
      <trkpt lat="44.4719" lon="2.41027">
        <ele>337</ele>
        <time>2011-06-04T08:39:22Z</time>
      </trkpt>
      <trkpt lat="44.47171" lon="2.41056">
        <ele>337.8</ele>
        <time>2011-06-04T08:39:28Z</time>
      </trkpt>
      <trkpt lat="44.47155" lon="2.41079">
        <ele>337.7</ele>
        <time>2011-06-04T08:39:33Z</time>
      </trkpt>
      <trkpt lat="44.47152" lon="2.41083">
        <ele>337.6</ele>
        <time>2011-06-04T08:39:34Z</time>
      </trkpt>
      <trkpt lat="44.4713" lon="2.41115">
        <ele>337.7</ele>
        <time>2011-06-04T08:39:41Z</time>
      </trkpt>
      <trkpt lat="44.47111" lon="2.4114">
        <ele>337.8</ele>
        <time>2011-06-04T08:39:47Z</time>
      </trkpt>
      <trkpt lat="44.47095" lon="2.41164">
        <ele>338</ele>
        <time>2011-06-04T08:39:53Z</time>
      </trkpt>
      <trkpt lat="44.47089" lon="2.4117">
        <ele>338.2</ele>
        <time>2011-06-04T08:39:55Z</time>
      </trkpt>
      <trkpt lat="44.47079" lon="2.41184">
        <ele>338.7</ele>
        <time>2011-06-04T08:40:00Z</time>
      </trkpt>
      <trkpt lat="44.47075" lon="2.41184">
        <ele>338.6</ele>
        <time>2011-06-04T08:40:47Z</time>
      </trkpt>
      <trkpt lat="44.47072" lon="2.41178">
        <ele>338.2</ele>
        <time>2011-06-04T08:40:50Z</time>
      </trkpt>
      <trkpt lat="44.47071" lon="2.41164">
        <ele>337.6</ele>
        <time>2011-06-04T08:40:54Z</time>
      </trkpt>
      <trkpt lat="44.47071" lon="2.41155">
        <ele>337.4</ele>
        <time>2011-06-04T08:40:56Z</time>
      </trkpt>
      <trkpt lat="44.47071" lon="2.4115">
        <ele>337.4</ele>
        <time>2011-06-04T08:40:57Z</time>
      </trkpt>
      <trkpt lat="44.47067" lon="2.41121">
        <ele>336.7</ele>
        <time>2011-06-04T08:41:04Z</time>
      </trkpt>
      <trkpt lat="44.47066" lon="2.41104">
        <ele>336.4</ele>
        <time>2011-06-04T08:41:08Z</time>
      </trkpt>
      <trkpt lat="44.47064" lon="2.41096">
        <ele>336.2</ele>
        <time>2011-06-04T08:41:10Z</time>
      </trkpt>
      <trkpt lat="44.4706" lon="2.41091">
        <ele>336.1</ele>
        <time>2011-06-04T08:41:12Z</time>
      </trkpt>
      <trkpt lat="44.47043" lon="2.4109">
        <ele>336.1</ele>
        <time>2011-06-04T08:41:19Z</time>
      </trkpt>
      <trkpt lat="44.47034" lon="2.4109">
        <ele>336.1</ele>
        <time>2011-06-04T08:41:22Z</time>
      </trkpt>
      <trkpt lat="44.47028" lon="2.41093">
        <ele>336.1</ele>
        <time>2011-06-04T08:41:24Z</time>
      </trkpt>
      <trkpt lat="44.4702" lon="2.41104">
        <ele>336.1</ele>
        <time>2011-06-04T08:41:28Z</time>
      </trkpt>
      <trkpt lat="44.47017" lon="2.41111">
        <ele>336.1</ele>
        <time>2011-06-04T08:41:30Z</time>
      </trkpt>
      <trkpt lat="44.47011" lon="2.41116">
        <ele>336.1</ele>
        <time>2011-06-04T08:41:32Z</time>
      </trkpt>
      <trkpt lat="44.47004" lon="2.41114">
        <ele>336</ele>
        <time>2011-06-04T08:41:34Z</time>
      </trkpt>
      <trkpt lat="44.46986" lon="2.41101">
        <ele>336.4</ele>
        <time>2011-06-04T08:41:40Z</time>
      </trkpt>
      <trkpt lat="44.46974" lon="2.41098">
        <ele>336.8</ele>
        <time>2011-06-04T08:41:43Z</time>
      </trkpt>
      <trkpt lat="44.46967" lon="2.41103">
        <ele>337</ele>
        <time>2011-06-04T08:41:47Z</time>
      </trkpt>
      <trkpt lat="44.46966" lon="2.41106">
        <ele>337</ele>
        <time>2011-06-04T08:41:49Z</time>
      </trkpt>
      <trkpt lat="44.46964" lon="2.4112">
        <ele>336.9</ele>
        <time>2011-06-04T08:41:55Z</time>
      </trkpt>
      <trkpt lat="44.46962" lon="2.41115">
        <ele>337</ele>
        <time>2011-06-04T08:42:30Z</time>
      </trkpt>
      <trkpt lat="44.46967" lon="2.41114">
        <ele>336.9</ele>
        <time>2011-06-04T08:43:04Z</time>
      </trkpt>
      <trkpt lat="44.46964" lon="2.41106">
        <ele>337.1</ele>
        <time>2011-06-04T08:43:45Z</time>
      </trkpt>
      <trkpt lat="44.46966" lon="2.41111">
        <ele>337</ele>
        <time>2011-06-04T08:45:24Z</time>
      </trkpt>
      <trkpt lat="44.46966" lon="2.4111">
        <ele>337</ele>
        <time>2011-06-04T08:47:35Z</time>
      </trkpt>
      <trkpt lat="44.46962" lon="2.4111">
        <ele>337.1</ele>
        <time>2011-06-04T08:48:03Z</time>
      </trkpt>
      <trkpt lat="44.46964" lon="2.411">
        <ele>337.1</ele>
        <time>2011-06-04T08:48:10Z</time>
      </trkpt>
      <trkpt lat="44.46962" lon="2.4109">
        <ele>337.3</ele>
        <time>2011-06-04T08:48:15Z</time>
      </trkpt>
      <trkpt lat="44.46958" lon="2.41087">
        <ele>337.5</ele>
        <time>2011-06-04T08:48:17Z</time>
      </trkpt>
      <trkpt lat="44.46951" lon="2.41083">
        <ele>337.8</ele>
        <time>2011-06-04T08:48:19Z</time>
      </trkpt>
      <trkpt lat="44.46924" lon="2.41067">
        <ele>338.3</ele>
        <time>2011-06-04T08:48:25Z</time>
      </trkpt>
      <trkpt lat="44.46919" lon="2.41064">
        <ele>338.4</ele>
        <time>2011-06-04T08:48:26Z</time>
      </trkpt>
      <trkpt lat="44.46894" lon="2.41049">
        <ele>337.6</ele>
        <time>2011-06-04T08:48:32Z</time>
      </trkpt>
      <trkpt lat="44.46886" lon="2.41044">
        <ele>337.4</ele>
        <time>2011-06-04T08:48:34Z</time>
      </trkpt>
      <trkpt lat="44.46863" lon="2.41031">
        <ele>337.2</ele>
        <time>2011-06-04T08:48:40Z</time>
      </trkpt>
      <trkpt lat="44.46852" lon="2.41024">
        <ele>337.2</ele>
        <time>2011-06-04T08:48:43Z</time>
      </trkpt>
      <trkpt lat="44.46845" lon="2.4102">
        <ele>337.3</ele>
        <time>2011-06-04T08:48:45Z</time>
      </trkpt>
      <trkpt lat="44.46837" lon="2.41022">
        <ele>337.2</ele>
        <time>2011-06-04T08:48:47Z</time>
      </trkpt>
      <trkpt lat="44.46833" lon="2.41024">
        <ele>337.1</ele>
        <time>2011-06-04T08:48:48Z</time>
      </trkpt>
      <trkpt lat="44.46824" lon="2.41031">
        <ele>336.3</ele>
        <time>2011-06-04T08:48:50Z</time>
      </trkpt>
      <trkpt lat="44.46797" lon="2.41057">
        <ele>333.3</ele>
        <time>2011-06-04T08:48:56Z</time>
      </trkpt>
      <trkpt lat="44.4678" lon="2.41075">
        <ele>331.1</ele>
        <time>2011-06-04T08:49:00Z</time>
      </trkpt>
      <trkpt lat="44.46777" lon="2.41082">
        <ele>330.5</ele>
        <time>2011-06-04T08:49:02Z</time>
      </trkpt>
      <trkpt lat="44.46781" lon="2.4109">
        <ele>330.5</ele>
        <time>2011-06-04T08:49:04Z</time>
      </trkpt>
      <trkpt lat="44.46784" lon="2.41093">
        <ele>330.7</ele>
        <time>2011-06-04T08:49:05Z</time>
      </trkpt>
      <trkpt lat="44.46796" lon="2.411">
        <ele>331.6</ele>
        <time>2011-06-04T08:49:08Z</time>
      </trkpt>
      <trkpt lat="44.468" lon="2.41103">
        <ele>331.9</ele>
        <time>2011-06-04T08:49:09Z</time>
      </trkpt>
      <trkpt lat="44.46803" lon="2.41108">
        <ele>332</ele>
        <time>2011-06-04T08:49:10Z</time>
      </trkpt>
      <trkpt lat="44.46805" lon="2.41114">
        <ele>332</ele>
        <time>2011-06-04T08:49:11Z</time>
      </trkpt>
      <trkpt lat="44.46805" lon="2.41121">
        <ele>331.9</ele>
        <time>2011-06-04T08:49:12Z</time>
      </trkpt>
      <trkpt lat="44.46804" lon="2.41128">
        <ele>331.7</ele>
        <time>2011-06-04T08:49:13Z</time>
      </trkpt>
      <trkpt lat="44.46797" lon="2.41166">
        <ele>330.4</ele>
        <time>2011-06-04T08:49:18Z</time>
      </trkpt>
      <trkpt lat="44.46794" lon="2.41182">
        <ele>330.2</ele>
        <time>2011-06-04T08:49:20Z</time>
      </trkpt>
      <trkpt lat="44.46787" lon="2.41223">
        <ele>329.6</ele>
        <time>2011-06-04T08:49:25Z</time>
      </trkpt>
      <trkpt lat="44.4678" lon="2.41256">
        <ele>329.2</ele>
        <time>2011-06-04T08:49:29Z</time>
      </trkpt>
      <trkpt lat="44.46775" lon="2.41281">
        <ele>329.1</ele>
        <time>2011-06-04T08:49:32Z</time>
      </trkpt>
      <trkpt lat="44.46773" lon="2.41289">
        <ele>328.9</ele>
        <time>2011-06-04T08:49:33Z</time>
      </trkpt>
      <trkpt lat="44.46755" lon="2.41322">
        <ele>328.2</ele>
        <time>2011-06-04T08:49:38Z</time>
      </trkpt>
      <trkpt lat="44.46752" lon="2.41329">
        <ele>328.1</ele>
        <time>2011-06-04T08:49:39Z</time>
      </trkpt>
      <trkpt lat="44.4675" lon="2.41337">
        <ele>328.1</ele>
        <time>2011-06-04T08:49:40Z</time>
      </trkpt>
      <trkpt lat="44.46749" lon="2.41352">
        <ele>328.2</ele>
        <time>2011-06-04T08:49:42Z</time>
      </trkpt>
      <trkpt lat="44.46749" lon="2.41359">
        <ele>328.3</ele>
        <time>2011-06-04T08:49:43Z</time>
      </trkpt>
      <trkpt lat="44.46751" lon="2.41365">
        <ele>328.5</ele>
        <time>2011-06-04T08:49:44Z</time>
      </trkpt>
      <trkpt lat="44.46754" lon="2.41371">
        <ele>328.7</ele>
        <time>2011-06-04T08:49:45Z</time>
      </trkpt>
      <trkpt lat="44.4676" lon="2.41382">
        <ele>329.3</ele>
        <time>2011-06-04T08:49:47Z</time>
      </trkpt>
      <trkpt lat="44.46771" lon="2.41405">
        <ele>330.6</ele>
        <time>2011-06-04T08:49:52Z</time>
      </trkpt>
      <trkpt lat="44.46777" lon="2.41416">
        <ele>331.3</ele>
        <time>2011-06-04T08:49:56Z</time>
      </trkpt>
      <trkpt lat="44.4678" lon="2.4142">
        <ele>331.6</ele>
        <time>2011-06-04T08:49:59Z</time>
      </trkpt>
      <trkpt lat="44.46785" lon="2.41428">
        <ele>332.1</ele>
        <time>2011-06-04T08:50:12Z</time>
      </trkpt>
      <trkpt lat="44.46788" lon="2.41439">
        <ele>332.6</ele>
        <time>2011-06-04T08:50:15Z</time>
      </trkpt>
      <trkpt lat="44.46796" lon="2.41458">
        <ele>333.6</ele>
        <time>2011-06-04T08:50:21Z</time>
      </trkpt>
      <trkpt lat="44.46803" lon="2.41473">
        <ele>334.3</ele>
        <time>2011-06-04T08:50:26Z</time>
      </trkpt>
      <trkpt lat="44.4681" lon="2.41483">
        <ele>335.1</ele>
        <time>2011-06-04T08:50:30Z</time>
      </trkpt>
      <trkpt lat="44.46814" lon="2.41488">
        <ele>335.4</ele>
        <time>2011-06-04T08:50:32Z</time>
      </trkpt>
      <trkpt lat="44.46818" lon="2.41491">
        <ele>335.8</ele>
        <time>2011-06-04T08:50:34Z</time>
      </trkpt>
      <trkpt lat="44.46823" lon="2.41493">
        <ele>336.1</ele>
        <time>2011-06-04T08:50:36Z</time>
      </trkpt>
      <trkpt lat="44.46828" lon="2.41492">
        <ele>336.5</ele>
        <time>2011-06-04T08:50:38Z</time>
      </trkpt>
      <trkpt lat="44.46833" lon="2.41487">
        <ele>336.8</ele>
        <time>2011-06-04T08:50:40Z</time>
      </trkpt>
      <trkpt lat="44.46844" lon="2.41475">
        <ele>337.5</ele>
        <time>2011-06-04T08:50:45Z</time>
      </trkpt>
      <trkpt lat="44.46852" lon="2.41463">
        <ele>337.9</ele>
        <time>2011-06-04T08:50:49Z</time>
      </trkpt>
      <trkpt lat="44.46857" lon="2.41458">
        <ele>338.2</ele>
        <time>2011-06-04T08:50:51Z</time>
      </trkpt>
      <trkpt lat="44.46864" lon="2.4145">
        <ele>338.6</ele>
        <time>2011-06-04T08:50:54Z</time>
      </trkpt>
      <trkpt lat="44.46868" lon="2.41445">
        <ele>338.8</ele>
        <time>2011-06-04T08:50:56Z</time>
      </trkpt>
      <trkpt lat="44.46888" lon="2.41424">
        <ele>340</ele>
        <time>2011-06-04T08:51:04Z</time>
      </trkpt>
      <trkpt lat="44.46906" lon="2.41401">
        <ele>340.8</ele>
        <time>2011-06-04T08:51:11Z</time>
      </trkpt>
      <trkpt lat="44.46922" lon="2.41384">
        <ele>341.5</ele>
        <time>2011-06-04T08:51:16Z</time>
      </trkpt>
      <trkpt lat="44.46928" lon="2.41377">
        <ele>341.6</ele>
        <time>2011-06-04T08:51:18Z</time>
      </trkpt>
      <trkpt lat="44.4694" lon="2.41362">
        <ele>341.9</ele>
        <time>2011-06-04T08:51:22Z</time>
      </trkpt>
      <trkpt lat="44.46956" lon="2.41344">
        <ele>342.2</ele>
        <time>2011-06-04T08:51:27Z</time>
      </trkpt>
      <trkpt lat="44.46959" lon="2.4134">
        <ele>342.2</ele>
        <time>2011-06-04T08:51:28Z</time>
      </trkpt>
      <trkpt lat="44.46966" lon="2.41333">
        <ele>342.3</ele>
        <time>2011-06-04T08:51:30Z</time>
      </trkpt>
      <trkpt lat="44.46969" lon="2.41328">
        <ele>342.2</ele>
        <time>2011-06-04T08:51:31Z</time>
      </trkpt>
      <trkpt lat="44.46982" lon="2.41314">
        <ele>342.1</ele>
        <time>2011-06-04T08:51:35Z</time>
      </trkpt>
      <trkpt lat="44.46996" lon="2.41302">
        <ele>341.9</ele>
        <time>2011-06-04T08:51:39Z</time>
      </trkpt>
      <trkpt lat="44.47001" lon="2.41297">
        <ele>341.7</ele>
        <time>2011-06-04T08:51:41Z</time>
      </trkpt>
      <trkpt lat="44.47007" lon="2.41292">
        <ele>341.6</ele>
        <time>2011-06-04T08:51:43Z</time>
      </trkpt>
      <trkpt lat="44.47013" lon="2.41291">
        <ele>341.6</ele>
        <time>2011-06-04T08:51:45Z</time>
      </trkpt>
      <trkpt lat="44.47018" lon="2.41294">
        <ele>341.9</ele>
        <time>2011-06-04T08:51:47Z</time>
      </trkpt>
      <trkpt lat="44.47027" lon="2.41305">
        <ele>342.4</ele>
        <time>2011-06-04T08:51:51Z</time>
      </trkpt>
      <trkpt lat="44.47031" lon="2.41308">
        <ele>342.5</ele>
        <time>2011-06-04T08:51:53Z</time>
      </trkpt>
      <trkpt lat="44.47034" lon="2.4131">
        <ele>342.6</ele>
        <time>2011-06-04T08:51:54Z</time>
      </trkpt>
      <trkpt lat="44.4705" lon="2.41315">
        <ele>342.8</ele>
        <time>2011-06-04T08:52:00Z</time>
      </trkpt>
      <trkpt lat="44.47056" lon="2.41321">
        <ele>343</ele>
        <time>2011-06-04T08:52:02Z</time>
      </trkpt>
      <trkpt lat="44.47057" lon="2.41329">
        <ele>343.2</ele>
        <time>2011-06-04T08:52:04Z</time>
      </trkpt>
      <trkpt lat="44.47057" lon="2.41346">
        <ele>343.6</ele>
        <time>2011-06-04T08:52:08Z</time>
      </trkpt>
      <trkpt lat="44.47055" lon="2.41359">
        <ele>343.8</ele>
        <time>2011-06-04T08:52:11Z</time>
      </trkpt>
      <trkpt lat="44.47055" lon="2.4137">
        <ele>344.1</ele>
        <time>2011-06-04T08:52:14Z</time>
      </trkpt>
      <trkpt lat="44.47056" lon="2.41382">
        <ele>344.3</ele>
        <time>2011-06-04T08:52:18Z</time>
      </trkpt>
      <trkpt lat="44.47057" lon="2.41388">
        <ele>344.4</ele>
        <time>2011-06-04T08:52:20Z</time>
      </trkpt>
      <trkpt lat="44.47058" lon="2.41407">
        <ele>344.7</ele>
        <time>2011-06-04T08:52:26Z</time>
      </trkpt>
      <trkpt lat="44.47059" lon="2.41424">
        <ele>344.9</ele>
        <time>2011-06-04T08:52:31Z</time>
      </trkpt>
      <trkpt lat="44.47063" lon="2.41449">
        <ele>345.1</ele>
        <time>2011-06-04T08:52:39Z</time>
      </trkpt>
      <trkpt lat="44.47064" lon="2.41456">
        <ele>345.1</ele>
        <time>2011-06-04T08:52:41Z</time>
      </trkpt>
      <trkpt lat="44.47069" lon="2.41484">
        <ele>345.3</ele>
        <time>2011-06-04T08:52:49Z</time>
      </trkpt>
      <trkpt lat="44.47072" lon="2.41503">
        <ele>345.4</ele>
        <time>2011-06-04T08:52:54Z</time>
      </trkpt>
      <trkpt lat="44.47073" lon="2.41507">
        <ele>345.3</ele>
        <time>2011-06-04T08:52:55Z</time>
      </trkpt>
      <trkpt lat="44.47075" lon="2.41518">
        <ele>345.1</ele>
        <time>2011-06-04T08:52:58Z</time>
      </trkpt>
      <trkpt lat="44.47077" lon="2.41529">
        <ele>344.9</ele>
        <time>2011-06-04T08:53:01Z</time>
      </trkpt>
      <trkpt lat="44.47079" lon="2.41536">
        <ele>344.8</ele>
        <time>2011-06-04T08:53:03Z</time>
      </trkpt>
      <trkpt lat="44.47082" lon="2.41556">
        <ele>344.4</ele>
        <time>2011-06-04T08:53:08Z</time>
      </trkpt>
      <trkpt lat="44.47085" lon="2.4158">
        <ele>344</ele>
        <time>2011-06-04T08:53:14Z</time>
      </trkpt>
      <trkpt lat="44.47086" lon="2.41594">
        <ele>344.5</ele>
        <time>2011-06-04T08:53:18Z</time>
      </trkpt>
      <trkpt lat="44.47086" lon="2.41608">
        <ele>345.2</ele>
        <time>2011-06-04T08:53:22Z</time>
      </trkpt>
      <trkpt lat="44.47085" lon="2.41623">
        <ele>345.9</ele>
        <time>2011-06-04T08:53:26Z</time>
      </trkpt>
      <trkpt lat="44.47082" lon="2.41633">
        <ele>346.4</ele>
        <time>2011-06-04T08:53:29Z</time>
      </trkpt>
      <trkpt lat="44.47077" lon="2.41644">
        <ele>347</ele>
        <time>2011-06-04T08:53:32Z</time>
      </trkpt>
      <trkpt lat="44.47066" lon="2.41663">
        <ele>347.9</ele>
        <time>2011-06-04T08:53:38Z</time>
      </trkpt>
      <trkpt lat="44.47057" lon="2.4168">
        <ele>349.1</ele>
        <time>2011-06-04T08:53:43Z</time>
      </trkpt>
      <trkpt lat="44.47045" lon="2.41707">
        <ele>351.2</ele>
        <time>2011-06-04T08:53:51Z</time>
      </trkpt>
      <trkpt lat="44.47037" lon="2.41725">
        <ele>352.4</ele>
        <time>2011-06-04T08:53:56Z</time>
      </trkpt>
      <trkpt lat="44.47036" lon="2.41728">
        <ele>352.6</ele>
        <time>2011-06-04T08:53:57Z</time>
      </trkpt>
      <trkpt lat="44.47024" lon="2.41755">
        <ele>354.3</ele>
        <time>2011-06-04T08:54:05Z</time>
      </trkpt>
      <trkpt lat="44.47022" lon="2.41762">
        <ele>354.7</ele>
        <time>2011-06-04T08:54:07Z</time>
      </trkpt>
      <trkpt lat="44.47015" lon="2.41784">
        <ele>356</ele>
        <time>2011-06-04T08:54:14Z</time>
      </trkpt>
      <trkpt lat="44.47014" lon="2.4179">
        <ele>356.4</ele>
        <time>2011-06-04T08:54:16Z</time>
      </trkpt>
      <trkpt lat="44.47013" lon="2.41796">
        <ele>356.8</ele>
        <time>2011-06-04T08:54:18Z</time>
      </trkpt>
      <trkpt lat="44.47012" lon="2.4181">
        <ele>357.9</ele>
        <time>2011-06-04T08:54:22Z</time>
      </trkpt>
      <trkpt lat="44.47012" lon="2.41816">
        <ele>358.2</ele>
        <time>2011-06-04T08:54:24Z</time>
      </trkpt>
      <trkpt lat="44.47011" lon="2.41822">
        <ele>358.7</ele>
        <time>2011-06-04T08:54:26Z</time>
      </trkpt>
      <trkpt lat="44.47009" lon="2.41848">
        <ele>360.8</ele>
        <time>2011-06-04T08:54:34Z</time>
      </trkpt>
      <trkpt lat="44.47008" lon="2.41856">
        <ele>361.5</ele>
        <time>2011-06-04T08:54:36Z</time>
      </trkpt>
      <trkpt lat="44.47006" lon="2.41862">
        <ele>362</ele>
        <time>2011-06-04T08:54:38Z</time>
      </trkpt>
      <trkpt lat="44.47001" lon="2.41877">
        <ele>363.1</ele>
        <time>2011-06-04T08:54:42Z</time>
      </trkpt>
      <trkpt lat="44.46992" lon="2.41909">
        <ele>365.4</ele>
        <time>2011-06-04T08:54:51Z</time>
      </trkpt>
      <trkpt lat="44.46991" lon="2.41917">
        <ele>365.9</ele>
        <time>2011-06-04T08:54:53Z</time>
      </trkpt>
      <trkpt lat="44.46989" lon="2.4192">
        <ele>366</ele>
        <time>2011-06-04T08:54:54Z</time>
      </trkpt>
      <trkpt lat="44.46986" lon="2.41925">
        <ele>366.1</ele>
        <time>2011-06-04T08:54:56Z</time>
      </trkpt>
      <trkpt lat="44.4698" lon="2.41927">
        <ele>365.6</ele>
        <time>2011-06-04T08:54:58Z</time>
      </trkpt>
      <trkpt lat="44.46969" lon="2.41929">
        <ele>364.6</ele>
        <time>2011-06-04T08:55:01Z</time>
      </trkpt>
      <trkpt lat="44.4696" lon="2.41932">
        <ele>363.9</ele>
        <time>2011-06-04T08:55:03Z</time>
      </trkpt>
      <trkpt lat="44.4695" lon="2.41934">
        <ele>363</ele>
        <time>2011-06-04T08:55:05Z</time>
      </trkpt>
      <trkpt lat="44.46937" lon="2.41934">
        <ele>361.6</ele>
        <time>2011-06-04T08:55:08Z</time>
      </trkpt>
      <trkpt lat="44.46934" lon="2.41934">
        <ele>361.2</ele>
        <time>2011-06-04T08:55:09Z</time>
      </trkpt>
      <trkpt lat="44.46928" lon="2.41934">
        <ele>360.6</ele>
        <time>2011-06-04T08:55:10Z</time>
      </trkpt>
      <trkpt lat="44.46922" lon="2.41935">
        <ele>360</ele>
        <time>2011-06-04T08:55:11Z</time>
      </trkpt>
      <trkpt lat="44.46911" lon="2.4194">
        <ele>359.2</ele>
        <time>2011-06-04T08:55:13Z</time>
      </trkpt>
      <trkpt lat="44.46879" lon="2.41946">
        <ele>355.9</ele>
        <time>2011-06-04T08:55:18Z</time>
      </trkpt>
      <trkpt lat="44.46848" lon="2.41956">
        <ele>352.7</ele>
        <time>2011-06-04T08:55:23Z</time>
      </trkpt>
      <trkpt lat="44.46835" lon="2.41959">
        <ele>351.3</ele>
        <time>2011-06-04T08:55:25Z</time>
      </trkpt>
      <trkpt lat="44.46823" lon="2.41959">
        <ele>349.8</ele>
        <time>2011-06-04T08:55:27Z</time>
      </trkpt>
      <trkpt lat="44.46804" lon="2.41956">
        <ele>347.4</ele>
        <time>2011-06-04T08:55:30Z</time>
      </trkpt>
      <trkpt lat="44.46797" lon="2.41957">
        <ele>346.8</ele>
        <time>2011-06-04T08:55:31Z</time>
      </trkpt>
      <trkpt lat="44.46791" lon="2.41959">
        <ele>346.1</ele>
        <time>2011-06-04T08:55:32Z</time>
      </trkpt>
      <trkpt lat="44.46755" lon="2.41982">
        <ele>344.1</ele>
        <time>2011-06-04T08:55:37Z</time>
      </trkpt>
      <trkpt lat="44.46739" lon="2.41991">
        <ele>343</ele>
        <time>2011-06-04T08:55:39Z</time>
      </trkpt>
      <trkpt lat="44.46722" lon="2.42003">
        <ele>341.7</ele>
        <time>2011-06-04T08:55:41Z</time>
      </trkpt>
      <trkpt lat="44.46697" lon="2.42017">
        <ele>338.5</ele>
        <time>2011-06-04T08:55:44Z</time>
      </trkpt>
      <trkpt lat="44.46687" lon="2.4202">
        <ele>337.1</ele>
        <time>2011-06-04T08:55:45Z</time>
      </trkpt>
      <trkpt lat="44.46667" lon="2.42023">
        <ele>334.3</ele>
        <time>2011-06-04T08:55:47Z</time>
      </trkpt>
      <trkpt lat="44.46658" lon="2.42027">
        <ele>333.1</ele>
        <time>2011-06-04T08:55:48Z</time>
      </trkpt>
      <trkpt lat="44.4665" lon="2.42033">
        <ele>332</ele>
        <time>2011-06-04T08:55:49Z</time>
      </trkpt>
      <trkpt lat="44.46624" lon="2.42056">
        <ele>328.9</ele>
        <time>2011-06-04T08:55:52Z</time>
      </trkpt>
      <trkpt lat="44.46563" lon="2.42103">
        <ele>323.6</ele>
        <time>2011-06-04T08:55:59Z</time>
      </trkpt>
      <trkpt lat="44.46521" lon="2.42137">
        <ele>321</ele>
        <time>2011-06-04T08:56:04Z</time>
      </trkpt>
      <trkpt lat="44.46495" lon="2.42154">
        <ele>319.4</ele>
        <time>2011-06-04T08:56:07Z</time>
      </trkpt>
      <trkpt lat="44.46462" lon="2.42181">
        <ele>316.8</ele>
        <time>2011-06-04T08:56:11Z</time>
      </trkpt>
      <trkpt lat="44.46441" lon="2.42204">
        <ele>314.9</ele>
        <time>2011-06-04T08:56:14Z</time>
      </trkpt>
      <trkpt lat="44.46433" lon="2.4221">
        <ele>314.1</ele>
        <time>2011-06-04T08:56:15Z</time>
      </trkpt>
      <trkpt lat="44.46425" lon="2.42213">
        <ele>313.2</ele>
        <time>2011-06-04T08:56:16Z</time>
      </trkpt>
      <trkpt lat="44.46416" lon="2.42213">
        <ele>312.4</ele>
        <time>2011-06-04T08:56:17Z</time>
      </trkpt>
      <trkpt lat="44.46378" lon="2.42205">
        <ele>310.2</ele>
        <time>2011-06-04T08:56:21Z</time>
      </trkpt>
      <trkpt lat="44.46351" lon="2.42196">
        <ele>309</ele>
        <time>2011-06-04T08:56:24Z</time>
      </trkpt>
      <trkpt lat="44.46329" lon="2.42183">
        <ele>308.1</ele>
        <time>2011-06-04T08:56:27Z</time>
      </trkpt>
      <trkpt lat="44.46306" lon="2.42171">
        <ele>306.9</ele>
        <time>2011-06-04T08:56:32Z</time>
      </trkpt>
      <trkpt lat="44.46302" lon="2.42168">
        <ele>306.7</ele>
        <time>2011-06-04T08:56:33Z</time>
      </trkpt>
      <trkpt lat="44.46293" lon="2.42163">
        <ele>306</ele>
        <time>2011-06-04T08:56:35Z</time>
      </trkpt>
      <trkpt lat="44.46278" lon="2.42156">
        <ele>304.9</ele>
        <time>2011-06-04T08:56:38Z</time>
      </trkpt>
      <trkpt lat="44.46249" lon="2.4215">
        <ele>303</ele>
        <time>2011-06-04T08:56:44Z</time>
      </trkpt>
      <trkpt lat="44.46237" lon="2.42145">
        <ele>302.9</ele>
        <time>2011-06-04T08:56:47Z</time>
      </trkpt>
      <trkpt lat="44.46219" lon="2.42135">
        <ele>302.9</ele>
        <time>2011-06-04T08:56:53Z</time>
      </trkpt>
      <trkpt lat="44.46212" lon="2.42132">
        <ele>302.9</ele>
        <time>2011-06-04T08:56:55Z</time>
      </trkpt>
      <trkpt lat="44.46204" lon="2.42135">
        <ele>302.9</ele>
        <time>2011-06-04T08:56:57Z</time>
      </trkpt>
      <trkpt lat="44.46197" lon="2.42141">
        <ele>302.8</ele>
        <time>2011-06-04T08:56:59Z</time>
      </trkpt>
      <trkpt lat="44.46177" lon="2.4216">
        <ele>302.3</ele>
        <time>2011-06-04T08:57:04Z</time>
      </trkpt>
      <trkpt lat="44.46171" lon="2.42169">
        <ele>302</ele>
        <time>2011-06-04T08:57:06Z</time>
      </trkpt>
      <trkpt lat="44.46155" lon="2.42198">
        <ele>301.6</ele>
        <time>2011-06-04T08:57:11Z</time>
      </trkpt>
      <trkpt lat="44.46147" lon="2.42209">
        <ele>301.4</ele>
        <time>2011-06-04T08:57:13Z</time>
      </trkpt>
      <trkpt lat="44.46139" lon="2.42218">
        <ele>301.2</ele>
        <time>2011-06-04T08:57:15Z</time>
      </trkpt>
      <trkpt lat="44.46122" lon="2.4224">
        <ele>300.7</ele>
        <time>2011-06-04T08:57:21Z</time>
      </trkpt>
      <trkpt lat="44.46111" lon="2.42256">
        <ele>300.2</ele>
        <time>2011-06-04T08:57:25Z</time>
      </trkpt>
      <trkpt lat="44.46105" lon="2.42265">
        <ele>300</ele>
        <time>2011-06-04T08:57:27Z</time>
      </trkpt>
      <trkpt lat="44.46092" lon="2.42277">
        <ele>299.7</ele>
        <time>2011-06-04T08:57:31Z</time>
      </trkpt>
      <trkpt lat="44.46083" lon="2.42289">
        <ele>299.5</ele>
        <time>2011-06-04T08:57:34Z</time>
      </trkpt>
      <trkpt lat="44.46076" lon="2.42303">
        <ele>299.6</ele>
        <time>2011-06-04T08:57:39Z</time>
      </trkpt>
      <trkpt lat="44.46068" lon="2.42316">
        <ele>299.8</ele>
        <time>2011-06-04T08:57:45Z</time>
      </trkpt>
      <trkpt lat="44.46056" lon="2.42331">
        <ele>300.3</ele>
        <time>2011-06-04T08:57:52Z</time>
      </trkpt>
      <trkpt lat="44.46051" lon="2.42337">
        <ele>300.6</ele>
        <time>2011-06-04T08:57:57Z</time>
      </trkpt>
      <trkpt lat="44.46047" lon="2.42337">
        <ele>300.8</ele>
        <time>2011-06-04T08:58:00Z</time>
      </trkpt>
      <trkpt lat="44.46039" lon="2.42336">
        <ele>301.1</ele>
        <time>2011-06-04T08:58:04Z</time>
      </trkpt>
      <trkpt lat="44.46035" lon="2.42338">
        <ele>301.3</ele>
        <time>2011-06-04T08:58:06Z</time>
      </trkpt>
      <trkpt lat="44.46026" lon="2.42345">
        <ele>301.8</ele>
        <time>2011-06-04T08:58:10Z</time>
      </trkpt>
      <trkpt lat="44.46023" lon="2.4235">
        <ele>302</ele>
        <time>2011-06-04T08:58:12Z</time>
      </trkpt>
      <trkpt lat="44.46019" lon="2.42355">
        <ele>302.2</ele>
        <time>2011-06-04T08:58:14Z</time>
      </trkpt>
      <trkpt lat="44.46013" lon="2.42364">
        <ele>302.4</ele>
        <time>2011-06-04T08:58:17Z</time>
      </trkpt>
      <trkpt lat="44.46009" lon="2.4237">
        <ele>302.6</ele>
        <time>2011-06-04T08:58:19Z</time>
      </trkpt>
      <trkpt lat="44.46003" lon="2.42383">
        <ele>302.9</ele>
        <time>2011-06-04T08:58:23Z</time>
      </trkpt>
      <trkpt lat="44.45994" lon="2.42398">
        <ele>302.8</ele>
        <time>2011-06-04T08:58:28Z</time>
      </trkpt>
      <trkpt lat="44.45984" lon="2.42412">
        <ele>302.4</ele>
        <time>2011-06-04T08:58:33Z</time>
      </trkpt>
      <trkpt lat="44.45967" lon="2.42428">
        <ele>301.6</ele>
        <time>2011-06-04T08:58:40Z</time>
      </trkpt>
      <trkpt lat="44.4596" lon="2.42434">
        <ele>301.2</ele>
        <time>2011-06-04T08:58:43Z</time>
      </trkpt>
      <trkpt lat="44.45941" lon="2.42449">
        <ele>300.7</ele>
        <time>2011-06-04T08:58:51Z</time>
      </trkpt>
      <trkpt lat="44.45926" lon="2.42463">
        <ele>300.6</ele>
        <time>2011-06-04T08:58:58Z</time>
      </trkpt>
      <trkpt lat="44.45914" lon="2.42473">
        <ele>300.8</ele>
        <time>2011-06-04T08:59:03Z</time>
      </trkpt>
      <trkpt lat="44.45894" lon="2.42485">
        <ele>301.8</ele>
        <time>2011-06-04T08:59:09Z</time>
      </trkpt>
      <trkpt lat="44.45891" lon="2.42487">
        <ele>302</ele>
        <time>2011-06-04T08:59:10Z</time>
      </trkpt>
      <trkpt lat="44.4588" lon="2.42496">
        <ele>302.6</ele>
        <time>2011-06-04T08:59:14Z</time>
      </trkpt>
      <trkpt lat="44.45875" lon="2.425">
        <ele>303</ele>
        <time>2011-06-04T08:59:16Z</time>
      </trkpt>
      <trkpt lat="44.45861" lon="2.42516">
        <ele>304.2</ele>
        <time>2011-06-04T08:59:23Z</time>
      </trkpt>
      <trkpt lat="44.45857" lon="2.42521">
        <ele>304.5</ele>
        <time>2011-06-04T08:59:25Z</time>
      </trkpt>
      <trkpt lat="44.45851" lon="2.42526">
        <ele>305</ele>
        <time>2011-06-04T08:59:28Z</time>
      </trkpt>
      <trkpt lat="44.45844" lon="2.42531">
        <ele>305.6</ele>
        <time>2011-06-04T08:59:31Z</time>
      </trkpt>
      <trkpt lat="44.45821" lon="2.42546">
        <ele>306.9</ele>
        <time>2011-06-04T08:59:41Z</time>
      </trkpt>
      <trkpt lat="44.45816" lon="2.42548">
        <ele>307.2</ele>
        <time>2011-06-04T08:59:43Z</time>
      </trkpt>
      <trkpt lat="44.45799" lon="2.42561">
        <ele>308</ele>
        <time>2011-06-04T08:59:50Z</time>
      </trkpt>
      <trkpt lat="44.45788" lon="2.42572">
        <ele>308.7</ele>
        <time>2011-06-04T08:59:55Z</time>
      </trkpt>
      <trkpt lat="44.45778" lon="2.42585">
        <ele>309.3</ele>
        <time>2011-06-04T09:00:00Z</time>
      </trkpt>
      <trkpt lat="44.45773" lon="2.4259">
        <ele>309.5</ele>
        <time>2011-06-04T09:00:02Z</time>
      </trkpt>
      <trkpt lat="44.45761" lon="2.42605">
        <ele>310</ele>
        <time>2011-06-04T09:00:08Z</time>
      </trkpt>
      <trkpt lat="44.45755" lon="2.42613">
        <ele>310.2</ele>
        <time>2011-06-04T09:00:11Z</time>
      </trkpt>
      <trkpt lat="44.45753" lon="2.42619">
        <ele>310.3</ele>
        <time>2011-06-04T09:00:13Z</time>
      </trkpt>
      <trkpt lat="44.45754" lon="2.42625">
        <ele>310.4</ele>
        <time>2011-06-04T09:00:15Z</time>
      </trkpt>
      <trkpt lat="44.45757" lon="2.4263">
        <ele>310.3</ele>
        <time>2011-06-04T09:00:17Z</time>
      </trkpt>
      <trkpt lat="44.45765" lon="2.42634">
        <ele>310.1</ele>
        <time>2011-06-04T09:00:20Z</time>
      </trkpt>
      <trkpt lat="44.45781" lon="2.42639">
        <ele>309.7</ele>
        <time>2011-06-04T09:00:25Z</time>
      </trkpt>
      <trkpt lat="44.45787" lon="2.4264">
        <ele>309.5</ele>
        <time>2011-06-04T09:00:27Z</time>
      </trkpt>
      <trkpt lat="44.45808" lon="2.42645">
        <ele>308.8</ele>
        <time>2011-06-04T09:00:33Z</time>
      </trkpt>
      <trkpt lat="44.45826" lon="2.42653">
        <ele>308.2</ele>
        <time>2011-06-04T09:00:38Z</time>
      </trkpt>
      <trkpt lat="44.45844" lon="2.42664">
        <ele>307.7</ele>
        <time>2011-06-04T09:00:43Z</time>
      </trkpt>
      <trkpt lat="44.45852" lon="2.42669">
        <ele>307.6</ele>
        <time>2011-06-04T09:00:45Z</time>
      </trkpt>
      <trkpt lat="44.45875" lon="2.42681">
        <ele>308</ele>
        <time>2011-06-04T09:00:50Z</time>
      </trkpt>
      <trkpt lat="44.4589" lon="2.42688">
        <ele>308</ele>
        <time>2011-06-04T09:00:53Z</time>
      </trkpt>
      <trkpt lat="44.45934" lon="2.42705">
        <ele>306.9</ele>
        <time>2011-06-04T09:01:01Z</time>
      </trkpt>
      <trkpt lat="44.45946" lon="2.4271">
        <ele>306.3</ele>
        <time>2011-06-04T09:01:03Z</time>
      </trkpt>
      <trkpt lat="44.45951" lon="2.42714">
        <ele>306.1</ele>
        <time>2011-06-04T09:01:04Z</time>
      </trkpt>
      <trkpt lat="44.45961" lon="2.42724">
        <ele>306</ele>
        <time>2011-06-04T09:01:06Z</time>
      </trkpt>
      <trkpt lat="44.45968" lon="2.42734">
        <ele>306.2</ele>
        <time>2011-06-04T09:01:08Z</time>
      </trkpt>
      <trkpt lat="44.45973" lon="2.42744">
        <ele>306.5</ele>
        <time>2011-06-04T09:01:10Z</time>
      </trkpt>
      <trkpt lat="44.45985" lon="2.42761">
        <ele>306.4</ele>
        <time>2011-06-04T09:01:14Z</time>
      </trkpt>
      <trkpt lat="44.45997" lon="2.4278">
        <ele>305.9</ele>
        <time>2011-06-04T09:01:18Z</time>
      </trkpt>
      <trkpt lat="44.46004" lon="2.42789">
        <ele>305.6</ele>
        <time>2011-06-04T09:01:20Z</time>
      </trkpt>
      <trkpt lat="44.46015" lon="2.42804">
        <ele>305.2</ele>
        <time>2011-06-04T09:01:23Z</time>
      </trkpt>
      <trkpt lat="44.46034" lon="2.42834">
        <ele>304.5</ele>
        <time>2011-06-04T09:01:29Z</time>
      </trkpt>
      <trkpt lat="44.46043" lon="2.4285">
        <ele>304.4</ele>
        <time>2011-06-04T09:01:32Z</time>
      </trkpt>
      <trkpt lat="44.4606" lon="2.42887">
        <ele>304.1</ele>
        <time>2011-06-04T09:01:39Z</time>
      </trkpt>
      <trkpt lat="44.46063" lon="2.42892">
        <ele>304.1</ele>
        <time>2011-06-04T09:01:40Z</time>
      </trkpt>
      <trkpt lat="44.46075" lon="2.42907">
        <ele>303.4</ele>
        <time>2011-06-04T09:01:44Z</time>
      </trkpt>
      <trkpt lat="44.46093" lon="2.42927">
        <ele>302.8</ele>
        <time>2011-06-04T09:01:50Z</time>
      </trkpt>
      <trkpt lat="44.46101" lon="2.42939">
        <ele>302.7</ele>
        <time>2011-06-04T09:01:53Z</time>
      </trkpt>
      <trkpt lat="44.46107" lon="2.42951">
        <ele>302.9</ele>
        <time>2011-06-04T09:01:56Z</time>
      </trkpt>
      <trkpt lat="44.46111" lon="2.42958">
        <ele>302.9</ele>
        <time>2011-06-04T09:01:58Z</time>
      </trkpt>
      <trkpt lat="44.46116" lon="2.42964">
        <ele>302.9</ele>
        <time>2011-06-04T09:02:00Z</time>
      </trkpt>
      <trkpt lat="44.4612" lon="2.42972">
        <ele>303.1</ele>
        <time>2011-06-04T09:02:02Z</time>
      </trkpt>
      <trkpt lat="44.46128" lon="2.42999">
        <ele>303.8</ele>
        <time>2011-06-04T09:02:08Z</time>
      </trkpt>
      <trkpt lat="44.4613" lon="2.43008">
        <ele>304.2</ele>
        <time>2011-06-04T09:02:10Z</time>
      </trkpt>
      <trkpt lat="44.46136" lon="2.43033">
        <ele>305.1</ele>
        <time>2011-06-04T09:02:15Z</time>
      </trkpt>
      <trkpt lat="44.46141" lon="2.43063">
        <ele>306.2</ele>
        <time>2011-06-04T09:02:21Z</time>
      </trkpt>
      <trkpt lat="44.46142" lon="2.43068">
        <ele>306.3</ele>
        <time>2011-06-04T09:02:22Z</time>
      </trkpt>
      <trkpt lat="44.46144" lon="2.43077">
        <ele>306.6</ele>
        <time>2011-06-04T09:02:24Z</time>
      </trkpt>
      <trkpt lat="44.46147" lon="2.43087">
        <ele>306.8</ele>
        <time>2011-06-04T09:02:26Z</time>
      </trkpt>
      <trkpt lat="44.46151" lon="2.43095">
        <ele>307.1</ele>
        <time>2011-06-04T09:02:28Z</time>
      </trkpt>
      <trkpt lat="44.46155" lon="2.43101">
        <ele>307.1</ele>
        <time>2011-06-04T09:02:30Z</time>
      </trkpt>
      <trkpt lat="44.46159" lon="2.43107">
        <ele>307</ele>
        <time>2011-06-04T09:02:32Z</time>
      </trkpt>
      <trkpt lat="44.46162" lon="2.4311">
        <ele>306.9</ele>
        <time>2011-06-04T09:02:33Z</time>
      </trkpt>
      <trkpt lat="44.46175" lon="2.43121">
        <ele>305.8</ele>
        <time>2011-06-04T09:02:38Z</time>
      </trkpt>
      <trkpt lat="44.4618" lon="2.43126">
        <ele>305.4</ele>
        <time>2011-06-04T09:02:40Z</time>
      </trkpt>
      <trkpt lat="44.46184" lon="2.43131">
        <ele>305.1</ele>
        <time>2011-06-04T09:02:42Z</time>
      </trkpt>
      <trkpt lat="44.46188" lon="2.43138">
        <ele>304.9</ele>
        <time>2011-06-04T09:02:44Z</time>
      </trkpt>
      <trkpt lat="44.46191" lon="2.43144">
        <ele>304.8</ele>
        <time>2011-06-04T09:02:46Z</time>
      </trkpt>
      <trkpt lat="44.46193" lon="2.4315">
        <ele>304.6</ele>
        <time>2011-06-04T09:02:48Z</time>
      </trkpt>
      <trkpt lat="44.46195" lon="2.43159">
        <ele>304.7</ele>
        <time>2011-06-04T09:02:51Z</time>
      </trkpt>
      <trkpt lat="44.46196" lon="2.43165">
        <ele>304.8</ele>
        <time>2011-06-04T09:02:53Z</time>
      </trkpt>
      <trkpt lat="44.46198" lon="2.43172">
        <ele>304.9</ele>
        <time>2011-06-04T09:02:55Z</time>
      </trkpt>
      <trkpt lat="44.46201" lon="2.43188">
        <ele>306</ele>
        <time>2011-06-04T09:03:00Z</time>
      </trkpt>
      <trkpt lat="44.46205" lon="2.43198">
        <ele>306.3</ele>
        <time>2011-06-04T09:03:04Z</time>
      </trkpt>
      <trkpt lat="44.46221" lon="2.43235">
        <ele>306.9</ele>
        <time>2011-06-04T09:03:18Z</time>
      </trkpt>
      <trkpt lat="44.46223" lon="2.4324">
        <ele>307</ele>
        <time>2011-06-04T09:03:20Z</time>
      </trkpt>
      <trkpt lat="44.46228" lon="2.43258">
        <ele>308.7</ele>
        <time>2011-06-04T09:03:28Z</time>
      </trkpt>
      <trkpt lat="44.4623" lon="2.43267">
        <ele>310.2</ele>
        <time>2011-06-04T09:03:33Z</time>
      </trkpt>
      <trkpt lat="44.46238" lon="2.43293">
        <ele>313.8</ele>
        <time>2011-06-04T09:03:48Z</time>
      </trkpt>
      <trkpt lat="44.46239" lon="2.43299">
        <ele>314.6</ele>
        <time>2011-06-04T09:03:51Z</time>
      </trkpt>
      <trkpt lat="44.46248" lon="2.43325">
        <ele>317.8</ele>
        <time>2011-06-04T09:04:06Z</time>
      </trkpt>
      <trkpt lat="44.46248" lon="2.43331">
        <ele>319</ele>
        <time>2011-06-04T09:04:09Z</time>
      </trkpt>
      <trkpt lat="44.46249" lon="2.43347">
        <ele>321.3</ele>
        <time>2011-06-04T09:04:18Z</time>
      </trkpt>
      <trkpt lat="44.46251" lon="2.43369">
        <ele>324.8</ele>
        <time>2011-06-04T09:04:32Z</time>
      </trkpt>
      <trkpt lat="44.46251" lon="2.43375">
        <ele>325.6</ele>
        <time>2011-06-04T09:04:36Z</time>
      </trkpt>
      <trkpt lat="44.46253" lon="2.43385">
        <ele>327.1</ele>
        <time>2011-06-04T09:04:43Z</time>
      </trkpt>
      <trkpt lat="44.46253" lon="2.43391">
        <ele>327.9</ele>
        <time>2011-06-04T09:04:47Z</time>
      </trkpt>
      <trkpt lat="44.46256" lon="2.43408">
        <ele>329.7</ele>
        <time>2011-06-04T09:04:56Z</time>
      </trkpt>
      <trkpt lat="44.46262" lon="2.43424">
        <ele>330.5</ele>
        <time>2011-06-04T09:05:05Z</time>
      </trkpt>
      <trkpt lat="44.46267" lon="2.43439">
        <ele>331.5</ele>
        <time>2011-06-04T09:05:13Z</time>
      </trkpt>
      <trkpt lat="44.46269" lon="2.43444">
        <ele>331.6</ele>
        <time>2011-06-04T09:05:16Z</time>
      </trkpt>
      <trkpt lat="44.46272" lon="2.43449">
        <ele>331.4</ele>
        <time>2011-06-04T09:05:19Z</time>
      </trkpt>
      <trkpt lat="44.46285" lon="2.43469">
        <ele>330.2</ele>
        <time>2011-06-04T09:05:31Z</time>
      </trkpt>
      <trkpt lat="44.46287" lon="2.43473">
        <ele>329.9</ele>
        <time>2011-06-04T09:05:33Z</time>
      </trkpt>
      <trkpt lat="44.46304" lon="2.43508">
        <ele>328.6</ele>
        <time>2011-06-04T09:05:49Z</time>
      </trkpt>
      <trkpt lat="44.46306" lon="2.43512">
        <ele>328.1</ele>
        <time>2011-06-04T09:05:51Z</time>
      </trkpt>
      <trkpt lat="44.46313" lon="2.43529">
        <ele>328.3</ele>
        <time>2011-06-04T09:05:59Z</time>
      </trkpt>
      <trkpt lat="44.46318" lon="2.43552">
        <ele>329.7</ele>
        <time>2011-06-04T09:06:09Z</time>
      </trkpt>
      <trkpt lat="44.46321" lon="2.43566">
        <ele>331</ele>
        <time>2011-06-04T09:06:16Z</time>
      </trkpt>
      <trkpt lat="44.46324" lon="2.43593">
        <ele>334.3</ele>
        <time>2011-06-04T09:06:28Z</time>
      </trkpt>
      <trkpt lat="44.46325" lon="2.43598">
        <ele>334.7</ele>
        <time>2011-06-04T09:06:30Z</time>
      </trkpt>
      <trkpt lat="44.46335" lon="2.43622">
        <ele>335</ele>
        <time>2011-06-04T09:06:42Z</time>
      </trkpt>
      <trkpt lat="44.46339" lon="2.43636">
        <ele>335.6</ele>
        <time>2011-06-04T09:06:48Z</time>
      </trkpt>
      <trkpt lat="44.4634" lon="2.43656">
        <ele>338.1</ele>
        <time>2011-06-04T09:06:56Z</time>
      </trkpt>
      <trkpt lat="44.46342" lon="2.43666">
        <ele>339.4</ele>
        <time>2011-06-04T09:07:00Z</time>
      </trkpt>
      <trkpt lat="44.46343" lon="2.4369">
        <ele>340</ele>
        <time>2011-06-04T09:07:10Z</time>
      </trkpt>
      <trkpt lat="44.46343" lon="2.43695">
        <ele>340.5</ele>
        <time>2011-06-04T09:07:12Z</time>
      </trkpt>
      <trkpt lat="44.46341" lon="2.43705">
        <ele>341.8</ele>
        <time>2011-06-04T09:07:16Z</time>
      </trkpt>
      <trkpt lat="44.46338" lon="2.43713">
        <ele>343.1</ele>
        <time>2011-06-04T09:07:20Z</time>
      </trkpt>
      <trkpt lat="44.46332" lon="2.43728">
        <ele>346.2</ele>
        <time>2011-06-04T09:07:28Z</time>
      </trkpt>
      <trkpt lat="44.46327" lon="2.43735">
        <ele>348.6</ele>
        <time>2011-06-04T09:07:34Z</time>
      </trkpt>
      <trkpt lat="44.46312" lon="2.43755">
        <ele>354.5</ele>
        <time>2011-06-04T09:07:49Z</time>
      </trkpt>
      <trkpt lat="44.46309" lon="2.43758">
        <ele>355.3</ele>
        <time>2011-06-04T09:07:52Z</time>
      </trkpt>
      <trkpt lat="44.46301" lon="2.43766">
        <ele>357.8</ele>
        <time>2011-06-04T09:07:59Z</time>
      </trkpt>
      <trkpt lat="44.46293" lon="2.43771">
        <ele>359.9</ele>
        <time>2011-06-04T09:08:05Z</time>
      </trkpt>
      <trkpt lat="44.46292" lon="2.43771">
        <ele>360.4</ele>
        <time>2011-06-04T09:08:06Z</time>
      </trkpt>
      <trkpt lat="44.46269" lon="2.43782">
        <ele>367.5</ele>
        <time>2011-06-04T09:08:23Z</time>
      </trkpt>
      <trkpt lat="44.46253" lon="2.4379">
        <ele>372</ele>
        <time>2011-06-04T09:08:34Z</time>
      </trkpt>
      <trkpt lat="44.46248" lon="2.43795">
        <ele>373</ele>
        <time>2011-06-04T09:08:38Z</time>
      </trkpt>
      <trkpt lat="44.46243" lon="2.438">
        <ele>373.1</ele>
        <time>2011-06-04T09:08:42Z</time>
      </trkpt>
      <trkpt lat="44.46238" lon="2.43807">
        <ele>373.1</ele>
        <time>2011-06-04T09:08:46Z</time>
      </trkpt>
      <trkpt lat="44.46231" lon="2.43821">
        <ele>372.9</ele>
        <time>2011-06-04T09:08:52Z</time>
      </trkpt>
      <trkpt lat="44.46223" lon="2.43839">
        <ele>372.2</ele>
        <time>2011-06-04T09:08:56Z</time>
      </trkpt>
      <trkpt lat="44.46212" lon="2.43879">
        <ele>369.1</ele>
        <time>2011-06-04T09:09:02Z</time>
      </trkpt>
      <trkpt lat="44.4621" lon="2.43886">
        <ele>368.5</ele>
        <time>2011-06-04T09:09:03Z</time>
      </trkpt>
      <trkpt lat="44.4621" lon="2.43893">
        <ele>367.7</ele>
        <time>2011-06-04T09:09:04Z</time>
      </trkpt>
      <trkpt lat="44.46215" lon="2.43897">
        <ele>366.5</ele>
        <time>2011-06-04T09:09:06Z</time>
      </trkpt>
      <trkpt lat="44.46218" lon="2.43895">
        <ele>366.3</ele>
        <time>2011-06-04T09:09:07Z</time>
      </trkpt>
      <trkpt lat="44.46226" lon="2.43877">
        <ele>367.3</ele>
        <time>2011-06-04T09:09:10Z</time>
      </trkpt>
      <trkpt lat="44.4624" lon="2.43853">
        <ele>368.2</ele>
        <time>2011-06-04T09:09:14Z</time>
      </trkpt>
      <trkpt lat="44.46243" lon="2.43849">
        <ele>368.1</ele>
        <time>2011-06-04T09:09:15Z</time>
      </trkpt>
      <trkpt lat="44.46247" lon="2.43853">
        <ele>367</ele>
        <time>2011-06-04T09:09:17Z</time>
      </trkpt>
      <trkpt lat="44.46243" lon="2.43869">
        <ele>365.8</ele>
        <time>2011-06-04T09:09:20Z</time>
      </trkpt>
      <trkpt lat="44.46243" lon="2.43875">
        <ele>365.2</ele>
        <time>2011-06-04T09:09:21Z</time>
      </trkpt>
      <trkpt lat="44.46243" lon="2.43884">
        <ele>363.9</ele>
        <time>2011-06-04T09:09:23Z</time>
      </trkpt>
      <trkpt lat="44.46244" lon="2.43894">
        <ele>362.7</ele>
        <time>2011-06-04T09:09:25Z</time>
      </trkpt>
      <trkpt lat="44.46245" lon="2.4391">
        <ele>360.7</ele>
        <time>2011-06-04T09:09:28Z</time>
      </trkpt>
      <trkpt lat="44.46243" lon="2.43921">
        <ele>359.4</ele>
        <time>2011-06-04T09:09:30Z</time>
      </trkpt>
      <trkpt lat="44.46241" lon="2.4393">
        <ele>358.6</ele>
        <time>2011-06-04T09:09:32Z</time>
      </trkpt>
      <trkpt lat="44.46236" lon="2.43945">
        <ele>357.5</ele>
        <time>2011-06-04T09:09:35Z</time>
      </trkpt>
      <trkpt lat="44.46233" lon="2.4395">
        <ele>357.2</ele>
        <time>2011-06-04T09:09:36Z</time>
      </trkpt>
      <trkpt lat="44.4623" lon="2.43957">
        <ele>356.7</ele>
        <time>2011-06-04T09:09:38Z</time>
      </trkpt>
      <trkpt lat="44.46226" lon="2.43962">
        <ele>356.6</ele>
        <time>2011-06-04T09:09:40Z</time>
      </trkpt>
      <trkpt lat="44.46164" lon="2.44021">
        <ele>362.2</ele>
        <time>2011-06-04T09:10:43Z</time>
      </trkpt>
      <trkpt lat="44.4616" lon="2.44036">
        <ele>363.5</ele>
        <time>2011-06-04T09:10:53Z</time>
      </trkpt>
      <trkpt lat="44.46159" lon="2.44027">
        <ele>363.4</ele>
        <time>2011-06-04T09:11:15Z</time>
      </trkpt>
      <trkpt lat="44.46164" lon="2.44012">
        <ele>361.8</ele>
        <time>2011-06-04T09:11:24Z</time>
      </trkpt>
      <trkpt lat="44.46171" lon="2.44004">
        <ele>360.4</ele>
        <time>2011-06-04T09:11:32Z</time>
      </trkpt>
      <trkpt lat="44.46172" lon="2.43999">
        <ele>360.2</ele>
        <time>2011-06-04T09:11:36Z</time>
      </trkpt>
      <trkpt lat="44.46169" lon="2.43995">
        <ele>361.3</ele>
        <time>2011-06-04T09:11:41Z</time>
      </trkpt>
      <trkpt lat="44.46165" lon="2.43992">
        <ele>362.4</ele>
        <time>2011-06-04T09:11:49Z</time>
      </trkpt>
      <trkpt lat="44.46158" lon="2.43997">
        <ele>363.8</ele>
        <time>2011-06-04T09:12:01Z</time>
      </trkpt>
      <trkpt lat="44.46151" lon="2.44004">
        <ele>365</ele>
        <time>2011-06-04T09:12:11Z</time>
      </trkpt>
      <trkpt lat="44.46144" lon="2.4401">
        <ele>366.8</ele>
        <time>2011-06-04T09:12:19Z</time>
      </trkpt>
      <trkpt lat="44.4614" lon="2.44011">
        <ele>367.8</ele>
        <time>2011-06-04T09:12:23Z</time>
      </trkpt>
      <trkpt lat="44.46136" lon="2.44009">
        <ele>368.8</ele>
        <time>2011-06-04T09:12:27Z</time>
      </trkpt>
      <trkpt lat="44.46124" lon="2.44007">
        <ele>371.7</ele>
        <time>2011-06-04T09:12:37Z</time>
      </trkpt>
      <trkpt lat="44.4612" lon="2.44004">
        <ele>372.7</ele>
        <time>2011-06-04T09:12:40Z</time>
      </trkpt>
      <trkpt lat="44.46112" lon="2.44">
        <ele>374.9</ele>
        <time>2011-06-04T09:12:53Z</time>
      </trkpt>
      <trkpt lat="44.46105" lon="2.43995">
        <ele>377.2</ele>
        <time>2011-06-04T09:13:07Z</time>
      </trkpt>
      <trkpt lat="44.46102" lon="2.43992">
        <ele>378.2</ele>
        <time>2011-06-04T09:13:10Z</time>
      </trkpt>
      <trkpt lat="44.46094" lon="2.43987">
        <ele>380.6</ele>
        <time>2011-06-04T09:13:28Z</time>
      </trkpt>
      <trkpt lat="44.46083" lon="2.43978">
        <ele>383.9</ele>
        <time>2011-06-04T09:13:45Z</time>
      </trkpt>
      <trkpt lat="44.46076" lon="2.43975">
        <ele>384.8</ele>
        <time>2011-06-04T09:13:57Z</time>
      </trkpt>
      <trkpt lat="44.46075" lon="2.43975">
        <ele>385</ele>
        <time>2011-06-04T09:13:58Z</time>
      </trkpt>
      <trkpt lat="44.46064" lon="2.43973">
        <ele>386.1</ele>
        <time>2011-06-04T09:14:08Z</time>
      </trkpt>
      <trkpt lat="44.46056" lon="2.43974">
        <ele>386.8</ele>
        <time>2011-06-04T09:14:14Z</time>
      </trkpt>
      <trkpt lat="44.46053" lon="2.43974">
        <ele>387</ele>
        <time>2011-06-04T09:14:17Z</time>
      </trkpt>
      <trkpt lat="44.46046" lon="2.43978">
        <ele>387.3</ele>
        <time>2011-06-04T09:14:23Z</time>
      </trkpt>
      <trkpt lat="44.46042" lon="2.43976">
        <ele>387.9</ele>
        <time>2011-06-04T09:14:30Z</time>
      </trkpt>
      <trkpt lat="44.46035" lon="2.43969">
        <ele>389</ele>
        <time>2011-06-04T09:14:39Z</time>
      </trkpt>
      <trkpt lat="44.46027" lon="2.43956">
        <ele>390.7</ele>
        <time>2011-06-04T09:14:54Z</time>
      </trkpt>
      <trkpt lat="44.46023" lon="2.43953">
        <ele>391.3</ele>
        <time>2011-06-04T09:15:05Z</time>
      </trkpt>
      <trkpt lat="44.46012" lon="2.43948">
        <ele>392.8</ele>
        <time>2011-06-04T09:15:14Z</time>
      </trkpt>
      <trkpt lat="44.46009" lon="2.43945">
        <ele>393.3</ele>
        <time>2011-06-04T09:15:17Z</time>
      </trkpt>
      <trkpt lat="44.46004" lon="2.4394">
        <ele>394.1</ele>
        <time>2011-06-04T09:15:21Z</time>
      </trkpt>
      <trkpt lat="44.45993" lon="2.43931">
        <ele>395.7</ele>
        <time>2011-06-04T09:15:30Z</time>
      </trkpt>
      <trkpt lat="44.45987" lon="2.43931">
        <ele>396.4</ele>
        <time>2011-06-04T09:15:34Z</time>
      </trkpt>
      <trkpt lat="44.45979" lon="2.43928">
        <ele>397.4</ele>
        <time>2011-06-04T09:15:41Z</time>
      </trkpt>
      <trkpt lat="44.45969" lon="2.43918">
        <ele>399</ele>
        <time>2011-06-04T09:16:01Z</time>
      </trkpt>
      <trkpt lat="44.45966" lon="2.43913">
        <ele>400.2</ele>
        <time>2011-06-04T09:16:13Z</time>
      </trkpt>
      <trkpt lat="44.45959" lon="2.43908">
        <ele>402</ele>
        <time>2011-06-04T09:16:25Z</time>
      </trkpt>
      <trkpt lat="44.45953" lon="2.43903">
        <ele>403.8</ele>
        <time>2011-06-04T09:16:43Z</time>
      </trkpt>
      <trkpt lat="44.45949" lon="2.43902">
        <ele>404.5</ele>
        <time>2011-06-04T09:16:46Z</time>
      </trkpt>
      <trkpt lat="44.45944" lon="2.43901">
        <ele>404.9</ele>
        <time>2011-06-04T09:16:50Z</time>
      </trkpt>
      <trkpt lat="44.45936" lon="2.43898">
        <ele>406.5</ele>
        <time>2011-06-04T09:17:00Z</time>
      </trkpt>
      <trkpt lat="44.45933" lon="2.43895">
        <ele>407.5</ele>
        <time>2011-06-04T09:17:04Z</time>
      </trkpt>
      <trkpt lat="44.45915" lon="2.43884">
        <ele>411.8</ele>
        <time>2011-06-04T09:17:21Z</time>
      </trkpt>
      <trkpt lat="44.45909" lon="2.43881">
        <ele>412.9</ele>
        <time>2011-06-04T09:17:27Z</time>
      </trkpt>
      <trkpt lat="44.45902" lon="2.43879">
        <ele>413.9</ele>
        <time>2011-06-04T09:17:33Z</time>
      </trkpt>
      <trkpt lat="44.45891" lon="2.43878">
        <ele>414.7</ele>
        <time>2011-06-04T09:17:43Z</time>
      </trkpt>
      <trkpt lat="44.45887" lon="2.43877">
        <ele>415.2</ele>
        <time>2011-06-04T09:17:46Z</time>
      </trkpt>
      <trkpt lat="44.45872" lon="2.43876">
        <ele>416.4</ele>
        <time>2011-06-04T09:17:58Z</time>
      </trkpt>
      <trkpt lat="44.45864" lon="2.43876">
        <ele>417</ele>
        <time>2011-06-04T09:18:05Z</time>
      </trkpt>
      <trkpt lat="44.45852" lon="2.43877">
        <ele>417.5</ele>
        <time>2011-06-04T09:18:16Z</time>
      </trkpt>
      <trkpt lat="44.45846" lon="2.43878">
        <ele>417.7</ele>
        <time>2011-06-04T09:18:21Z</time>
      </trkpt>
      <trkpt lat="44.45838" lon="2.43879">
        <ele>418</ele>
        <time>2011-06-04T09:18:27Z</time>
      </trkpt>
      <trkpt lat="44.45834" lon="2.43882">
        <ele>417.9</ele>
        <time>2011-06-04T09:18:30Z</time>
      </trkpt>
      <trkpt lat="44.45826" lon="2.43884">
        <ele>418.7</ele>
        <time>2011-06-04T09:18:36Z</time>
      </trkpt>
      <trkpt lat="44.45819" lon="2.43885">
        <ele>419.7</ele>
        <time>2011-06-04T09:18:43Z</time>
      </trkpt>
      <trkpt lat="44.45806" lon="2.43896">
        <ele>420.3</ele>
        <time>2011-06-04T09:18:57Z</time>
      </trkpt>
      <trkpt lat="44.458" lon="2.43904">
        <ele>420.6</ele>
        <time>2011-06-04T09:19:05Z</time>
      </trkpt>
      <trkpt lat="44.45788" lon="2.43913">
        <ele>422.1</ele>
        <time>2011-06-04T09:19:18Z</time>
      </trkpt>
      <trkpt lat="44.45774" lon="2.43922">
        <ele>425.4</ele>
        <time>2011-06-04T09:19:33Z</time>
      </trkpt>
      <trkpt lat="44.45771" lon="2.43927">
        <ele>426.7</ele>
        <time>2011-06-04T09:19:38Z</time>
      </trkpt>
      <trkpt lat="44.45767" lon="2.43929">
        <ele>427.9</ele>
        <time>2011-06-04T09:19:43Z</time>
      </trkpt>
      <trkpt lat="44.4576" lon="2.43936">
        <ele>430.8</ele>
        <time>2011-06-04T09:19:51Z</time>
      </trkpt>
      <trkpt lat="44.45763" lon="2.43941">
        <ele>430.7</ele>
        <time>2011-06-04T09:19:58Z</time>
      </trkpt>
      <trkpt lat="44.45772" lon="2.43944">
        <ele>429.2</ele>
        <time>2011-06-04T09:20:13Z</time>
      </trkpt>
      <trkpt lat="44.45775" lon="2.43947">
        <ele>428.6</ele>
        <time>2011-06-04T09:20:19Z</time>
      </trkpt>
      <trkpt lat="44.45782" lon="2.43953">
        <ele>427.8</ele>
        <time>2011-06-04T09:20:27Z</time>
      </trkpt>
      <trkpt lat="44.45783" lon="2.43959">
        <ele>427.9</ele>
        <time>2011-06-04T09:20:32Z</time>
      </trkpt>
      <trkpt lat="44.45788" lon="2.43974">
        <ele>428.7</ele>
        <time>2011-06-04T09:20:41Z</time>
      </trkpt>
      <trkpt lat="44.45793" lon="2.43996">
        <ele>429.5</ele>
        <time>2011-06-04T09:20:56Z</time>
      </trkpt>
      <trkpt lat="44.45794" lon="2.44002">
        <ele>430.1</ele>
        <time>2011-06-04T09:21:00Z</time>
      </trkpt>
      <trkpt lat="44.45797" lon="2.44011">
        <ele>431.1</ele>
        <time>2011-06-04T09:21:09Z</time>
      </trkpt>
      <trkpt lat="44.45805" lon="2.44024">
        <ele>431.3</ele>
        <time>2011-06-04T09:21:21Z</time>
      </trkpt>
      <trkpt lat="44.45811" lon="2.44031">
        <ele>431.2</ele>
        <time>2011-06-04T09:21:28Z</time>
      </trkpt>
      <trkpt lat="44.45815" lon="2.44041">
        <ele>431.9</ele>
        <time>2011-06-04T09:21:34Z</time>
      </trkpt>
      <trkpt lat="44.45831" lon="2.44064">
        <ele>432.2</ele>
        <time>2011-06-04T09:21:50Z</time>
      </trkpt>
      <trkpt lat="44.45835" lon="2.44067">
        <ele>431.8</ele>
        <time>2011-06-04T09:21:53Z</time>
      </trkpt>
      <trkpt lat="44.45837" lon="2.44072">
        <ele>432.4</ele>
        <time>2011-06-04T09:21:56Z</time>
      </trkpt>
      <trkpt lat="44.4584" lon="2.44077">
        <ele>432.8</ele>
        <time>2011-06-04T09:21:59Z</time>
      </trkpt>
      <trkpt lat="44.45849" lon="2.44089">
        <ele>433.4</ele>
        <time>2011-06-04T09:22:07Z</time>
      </trkpt>
      <trkpt lat="44.45859" lon="2.44101">
        <ele>433.9</ele>
        <time>2011-06-04T09:22:15Z</time>
      </trkpt>
      <trkpt lat="44.45869" lon="2.44116">
        <ele>435.2</ele>
        <time>2011-06-04T09:22:23Z</time>
      </trkpt>
      <trkpt lat="44.45873" lon="2.44123">
        <ele>436.2</ele>
        <time>2011-06-04T09:22:27Z</time>
      </trkpt>
      <trkpt lat="44.45883" lon="2.44138">
        <ele>437.4</ele>
        <time>2011-06-04T09:22:35Z</time>
      </trkpt>
      <trkpt lat="44.45895" lon="2.4415">
        <ele>437.3</ele>
        <time>2011-06-04T09:22:46Z</time>
      </trkpt>
      <trkpt lat="44.45899" lon="2.44153">
        <ele>436.9</ele>
        <time>2011-06-04T09:22:49Z</time>
      </trkpt>
      <trkpt lat="44.45917" lon="2.44165">
        <ele>434.1</ele>
        <time>2011-06-04T09:22:57Z</time>
      </trkpt>
      <trkpt lat="44.45923" lon="2.44169">
        <ele>432.8</ele>
        <time>2011-06-04T09:22:59Z</time>
      </trkpt>
      <trkpt lat="44.45929" lon="2.44171">
        <ele>431</ele>
        <time>2011-06-04T09:23:01Z</time>
      </trkpt>
      <trkpt lat="44.45942" lon="2.44172">
        <ele>426.4</ele>
        <time>2011-06-04T09:23:04Z</time>
      </trkpt>
      <trkpt lat="44.45947" lon="2.44172">
        <ele>425</ele>
        <time>2011-06-04T09:23:05Z</time>
      </trkpt>
      <trkpt lat="44.45951" lon="2.44175">
        <ele>423.7</ele>
        <time>2011-06-04T09:23:06Z</time>
      </trkpt>
      <trkpt lat="44.45956" lon="2.44179">
        <ele>423</ele>
        <time>2011-06-04T09:23:07Z</time>
      </trkpt>
      <trkpt lat="44.4596" lon="2.44184">
        <ele>422.7</ele>
        <time>2011-06-04T09:23:08Z</time>
      </trkpt>
      <trkpt lat="44.45963" lon="2.44189">
        <ele>422.6</ele>
        <time>2011-06-04T09:23:09Z</time>
      </trkpt>
      <trkpt lat="44.45967" lon="2.44196">
        <ele>423</ele>
        <time>2011-06-04T09:23:10Z</time>
      </trkpt>
      <trkpt lat="44.45992" lon="2.44258">
        <ele>430.4</ele>
        <time>2011-06-04T09:23:17Z</time>
      </trkpt>
      <trkpt lat="44.45996" lon="2.44267">
        <ele>431.7</ele>
        <time>2011-06-04T09:23:18Z</time>
      </trkpt>
      <trkpt lat="44.46001" lon="2.44275">
        <ele>432.6</ele>
        <time>2011-06-04T09:23:19Z</time>
      </trkpt>
      <trkpt lat="44.46007" lon="2.44282">
        <ele>433.4</ele>
        <time>2011-06-04T09:23:20Z</time>
      </trkpt>
      <trkpt lat="44.46012" lon="2.44286">
        <ele>433.4</ele>
        <time>2011-06-04T09:23:21Z</time>
      </trkpt>
      <trkpt lat="44.46018" lon="2.44288">
        <ele>433.2</ele>
        <time>2011-06-04T09:23:22Z</time>
      </trkpt>
      <trkpt lat="44.46022" lon="2.44289">
        <ele>432.8</ele>
        <time>2011-06-04T09:23:23Z</time>
      </trkpt>
      <trkpt lat="44.46028" lon="2.4429">
        <ele>431.6</ele>
        <time>2011-06-04T09:23:25Z</time>
      </trkpt>
      <trkpt lat="44.46032" lon="2.44292">
        <ele>431.6</ele>
        <time>2011-06-04T09:23:27Z</time>
      </trkpt>
      <trkpt lat="44.46035" lon="2.44297">
        <ele>432.4</ele>
        <time>2011-06-04T09:23:29Z</time>
      </trkpt>
      <trkpt lat="44.46036" lon="2.44308">
        <ele>435.1</ele>
        <time>2011-06-04T09:23:33Z</time>
      </trkpt>
      <trkpt lat="44.46035" lon="2.44331">
        <ele>441.5</ele>
        <time>2011-06-04T09:23:43Z</time>
      </trkpt>
      <trkpt lat="44.46032" lon="2.44335">
        <ele>443.3</ele>
        <time>2011-06-04T09:23:46Z</time>
      </trkpt>
      <trkpt lat="44.46026" lon="2.44342">
        <ele>446.4</ele>
        <time>2011-06-04T09:23:52Z</time>
      </trkpt>
      <trkpt lat="44.46024" lon="2.44359">
        <ele>451.7</ele>
        <time>2011-06-04T09:24:02Z</time>
      </trkpt>
      <trkpt lat="44.46028" lon="2.44367">
        <ele>453.5</ele>
        <time>2011-06-04T09:24:08Z</time>
      </trkpt>
      <trkpt lat="44.46032" lon="2.44367">
        <ele>452.9</ele>
        <time>2011-06-04T09:24:11Z</time>
      </trkpt>
      <trkpt lat="44.46039" lon="2.44368">
        <ele>452.2</ele>
        <time>2011-06-04T09:24:17Z</time>
      </trkpt>
      <trkpt lat="44.4605" lon="2.44377">
        <ele>453.5</ele>
        <time>2011-06-04T09:24:26Z</time>
      </trkpt>
      <trkpt lat="44.46061" lon="2.44389">
        <ele>456.1</ele>
        <time>2011-06-04T09:24:39Z</time>
      </trkpt>
      <trkpt lat="44.46067" lon="2.44396">
        <ele>457.6</ele>
        <time>2011-06-04T09:24:45Z</time>
      </trkpt>
      <trkpt lat="44.46079" lon="2.44409">
        <ele>460.2</ele>
        <time>2011-06-04T09:24:57Z</time>
      </trkpt>
      <trkpt lat="44.46097" lon="2.44415">
        <ele>459.8</ele>
        <time>2011-06-04T09:25:07Z</time>
      </trkpt>
      <trkpt lat="44.46107" lon="2.4442">
        <ele>459.7</ele>
        <time>2011-06-04T09:25:13Z</time>
      </trkpt>
      <trkpt lat="44.46113" lon="2.44423">
        <ele>459.8</ele>
        <time>2011-06-04T09:25:17Z</time>
      </trkpt>
      <trkpt lat="44.46129" lon="2.4443">
        <ele>459.3</ele>
        <time>2011-06-04T09:25:25Z</time>
      </trkpt>
      <trkpt lat="44.46149" lon="2.44438">
        <ele>458.9</ele>
        <time>2011-06-04T09:25:35Z</time>
      </trkpt>
      <trkpt lat="44.46156" lon="2.44443">
        <ele>459.5</ele>
        <time>2011-06-04T09:25:39Z</time>
      </trkpt>
      <trkpt lat="44.4618" lon="2.44452">
        <ele>457.4</ele>
        <time>2011-06-04T09:25:51Z</time>
      </trkpt>
      <trkpt lat="44.462" lon="2.4446">
        <ele>454.2</ele>
        <time>2011-06-04T09:26:03Z</time>
      </trkpt>
      <trkpt lat="44.46207" lon="2.44464">
        <ele>453.6</ele>
        <time>2011-06-04T09:26:07Z</time>
      </trkpt>
      <trkpt lat="44.46221" lon="2.44475">
        <ele>453.4</ele>
        <time>2011-06-04T09:26:17Z</time>
      </trkpt>
      <trkpt lat="44.46231" lon="2.44486">
        <ele>454.8</ele>
        <time>2011-06-04T09:26:25Z</time>
      </trkpt>
      <trkpt lat="44.46233" lon="2.44489">
        <ele>455.2</ele>
        <time>2011-06-04T09:26:27Z</time>
      </trkpt>
      <trkpt lat="44.46245" lon="2.44501">
        <ele>456.4</ele>
        <time>2011-06-04T09:26:35Z</time>
      </trkpt>
      <trkpt lat="44.46254" lon="2.4451">
        <ele>455.9</ele>
        <time>2011-06-04T09:26:41Z</time>
      </trkpt>
      <trkpt lat="44.46261" lon="2.4452">
        <ele>455.3</ele>
        <time>2011-06-04T09:26:47Z</time>
      </trkpt>
      <trkpt lat="44.46266" lon="2.44528">
        <ele>455.6</ele>
        <time>2011-06-04T09:26:51Z</time>
      </trkpt>
      <trkpt lat="44.46275" lon="2.44549">
        <ele>456.9</ele>
        <time>2011-06-04T09:27:02Z</time>
      </trkpt>
      <trkpt lat="44.46277" lon="2.44552">
        <ele>457</ele>
        <time>2011-06-04T09:27:04Z</time>
      </trkpt>
      <trkpt lat="44.46282" lon="2.44565">
        <ele>457.9</ele>
        <time>2011-06-04T09:27:10Z</time>
      </trkpt>
      <trkpt lat="44.46285" lon="2.44573">
        <ele>458.5</ele>
        <time>2011-06-04T09:27:14Z</time>
      </trkpt>
      <trkpt lat="44.46291" lon="2.4459">
        <ele>459.4</ele>
        <time>2011-06-04T09:27:22Z</time>
      </trkpt>
      <trkpt lat="44.46298" lon="2.44607">
        <ele>458.2</ele>
        <time>2011-06-04T09:27:30Z</time>
      </trkpt>
      <trkpt lat="44.46299" lon="2.44609">
        <ele>457.9</ele>
        <time>2011-06-04T09:27:31Z</time>
      </trkpt>
      <trkpt lat="44.46303" lon="2.4462">
        <ele>457.4</ele>
        <time>2011-06-04T09:27:36Z</time>
      </trkpt>
      <trkpt lat="44.46308" lon="2.44636">
        <ele>457.1</ele>
        <time>2011-06-04T09:27:42Z</time>
      </trkpt>
      <trkpt lat="44.46311" lon="2.44658">
        <ele>457.6</ele>
        <time>2011-06-04T09:27:49Z</time>
      </trkpt>
      <trkpt lat="44.46313" lon="2.44674">
        <ele>457.3</ele>
        <time>2011-06-04T09:27:54Z</time>
      </trkpt>
      <trkpt lat="44.46312" lon="2.44696">
        <ele>456.3</ele>
        <time>2011-06-04T09:27:59Z</time>
      </trkpt>
      <trkpt lat="44.4631" lon="2.44718">
        <ele>455.8</ele>
        <time>2011-06-04T09:28:03Z</time>
      </trkpt>
      <trkpt lat="44.46309" lon="2.44739">
        <ele>454.8</ele>
        <time>2011-06-04T09:28:06Z</time>
      </trkpt>
      <trkpt lat="44.4631" lon="2.44767">
        <ele>454.2</ele>
        <time>2011-06-04T09:28:10Z</time>
      </trkpt>
      <trkpt lat="44.46312" lon="2.44795">
        <ele>454.1</ele>
        <time>2011-06-04T09:28:14Z</time>
      </trkpt>
      <trkpt lat="44.46315" lon="2.44815">
        <ele>453.3</ele>
        <time>2011-06-04T09:28:17Z</time>
      </trkpt>
      <trkpt lat="44.46316" lon="2.44828">
        <ele>452.9</ele>
        <time>2011-06-04T09:28:19Z</time>
      </trkpt>
      <trkpt lat="44.46322" lon="2.44867">
        <ele>450.2</ele>
        <time>2011-06-04T09:28:25Z</time>
      </trkpt>
      <trkpt lat="44.46326" lon="2.44908">
        <ele>448.4</ele>
        <time>2011-06-04T09:28:31Z</time>
      </trkpt>
      <trkpt lat="44.46329" lon="2.44937">
        <ele>447.5</ele>
        <time>2011-06-04T09:28:35Z</time>
      </trkpt>
      <trkpt lat="44.4633" lon="2.44943">
        <ele>447.1</ele>
        <time>2011-06-04T09:28:36Z</time>
      </trkpt>
      <trkpt lat="44.46332" lon="2.44964">
        <ele>446.9</ele>
        <time>2011-06-04T09:28:39Z</time>
      </trkpt>
      <trkpt lat="44.46331" lon="2.44984">
        <ele>447.6</ele>
        <time>2011-06-04T09:28:42Z</time>
      </trkpt>
      <trkpt lat="44.46331" lon="2.44991">
        <ele>448.1</ele>
        <time>2011-06-04T09:28:43Z</time>
      </trkpt>
      <trkpt lat="44.4633" lon="2.45025">
        <ele>451.8</ele>
        <time>2011-06-04T09:28:48Z</time>
      </trkpt>
      <trkpt lat="44.46329" lon="2.45044">
        <ele>453.9</ele>
        <time>2011-06-04T09:28:51Z</time>
      </trkpt>
      <trkpt lat="44.4633" lon="2.45049">
        <ele>454.4</ele>
        <time>2011-06-04T09:28:52Z</time>
      </trkpt>
      <trkpt lat="44.46331" lon="2.45059">
        <ele>454.9</ele>
        <time>2011-06-04T09:28:54Z</time>
      </trkpt>
      <trkpt lat="44.46328" lon="2.45066">
        <ele>457.2</ele>
        <time>2011-06-04T09:28:56Z</time>
      </trkpt>
      <trkpt lat="44.46325" lon="2.45068">
        <ele>458.6</ele>
        <time>2011-06-04T09:28:57Z</time>
      </trkpt>
      <trkpt lat="44.46319" lon="2.45071">
        <ele>461.5</ele>
        <time>2011-06-04T09:28:59Z</time>
      </trkpt>
      <trkpt lat="44.46313" lon="2.45073">
        <ele>464.2</ele>
        <time>2011-06-04T09:29:01Z</time>
      </trkpt>
      <trkpt lat="44.4629" lon="2.45076">
        <ele>474.1</ele>
        <time>2011-06-04T09:29:07Z</time>
      </trkpt>
      <trkpt lat="44.46266" lon="2.4508">
        <ele>484.2</ele>
        <time>2011-06-04T09:29:12Z</time>
      </trkpt>
      <trkpt lat="44.46228" lon="2.45089">
        <ele>491.8</ele>
        <time>2011-06-04T09:29:19Z</time>
      </trkpt>
      <trkpt lat="44.46217" lon="2.45092">
        <ele>492.2</ele>
        <time>2011-06-04T09:29:21Z</time>
      </trkpt>
      <trkpt lat="44.46179" lon="2.45107">
        <ele>493.2</ele>
        <time>2011-06-04T09:29:28Z</time>
      </trkpt>
      <trkpt lat="44.46155" lon="2.45115">
        <ele>492.9</ele>
        <time>2011-06-04T09:29:33Z</time>
      </trkpt>
      <trkpt lat="44.46126" lon="2.45124">
        <ele>492</ele>
        <time>2011-06-04T09:29:40Z</time>
      </trkpt>
      <trkpt lat="44.46118" lon="2.45124">
        <ele>491.8</ele>
        <time>2011-06-04T09:29:42Z</time>
      </trkpt>
      <trkpt lat="44.46112" lon="2.4512">
        <ele>491.7</ele>
        <time>2011-06-04T09:29:44Z</time>
      </trkpt>
      <trkpt lat="44.46107" lon="2.4511">
        <ele>491.7</ele>
        <time>2011-06-04T09:29:46Z</time>
      </trkpt>
      <trkpt lat="44.46102" lon="2.4508">
        <ele>491.8</ele>
        <time>2011-06-04T09:29:52Z</time>
      </trkpt>
      <trkpt lat="44.461" lon="2.45071">
        <ele>491.9</ele>
        <time>2011-06-04T09:29:54Z</time>
      </trkpt>
      <trkpt lat="44.46097" lon="2.45063">
        <ele>492</ele>
        <time>2011-06-04T09:29:56Z</time>
      </trkpt>
      <trkpt lat="44.46095" lon="2.4506">
        <ele>491.9</ele>
        <time>2011-06-04T09:29:57Z</time>
      </trkpt>
      <trkpt lat="44.46083" lon="2.45048">
        <ele>491.9</ele>
        <time>2011-06-04T09:30:02Z</time>
      </trkpt>
      <trkpt lat="44.46079" lon="2.45042">
        <ele>492.1</ele>
        <time>2011-06-04T09:30:04Z</time>
      </trkpt>
      <trkpt lat="44.46074" lon="2.45037">
        <ele>492.3</ele>
        <time>2011-06-04T09:30:06Z</time>
      </trkpt>
      <trkpt lat="44.4607" lon="2.45031">
        <ele>492.5</ele>
        <time>2011-06-04T09:30:08Z</time>
      </trkpt>
      <trkpt lat="44.46067" lon="2.45029">
        <ele>492.6</ele>
        <time>2011-06-04T09:30:09Z</time>
      </trkpt>
      <trkpt lat="44.46057" lon="2.45017">
        <ele>493</ele>
        <time>2011-06-04T09:30:13Z</time>
      </trkpt>
      <trkpt lat="44.4604" lon="2.4499">
        <ele>494</ele>
        <time>2011-06-04T09:30:21Z</time>
      </trkpt>
      <trkpt lat="44.46027" lon="2.44963">
        <ele>495.1</ele>
        <time>2011-06-04T09:30:28Z</time>
      </trkpt>
      <trkpt lat="44.46023" lon="2.44957">
        <ele>495.5</ele>
        <time>2011-06-04T09:30:30Z</time>
      </trkpt>
      <trkpt lat="44.46018" lon="2.44951">
        <ele>495.7</ele>
        <time>2011-06-04T09:30:32Z</time>
      </trkpt>
      <trkpt lat="44.46009" lon="2.44945">
        <ele>496</ele>
        <time>2011-06-04T09:30:35Z</time>
      </trkpt>
      <trkpt lat="44.45991" lon="2.44934">
        <ele>496.2</ele>
        <time>2011-06-04T09:30:41Z</time>
      </trkpt>
      <trkpt lat="44.4598" lon="2.44929">
        <ele>496.1</ele>
        <time>2011-06-04T09:30:45Z</time>
      </trkpt>
      <trkpt lat="44.45965" lon="2.4492">
        <ele>496.1</ele>
        <time>2011-06-04T09:30:50Z</time>
      </trkpt>
      <trkpt lat="44.45949" lon="2.44911">
        <ele>495.9</ele>
        <time>2011-06-04T09:30:55Z</time>
      </trkpt>
      <trkpt lat="44.45927" lon="2.44896">
        <ele>495.8</ele>
        <time>2011-06-04T09:31:02Z</time>
      </trkpt>
      <trkpt lat="44.45921" lon="2.44892">
        <ele>495.7</ele>
        <time>2011-06-04T09:31:04Z</time>
      </trkpt>
      <trkpt lat="44.45903" lon="2.44882">
        <ele>495.5</ele>
        <time>2011-06-04T09:31:09Z</time>
      </trkpt>
      <trkpt lat="44.459" lon="2.4488">
        <ele>495.5</ele>
        <time>2011-06-04T09:31:10Z</time>
      </trkpt>
      <trkpt lat="44.45874" lon="2.44864">
        <ele>495.4</ele>
        <time>2011-06-04T09:31:18Z</time>
      </trkpt>
      <trkpt lat="44.4586" lon="2.44856">
        <ele>495.4</ele>
        <time>2011-06-04T09:31:22Z</time>
      </trkpt>
      <trkpt lat="44.45833" lon="2.44839">
        <ele>495.8</ele>
        <time>2011-06-04T09:31:30Z</time>
      </trkpt>
      <trkpt lat="44.45809" lon="2.44825">
        <ele>495.9</ele>
        <time>2011-06-04T09:31:38Z</time>
      </trkpt>
      <trkpt lat="44.45795" lon="2.44818">
        <ele>495.9</ele>
        <time>2011-06-04T09:31:43Z</time>
      </trkpt>
      <trkpt lat="44.45778" lon="2.4481">
        <ele>495.9</ele>
        <time>2011-06-04T09:31:49Z</time>
      </trkpt>
      <trkpt lat="44.45762" lon="2.44802">
        <ele>495.9</ele>
        <time>2011-06-04T09:31:55Z</time>
      </trkpt>
      <trkpt lat="44.45754" lon="2.44798">
        <ele>496</ele>
        <time>2011-06-04T09:31:58Z</time>
      </trkpt>
      <trkpt lat="44.45742" lon="2.44796">
        <ele>496.3</ele>
        <time>2011-06-04T09:32:02Z</time>
      </trkpt>
      <trkpt lat="44.45728" lon="2.44791">
        <ele>496.8</ele>
        <time>2011-06-04T09:32:07Z</time>
      </trkpt>
      <trkpt lat="44.45713" lon="2.44785">
        <ele>497.2</ele>
        <time>2011-06-04T09:32:12Z</time>
      </trkpt>
      <trkpt lat="44.45708" lon="2.44782">
        <ele>497.4</ele>
        <time>2011-06-04T09:32:14Z</time>
      </trkpt>
      <trkpt lat="44.4569" lon="2.44771">
        <ele>497.8</ele>
        <time>2011-06-04T09:32:20Z</time>
      </trkpt>
      <trkpt lat="44.45667" lon="2.44757">
        <ele>498.1</ele>
        <time>2011-06-04T09:32:26Z</time>
      </trkpt>
      <trkpt lat="44.45642" lon="2.44738">
        <ele>498.3</ele>
        <time>2011-06-04T09:32:33Z</time>
      </trkpt>
      <trkpt lat="44.45616" lon="2.44721">
        <ele>498.8</ele>
        <time>2011-06-04T09:32:39Z</time>
      </trkpt>
      <trkpt lat="44.45608" lon="2.44715">
        <ele>499</ele>
        <time>2011-06-04T09:32:41Z</time>
      </trkpt>
      <trkpt lat="44.45585" lon="2.44697">
        <ele>499.6</ele>
        <time>2011-06-04T09:32:47Z</time>
      </trkpt>
      <trkpt lat="44.45561" lon="2.44679">
        <ele>498.8</ele>
        <time>2011-06-04T09:32:53Z</time>
      </trkpt>
      <trkpt lat="44.45549" lon="2.44672">
        <ele>498.3</ele>
        <time>2011-06-04T09:32:56Z</time>
      </trkpt>
      <trkpt lat="44.45525" lon="2.44663">
        <ele>497.2</ele>
        <time>2011-06-04T09:33:02Z</time>
      </trkpt>
      <trkpt lat="44.45501" lon="2.44654">
        <ele>496.2</ele>
        <time>2011-06-04T09:33:08Z</time>
      </trkpt>
      <trkpt lat="44.45481" lon="2.44649">
        <ele>496.6</ele>
        <time>2011-06-04T09:33:13Z</time>
      </trkpt>
      <trkpt lat="44.45478" lon="2.44649">
        <ele>496.7</ele>
        <time>2011-06-04T09:33:14Z</time>
      </trkpt>
      <trkpt lat="44.45471" lon="2.44653">
        <ele>496.8</ele>
        <time>2011-06-04T09:33:16Z</time>
      </trkpt>
      <trkpt lat="44.45454" lon="2.44677">
        <ele>496.9</ele>
        <time>2011-06-04T09:33:22Z</time>
      </trkpt>
      <trkpt lat="44.45449" lon="2.44687">
        <ele>496.8</ele>
        <time>2011-06-04T09:33:24Z</time>
      </trkpt>
      <trkpt lat="44.45443" lon="2.44701">
        <ele>496.7</ele>
        <time>2011-06-04T09:33:27Z</time>
      </trkpt>
      <trkpt lat="44.45439" lon="2.4471">
        <ele>496.6</ele>
        <time>2011-06-04T09:33:29Z</time>
      </trkpt>
      <trkpt lat="44.4543" lon="2.44735">
        <ele>496.2</ele>
        <time>2011-06-04T09:33:34Z</time>
      </trkpt>
      <trkpt lat="44.45417" lon="2.44763">
        <ele>495.9</ele>
        <time>2011-06-04T09:33:40Z</time>
      </trkpt>
      <trkpt lat="44.45413" lon="2.44772">
        <ele>495.7</ele>
        <time>2011-06-04T09:33:42Z</time>
      </trkpt>
      <trkpt lat="44.4541" lon="2.44777">
        <ele>495.6</ele>
        <time>2011-06-04T09:33:43Z</time>
      </trkpt>
      <trkpt lat="44.45408" lon="2.44782">
        <ele>495.5</ele>
        <time>2011-06-04T09:33:44Z</time>
      </trkpt>
      <trkpt lat="44.45393" lon="2.44812">
        <ele>494.8</ele>
        <time>2011-06-04T09:33:50Z</time>
      </trkpt>
      <trkpt lat="44.45379" lon="2.44836">
        <ele>493.9</ele>
        <time>2011-06-04T09:33:55Z</time>
      </trkpt>
      <trkpt lat="44.45374" lon="2.44845">
        <ele>493.3</ele>
        <time>2011-06-04T09:33:57Z</time>
      </trkpt>
      <trkpt lat="44.45369" lon="2.44855">
        <ele>492.7</ele>
        <time>2011-06-04T09:33:59Z</time>
      </trkpt>
      <trkpt lat="44.45351" lon="2.4489">
        <ele>490.8</ele>
        <time>2011-06-04T09:34:06Z</time>
      </trkpt>
      <trkpt lat="44.45341" lon="2.44911">
        <ele>490.1</ele>
        <time>2011-06-04T09:34:10Z</time>
      </trkpt>
      <trkpt lat="44.45327" lon="2.44939">
        <ele>488.5</ele>
        <time>2011-06-04T09:34:15Z</time>
      </trkpt>
      <trkpt lat="44.45314" lon="2.44969">
        <ele>486.6</ele>
        <time>2011-06-04T09:34:20Z</time>
      </trkpt>
      <trkpt lat="44.453" lon="2.45007">
        <ele>484.4</ele>
        <time>2011-06-04T09:34:26Z</time>
      </trkpt>
      <trkpt lat="44.45298" lon="2.45014">
        <ele>484.1</ele>
        <time>2011-06-04T09:34:27Z</time>
      </trkpt>
      <trkpt lat="44.45288" lon="2.45049">
        <ele>482</ele>
        <time>2011-06-04T09:34:32Z</time>
      </trkpt>
      <trkpt lat="44.45283" lon="2.45066">
        <ele>481</ele>
        <time>2011-06-04T09:34:34Z</time>
      </trkpt>
      <trkpt lat="44.45262" lon="2.45125">
        <ele>478.9</ele>
        <time>2011-06-04T09:34:41Z</time>
      </trkpt>
      <trkpt lat="44.45256" lon="2.45144">
        <ele>478.5</ele>
        <time>2011-06-04T09:34:43Z</time>
      </trkpt>
      <trkpt lat="44.45248" lon="2.45183">
        <ele>477.4</ele>
        <time>2011-06-04T09:34:47Z</time>
      </trkpt>
      <trkpt lat="44.45247" lon="2.45192">
        <ele>477.1</ele>
        <time>2011-06-04T09:34:48Z</time>
      </trkpt>
      <trkpt lat="44.45249" lon="2.45199">
        <ele>476.9</ele>
        <time>2011-06-04T09:34:49Z</time>
      </trkpt>
      <trkpt lat="44.45272" lon="2.45232">
        <ele>477.5</ele>
        <time>2011-06-04T09:34:54Z</time>
      </trkpt>
      <trkpt lat="44.45293" lon="2.45274">
        <ele>478.8</ele>
        <time>2011-06-04T09:34:59Z</time>
      </trkpt>
      <trkpt lat="44.45299" lon="2.45289">
        <ele>479.2</ele>
        <time>2011-06-04T09:35:01Z</time>
      </trkpt>
      <trkpt lat="44.45302" lon="2.45301">
        <ele>479.4</ele>
        <time>2011-06-04T09:35:03Z</time>
      </trkpt>
      <trkpt lat="44.45304" lon="2.45307">
        <ele>479.5</ele>
        <time>2011-06-04T09:35:04Z</time>
      </trkpt>
      <trkpt lat="44.45305" lon="2.45316">
        <ele>479.5</ele>
        <time>2011-06-04T09:35:06Z</time>
      </trkpt>
      <trkpt lat="44.45306" lon="2.45333">
        <ele>479.4</ele>
        <time>2011-06-04T09:35:10Z</time>
      </trkpt>
      <trkpt lat="44.45306" lon="2.45337">
        <ele>479.4</ele>
        <time>2011-06-04T09:35:11Z</time>
      </trkpt>
      <trkpt lat="44.45305" lon="2.45346">
        <ele>479.3</ele>
        <time>2011-06-04T09:35:13Z</time>
      </trkpt>
      <trkpt lat="44.45304" lon="2.45363">
        <ele>479.1</ele>
        <time>2011-06-04T09:35:17Z</time>
      </trkpt>
      <trkpt lat="44.45302" lon="2.45378">
        <ele>478.9</ele>
        <time>2011-06-04T09:35:21Z</time>
      </trkpt>
      <trkpt lat="44.45302" lon="2.45386">
        <ele>478.8</ele>
        <time>2011-06-04T09:35:23Z</time>
      </trkpt>
      <trkpt lat="44.453" lon="2.45399">
        <ele>478.7</ele>
        <time>2011-06-04T09:35:26Z</time>
      </trkpt>
      <trkpt lat="44.45298" lon="2.45411">
        <ele>478.5</ele>
        <time>2011-06-04T09:35:29Z</time>
      </trkpt>
      <trkpt lat="44.45295" lon="2.45427">
        <ele>478.4</ele>
        <time>2011-06-04T09:35:33Z</time>
      </trkpt>
      <trkpt lat="44.45288" lon="2.45454">
        <ele>478.5</ele>
        <time>2011-06-04T09:35:40Z</time>
      </trkpt>
      <trkpt lat="44.45286" lon="2.45458">
        <ele>478.5</ele>
        <time>2011-06-04T09:35:41Z</time>
      </trkpt>
      <trkpt lat="44.45282" lon="2.45477">
        <ele>478.8</ele>
        <time>2011-06-04T09:35:46Z</time>
      </trkpt>
      <trkpt lat="44.4528" lon="2.4549">
        <ele>479.1</ele>
        <time>2011-06-04T09:35:49Z</time>
      </trkpt>
      <trkpt lat="44.45281" lon="2.45504">
        <ele>479.3</ele>
        <time>2011-06-04T09:35:53Z</time>
      </trkpt>
      <trkpt lat="44.45277" lon="2.45526">
        <ele>479.2</ele>
        <time>2011-06-04T09:35:58Z</time>
      </trkpt>
      <trkpt lat="44.45275" lon="2.45536">
        <ele>479.2</ele>
        <time>2011-06-04T09:36:00Z</time>
      </trkpt>
      <trkpt lat="44.4527" lon="2.45568">
        <ele>479</ele>
        <time>2011-06-04T09:36:07Z</time>
      </trkpt>
      <trkpt lat="44.45267" lon="2.45585">
        <ele>479</ele>
        <time>2011-06-04T09:36:11Z</time>
      </trkpt>
      <trkpt lat="44.45265" lon="2.45594">
        <ele>479</ele>
        <time>2011-06-04T09:36:13Z</time>
      </trkpt>
      <trkpt lat="44.4526" lon="2.4561">
        <ele>479</ele>
        <time>2011-06-04T09:36:17Z</time>
      </trkpt>
      <trkpt lat="44.45257" lon="2.45622">
        <ele>479</ele>
        <time>2011-06-04T09:36:20Z</time>
      </trkpt>
      <trkpt lat="44.45256" lon="2.45627">
        <ele>479</ele>
        <time>2011-06-04T09:36:21Z</time>
      </trkpt>
      <trkpt lat="44.45256" lon="2.45636">
        <ele>479</ele>
        <time>2011-06-04T09:36:23Z</time>
      </trkpt>
      <trkpt lat="44.45257" lon="2.45652">
        <ele>479</ele>
        <time>2011-06-04T09:36:27Z</time>
      </trkpt>
      <trkpt lat="44.45257" lon="2.45661">
        <ele>479</ele>
        <time>2011-06-04T09:36:29Z</time>
      </trkpt>
      <trkpt lat="44.45256" lon="2.45665">
        <ele>479</ele>
        <time>2011-06-04T09:36:30Z</time>
      </trkpt>
      <trkpt lat="44.45254" lon="2.45672">
        <ele>478.9</ele>
        <time>2011-06-04T09:36:32Z</time>
      </trkpt>
      <trkpt lat="44.45248" lon="2.45686">
        <ele>478.6</ele>
        <time>2011-06-04T09:36:36Z</time>
      </trkpt>
      <trkpt lat="44.45244" lon="2.45697">
        <ele>478.4</ele>
        <time>2011-06-04T09:36:39Z</time>
      </trkpt>
      <trkpt lat="44.45243" lon="2.45705">
        <ele>478.3</ele>
        <time>2011-06-04T09:36:41Z</time>
      </trkpt>
      <trkpt lat="44.45242" lon="2.45712">
        <ele>478.2</ele>
        <time>2011-06-04T09:36:43Z</time>
      </trkpt>
      <trkpt lat="44.4524" lon="2.45719">
        <ele>478.1</ele>
        <time>2011-06-04T09:36:45Z</time>
      </trkpt>
      <trkpt lat="44.45228" lon="2.45746">
        <ele>478.1</ele>
        <time>2011-06-04T09:36:52Z</time>
      </trkpt>
      <trkpt lat="44.45219" lon="2.45765">
        <ele>477.8</ele>
        <time>2011-06-04T09:36:57Z</time>
      </trkpt>
      <trkpt lat="44.45215" lon="2.45775">
        <ele>477.6</ele>
        <time>2011-06-04T09:37:00Z</time>
      </trkpt>
      <trkpt lat="44.45209" lon="2.45783">
        <ele>477.4</ele>
        <time>2011-06-04T09:37:09Z</time>
      </trkpt>
      <trkpt lat="44.45204" lon="2.45783">
        <ele>477.6</ele>
        <time>2011-06-04T09:37:30Z</time>
      </trkpt>
      <trkpt lat="44.45201" lon="2.45786">
        <ele>477.5</ele>
        <time>2011-06-04T09:37:54Z</time>
      </trkpt>
      <trkpt lat="44.45193" lon="2.45789">
        <ele>477.7</ele>
        <time>2011-06-04T09:39:27Z</time>
      </trkpt>
      <trkpt lat="44.45194" lon="2.45786">
        <ele>477.9</ele>
        <time>2011-06-04T09:40:23Z</time>
      </trkpt>
      <trkpt lat="44.45198" lon="2.45785">
        <ele>477.7</ele>
        <time>2011-06-04T09:41:00Z</time>
      </trkpt>
      <trkpt lat="44.45201" lon="2.45791">
        <ele>477.3</ele>
        <time>2011-06-04T09:43:00Z</time>
      </trkpt>
      <trkpt lat="44.45199" lon="2.45789">
        <ele>477.5</ele>
        <time>2011-06-04T09:44:52Z</time>
      </trkpt>
      <trkpt lat="44.45196" lon="2.45797">
        <ele>477.2</ele>
        <time>2011-06-04T09:45:38Z</time>
      </trkpt>
      <trkpt lat="44.45193" lon="2.45804">
        <ele>476.9</ele>
        <time>2011-06-04T09:45:40Z</time>
      </trkpt>
      <trkpt lat="44.45191" lon="2.45808">
        <ele>476.8</ele>
        <time>2011-06-04T09:45:41Z</time>
      </trkpt>
      <trkpt lat="44.45188" lon="2.45816">
        <ele>476.5</ele>
        <time>2011-06-04T09:45:43Z</time>
      </trkpt>
      <trkpt lat="44.45177" lon="2.45845">
        <ele>475.6</ele>
        <time>2011-06-04T09:45:49Z</time>
      </trkpt>
      <trkpt lat="44.45165" lon="2.45874">
        <ele>475.1</ele>
        <time>2011-06-04T09:45:54Z</time>
      </trkpt>
      <trkpt lat="44.45158" lon="2.45893">
        <ele>474.6</ele>
        <time>2011-06-04T09:45:57Z</time>
      </trkpt>
      <trkpt lat="44.45155" lon="2.45899">
        <ele>474.4</ele>
        <time>2011-06-04T09:45:58Z</time>
      </trkpt>
      <trkpt lat="44.45147" lon="2.45912">
        <ele>474</ele>
        <time>2011-06-04T09:46:00Z</time>
      </trkpt>
      <trkpt lat="44.45143" lon="2.45918">
        <ele>473.7</ele>
        <time>2011-06-04T09:46:01Z</time>
      </trkpt>
      <trkpt lat="44.45139" lon="2.45923">
        <ele>473.6</ele>
        <time>2011-06-04T09:46:02Z</time>
      </trkpt>
      <trkpt lat="44.45129" lon="2.45931">
        <ele>473.3</ele>
        <time>2011-06-04T09:46:04Z</time>
      </trkpt>
      <trkpt lat="44.45116" lon="2.45947">
        <ele>472.7</ele>
        <time>2011-06-04T09:46:07Z</time>
      </trkpt>
      <trkpt lat="44.45112" lon="2.45953">
        <ele>472.5</ele>
        <time>2011-06-04T09:46:08Z</time>
      </trkpt>
      <trkpt lat="44.4511" lon="2.45961">
        <ele>472.3</ele>
        <time>2011-06-04T09:46:09Z</time>
      </trkpt>
      <trkpt lat="44.4511" lon="2.45969">
        <ele>472</ele>
        <time>2011-06-04T09:46:10Z</time>
      </trkpt>
      <trkpt lat="44.45112" lon="2.45987">
        <ele>471.7</ele>
        <time>2011-06-04T09:46:12Z</time>
      </trkpt>
      <trkpt lat="44.45114" lon="2.45995">
        <ele>471.6</ele>
        <time>2011-06-04T09:46:13Z</time>
      </trkpt>
      <trkpt lat="44.45117" lon="2.46003">
        <ele>471.7</ele>
        <time>2011-06-04T09:46:14Z</time>
      </trkpt>
      <trkpt lat="44.45129" lon="2.46025">
        <ele>472.5</ele>
        <time>2011-06-04T09:46:17Z</time>
      </trkpt>
      <trkpt lat="44.45139" lon="2.46046">
        <ele>473.2</ele>
        <time>2011-06-04T09:46:20Z</time>
      </trkpt>
      <trkpt lat="44.45141" lon="2.46054">
        <ele>473.4</ele>
        <time>2011-06-04T09:46:21Z</time>
      </trkpt>
      <trkpt lat="44.45141" lon="2.46062">
        <ele>473.5</ele>
        <time>2011-06-04T09:46:22Z</time>
      </trkpt>
      <trkpt lat="44.45141" lon="2.4607">
        <ele>473.6</ele>
        <time>2011-06-04T09:46:23Z</time>
      </trkpt>
      <trkpt lat="44.45139" lon="2.46077">
        <ele>473.6</ele>
        <time>2011-06-04T09:46:24Z</time>
      </trkpt>
      <trkpt lat="44.45136" lon="2.46083">
        <ele>473.5</ele>
        <time>2011-06-04T09:46:25Z</time>
      </trkpt>
      <trkpt lat="44.45117" lon="2.46119">
        <ele>472.3</ele>
        <time>2011-06-04T09:46:31Z</time>
      </trkpt>
      <trkpt lat="44.45099" lon="2.46151">
        <ele>470.6</ele>
        <time>2011-06-04T09:46:37Z</time>
      </trkpt>
      <trkpt lat="44.45094" lon="2.46163">
        <ele>470</ele>
        <time>2011-06-04T09:46:39Z</time>
      </trkpt>
      <trkpt lat="44.45092" lon="2.46171">
        <ele>469.7</ele>
        <time>2011-06-04T09:46:40Z</time>
      </trkpt>
      <trkpt lat="44.45091" lon="2.46178">
        <ele>469.6</ele>
        <time>2011-06-04T09:46:41Z</time>
      </trkpt>
      <trkpt lat="44.45092" lon="2.46194">
        <ele>469.6</ele>
        <time>2011-06-04T09:46:43Z</time>
      </trkpt>
      <trkpt lat="44.45092" lon="2.46225">
        <ele>469.4</ele>
        <time>2011-06-04T09:46:47Z</time>
      </trkpt>
      <trkpt lat="44.45094" lon="2.46241">
        <ele>469.4</ele>
        <time>2011-06-04T09:46:49Z</time>
      </trkpt>
      <trkpt lat="44.45093" lon="2.46272">
        <ele>468.5</ele>
        <time>2011-06-04T09:46:53Z</time>
      </trkpt>
      <trkpt lat="44.4509" lon="2.46297">
        <ele>467.5</ele>
        <time>2011-06-04T09:46:56Z</time>
      </trkpt>
      <trkpt lat="44.45086" lon="2.46313">
        <ele>466.8</ele>
        <time>2011-06-04T09:46:58Z</time>
      </trkpt>
      <trkpt lat="44.45075" lon="2.46345">
        <ele>465.1</ele>
        <time>2011-06-04T09:47:02Z</time>
      </trkpt>
      <trkpt lat="44.45055" lon="2.46405">
        <ele>460.5</ele>
        <time>2011-06-04T09:47:09Z</time>
      </trkpt>
      <trkpt lat="44.45038" lon="2.46462">
        <ele>457</ele>
        <time>2011-06-04T09:47:15Z</time>
      </trkpt>
      <trkpt lat="44.45036" lon="2.46471">
        <ele>456.4</ele>
        <time>2011-06-04T09:47:16Z</time>
      </trkpt>
      <trkpt lat="44.45034" lon="2.46479">
        <ele>455.9</ele>
        <time>2011-06-04T09:47:17Z</time>
      </trkpt>
      <trkpt lat="44.45034" lon="2.46487">
        <ele>455.5</ele>
        <time>2011-06-04T09:47:18Z</time>
      </trkpt>
      <trkpt lat="44.45036" lon="2.46494">
        <ele>455.1</ele>
        <time>2011-06-04T09:47:19Z</time>
      </trkpt>
      <trkpt lat="44.45039" lon="2.46501">
        <ele>454.8</ele>
        <time>2011-06-04T09:47:20Z</time>
      </trkpt>
      <trkpt lat="44.45047" lon="2.46515">
        <ele>454.1</ele>
        <time>2011-06-04T09:47:22Z</time>
      </trkpt>
      <trkpt lat="44.45066" lon="2.46548">
        <ele>453.2</ele>
        <time>2011-06-04T09:47:27Z</time>
      </trkpt>
      <trkpt lat="44.45071" lon="2.46554">
        <ele>453.2</ele>
        <time>2011-06-04T09:47:28Z</time>
      </trkpt>
      <trkpt lat="44.45075" lon="2.46559">
        <ele>453.4</ele>
        <time>2011-06-04T09:47:29Z</time>
      </trkpt>
      <trkpt lat="44.4508" lon="2.46563">
        <ele>453.6</ele>
        <time>2011-06-04T09:47:30Z</time>
      </trkpt>
      <trkpt lat="44.45084" lon="2.46565">
        <ele>454</ele>
        <time>2011-06-04T09:47:31Z</time>
      </trkpt>
      <trkpt lat="44.45105" lon="2.4657">
        <ele>454.1</ele>
        <time>2011-06-04T09:47:35Z</time>
      </trkpt>
      <trkpt lat="44.45109" lon="2.46573">
        <ele>454.1</ele>
        <time>2011-06-04T09:47:36Z</time>
      </trkpt>
      <trkpt lat="44.45114" lon="2.46577">
        <ele>454.1</ele>
        <time>2011-06-04T09:47:37Z</time>
      </trkpt>
      <trkpt lat="44.45118" lon="2.46581">
        <ele>453.9</ele>
        <time>2011-06-04T09:47:38Z</time>
      </trkpt>
      <trkpt lat="44.45135" lon="2.46605">
        <ele>452</ele>
        <time>2011-06-04T09:47:43Z</time>
      </trkpt>
      <trkpt lat="44.45142" lon="2.46614">
        <ele>451.3</ele>
        <time>2011-06-04T09:47:45Z</time>
      </trkpt>
      <trkpt lat="44.4515" lon="2.4663">
        <ele>450.2</ele>
        <time>2011-06-04T09:47:48Z</time>
      </trkpt>
      <trkpt lat="44.45153" lon="2.46635">
        <ele>449.9</ele>
        <time>2011-06-04T09:47:49Z</time>
      </trkpt>
      <trkpt lat="44.45166" lon="2.46647">
        <ele>449.7</ele>
        <time>2011-06-04T09:47:52Z</time>
      </trkpt>
      <trkpt lat="44.45171" lon="2.46651">
        <ele>448.9</ele>
        <time>2011-06-04T09:47:53Z</time>
      </trkpt>
      <trkpt lat="44.45177" lon="2.46653">
        <ele>448.1</ele>
        <time>2011-06-04T09:47:54Z</time>
      </trkpt>
      <trkpt lat="44.45182" lon="2.46654">
        <ele>447.4</ele>
        <time>2011-06-04T09:47:55Z</time>
      </trkpt>
      <trkpt lat="44.4522" lon="2.46665">
        <ele>441.4</ele>
        <time>2011-06-04T09:48:03Z</time>
      </trkpt>
      <trkpt lat="44.45232" lon="2.46667">
        <ele>439.4</ele>
        <time>2011-06-04T09:48:06Z</time>
      </trkpt>
      <trkpt lat="44.45254" lon="2.46669">
        <ele>434.5</ele>
        <time>2011-06-04T09:48:12Z</time>
      </trkpt>
      <trkpt lat="44.45278" lon="2.46669">
        <ele>426.9</ele>
        <time>2011-06-04T09:48:19Z</time>
      </trkpt>
      <trkpt lat="44.45281" lon="2.4667">
        <ele>425.9</ele>
        <time>2011-06-04T09:48:20Z</time>
      </trkpt>
      <trkpt lat="44.45292" lon="2.46668">
        <ele>422.8</ele>
        <time>2011-06-04T09:48:26Z</time>
      </trkpt>
      <trkpt lat="44.45298" lon="2.46668">
        <ele>421.3</ele>
        <time>2011-06-04T09:48:30Z</time>
      </trkpt>
      <trkpt lat="44.45303" lon="2.46666">
        <ele>420.3</ele>
        <time>2011-06-04T09:48:32Z</time>
      </trkpt>
      <trkpt lat="44.45307" lon="2.46663">
        <ele>419.9</ele>
        <time>2011-06-04T09:48:34Z</time>
      </trkpt>
      <trkpt lat="44.4531" lon="2.4666">
        <ele>420.3</ele>
        <time>2011-06-04T09:48:40Z</time>
      </trkpt>
      <trkpt lat="44.45317" lon="2.46654">
        <ele>419.8</ele>
        <time>2011-06-04T09:48:53Z</time>
      </trkpt>
      <trkpt lat="44.45321" lon="2.4665">
        <ele>420.2</ele>
        <time>2011-06-04T09:48:58Z</time>
      </trkpt>
      <trkpt lat="44.45331" lon="2.46641">
        <ele>420.6</ele>
        <time>2011-06-04T09:49:14Z</time>
      </trkpt>
      <trkpt lat="44.45342" lon="2.4663">
        <ele>420.2</ele>
        <time>2011-06-04T09:49:23Z</time>
      </trkpt>
      <trkpt lat="44.45346" lon="2.46624">
        <ele>420.5</ele>
        <time>2011-06-04T09:49:26Z</time>
      </trkpt>
      <trkpt lat="44.45359" lon="2.46611">
        <ele>419.8</ele>
        <time>2011-06-04T09:49:34Z</time>
      </trkpt>
      <trkpt lat="44.45366" lon="2.46606">
        <ele>418.7</ele>
        <time>2011-06-04T09:49:38Z</time>
      </trkpt>
      <trkpt lat="44.45369" lon="2.46602">
        <ele>418.7</ele>
        <time>2011-06-04T09:49:40Z</time>
      </trkpt>
      <trkpt lat="44.45375" lon="2.46596">
        <ele>418.3</ele>
        <time>2011-06-04T09:49:44Z</time>
      </trkpt>
      <trkpt lat="44.4538" lon="2.46589">
        <ele>418.6</ele>
        <time>2011-06-04T09:49:48Z</time>
      </trkpt>
      <trkpt lat="44.45389" lon="2.46572">
        <ele>420</ele>
        <time>2011-06-04T09:49:56Z</time>
      </trkpt>
      <trkpt lat="44.45399" lon="2.4656">
        <ele>419.6</ele>
        <time>2011-06-04T09:50:01Z</time>
      </trkpt>
      <trkpt lat="44.45405" lon="2.46553">
        <ele>419.2</ele>
        <time>2011-06-04T09:50:03Z</time>
      </trkpt>
      <trkpt lat="44.45407" lon="2.46549">
        <ele>419.9</ele>
        <time>2011-06-04T09:50:04Z</time>
      </trkpt>
      <trkpt lat="44.4541" lon="2.46541">
        <ele>421.5</ele>
        <time>2011-06-04T09:50:07Z</time>
      </trkpt>
      <trkpt lat="44.45414" lon="2.46533">
        <ele>422.7</ele>
        <time>2011-06-04T09:50:16Z</time>
      </trkpt>
      <trkpt lat="44.4542" lon="2.46529">
        <ele>421.9</ele>
        <time>2011-06-04T09:50:24Z</time>
      </trkpt>
      <trkpt lat="44.45424" lon="2.46528">
        <ele>420.7</ele>
        <time>2011-06-04T09:50:26Z</time>
      </trkpt>
      <trkpt lat="44.45429" lon="2.46526">
        <ele>419.3</ele>
        <time>2011-06-04T09:50:28Z</time>
      </trkpt>
      <trkpt lat="44.45431" lon="2.46524">
        <ele>419.5</ele>
        <time>2011-06-04T09:50:29Z</time>
      </trkpt>
      <trkpt lat="44.45437" lon="2.46519">
        <ele>419</ele>
        <time>2011-06-04T09:50:32Z</time>
      </trkpt>
      <trkpt lat="44.45444" lon="2.46511">
        <ele>418.9</ele>
        <time>2011-06-04T09:50:36Z</time>
      </trkpt>
      <trkpt lat="44.45452" lon="2.46496">
        <ele>420.8</ele>
        <time>2011-06-04T09:50:45Z</time>
      </trkpt>
      <trkpt lat="44.45453" lon="2.4649">
        <ele>422.2</ele>
        <time>2011-06-04T09:50:51Z</time>
      </trkpt>
      <trkpt lat="44.45454" lon="2.46484">
        <ele>423.6</ele>
        <time>2011-06-04T09:50:54Z</time>
      </trkpt>
      <trkpt lat="44.45457" lon="2.4648">
        <ele>423.7</ele>
        <time>2011-06-04T09:50:56Z</time>
      </trkpt>
      <trkpt lat="44.45464" lon="2.46472">
        <ele>424</ele>
        <time>2011-06-04T09:51:00Z</time>
      </trkpt>
      <trkpt lat="44.45469" lon="2.46464">
        <ele>424.6</ele>
        <time>2011-06-04T09:51:12Z</time>
      </trkpt>
      <trkpt lat="44.45476" lon="2.46459">
        <ele>424.1</ele>
        <time>2011-06-04T09:51:22Z</time>
      </trkpt>
      <trkpt lat="44.45481" lon="2.46454">
        <ele>423.9</ele>
        <time>2011-06-04T09:51:26Z</time>
      </trkpt>
      <trkpt lat="44.45496" lon="2.46432">
        <ele>426.9</ele>
        <time>2011-06-04T09:51:38Z</time>
      </trkpt>
      <trkpt lat="44.45502" lon="2.46424">
        <ele>428.1</ele>
        <time>2011-06-04T09:51:42Z</time>
      </trkpt>
      <trkpt lat="44.45509" lon="2.46412">
        <ele>430</ele>
        <time>2011-06-04T09:51:47Z</time>
      </trkpt>
      <trkpt lat="44.45513" lon="2.46409">
        <ele>429.8</ele>
        <time>2011-06-04T09:51:49Z</time>
      </trkpt>
      <trkpt lat="44.45521" lon="2.46397">
        <ele>430.7</ele>
        <time>2011-06-04T09:51:55Z</time>
      </trkpt>
      <trkpt lat="44.45527" lon="2.46391">
        <ele>430.7</ele>
        <time>2011-06-04T09:51:59Z</time>
      </trkpt>
      <trkpt lat="44.45532" lon="2.46386">
        <ele>430.6</ele>
        <time>2011-06-04T09:52:02Z</time>
      </trkpt>
      <trkpt lat="44.45535" lon="2.46382">
        <ele>430.7</ele>
        <time>2011-06-04T09:52:04Z</time>
      </trkpt>
      <trkpt lat="44.45538" lon="2.46378">
        <ele>431</ele>
        <time>2011-06-04T09:52:06Z</time>
      </trkpt>
      <trkpt lat="44.4554" lon="2.46372">
        <ele>431.8</ele>
        <time>2011-06-04T09:52:10Z</time>
      </trkpt>
      <trkpt lat="44.45541" lon="2.46362">
        <ele>434</ele>
        <time>2011-06-04T09:52:32Z</time>
      </trkpt>
      <trkpt lat="44.45544" lon="2.46353">
        <ele>435.7</ele>
        <time>2011-06-04T09:52:37Z</time>
      </trkpt>
      <trkpt lat="44.45545" lon="2.46344">
        <ele>437.7</ele>
        <time>2011-06-04T09:52:41Z</time>
      </trkpt>
      <trkpt lat="44.45547" lon="2.46334">
        <ele>439.5</ele>
        <time>2011-06-04T09:52:50Z</time>
      </trkpt>
      <trkpt lat="44.4555" lon="2.46328">
        <ele>439.6</ele>
        <time>2011-06-04T09:53:00Z</time>
      </trkpt>
      <trkpt lat="44.45552" lon="2.46322">
        <ele>439.8</ele>
        <time>2011-06-04T09:53:04Z</time>
      </trkpt>
      <trkpt lat="44.45555" lon="2.46316">
        <ele>439.8</ele>
        <time>2011-06-04T09:53:10Z</time>
      </trkpt>
      <trkpt lat="44.45558" lon="2.46312">
        <ele>439.6</ele>
        <time>2011-06-04T09:53:13Z</time>
      </trkpt>
      <trkpt lat="44.45561" lon="2.46301">
        <ele>440.3</ele>
        <time>2011-06-04T09:53:27Z</time>
      </trkpt>
      <trkpt lat="44.4556" lon="2.46295">
        <ele>441.3</ele>
        <time>2011-06-04T09:53:32Z</time>
      </trkpt>
      <trkpt lat="44.45559" lon="2.46285">
        <ele>443</ele>
        <time>2011-06-04T09:53:40Z</time>
      </trkpt>
      <trkpt lat="44.4556" lon="2.46271">
        <ele>444.7</ele>
        <time>2011-06-04T09:53:47Z</time>
      </trkpt>
      <trkpt lat="44.45562" lon="2.46265">
        <ele>445.2</ele>
        <time>2011-06-04T09:53:50Z</time>
      </trkpt>
      <trkpt lat="44.45563" lon="2.46256">
        <ele>446.2</ele>
        <time>2011-06-04T09:53:55Z</time>
      </trkpt>
      <trkpt lat="44.45563" lon="2.46245">
        <ele>447.5</ele>
        <time>2011-06-04T09:54:00Z</time>
      </trkpt>
      <trkpt lat="44.45564" lon="2.46239">
        <ele>448</ele>
        <time>2011-06-04T09:54:08Z</time>
      </trkpt>
      <trkpt lat="44.45571" lon="2.46239">
        <ele>446.7</ele>
        <time>2011-06-04T09:54:15Z</time>
      </trkpt>
      <trkpt lat="44.4559" lon="2.46242">
        <ele>442.4</ele>
        <time>2011-06-04T09:54:27Z</time>
      </trkpt>
      <trkpt lat="44.45595" lon="2.46245">
        <ele>440.2</ele>
        <time>2011-06-04T09:54:30Z</time>
      </trkpt>
      <trkpt lat="44.456" lon="2.46247">
        <ele>438.4</ele>
        <time>2011-06-04T09:54:32Z</time>
      </trkpt>
      <trkpt lat="44.45626" lon="2.46261">
        <ele>427.5</ele>
        <time>2011-06-04T09:54:37Z</time>
      </trkpt>
      <trkpt lat="44.4563" lon="2.46264">
        <ele>425.5</ele>
        <time>2011-06-04T09:54:38Z</time>
      </trkpt>
      <trkpt lat="44.45633" lon="2.46269">
        <ele>423.8</ele>
        <time>2011-06-04T09:54:39Z</time>
      </trkpt>
      <trkpt lat="44.45641" lon="2.4629">
        <ele>416.8</ele>
        <time>2011-06-04T09:54:42Z</time>
      </trkpt>
      <trkpt lat="44.45644" lon="2.46297">
        <ele>414.3</ele>
        <time>2011-06-04T09:54:43Z</time>
      </trkpt>
      <trkpt lat="44.45647" lon="2.46301">
        <ele>411.9</ele>
        <time>2011-06-04T09:54:44Z</time>
      </trkpt>
      <trkpt lat="44.45653" lon="2.46297">
        <ele>410.5</ele>
        <time>2011-06-04T09:54:46Z</time>
      </trkpt>
      <trkpt lat="44.45658" lon="2.46283">
        <ele>412.3</ele>
        <time>2011-06-04T09:54:48Z</time>
      </trkpt>
      <trkpt lat="44.4566" lon="2.46264">
        <ele>415.7</ele>
        <time>2011-06-04T09:54:50Z</time>
      </trkpt>
      <trkpt lat="44.45662" lon="2.46256">
        <ele>417.2</ele>
        <time>2011-06-04T09:54:51Z</time>
      </trkpt>
      <trkpt lat="44.45665" lon="2.4625">
        <ele>417.6</ele>
        <time>2011-06-04T09:54:52Z</time>
      </trkpt>
      <trkpt lat="44.45669" lon="2.46246">
        <ele>418.3</ele>
        <time>2011-06-04T09:54:54Z</time>
      </trkpt>
      <trkpt lat="44.45673" lon="2.46249">
        <ele>416.8</ele>
        <time>2011-06-04T09:54:55Z</time>
      </trkpt>
      <trkpt lat="44.4568" lon="2.46268">
        <ele>410.7</ele>
        <time>2011-06-04T09:54:58Z</time>
      </trkpt>
      <trkpt lat="44.45689" lon="2.46286">
        <ele>404.8</ele>
        <time>2011-06-04T09:55:04Z</time>
      </trkpt>
      <trkpt lat="44.45692" lon="2.46291">
        <ele>402.8</ele>
        <time>2011-06-04T09:55:09Z</time>
      </trkpt>
      <trkpt lat="44.45694" lon="2.46301">
        <ele>399.5</ele>
        <time>2011-06-04T09:55:29Z</time>
      </trkpt>
      <trkpt lat="44.45693" lon="2.46311">
        <ele>396.7</ele>
        <time>2011-06-04T09:55:43Z</time>
      </trkpt>
      <trkpt lat="44.45694" lon="2.46321">
        <ele>393.9</ele>
        <time>2011-06-04T09:55:47Z</time>
      </trkpt>
      <trkpt lat="44.45693" lon="2.46332">
        <ele>391.1</ele>
        <time>2011-06-04T09:55:51Z</time>
      </trkpt>
      <trkpt lat="44.4569" lon="2.46346">
        <ele>388.9</ele>
        <time>2011-06-04T09:55:57Z</time>
      </trkpt>
      <trkpt lat="44.45681" lon="2.46365">
        <ele>387.9</ele>
        <time>2011-06-04T09:56:06Z</time>
      </trkpt>
      <trkpt lat="44.45679" lon="2.46368">
        <ele>388</ele>
        <time>2011-06-04T09:56:08Z</time>
      </trkpt>
      <trkpt lat="44.45677" lon="2.46374">
        <ele>387.3</ele>
        <time>2011-06-04T09:56:10Z</time>
      </trkpt>
      <trkpt lat="44.45679" lon="2.46383">
        <ele>385.3</ele>
        <time>2011-06-04T09:56:12Z</time>
      </trkpt>
      <trkpt lat="44.45677" lon="2.46389">
        <ele>384.8</ele>
        <time>2011-06-04T09:56:14Z</time>
      </trkpt>
      <trkpt lat="44.45674" lon="2.46391">
        <ele>385.6</ele>
        <time>2011-06-04T09:56:16Z</time>
      </trkpt>
      <trkpt lat="44.45667" lon="2.46392">
        <ele>387.9</ele>
        <time>2011-06-04T09:56:20Z</time>
      </trkpt>
      <trkpt lat="44.4566" lon="2.464">
        <ele>388.8</ele>
        <time>2011-06-04T09:56:28Z</time>
      </trkpt>
      <trkpt lat="44.45657" lon="2.46402">
        <ele>389.3</ele>
        <time>2011-06-04T09:56:32Z</time>
      </trkpt>
      <trkpt lat="44.4565" lon="2.46406">
        <ele>391.1</ele>
        <time>2011-06-04T09:56:37Z</time>
      </trkpt>
      <trkpt lat="44.45639" lon="2.46409">
        <ele>394</ele>
        <time>2011-06-04T09:56:42Z</time>
      </trkpt>
      <trkpt lat="44.45628" lon="2.46416">
        <ele>396.4</ele>
        <time>2011-06-04T09:56:46Z</time>
      </trkpt>
      <trkpt lat="44.4562" lon="2.46419">
        <ele>398.2</ele>
        <time>2011-06-04T09:56:48Z</time>
      </trkpt>
      <trkpt lat="44.45616" lon="2.46421">
        <ele>398.7</ele>
        <time>2011-06-04T09:56:49Z</time>
      </trkpt>
      <trkpt lat="44.45612" lon="2.46424">
        <ele>399.1</ele>
        <time>2011-06-04T09:56:50Z</time>
      </trkpt>
      <trkpt lat="44.45604" lon="2.46434">
        <ele>398</ele>
        <time>2011-06-04T09:56:53Z</time>
      </trkpt>
      <trkpt lat="44.456" lon="2.46438">
        <ele>398</ele>
        <time>2011-06-04T09:56:55Z</time>
      </trkpt>
      <trkpt lat="44.45596" lon="2.46444">
        <ele>397.1</ele>
        <time>2011-06-04T09:56:57Z</time>
      </trkpt>
      <trkpt lat="44.45588" lon="2.46453">
        <ele>396</ele>
        <time>2011-06-04T09:57:00Z</time>
      </trkpt>
      <trkpt lat="44.45585" lon="2.46457">
        <ele>396</ele>
        <time>2011-06-04T09:57:02Z</time>
      </trkpt>
      <trkpt lat="44.4558" lon="2.46463">
        <ele>394.9</ele>
        <time>2011-06-04T09:57:04Z</time>
      </trkpt>
      <trkpt lat="44.45567" lon="2.46484">
        <ele>390.8</ele>
        <time>2011-06-04T09:57:09Z</time>
      </trkpt>
      <trkpt lat="44.45553" lon="2.46501">
        <ele>388.3</ele>
        <time>2011-06-04T09:57:14Z</time>
      </trkpt>
      <trkpt lat="44.45551" lon="2.46504">
        <ele>387.5</ele>
        <time>2011-06-04T09:57:15Z</time>
      </trkpt>
      <trkpt lat="44.45538" lon="2.4653">
        <ele>381.9</ele>
        <time>2011-06-04T09:57:21Z</time>
      </trkpt>
      <trkpt lat="44.45536" lon="2.46534">
        <ele>381</ele>
        <time>2011-06-04T09:57:22Z</time>
      </trkpt>
      <trkpt lat="44.45533" lon="2.46542">
        <ele>378.9</ele>
        <time>2011-06-04T09:57:24Z</time>
      </trkpt>
      <trkpt lat="44.45532" lon="2.4655">
        <ele>376.7</ele>
        <time>2011-06-04T09:57:26Z</time>
      </trkpt>
      <trkpt lat="44.45531" lon="2.46558">
        <ele>374.2</ele>
        <time>2011-06-04T09:57:28Z</time>
      </trkpt>
      <trkpt lat="44.45529" lon="2.46562">
        <ele>373.2</ele>
        <time>2011-06-04T09:57:29Z</time>
      </trkpt>
      <trkpt lat="44.45524" lon="2.46575">
        <ele>370</ele>
        <time>2011-06-04T09:57:33Z</time>
      </trkpt>
      <trkpt lat="44.45522" lon="2.46581">
        <ele>368.1</ele>
        <time>2011-06-04T09:57:35Z</time>
      </trkpt>
      <trkpt lat="44.45515" lon="2.466">
        <ele>364.5</ele>
        <time>2011-06-04T09:57:39Z</time>
      </trkpt>
      <trkpt lat="44.4551" lon="2.46609">
        <ele>363.5</ele>
        <time>2011-06-04T09:57:41Z</time>
      </trkpt>
      <trkpt lat="44.45506" lon="2.46613">
        <ele>362.8</ele>
        <time>2011-06-04T09:57:42Z</time>
      </trkpt>
      <trkpt lat="44.45502" lon="2.46621">
        <ele>362</ele>
        <time>2011-06-04T09:57:44Z</time>
      </trkpt>
      <trkpt lat="44.45497" lon="2.46626">
        <ele>362</ele>
        <time>2011-06-04T09:57:46Z</time>
      </trkpt>
      <trkpt lat="44.45494" lon="2.46629">
        <ele>361.8</ele>
        <time>2011-06-04T09:57:47Z</time>
      </trkpt>
      <trkpt lat="44.45482" lon="2.46647">
        <ele>360.3</ele>
        <time>2011-06-04T09:57:53Z</time>
      </trkpt>
      <trkpt lat="44.45469" lon="2.46663">
        <ele>359.1</ele>
        <time>2011-06-04T09:57:57Z</time>
      </trkpt>
      <trkpt lat="44.45461" lon="2.46674">
        <ele>357.7</ele>
        <time>2011-06-04T09:57:59Z</time>
      </trkpt>
      <trkpt lat="44.45457" lon="2.46682">
        <ele>356.8</ele>
        <time>2011-06-04T09:58:00Z</time>
      </trkpt>
      <trkpt lat="44.45444" lon="2.46704">
        <ele>353.7</ele>
        <time>2011-06-04T09:58:03Z</time>
      </trkpt>
      <trkpt lat="44.45422" lon="2.46736">
        <ele>348.3</ele>
        <time>2011-06-04T09:58:08Z</time>
      </trkpt>
      <trkpt lat="44.45415" lon="2.46748">
        <ele>346.4</ele>
        <time>2011-06-04T09:58:10Z</time>
      </trkpt>
      <trkpt lat="44.45402" lon="2.4677">
        <ele>345.2</ele>
        <time>2011-06-04T09:58:15Z</time>
      </trkpt>
      <trkpt lat="44.454" lon="2.46773">
        <ele>345.2</ele>
        <time>2011-06-04T09:58:16Z</time>
      </trkpt>
      <trkpt lat="44.45397" lon="2.46779">
        <ele>344.8</ele>
        <time>2011-06-04T09:58:18Z</time>
      </trkpt>
      <trkpt lat="44.45388" lon="2.46799">
        <ele>342.8</ele>
        <time>2011-06-04T09:58:23Z</time>
      </trkpt>
      <trkpt lat="44.4537" lon="2.46821">
        <ele>341.5</ele>
        <time>2011-06-04T09:58:28Z</time>
      </trkpt>
      <trkpt lat="44.45365" lon="2.46827">
        <ele>340.9</ele>
        <time>2011-06-04T09:58:30Z</time>
      </trkpt>
      <trkpt lat="44.45356" lon="2.4684">
        <ele>339.3</ele>
        <time>2011-06-04T09:58:35Z</time>
      </trkpt>
      <trkpt lat="44.45356" lon="2.46846">
        <ele>337.7</ele>
        <time>2011-06-04T09:59:15Z</time>
      </trkpt>
      <trkpt lat="44.45351" lon="2.46863">
        <ele>334.9</ele>
        <time>2011-06-04T09:59:21Z</time>
      </trkpt>
      <trkpt lat="44.45343" lon="2.46882">
        <ele>331.7</ele>
        <time>2011-06-04T09:59:24Z</time>
      </trkpt>
      <trkpt lat="44.45336" lon="2.46904">
        <ele>327.6</ele>
        <time>2011-06-04T09:59:27Z</time>
      </trkpt>
      <trkpt lat="44.45334" lon="2.46911">
        <ele>326.4</ele>
        <time>2011-06-04T09:59:28Z</time>
      </trkpt>
      <trkpt lat="44.45331" lon="2.46916">
        <ele>325.7</ele>
        <time>2011-06-04T09:59:29Z</time>
      </trkpt>
      <trkpt lat="44.45313" lon="2.46939">
        <ele>323.1</ele>
        <time>2011-06-04T09:59:33Z</time>
      </trkpt>
      <trkpt lat="44.4531" lon="2.46946">
        <ele>322.1</ele>
        <time>2011-06-04T09:59:34Z</time>
      </trkpt>
      <trkpt lat="44.45304" lon="2.4696">
        <ele>319.6</ele>
        <time>2011-06-04T09:59:36Z</time>
      </trkpt>
      <trkpt lat="44.45302" lon="2.46967">
        <ele>318.4</ele>
        <time>2011-06-04T09:59:37Z</time>
      </trkpt>
      <trkpt lat="44.453" lon="2.46975">
        <ele>316.8</ele>
        <time>2011-06-04T09:59:38Z</time>
      </trkpt>
      <trkpt lat="44.45296" lon="2.47002">
        <ele>310.9</ele>
        <time>2011-06-04T09:59:43Z</time>
      </trkpt>
      <trkpt lat="44.45294" lon="2.4701">
        <ele>310.5</ele>
        <time>2011-06-04T09:59:45Z</time>
      </trkpt>
      <trkpt lat="44.45298" lon="2.47015">
        <ele>309</ele>
        <time>2011-06-04T09:59:48Z</time>
      </trkpt>
      <trkpt lat="44.45303" lon="2.47014">
        <ele>308.4</ele>
        <time>2011-06-04T09:59:49Z</time>
      </trkpt>
      <trkpt lat="44.45308" lon="2.47018">
        <ele>307</ele>
        <time>2011-06-04T10:00:05Z</time>
      </trkpt>
      <trkpt lat="44.45305" lon="2.47034">
        <ele>305.8</ele>
        <time>2011-06-04T10:00:08Z</time>
      </trkpt>
      <trkpt lat="44.45301" lon="2.47043">
        <ele>305.2</ele>
        <time>2011-06-04T10:00:10Z</time>
      </trkpt>
      <trkpt lat="44.45299" lon="2.47047">
        <ele>304.9</ele>
        <time>2011-06-04T10:00:11Z</time>
      </trkpt>
      <trkpt lat="44.45299" lon="2.47056">
        <ele>303.9</ele>
        <time>2011-06-04T10:00:13Z</time>
      </trkpt>
      <trkpt lat="44.45302" lon="2.47064">
        <ele>302.9</ele>
        <time>2011-06-04T10:00:15Z</time>
      </trkpt>
      <trkpt lat="44.45307" lon="2.47081">
        <ele>300.6</ele>
        <time>2011-06-04T10:00:19Z</time>
      </trkpt>
      <trkpt lat="44.45306" lon="2.47088">
        <ele>300.2</ele>
        <time>2011-06-04T10:00:20Z</time>
      </trkpt>
      <trkpt lat="44.45304" lon="2.47108">
        <ele>300</ele>
        <time>2011-06-04T10:00:23Z</time>
      </trkpt>
      <trkpt lat="44.453" lon="2.47116">
        <ele>300</ele>
        <time>2011-06-04T10:00:26Z</time>
      </trkpt>
      <trkpt lat="44.45295" lon="2.47116">
        <ele>300.1</ele>
        <time>2011-06-04T10:00:34Z</time>
      </trkpt>
      <trkpt lat="44.45291" lon="2.47115">
        <ele>300.3</ele>
        <time>2011-06-04T10:00:44Z</time>
      </trkpt>
      <trkpt lat="44.45288" lon="2.47112">
        <ele>300.5</ele>
        <time>2011-06-04T10:00:52Z</time>
      </trkpt>
      <trkpt lat="44.45285" lon="2.47108">
        <ele>300.7</ele>
        <time>2011-06-04T10:00:59Z</time>
      </trkpt>
      <trkpt lat="44.45279" lon="2.47112">
        <ele>300.7</ele>
        <time>2011-06-04T10:01:03Z</time>
      </trkpt>
      <trkpt lat="44.45267" lon="2.47121">
        <ele>300.8</ele>
        <time>2011-06-04T10:01:06Z</time>
      </trkpt>
      <trkpt lat="44.45254" lon="2.47133">
        <ele>300.5</ele>
        <time>2011-06-04T10:01:09Z</time>
      </trkpt>
      <trkpt lat="44.4525" lon="2.47138">
        <ele>300.4</ele>
        <time>2011-06-04T10:01:10Z</time>
      </trkpt>
      <trkpt lat="44.45247" lon="2.47143">
        <ele>300.4</ele>
        <time>2011-06-04T10:01:11Z</time>
      </trkpt>
      <trkpt lat="44.45244" lon="2.47153">
        <ele>300.1</ele>
        <time>2011-06-04T10:01:13Z</time>
      </trkpt>
      <trkpt lat="44.45239" lon="2.47176">
        <ele>299.7</ele>
        <time>2011-06-04T10:01:17Z</time>
      </trkpt>
      <trkpt lat="44.45236" lon="2.47201">
        <ele>300</ele>
        <time>2011-06-04T10:01:22Z</time>
      </trkpt>
      <trkpt lat="44.45234" lon="2.47212">
        <ele>300.2</ele>
        <time>2011-06-04T10:01:24Z</time>
      </trkpt>
      <trkpt lat="44.45233" lon="2.47217">
        <ele>300.3</ele>
        <time>2011-06-04T10:01:25Z</time>
      </trkpt>
      <trkpt lat="44.45225" lon="2.47247">
        <ele>300.6</ele>
        <time>2011-06-04T10:01:31Z</time>
      </trkpt>
      <trkpt lat="44.45221" lon="2.47255">
        <ele>301</ele>
        <time>2011-06-04T10:01:33Z</time>
      </trkpt>
      <trkpt lat="44.45212" lon="2.47274">
        <ele>302.1</ele>
        <time>2011-06-04T10:01:37Z</time>
      </trkpt>
      <trkpt lat="44.45207" lon="2.47282">
        <ele>302.5</ele>
        <time>2011-06-04T10:01:39Z</time>
      </trkpt>
      <trkpt lat="44.45203" lon="2.47286">
        <ele>302.7</ele>
        <time>2011-06-04T10:01:40Z</time>
      </trkpt>
      <trkpt lat="44.45196" lon="2.47292">
        <ele>302.8</ele>
        <time>2011-06-04T10:01:42Z</time>
      </trkpt>
      <trkpt lat="44.45188" lon="2.47297">
        <ele>302.9</ele>
        <time>2011-06-04T10:01:44Z</time>
      </trkpt>
      <trkpt lat="44.45175" lon="2.47304">
        <ele>302.8</ele>
        <time>2011-06-04T10:01:47Z</time>
      </trkpt>
      <trkpt lat="44.45156" lon="2.47318">
        <ele>302.7</ele>
        <time>2011-06-04T10:01:52Z</time>
      </trkpt>
      <trkpt lat="44.45145" lon="2.47328">
        <ele>302.7</ele>
        <time>2011-06-04T10:01:55Z</time>
      </trkpt>
      <trkpt lat="44.45142" lon="2.47332">
        <ele>302.7</ele>
        <time>2011-06-04T10:01:56Z</time>
      </trkpt>
      <trkpt lat="44.45137" lon="2.47342">
        <ele>303.2</ele>
        <time>2011-06-04T10:01:58Z</time>
      </trkpt>
      <trkpt lat="44.45119" lon="2.47373">
        <ele>304.8</ele>
        <time>2011-06-04T10:02:05Z</time>
      </trkpt>
      <trkpt lat="44.45114" lon="2.47381">
        <ele>305.2</ele>
        <time>2011-06-04T10:02:07Z</time>
      </trkpt>
      <trkpt lat="44.45104" lon="2.47398">
        <ele>305.5</ele>
        <time>2011-06-04T10:02:12Z</time>
      </trkpt>
      <trkpt lat="44.45099" lon="2.4741">
        <ele>305.7</ele>
        <time>2011-06-04T10:02:16Z</time>
      </trkpt>
      <trkpt lat="44.45094" lon="2.47424">
        <ele>306.6</ele>
        <time>2011-06-04T10:02:21Z</time>
      </trkpt>
      <trkpt lat="44.45091" lon="2.47429">
        <ele>307</ele>
        <time>2011-06-04T10:02:23Z</time>
      </trkpt>
      <trkpt lat="44.45088" lon="2.47436">
        <ele>307.5</ele>
        <time>2011-06-04T10:02:25Z</time>
      </trkpt>
      <trkpt lat="44.45084" lon="2.47443">
        <ele>307.9</ele>
        <time>2011-06-04T10:02:27Z</time>
      </trkpt>
      <trkpt lat="44.4508" lon="2.47453">
        <ele>308.8</ele>
        <time>2011-06-04T10:02:30Z</time>
      </trkpt>
      <trkpt lat="44.45076" lon="2.4746">
        <ele>309.5</ele>
        <time>2011-06-04T10:02:32Z</time>
      </trkpt>
      <trkpt lat="44.45067" lon="2.47486">
        <ele>311.5</ele>
        <time>2011-06-04T10:02:38Z</time>
      </trkpt>
      <trkpt lat="44.45065" lon="2.47494">
        <ele>312</ele>
        <time>2011-06-04T10:02:40Z</time>
      </trkpt>
      <trkpt lat="44.45064" lon="2.47503">
        <ele>312.9</ele>
        <time>2011-06-04T10:02:42Z</time>
      </trkpt>
      <trkpt lat="44.45062" lon="2.47507">
        <ele>313.5</ele>
        <time>2011-06-04T10:02:43Z</time>
      </trkpt>
      <trkpt lat="44.45061" lon="2.47515">
        <ele>315</ele>
        <time>2011-06-04T10:02:45Z</time>
      </trkpt>
      <trkpt lat="44.45055" lon="2.47538">
        <ele>318.6</ele>
        <time>2011-06-04T10:02:49Z</time>
      </trkpt>
      <trkpt lat="44.45041" lon="2.47573">
        <ele>321.8</ele>
        <time>2011-06-04T10:02:54Z</time>
      </trkpt>
      <trkpt lat="44.45039" lon="2.47581">
        <ele>322.3</ele>
        <time>2011-06-04T10:02:55Z</time>
      </trkpt>
      <trkpt lat="44.45027" lon="2.47629">
        <ele>334.1</ele>
        <time>2011-06-04T10:03:01Z</time>
      </trkpt>
      <trkpt lat="44.45024" lon="2.47637">
        <ele>335.8</ele>
        <time>2011-06-04T10:03:02Z</time>
      </trkpt>
      <trkpt lat="44.45022" lon="2.47644">
        <ele>336.8</ele>
        <time>2011-06-04T10:03:03Z</time>
      </trkpt>
      <trkpt lat="44.45014" lon="2.47657">
        <ele>338.2</ele>
        <time>2011-06-04T10:03:05Z</time>
      </trkpt>
      <trkpt lat="44.45009" lon="2.47663">
        <ele>338.5</ele>
        <time>2011-06-04T10:03:06Z</time>
      </trkpt>
      <trkpt lat="44.44995" lon="2.47677">
        <ele>337.8</ele>
        <time>2011-06-04T10:03:09Z</time>
      </trkpt>
      <trkpt lat="44.44966" lon="2.477">
        <ele>334.7</ele>
        <time>2011-06-04T10:03:15Z</time>
      </trkpt>
      <trkpt lat="44.44951" lon="2.47706">
        <ele>331.3</ele>
        <time>2011-06-04T10:03:18Z</time>
      </trkpt>
      <trkpt lat="44.44946" lon="2.47707">
        <ele>329.4</ele>
        <time>2011-06-04T10:03:19Z</time>
      </trkpt>
      <trkpt lat="44.44931" lon="2.47707">
        <ele>324.5</ele>
        <time>2011-06-04T10:03:22Z</time>
      </trkpt>
      <trkpt lat="44.44927" lon="2.47707">
        <ele>322.4</ele>
        <time>2011-06-04T10:03:23Z</time>
      </trkpt>
      <trkpt lat="44.44918" lon="2.47705">
        <ele>319</ele>
        <time>2011-06-04T10:03:25Z</time>
      </trkpt>
      <trkpt lat="44.4491" lon="2.47707">
        <ele>318.6</ele>
        <time>2011-06-04T10:03:27Z</time>
      </trkpt>
      <trkpt lat="44.44903" lon="2.4771">
        <ele>318.5</ele>
        <time>2011-06-04T10:03:29Z</time>
      </trkpt>
      <trkpt lat="44.44889" lon="2.47713">
        <ele>317.6</ele>
        <time>2011-06-04T10:03:33Z</time>
      </trkpt>
      <trkpt lat="44.44886" lon="2.47713">
        <ele>317.3</ele>
        <time>2011-06-04T10:03:34Z</time>
      </trkpt>
      <trkpt lat="44.44879" lon="2.47715">
        <ele>316.8</ele>
        <time>2011-06-04T10:03:36Z</time>
      </trkpt>
      <trkpt lat="44.44873" lon="2.47714">
        <ele>316.2</ele>
        <time>2011-06-04T10:03:38Z</time>
      </trkpt>
      <trkpt lat="44.44859" lon="2.47716">
        <ele>314.7</ele>
        <time>2011-06-04T10:03:43Z</time>
      </trkpt>
      <trkpt lat="44.44839" lon="2.47721">
        <ele>312.5</ele>
        <time>2011-06-04T10:03:51Z</time>
      </trkpt>
      <trkpt lat="44.44826" lon="2.47728">
        <ele>312.2</ele>
        <time>2011-06-04T10:03:58Z</time>
      </trkpt>
      <trkpt lat="44.44819" lon="2.47733">
        <ele>312.6</ele>
        <time>2011-06-04T10:04:02Z</time>
      </trkpt>
      <trkpt lat="44.4481" lon="2.47738">
        <ele>312.9</ele>
        <time>2011-06-04T10:04:08Z</time>
      </trkpt>
      <trkpt lat="44.44795" lon="2.47748">
        <ele>312.7</ele>
        <time>2011-06-04T10:04:20Z</time>
      </trkpt>
      <trkpt lat="44.44786" lon="2.47754">
        <ele>313.2</ele>
        <time>2011-06-04T10:04:27Z</time>
      </trkpt>
      <trkpt lat="44.44772" lon="2.47772">
        <ele>314.8</ele>
        <time>2011-06-04T10:04:42Z</time>
      </trkpt>
      <trkpt lat="44.44763" lon="2.47784">
        <ele>314.8</ele>
        <time>2011-06-04T10:04:51Z</time>
      </trkpt>
      <trkpt lat="44.44759" lon="2.47792">
        <ele>314.6</ele>
        <time>2011-06-04T10:04:57Z</time>
      </trkpt>
      <trkpt lat="44.44749" lon="2.47808">
        <ele>313.5</ele>
        <time>2011-06-04T10:05:07Z</time>
      </trkpt>
      <trkpt lat="44.44744" lon="2.47817">
        <ele>313.9</ele>
        <time>2011-06-04T10:05:13Z</time>
      </trkpt>
      <trkpt lat="44.44742" lon="2.47822">
        <ele>313.9</ele>
        <time>2011-06-04T10:05:17Z</time>
      </trkpt>
      <trkpt lat="44.44738" lon="2.47827">
        <ele>314</ele>
        <time>2011-06-04T10:05:21Z</time>
      </trkpt>
      <trkpt lat="44.44732" lon="2.47838">
        <ele>314.9</ele>
        <time>2011-06-04T10:05:29Z</time>
      </trkpt>
      <trkpt lat="44.44729" lon="2.47843">
        <ele>316</ele>
        <time>2011-06-04T10:05:32Z</time>
      </trkpt>
      <trkpt lat="44.44726" lon="2.47851">
        <ele>317.4</ele>
        <time>2011-06-04T10:05:37Z</time>
      </trkpt>
      <trkpt lat="44.44721" lon="2.47859">
        <ele>318.7</ele>
        <time>2011-06-04T10:05:41Z</time>
      </trkpt>
      <trkpt lat="44.4472" lon="2.47864">
        <ele>319.5</ele>
        <time>2011-06-04T10:05:44Z</time>
      </trkpt>
      <trkpt lat="44.44716" lon="2.47872">
        <ele>320.5</ele>
        <time>2011-06-04T10:05:48Z</time>
      </trkpt>
      <trkpt lat="44.44708" lon="2.47884">
        <ele>321.4</ele>
        <time>2011-06-04T10:05:54Z</time>
      </trkpt>
      <trkpt lat="44.44698" lon="2.47894">
        <ele>321.4</ele>
        <time>2011-06-04T10:06:00Z</time>
      </trkpt>
      <trkpt lat="44.44693" lon="2.479">
        <ele>321.2</ele>
        <time>2011-06-04T10:06:04Z</time>
      </trkpt>
      <trkpt lat="44.44687" lon="2.47907">
        <ele>320.5</ele>
        <time>2011-06-04T10:06:08Z</time>
      </trkpt>
      <trkpt lat="44.44683" lon="2.47914">
        <ele>320.2</ele>
        <time>2011-06-04T10:06:12Z</time>
      </trkpt>
      <trkpt lat="44.4468" lon="2.47918">
        <ele>319.7</ele>
        <time>2011-06-04T10:06:14Z</time>
      </trkpt>
      <trkpt lat="44.44676" lon="2.47925">
        <ele>319.4</ele>
        <time>2011-06-04T10:06:18Z</time>
      </trkpt>
      <trkpt lat="44.44673" lon="2.47928">
        <ele>319</ele>
        <time>2011-06-04T10:06:20Z</time>
      </trkpt>
      <trkpt lat="44.44664" lon="2.47938">
        <ele>318.7</ele>
        <time>2011-06-04T10:06:26Z</time>
      </trkpt>
      <trkpt lat="44.44659" lon="2.47945">
        <ele>320.1</ele>
        <time>2011-06-04T10:06:30Z</time>
      </trkpt>
      <trkpt lat="44.44656" lon="2.47948">
        <ele>320.8</ele>
        <time>2011-06-04T10:06:32Z</time>
      </trkpt>
      <trkpt lat="44.44646" lon="2.47962">
        <ele>322.7</ele>
        <time>2011-06-04T10:06:40Z</time>
      </trkpt>
      <trkpt lat="44.44629" lon="2.47982">
        <ele>324.4</ele>
        <time>2011-06-04T10:06:52Z</time>
      </trkpt>
      <trkpt lat="44.44627" lon="2.47985">
        <ele>324.4</ele>
        <time>2011-06-04T10:06:54Z</time>
      </trkpt>
      <trkpt lat="44.44623" lon="2.47993">
        <ele>324.3</ele>
        <time>2011-06-04T10:06:59Z</time>
      </trkpt>
      <trkpt lat="44.4461" lon="2.48008">
        <ele>324.1</ele>
        <time>2011-06-04T10:07:09Z</time>
      </trkpt>
      <trkpt lat="44.44603" lon="2.48018">
        <ele>323.8</ele>
        <time>2011-06-04T10:07:15Z</time>
      </trkpt>
      <trkpt lat="44.44599" lon="2.48028">
        <ele>323.4</ele>
        <time>2011-06-04T10:07:21Z</time>
      </trkpt>
      <trkpt lat="44.44598" lon="2.48035">
        <ele>322.9</ele>
        <time>2011-06-04T10:07:25Z</time>
      </trkpt>
      <trkpt lat="44.44597" lon="2.48053">
        <ele>321.6</ele>
        <time>2011-06-04T10:07:36Z</time>
      </trkpt>
      <trkpt lat="44.44598" lon="2.48068">
        <ele>320.8</ele>
        <time>2011-06-04T10:07:45Z</time>
      </trkpt>
      <trkpt lat="44.44595" lon="2.48079">
        <ele>319.8</ele>
        <time>2011-06-04T10:07:51Z</time>
      </trkpt>
      <trkpt lat="44.44594" lon="2.48089">
        <ele>319.1</ele>
        <time>2011-06-04T10:07:57Z</time>
      </trkpt>
      <trkpt lat="44.44592" lon="2.48094">
        <ele>318.9</ele>
        <time>2011-06-04T10:08:00Z</time>
      </trkpt>
      <trkpt lat="44.44588" lon="2.48102">
        <ele>318.3</ele>
        <time>2011-06-04T10:08:04Z</time>
      </trkpt>
      <trkpt lat="44.44586" lon="2.48107">
        <ele>317.8</ele>
        <time>2011-06-04T10:08:07Z</time>
      </trkpt>
      <trkpt lat="44.44585" lon="2.48119">
        <ele>317.4</ele>
        <time>2011-06-04T10:08:13Z</time>
      </trkpt>
      <trkpt lat="44.4459" lon="2.4815">
        <ele>317.6</ele>
        <time>2011-06-04T10:08:19Z</time>
      </trkpt>
      <trkpt lat="44.44591" lon="2.48157">
        <ele>317.6</ele>
        <time>2011-06-04T10:08:20Z</time>
      </trkpt>
      <trkpt lat="44.44593" lon="2.48169">
        <ele>317.8</ele>
        <time>2011-06-04T10:08:22Z</time>
      </trkpt>
      <trkpt lat="44.44597" lon="2.48182">
        <ele>318.5</ele>
        <time>2011-06-04T10:08:24Z</time>
      </trkpt>
      <trkpt lat="44.44601" lon="2.48196">
        <ele>319.2</ele>
        <time>2011-06-04T10:08:26Z</time>
      </trkpt>
      <trkpt lat="44.44608" lon="2.48234">
        <ele>320.1</ele>
        <time>2011-06-04T10:08:31Z</time>
      </trkpt>
      <trkpt lat="44.4461" lon="2.48242">
        <ele>320.2</ele>
        <time>2011-06-04T10:08:32Z</time>
      </trkpt>
      <trkpt lat="44.44613" lon="2.48265">
        <ele>320.4</ele>
        <time>2011-06-04T10:08:35Z</time>
      </trkpt>
      <trkpt lat="44.44614" lon="2.48296">
        <ele>320.2</ele>
        <time>2011-06-04T10:08:39Z</time>
      </trkpt>
      <trkpt lat="44.44617" lon="2.48314">
        <ele>320.3</ele>
        <time>2011-06-04T10:08:41Z</time>
      </trkpt>
      <trkpt lat="44.4462" lon="2.48358">
        <ele>319.4</ele>
        <time>2011-06-04T10:08:46Z</time>
      </trkpt>
      <trkpt lat="44.44621" lon="2.48381">
        <ele>318.8</ele>
        <time>2011-06-04T10:08:49Z</time>
      </trkpt>
      <trkpt lat="44.44621" lon="2.48389">
        <ele>318.6</ele>
        <time>2011-06-04T10:08:50Z</time>
      </trkpt>
      <trkpt lat="44.44621" lon="2.48395">
        <ele>318.4</ele>
        <time>2011-06-04T10:08:51Z</time>
      </trkpt>
      <trkpt lat="44.44623" lon="2.48399">
        <ele>318.4</ele>
        <time>2011-06-04T10:08:53Z</time>
      </trkpt>
      <trkpt lat="44.44628" lon="2.48407">
        <ele>318.5</ele>
        <time>2011-06-04T10:09:00Z</time>
      </trkpt>
      <trkpt lat="44.44634" lon="2.48409">
        <ele>318.9</ele>
        <time>2011-06-04T10:09:02Z</time>
      </trkpt>
      <trkpt lat="44.44647" lon="2.48417">
        <ele>319.5</ele>
        <time>2011-06-04T10:09:05Z</time>
      </trkpt>
      <trkpt lat="44.4466" lon="2.48422">
        <ele>320.8</ele>
        <time>2011-06-04T10:09:08Z</time>
      </trkpt>
      <trkpt lat="44.44671" lon="2.48428">
        <ele>323.7</ele>
        <time>2011-06-04T10:09:11Z</time>
      </trkpt>
      <trkpt lat="44.44683" lon="2.48437">
        <ele>330.1</ele>
        <time>2011-06-04T10:09:18Z</time>
      </trkpt>
      <trkpt lat="44.44688" lon="2.48445">
        <ele>333.6</ele>
        <time>2011-06-04T10:09:24Z</time>
      </trkpt>
      <trkpt lat="44.44691" lon="2.48451">
        <ele>335.4</ele>
        <time>2011-06-04T10:09:27Z</time>
      </trkpt>
      <trkpt lat="44.44694" lon="2.48461">
        <ele>337.6</ele>
        <time>2011-06-04T10:09:31Z</time>
      </trkpt>
      <trkpt lat="44.44695" lon="2.48468">
        <ele>338.4</ele>
        <time>2011-06-04T10:09:33Z</time>
      </trkpt>
      <trkpt lat="44.44695" lon="2.48486">
        <ele>339.8</ele>
        <time>2011-06-04T10:09:38Z</time>
      </trkpt>
      <trkpt lat="44.44694" lon="2.48503">
        <ele>340.2</ele>
        <time>2011-06-04T10:09:42Z</time>
      </trkpt>
      <trkpt lat="44.4469" lon="2.48519">
        <ele>339.7</ele>
        <time>2011-06-04T10:09:46Z</time>
      </trkpt>
      <trkpt lat="44.44687" lon="2.48532">
        <ele>339.5</ele>
        <time>2011-06-04T10:09:49Z</time>
      </trkpt>
      <trkpt lat="44.44686" lon="2.48541">
        <ele>339.5</ele>
        <time>2011-06-04T10:09:51Z</time>
      </trkpt>
      <trkpt lat="44.44684" lon="2.48561">
        <ele>340.2</ele>
        <time>2011-06-04T10:09:55Z</time>
      </trkpt>
      <trkpt lat="44.44683" lon="2.4858">
        <ele>341.5</ele>
        <time>2011-06-04T10:09:59Z</time>
      </trkpt>
      <trkpt lat="44.44682" lon="2.48589">
        <ele>342</ele>
        <time>2011-06-04T10:10:01Z</time>
      </trkpt>
      <trkpt lat="44.44676" lon="2.48616">
        <ele>342.2</ele>
        <time>2011-06-04T10:10:07Z</time>
      </trkpt>
      <trkpt lat="44.44673" lon="2.48623">
        <ele>342.2</ele>
        <time>2011-06-04T10:10:09Z</time>
      </trkpt>
      <trkpt lat="44.44671" lon="2.4863">
        <ele>342.1</ele>
        <time>2011-06-04T10:10:12Z</time>
      </trkpt>
      <trkpt lat="44.44668" lon="2.48635">
        <ele>341.4</ele>
        <time>2011-06-04T10:10:14Z</time>
      </trkpt>
      <trkpt lat="44.44661" lon="2.4864">
        <ele>339.9</ele>
        <time>2011-06-04T10:10:19Z</time>
      </trkpt>
      <trkpt lat="44.44657" lon="2.48641">
        <ele>338.7</ele>
        <time>2011-06-04T10:10:34Z</time>
      </trkpt>
      <trkpt lat="44.44647" lon="2.48648">
        <ele>336.5</ele>
        <time>2011-06-04T10:13:43Z</time>
      </trkpt>
      <trkpt lat="44.44646" lon="2.48633">
        <ele>334.5</ele>
        <time>2011-06-04T10:14:53Z</time>
      </trkpt>
      <trkpt lat="44.44643" lon="2.48634">
        <ele>333.8</ele>
        <time>2011-06-04T10:15:31Z</time>
      </trkpt>
      <trkpt lat="44.44638" lon="2.48635">
        <ele>332.5</ele>
        <time>2011-06-04T10:16:11Z</time>
      </trkpt>
      <trkpt lat="44.44645" lon="2.4864">
        <ele>335.1</ele>
        <time>2011-06-04T10:16:54Z</time>
      </trkpt>
      <trkpt lat="44.4465" lon="2.4864">
        <ele>336.4</ele>
        <time>2011-06-04T10:17:12Z</time>
      </trkpt>
      <trkpt lat="44.44654" lon="2.48638">
        <ele>337.6</ele>
        <time>2011-06-04T10:18:10Z</time>
      </trkpt>
      <trkpt lat="44.44655" lon="2.48645">
        <ele>338.5</ele>
        <time>2011-06-04T10:18:52Z</time>
      </trkpt>
      <trkpt lat="44.4465" lon="2.48669">
        <ele>339.8</ele>
        <time>2011-06-04T10:19:44Z</time>
      </trkpt>
      <trkpt lat="44.44646" lon="2.48683">
        <ele>339.7</ele>
        <time>2011-06-04T10:19:48Z</time>
      </trkpt>
      <trkpt lat="44.44639" lon="2.48711">
        <ele>340.2</ele>
        <time>2011-06-04T10:19:56Z</time>
      </trkpt>
      <trkpt lat="44.44637" lon="2.4872">
        <ele>340.7</ele>
        <time>2011-06-04T10:19:59Z</time>
      </trkpt>
      <trkpt lat="44.44629" lon="2.4876">
        <ele>341.6</ele>
        <time>2011-06-04T10:20:12Z</time>
      </trkpt>
      <trkpt lat="44.44624" lon="2.48781">
        <ele>341.3</ele>
        <time>2011-06-04T10:20:18Z</time>
      </trkpt>
      <trkpt lat="44.44618" lon="2.48809">
        <ele>341.2</ele>
        <time>2011-06-04T10:20:26Z</time>
      </trkpt>
      <trkpt lat="44.44615" lon="2.48829">
        <ele>341.3</ele>
        <time>2011-06-04T10:20:32Z</time>
      </trkpt>
      <trkpt lat="44.44612" lon="2.48858">
        <ele>343.8</ele>
        <time>2011-06-04T10:20:40Z</time>
      </trkpt>
      <trkpt lat="44.44612" lon="2.48892">
        <ele>348.2</ele>
        <time>2011-06-04T10:20:49Z</time>
      </trkpt>
      <trkpt lat="44.44611" lon="2.48911">
        <ele>350.4</ele>
        <time>2011-06-04T10:20:54Z</time>
      </trkpt>
      <trkpt lat="44.44609" lon="2.48926">
        <ele>352.1</ele>
        <time>2011-06-04T10:20:58Z</time>
      </trkpt>
      <trkpt lat="44.44604" lon="2.48947">
        <ele>354.6</ele>
        <time>2011-06-04T10:21:04Z</time>
      </trkpt>
      <trkpt lat="44.44598" lon="2.48968">
        <ele>356.5</ele>
        <time>2011-06-04T10:21:10Z</time>
      </trkpt>
      <trkpt lat="44.44597" lon="2.48976">
        <ele>357.3</ele>
        <time>2011-06-04T10:21:12Z</time>
      </trkpt>
      <trkpt lat="44.44591" lon="2.48995">
        <ele>359</ele>
        <time>2011-06-04T10:21:17Z</time>
      </trkpt>
      <trkpt lat="44.44582" lon="2.49022">
        <ele>359.9</ele>
        <time>2011-06-04T10:21:24Z</time>
      </trkpt>
      <trkpt lat="44.44574" lon="2.49049">
        <ele>360.1</ele>
        <time>2011-06-04T10:21:30Z</time>
      </trkpt>
      <trkpt lat="44.44565" lon="2.49082">
        <ele>359.8</ele>
        <time>2011-06-04T10:21:37Z</time>
      </trkpt>
      <trkpt lat="44.44563" lon="2.49086">
        <ele>359.9</ele>
        <time>2011-06-04T10:21:38Z</time>
      </trkpt>
      <trkpt lat="44.44556" lon="2.49112">
        <ele>361.2</ele>
        <time>2011-06-04T10:21:44Z</time>
      </trkpt>
      <trkpt lat="44.44552" lon="2.49131">
        <ele>362.3</ele>
        <time>2011-06-04T10:21:48Z</time>
      </trkpt>
      <trkpt lat="44.44548" lon="2.4916">
        <ele>364.8</ele>
        <time>2011-06-04T10:21:54Z</time>
      </trkpt>
      <trkpt lat="44.44545" lon="2.4919">
        <ele>366.7</ele>
        <time>2011-06-04T10:22:00Z</time>
      </trkpt>
      <trkpt lat="44.44541" lon="2.49215">
        <ele>367.5</ele>
        <time>2011-06-04T10:22:05Z</time>
      </trkpt>
      <trkpt lat="44.44538" lon="2.49244">
        <ele>368.7</ele>
        <time>2011-06-04T10:22:11Z</time>
      </trkpt>
      <trkpt lat="44.44536" lon="2.49254">
        <ele>368.3</ele>
        <time>2011-06-04T10:22:13Z</time>
      </trkpt>
      <trkpt lat="44.44534" lon="2.49269">
        <ele>366.7</ele>
        <time>2011-06-04T10:22:16Z</time>
      </trkpt>
      <trkpt lat="44.44532" lon="2.49278">
        <ele>365.4</ele>
        <time>2011-06-04T10:22:18Z</time>
      </trkpt>
      <trkpt lat="44.44528" lon="2.49303">
        <ele>362.3</ele>
        <time>2011-06-04T10:22:23Z</time>
      </trkpt>
      <trkpt lat="44.44522" lon="2.49327">
        <ele>358.8</ele>
        <time>2011-06-04T10:22:28Z</time>
      </trkpt>
      <trkpt lat="44.44516" lon="2.49345">
        <ele>355.2</ele>
        <time>2011-06-04T10:22:32Z</time>
      </trkpt>
      <trkpt lat="44.44512" lon="2.49358">
        <ele>352.2</ele>
        <time>2011-06-04T10:22:35Z</time>
      </trkpt>
      <trkpt lat="44.44505" lon="2.49374">
        <ele>347.8</ele>
        <time>2011-06-04T10:22:39Z</time>
      </trkpt>
      <trkpt lat="44.44495" lon="2.49394">
        <ele>343.4</ele>
        <time>2011-06-04T10:22:44Z</time>
      </trkpt>
      <trkpt lat="44.44489" lon="2.49405">
        <ele>341.8</ele>
        <time>2011-06-04T10:22:47Z</time>
      </trkpt>
      <trkpt lat="44.44475" lon="2.49428">
        <ele>341.3</ele>
        <time>2011-06-04T10:22:54Z</time>
      </trkpt>
      <trkpt lat="44.4447" lon="2.49432">
        <ele>342</ele>
        <time>2011-06-04T10:22:56Z</time>
      </trkpt>
      <trkpt lat="44.44464" lon="2.49435">
        <ele>342</ele>
        <time>2011-06-04T10:22:58Z</time>
      </trkpt>
      <trkpt lat="44.44455" lon="2.49436">
        <ele>341.2</ele>
        <time>2011-06-04T10:23:00Z</time>
      </trkpt>
      <trkpt lat="44.44449" lon="2.49435">
        <ele>340.6</ele>
        <time>2011-06-04T10:23:01Z</time>
      </trkpt>
      <trkpt lat="44.44442" lon="2.49432">
        <ele>339.4</ele>
        <time>2011-06-04T10:23:02Z</time>
      </trkpt>
      <trkpt lat="44.44425" lon="2.49425">
        <ele>335.9</ele>
        <time>2011-06-04T10:23:04Z</time>
      </trkpt>
      <trkpt lat="44.44417" lon="2.49425">
        <ele>335.1</ele>
        <time>2011-06-04T10:23:05Z</time>
      </trkpt>
      <trkpt lat="44.4441" lon="2.49426">
        <ele>335.1</ele>
        <time>2011-06-04T10:23:06Z</time>
      </trkpt>
      <trkpt lat="44.44405" lon="2.49429">
        <ele>335.5</ele>
        <time>2011-06-04T10:23:07Z</time>
      </trkpt>
      <trkpt lat="44.44402" lon="2.49432">
        <ele>336.1</ele>
        <time>2011-06-04T10:23:08Z</time>
      </trkpt>
      <trkpt lat="44.44405" lon="2.49441">
        <ele>338.2</ele>
        <time>2011-06-04T10:23:10Z</time>
      </trkpt>
      <trkpt lat="44.44403" lon="2.49449">
        <ele>339.8</ele>
        <time>2011-06-04T10:23:12Z</time>
      </trkpt>
      <trkpt lat="44.44398" lon="2.49456">
        <ele>340.9</ele>
        <time>2011-06-04T10:23:14Z</time>
      </trkpt>
      <trkpt lat="44.44394" lon="2.49466">
        <ele>342.2</ele>
        <time>2011-06-04T10:23:16Z</time>
      </trkpt>
      <trkpt lat="44.44392" lon="2.49476">
        <ele>343.9</ele>
        <time>2011-06-04T10:23:18Z</time>
      </trkpt>
      <trkpt lat="44.4439" lon="2.49501">
        <ele>348.4</ele>
        <time>2011-06-04T10:23:23Z</time>
      </trkpt>
      <trkpt lat="44.44389" lon="2.49509">
        <ele>350.4</ele>
        <time>2011-06-04T10:23:25Z</time>
      </trkpt>
      <trkpt lat="44.44386" lon="2.49515">
        <ele>350.9</ele>
        <time>2011-06-04T10:23:27Z</time>
      </trkpt>
      <trkpt lat="44.44381" lon="2.49516">
        <ele>349.8</ele>
        <time>2011-06-04T10:23:29Z</time>
      </trkpt>
      <trkpt lat="44.44376" lon="2.49515">
        <ele>348</ele>
        <time>2011-06-04T10:23:31Z</time>
      </trkpt>
      <trkpt lat="44.44371" lon="2.49511">
        <ele>345.8</ele>
        <time>2011-06-04T10:23:33Z</time>
      </trkpt>
      <trkpt lat="44.44365" lon="2.49505">
        <ele>342.8</ele>
        <time>2011-06-04T10:23:36Z</time>
      </trkpt>
      <trkpt lat="44.44357" lon="2.49503">
        <ele>340.4</ele>
        <time>2011-06-04T10:23:40Z</time>
      </trkpt>
      <trkpt lat="44.44354" lon="2.49507">
        <ele>340.3</ele>
        <time>2011-06-04T10:23:42Z</time>
      </trkpt>
      <trkpt lat="44.44351" lon="2.49512">
        <ele>340.6</ele>
        <time>2011-06-04T10:23:44Z</time>
      </trkpt>
      <trkpt lat="44.44348" lon="2.49522">
        <ele>341.2</ele>
        <time>2011-06-04T10:23:48Z</time>
      </trkpt>
      <trkpt lat="44.44341" lon="2.4954">
        <ele>342.1</ele>
        <time>2011-06-04T10:23:56Z</time>
      </trkpt>
      <trkpt lat="44.44338" lon="2.49545">
        <ele>341.9</ele>
        <time>2011-06-04T10:23:59Z</time>
      </trkpt>
      <trkpt lat="44.44332" lon="2.49553">
        <ele>341.4</ele>
        <time>2011-06-04T10:24:04Z</time>
      </trkpt>
      <trkpt lat="44.44317" lon="2.4957">
        <ele>342.4</ele>
        <time>2011-06-04T10:24:17Z</time>
      </trkpt>
      <trkpt lat="44.44303" lon="2.49581">
        <ele>341.8</ele>
        <time>2011-06-04T10:24:29Z</time>
      </trkpt>
      <trkpt lat="44.443" lon="2.49584">
        <ele>341.5</ele>
        <time>2011-06-04T10:24:32Z</time>
      </trkpt>
      <trkpt lat="44.44295" lon="2.49592">
        <ele>341.5</ele>
        <time>2011-06-04T10:24:36Z</time>
      </trkpt>
      <trkpt lat="44.44285" lon="2.49617">
        <ele>341.8</ele>
        <time>2011-06-04T10:24:50Z</time>
      </trkpt>
      <trkpt lat="44.44282" lon="2.49629">
        <ele>341.9</ele>
        <time>2011-06-04T10:24:58Z</time>
      </trkpt>
      <trkpt lat="44.44282" lon="2.49634">
        <ele>342.1</ele>
        <time>2011-06-04T10:25:03Z</time>
      </trkpt>
      <trkpt lat="44.44279" lon="2.49643">
        <ele>342.2</ele>
        <time>2011-06-04T10:25:10Z</time>
      </trkpt>
      <trkpt lat="44.44274" lon="2.49656">
        <ele>341.5</ele>
        <time>2011-06-04T10:25:18Z</time>
      </trkpt>
      <trkpt lat="44.44272" lon="2.4966">
        <ele>341.2</ele>
        <time>2011-06-04T10:25:20Z</time>
      </trkpt>
      <trkpt lat="44.4426" lon="2.49681">
        <ele>338.9</ele>
        <time>2011-06-04T10:25:32Z</time>
      </trkpt>
      <trkpt lat="44.44256" lon="2.49688">
        <ele>337.9</ele>
        <time>2011-06-04T10:25:36Z</time>
      </trkpt>
      <trkpt lat="44.44253" lon="2.49695">
        <ele>337.5</ele>
        <time>2011-06-04T10:25:40Z</time>
      </trkpt>
      <trkpt lat="44.44243" lon="2.49711">
        <ele>338.4</ele>
        <time>2011-06-04T10:25:50Z</time>
      </trkpt>
      <trkpt lat="44.44237" lon="2.49719">
        <ele>339.4</ele>
        <time>2011-06-04T10:25:58Z</time>
      </trkpt>
      <trkpt lat="44.44222" lon="2.4974">
        <ele>340.2</ele>
        <time>2011-06-04T10:26:27Z</time>
      </trkpt>
      <trkpt lat="44.44219" lon="2.49743">
        <ele>340.3</ele>
        <time>2011-06-04T10:26:31Z</time>
      </trkpt>
      <trkpt lat="44.4421" lon="2.49754">
        <ele>340.2</ele>
        <time>2011-06-04T10:26:45Z</time>
      </trkpt>
      <trkpt lat="44.44203" lon="2.49759">
        <ele>340.5</ele>
        <time>2011-06-04T10:26:53Z</time>
      </trkpt>
      <trkpt lat="44.44196" lon="2.49765">
        <ele>340.7</ele>
        <time>2011-06-04T10:27:02Z</time>
      </trkpt>
      <trkpt lat="44.44188" lon="2.4978">
        <ele>340.8</ele>
        <time>2011-06-04T10:27:17Z</time>
      </trkpt>
      <trkpt lat="44.44183" lon="2.49787">
        <ele>340.5</ele>
        <time>2011-06-04T10:27:26Z</time>
      </trkpt>
      <trkpt lat="44.44173" lon="2.49796">
        <ele>339.6</ele>
        <time>2011-06-04T10:27:39Z</time>
      </trkpt>
      <trkpt lat="44.4417" lon="2.498">
        <ele>339.2</ele>
        <time>2011-06-04T10:27:44Z</time>
      </trkpt>
      <trkpt lat="44.44159" lon="2.4981">
        <ele>340.6</ele>
        <time>2011-06-04T10:27:59Z</time>
      </trkpt>
      <trkpt lat="44.44152" lon="2.49814">
        <ele>342.3</ele>
        <time>2011-06-04T10:28:09Z</time>
      </trkpt>
      <trkpt lat="44.44146" lon="2.49816">
        <ele>343.6</ele>
        <time>2011-06-04T10:28:15Z</time>
      </trkpt>
      <trkpt lat="44.44139" lon="2.49815">
        <ele>345.5</ele>
        <time>2011-06-04T10:28:24Z</time>
      </trkpt>
      <trkpt lat="44.44132" lon="2.49813">
        <ele>347.6</ele>
        <time>2011-06-04T10:28:35Z</time>
      </trkpt>
      <trkpt lat="44.4412" lon="2.49816">
        <ele>350.3</ele>
        <time>2011-06-04T10:28:44Z</time>
      </trkpt>
      <trkpt lat="44.44114" lon="2.49813">
        <ele>352.3</ele>
        <time>2011-06-04T10:28:49Z</time>
      </trkpt>
      <trkpt lat="44.4411" lon="2.4981">
        <ele>353.9</ele>
        <time>2011-06-04T10:28:52Z</time>
      </trkpt>
      <trkpt lat="44.44105" lon="2.49802">
        <ele>356.7</ele>
        <time>2011-06-04T10:28:58Z</time>
      </trkpt>
      <trkpt lat="44.44098" lon="2.49796">
        <ele>359.9</ele>
        <time>2011-06-04T10:29:04Z</time>
      </trkpt>
      <trkpt lat="44.44089" lon="2.49785">
        <ele>365.7</ele>
        <time>2011-06-04T10:29:13Z</time>
      </trkpt>
      <trkpt lat="44.44077" lon="2.49776">
        <ele>370.6</ele>
        <time>2011-06-04T10:29:22Z</time>
      </trkpt>
      <trkpt lat="44.44074" lon="2.49775">
        <ele>370.9</ele>
        <time>2011-06-04T10:29:24Z</time>
      </trkpt>
      <trkpt lat="44.44057" lon="2.49766">
        <ele>375.1</ele>
        <time>2011-06-04T10:29:36Z</time>
      </trkpt>
      <trkpt lat="44.4405" lon="2.49763">
        <ele>376.4</ele>
        <time>2011-06-04T10:29:40Z</time>
      </trkpt>
      <trkpt lat="44.44043" lon="2.49759">
        <ele>378.2</ele>
        <time>2011-06-04T10:29:44Z</time>
      </trkpt>
      <trkpt lat="44.4404" lon="2.49757">
        <ele>378.9</ele>
        <time>2011-06-04T10:29:46Z</time>
      </trkpt>
      <trkpt lat="44.44032" lon="2.49757">
        <ele>379.6</ele>
        <time>2011-06-04T10:29:50Z</time>
      </trkpt>
      <trkpt lat="44.44028" lon="2.49759">
        <ele>379.8</ele>
        <time>2011-06-04T10:29:52Z</time>
      </trkpt>
      <trkpt lat="44.44021" lon="2.49762">
        <ele>379.9</ele>
        <time>2011-06-04T10:29:56Z</time>
      </trkpt>
      <trkpt lat="44.44013" lon="2.49763">
        <ele>380.5</ele>
        <time>2011-06-04T10:30:12Z</time>
      </trkpt>
      <trkpt lat="44.44008" lon="2.49762">
        <ele>381.3</ele>
        <time>2011-06-04T10:30:18Z</time>
      </trkpt>
      <trkpt lat="44.44001" lon="2.49764">
        <ele>381.6</ele>
        <time>2011-06-04T10:30:33Z</time>
      </trkpt>
      <trkpt lat="44.43997" lon="2.49765">
        <ele>382</ele>
        <time>2011-06-04T10:30:40Z</time>
      </trkpt>
      <trkpt lat="44.4399" lon="2.49759">
        <ele>383.5</ele>
        <time>2011-06-04T10:31:07Z</time>
      </trkpt>
      <trkpt lat="44.43988" lon="2.49754">
        <ele>384.4</ele>
        <time>2011-06-04T10:31:13Z</time>
      </trkpt>
      <trkpt lat="44.43984" lon="2.4975">
        <ele>385.5</ele>
        <time>2011-06-04T10:31:20Z</time>
      </trkpt>
      <trkpt lat="44.43974" lon="2.49743">
        <ele>387.2</ele>
        <time>2011-06-04T10:31:35Z</time>
      </trkpt>
      <trkpt lat="44.4397" lon="2.4974">
        <ele>388</ele>
        <time>2011-06-04T10:31:40Z</time>
      </trkpt>
      <trkpt lat="44.43962" lon="2.49737">
        <ele>389.1</ele>
        <time>2011-06-04T10:31:51Z</time>
      </trkpt>
      <trkpt lat="44.43948" lon="2.49724">
        <ele>392.7</ele>
        <time>2011-06-04T10:32:11Z</time>
      </trkpt>
      <trkpt lat="44.43945" lon="2.49719">
        <ele>393.6</ele>
        <time>2011-06-04T10:32:24Z</time>
      </trkpt>
      <trkpt lat="44.43938" lon="2.49713">
        <ele>395.4</ele>
        <time>2011-06-04T10:32:44Z</time>
      </trkpt>
      <trkpt lat="44.4393" lon="2.49705">
        <ele>397.6</ele>
        <time>2011-06-04T10:32:50Z</time>
      </trkpt>
      <trkpt lat="44.43919" lon="2.49697">
        <ele>400.3</ele>
        <time>2011-06-04T10:32:56Z</time>
      </trkpt>
      <trkpt lat="44.43916" lon="2.49695">
        <ele>401.1</ele>
        <time>2011-06-04T10:32:58Z</time>
      </trkpt>
      <trkpt lat="44.4391" lon="2.49692">
        <ele>401.9</ele>
        <time>2011-06-04T10:33:01Z</time>
      </trkpt>
      <trkpt lat="44.43905" lon="2.49692">
        <ele>402.1</ele>
        <time>2011-06-04T10:33:03Z</time>
      </trkpt>
      <trkpt lat="44.43892" lon="2.49688">
        <ele>403.5</ele>
        <time>2011-06-04T10:33:13Z</time>
      </trkpt>
      <trkpt lat="44.43888" lon="2.49686">
        <ele>404.1</ele>
        <time>2011-06-04T10:33:16Z</time>
      </trkpt>
      <trkpt lat="44.43883" lon="2.49679">
        <ele>405.7</ele>
        <time>2011-06-04T10:33:21Z</time>
      </trkpt>
      <trkpt lat="44.4388" lon="2.49672">
        <ele>407.2</ele>
        <time>2011-06-04T10:33:25Z</time>
      </trkpt>
      <trkpt lat="44.43869" lon="2.49656">
        <ele>411.2</ele>
        <time>2011-06-04T10:33:35Z</time>
      </trkpt>
      <trkpt lat="44.43865" lon="2.49649">
        <ele>413.1</ele>
        <time>2011-06-04T10:33:39Z</time>
      </trkpt>
      <trkpt lat="44.43858" lon="2.49643">
        <ele>415.1</ele>
        <time>2011-06-04T10:33:43Z</time>
      </trkpt>
      <trkpt lat="44.43852" lon="2.49638">
        <ele>416.5</ele>
        <time>2011-06-04T10:33:47Z</time>
      </trkpt>
      <trkpt lat="44.4383" lon="2.49631">
        <ele>419.6</ele>
        <time>2011-06-04T10:33:59Z</time>
      </trkpt>
      <trkpt lat="44.43807" lon="2.49625">
        <ele>420.1</ele>
        <time>2011-06-04T10:34:11Z</time>
      </trkpt>
      <trkpt lat="44.43792" lon="2.49621">
        <ele>420.1</ele>
        <time>2011-06-04T10:34:19Z</time>
      </trkpt>
      <trkpt lat="44.43785" lon="2.49618">
        <ele>420.8</ele>
        <time>2011-06-04T10:34:23Z</time>
      </trkpt>
      <trkpt lat="44.4378" lon="2.49618">
        <ele>420.6</ele>
        <time>2011-06-04T10:34:26Z</time>
      </trkpt>
      <trkpt lat="44.43776" lon="2.4962">
        <ele>419.7</ele>
        <time>2011-06-04T10:34:29Z</time>
      </trkpt>
      <trkpt lat="44.43769" lon="2.49626">
        <ele>417.9</ele>
        <time>2011-06-04T10:34:35Z</time>
      </trkpt>
      <trkpt lat="44.43763" lon="2.49629">
        <ele>416.9</ele>
        <time>2011-06-04T10:34:40Z</time>
      </trkpt>
      <trkpt lat="44.43759" lon="2.49632">
        <ele>415.6</ele>
        <time>2011-06-04T10:34:42Z</time>
      </trkpt>
      <trkpt lat="44.43755" lon="2.49636">
        <ele>414.3</ele>
        <time>2011-06-04T10:34:44Z</time>
      </trkpt>
      <trkpt lat="44.43743" lon="2.49651">
        <ele>410.8</ele>
        <time>2011-06-04T10:34:48Z</time>
      </trkpt>
      <trkpt lat="44.4374" lon="2.49661">
        <ele>408.8</ele>
        <time>2011-06-04T10:34:50Z</time>
      </trkpt>
      <trkpt lat="44.43738" lon="2.49674">
        <ele>406</ele>
        <time>2011-06-04T10:34:52Z</time>
      </trkpt>
      <trkpt lat="44.43738" lon="2.4968">
        <ele>404.9</ele>
        <time>2011-06-04T10:34:53Z</time>
      </trkpt>
      <trkpt lat="44.43736" lon="2.49685">
        <ele>404.2</ele>
        <time>2011-06-04T10:34:54Z</time>
      </trkpt>
      <trkpt lat="44.43735" lon="2.49695">
        <ele>402.7</ele>
        <time>2011-06-04T10:34:56Z</time>
      </trkpt>
      <trkpt lat="44.43735" lon="2.49704">
        <ele>400.9</ele>
        <time>2011-06-04T10:34:58Z</time>
      </trkpt>
      <trkpt lat="44.43734" lon="2.49717">
        <ele>398.7</ele>
        <time>2011-06-04T10:35:01Z</time>
      </trkpt>
      <trkpt lat="44.43733" lon="2.49724">
        <ele>397.5</ele>
        <time>2011-06-04T10:35:03Z</time>
      </trkpt>
      <trkpt lat="44.4373" lon="2.49732">
        <ele>396.8</ele>
        <time>2011-06-04T10:35:05Z</time>
      </trkpt>
      <trkpt lat="44.43731" lon="2.4974">
        <ele>395.2</ele>
        <time>2011-06-04T10:35:07Z</time>
      </trkpt>
      <trkpt lat="44.43732" lon="2.49747">
        <ele>393.6</ele>
        <time>2011-06-04T10:35:09Z</time>
      </trkpt>
      <trkpt lat="44.43731" lon="2.49756">
        <ele>392.4</ele>
        <time>2011-06-04T10:35:11Z</time>
      </trkpt>
      <trkpt lat="44.4373" lon="2.49762">
        <ele>392.3</ele>
        <time>2011-06-04T10:35:12Z</time>
      </trkpt>
      <trkpt lat="44.43727" lon="2.4977">
        <ele>392.1</ele>
        <time>2011-06-04T10:35:14Z</time>
      </trkpt>
      <trkpt lat="44.43724" lon="2.49777">
        <ele>392.6</ele>
        <time>2011-06-04T10:35:16Z</time>
      </trkpt>
      <trkpt lat="44.43719" lon="2.4979">
        <ele>392.9</ele>
        <time>2011-06-04T10:35:20Z</time>
      </trkpt>
      <trkpt lat="44.43706" lon="2.49817">
        <ele>394.8</ele>
        <time>2011-06-04T10:35:31Z</time>
      </trkpt>
      <trkpt lat="44.43704" lon="2.49821">
        <ele>395.3</ele>
        <time>2011-06-04T10:35:33Z</time>
      </trkpt>
      <trkpt lat="44.43701" lon="2.49829">
        <ele>395.7</ele>
        <time>2011-06-04T10:35:37Z</time>
      </trkpt>
      <trkpt lat="44.43697" lon="2.49838">
        <ele>396.6</ele>
        <time>2011-06-04T10:35:42Z</time>
      </trkpt>
      <trkpt lat="44.4369" lon="2.49861">
        <ele>397.3</ele>
        <time>2011-06-04T10:35:54Z</time>
      </trkpt>
      <trkpt lat="44.4369" lon="2.49867">
        <ele>397</ele>
        <time>2011-06-04T10:36:00Z</time>
      </trkpt>
      <trkpt lat="44.43685" lon="2.49883">
        <ele>397.8</ele>
        <time>2011-06-04T10:36:09Z</time>
      </trkpt>
      <trkpt lat="44.43678" lon="2.49895">
        <ele>399.4</ele>
        <time>2011-06-04T10:36:16Z</time>
      </trkpt>
      <trkpt lat="44.43672" lon="2.49902">
        <ele>401.2</ele>
        <time>2011-06-04T10:36:23Z</time>
      </trkpt>
      <trkpt lat="44.43668" lon="2.49908">
        <ele>402.2</ele>
        <time>2011-06-04T10:36:33Z</time>
      </trkpt>
      <trkpt lat="44.43659" lon="2.49918">
        <ele>404.1</ele>
        <time>2011-06-04T10:37:01Z</time>
      </trkpt>
      <trkpt lat="44.43655" lon="2.49921">
        <ele>404.9</ele>
        <time>2011-06-04T10:37:12Z</time>
      </trkpt>
      <trkpt lat="44.43647" lon="2.49925">
        <ele>406.5</ele>
        <time>2011-06-04T10:37:22Z</time>
      </trkpt>
      <trkpt lat="44.4364" lon="2.49931">
        <ele>408</ele>
        <time>2011-06-04T10:37:35Z</time>
      </trkpt>
      <trkpt lat="44.43632" lon="2.49935">
        <ele>409.7</ele>
        <time>2011-06-04T10:37:48Z</time>
      </trkpt>
      <trkpt lat="44.43614" lon="2.49949">
        <ele>413.5</ele>
        <time>2011-06-04T10:38:20Z</time>
      </trkpt>
      <trkpt lat="44.43611" lon="2.49953">
        <ele>413.8</ele>
        <time>2011-06-04T10:38:25Z</time>
      </trkpt>
      <trkpt lat="44.43609" lon="2.4996">
        <ele>413.7</ele>
        <time>2011-06-04T10:38:44Z</time>
      </trkpt>
      <trkpt lat="44.43604" lon="2.49977">
        <ele>413.3</ele>
        <time>2011-06-04T10:38:53Z</time>
      </trkpt>
      <trkpt lat="44.43595" lon="2.49993">
        <ele>414.1</ele>
        <time>2011-06-04T10:39:01Z</time>
      </trkpt>
      <trkpt lat="44.43592" lon="2.49998">
        <ele>414.6</ele>
        <time>2011-06-04T10:39:03Z</time>
      </trkpt>
      <trkpt lat="44.43589" lon="2.50004">
        <ele>414.8</ele>
        <time>2011-06-04T10:39:05Z</time>
      </trkpt>
      <trkpt lat="44.43582" lon="2.50013">
        <ele>415.2</ele>
        <time>2011-06-04T10:39:08Z</time>
      </trkpt>
      <trkpt lat="44.43563" lon="2.50033">
        <ele>416.9</ele>
        <time>2011-06-04T10:39:13Z</time>
      </trkpt>
      <trkpt lat="44.43559" lon="2.50037">
        <ele>417.3</ele>
        <time>2011-06-04T10:39:14Z</time>
      </trkpt>
      <trkpt lat="44.43554" lon="2.5004">
        <ele>418</ele>
        <time>2011-06-04T10:39:15Z</time>
      </trkpt>
      <trkpt lat="44.43547" lon="2.50044">
        <ele>419.3</ele>
        <time>2011-06-04T10:39:17Z</time>
      </trkpt>
      <trkpt lat="44.4354" lon="2.50048">
        <ele>420</ele>
        <time>2011-06-04T10:39:19Z</time>
      </trkpt>
      <trkpt lat="44.4352" lon="2.50061">
        <ele>423</ele>
        <time>2011-06-04T10:39:25Z</time>
      </trkpt>
      <trkpt lat="44.43514" lon="2.50066">
        <ele>423.6</ele>
        <time>2011-06-04T10:39:27Z</time>
      </trkpt>
      <trkpt lat="44.43509" lon="2.50073">
        <ele>423.2</ele>
        <time>2011-06-04T10:39:29Z</time>
      </trkpt>
      <trkpt lat="44.43506" lon="2.50077">
        <ele>422.9</ele>
        <time>2011-06-04T10:39:30Z</time>
      </trkpt>
      <trkpt lat="44.43487" lon="2.50113">
        <ele>419.6</ele>
        <time>2011-06-04T10:39:37Z</time>
      </trkpt>
      <trkpt lat="44.43484" lon="2.50119">
        <ele>419.4</ele>
        <time>2011-06-04T10:39:38Z</time>
      </trkpt>
      <trkpt lat="44.43479" lon="2.50128">
        <ele>418.7</ele>
        <time>2011-06-04T10:39:40Z</time>
      </trkpt>
      <trkpt lat="44.43477" lon="2.50133">
        <ele>418</ele>
        <time>2011-06-04T10:39:41Z</time>
      </trkpt>
      <trkpt lat="44.43475" lon="2.50144">
        <ele>416.6</ele>
        <time>2011-06-04T10:39:43Z</time>
      </trkpt>
      <trkpt lat="44.43473" lon="2.50156">
        <ele>415.1</ele>
        <time>2011-06-04T10:39:45Z</time>
      </trkpt>
      <trkpt lat="44.43461" lon="2.50182">
        <ele>414.1</ele>
        <time>2011-06-04T10:39:50Z</time>
      </trkpt>
      <trkpt lat="44.43459" lon="2.50186">
        <ele>414.1</ele>
        <time>2011-06-04T10:39:51Z</time>
      </trkpt>
      <trkpt lat="44.43444" lon="2.50209">
        <ele>415.7</ele>
        <time>2011-06-04T10:39:57Z</time>
      </trkpt>
      <trkpt lat="44.43429" lon="2.50232">
        <ele>418.3</ele>
        <time>2011-06-04T10:40:02Z</time>
      </trkpt>
      <trkpt lat="44.43422" lon="2.5024">
        <ele>419.9</ele>
        <time>2011-06-04T10:40:04Z</time>
      </trkpt>
      <trkpt lat="44.43415" lon="2.5025">
        <ele>421.3</ele>
        <time>2011-06-04T10:40:06Z</time>
      </trkpt>
      <trkpt lat="44.43412" lon="2.50258">
        <ele>420.9</ele>
        <time>2011-06-04T10:40:07Z</time>
      </trkpt>
      <trkpt lat="44.43411" lon="2.50267">
        <ele>420.3</ele>
        <time>2011-06-04T10:40:08Z</time>
      </trkpt>
      <trkpt lat="44.43406" lon="2.50308">
        <ele>415.7</ele>
        <time>2011-06-04T10:40:12Z</time>
      </trkpt>
      <trkpt lat="44.43403" lon="2.50329">
        <ele>413.9</ele>
        <time>2011-06-04T10:40:14Z</time>
      </trkpt>
      <trkpt lat="44.434" lon="2.50338">
        <ele>413.4</ele>
        <time>2011-06-04T10:40:15Z</time>
      </trkpt>
      <trkpt lat="44.43396" lon="2.50347">
        <ele>413.2</ele>
        <time>2011-06-04T10:40:16Z</time>
      </trkpt>
      <trkpt lat="44.43384" lon="2.50369">
        <ele>413.4</ele>
        <time>2011-06-04T10:40:19Z</time>
      </trkpt>
      <trkpt lat="44.43381" lon="2.50376">
        <ele>413.2</ele>
        <time>2011-06-04T10:40:20Z</time>
      </trkpt>
      <trkpt lat="44.43379" lon="2.50383">
        <ele>412.8</ele>
        <time>2011-06-04T10:40:21Z</time>
      </trkpt>
      <trkpt lat="44.43379" lon="2.5039">
        <ele>412.3</ele>
        <time>2011-06-04T10:40:22Z</time>
      </trkpt>
      <trkpt lat="44.43379" lon="2.50402">
        <ele>410.9</ele>
        <time>2011-06-04T10:40:24Z</time>
      </trkpt>
      <trkpt lat="44.43379" lon="2.5042">
        <ele>408.8</ele>
        <time>2011-06-04T10:40:27Z</time>
      </trkpt>
      <trkpt lat="44.43379" lon="2.50426">
        <ele>408.7</ele>
        <time>2011-06-04T10:40:28Z</time>
      </trkpt>
      <trkpt lat="44.43379" lon="2.50433">
        <ele>408.7</ele>
        <time>2011-06-04T10:40:29Z</time>
      </trkpt>
      <trkpt lat="44.43374" lon="2.50467">
        <ele>409.1</ele>
        <time>2011-06-04T10:40:33Z</time>
      </trkpt>
      <trkpt lat="44.43372" lon="2.50476">
        <ele>409.3</ele>
        <time>2011-06-04T10:40:34Z</time>
      </trkpt>
      <trkpt lat="44.4336" lon="2.50516">
        <ele>411.6</ele>
        <time>2011-06-04T10:40:40Z</time>
      </trkpt>
      <trkpt lat="44.43359" lon="2.50522">
        <ele>412</ele>
        <time>2011-06-04T10:40:41Z</time>
      </trkpt>
      <trkpt lat="44.43356" lon="2.50533">
        <ele>413.3</ele>
        <time>2011-06-04T10:40:43Z</time>
      </trkpt>
      <trkpt lat="44.43352" lon="2.50542">
        <ele>414.7</ele>
        <time>2011-06-04T10:40:45Z</time>
      </trkpt>
      <trkpt lat="44.43349" lon="2.50551">
        <ele>415.8</ele>
        <time>2011-06-04T10:40:47Z</time>
      </trkpt>
      <trkpt lat="44.43347" lon="2.50559">
        <ele>416.5</ele>
        <time>2011-06-04T10:40:49Z</time>
      </trkpt>
      <trkpt lat="44.43347" lon="2.50567">
        <ele>416.9</ele>
        <time>2011-06-04T10:40:51Z</time>
      </trkpt>
      <trkpt lat="44.4335" lon="2.50577">
        <ele>416.6</ele>
        <time>2011-06-04T10:40:53Z</time>
      </trkpt>
      <trkpt lat="44.43358" lon="2.50595">
        <ele>414.3</ele>
        <time>2011-06-04T10:40:57Z</time>
      </trkpt>
      <trkpt lat="44.4336" lon="2.50603">
        <ele>413.5</ele>
        <time>2011-06-04T10:40:59Z</time>
      </trkpt>
      <trkpt lat="44.43361" lon="2.50613">
        <ele>413</ele>
        <time>2011-06-04T10:41:01Z</time>
      </trkpt>
      <trkpt lat="44.43361" lon="2.50622">
        <ele>413.2</ele>
        <time>2011-06-04T10:41:03Z</time>
      </trkpt>
      <trkpt lat="44.43356" lon="2.50647">
        <ele>414.8</ele>
        <time>2011-06-04T10:41:08Z</time>
      </trkpt>
      <trkpt lat="44.43352" lon="2.50674">
        <ele>416</ele>
        <time>2011-06-04T10:41:13Z</time>
      </trkpt>
      <trkpt lat="44.43349" lon="2.50692">
        <ele>416.9</ele>
        <time>2011-06-04T10:41:16Z</time>
      </trkpt>
      <trkpt lat="44.43344" lon="2.50719">
        <ele>418.1</ele>
        <time>2011-06-04T10:41:20Z</time>
      </trkpt>
      <trkpt lat="44.43344" lon="2.50727">
        <ele>418</ele>
        <time>2011-06-04T10:41:21Z</time>
      </trkpt>
      <trkpt lat="44.43346" lon="2.50734">
        <ele>417.4</ele>
        <time>2011-06-04T10:41:22Z</time>
      </trkpt>
      <trkpt lat="44.4335" lon="2.5075">
        <ele>415.6</ele>
        <time>2011-06-04T10:41:24Z</time>
      </trkpt>
      <trkpt lat="44.43352" lon="2.50765">
        <ele>414.5</ele>
        <time>2011-06-04T10:41:26Z</time>
      </trkpt>
      <trkpt lat="44.43353" lon="2.50772">
        <ele>414.2</ele>
        <time>2011-06-04T10:41:27Z</time>
      </trkpt>
      <trkpt lat="44.43352" lon="2.50779">
        <ele>414.4</ele>
        <time>2011-06-04T10:41:28Z</time>
      </trkpt>
      <trkpt lat="44.43351" lon="2.50786">
        <ele>414.8</ele>
        <time>2011-06-04T10:41:29Z</time>
      </trkpt>
      <trkpt lat="44.43349" lon="2.50793">
        <ele>415.7</ele>
        <time>2011-06-04T10:41:30Z</time>
      </trkpt>
      <trkpt lat="44.43346" lon="2.50798">
        <ele>416.8</ele>
        <time>2011-06-04T10:41:31Z</time>
      </trkpt>
      <trkpt lat="44.43338" lon="2.50808">
        <ele>419.5</ele>
        <time>2011-06-04T10:41:33Z</time>
      </trkpt>
      <trkpt lat="44.43332" lon="2.50819">
        <ele>421.3</ele>
        <time>2011-06-04T10:41:35Z</time>
      </trkpt>
      <trkpt lat="44.4333" lon="2.50824">
        <ele>421.4</ele>
        <time>2011-06-04T10:41:36Z</time>
      </trkpt>
      <trkpt lat="44.43325" lon="2.50839">
        <ele>421.5</ele>
        <time>2011-06-04T10:41:39Z</time>
      </trkpt>
      <trkpt lat="44.43323" lon="2.50849">
        <ele>421.3</ele>
        <time>2011-06-04T10:41:41Z</time>
      </trkpt>
      <trkpt lat="44.43323" lon="2.50853">
        <ele>421.1</ele>
        <time>2011-06-04T10:41:42Z</time>
      </trkpt>
      <trkpt lat="44.43323" lon="2.50862">
        <ele>420.9</ele>
        <time>2011-06-04T10:41:44Z</time>
      </trkpt>
      <trkpt lat="44.43322" lon="2.5087">
        <ele>420.7</ele>
        <time>2011-06-04T10:41:46Z</time>
      </trkpt>
      <trkpt lat="44.4332" lon="2.50874">
        <ele>420.7</ele>
        <time>2011-06-04T10:41:47Z</time>
      </trkpt>
      <trkpt lat="44.43315" lon="2.50878">
        <ele>421.1</ele>
        <time>2011-06-04T10:41:49Z</time>
      </trkpt>
      <trkpt lat="44.4331" lon="2.5088">
        <ele>421.5</ele>
        <time>2011-06-04T10:41:51Z</time>
      </trkpt>
      <trkpt lat="44.43306" lon="2.50882">
        <ele>421.8</ele>
        <time>2011-06-04T10:41:53Z</time>
      </trkpt>
      <trkpt lat="44.433" lon="2.50889">
        <ele>422.2</ele>
        <time>2011-06-04T10:41:57Z</time>
      </trkpt>
      <trkpt lat="44.43288" lon="2.50906">
        <ele>423.1</ele>
        <time>2011-06-04T10:42:05Z</time>
      </trkpt>
      <trkpt lat="44.43282" lon="2.50913">
        <ele>423.6</ele>
        <time>2011-06-04T10:42:09Z</time>
      </trkpt>
      <trkpt lat="44.43275" lon="2.50919">
        <ele>424.1</ele>
        <time>2011-06-04T10:42:13Z</time>
      </trkpt>
      <trkpt lat="44.43268" lon="2.50923">
        <ele>424.5</ele>
        <time>2011-06-04T10:42:17Z</time>
      </trkpt>
      <trkpt lat="44.43261" lon="2.50929">
        <ele>424.8</ele>
        <time>2011-06-04T10:42:21Z</time>
      </trkpt>
      <trkpt lat="44.43248" lon="2.50942">
        <ele>425.5</ele>
        <time>2011-06-04T10:42:29Z</time>
      </trkpt>
      <trkpt lat="44.43226" lon="2.50967">
        <ele>426.8</ele>
        <time>2011-06-04T10:42:45Z</time>
      </trkpt>
      <trkpt lat="44.43224" lon="2.50971">
        <ele>427.1</ele>
        <time>2011-06-04T10:42:47Z</time>
      </trkpt>
      <trkpt lat="44.43207" lon="2.50995">
        <ele>427.5</ele>
        <time>2011-06-04T10:42:59Z</time>
      </trkpt>
      <trkpt lat="44.432" lon="2.51007">
        <ele>427.5</ele>
        <time>2011-06-04T10:43:05Z</time>
      </trkpt>
      <trkpt lat="44.43194" lon="2.5102">
        <ele>427.2</ele>
        <time>2011-06-04T10:43:11Z</time>
      </trkpt>
      <trkpt lat="44.43184" lon="2.51035">
        <ele>427.4</ele>
        <time>2011-06-04T10:43:19Z</time>
      </trkpt>
      <trkpt lat="44.43175" lon="2.51047">
        <ele>427.7</ele>
        <time>2011-06-04T10:43:24Z</time>
      </trkpt>
      <trkpt lat="44.43172" lon="2.51051">
        <ele>427.8</ele>
        <time>2011-06-04T10:43:26Z</time>
      </trkpt>
      <trkpt lat="44.43168" lon="2.51057">
        <ele>428</ele>
        <time>2011-06-04T10:43:28Z</time>
      </trkpt>
      <trkpt lat="44.43162" lon="2.51063">
        <ele>428.7</ele>
        <time>2011-06-04T10:43:30Z</time>
      </trkpt>
      <trkpt lat="44.43151" lon="2.51071">
        <ele>430.4</ele>
        <time>2011-06-04T10:43:33Z</time>
      </trkpt>
      <trkpt lat="44.43147" lon="2.51074">
        <ele>431</ele>
        <time>2011-06-04T10:43:34Z</time>
      </trkpt>
      <trkpt lat="44.43144" lon="2.51078">
        <ele>431.2</ele>
        <time>2011-06-04T10:43:35Z</time>
      </trkpt>
      <trkpt lat="44.43138" lon="2.51086">
        <ele>431.6</ele>
        <time>2011-06-04T10:43:37Z</time>
      </trkpt>
      <trkpt lat="44.4313" lon="2.51101">
        <ele>431.4</ele>
        <time>2011-06-04T10:43:41Z</time>
      </trkpt>
      <trkpt lat="44.43126" lon="2.51107">
        <ele>431.4</ele>
        <time>2011-06-04T10:43:43Z</time>
      </trkpt>
      <trkpt lat="44.43124" lon="2.51111">
        <ele>431.2</ele>
        <time>2011-06-04T10:43:44Z</time>
      </trkpt>
      <trkpt lat="44.43117" lon="2.51134">
        <ele>429.8</ele>
        <time>2011-06-04T10:43:50Z</time>
      </trkpt>
      <trkpt lat="44.43112" lon="2.51154">
        <ele>428.5</ele>
        <time>2011-06-04T10:43:56Z</time>
      </trkpt>
      <trkpt lat="44.4311" lon="2.51163">
        <ele>427.7</ele>
        <time>2011-06-04T10:43:59Z</time>
      </trkpt>
      <trkpt lat="44.43109" lon="2.51175">
        <ele>427.1</ele>
        <time>2011-06-04T10:44:03Z</time>
      </trkpt>
      <trkpt lat="44.43107" lon="2.51187">
        <ele>427.3</ele>
        <time>2011-06-04T10:44:07Z</time>
      </trkpt>
      <trkpt lat="44.43096" lon="2.51214">
        <ele>429</ele>
        <time>2011-06-04T10:44:16Z</time>
      </trkpt>
      <trkpt lat="44.43089" lon="2.51232">
        <ele>430.2</ele>
        <time>2011-06-04T10:44:22Z</time>
      </trkpt>
      <trkpt lat="44.43081" lon="2.51245">
        <ele>431.8</ele>
        <time>2011-06-04T10:44:28Z</time>
      </trkpt>
      <trkpt lat="44.43076" lon="2.51254">
        <ele>432.8</ele>
        <time>2011-06-04T10:44:32Z</time>
      </trkpt>
      <trkpt lat="44.43074" lon="2.51263">
        <ele>433.6</ele>
        <time>2011-06-04T10:44:36Z</time>
      </trkpt>
      <trkpt lat="44.4307" lon="2.51278">
        <ele>434.7</ele>
        <time>2011-06-04T10:44:43Z</time>
      </trkpt>
      <trkpt lat="44.43067" lon="2.51286">
        <ele>435.6</ele>
        <time>2011-06-04T10:44:47Z</time>
      </trkpt>
      <trkpt lat="44.43056" lon="2.51311">
        <ele>438.6</ele>
        <time>2011-06-04T10:45:00Z</time>
      </trkpt>
      <trkpt lat="44.43054" lon="2.5132">
        <ele>439.1</ele>
        <time>2011-06-04T10:45:05Z</time>
      </trkpt>
      <trkpt lat="44.43051" lon="2.51329">
        <ele>439.9</ele>
        <time>2011-06-04T10:45:09Z</time>
      </trkpt>
      <trkpt lat="44.43048" lon="2.51332">
        <ele>440.4</ele>
        <time>2011-06-04T10:45:11Z</time>
      </trkpt>
      <trkpt lat="44.43042" lon="2.51338">
        <ele>441.8</ele>
        <time>2011-06-04T10:45:15Z</time>
      </trkpt>
      <trkpt lat="44.43036" lon="2.51343">
        <ele>443</ele>
        <time>2011-06-04T10:45:19Z</time>
      </trkpt>
      <trkpt lat="44.43029" lon="2.51345">
        <ele>444.3</ele>
        <time>2011-06-04T10:45:23Z</time>
      </trkpt>
      <trkpt lat="44.43021" lon="2.51361">
        <ele>445.1</ele>
        <time>2011-06-04T10:45:32Z</time>
      </trkpt>
      <trkpt lat="44.43019" lon="2.51365">
        <ele>445.4</ele>
        <time>2011-06-04T10:45:34Z</time>
      </trkpt>
      <trkpt lat="44.43006" lon="2.51394">
        <ele>446.4</ele>
        <time>2011-06-04T10:45:46Z</time>
      </trkpt>
      <trkpt lat="44.43004" lon="2.51399">
        <ele>446.4</ele>
        <time>2011-06-04T10:45:48Z</time>
      </trkpt>
      <trkpt lat="44.43001" lon="2.51406">
        <ele>446.6</ele>
        <time>2011-06-04T10:45:51Z</time>
      </trkpt>
      <trkpt lat="44.42995" lon="2.51417">
        <ele>447</ele>
        <time>2011-06-04T10:45:56Z</time>
      </trkpt>
      <trkpt lat="44.4299" lon="2.51425">
        <ele>447.2</ele>
        <time>2011-06-04T10:46:00Z</time>
      </trkpt>
      <trkpt lat="44.42988" lon="2.5143">
        <ele>447</ele>
        <time>2011-06-04T10:46:02Z</time>
      </trkpt>
      <trkpt lat="44.42984" lon="2.51438">
        <ele>447.1</ele>
        <time>2011-06-04T10:46:07Z</time>
      </trkpt>
      <trkpt lat="44.42973" lon="2.5145">
        <ele>447.8</ele>
        <time>2011-06-04T10:46:16Z</time>
      </trkpt>
      <trkpt lat="44.42966" lon="2.51464">
        <ele>447.4</ele>
        <time>2011-06-04T10:46:24Z</time>
      </trkpt>
      <trkpt lat="44.42961" lon="2.5147">
        <ele>447.4</ele>
        <time>2011-06-04T10:46:28Z</time>
      </trkpt>
      <trkpt lat="44.42955" lon="2.51475">
        <ele>448.2</ele>
        <time>2011-06-04T10:46:33Z</time>
      </trkpt>
      <trkpt lat="44.42949" lon="2.51483">
        <ele>448.1</ele>
        <time>2011-06-04T10:46:45Z</time>
      </trkpt>
      <trkpt lat="44.42944" lon="2.51486">
        <ele>448.4</ele>
        <time>2011-06-04T10:46:52Z</time>
      </trkpt>
      <trkpt lat="44.42929" lon="2.51494">
        <ele>449.9</ele>
        <time>2011-06-04T10:47:12Z</time>
      </trkpt>
      <trkpt lat="44.42925" lon="2.51498">
        <ele>449.9</ele>
        <time>2011-06-04T10:47:17Z</time>
      </trkpt>
      <trkpt lat="44.42919" lon="2.51503">
        <ele>450.5</ele>
        <time>2011-06-04T10:47:25Z</time>
      </trkpt>
      <trkpt lat="44.42916" lon="2.51507">
        <ele>450.9</ele>
        <time>2011-06-04T10:47:29Z</time>
      </trkpt>
      <trkpt lat="44.42898" lon="2.51523">
        <ele>454.9</ele>
        <time>2011-06-04T10:47:53Z</time>
      </trkpt>
      <trkpt lat="44.42892" lon="2.5153">
        <ele>456.1</ele>
        <time>2011-06-04T10:48:10Z</time>
      </trkpt>
      <trkpt lat="44.42885" lon="2.51545">
        <ele>457.1</ele>
        <time>2011-06-04T10:48:25Z</time>
      </trkpt>
      <trkpt lat="44.42882" lon="2.51549">
        <ele>457.6</ele>
        <time>2011-06-04T10:48:30Z</time>
      </trkpt>
      <trkpt lat="44.42875" lon="2.51562">
        <ele>458.7</ele>
        <time>2011-06-04T10:48:50Z</time>
      </trkpt>
      <trkpt lat="44.42871" lon="2.51566">
        <ele>459.4</ele>
        <time>2011-06-04T10:48:57Z</time>
      </trkpt>
      <trkpt lat="44.42865" lon="2.51566">
        <ele>460.9</ele>
        <time>2011-06-04T10:49:34Z</time>
      </trkpt>
      <trkpt lat="44.42862" lon="2.51562">
        <ele>461.9</ele>
        <time>2011-06-04T10:49:52Z</time>
      </trkpt>
      <trkpt lat="44.42862" lon="2.51568">
        <ele>461.4</ele>
        <time>2011-06-04T10:50:32Z</time>
      </trkpt>
      <trkpt lat="44.42854" lon="2.51578">
        <ele>462.7</ele>
        <time>2011-06-04T10:50:45Z</time>
      </trkpt>
      <trkpt lat="44.4285" lon="2.51581">
        <ele>463.4</ele>
        <time>2011-06-04T10:50:49Z</time>
      </trkpt>
      <trkpt lat="44.42847" lon="2.51584">
        <ele>463.9</ele>
        <time>2011-06-04T10:50:53Z</time>
      </trkpt>
      <trkpt lat="44.42844" lon="2.51589">
        <ele>464.6</ele>
        <time>2011-06-04T10:50:59Z</time>
      </trkpt>
      <trkpt lat="44.42839" lon="2.51598">
        <ele>465.7</ele>
        <time>2011-06-04T10:51:09Z</time>
      </trkpt>
      <trkpt lat="44.42838" lon="2.51603">
        <ele>465.9</ele>
        <time>2011-06-04T10:51:13Z</time>
      </trkpt>
      <trkpt lat="44.42837" lon="2.51614">
        <ele>466.1</ele>
        <time>2011-06-04T10:51:21Z</time>
      </trkpt>
      <trkpt lat="44.42835" lon="2.51624">
        <ele>466.6</ele>
        <time>2011-06-04T10:51:31Z</time>
      </trkpt>
      <trkpt lat="44.4283" lon="2.5164">
        <ele>469</ele>
        <time>2011-06-04T10:51:48Z</time>
      </trkpt>
      <trkpt lat="44.42829" lon="2.51646">
        <ele>469.5</ele>
        <time>2011-06-04T10:52:03Z</time>
      </trkpt>
      <trkpt lat="44.42827" lon="2.51651">
        <ele>470.6</ele>
        <time>2011-06-04T10:52:25Z</time>
      </trkpt>
      <trkpt lat="44.42825" lon="2.51658">
        <ele>471.4</ele>
        <time>2011-06-04T10:53:05Z</time>
      </trkpt>
      <trkpt lat="44.42817" lon="2.51676">
        <ele>475.5</ele>
        <time>2011-06-04T10:53:24Z</time>
      </trkpt>
      <trkpt lat="44.42812" lon="2.51692">
        <ele>477.7</ele>
        <time>2011-06-04T10:53:41Z</time>
      </trkpt>
      <trkpt lat="44.4281" lon="2.51697">
        <ele>479</ele>
        <time>2011-06-04T10:53:47Z</time>
      </trkpt>
      <trkpt lat="44.42806" lon="2.51708">
        <ele>480.2</ele>
        <time>2011-06-04T10:54:04Z</time>
      </trkpt>
      <trkpt lat="44.42804" lon="2.51713">
        <ele>481.2</ele>
        <time>2011-06-04T10:54:13Z</time>
      </trkpt>
      <trkpt lat="44.42798" lon="2.51722">
        <ele>483.1</ele>
        <time>2011-06-04T10:54:27Z</time>
      </trkpt>
      <trkpt lat="44.42794" lon="2.51732">
        <ele>484.4</ele>
        <time>2011-06-04T10:54:44Z</time>
      </trkpt>
      <trkpt lat="44.42791" lon="2.51737">
        <ele>485.3</ele>
        <time>2011-06-04T10:54:52Z</time>
      </trkpt>
      <trkpt lat="44.42786" lon="2.51746">
        <ele>486.4</ele>
        <time>2011-06-04T10:55:08Z</time>
      </trkpt>
      <trkpt lat="44.42782" lon="2.51751">
        <ele>487.6</ele>
        <time>2011-06-04T10:55:15Z</time>
      </trkpt>
      <trkpt lat="44.42774" lon="2.51764">
        <ele>488.5</ele>
        <time>2011-06-04T10:55:33Z</time>
      </trkpt>
      <trkpt lat="44.42771" lon="2.51767">
        <ele>489.2</ele>
        <time>2011-06-04T10:55:47Z</time>
      </trkpt>
      <trkpt lat="44.42764" lon="2.51775">
        <ele>490.4</ele>
        <time>2011-06-04T10:56:04Z</time>
      </trkpt>
      <trkpt lat="44.42761" lon="2.51779">
        <ele>490.8</ele>
        <time>2011-06-04T10:56:13Z</time>
      </trkpt>
      <trkpt lat="44.42757" lon="2.51783">
        <ele>491.5</ele>
        <time>2011-06-04T10:56:23Z</time>
      </trkpt>
      <trkpt lat="44.42752" lon="2.51791">
        <ele>492</ele>
        <time>2011-06-04T10:56:35Z</time>
      </trkpt>
      <trkpt lat="44.42742" lon="2.51821">
        <ele>492.1</ele>
        <time>2011-06-04T10:57:09Z</time>
      </trkpt>
      <trkpt lat="44.42738" lon="2.51825">
        <ele>493.1</ele>
        <time>2011-06-04T10:57:16Z</time>
      </trkpt>
      <trkpt lat="44.42735" lon="2.51828">
        <ele>494.5</ele>
        <time>2011-06-04T10:57:22Z</time>
      </trkpt>
      <trkpt lat="44.42731" lon="2.51831">
        <ele>496</ele>
        <time>2011-06-04T10:57:27Z</time>
      </trkpt>
      <trkpt lat="44.42725" lon="2.51833">
        <ele>498.7</ele>
        <time>2011-06-04T10:57:33Z</time>
      </trkpt>
      <trkpt lat="44.42721" lon="2.51834">
        <ele>500.1</ele>
        <time>2011-06-04T10:57:35Z</time>
      </trkpt>
      <trkpt lat="44.42711" lon="2.5184">
        <ele>504.5</ele>
        <time>2011-06-04T10:57:47Z</time>
      </trkpt>
      <trkpt lat="44.42707" lon="2.51843">
        <ele>505.9</ele>
        <time>2011-06-04T10:57:52Z</time>
      </trkpt>
      <trkpt lat="44.42702" lon="2.5185">
        <ele>508</ele>
        <time>2011-06-04T10:57:57Z</time>
      </trkpt>
      <trkpt lat="44.42686" lon="2.5187">
        <ele>513.6</ele>
        <time>2011-06-04T10:58:09Z</time>
      </trkpt>
      <trkpt lat="44.42682" lon="2.51878">
        <ele>514.8</ele>
        <time>2011-06-04T10:58:13Z</time>
      </trkpt>
      <trkpt lat="44.4268" lon="2.51884">
        <ele>515.2</ele>
        <time>2011-06-04T10:58:15Z</time>
      </trkpt>
      <trkpt lat="44.4268" lon="2.5189">
        <ele>514.9</ele>
        <time>2011-06-04T10:58:17Z</time>
      </trkpt>
      <trkpt lat="44.42674" lon="2.519">
        <ele>516.7</ele>
        <time>2011-06-04T10:58:21Z</time>
      </trkpt>
      <trkpt lat="44.4267" lon="2.51902">
        <ele>518.7</ele>
        <time>2011-06-04T10:58:23Z</time>
      </trkpt>
      <trkpt lat="44.42664" lon="2.51904">
        <ele>520.9</ele>
        <time>2011-06-04T10:58:26Z</time>
      </trkpt>
      <trkpt lat="44.42659" lon="2.51904">
        <ele>522.1</ele>
        <time>2011-06-04T10:58:28Z</time>
      </trkpt>
      <trkpt lat="44.42654" lon="2.51905">
        <ele>523.1</ele>
        <time>2011-06-04T10:58:30Z</time>
      </trkpt>
      <trkpt lat="44.42642" lon="2.51912">
        <ele>525.5</ele>
        <time>2011-06-04T10:58:35Z</time>
      </trkpt>
      <trkpt lat="44.42635" lon="2.51916">
        <ele>527</ele>
        <time>2011-06-04T10:58:38Z</time>
      </trkpt>
      <trkpt lat="44.4262" lon="2.51922">
        <ele>530.2</ele>
        <time>2011-06-04T10:58:44Z</time>
      </trkpt>
      <trkpt lat="44.42611" lon="2.51925">
        <ele>532.2</ele>
        <time>2011-06-04T10:58:47Z</time>
      </trkpt>
      <trkpt lat="44.42602" lon="2.51925">
        <ele>534.5</ele>
        <time>2011-06-04T10:58:50Z</time>
      </trkpt>
      <trkpt lat="44.42596" lon="2.51927">
        <ele>535.9</ele>
        <time>2011-06-04T10:58:52Z</time>
      </trkpt>
      <trkpt lat="44.42591" lon="2.5193">
        <ele>537.1</ele>
        <time>2011-06-04T10:58:54Z</time>
      </trkpt>
      <trkpt lat="44.42587" lon="2.51935">
        <ele>537.8</ele>
        <time>2011-06-04T10:58:56Z</time>
      </trkpt>
      <trkpt lat="44.42583" lon="2.51944">
        <ele>538.1</ele>
        <time>2011-06-04T10:58:58Z</time>
      </trkpt>
      <trkpt lat="44.42578" lon="2.51959">
        <ele>537.4</ele>
        <time>2011-06-04T10:59:01Z</time>
      </trkpt>
      <trkpt lat="44.42574" lon="2.51974">
        <ele>536.8</ele>
        <time>2011-06-04T10:59:04Z</time>
      </trkpt>
      <trkpt lat="44.4257" lon="2.51979">
        <ele>536.8</ele>
        <time>2011-06-04T10:59:06Z</time>
      </trkpt>
      <trkpt lat="44.42565" lon="2.51979">
        <ele>537.3</ele>
        <time>2011-06-04T10:59:08Z</time>
      </trkpt>
      <trkpt lat="44.4256" lon="2.51978">
        <ele>537.8</ele>
        <time>2011-06-04T10:59:10Z</time>
      </trkpt>
      <trkpt lat="44.42556" lon="2.51979">
        <ele>538</ele>
        <time>2011-06-04T10:59:11Z</time>
      </trkpt>
      <trkpt lat="44.42551" lon="2.51978">
        <ele>538.6</ele>
        <time>2011-06-04T10:59:13Z</time>
      </trkpt>
      <trkpt lat="44.42542" lon="2.51976">
        <ele>539.5</ele>
        <time>2011-06-04T10:59:17Z</time>
      </trkpt>
      <trkpt lat="44.42538" lon="2.51977">
        <ele>539.8</ele>
        <time>2011-06-04T10:59:19Z</time>
      </trkpt>
      <trkpt lat="44.42533" lon="2.51981">
        <ele>540.1</ele>
        <time>2011-06-04T10:59:21Z</time>
      </trkpt>
      <trkpt lat="44.42528" lon="2.51988">
        <ele>540.4</ele>
        <time>2011-06-04T10:59:24Z</time>
      </trkpt>
      <trkpt lat="44.42524" lon="2.51991">
        <ele>540.7</ele>
        <time>2011-06-04T10:59:26Z</time>
      </trkpt>
      <trkpt lat="44.42525" lon="2.51997">
        <ele>540.4</ele>
        <time>2011-06-04T10:59:37Z</time>
      </trkpt>
      <trkpt lat="44.4253" lon="2.52005">
        <ele>539.7</ele>
        <time>2011-06-04T10:59:47Z</time>
      </trkpt>
      <trkpt lat="44.42532" lon="2.5201">
        <ele>539.5</ele>
        <time>2011-06-04T10:59:51Z</time>
      </trkpt>
      <trkpt lat="44.42533" lon="2.5202">
        <ele>539.3</ele>
        <time>2011-06-04T10:59:57Z</time>
      </trkpt>
      <trkpt lat="44.42533" lon="2.5203">
        <ele>539.2</ele>
        <time>2011-06-04T11:00:02Z</time>
      </trkpt>
      <trkpt lat="44.42531" lon="2.5204">
        <ele>539.4</ele>
        <time>2011-06-04T11:00:07Z</time>
      </trkpt>
      <trkpt lat="44.42529" lon="2.52045">
        <ele>539.7</ele>
        <time>2011-06-04T11:00:10Z</time>
      </trkpt>
      <trkpt lat="44.42528" lon="2.52055">
        <ele>539.8</ele>
        <time>2011-06-04T11:00:17Z</time>
      </trkpt>
      <trkpt lat="44.42521" lon="2.52089">
        <ele>540.4</ele>
        <time>2011-06-04T11:00:31Z</time>
      </trkpt>
      <trkpt lat="44.42517" lon="2.52107">
        <ele>540.1</ele>
        <time>2011-06-04T11:00:38Z</time>
      </trkpt>
      <trkpt lat="44.42516" lon="2.52114">
        <ele>539.9</ele>
        <time>2011-06-04T11:00:41Z</time>
      </trkpt>
      <trkpt lat="44.42513" lon="2.52125">
        <ele>539.8</ele>
        <time>2011-06-04T11:00:45Z</time>
      </trkpt>
      <trkpt lat="44.42513" lon="2.52135">
        <ele>539.3</ele>
        <time>2011-06-04T11:00:49Z</time>
      </trkpt>
      <trkpt lat="44.4251" lon="2.52144">
        <ele>539.8</ele>
        <time>2011-06-04T11:00:52Z</time>
      </trkpt>
      <trkpt lat="44.42509" lon="2.52151">
        <ele>539.9</ele>
        <time>2011-06-04T11:00:54Z</time>
      </trkpt>
      <trkpt lat="44.42508" lon="2.5216">
        <ele>539.8</ele>
        <time>2011-06-04T11:00:57Z</time>
      </trkpt>
      <trkpt lat="44.42506" lon="2.52172">
        <ele>540</ele>
        <time>2011-06-04T11:01:01Z</time>
      </trkpt>
      <trkpt lat="44.42501" lon="2.52183">
        <ele>540.8</ele>
        <time>2011-06-04T11:01:05Z</time>
      </trkpt>
      <trkpt lat="44.42496" lon="2.52209">
        <ele>540.3</ele>
        <time>2011-06-04T11:01:15Z</time>
      </trkpt>
      <trkpt lat="44.42494" lon="2.52214">
        <ele>540.2</ele>
        <time>2011-06-04T11:01:17Z</time>
      </trkpt>
      <trkpt lat="44.42488" lon="2.52234">
        <ele>539.8</ele>
        <time>2011-06-04T11:01:25Z</time>
      </trkpt>
      <trkpt lat="44.42486" lon="2.52244">
        <ele>539.7</ele>
        <time>2011-06-04T11:01:29Z</time>
      </trkpt>
      <trkpt lat="44.42481" lon="2.52264">
        <ele>540.1</ele>
        <time>2011-06-04T11:01:37Z</time>
      </trkpt>
      <trkpt lat="44.42474" lon="2.52296">
        <ele>541</ele>
        <time>2011-06-04T11:01:49Z</time>
      </trkpt>
      <trkpt lat="44.42472" lon="2.52302">
        <ele>541.3</ele>
        <time>2011-06-04T11:01:51Z</time>
      </trkpt>
      <trkpt lat="44.4247" lon="2.52309">
        <ele>541.5</ele>
        <time>2011-06-04T11:01:53Z</time>
      </trkpt>
      <trkpt lat="44.42468" lon="2.52322">
        <ele>541.8</ele>
        <time>2011-06-04T11:01:57Z</time>
      </trkpt>
      <trkpt lat="44.42464" lon="2.52334">
        <ele>542.3</ele>
        <time>2011-06-04T11:02:01Z</time>
      </trkpt>
      <trkpt lat="44.4246" lon="2.52355">
        <ele>543.7</ele>
        <time>2011-06-04T11:02:08Z</time>
      </trkpt>
      <trkpt lat="44.42459" lon="2.52362">
        <ele>544.1</ele>
        <time>2011-06-04T11:02:10Z</time>
      </trkpt>
      <trkpt lat="44.42457" lon="2.52368">
        <ele>544.5</ele>
        <time>2011-06-04T11:02:12Z</time>
      </trkpt>
      <trkpt lat="44.42454" lon="2.52379">
        <ele>545.4</ele>
        <time>2011-06-04T11:02:16Z</time>
      </trkpt>
      <trkpt lat="44.42453" lon="2.52387">
        <ele>545.9</ele>
        <time>2011-06-04T11:02:19Z</time>
      </trkpt>
      <trkpt lat="44.4245" lon="2.52402">
        <ele>547</ele>
        <time>2011-06-04T11:02:23Z</time>
      </trkpt>
      <trkpt lat="44.42447" lon="2.52409">
        <ele>547.6</ele>
        <time>2011-06-04T11:02:25Z</time>
      </trkpt>
      <trkpt lat="44.42447" lon="2.52417">
        <ele>548</ele>
        <time>2011-06-04T11:02:27Z</time>
      </trkpt>
      <trkpt lat="44.42444" lon="2.52427">
        <ele>548.5</ele>
        <time>2011-06-04T11:02:30Z</time>
      </trkpt>
      <trkpt lat="44.4244" lon="2.52429">
        <ele>549.1</ele>
        <time>2011-06-04T11:02:32Z</time>
      </trkpt>
      <trkpt lat="44.42437" lon="2.52435">
        <ele>549.4</ele>
        <time>2011-06-04T11:02:34Z</time>
      </trkpt>
      <trkpt lat="44.42436" lon="2.52446">
        <ele>549.6</ele>
        <time>2011-06-04T11:02:37Z</time>
      </trkpt>
      <trkpt lat="44.4243" lon="2.52463">
        <ele>550.4</ele>
        <time>2011-06-04T11:02:41Z</time>
      </trkpt>
      <trkpt lat="44.4242" lon="2.52487">
        <ele>551.6</ele>
        <time>2011-06-04T11:02:45Z</time>
      </trkpt>
      <trkpt lat="44.42418" lon="2.52493">
        <ele>551.9</ele>
        <time>2011-06-04T11:02:46Z</time>
      </trkpt>
      <trkpt lat="44.42415" lon="2.52513">
        <ele>551.9</ele>
        <time>2011-06-04T11:02:49Z</time>
      </trkpt>
      <trkpt lat="44.42414" lon="2.52524">
        <ele>551.8</ele>
        <time>2011-06-04T11:02:51Z</time>
      </trkpt>
      <trkpt lat="44.42414" lon="2.52534">
        <ele>552</ele>
        <time>2011-06-04T11:02:53Z</time>
      </trkpt>
      <trkpt lat="44.42414" lon="2.52539">
        <ele>552</ele>
        <time>2011-06-04T11:02:54Z</time>
      </trkpt>
      <trkpt lat="44.42411" lon="2.52547">
        <ele>551.7</ele>
        <time>2011-06-04T11:02:56Z</time>
      </trkpt>
      <trkpt lat="44.42409" lon="2.52557">
        <ele>551.6</ele>
        <time>2011-06-04T11:02:58Z</time>
      </trkpt>
      <trkpt lat="44.42409" lon="2.52578">
        <ele>551.9</ele>
        <time>2011-06-04T11:03:06Z</time>
      </trkpt>
      <trkpt lat="44.42408" lon="2.52586">
        <ele>551.9</ele>
        <time>2011-06-04T11:03:09Z</time>
      </trkpt>
      <trkpt lat="44.42405" lon="2.52594">
        <ele>551.9</ele>
        <time>2011-06-04T11:03:11Z</time>
      </trkpt>
      <trkpt lat="44.42402" lon="2.52604">
        <ele>552.1</ele>
        <time>2011-06-04T11:03:13Z</time>
      </trkpt>
      <trkpt lat="44.42401" lon="2.52613">
        <ele>552.4</ele>
        <time>2011-06-04T11:03:15Z</time>
      </trkpt>
      <trkpt lat="44.424" lon="2.52631">
        <ele>553.3</ele>
        <time>2011-06-04T11:03:20Z</time>
      </trkpt>
      <trkpt lat="44.42394" lon="2.52655">
        <ele>553.8</ele>
        <time>2011-06-04T11:03:27Z</time>
      </trkpt>
      <trkpt lat="44.4239" lon="2.5267">
        <ele>553.9</ele>
        <time>2011-06-04T11:03:31Z</time>
      </trkpt>
      <trkpt lat="44.42386" lon="2.52678">
        <ele>553.4</ele>
        <time>2011-06-04T11:03:34Z</time>
      </trkpt>
      <trkpt lat="44.42383" lon="2.52686">
        <ele>553</ele>
        <time>2011-06-04T11:03:37Z</time>
      </trkpt>
      <trkpt lat="44.42381" lon="2.52695">
        <ele>552.8</ele>
        <time>2011-06-04T11:03:40Z</time>
      </trkpt>
      <trkpt lat="44.42378" lon="2.52715">
        <ele>552.7</ele>
        <time>2011-06-04T11:03:45Z</time>
      </trkpt>
      <trkpt lat="44.42376" lon="2.52724">
        <ele>552.6</ele>
        <time>2011-06-04T11:03:47Z</time>
      </trkpt>
      <trkpt lat="44.42375" lon="2.5273">
        <ele>552.6</ele>
        <time>2011-06-04T11:03:48Z</time>
      </trkpt>
      <trkpt lat="44.42374" lon="2.5274">
        <ele>552.7</ele>
        <time>2011-06-04T11:03:50Z</time>
      </trkpt>
      <trkpt lat="44.42376" lon="2.52749">
        <ele>553.1</ele>
        <time>2011-06-04T11:03:54Z</time>
      </trkpt>
      <trkpt lat="44.42374" lon="2.52759">
        <ele>552.5</ele>
        <time>2011-06-04T11:03:58Z</time>
      </trkpt>
      <trkpt lat="44.42369" lon="2.52768">
        <ele>551.7</ele>
        <time>2011-06-04T11:04:12Z</time>
      </trkpt>
      <trkpt lat="44.42369" lon="2.5278">
        <ele>551</ele>
        <time>2011-06-04T11:04:31Z</time>
      </trkpt>
      <trkpt lat="44.42367" lon="2.52789">
        <ele>550.4</ele>
        <time>2011-06-04T11:04:39Z</time>
      </trkpt>
      <trkpt lat="44.42368" lon="2.52795">
        <ele>550.3</ele>
        <time>2011-06-04T11:04:42Z</time>
      </trkpt>
      <trkpt lat="44.42368" lon="2.52802">
        <ele>550</ele>
        <time>2011-06-04T11:04:46Z</time>
      </trkpt>
      <trkpt lat="44.42371" lon="2.52821">
        <ele>549.4</ele>
        <time>2011-06-04T11:04:54Z</time>
      </trkpt>
      <trkpt lat="44.42371" lon="2.52828">
        <ele>549</ele>
        <time>2011-06-04T11:04:56Z</time>
      </trkpt>
      <trkpt lat="44.42368" lon="2.52838">
        <ele>548.3</ele>
        <time>2011-06-04T11:04:59Z</time>
      </trkpt>
      <trkpt lat="44.42368" lon="2.52846">
        <ele>547.8</ele>
        <time>2011-06-04T11:05:01Z</time>
      </trkpt>
      <trkpt lat="44.42365" lon="2.52859">
        <ele>546.8</ele>
        <time>2011-06-04T11:05:04Z</time>
      </trkpt>
      <trkpt lat="44.42364" lon="2.52863">
        <ele>546.5</ele>
        <time>2011-06-04T11:05:05Z</time>
      </trkpt>
      <trkpt lat="44.42364" lon="2.52872">
        <ele>546</ele>
        <time>2011-06-04T11:05:07Z</time>
      </trkpt>
      <trkpt lat="44.42364" lon="2.52878">
        <ele>545.6</ele>
        <time>2011-06-04T11:05:09Z</time>
      </trkpt>
      <trkpt lat="44.42361" lon="2.52883">
        <ele>545.2</ele>
        <time>2011-06-04T11:05:11Z</time>
      </trkpt>
      <trkpt lat="44.42361" lon="2.52891">
        <ele>544.8</ele>
        <time>2011-06-04T11:05:14Z</time>
      </trkpt>
      <trkpt lat="44.42358" lon="2.52907">
        <ele>543.9</ele>
        <time>2011-06-04T11:05:18Z</time>
      </trkpt>
      <trkpt lat="44.42355" lon="2.5292">
        <ele>542.9</ele>
        <time>2011-06-04T11:05:22Z</time>
      </trkpt>
      <trkpt lat="44.42353" lon="2.52938">
        <ele>540.5</ele>
        <time>2011-06-04T11:05:26Z</time>
      </trkpt>
      <trkpt lat="44.4235" lon="2.52942">
        <ele>540</ele>
        <time>2011-06-04T11:05:28Z</time>
      </trkpt>
      <trkpt lat="44.4235" lon="2.52951">
        <ele>538.8</ele>
        <time>2011-06-04T11:05:31Z</time>
      </trkpt>
      <trkpt lat="44.42352" lon="2.52957">
        <ele>538.1</ele>
        <time>2011-06-04T11:05:33Z</time>
      </trkpt>
      <trkpt lat="44.42352" lon="2.52963">
        <ele>537.3</ele>
        <time>2011-06-04T11:05:37Z</time>
      </trkpt>
      <trkpt lat="44.4235" lon="2.52974">
        <ele>535.8</ele>
        <time>2011-06-04T11:05:50Z</time>
      </trkpt>
      <trkpt lat="44.42339" lon="2.52973">
        <ele>536.2</ele>
        <time>2011-06-04T11:05:57Z</time>
      </trkpt>
      <trkpt lat="44.42337" lon="2.52978">
        <ele>535.6</ele>
        <time>2011-06-04T11:06:14Z</time>
      </trkpt>
      <trkpt lat="44.42337" lon="2.5299">
        <ele>534.1</ele>
        <time>2011-06-04T11:08:08Z</time>
      </trkpt>
      <trkpt lat="44.42337" lon="2.52992">
        <ele>533.8</ele>
        <time>2011-06-04T11:08:09Z</time>
      </trkpt>
      <trkpt lat="44.42339" lon="2.53008">
        <ele>532.1</ele>
        <time>2011-06-04T11:08:14Z</time>
      </trkpt>
      <trkpt lat="44.42341" lon="2.53017">
        <ele>530.9</ele>
        <time>2011-06-04T11:08:16Z</time>
      </trkpt>
      <trkpt lat="44.42343" lon="2.53026">
        <ele>530</ele>
        <time>2011-06-04T11:08:18Z</time>
      </trkpt>
      <trkpt lat="44.4235" lon="2.5304">
        <ele>528.2</ele>
        <time>2011-06-04T11:08:22Z</time>
      </trkpt>
      <trkpt lat="44.42355" lon="2.53052">
        <ele>526.8</ele>
        <time>2011-06-04T11:08:26Z</time>
      </trkpt>
      <trkpt lat="44.42357" lon="2.53063">
        <ele>525.4</ele>
        <time>2011-06-04T11:08:31Z</time>
      </trkpt>
      <trkpt lat="44.42361" lon="2.53067">
        <ele>524.8</ele>
        <time>2011-06-04T11:08:33Z</time>
      </trkpt>
      <trkpt lat="44.42367" lon="2.53068">
        <ele>524.5</ele>
        <time>2011-06-04T11:08:35Z</time>
      </trkpt>
      <trkpt lat="44.42381" lon="2.53066">
        <ele>524.3</ele>
        <time>2011-06-04T11:08:40Z</time>
      </trkpt>
      <trkpt lat="44.42387" lon="2.53065">
        <ele>524</ele>
        <time>2011-06-04T11:08:42Z</time>
      </trkpt>
      <trkpt lat="44.42395" lon="2.53066">
        <ele>523.6</ele>
        <time>2011-06-04T11:08:45Z</time>
      </trkpt>
      <trkpt lat="44.42407" lon="2.53066">
        <ele>523.2</ele>
        <time>2011-06-04T11:08:50Z</time>
      </trkpt>
      <trkpt lat="44.42414" lon="2.53071">
        <ele>522.5</ele>
        <time>2011-06-04T11:08:54Z</time>
      </trkpt>
      <trkpt lat="44.42417" lon="2.53076">
        <ele>521.9</ele>
        <time>2011-06-04T11:08:56Z</time>
      </trkpt>
      <trkpt lat="44.42432" lon="2.53083">
        <ele>521.7</ele>
        <time>2011-06-04T11:09:10Z</time>
      </trkpt>
      <trkpt lat="44.42443" lon="2.53087">
        <ele>522.9</ele>
        <time>2011-06-04T11:09:25Z</time>
      </trkpt>
      <trkpt lat="44.42459" lon="2.53096">
        <ele>525.2</ele>
        <time>2011-06-04T11:09:49Z</time>
      </trkpt>
      <trkpt lat="44.42475" lon="2.53103">
        <ele>527</ele>
        <time>2011-06-04T11:10:07Z</time>
      </trkpt>
      <trkpt lat="44.42491" lon="2.53109">
        <ele>528.5</ele>
        <time>2011-06-04T11:10:17Z</time>
      </trkpt>
      <trkpt lat="44.42495" lon="2.53112">
        <ele>529.3</ele>
        <time>2011-06-04T11:10:22Z</time>
      </trkpt>
      <trkpt lat="44.42502" lon="2.53118">
        <ele>530.7</ele>
        <time>2011-06-04T11:10:31Z</time>
      </trkpt>
      <trkpt lat="44.42511" lon="2.53128">
        <ele>534.3</ele>
        <time>2011-06-04T11:10:44Z</time>
      </trkpt>
      <trkpt lat="44.42515" lon="2.53131">
        <ele>535.5</ele>
        <time>2011-06-04T11:10:49Z</time>
      </trkpt>
      <trkpt lat="44.4252" lon="2.53139">
        <ele>537.8</ele>
        <time>2011-06-04T11:10:59Z</time>
      </trkpt>
      <trkpt lat="44.42527" lon="2.53144">
        <ele>539.9</ele>
        <time>2011-06-04T11:11:09Z</time>
      </trkpt>
      <trkpt lat="44.42531" lon="2.53148">
        <ele>541</ele>
        <time>2011-06-04T11:11:15Z</time>
      </trkpt>
      <trkpt lat="44.42538" lon="2.53151">
        <ele>542.6</ele>
        <time>2011-06-04T11:11:33Z</time>
      </trkpt>
      <trkpt lat="44.42542" lon="2.53148">
        <ele>543.2</ele>
        <time>2011-06-04T11:15:29Z</time>
      </trkpt>
      <trkpt lat="44.42549" lon="2.53146">
        <ele>544.4</ele>
        <time>2011-06-04T11:15:37Z</time>
      </trkpt>
      <trkpt lat="44.42557" lon="2.53144">
        <ele>545.9</ele>
        <time>2011-06-04T11:15:49Z</time>
      </trkpt>
      <trkpt lat="44.42561" lon="2.53147">
        <ele>546.9</ele>
        <time>2011-06-04T11:16:27Z</time>
      </trkpt>
      <trkpt lat="44.42562" lon="2.5314">
        <ele>546.7</ele>
        <time>2011-06-04T11:17:59Z</time>
      </trkpt>
      <trkpt lat="44.42571" lon="2.53129">
        <ele>547.8</ele>
        <time>2011-06-04T11:18:05Z</time>
      </trkpt>
      <trkpt lat="44.42573" lon="2.53126">
        <ele>548.3</ele>
        <time>2011-06-04T11:18:07Z</time>
      </trkpt>
      <trkpt lat="44.42584" lon="2.53123">
        <ele>550.4</ele>
        <time>2011-06-04T11:18:15Z</time>
      </trkpt>
      <trkpt lat="44.42588" lon="2.53121">
        <ele>550.7</ele>
        <time>2011-06-04T11:18:26Z</time>
      </trkpt>
      <trkpt lat="44.42592" lon="2.53121">
        <ele>550.9</ele>
        <time>2011-06-04T11:18:30Z</time>
      </trkpt>
      <trkpt lat="44.42603" lon="2.53118">
        <ele>551.5</ele>
        <time>2011-06-04T11:18:43Z</time>
      </trkpt>
      <trkpt lat="44.42615" lon="2.53115">
        <ele>552.2</ele>
        <time>2011-06-04T11:18:58Z</time>
      </trkpt>
      <trkpt lat="44.42628" lon="2.53113">
        <ele>552.9</ele>
        <time>2011-06-04T11:19:23Z</time>
      </trkpt>
      <trkpt lat="44.42632" lon="2.53112">
        <ele>553.2</ele>
        <time>2011-06-04T11:19:30Z</time>
      </trkpt>
      <trkpt lat="44.4264" lon="2.53113">
        <ele>553.7</ele>
        <time>2011-06-04T11:19:42Z</time>
      </trkpt>
      <trkpt lat="44.42648" lon="2.53111">
        <ele>554.1</ele>
        <time>2011-06-04T11:19:47Z</time>
      </trkpt>
      <trkpt lat="44.42655" lon="2.53112">
        <ele>554.6</ele>
        <time>2011-06-04T11:19:52Z</time>
      </trkpt>
      <trkpt lat="44.42662" lon="2.53117">
        <ele>555.3</ele>
        <time>2011-06-04T11:19:58Z</time>
      </trkpt>
      <trkpt lat="44.42665" lon="2.53122">
        <ele>555.7</ele>
        <time>2011-06-04T11:20:01Z</time>
      </trkpt>
      <trkpt lat="44.42672" lon="2.53128">
        <ele>556.1</ele>
        <time>2011-06-04T11:20:15Z</time>
      </trkpt>
      <trkpt lat="44.42681" lon="2.53138">
        <ele>556.5</ele>
        <time>2011-06-04T11:20:31Z</time>
      </trkpt>
      <trkpt lat="44.42686" lon="2.53143">
        <ele>556.7</ele>
        <time>2011-06-04T11:20:35Z</time>
      </trkpt>
      <trkpt lat="44.42695" lon="2.53148">
        <ele>556.9</ele>
        <time>2011-06-04T11:20:41Z</time>
      </trkpt>
      <trkpt lat="44.42702" lon="2.53148">
        <ele>556.9</ele>
        <time>2011-06-04T11:20:45Z</time>
      </trkpt>
      <trkpt lat="44.42711" lon="2.53142">
        <ele>556.5</ele>
        <time>2011-06-04T11:20:50Z</time>
      </trkpt>
      <trkpt lat="44.42728" lon="2.53138">
        <ele>556.1</ele>
        <time>2011-06-04T11:20:57Z</time>
      </trkpt>
      <trkpt lat="44.42733" lon="2.53139">
        <ele>556.1</ele>
        <time>2011-06-04T11:20:59Z</time>
      </trkpt>
      <trkpt lat="44.42739" lon="2.5314">
        <ele>556.1</ele>
        <time>2011-06-04T11:21:01Z</time>
      </trkpt>
      <trkpt lat="44.42748" lon="2.53144">
        <ele>556.3</ele>
        <time>2011-06-04T11:21:04Z</time>
      </trkpt>
      <trkpt lat="44.42757" lon="2.53147">
        <ele>556.6</ele>
        <time>2011-06-04T11:21:07Z</time>
      </trkpt>
      <trkpt lat="44.42764" lon="2.53152">
        <ele>557</ele>
        <time>2011-06-04T11:21:11Z</time>
      </trkpt>
      <trkpt lat="44.42772" lon="2.53155">
        <ele>557.4</ele>
        <time>2011-06-04T11:21:15Z</time>
      </trkpt>
      <trkpt lat="44.42777" lon="2.53156">
        <ele>557.4</ele>
        <time>2011-06-04T11:21:17Z</time>
      </trkpt>
      <trkpt lat="44.42782" lon="2.53155">
        <ele>557.4</ele>
        <time>2011-06-04T11:21:19Z</time>
      </trkpt>
      <trkpt lat="44.42787" lon="2.53151">
        <ele>557.2</ele>
        <time>2011-06-04T11:21:21Z</time>
      </trkpt>
      <trkpt lat="44.42803" lon="2.53142">
        <ele>556.6</ele>
        <time>2011-06-04T11:21:26Z</time>
      </trkpt>
      <trkpt lat="44.42811" lon="2.53139">
        <ele>556.4</ele>
        <time>2011-06-04T11:21:28Z</time>
      </trkpt>
      <trkpt lat="44.42829" lon="2.5313">
        <ele>555.9</ele>
        <time>2011-06-04T11:21:33Z</time>
      </trkpt>
      <trkpt lat="44.42835" lon="2.53126">
        <ele>555.5</ele>
        <time>2011-06-04T11:21:35Z</time>
      </trkpt>
      <trkpt lat="44.4285" lon="2.53115">
        <ele>553.8</ele>
        <time>2011-06-04T11:21:39Z</time>
      </trkpt>
      <trkpt lat="44.42872" lon="2.53105">
        <ele>552.1</ele>
        <time>2011-06-04T11:21:44Z</time>
      </trkpt>
      <trkpt lat="44.42889" lon="2.53096">
        <ele>550.8</ele>
        <time>2011-06-04T11:21:48Z</time>
      </trkpt>
      <trkpt lat="44.42915" lon="2.53078">
        <ele>548.9</ele>
        <time>2011-06-04T11:21:54Z</time>
      </trkpt>
      <trkpt lat="44.42933" lon="2.53068">
        <ele>547.8</ele>
        <time>2011-06-04T11:21:58Z</time>
      </trkpt>
      <trkpt lat="44.42949" lon="2.53063">
        <ele>547</ele>
        <time>2011-06-04T11:22:01Z</time>
      </trkpt>
      <trkpt lat="44.42953" lon="2.53059">
        <ele>546.7</ele>
        <time>2011-06-04T11:22:02Z</time>
      </trkpt>
      <trkpt lat="44.4296" lon="2.53052">
        <ele>546.1</ele>
        <time>2011-06-04T11:22:04Z</time>
      </trkpt>
      <trkpt lat="44.42965" lon="2.53049">
        <ele>545.8</ele>
        <time>2011-06-04T11:22:05Z</time>
      </trkpt>
      <trkpt lat="44.42969" lon="2.53046">
        <ele>545.5</ele>
        <time>2011-06-04T11:22:06Z</time>
      </trkpt>
      <trkpt lat="44.42974" lon="2.53044">
        <ele>545.2</ele>
        <time>2011-06-04T11:22:07Z</time>
      </trkpt>
      <trkpt lat="44.42991" lon="2.5304">
        <ele>544.2</ele>
        <time>2011-06-04T11:22:11Z</time>
      </trkpt>
      <trkpt lat="44.42996" lon="2.53038">
        <ele>544</ele>
        <time>2011-06-04T11:22:12Z</time>
      </trkpt>
      <trkpt lat="44.43035" lon="2.53028">
        <ele>543.2</ele>
        <time>2011-06-04T11:22:19Z</time>
      </trkpt>
      <trkpt lat="44.43084" lon="2.53018">
        <ele>542.2</ele>
        <time>2011-06-04T11:22:26Z</time>
      </trkpt>
      <trkpt lat="44.43124" lon="2.53009">
        <ele>540.2</ele>
        <time>2011-06-04T11:22:32Z</time>
      </trkpt>
      <trkpt lat="44.43149" lon="2.53007">
        <ele>539.2</ele>
        <time>2011-06-04T11:22:37Z</time>
      </trkpt>
      <trkpt lat="44.43176" lon="2.53006">
        <ele>538.5</ele>
        <time>2011-06-04T11:22:43Z</time>
      </trkpt>
      <trkpt lat="44.43195" lon="2.53004">
        <ele>538.5</ele>
        <time>2011-06-04T11:22:47Z</time>
      </trkpt>
      <trkpt lat="44.43224" lon="2.52999">
        <ele>538.7</ele>
        <time>2011-06-04T11:22:53Z</time>
      </trkpt>
      <trkpt lat="44.43243" lon="2.52996">
        <ele>538.9</ele>
        <time>2011-06-04T11:22:57Z</time>
      </trkpt>
      <trkpt lat="44.43272" lon="2.52991">
        <ele>538.7</ele>
        <time>2011-06-04T11:23:03Z</time>
      </trkpt>
      <trkpt lat="44.43291" lon="2.52988">
        <ele>538.6</ele>
        <time>2011-06-04T11:23:07Z</time>
      </trkpt>
      <trkpt lat="44.4331" lon="2.52986">
        <ele>538.5</ele>
        <time>2011-06-04T11:23:11Z</time>
      </trkpt>
      <trkpt lat="44.4334" lon="2.52982">
        <ele>538.7</ele>
        <time>2011-06-04T11:23:17Z</time>
      </trkpt>
      <trkpt lat="44.43356" lon="2.52979">
        <ele>539.4</ele>
        <time>2011-06-04T11:23:20Z</time>
      </trkpt>
      <trkpt lat="44.43372" lon="2.52974">
        <ele>540</ele>
        <time>2011-06-04T11:23:23Z</time>
      </trkpt>
      <trkpt lat="44.43377" lon="2.52971">
        <ele>540.2</ele>
        <time>2011-06-04T11:23:24Z</time>
      </trkpt>
      <trkpt lat="44.43381" lon="2.52968">
        <ele>540.5</ele>
        <time>2011-06-04T11:23:25Z</time>
      </trkpt>
      <trkpt lat="44.43416" lon="2.52942">
        <ele>542.4</ele>
        <time>2011-06-04T11:23:33Z</time>
      </trkpt>
      <trkpt lat="44.4342" lon="2.52939">
        <ele>542.5</ele>
        <time>2011-06-04T11:23:34Z</time>
      </trkpt>
      <trkpt lat="44.43443" lon="2.52921">
        <ele>543.3</ele>
        <time>2011-06-04T11:23:40Z</time>
      </trkpt>
      <trkpt lat="44.4346" lon="2.52908">
        <ele>543.8</ele>
        <time>2011-06-04T11:23:45Z</time>
      </trkpt>
      <trkpt lat="44.43466" lon="2.52903">
        <ele>544</ele>
        <time>2011-06-04T11:23:47Z</time>
      </trkpt>
      <trkpt lat="44.43468" lon="2.52895">
        <ele>544.3</ele>
        <time>2011-06-04T11:23:49Z</time>
      </trkpt>
      <trkpt lat="44.43468" lon="2.52885">
        <ele>544.6</ele>
        <time>2011-06-04T11:23:51Z</time>
      </trkpt>
      <trkpt lat="44.43468" lon="2.52871">
        <ele>545.1</ele>
        <time>2011-06-04T11:23:54Z</time>
      </trkpt>
      <trkpt lat="44.43465" lon="2.52843">
        <ele>545.9</ele>
        <time>2011-06-04T11:24:00Z</time>
      </trkpt>
      <trkpt lat="44.43461" lon="2.52814">
        <ele>546</ele>
        <time>2011-06-04T11:24:06Z</time>
      </trkpt>
      <trkpt lat="44.43456" lon="2.5279">
        <ele>546</ele>
        <time>2011-06-04T11:24:11Z</time>
      </trkpt>
      <trkpt lat="44.43453" lon="2.52775">
        <ele>546</ele>
        <time>2011-06-04T11:24:14Z</time>
      </trkpt>
      <trkpt lat="44.43446" lon="2.52745">
        <ele>546.2</ele>
        <time>2011-06-04T11:24:20Z</time>
      </trkpt>
      <trkpt lat="44.43443" lon="2.52731">
        <ele>546.8</ele>
        <time>2011-06-04T11:24:23Z</time>
      </trkpt>
      <trkpt lat="44.43436" lon="2.52696">
        <ele>548.1</ele>
        <time>2011-06-04T11:24:32Z</time>
      </trkpt>
      <trkpt lat="44.43434" lon="2.52686">
        <ele>548.5</ele>
        <time>2011-06-04T11:24:35Z</time>
      </trkpt>
      <trkpt lat="44.43431" lon="2.5268">
        <ele>548.7</ele>
        <time>2011-06-04T11:24:37Z</time>
      </trkpt>
      <trkpt lat="44.4343" lon="2.52678">
        <ele>548.8</ele>
        <time>2011-06-04T11:24:38Z</time>
      </trkpt>
      <trkpt lat="44.43422" lon="2.52669">
        <ele>549</ele>
        <time>2011-06-04T11:24:42Z</time>
      </trkpt>
      <trkpt lat="44.43408" lon="2.52655">
        <ele>550.1</ele>
        <time>2011-06-04T11:24:49Z</time>
      </trkpt>
      <trkpt lat="44.43404" lon="2.5265">
        <ele>550.5</ele>
        <time>2011-06-04T11:24:51Z</time>
      </trkpt>
      <trkpt lat="44.4339" lon="2.52635">
        <ele>551.8</ele>
        <time>2011-06-04T11:24:58Z</time>
      </trkpt>
      <trkpt lat="44.43381" lon="2.52627">
        <ele>552.5</ele>
        <time>2011-06-04T11:25:02Z</time>
      </trkpt>
      <trkpt lat="44.43366" lon="2.52613">
        <ele>553.6</ele>
        <time>2011-06-04T11:25:10Z</time>
      </trkpt>
      <trkpt lat="44.43347" lon="2.52592">
        <ele>555.4</ele>
        <time>2011-06-04T11:25:20Z</time>
      </trkpt>
      <trkpt lat="44.43341" lon="2.52587">
        <ele>555.7</ele>
        <time>2011-06-04T11:25:23Z</time>
      </trkpt>
      <trkpt lat="44.43325" lon="2.52569">
        <ele>556</ele>
        <time>2011-06-04T11:25:32Z</time>
      </trkpt>
      <trkpt lat="44.43317" lon="2.52565">
        <ele>555.9</ele>
        <time>2011-06-04T11:25:36Z</time>
      </trkpt>
      <trkpt lat="44.43303" lon="2.52554">
        <ele>555.6</ele>
        <time>2011-06-04T11:25:43Z</time>
      </trkpt>
      <trkpt lat="44.43297" lon="2.5255">
        <ele>555.5</ele>
        <time>2011-06-04T11:25:46Z</time>
      </trkpt>
      <trkpt lat="44.43291" lon="2.52545">
        <ele>555.5</ele>
        <time>2011-06-04T11:25:49Z</time>
      </trkpt>
      <trkpt lat="44.43276" lon="2.52536">
        <ele>555.2</ele>
        <time>2011-06-04T11:25:56Z</time>
      </trkpt>
      <trkpt lat="44.43252" lon="2.52524">
        <ele>554.8</ele>
        <time>2011-06-04T11:26:04Z</time>
      </trkpt>
      <trkpt lat="44.43237" lon="2.52516">
        <ele>554.5</ele>
        <time>2011-06-04T11:26:09Z</time>
      </trkpt>
      <trkpt lat="44.43219" lon="2.52498">
        <ele>554.2</ele>
        <time>2011-06-04T11:26:16Z</time>
      </trkpt>
      <trkpt lat="44.43213" lon="2.52491">
        <ele>553.9</ele>
        <time>2011-06-04T11:26:18Z</time>
      </trkpt>
      <trkpt lat="44.43194" lon="2.5247">
        <ele>552.7</ele>
        <time>2011-06-04T11:26:25Z</time>
      </trkpt>
      <trkpt lat="44.43185" lon="2.52459">
        <ele>552.1</ele>
        <time>2011-06-04T11:26:28Z</time>
      </trkpt>
      <trkpt lat="44.43164" lon="2.52427">
        <ele>550.3</ele>
        <time>2011-06-04T11:26:36Z</time>
      </trkpt>
      <trkpt lat="44.43153" lon="2.52409">
        <ele>549.6</ele>
        <time>2011-06-04T11:26:40Z</time>
      </trkpt>
      <trkpt lat="44.43151" lon="2.52404">
        <ele>549.3</ele>
        <time>2011-06-04T11:26:41Z</time>
      </trkpt>
      <trkpt lat="44.43134" lon="2.52373">
        <ele>547.7</ele>
        <time>2011-06-04T11:26:48Z</time>
      </trkpt>
      <trkpt lat="44.43129" lon="2.52365">
        <ele>547.2</ele>
        <time>2011-06-04T11:26:50Z</time>
      </trkpt>
      <trkpt lat="44.43118" lon="2.52345">
        <ele>546</ele>
        <time>2011-06-04T11:26:55Z</time>
      </trkpt>
      <trkpt lat="44.43106" lon="2.52321">
        <ele>544.8</ele>
        <time>2011-06-04T11:27:01Z</time>
      </trkpt>
      <trkpt lat="44.43096" lon="2.52306">
        <ele>544.3</ele>
        <time>2011-06-04T11:27:06Z</time>
      </trkpt>
      <trkpt lat="44.43093" lon="2.523">
        <ele>544.1</ele>
        <time>2011-06-04T11:27:08Z</time>
      </trkpt>
      <trkpt lat="44.43091" lon="2.52293">
        <ele>543.9</ele>
        <time>2011-06-04T11:27:10Z</time>
      </trkpt>
      <trkpt lat="44.43088" lon="2.52272">
        <ele>543.4</ele>
        <time>2011-06-04T11:27:15Z</time>
      </trkpt>
      <trkpt lat="44.43086" lon="2.52264">
        <ele>543.2</ele>
        <time>2011-06-04T11:27:17Z</time>
      </trkpt>
      <trkpt lat="44.43084" lon="2.52257">
        <ele>543.1</ele>
        <time>2011-06-04T11:27:19Z</time>
      </trkpt>
      <trkpt lat="44.43082" lon="2.52251">
        <ele>543.2</ele>
        <time>2011-06-04T11:27:21Z</time>
      </trkpt>
      <trkpt lat="44.43078" lon="2.52237">
        <ele>542.8</ele>
        <time>2011-06-04T11:27:25Z</time>
      </trkpt>
      <trkpt lat="44.43074" lon="2.5221">
        <ele>541.6</ele>
        <time>2011-06-04T11:27:32Z</time>
      </trkpt>
      <trkpt lat="44.4307" lon="2.52197">
        <ele>541.4</ele>
        <time>2011-06-04T11:27:36Z</time>
      </trkpt>
      <trkpt lat="44.4307" lon="2.52191">
        <ele>541.1</ele>
        <time>2011-06-04T11:27:38Z</time>
      </trkpt>
      <trkpt lat="44.43073" lon="2.52186">
        <ele>540.5</ele>
        <time>2011-06-04T11:27:40Z</time>
      </trkpt>
      <trkpt lat="44.43077" lon="2.5218">
        <ele>539.6</ele>
        <time>2011-06-04T11:27:42Z</time>
      </trkpt>
      <trkpt lat="44.43082" lon="2.52163">
        <ele>538</ele>
        <time>2011-06-04T11:27:46Z</time>
      </trkpt>
      <trkpt lat="44.4308" lon="2.52154">
        <ele>537.8</ele>
        <time>2011-06-04T11:27:48Z</time>
      </trkpt>
      <trkpt lat="44.43078" lon="2.52146">
        <ele>537.7</ele>
        <time>2011-06-04T11:27:50Z</time>
      </trkpt>
      <trkpt lat="44.43077" lon="2.52135">
        <ele>537.3</ele>
        <time>2011-06-04T11:27:52Z</time>
      </trkpt>
      <trkpt lat="44.43078" lon="2.52129">
        <ele>537</ele>
        <time>2011-06-04T11:27:53Z</time>
      </trkpt>
      <trkpt lat="44.43079" lon="2.52122">
        <ele>536.5</ele>
        <time>2011-06-04T11:27:54Z</time>
      </trkpt>
      <trkpt lat="44.43081" lon="2.52116">
        <ele>535.9</ele>
        <time>2011-06-04T11:27:55Z</time>
      </trkpt>
      <trkpt lat="44.43087" lon="2.52104">
        <ele>534.9</ele>
        <time>2011-06-04T11:27:57Z</time>
      </trkpt>
      <trkpt lat="44.43089" lon="2.52098">
        <ele>534.6</ele>
        <time>2011-06-04T11:27:58Z</time>
      </trkpt>
      <trkpt lat="44.43091" lon="2.52091">
        <ele>534.1</ele>
        <time>2011-06-04T11:27:59Z</time>
      </trkpt>
      <trkpt lat="44.43093" lon="2.52069">
        <ele>533.6</ele>
        <time>2011-06-04T11:28:02Z</time>
      </trkpt>
      <trkpt lat="44.43095" lon="2.5204">
        <ele>533.2</ele>
        <time>2011-06-04T11:28:06Z</time>
      </trkpt>
      <trkpt lat="44.43094" lon="2.52034">
        <ele>533.1</ele>
        <time>2011-06-04T11:28:07Z</time>
      </trkpt>
      <trkpt lat="44.43093" lon="2.52028">
        <ele>533.1</ele>
        <time>2011-06-04T11:28:08Z</time>
      </trkpt>
      <trkpt lat="44.4309" lon="2.52019">
        <ele>533</ele>
        <time>2011-06-04T11:28:10Z</time>
      </trkpt>
      <trkpt lat="44.43082" lon="2.52003">
        <ele>533.1</ele>
        <time>2011-06-04T11:28:16Z</time>
      </trkpt>
      <trkpt lat="44.43086" lon="2.51996">
        <ele>532.8</ele>
        <time>2011-06-04T11:28:18Z</time>
      </trkpt>
      <trkpt lat="44.43091" lon="2.51991">
        <ele>532.5</ele>
        <time>2011-06-04T11:28:21Z</time>
      </trkpt>
      <trkpt lat="44.43098" lon="2.51987">
        <ele>532.3</ele>
        <time>2011-06-04T11:28:24Z</time>
      </trkpt>
      <trkpt lat="44.43102" lon="2.5198">
        <ele>532.1</ele>
        <time>2011-06-04T11:28:26Z</time>
      </trkpt>
      <trkpt lat="44.43103" lon="2.51973">
        <ele>531.9</ele>
        <time>2011-06-04T11:28:28Z</time>
      </trkpt>
      <trkpt lat="44.43098" lon="2.51957">
        <ele>531.5</ele>
        <time>2011-06-04T11:28:34Z</time>
      </trkpt>
      <trkpt lat="44.43095" lon="2.51951">
        <ele>531.3</ele>
        <time>2011-06-04T11:28:36Z</time>
      </trkpt>
      <trkpt lat="44.43094" lon="2.51946">
        <ele>531.1</ele>
        <time>2011-06-04T11:28:38Z</time>
      </trkpt>
      <trkpt lat="44.43096" lon="2.51939">
        <ele>530.9</ele>
        <time>2011-06-04T11:28:40Z</time>
      </trkpt>
      <trkpt lat="44.43102" lon="2.51922">
        <ele>530.6</ele>
        <time>2011-06-04T11:28:46Z</time>
      </trkpt>
      <trkpt lat="44.43104" lon="2.51916">
        <ele>530.4</ele>
        <time>2011-06-04T11:28:48Z</time>
      </trkpt>
      <trkpt lat="44.43104" lon="2.51908">
        <ele>529.9</ele>
        <time>2011-06-04T11:28:51Z</time>
      </trkpt>
      <trkpt lat="44.43107" lon="2.51899">
        <ele>529.5</ele>
        <time>2011-06-04T11:28:54Z</time>
      </trkpt>
      <trkpt lat="44.43111" lon="2.5189">
        <ele>529.1</ele>
        <time>2011-06-04T11:28:57Z</time>
      </trkpt>
      <trkpt lat="44.43112" lon="2.51885">
        <ele>528.9</ele>
        <time>2011-06-04T11:28:59Z</time>
      </trkpt>
      <trkpt lat="44.43115" lon="2.5187">
        <ele>528.3</ele>
        <time>2011-06-04T11:29:06Z</time>
      </trkpt>
      <trkpt lat="44.43116" lon="2.5186">
        <ele>527.8</ele>
        <time>2011-06-04T11:29:13Z</time>
      </trkpt>
      <trkpt lat="44.43119" lon="2.51857">
        <ele>527.9</ele>
        <time>2011-06-04T11:29:16Z</time>
      </trkpt>
      <trkpt lat="44.43122" lon="2.51852">
        <ele>528</ele>
        <time>2011-06-04T11:29:33Z</time>
      </trkpt>
      <trkpt lat="44.43126" lon="2.51842">
        <ele>528</ele>
        <time>2011-06-04T11:30:31Z</time>
      </trkpt>
      <trkpt lat="44.43126" lon="2.51838">
        <ele>527.8</ele>
        <time>2011-06-04T11:30:33Z</time>
      </trkpt>
      <trkpt lat="44.43127" lon="2.5183">
        <ele>527.3</ele>
        <time>2011-06-04T11:30:36Z</time>
      </trkpt>
      <trkpt lat="44.43131" lon="2.51822">
        <ele>527</ele>
        <time>2011-06-04T11:30:39Z</time>
      </trkpt>
      <trkpt lat="44.43135" lon="2.51819">
        <ele>527.3</ele>
        <time>2011-06-04T11:30:41Z</time>
      </trkpt>
      <trkpt lat="44.4314" lon="2.51815">
        <ele>527.5</ele>
        <time>2011-06-04T11:30:43Z</time>
      </trkpt>
      <trkpt lat="44.43142" lon="2.51807">
        <ele>527.3</ele>
        <time>2011-06-04T11:30:45Z</time>
      </trkpt>
      <trkpt lat="44.43144" lon="2.51804">
        <ele>527.3</ele>
        <time>2011-06-04T11:30:46Z</time>
      </trkpt>
      <trkpt lat="44.43148" lon="2.51799">
        <ele>527.6</ele>
        <time>2011-06-04T11:30:48Z</time>
      </trkpt>
      <trkpt lat="44.4315" lon="2.51797">
        <ele>528.1</ele>
        <time>2011-06-04T11:30:49Z</time>
      </trkpt>
      <trkpt lat="44.43156" lon="2.51796">
        <ele>529.1</ele>
        <time>2011-06-04T11:30:51Z</time>
      </trkpt>
      <trkpt lat="44.43163" lon="2.51787">
        <ele>530.1</ele>
        <time>2011-06-04T11:30:55Z</time>
      </trkpt>
      <trkpt lat="44.43169" lon="2.51782">
        <ele>530.9</ele>
        <time>2011-06-04T11:30:59Z</time>
      </trkpt>
      <trkpt lat="44.43168" lon="2.51774">
        <ele>530.6</ele>
        <time>2011-06-04T11:31:03Z</time>
      </trkpt>
      <trkpt lat="44.43171" lon="2.51766">
        <ele>530.6</ele>
        <time>2011-06-04T11:31:06Z</time>
      </trkpt>
      <trkpt lat="44.43175" lon="2.51762">
        <ele>530.8</ele>
        <time>2011-06-04T11:31:08Z</time>
      </trkpt>
      <trkpt lat="44.43179" lon="2.51756">
        <ele>530.9</ele>
        <time>2011-06-04T11:31:11Z</time>
      </trkpt>
      <trkpt lat="44.43184" lon="2.51747">
        <ele>530.1</ele>
        <time>2011-06-04T11:31:20Z</time>
      </trkpt>
      <trkpt lat="44.43186" lon="2.51741">
        <ele>529</ele>
        <time>2011-06-04T11:31:25Z</time>
      </trkpt>
      <trkpt lat="44.43187" lon="2.51736">
        <ele>527.9</ele>
        <time>2011-06-04T11:31:30Z</time>
      </trkpt>
      <trkpt lat="44.43189" lon="2.5173">
        <ele>526.8</ele>
        <time>2011-06-04T11:31:50Z</time>
      </trkpt>
      <trkpt lat="44.43192" lon="2.51724">
        <ele>525.4</ele>
        <time>2011-06-04T11:31:54Z</time>
      </trkpt>
      <trkpt lat="44.43194" lon="2.51718">
        <ele>524.3</ele>
        <time>2011-06-04T11:31:56Z</time>
      </trkpt>
      <trkpt lat="44.43191" lon="2.51713">
        <ele>522.9</ele>
        <time>2011-06-04T11:32:03Z</time>
      </trkpt>
      <trkpt lat="44.43192" lon="2.51707">
        <ele>521.8</ele>
        <time>2011-06-04T11:32:10Z</time>
      </trkpt>
      <trkpt lat="44.43197" lon="2.51705">
        <ele>521.7</ele>
        <time>2011-06-04T11:34:12Z</time>
      </trkpt>
      <trkpt lat="44.43204" lon="2.51708">
        <ele>523</ele>
        <time>2011-06-04T11:34:23Z</time>
      </trkpt>
      <trkpt lat="44.43214" lon="2.51704">
        <ele>523.3</ele>
        <time>2011-06-04T11:34:40Z</time>
      </trkpt>
      <trkpt lat="44.43219" lon="2.51704">
        <ele>524.1</ele>
        <time>2011-06-04T11:34:44Z</time>
      </trkpt>
      <trkpt lat="44.43232" lon="2.51694">
        <ele>523.3</ele>
        <time>2011-06-04T11:35:31Z</time>
      </trkpt>
      <trkpt lat="44.43239" lon="2.51691">
        <ele>523.7</ele>
        <time>2011-06-04T11:35:37Z</time>
      </trkpt>
      <trkpt lat="44.43246" lon="2.51691">
        <ele>524.4</ele>
        <time>2011-06-04T11:35:41Z</time>
      </trkpt>
      <trkpt lat="44.43252" lon="2.51689">
        <ele>524.9</ele>
        <time>2011-06-04T11:35:45Z</time>
      </trkpt>
      <trkpt lat="44.43267" lon="2.51683">
        <ele>525.2</ele>
        <time>2011-06-04T11:35:52Z</time>
      </trkpt>
      <trkpt lat="44.43282" lon="2.51671">
        <ele>525</ele>
        <time>2011-06-04T11:36:01Z</time>
      </trkpt>
      <trkpt lat="44.43288" lon="2.51673">
        <ele>525.8</ele>
        <time>2011-06-04T11:36:04Z</time>
      </trkpt>
      <trkpt lat="44.43299" lon="2.51675">
        <ele>527.3</ele>
        <time>2011-06-04T11:36:09Z</time>
      </trkpt>
      <trkpt lat="44.43303" lon="2.51674">
        <ele>527.5</ele>
        <time>2011-06-04T11:36:11Z</time>
      </trkpt>
      <trkpt lat="44.4331" lon="2.51671">
        <ele>528</ele>
        <time>2011-06-04T11:36:14Z</time>
      </trkpt>
      <trkpt lat="44.43317" lon="2.51668">
        <ele>528.2</ele>
        <time>2011-06-04T11:36:17Z</time>
      </trkpt>
      <trkpt lat="44.43327" lon="2.51659">
        <ele>525.4</ele>
        <time>2011-06-04T11:36:21Z</time>
      </trkpt>
      <trkpt lat="44.43354" lon="2.51642">
        <ele>512.4</ele>
        <time>2011-06-04T11:36:33Z</time>
      </trkpt>
      <trkpt lat="44.43368" lon="2.51638">
        <ele>506.6</ele>
        <time>2011-06-04T11:36:39Z</time>
      </trkpt>
      <trkpt lat="44.4338" lon="2.51641">
        <ele>504.8</ele>
        <time>2011-06-04T11:36:44Z</time>
      </trkpt>
      <trkpt lat="44.43391" lon="2.51645">
        <ele>503.9</ele>
        <time>2011-06-04T11:36:51Z</time>
      </trkpt>
      <trkpt lat="44.434" lon="2.51651">
        <ele>504.9</ele>
        <time>2011-06-04T11:37:00Z</time>
      </trkpt>
      <trkpt lat="44.43403" lon="2.51655">
        <ele>506.1</ele>
        <time>2011-06-04T11:37:10Z</time>
      </trkpt>
      <trkpt lat="44.43407" lon="2.51653">
        <ele>503.7</ele>
        <time>2011-06-04T11:37:19Z</time>
      </trkpt>
      <trkpt lat="44.4342" lon="2.5165">
        <ele>498.3</ele>
        <time>2011-06-04T11:37:28Z</time>
      </trkpt>
      <trkpt lat="44.43423" lon="2.5165">
        <ele>496.4</ele>
        <time>2011-06-04T11:37:30Z</time>
      </trkpt>
      <trkpt lat="44.43428" lon="2.51651">
        <ele>494.2</ele>
        <time>2011-06-04T11:37:33Z</time>
      </trkpt>
      <trkpt lat="44.43434" lon="2.51652">
        <ele>491.4</ele>
        <time>2011-06-04T11:37:36Z</time>
      </trkpt>
      <trkpt lat="44.43437" lon="2.51655">
        <ele>491.4</ele>
        <time>2011-06-04T11:37:39Z</time>
      </trkpt>
      <trkpt lat="44.43448" lon="2.51673">
        <ele>491.6</ele>
        <time>2011-06-04T11:37:50Z</time>
      </trkpt>
      <trkpt lat="44.43458" lon="2.51693">
        <ele>490</ele>
        <time>2011-06-04T11:38:00Z</time>
      </trkpt>
      <trkpt lat="44.43465" lon="2.51713">
        <ele>489.9</ele>
        <time>2011-06-04T11:38:08Z</time>
      </trkpt>
      <trkpt lat="44.43467" lon="2.51719">
        <ele>490.5</ele>
        <time>2011-06-04T11:38:10Z</time>
      </trkpt>
      <trkpt lat="44.43474" lon="2.51735">
        <ele>490</ele>
        <time>2011-06-04T11:38:16Z</time>
      </trkpt>
      <trkpt lat="44.43479" lon="2.51742">
        <ele>488.9</ele>
        <time>2011-06-04T11:38:19Z</time>
      </trkpt>
      <trkpt lat="44.43485" lon="2.51747">
        <ele>486.7</ele>
        <time>2011-06-04T11:38:22Z</time>
      </trkpt>
      <trkpt lat="44.43491" lon="2.51755">
        <ele>486.4</ele>
        <time>2011-06-04T11:38:26Z</time>
      </trkpt>
      <trkpt lat="44.43493" lon="2.51762">
        <ele>487.5</ele>
        <time>2011-06-04T11:38:28Z</time>
      </trkpt>
      <trkpt lat="44.43494" lon="2.51765">
        <ele>488.6</ele>
        <time>2011-06-04T11:38:29Z</time>
      </trkpt>
      <trkpt lat="44.43493" lon="2.51779">
        <ele>494.7</ele>
        <time>2011-06-04T11:38:33Z</time>
      </trkpt>
      <trkpt lat="44.43494" lon="2.51796">
        <ele>501.7</ele>
        <time>2011-06-04T11:38:37Z</time>
      </trkpt>
      <trkpt lat="44.43493" lon="2.51804">
        <ele>505.3</ele>
        <time>2011-06-04T11:38:39Z</time>
      </trkpt>
      <trkpt lat="44.43489" lon="2.51821">
        <ele>513.5</ele>
        <time>2011-06-04T11:38:43Z</time>
      </trkpt>
      <trkpt lat="44.43489" lon="2.5183">
        <ele>517.3</ele>
        <time>2011-06-04T11:38:45Z</time>
      </trkpt>
      <trkpt lat="44.43489" lon="2.51836">
        <ele>519.2</ele>
        <time>2011-06-04T11:38:46Z</time>
      </trkpt>
      <trkpt lat="44.43493" lon="2.51845">
        <ele>519.9</ele>
        <time>2011-06-04T11:38:48Z</time>
      </trkpt>
      <trkpt lat="44.435" lon="2.51847">
        <ele>519</ele>
        <time>2011-06-04T11:38:50Z</time>
      </trkpt>
      <trkpt lat="44.43511" lon="2.5185">
        <ele>519.5</ele>
        <time>2011-06-04T11:38:53Z</time>
      </trkpt>
      <trkpt lat="44.43521" lon="2.51852">
        <ele>519.4</ele>
        <time>2011-06-04T11:38:56Z</time>
      </trkpt>
      <trkpt lat="44.43538" lon="2.51854">
        <ele>519.4</ele>
        <time>2011-06-04T11:39:01Z</time>
      </trkpt>
      <trkpt lat="44.43552" lon="2.51855">
        <ele>518.9</ele>
        <time>2011-06-04T11:39:05Z</time>
      </trkpt>
      <trkpt lat="44.43558" lon="2.51856">
        <ele>519</ele>
        <time>2011-06-04T11:39:07Z</time>
      </trkpt>
      <trkpt lat="44.4356" lon="2.51858">
        <ele>519.5</ele>
        <time>2011-06-04T11:39:08Z</time>
      </trkpt>
      <trkpt lat="44.43565" lon="2.51864">
        <ele>520.5</ele>
        <time>2011-06-04T11:39:10Z</time>
      </trkpt>
      <trkpt lat="44.43571" lon="2.51868">
        <ele>521.2</ele>
        <time>2011-06-04T11:39:12Z</time>
      </trkpt>
      <trkpt lat="44.43576" lon="2.51873">
        <ele>522.2</ele>
        <time>2011-06-04T11:39:14Z</time>
      </trkpt>
      <trkpt lat="44.43578" lon="2.51884">
        <ele>524.5</ele>
        <time>2011-06-04T11:39:18Z</time>
      </trkpt>
      <trkpt lat="44.43586" lon="2.5188">
        <ele>523.3</ele>
        <time>2011-06-04T11:39:33Z</time>
      </trkpt>
      <trkpt lat="44.43597" lon="2.51878">
        <ele>522.7</ele>
        <time>2011-06-04T11:39:45Z</time>
      </trkpt>
      <trkpt lat="44.43601" lon="2.51878">
        <ele>522.5</ele>
        <time>2011-06-04T11:39:47Z</time>
      </trkpt>
      <trkpt lat="44.43607" lon="2.51877">
        <ele>522.1</ele>
        <time>2011-06-04T11:39:49Z</time>
      </trkpt>
      <trkpt lat="44.43618" lon="2.51878">
        <ele>522</ele>
        <time>2011-06-04T11:39:53Z</time>
      </trkpt>
      <trkpt lat="44.43623" lon="2.51876">
        <ele>521.6</ele>
        <time>2011-06-04T11:39:55Z</time>
      </trkpt>
      <trkpt lat="44.43632" lon="2.51874">
        <ele>520.8</ele>
        <time>2011-06-04T11:39:58Z</time>
      </trkpt>
      <trkpt lat="44.43645" lon="2.51869">
        <ele>519.3</ele>
        <time>2011-06-04T11:40:03Z</time>
      </trkpt>
      <trkpt lat="44.4365" lon="2.5187">
        <ele>519.2</ele>
        <time>2011-06-04T11:40:05Z</time>
      </trkpt>
      <trkpt lat="44.43656" lon="2.51869">
        <ele>519.1</ele>
        <time>2011-06-04T11:40:07Z</time>
      </trkpt>
      <trkpt lat="44.43661" lon="2.51866">
        <ele>518.1</ele>
        <time>2011-06-04T11:40:09Z</time>
      </trkpt>
      <trkpt lat="44.43673" lon="2.51864">
        <ele>517.3</ele>
        <time>2011-06-04T11:40:13Z</time>
      </trkpt>
      <trkpt lat="44.43677" lon="2.51863">
        <ele>516.8</ele>
        <time>2011-06-04T11:40:14Z</time>
      </trkpt>
      <trkpt lat="44.43684" lon="2.5186">
        <ele>515.8</ele>
        <time>2011-06-04T11:40:16Z</time>
      </trkpt>
      <trkpt lat="44.43691" lon="2.51859">
        <ele>515</ele>
        <time>2011-06-04T11:40:18Z</time>
      </trkpt>
      <trkpt lat="44.43706" lon="2.51859">
        <ele>514</ele>
        <time>2011-06-04T11:40:22Z</time>
      </trkpt>
      <trkpt lat="44.43711" lon="2.51858">
        <ele>513.4</ele>
        <time>2011-06-04T11:40:24Z</time>
      </trkpt>
      <trkpt lat="44.43715" lon="2.51855">
        <ele>512.5</ele>
        <time>2011-06-04T11:40:26Z</time>
      </trkpt>
      <trkpt lat="44.43727" lon="2.51849">
        <ele>510.4</ele>
        <time>2011-06-04T11:40:32Z</time>
      </trkpt>
      <trkpt lat="44.4374" lon="2.51849">
        <ele>509.2</ele>
        <time>2011-06-04T11:40:37Z</time>
      </trkpt>
      <trkpt lat="44.43746" lon="2.51846">
        <ele>508.1</ele>
        <time>2011-06-04T11:40:39Z</time>
      </trkpt>
      <trkpt lat="44.43753" lon="2.51845">
        <ele>507.7</ele>
        <time>2011-06-04T11:40:41Z</time>
      </trkpt>
      <trkpt lat="44.43759" lon="2.51846">
        <ele>508.6</ele>
        <time>2011-06-04T11:40:43Z</time>
      </trkpt>
      <trkpt lat="44.43764" lon="2.51848">
        <ele>509.6</ele>
        <time>2011-06-04T11:40:45Z</time>
      </trkpt>
      <trkpt lat="44.43771" lon="2.51853">
        <ele>511.2</ele>
        <time>2011-06-04T11:40:48Z</time>
      </trkpt>
      <trkpt lat="44.43774" lon="2.51856">
        <ele>512</ele>
        <time>2011-06-04T11:40:50Z</time>
      </trkpt>
      <trkpt lat="44.43781" lon="2.51861">
        <ele>513.4</ele>
        <time>2011-06-04T11:40:54Z</time>
      </trkpt>
      <trkpt lat="44.43785" lon="2.51866">
        <ele>514.6</ele>
        <time>2011-06-04T11:40:57Z</time>
      </trkpt>
      <trkpt lat="44.43788" lon="2.51868">
        <ele>515</ele>
        <time>2011-06-04T11:40:58Z</time>
      </trkpt>
      <trkpt lat="44.43802" lon="2.51873">
        <ele>516.5</ele>
        <time>2011-06-04T11:41:04Z</time>
      </trkpt>
      <trkpt lat="44.43804" lon="2.51875">
        <ele>516.9</ele>
        <time>2011-06-04T11:41:05Z</time>
      </trkpt>
      <trkpt lat="44.43808" lon="2.51883">
        <ele>518.2</ele>
        <time>2011-06-04T11:41:08Z</time>
      </trkpt>
      <trkpt lat="44.43811" lon="2.51888">
        <ele>518.8</ele>
        <time>2011-06-04T11:41:10Z</time>
      </trkpt>
      <trkpt lat="44.43821" lon="2.51898">
        <ele>520.2</ele>
        <time>2011-06-04T11:41:29Z</time>
      </trkpt>
      <trkpt lat="44.43823" lon="2.51902">
        <ele>520.7</ele>
        <time>2011-06-04T11:41:33Z</time>
      </trkpt>
      <trkpt lat="44.43823" lon="2.51909">
        <ele>521.3</ele>
        <time>2011-06-04T11:41:51Z</time>
      </trkpt>
      <trkpt lat="44.43832" lon="2.5191">
        <ele>521.3</ele>
        <time>2011-06-04T11:43:12Z</time>
      </trkpt>
      <trkpt lat="44.43837" lon="2.51905">
        <ele>521</ele>
        <time>2011-06-04T11:43:17Z</time>
      </trkpt>
      <trkpt lat="44.43848" lon="2.51897">
        <ele>521</ele>
        <time>2011-06-04T11:43:22Z</time>
      </trkpt>
      <trkpt lat="44.43853" lon="2.51894">
        <ele>521.2</ele>
        <time>2011-06-04T11:43:24Z</time>
      </trkpt>
      <trkpt lat="44.43873" lon="2.51885">
        <ele>522.4</ele>
        <time>2011-06-04T11:43:30Z</time>
      </trkpt>
      <trkpt lat="44.4388" lon="2.51881">
        <ele>522.7</ele>
        <time>2011-06-04T11:43:32Z</time>
      </trkpt>
      <trkpt lat="44.43883" lon="2.51878">
        <ele>522.9</ele>
        <time>2011-06-04T11:43:33Z</time>
      </trkpt>
      <trkpt lat="44.43889" lon="2.51871">
        <ele>523.1</ele>
        <time>2011-06-04T11:43:35Z</time>
      </trkpt>
      <trkpt lat="44.43901" lon="2.51851">
        <ele>524.1</ele>
        <time>2011-06-04T11:43:40Z</time>
      </trkpt>
      <trkpt lat="44.43912" lon="2.51833">
        <ele>525.2</ele>
        <time>2011-06-04T11:43:44Z</time>
      </trkpt>
      <trkpt lat="44.43925" lon="2.51807">
        <ele>525.3</ele>
        <time>2011-06-04T11:43:50Z</time>
      </trkpt>
      <trkpt lat="44.43928" lon="2.51798">
        <ele>525.1</ele>
        <time>2011-06-04T11:43:52Z</time>
      </trkpt>
      <trkpt lat="44.43928" lon="2.51789">
        <ele>524.7</ele>
        <time>2011-06-04T11:43:54Z</time>
      </trkpt>
      <trkpt lat="44.43926" lon="2.51771">
        <ele>524.1</ele>
        <time>2011-06-04T11:43:58Z</time>
      </trkpt>
      <trkpt lat="44.43925" lon="2.51759">
        <ele>523.6</ele>
        <time>2011-06-04T11:44:01Z</time>
      </trkpt>
      <trkpt lat="44.43924" lon="2.51751">
        <ele>523.3</ele>
        <time>2011-06-04T11:44:03Z</time>
      </trkpt>
      <trkpt lat="44.43921" lon="2.51742">
        <ele>522.8</ele>
        <time>2011-06-04T11:44:06Z</time>
      </trkpt>
      <trkpt lat="44.4392" lon="2.51736">
        <ele>522.4</ele>
        <time>2011-06-04T11:44:21Z</time>
      </trkpt>
      <trkpt lat="44.43919" lon="2.51738">
        <ele>522.5</ele>
        <time>2011-06-04T11:50:56Z</time>
      </trkpt>
      <trkpt lat="44.43922" lon="2.51747">
        <ele>523.1</ele>
        <time>2011-06-04T11:51:52Z</time>
      </trkpt>
      <trkpt lat="44.43929" lon="2.51753">
        <ele>523.5</ele>
        <time>2011-06-04T11:51:57Z</time>
      </trkpt>
      <trkpt lat="44.43932" lon="2.51747">
        <ele>523.4</ele>
        <time>2011-06-04T11:51:59Z</time>
      </trkpt>
      <trkpt lat="44.43939" lon="2.51723">
        <ele>522.4</ele>
        <time>2011-06-04T11:52:04Z</time>
      </trkpt>
      <trkpt lat="44.43953" lon="2.51679">
        <ele>520.5</ele>
        <time>2011-06-04T11:52:10Z</time>
      </trkpt>
      <trkpt lat="44.43959" lon="2.51663">
        <ele>520</ele>
        <time>2011-06-04T11:52:12Z</time>
      </trkpt>
      <trkpt lat="44.43963" lon="2.51657">
        <ele>520.2</ele>
        <time>2011-06-04T11:52:13Z</time>
      </trkpt>
      <trkpt lat="44.43968" lon="2.51652">
        <ele>520.4</ele>
        <time>2011-06-04T11:52:14Z</time>
      </trkpt>
      <trkpt lat="44.43974" lon="2.51647">
        <ele>520.5</ele>
        <time>2011-06-04T11:52:15Z</time>
      </trkpt>
      <trkpt lat="44.43979" lon="2.51645">
        <ele>520.7</ele>
        <time>2011-06-04T11:52:16Z</time>
      </trkpt>
      <trkpt lat="44.43988" lon="2.51642">
        <ele>521</ele>
        <time>2011-06-04T11:52:18Z</time>
      </trkpt>
      <trkpt lat="44.43992" lon="2.5164">
        <ele>521.1</ele>
        <time>2011-06-04T11:52:19Z</time>
      </trkpt>
      <trkpt lat="44.43996" lon="2.51636">
        <ele>521.2</ele>
        <time>2011-06-04T11:52:20Z</time>
      </trkpt>
      <trkpt lat="44.43998" lon="2.51626">
        <ele>521.4</ele>
        <time>2011-06-04T11:52:22Z</time>
      </trkpt>
      <trkpt lat="44.43996" lon="2.51615">
        <ele>521.5</ele>
        <time>2011-06-04T11:52:24Z</time>
      </trkpt>
      <trkpt lat="44.43992" lon="2.51599">
        <ele>521.5</ele>
        <time>2011-06-04T11:52:27Z</time>
      </trkpt>
      <trkpt lat="44.43984" lon="2.51581">
        <ele>521.4</ele>
        <time>2011-06-04T11:52:31Z</time>
      </trkpt>
      <trkpt lat="44.43975" lon="2.51561">
        <ele>521.1</ele>
        <time>2011-06-04T11:52:35Z</time>
      </trkpt>
      <trkpt lat="44.43972" lon="2.51556">
        <ele>521</ele>
        <time>2011-06-04T11:52:36Z</time>
      </trkpt>
      <trkpt lat="44.43955" lon="2.51532">
        <ele>520.4</ele>
        <time>2011-06-04T11:52:42Z</time>
      </trkpt>
      <trkpt lat="44.43951" lon="2.51527">
        <ele>520.3</ele>
        <time>2011-06-04T11:52:43Z</time>
      </trkpt>
      <trkpt lat="44.43945" lon="2.51516">
        <ele>520</ele>
        <time>2011-06-04T11:52:45Z</time>
      </trkpt>
      <trkpt lat="44.43935" lon="2.51489">
        <ele>519.6</ele>
        <time>2011-06-04T11:52:49Z</time>
      </trkpt>
      <trkpt lat="44.43931" lon="2.51471">
        <ele>519.3</ele>
        <time>2011-06-04T11:52:52Z</time>
      </trkpt>
      <trkpt lat="44.43927" lon="2.51452">
        <ele>518.9</ele>
        <time>2011-06-04T11:52:55Z</time>
      </trkpt>
      <trkpt lat="44.43927" lon="2.51447">
        <ele>518.9</ele>
        <time>2011-06-04T11:52:56Z</time>
      </trkpt>
      <trkpt lat="44.43926" lon="2.51436">
        <ele>518.8</ele>
        <time>2011-06-04T11:52:58Z</time>
      </trkpt>
      <trkpt lat="44.43927" lon="2.51431">
        <ele>518.7</ele>
        <time>2011-06-04T11:52:59Z</time>
      </trkpt>
      <trkpt lat="44.43929" lon="2.51416">
        <ele>518.7</ele>
        <time>2011-06-04T11:53:02Z</time>
      </trkpt>
      <trkpt lat="44.43932" lon="2.51407">
        <ele>518.7</ele>
        <time>2011-06-04T11:53:04Z</time>
      </trkpt>
      <trkpt lat="44.43941" lon="2.51387">
        <ele>518.9</ele>
        <time>2011-06-04T11:53:09Z</time>
      </trkpt>
      <trkpt lat="44.43944" lon="2.51379">
        <ele>518.9</ele>
        <time>2011-06-04T11:53:11Z</time>
      </trkpt>
      <trkpt lat="44.43948" lon="2.51366">
        <ele>518.9</ele>
        <time>2011-06-04T11:53:14Z</time>
      </trkpt>
      <trkpt lat="44.43962" lon="2.5134">
        <ele>519.4</ele>
        <time>2011-06-04T11:53:20Z</time>
      </trkpt>
      <trkpt lat="44.43966" lon="2.51332">
        <ele>519.5</ele>
        <time>2011-06-04T11:53:22Z</time>
      </trkpt>
      <trkpt lat="44.43968" lon="2.51322">
        <ele>519.6</ele>
        <time>2011-06-04T11:53:24Z</time>
      </trkpt>
      <trkpt lat="44.43973" lon="2.51294">
        <ele>519.9</ele>
        <time>2011-06-04T11:53:30Z</time>
      </trkpt>
      <trkpt lat="44.43976" lon="2.51276">
        <ele>520.2</ele>
        <time>2011-06-04T11:53:34Z</time>
      </trkpt>
      <trkpt lat="44.43977" lon="2.51271">
        <ele>520.3</ele>
        <time>2011-06-04T11:53:35Z</time>
      </trkpt>
      <trkpt lat="44.43985" lon="2.51248">
        <ele>521.4</ele>
        <time>2011-06-04T11:53:41Z</time>
      </trkpt>
      <trkpt lat="44.43991" lon="2.51237">
        <ele>522.7</ele>
        <time>2011-06-04T11:53:44Z</time>
      </trkpt>
      <trkpt lat="44.43997" lon="2.51223">
        <ele>524.5</ele>
        <time>2011-06-04T11:53:48Z</time>
      </trkpt>
      <trkpt lat="44.44" lon="2.51217">
        <ele>525.5</ele>
        <time>2011-06-04T11:53:50Z</time>
      </trkpt>
      <trkpt lat="44.4401" lon="2.51203">
        <ele>527.5</ele>
        <time>2011-06-04T11:53:55Z</time>
      </trkpt>
      <trkpt lat="44.44014" lon="2.51195">
        <ele>528.5</ele>
        <time>2011-06-04T11:53:58Z</time>
      </trkpt>
      <trkpt lat="44.44019" lon="2.51189">
        <ele>529.5</ele>
        <time>2011-06-04T11:54:01Z</time>
      </trkpt>
      <trkpt lat="44.44024" lon="2.51185">
        <ele>530.3</ele>
        <time>2011-06-04T11:54:04Z</time>
      </trkpt>
      <trkpt lat="44.44035" lon="2.51181">
        <ele>531.8</ele>
        <time>2011-06-04T11:54:10Z</time>
      </trkpt>
      <trkpt lat="44.44052" lon="2.51173">
        <ele>534.2</ele>
        <time>2011-06-04T11:54:20Z</time>
      </trkpt>
      <trkpt lat="44.4406" lon="2.51171">
        <ele>535.2</ele>
        <time>2011-06-04T11:54:24Z</time>
      </trkpt>
      <trkpt lat="44.44071" lon="2.51168">
        <ele>536.7</ele>
        <time>2011-06-04T11:54:30Z</time>
      </trkpt>
      <trkpt lat="44.44087" lon="2.51162">
        <ele>538.5</ele>
        <time>2011-06-04T11:54:38Z</time>
      </trkpt>
      <trkpt lat="44.44094" lon="2.5116">
        <ele>539.1</ele>
        <time>2011-06-04T11:54:42Z</time>
      </trkpt>
      <trkpt lat="44.44101" lon="2.51157">
        <ele>539.6</ele>
        <time>2011-06-04T11:54:46Z</time>
      </trkpt>
      <trkpt lat="44.44106" lon="2.51151">
        <ele>540.1</ele>
        <time>2011-06-04T11:54:50Z</time>
      </trkpt>
      <trkpt lat="44.4411" lon="2.51144">
        <ele>540.8</ele>
        <time>2011-06-04T11:54:54Z</time>
      </trkpt>
      <trkpt lat="44.44117" lon="2.5114">
        <ele>541.4</ele>
        <time>2011-06-04T11:54:58Z</time>
      </trkpt>
      <trkpt lat="44.4412" lon="2.51138">
        <ele>541.7</ele>
        <time>2011-06-04T11:55:00Z</time>
      </trkpt>
      <trkpt lat="44.44125" lon="2.51136">
        <ele>542.2</ele>
        <time>2011-06-04T11:55:03Z</time>
      </trkpt>
      <trkpt lat="44.44136" lon="2.51128">
        <ele>543.4</ele>
        <time>2011-06-04T11:55:11Z</time>
      </trkpt>
      <trkpt lat="44.44143" lon="2.51127">
        <ele>543.9</ele>
        <time>2011-06-04T11:55:15Z</time>
      </trkpt>
      <trkpt lat="44.44161" lon="2.51126">
        <ele>545.1</ele>
        <time>2011-06-04T11:55:26Z</time>
      </trkpt>
      <trkpt lat="44.44165" lon="2.51125">
        <ele>545.4</ele>
        <time>2011-06-04T11:55:29Z</time>
      </trkpt>
      <trkpt lat="44.44182" lon="2.51124">
        <ele>546.3</ele>
        <time>2011-06-04T11:55:41Z</time>
      </trkpt>
      <trkpt lat="44.44187" lon="2.51123">
        <ele>546.6</ele>
        <time>2011-06-04T11:55:44Z</time>
      </trkpt>
      <trkpt lat="44.44193" lon="2.51123">
        <ele>546.9</ele>
        <time>2011-06-04T11:55:48Z</time>
      </trkpt>
      <trkpt lat="44.44197" lon="2.51122">
        <ele>547.1</ele>
        <time>2011-06-04T11:55:50Z</time>
      </trkpt>
      <trkpt lat="44.44203" lon="2.51122">
        <ele>547.5</ele>
        <time>2011-06-04T11:55:54Z</time>
      </trkpt>
      <trkpt lat="44.44211" lon="2.51124">
        <ele>547.7</ele>
        <time>2011-06-04T11:55:58Z</time>
      </trkpt>
      <trkpt lat="44.44236" lon="2.51133">
        <ele>548.3</ele>
        <time>2011-06-04T11:56:10Z</time>
      </trkpt>
      <trkpt lat="44.44255" lon="2.51141">
        <ele>548.5</ele>
        <time>2011-06-04T11:56:19Z</time>
      </trkpt>
      <trkpt lat="44.44261" lon="2.51144">
        <ele>548.3</ele>
        <time>2011-06-04T11:56:22Z</time>
      </trkpt>
      <trkpt lat="44.44265" lon="2.51146">
        <ele>548.2</ele>
        <time>2011-06-04T11:56:24Z</time>
      </trkpt>
      <trkpt lat="44.44283" lon="2.5115">
        <ele>548</ele>
        <time>2011-06-04T11:56:31Z</time>
      </trkpt>
      <trkpt lat="44.44296" lon="2.51154">
        <ele>548</ele>
        <time>2011-06-04T11:56:36Z</time>
      </trkpt>
      <trkpt lat="44.44307" lon="2.51158">
        <ele>548.2</ele>
        <time>2011-06-04T11:56:40Z</time>
      </trkpt>
      <trkpt lat="44.44318" lon="2.51161">
        <ele>548.4</ele>
        <time>2011-06-04T11:56:44Z</time>
      </trkpt>
      <trkpt lat="44.44325" lon="2.51162">
        <ele>548.5</ele>
        <time>2011-06-04T11:56:47Z</time>
      </trkpt>
      <trkpt lat="44.44329" lon="2.51163">
        <ele>548.7</ele>
        <time>2011-06-04T11:56:49Z</time>
      </trkpt>
      <trkpt lat="44.44336" lon="2.51171">
        <ele>549.2</ele>
        <time>2011-06-04T11:56:52Z</time>
      </trkpt>
      <trkpt lat="44.44343" lon="2.51174">
        <ele>549.5</ele>
        <time>2011-06-04T11:56:54Z</time>
      </trkpt>
      <trkpt lat="44.44351" lon="2.51173">
        <ele>549.7</ele>
        <time>2011-06-04T11:56:56Z</time>
      </trkpt>
      <trkpt lat="44.44357" lon="2.5117">
        <ele>549.7</ele>
        <time>2011-06-04T11:56:58Z</time>
      </trkpt>
      <trkpt lat="44.44366" lon="2.51165">
        <ele>549.5</ele>
        <time>2011-06-04T11:57:01Z</time>
      </trkpt>
      <trkpt lat="44.44371" lon="2.51163">
        <ele>549.4</ele>
        <time>2011-06-04T11:57:03Z</time>
      </trkpt>
      <trkpt lat="44.44374" lon="2.51163">
        <ele>549.5</ele>
        <time>2011-06-04T11:57:04Z</time>
      </trkpt>
      <trkpt lat="44.4438" lon="2.51163">
        <ele>549.6</ele>
        <time>2011-06-04T11:57:06Z</time>
      </trkpt>
      <trkpt lat="44.44391" lon="2.51166">
        <ele>550.2</ele>
        <time>2011-06-04T11:57:10Z</time>
      </trkpt>
      <trkpt lat="44.44399" lon="2.51165">
        <ele>550.2</ele>
        <time>2011-06-04T11:57:13Z</time>
      </trkpt>
      <trkpt lat="44.44407" lon="2.51167">
        <ele>550.8</ele>
        <time>2011-06-04T11:57:17Z</time>
      </trkpt>
      <trkpt lat="44.4441" lon="2.51163">
        <ele>550.1</ele>
        <time>2011-06-04T11:57:19Z</time>
      </trkpt>
      <trkpt lat="44.44415" lon="2.51154">
        <ele>548.5</ele>
        <time>2011-06-04T11:57:22Z</time>
      </trkpt>
      <trkpt lat="44.44418" lon="2.51143">
        <ele>546.6</ele>
        <time>2011-06-04T11:57:25Z</time>
      </trkpt>
      <trkpt lat="44.44419" lon="2.51134">
        <ele>544.9</ele>
        <time>2011-06-04T11:57:28Z</time>
      </trkpt>
      <trkpt lat="44.4442" lon="2.51127">
        <ele>543.4</ele>
        <time>2011-06-04T11:57:30Z</time>
      </trkpt>
      <trkpt lat="44.44419" lon="2.5112">
        <ele>542.1</ele>
        <time>2011-06-04T11:57:32Z</time>
      </trkpt>
      <trkpt lat="44.44418" lon="2.51111">
        <ele>540.3</ele>
        <time>2011-06-04T11:57:34Z</time>
      </trkpt>
      <trkpt lat="44.44416" lon="2.51106">
        <ele>539.3</ele>
        <time>2011-06-04T11:57:35Z</time>
      </trkpt>
      <trkpt lat="44.44414" lon="2.51101">
        <ele>538.5</ele>
        <time>2011-06-04T11:57:36Z</time>
      </trkpt>
      <trkpt lat="44.44404" lon="2.51086">
        <ele>536.6</ele>
        <time>2011-06-04T11:57:39Z</time>
      </trkpt>
      <trkpt lat="44.44398" lon="2.51074">
        <ele>534.6</ele>
        <time>2011-06-04T11:57:41Z</time>
      </trkpt>
      <trkpt lat="44.44392" lon="2.51065">
        <ele>533</ele>
        <time>2011-06-04T11:57:43Z</time>
      </trkpt>
      <trkpt lat="44.44389" lon="2.5106">
        <ele>532.1</ele>
        <time>2011-06-04T11:57:44Z</time>
      </trkpt>
      <trkpt lat="44.44388" lon="2.51055">
        <ele>530.9</ele>
        <time>2011-06-04T11:57:45Z</time>
      </trkpt>
      <trkpt lat="44.4439" lon="2.51048">
        <ele>529</ele>
        <time>2011-06-04T11:57:47Z</time>
      </trkpt>
      <trkpt lat="44.44403" lon="2.51052">
        <ele>527.8</ele>
        <time>2011-06-04T11:57:50Z</time>
      </trkpt>
      <trkpt lat="44.44428" lon="2.51056">
        <ele>528.1</ele>
        <time>2011-06-04T11:57:54Z</time>
      </trkpt>
      <trkpt lat="44.44454" lon="2.51058">
        <ele>529.9</ele>
        <time>2011-06-04T11:57:59Z</time>
      </trkpt>
      <trkpt lat="44.44467" lon="2.51059">
        <ele>531</ele>
        <time>2011-06-04T11:58:01Z</time>
      </trkpt>
      <trkpt lat="44.44499" lon="2.51061">
        <ele>533.6</ele>
        <time>2011-06-04T11:58:07Z</time>
      </trkpt>
      <trkpt lat="44.44513" lon="2.5106">
        <ele>535.9</ele>
        <time>2011-06-04T11:58:09Z</time>
      </trkpt>
      <trkpt lat="44.44551" lon="2.51053">
        <ele>542.5</ele>
        <time>2011-06-04T11:58:14Z</time>
      </trkpt>
      <trkpt lat="44.44557" lon="2.51051">
        <ele>543.4</ele>
        <time>2011-06-04T11:58:15Z</time>
      </trkpt>
      <trkpt lat="44.44574" lon="2.51036">
        <ele>545.3</ele>
        <time>2011-06-04T11:58:18Z</time>
      </trkpt>
      <trkpt lat="44.44578" lon="2.51029">
        <ele>545.7</ele>
        <time>2011-06-04T11:58:19Z</time>
      </trkpt>
      <trkpt lat="44.44582" lon="2.51022">
        <ele>545.9</ele>
        <time>2011-06-04T11:58:20Z</time>
      </trkpt>
      <trkpt lat="44.44592" lon="2.50994">
        <ele>544.7</ele>
        <time>2011-06-04T11:58:24Z</time>
      </trkpt>
      <trkpt lat="44.44594" lon="2.50986">
        <ele>544.4</ele>
        <time>2011-06-04T11:58:25Z</time>
      </trkpt>
      <trkpt lat="44.44598" lon="2.50972">
        <ele>543.8</ele>
        <time>2011-06-04T11:58:27Z</time>
      </trkpt>
      <trkpt lat="44.44603" lon="2.50958">
        <ele>543.7</ele>
        <time>2011-06-04T11:58:29Z</time>
      </trkpt>
      <trkpt lat="44.44608" lon="2.50934">
        <ele>543.1</ele>
        <time>2011-06-04T11:58:32Z</time>
      </trkpt>
      <trkpt lat="44.44609" lon="2.50928">
        <ele>542.8</ele>
        <time>2011-06-04T11:58:33Z</time>
      </trkpt>
      <trkpt lat="44.44605" lon="2.5088">
        <ele>539.9</ele>
        <time>2011-06-04T11:58:39Z</time>
      </trkpt>
      <trkpt lat="44.44602" lon="2.50864">
        <ele>538.9</ele>
        <time>2011-06-04T11:58:41Z</time>
      </trkpt>
      <trkpt lat="44.446" lon="2.5085">
        <ele>537.7</ele>
        <time>2011-06-04T11:58:43Z</time>
      </trkpt>
      <trkpt lat="44.44597" lon="2.50827">
        <ele>536.6</ele>
        <time>2011-06-04T11:58:46Z</time>
      </trkpt>
      <trkpt lat="44.44597" lon="2.50821">
        <ele>536.5</ele>
        <time>2011-06-04T11:58:48Z</time>
      </trkpt>
      <trkpt lat="44.44598" lon="2.50815">
        <ele>536.6</ele>
        <time>2011-06-04T11:59:25Z</time>
      </trkpt>
      <trkpt lat="44.44597" lon="2.50803">
        <ele>536.3</ele>
        <time>2011-06-04T11:59:30Z</time>
      </trkpt>
      <trkpt lat="44.44596" lon="2.50797">
        <ele>535.9</ele>
        <time>2011-06-04T11:59:32Z</time>
      </trkpt>
      <trkpt lat="44.44592" lon="2.50781">
        <ele>534.6</ele>
        <time>2011-06-04T11:59:36Z</time>
      </trkpt>
      <trkpt lat="44.4459" lon="2.5077">
        <ele>534</ele>
        <time>2011-06-04T11:59:38Z</time>
      </trkpt>
      <trkpt lat="44.44589" lon="2.50764">
        <ele>533.6</ele>
        <time>2011-06-04T11:59:39Z</time>
      </trkpt>
      <trkpt lat="44.44587" lon="2.50758">
        <ele>533.1</ele>
        <time>2011-06-04T11:59:40Z</time>
      </trkpt>
      <trkpt lat="44.44577" lon="2.50734">
        <ele>529.7</ele>
        <time>2011-06-04T11:59:44Z</time>
      </trkpt>
      <trkpt lat="44.44573" lon="2.50723">
        <ele>528.9</ele>
        <time>2011-06-04T11:59:46Z</time>
      </trkpt>
      <trkpt lat="44.44572" lon="2.50712">
        <ele>528.7</ele>
        <time>2011-06-04T11:59:48Z</time>
      </trkpt>
      <trkpt lat="44.4457" lon="2.50692">
        <ele>529.1</ele>
        <time>2011-06-04T11:59:52Z</time>
      </trkpt>
      <trkpt lat="44.44569" lon="2.50669">
        <ele>530.4</ele>
        <time>2011-06-04T11:59:57Z</time>
      </trkpt>
      <trkpt lat="44.44568" lon="2.50665">
        <ele>530.2</ele>
        <time>2011-06-04T11:59:58Z</time>
      </trkpt>
      <trkpt lat="44.44566" lon="2.50649">
        <ele>529.9</ele>
        <time>2011-06-04T12:00:02Z</time>
      </trkpt>
      <trkpt lat="44.44563" lon="2.50641">
        <ele>529</ele>
        <time>2011-06-04T12:00:04Z</time>
      </trkpt>
      <trkpt lat="44.44559" lon="2.50634">
        <ele>528</ele>
        <time>2011-06-04T12:00:06Z</time>
      </trkpt>
      <trkpt lat="44.44552" lon="2.50615">
        <ele>525.8</ele>
        <time>2011-06-04T12:00:11Z</time>
      </trkpt>
      <trkpt lat="44.4455" lon="2.50607">
        <ele>525.3</ele>
        <time>2011-06-04T12:00:13Z</time>
      </trkpt>
      <trkpt lat="44.44546" lon="2.50589">
        <ele>524.8</ele>
        <time>2011-06-04T12:00:18Z</time>
      </trkpt>
      <trkpt lat="44.44543" lon="2.50582">
        <ele>524</ele>
        <time>2011-06-04T12:00:20Z</time>
      </trkpt>
      <trkpt lat="44.44541" lon="2.50578">
        <ele>523.9</ele>
        <time>2011-06-04T12:00:21Z</time>
      </trkpt>
      <trkpt lat="44.44531" lon="2.50544">
        <ele>522.7</ele>
        <time>2011-06-04T12:00:26Z</time>
      </trkpt>
      <trkpt lat="44.44528" lon="2.50536">
        <ele>522.4</ele>
        <time>2011-06-04T12:00:27Z</time>
      </trkpt>
      <trkpt lat="44.44518" lon="2.50516">
        <ele>520.9</ele>
        <time>2011-06-04T12:00:30Z</time>
      </trkpt>
      <trkpt lat="44.44515" lon="2.50509">
        <ele>520.7</ele>
        <time>2011-06-04T12:00:31Z</time>
      </trkpt>
      <trkpt lat="44.44506" lon="2.5048">
        <ele>520.7</ele>
        <time>2011-06-04T12:00:35Z</time>
      </trkpt>
      <trkpt lat="44.44502" lon="2.50475">
        <ele>520</ele>
        <time>2011-06-04T12:00:36Z</time>
      </trkpt>
      <trkpt lat="44.44493" lon="2.50458">
        <ele>517.8</ele>
        <time>2011-06-04T12:00:39Z</time>
      </trkpt>
      <trkpt lat="44.44483" lon="2.50431">
        <ele>515.6</ele>
        <time>2011-06-04T12:00:44Z</time>
      </trkpt>
      <trkpt lat="44.44477" lon="2.50412">
        <ele>514.4</ele>
        <time>2011-06-04T12:00:47Z</time>
      </trkpt>
      <trkpt lat="44.44466" lon="2.5039">
        <ele>511.4</ele>
        <time>2011-06-04T12:00:50Z</time>
      </trkpt>
      <trkpt lat="44.4446" lon="2.50372">
        <ele>510.3</ele>
        <time>2011-06-04T12:00:52Z</time>
      </trkpt>
      <trkpt lat="44.44458" lon="2.50363">
        <ele>510.2</ele>
        <time>2011-06-04T12:00:53Z</time>
      </trkpt>
      <trkpt lat="44.44449" lon="2.50318">
        <ele>508.8</ele>
        <time>2011-06-04T12:00:57Z</time>
      </trkpt>
      <trkpt lat="44.44439" lon="2.50262">
        <ele>502.1</ele>
        <time>2011-06-04T12:01:02Z</time>
      </trkpt>
      <trkpt lat="44.44434" lon="2.50242">
        <ele>498.6</ele>
        <time>2011-06-04T12:01:04Z</time>
      </trkpt>
      <trkpt lat="44.44423" lon="2.50211">
        <ele>490.5</ele>
        <time>2011-06-04T12:01:07Z</time>
      </trkpt>
      <trkpt lat="44.44417" lon="2.50195">
        <ele>485.9</ele>
        <time>2011-06-04T12:01:09Z</time>
      </trkpt>
      <trkpt lat="44.44415" lon="2.50186">
        <ele>483.9</ele>
        <time>2011-06-04T12:01:10Z</time>
      </trkpt>
      <trkpt lat="44.44414" lon="2.50176">
        <ele>482.4</ele>
        <time>2011-06-04T12:01:11Z</time>
      </trkpt>
      <trkpt lat="44.44415" lon="2.50159">
        <ele>479.2</ele>
        <time>2011-06-04T12:01:13Z</time>
      </trkpt>
      <trkpt lat="44.44416" lon="2.50151">
        <ele>477.9</ele>
        <time>2011-06-04T12:01:14Z</time>
      </trkpt>
      <trkpt lat="44.44418" lon="2.50145">
        <ele>476.8</ele>
        <time>2011-06-04T12:01:15Z</time>
      </trkpt>
      <trkpt lat="44.44421" lon="2.5012">
        <ele>471.3</ele>
        <time>2011-06-04T12:02:29Z</time>
      </trkpt>
      <trkpt lat="44.44423" lon="2.50111">
        <ele>469.3</ele>
        <time>2011-06-04T12:02:31Z</time>
      </trkpt>
      <trkpt lat="44.44427" lon="2.50099">
        <ele>466.7</ele>
        <time>2011-06-04T12:02:34Z</time>
      </trkpt>
      <trkpt lat="44.4443" lon="2.50091">
        <ele>465.4</ele>
        <time>2011-06-04T12:02:36Z</time>
      </trkpt>
      <trkpt lat="44.44434" lon="2.50084">
        <ele>464.5</ele>
        <time>2011-06-04T12:02:38Z</time>
      </trkpt>
      <trkpt lat="44.44436" lon="2.5008">
        <ele>464.1</ele>
        <time>2011-06-04T12:02:39Z</time>
      </trkpt>
      <trkpt lat="44.44441" lon="2.50075">
        <ele>464</ele>
        <time>2011-06-04T12:02:41Z</time>
      </trkpt>
      <trkpt lat="44.44452" lon="2.50064">
        <ele>463.5</ele>
        <time>2011-06-04T12:02:45Z</time>
      </trkpt>
      <trkpt lat="44.44457" lon="2.50059">
        <ele>463.1</ele>
        <time>2011-06-04T12:02:47Z</time>
      </trkpt>
      <trkpt lat="44.44469" lon="2.50046">
        <ele>461.9</ele>
        <time>2011-06-04T12:02:52Z</time>
      </trkpt>
      <trkpt lat="44.44485" lon="2.5003">
        <ele>460.4</ele>
        <time>2011-06-04T12:02:58Z</time>
      </trkpt>
      <trkpt lat="44.44491" lon="2.50026">
        <ele>459.9</ele>
        <time>2011-06-04T12:03:00Z</time>
      </trkpt>
      <trkpt lat="44.44498" lon="2.50022">
        <ele>460.1</ele>
        <time>2011-06-04T12:03:02Z</time>
      </trkpt>
      <trkpt lat="44.44516" lon="2.50012">
        <ele>454.3</ele>
        <time>2011-06-04T12:03:07Z</time>
      </trkpt>
      <trkpt lat="44.44521" lon="2.50009">
        <ele>452.3</ele>
        <time>2011-06-04T12:03:08Z</time>
      </trkpt>
      <trkpt lat="44.44531" lon="2.5">
        <ele>448.3</ele>
        <time>2011-06-04T12:03:10Z</time>
      </trkpt>
      <trkpt lat="44.44554" lon="2.49979">
        <ele>440.1</ele>
        <time>2011-06-04T12:03:14Z</time>
      </trkpt>
      <trkpt lat="44.44561" lon="2.49975">
        <ele>437.9</ele>
        <time>2011-06-04T12:03:15Z</time>
      </trkpt>
      <trkpt lat="44.44567" lon="2.49971">
        <ele>436.2</ele>
        <time>2011-06-04T12:03:16Z</time>
      </trkpt>
      <trkpt lat="44.44573" lon="2.49969">
        <ele>434.5</ele>
        <time>2011-06-04T12:03:17Z</time>
      </trkpt>
      <trkpt lat="44.4458" lon="2.4997">
        <ele>433.3</ele>
        <time>2011-06-04T12:03:18Z</time>
      </trkpt>
      <trkpt lat="44.44586" lon="2.49971">
        <ele>432.7</ele>
        <time>2011-06-04T12:03:19Z</time>
      </trkpt>
      <trkpt lat="44.44591" lon="2.49975">
        <ele>432</ele>
        <time>2011-06-04T12:03:20Z</time>
      </trkpt>
      <trkpt lat="44.44596" lon="2.49979">
        <ele>431.7</ele>
        <time>2011-06-04T12:03:21Z</time>
      </trkpt>
      <trkpt lat="44.44617" lon="2.50001">
        <ele>432.9</ele>
        <time>2011-06-04T12:03:25Z</time>
      </trkpt>
      <trkpt lat="44.44622" lon="2.50008">
        <ele>433.3</ele>
        <time>2011-06-04T12:03:26Z</time>
      </trkpt>
      <trkpt lat="44.44626" lon="2.50015">
        <ele>433.8</ele>
        <time>2011-06-04T12:03:27Z</time>
      </trkpt>
      <trkpt lat="44.44631" lon="2.50022">
        <ele>434.1</ele>
        <time>2011-06-04T12:03:28Z</time>
      </trkpt>
      <trkpt lat="44.44637" lon="2.50028">
        <ele>434.3</ele>
        <time>2011-06-04T12:03:29Z</time>
      </trkpt>
      <trkpt lat="44.4465" lon="2.50039">
        <ele>434.2</ele>
        <time>2011-06-04T12:03:31Z</time>
      </trkpt>
      <trkpt lat="44.44677" lon="2.50057">
        <ele>432.6</ele>
        <time>2011-06-04T12:03:35Z</time>
      </trkpt>
      <trkpt lat="44.44684" lon="2.5006">
        <ele>432.1</ele>
        <time>2011-06-04T12:03:36Z</time>
      </trkpt>
      <trkpt lat="44.44698" lon="2.50065">
        <ele>430.2</ele>
        <time>2011-06-04T12:03:38Z</time>
      </trkpt>
      <trkpt lat="44.44711" lon="2.50071">
        <ele>428.9</ele>
        <time>2011-06-04T12:03:40Z</time>
      </trkpt>
      <trkpt lat="44.44724" lon="2.50078">
        <ele>427.6</ele>
        <time>2011-06-04T12:03:42Z</time>
      </trkpt>
      <trkpt lat="44.44755" lon="2.50101">
        <ele>425.8</ele>
        <time>2011-06-04T12:03:47Z</time>
      </trkpt>
      <trkpt lat="44.44766" lon="2.5011">
        <ele>427.5</ele>
        <time>2011-06-04T12:03:49Z</time>
      </trkpt>
      <trkpt lat="44.44799" lon="2.50139">
        <ele>432.5</ele>
        <time>2011-06-04T12:03:55Z</time>
      </trkpt>
      <trkpt lat="44.4484" lon="2.50173">
        <ele>439.6</ele>
        <time>2011-06-04T12:04:03Z</time>
      </trkpt>
      <trkpt lat="44.44851" lon="2.5018">
        <ele>442.8</ele>
        <time>2011-06-04T12:04:05Z</time>
      </trkpt>
      <trkpt lat="44.44861" lon="2.50184">
        <ele>445.7</ele>
        <time>2011-06-04T12:04:07Z</time>
      </trkpt>
      <trkpt lat="44.44882" lon="2.50191">
        <ele>450.9</ele>
        <time>2011-06-04T12:04:11Z</time>
      </trkpt>
      <trkpt lat="44.44897" lon="2.50194">
        <ele>454.6</ele>
        <time>2011-06-04T12:04:14Z</time>
      </trkpt>
      <trkpt lat="44.4492" lon="2.50201">
        <ele>460.9</ele>
        <time>2011-06-04T12:04:19Z</time>
      </trkpt>
      <trkpt lat="44.44925" lon="2.50203">
        <ele>463</ele>
        <time>2011-06-04T12:04:20Z</time>
      </trkpt>
      <trkpt lat="44.44953" lon="2.5021">
        <ele>475.5</ele>
        <time>2011-06-04T12:04:26Z</time>
      </trkpt>
      <trkpt lat="44.44958" lon="2.50211">
        <ele>477.6</ele>
        <time>2011-06-04T12:04:27Z</time>
      </trkpt>
      <trkpt lat="44.44962" lon="2.50211">
        <ele>479.4</ele>
        <time>2011-06-04T12:04:28Z</time>
      </trkpt>
      <trkpt lat="44.44966" lon="2.5021">
        <ele>480.9</ele>
        <time>2011-06-04T12:04:29Z</time>
      </trkpt>
      <trkpt lat="44.44973" lon="2.50207">
        <ele>483.1</ele>
        <time>2011-06-04T12:04:31Z</time>
      </trkpt>
      <trkpt lat="44.44978" lon="2.50201">
        <ele>484.7</ele>
        <time>2011-06-04T12:04:33Z</time>
      </trkpt>
      <trkpt lat="44.44983" lon="2.50193">
        <ele>485.7</ele>
        <time>2011-06-04T12:04:35Z</time>
      </trkpt>
      <trkpt lat="44.44986" lon="2.50184">
        <ele>485.5</ele>
        <time>2011-06-04T12:04:37Z</time>
      </trkpt>
      <trkpt lat="44.44989" lon="2.50171">
        <ele>484.9</ele>
        <time>2011-06-04T12:04:40Z</time>
      </trkpt>
      <trkpt lat="44.44995" lon="2.50145">
        <ele>486.7</ele>
        <time>2011-06-04T12:04:48Z</time>
      </trkpt>
      <trkpt lat="44.44997" lon="2.50136">
        <ele>487.5</ele>
        <time>2011-06-04T12:04:52Z</time>
      </trkpt>
      <trkpt lat="44.44999" lon="2.5013">
        <ele>488.1</ele>
        <time>2011-06-04T12:04:55Z</time>
      </trkpt>
      <trkpt lat="44.45002" lon="2.50126">
        <ele>489.2</ele>
        <time>2011-06-04T12:04:59Z</time>
      </trkpt>
      <trkpt lat="44.45007" lon="2.50118">
        <ele>490.8</ele>
        <time>2011-06-04T12:05:04Z</time>
      </trkpt>
      <trkpt lat="44.45009" lon="2.50109">
        <ele>491.5</ele>
        <time>2011-06-04T12:05:08Z</time>
      </trkpt>
      <trkpt lat="44.4501" lon="2.50103">
        <ele>491.7</ele>
        <time>2011-06-04T12:05:11Z</time>
      </trkpt>
      <trkpt lat="44.45012" lon="2.50093">
        <ele>492.4</ele>
        <time>2011-06-04T12:05:16Z</time>
      </trkpt>
      <trkpt lat="44.45022" lon="2.50086">
        <ele>496.1</ele>
        <time>2011-06-04T12:05:25Z</time>
      </trkpt>
      <trkpt lat="44.45025" lon="2.50081">
        <ele>497.2</ele>
        <time>2011-06-04T12:05:28Z</time>
      </trkpt>
      <trkpt lat="44.4503" lon="2.50066">
        <ele>500.1</ele>
        <time>2011-06-04T12:05:40Z</time>
      </trkpt>
      <trkpt lat="44.4503" lon="2.5006">
        <ele>500.5</ele>
        <time>2011-06-04T12:05:46Z</time>
      </trkpt>
      <trkpt lat="44.45031" lon="2.50047">
        <ele>501.6</ele>
        <time>2011-06-04T12:06:13Z</time>
      </trkpt>
      <trkpt lat="44.45036" lon="2.50048">
        <ele>503.3</ele>
        <time>2011-06-04T12:06:48Z</time>
      </trkpt>
      <trkpt lat="44.45038" lon="2.5004">
        <ele>504.8</ele>
        <time>2011-06-04T12:07:02Z</time>
      </trkpt>
      <trkpt lat="44.45041" lon="2.50044">
        <ele>505.3</ele>
        <time>2011-06-04T12:07:16Z</time>
      </trkpt>
      <trkpt lat="44.45045" lon="2.50053">
        <ele>506</ele>
        <time>2011-06-04T12:07:29Z</time>
      </trkpt>
      <trkpt lat="44.45046" lon="2.50059">
        <ele>506.4</ele>
        <time>2011-06-04T12:07:35Z</time>
      </trkpt>
      <trkpt lat="44.45051" lon="2.50068">
        <ele>507.2</ele>
        <time>2011-06-04T12:07:47Z</time>
      </trkpt>
      <trkpt lat="44.45055" lon="2.50083">
        <ele>507.9</ele>
        <time>2011-06-04T12:08:02Z</time>
      </trkpt>
      <trkpt lat="44.45059" lon="2.50087">
        <ele>509.2</ele>
        <time>2011-06-04T12:08:14Z</time>
      </trkpt>
      <trkpt lat="44.45078" lon="2.5008">
        <ele>516.2</ele>
        <time>2011-06-04T12:08:36Z</time>
      </trkpt>
      <trkpt lat="44.45086" lon="2.50077">
        <ele>518.7</ele>
        <time>2011-06-04T12:08:46Z</time>
      </trkpt>
      <trkpt lat="44.45091" lon="2.50077">
        <ele>519.3</ele>
        <time>2011-06-04T12:08:57Z</time>
      </trkpt>
      <trkpt lat="44.45089" lon="2.50066">
        <ele>519.6</ele>
        <time>2011-06-04T12:09:20Z</time>
      </trkpt>
      <trkpt lat="44.45087" lon="2.5006">
        <ele>519.8</ele>
        <time>2011-06-04T12:09:28Z</time>
      </trkpt>
      <trkpt lat="44.45084" lon="2.50055">
        <ele>519.8</ele>
        <time>2011-06-04T12:09:35Z</time>
      </trkpt>
      <trkpt lat="44.45081" lon="2.50051">
        <ele>519.3</ele>
        <time>2011-06-04T12:09:42Z</time>
      </trkpt>
      <trkpt lat="44.4508" lon="2.50045">
        <ele>519</ele>
        <time>2011-06-04T12:09:48Z</time>
      </trkpt>
      <trkpt lat="44.45078" lon="2.50033">
        <ele>519.3</ele>
        <time>2011-06-04T12:09:59Z</time>
      </trkpt>
      <trkpt lat="44.45078" lon="2.50022">
        <ele>520</ele>
        <time>2011-06-04T12:10:15Z</time>
      </trkpt>
      <trkpt lat="44.45076" lon="2.50006">
        <ele>520.1</ele>
        <time>2011-06-04T12:10:38Z</time>
      </trkpt>
      <trkpt lat="44.45076" lon="2.49994">
        <ele>520.1</ele>
        <time>2011-06-04T12:10:49Z</time>
      </trkpt>
      <trkpt lat="44.45076" lon="2.49988">
        <ele>520.1</ele>
        <time>2011-06-04T12:10:55Z</time>
      </trkpt>
      <trkpt lat="44.45078" lon="2.49982">
        <ele>520.1</ele>
        <time>2011-06-04T12:11:03Z</time>
      </trkpt>
      <trkpt lat="44.45084" lon="2.49961">
        <ele>521.1</ele>
        <time>2011-06-04T12:11:28Z</time>
      </trkpt>
      <trkpt lat="44.45085" lon="2.49955">
        <ele>520.8</ele>
        <time>2011-06-04T12:11:34Z</time>
      </trkpt>
      <trkpt lat="44.45087" lon="2.49949">
        <ele>520.6</ele>
        <time>2011-06-04T12:11:41Z</time>
      </trkpt>
      <trkpt lat="44.45082" lon="2.49948">
        <ele>520.1</ele>
        <time>2011-06-04T12:11:53Z</time>
      </trkpt>
      <trkpt lat="44.45078" lon="2.4995">
        <ele>519</ele>
        <time>2011-06-04T12:12:07Z</time>
      </trkpt>
      <trkpt lat="44.45072" lon="2.49942">
        <ele>516.9</ele>
        <time>2011-06-04T12:12:44Z</time>
      </trkpt>
      <trkpt lat="44.45072" lon="2.49931">
        <ele>516.4</ele>
        <time>2011-06-04T12:12:51Z</time>
      </trkpt>
      <trkpt lat="44.4507" lon="2.49921">
        <ele>515.4</ele>
        <time>2011-06-04T12:12:54Z</time>
      </trkpt>
      <trkpt lat="44.45069" lon="2.49914">
        <ele>515</ele>
        <time>2011-06-04T12:12:56Z</time>
      </trkpt>
      <trkpt lat="44.45066" lon="2.49904">
        <ele>513.9</ele>
        <time>2011-06-04T12:13:00Z</time>
      </trkpt>
      <trkpt lat="44.45066" lon="2.49898">
        <ele>513.9</ele>
        <time>2011-06-04T12:13:02Z</time>
      </trkpt>
      <trkpt lat="44.45069" lon="2.49886">
        <ele>514.5</ele>
        <time>2011-06-04T12:13:05Z</time>
      </trkpt>
      <trkpt lat="44.45069" lon="2.49878">
        <ele>514.6</ele>
        <time>2011-06-04T12:13:07Z</time>
      </trkpt>
      <trkpt lat="44.45071" lon="2.4987">
        <ele>515</ele>
        <time>2011-06-04T12:13:09Z</time>
      </trkpt>
      <trkpt lat="44.45074" lon="2.49861">
        <ele>515.9</ele>
        <time>2011-06-04T12:13:11Z</time>
      </trkpt>
      <trkpt lat="44.45075" lon="2.49851">
        <ele>516.3</ele>
        <time>2011-06-04T12:13:13Z</time>
      </trkpt>
      <trkpt lat="44.45076" lon="2.49842">
        <ele>516.4</ele>
        <time>2011-06-04T12:13:15Z</time>
      </trkpt>
      <trkpt lat="44.45077" lon="2.49834">
        <ele>516.8</ele>
        <time>2011-06-04T12:13:17Z</time>
      </trkpt>
      <trkpt lat="44.45081" lon="2.49828">
        <ele>518.5</ele>
        <time>2011-06-04T12:13:19Z</time>
      </trkpt>
      <trkpt lat="44.45085" lon="2.49824">
        <ele>519.6</ele>
        <time>2011-06-04T12:13:21Z</time>
      </trkpt>
      <trkpt lat="44.45089" lon="2.49821">
        <ele>520.2</ele>
        <time>2011-06-04T12:13:23Z</time>
      </trkpt>
      <trkpt lat="44.45092" lon="2.49817">
        <ele>520.7</ele>
        <time>2011-06-04T12:13:25Z</time>
      </trkpt>
      <trkpt lat="44.451" lon="2.49817">
        <ele>521.5</ele>
        <time>2011-06-04T12:13:29Z</time>
      </trkpt>
      <trkpt lat="44.45116" lon="2.49809">
        <ele>523.8</ele>
        <time>2011-06-04T12:13:38Z</time>
      </trkpt>
      <trkpt lat="44.45122" lon="2.49805">
        <ele>524.7</ele>
        <time>2011-06-04T12:13:41Z</time>
      </trkpt>
      <trkpt lat="44.45126" lon="2.49803">
        <ele>525.3</ele>
        <time>2011-06-04T12:13:44Z</time>
      </trkpt>
      <trkpt lat="44.45132" lon="2.49805">
        <ele>525.9</ele>
        <time>2011-06-04T12:13:48Z</time>
      </trkpt>
      <trkpt lat="44.45136" lon="2.49807">
        <ele>526.1</ele>
        <time>2011-06-04T12:13:50Z</time>
      </trkpt>
      <trkpt lat="44.45141" lon="2.49813">
        <ele>526.3</ele>
        <time>2011-06-04T12:13:54Z</time>
      </trkpt>
      <trkpt lat="44.45148" lon="2.49818">
        <ele>526.5</ele>
        <time>2011-06-04T12:13:59Z</time>
      </trkpt>
      <trkpt lat="44.45151" lon="2.49809">
        <ele>527.7</ele>
        <time>2011-06-04T12:14:05Z</time>
      </trkpt>
      <trkpt lat="44.45146" lon="2.4978">
        <ele>529.6</ele>
        <time>2011-06-04T12:14:17Z</time>
      </trkpt>
      <trkpt lat="44.45144" lon="2.49763">
        <ele>530.7</ele>
        <time>2011-06-04T12:14:23Z</time>
      </trkpt>
      <trkpt lat="44.45143" lon="2.4973">
        <ele>533.3</ele>
        <time>2011-06-04T12:14:35Z</time>
      </trkpt>
      <trkpt lat="44.45141" lon="2.49719">
        <ele>533.9</ele>
        <time>2011-06-04T12:14:39Z</time>
      </trkpt>
      <trkpt lat="44.45135" lon="2.49706">
        <ele>534.1</ele>
        <time>2011-06-04T12:14:45Z</time>
      </trkpt>
      <trkpt lat="44.45131" lon="2.49699">
        <ele>534.1</ele>
        <time>2011-06-04T12:14:49Z</time>
      </trkpt>
      <trkpt lat="44.45128" lon="2.49692">
        <ele>534.3</ele>
        <time>2011-06-04T12:14:53Z</time>
      </trkpt>
      <trkpt lat="44.45125" lon="2.49684">
        <ele>534.6</ele>
        <time>2011-06-04T12:14:57Z</time>
      </trkpt>
      <trkpt lat="44.45124" lon="2.49679">
        <ele>534.9</ele>
        <time>2011-06-04T12:14:59Z</time>
      </trkpt>
      <trkpt lat="44.45123" lon="2.49658">
        <ele>536.3</ele>
        <time>2011-06-04T12:15:07Z</time>
      </trkpt>
      <trkpt lat="44.45124" lon="2.49647">
        <ele>537</ele>
        <time>2011-06-04T12:15:11Z</time>
      </trkpt>
      <trkpt lat="44.45125" lon="2.49626">
        <ele>538.3</ele>
        <time>2011-06-04T12:15:19Z</time>
      </trkpt>
      <trkpt lat="44.45126" lon="2.49614">
        <ele>539</ele>
        <time>2011-06-04T12:15:23Z</time>
      </trkpt>
      <trkpt lat="44.45125" lon="2.49607">
        <ele>539.3</ele>
        <time>2011-06-04T12:15:25Z</time>
      </trkpt>
      <trkpt lat="44.45124" lon="2.49593">
        <ele>539.9</ele>
        <time>2011-06-04T12:15:29Z</time>
      </trkpt>
      <trkpt lat="44.45119" lon="2.49566">
        <ele>539.1</ele>
        <time>2011-06-04T12:15:36Z</time>
      </trkpt>
      <trkpt lat="44.45115" lon="2.49543">
        <ele>537.8</ele>
        <time>2011-06-04T12:15:40Z</time>
      </trkpt>
      <trkpt lat="44.45115" lon="2.49537">
        <ele>537.4</ele>
        <time>2011-06-04T12:15:41Z</time>
      </trkpt>
      <trkpt lat="44.45114" lon="2.49524">
        <ele>536.8</ele>
        <time>2011-06-04T12:15:43Z</time>
      </trkpt>
      <trkpt lat="44.45112" lon="2.49486">
        <ele>535.7</ele>
        <time>2011-06-04T12:15:49Z</time>
      </trkpt>
      <trkpt lat="44.4511" lon="2.49465">
        <ele>535.2</ele>
        <time>2011-06-04T12:15:52Z</time>
      </trkpt>
      <trkpt lat="44.4511" lon="2.49459">
        <ele>535.1</ele>
        <time>2011-06-04T12:15:53Z</time>
      </trkpt>
      <trkpt lat="44.45111" lon="2.49433">
        <ele>535.1</ele>
        <time>2011-06-04T12:15:57Z</time>
      </trkpt>
      <trkpt lat="44.45112" lon="2.49419">
        <ele>535.1</ele>
        <time>2011-06-04T12:15:59Z</time>
      </trkpt>
      <trkpt lat="44.45114" lon="2.49406">
        <ele>535</ele>
        <time>2011-06-04T12:16:01Z</time>
      </trkpt>
      <trkpt lat="44.45114" lon="2.494">
        <ele>534.7</ele>
        <time>2011-06-04T12:16:02Z</time>
      </trkpt>
      <trkpt lat="44.45114" lon="2.49366">
        <ele>533.3</ele>
        <time>2011-06-04T12:16:07Z</time>
      </trkpt>
      <trkpt lat="44.45112" lon="2.49346">
        <ele>532.2</ele>
        <time>2011-06-04T12:16:10Z</time>
      </trkpt>
      <trkpt lat="44.45112" lon="2.49314">
        <ele>530.3</ele>
        <time>2011-06-04T12:16:15Z</time>
      </trkpt>
      <trkpt lat="44.45112" lon="2.49302">
        <ele>529.2</ele>
        <time>2011-06-04T12:16:17Z</time>
      </trkpt>
      <trkpt lat="44.45114" lon="2.49268">
        <ele>526.9</ele>
        <time>2011-06-04T12:16:22Z</time>
      </trkpt>
      <trkpt lat="44.45113" lon="2.49239">
        <ele>525</ele>
        <time>2011-06-04T12:16:26Z</time>
      </trkpt>
      <trkpt lat="44.45114" lon="2.49224">
        <ele>524.6</ele>
        <time>2011-06-04T12:16:28Z</time>
      </trkpt>
      <trkpt lat="44.45116" lon="2.49208">
        <ele>524.4</ele>
        <time>2011-06-04T12:16:30Z</time>
      </trkpt>
      <trkpt lat="44.4512" lon="2.49193">
        <ele>524.3</ele>
        <time>2011-06-04T12:16:32Z</time>
      </trkpt>
      <trkpt lat="44.45123" lon="2.49187">
        <ele>524.4</ele>
        <time>2011-06-04T12:16:33Z</time>
      </trkpt>
      <trkpt lat="44.45127" lon="2.49183">
        <ele>524.7</ele>
        <time>2011-06-04T12:16:34Z</time>
      </trkpt>
      <trkpt lat="44.45136" lon="2.49179">
        <ele>525.7</ele>
        <time>2011-06-04T12:16:38Z</time>
      </trkpt>
      <trkpt lat="44.45149" lon="2.49175">
        <ele>527</ele>
        <time>2011-06-04T12:16:46Z</time>
      </trkpt>
      <trkpt lat="44.45155" lon="2.49171">
        <ele>527.6</ele>
        <time>2011-06-04T12:16:50Z</time>
      </trkpt>
      <trkpt lat="44.45158" lon="2.49167">
        <ele>528</ele>
        <time>2011-06-04T12:16:53Z</time>
      </trkpt>
      <trkpt lat="44.4516" lon="2.49162">
        <ele>528.1</ele>
        <time>2011-06-04T12:16:56Z</time>
      </trkpt>
      <trkpt lat="44.45163" lon="2.49157">
        <ele>528.3</ele>
        <time>2011-06-04T12:16:59Z</time>
      </trkpt>
      <trkpt lat="44.45166" lon="2.49148">
        <ele>528.7</ele>
        <time>2011-06-04T12:17:04Z</time>
      </trkpt>
      <trkpt lat="44.45169" lon="2.49143">
        <ele>529</ele>
        <time>2011-06-04T12:17:07Z</time>
      </trkpt>
      <trkpt lat="44.45171" lon="2.49138">
        <ele>529.3</ele>
        <time>2011-06-04T12:17:10Z</time>
      </trkpt>
      <trkpt lat="44.45172" lon="2.49132">
        <ele>529.5</ele>
        <time>2011-06-04T12:17:13Z</time>
      </trkpt>
      <trkpt lat="44.45175" lon="2.49125">
        <ele>529.8</ele>
        <time>2011-06-04T12:17:17Z</time>
      </trkpt>
      <trkpt lat="44.45185" lon="2.49111">
        <ele>531.1</ele>
        <time>2011-06-04T12:17:24Z</time>
      </trkpt>
      <trkpt lat="44.45199" lon="2.49084">
        <ele>532.6</ele>
        <time>2011-06-04T12:17:36Z</time>
      </trkpt>
      <trkpt lat="44.45203" lon="2.49075">
        <ele>533</ele>
        <time>2011-06-04T12:17:40Z</time>
      </trkpt>
      <trkpt lat="44.45205" lon="2.4907">
        <ele>533.1</ele>
        <time>2011-06-04T12:17:42Z</time>
      </trkpt>
      <trkpt lat="44.45209" lon="2.49061">
        <ele>533.4</ele>
        <time>2011-06-04T12:17:46Z</time>
      </trkpt>
      <trkpt lat="44.45216" lon="2.4904">
        <ele>533.7</ele>
        <time>2011-06-04T12:17:54Z</time>
      </trkpt>
      <trkpt lat="44.4522" lon="2.49031">
        <ele>534</ele>
        <time>2011-06-04T12:17:58Z</time>
      </trkpt>
      <trkpt lat="44.45225" lon="2.49024">
        <ele>534.5</ele>
        <time>2011-06-04T12:18:02Z</time>
      </trkpt>
      <trkpt lat="44.45231" lon="2.49018">
        <ele>535.1</ele>
        <time>2011-06-04T12:18:06Z</time>
      </trkpt>
      <trkpt lat="44.45245" lon="2.49">
        <ele>536.4</ele>
        <time>2011-06-04T12:18:16Z</time>
      </trkpt>
      <trkpt lat="44.45249" lon="2.48994">
        <ele>536.6</ele>
        <time>2011-06-04T12:18:19Z</time>
      </trkpt>
      <trkpt lat="44.45253" lon="2.48988">
        <ele>536.6</ele>
        <time>2011-06-04T12:18:22Z</time>
      </trkpt>
      <trkpt lat="44.4526" lon="2.48971">
        <ele>536.2</ele>
        <time>2011-06-04T12:18:30Z</time>
      </trkpt>
      <trkpt lat="44.45264" lon="2.48963">
        <ele>536.1</ele>
        <time>2011-06-04T12:18:34Z</time>
      </trkpt>
      <trkpt lat="44.45266" lon="2.48958">
        <ele>536</ele>
        <time>2011-06-04T12:18:36Z</time>
      </trkpt>
      <trkpt lat="44.45268" lon="2.48949">
        <ele>535.7</ele>
        <time>2011-06-04T12:18:39Z</time>
      </trkpt>
      <trkpt lat="44.45275" lon="2.48925">
        <ele>535.1</ele>
        <time>2011-06-04T12:18:48Z</time>
      </trkpt>
      <trkpt lat="44.45277" lon="2.4892">
        <ele>535.1</ele>
        <time>2011-06-04T12:18:50Z</time>
      </trkpt>
      <trkpt lat="44.45283" lon="2.48908">
        <ele>534.9</ele>
        <time>2011-06-04T12:18:54Z</time>
      </trkpt>
      <trkpt lat="44.45286" lon="2.48902">
        <ele>534.7</ele>
        <time>2011-06-04T12:18:56Z</time>
      </trkpt>
      <trkpt lat="44.45289" lon="2.48898">
        <ele>534.6</ele>
        <time>2011-06-04T12:18:58Z</time>
      </trkpt>
      <trkpt lat="44.45296" lon="2.48888">
        <ele>534.6</ele>
        <time>2011-06-04T12:19:02Z</time>
      </trkpt>
      <trkpt lat="44.45301" lon="2.48882">
        <ele>534.5</ele>
        <time>2011-06-04T12:19:05Z</time>
      </trkpt>
      <trkpt lat="44.45307" lon="2.48875">
        <ele>534.3</ele>
        <time>2011-06-04T12:19:09Z</time>
      </trkpt>
      <trkpt lat="44.4531" lon="2.48871">
        <ele>534.4</ele>
        <time>2011-06-04T12:19:11Z</time>
      </trkpt>
      <trkpt lat="44.45318" lon="2.48861">
        <ele>534.1</ele>
        <time>2011-06-04T12:19:18Z</time>
      </trkpt>
      <trkpt lat="44.45324" lon="2.48854">
        <ele>533.9</ele>
        <time>2011-06-04T12:19:22Z</time>
      </trkpt>
      <trkpt lat="44.45334" lon="2.48841">
        <ele>533.5</ele>
        <time>2011-06-04T12:19:29Z</time>
      </trkpt>
      <trkpt lat="44.45346" lon="2.48828">
        <ele>533.2</ele>
        <time>2011-06-04T12:19:37Z</time>
      </trkpt>
      <trkpt lat="44.45349" lon="2.48824">
        <ele>533.1</ele>
        <time>2011-06-04T12:19:39Z</time>
      </trkpt>
      <trkpt lat="44.45356" lon="2.4882">
        <ele>533.2</ele>
        <time>2011-06-04T12:19:43Z</time>
      </trkpt>
      <trkpt lat="44.45363" lon="2.48818">
        <ele>533.3</ele>
        <time>2011-06-04T12:19:47Z</time>
      </trkpt>
      <trkpt lat="44.45367" lon="2.48817">
        <ele>533.3</ele>
        <time>2011-06-04T12:19:49Z</time>
      </trkpt>
      <trkpt lat="44.45381" lon="2.48806">
        <ele>533.3</ele>
        <time>2011-06-04T12:19:57Z</time>
      </trkpt>
      <trkpt lat="44.45387" lon="2.488">
        <ele>533.2</ele>
        <time>2011-06-04T12:20:01Z</time>
      </trkpt>
      <trkpt lat="44.45392" lon="2.48794">
        <ele>533.1</ele>
        <time>2011-06-04T12:20:04Z</time>
      </trkpt>
      <trkpt lat="44.45398" lon="2.48783">
        <ele>532.9</ele>
        <time>2011-06-04T12:20:08Z</time>
      </trkpt>
      <trkpt lat="44.45405" lon="2.48766">
        <ele>532.4</ele>
        <time>2011-06-04T12:20:15Z</time>
      </trkpt>
      <trkpt lat="44.4541" lon="2.48746">
        <ele>531.7</ele>
        <time>2011-06-04T12:20:22Z</time>
      </trkpt>
      <trkpt lat="44.45417" lon="2.48726">
        <ele>530.8</ele>
        <time>2011-06-04T12:20:28Z</time>
      </trkpt>
      <trkpt lat="44.45423" lon="2.48714">
        <ele>530.3</ele>
        <time>2011-06-04T12:20:32Z</time>
      </trkpt>
      <trkpt lat="44.45432" lon="2.48689">
        <ele>529.5</ele>
        <time>2011-06-04T12:20:40Z</time>
      </trkpt>
      <trkpt lat="44.45435" lon="2.48684">
        <ele>529.3</ele>
        <time>2011-06-04T12:20:42Z</time>
      </trkpt>
      <trkpt lat="44.4544" lon="2.48678">
        <ele>529.2</ele>
        <time>2011-06-04T12:20:45Z</time>
      </trkpt>
      <trkpt lat="44.45455" lon="2.48661">
        <ele>529.3</ele>
        <time>2011-06-04T12:20:51Z</time>
      </trkpt>
      <trkpt lat="44.4546" lon="2.48654">
        <ele>529.4</ele>
        <time>2011-06-04T12:20:53Z</time>
      </trkpt>
      <trkpt lat="44.45466" lon="2.48649">
        <ele>529.6</ele>
        <time>2011-06-04T12:20:55Z</time>
      </trkpt>
      <trkpt lat="44.45481" lon="2.48642">
        <ele>530.2</ele>
        <time>2011-06-04T12:21:00Z</time>
      </trkpt>
      <trkpt lat="44.45487" lon="2.48639">
        <ele>530.4</ele>
        <time>2011-06-04T12:21:02Z</time>
      </trkpt>
      <trkpt lat="44.45496" lon="2.48633">
        <ele>530.8</ele>
        <time>2011-06-04T12:21:05Z</time>
      </trkpt>
      <trkpt lat="44.45507" lon="2.48622">
        <ele>531.2</ele>
        <time>2011-06-04T12:21:09Z</time>
      </trkpt>
      <trkpt lat="44.45519" lon="2.48614">
        <ele>531.5</ele>
        <time>2011-06-04T12:21:12Z</time>
      </trkpt>
      <trkpt lat="44.45522" lon="2.4861">
        <ele>531.6</ele>
        <time>2011-06-04T12:21:13Z</time>
      </trkpt>
      <trkpt lat="44.45525" lon="2.48606">
        <ele>531.7</ele>
        <time>2011-06-04T12:21:14Z</time>
      </trkpt>
      <trkpt lat="44.45535" lon="2.4859">
        <ele>531.9</ele>
        <time>2011-06-04T12:21:18Z</time>
      </trkpt>
      <trkpt lat="44.45538" lon="2.48586">
        <ele>531.9</ele>
        <time>2011-06-04T12:21:19Z</time>
      </trkpt>
      <trkpt lat="44.45546" lon="2.48579">
        <ele>532</ele>
        <time>2011-06-04T12:21:22Z</time>
      </trkpt>
      <trkpt lat="44.45553" lon="2.48572">
        <ele>532</ele>
        <time>2011-06-04T12:21:25Z</time>
      </trkpt>
      <trkpt lat="44.45558" lon="2.48568">
        <ele>532</ele>
        <time>2011-06-04T12:21:27Z</time>
      </trkpt>
      <trkpt lat="44.45561" lon="2.48566">
        <ele>532</ele>
        <time>2011-06-04T12:21:28Z</time>
      </trkpt>
      <trkpt lat="44.45568" lon="2.4856">
        <ele>532.1</ele>
        <time>2011-06-04T12:21:31Z</time>
      </trkpt>
      <trkpt lat="44.45572" lon="2.48556">
        <ele>532.1</ele>
        <time>2011-06-04T12:21:33Z</time>
      </trkpt>
      <trkpt lat="44.45578" lon="2.48551">
        <ele>532.1</ele>
        <time>2011-06-04T12:21:36Z</time>
      </trkpt>
      <trkpt lat="44.45584" lon="2.48546">
        <ele>532.1</ele>
        <time>2011-06-04T12:21:39Z</time>
      </trkpt>
      <trkpt lat="44.45601" lon="2.48535">
        <ele>532.2</ele>
        <time>2011-06-04T12:21:47Z</time>
      </trkpt>
      <trkpt lat="44.45612" lon="2.48526">
        <ele>532.2</ele>
        <time>2011-06-04T12:21:52Z</time>
      </trkpt>
      <trkpt lat="44.4563" lon="2.48515">
        <ele>532.1</ele>
        <time>2011-06-04T12:21:59Z</time>
      </trkpt>
      <trkpt lat="44.45637" lon="2.48511">
        <ele>532.1</ele>
        <time>2011-06-04T12:22:02Z</time>
      </trkpt>
      <trkpt lat="44.45642" lon="2.4851">
        <ele>532.1</ele>
        <time>2011-06-04T12:22:04Z</time>
      </trkpt>
      <trkpt lat="44.45652" lon="2.4851">
        <ele>532.2</ele>
        <time>2011-06-04T12:22:08Z</time>
      </trkpt>
      <trkpt lat="44.45657" lon="2.48508">
        <ele>532.2</ele>
        <time>2011-06-04T12:22:10Z</time>
      </trkpt>
      <trkpt lat="44.4566" lon="2.48506">
        <ele>532.2</ele>
        <time>2011-06-04T12:22:11Z</time>
      </trkpt>
      <trkpt lat="44.45675" lon="2.48499">
        <ele>530.9</ele>
        <time>2011-06-04T12:22:17Z</time>
      </trkpt>
      <trkpt lat="44.45693" lon="2.48485">
        <ele>526.7</ele>
        <time>2011-06-04T12:22:25Z</time>
      </trkpt>
      <trkpt lat="44.45696" lon="2.48481">
        <ele>525.7</ele>
        <time>2011-06-04T12:22:27Z</time>
      </trkpt>
      <trkpt lat="44.45698" lon="2.48474">
        <ele>524.4</ele>
        <time>2011-06-04T12:22:29Z</time>
      </trkpt>
      <trkpt lat="44.45697" lon="2.4847">
        <ele>523.6</ele>
        <time>2011-06-04T12:22:30Z</time>
      </trkpt>
      <trkpt lat="44.45695" lon="2.48461">
        <ele>522.6</ele>
        <time>2011-06-04T12:22:32Z</time>
      </trkpt>
      <trkpt lat="44.45695" lon="2.48457">
        <ele>522</ele>
        <time>2011-06-04T12:22:33Z</time>
      </trkpt>
      <trkpt lat="44.457" lon="2.48453">
        <ele>520.4</ele>
        <time>2011-06-04T12:22:36Z</time>
      </trkpt>
      <trkpt lat="44.4571" lon="2.48453">
        <ele>518.9</ele>
        <time>2011-06-04T12:22:39Z</time>
      </trkpt>
      <trkpt lat="44.4572" lon="2.48452">
        <ele>517</ele>
        <time>2011-06-04T12:22:41Z</time>
      </trkpt>
      <trkpt lat="44.45725" lon="2.48452">
        <ele>516.4</ele>
        <time>2011-06-04T12:22:42Z</time>
      </trkpt>
      <trkpt lat="44.45731" lon="2.48453">
        <ele>515.9</ele>
        <time>2011-06-04T12:22:43Z</time>
      </trkpt>
      <trkpt lat="44.45736" lon="2.48456">
        <ele>515.6</ele>
        <time>2011-06-04T12:22:44Z</time>
      </trkpt>
      <trkpt lat="44.45746" lon="2.48465">
        <ele>515.9</ele>
        <time>2011-06-04T12:22:46Z</time>
      </trkpt>
      <trkpt lat="44.45765" lon="2.48476">
        <ele>517</ele>
        <time>2011-06-04T12:22:49Z</time>
      </trkpt>
      <trkpt lat="44.45786" lon="2.48483">
        <ele>517.7</ele>
        <time>2011-06-04T12:22:52Z</time>
      </trkpt>
      <trkpt lat="44.45845" lon="2.48493">
        <ele>518.5</ele>
        <time>2011-06-04T12:22:59Z</time>
      </trkpt>
      <trkpt lat="44.45882" lon="2.48496">
        <ele>522.5</ele>
        <time>2011-06-04T12:23:03Z</time>
      </trkpt>
      <trkpt lat="44.45907" lon="2.48491">
        <ele>524</ele>
        <time>2011-06-04T12:23:06Z</time>
      </trkpt>
      <trkpt lat="44.45914" lon="2.48488">
        <ele>524.1</ele>
        <time>2011-06-04T12:23:07Z</time>
      </trkpt>
      <trkpt lat="44.4592" lon="2.48484">
        <ele>523</ele>
        <time>2011-06-04T12:23:08Z</time>
      </trkpt>
      <trkpt lat="44.45925" lon="2.48479">
        <ele>522</ele>
        <time>2011-06-04T12:23:09Z</time>
      </trkpt>
      <trkpt lat="44.45934" lon="2.48469">
        <ele>519.6</ele>
        <time>2011-06-04T12:23:11Z</time>
      </trkpt>
      <trkpt lat="44.45938" lon="2.48464">
        <ele>518.4</ele>
        <time>2011-06-04T12:23:12Z</time>
      </trkpt>
      <trkpt lat="44.45952" lon="2.48441">
        <ele>513.8</ele>
        <time>2011-06-04T12:23:16Z</time>
      </trkpt>
      <trkpt lat="44.45959" lon="2.48428">
        <ele>511.7</ele>
        <time>2011-06-04T12:23:18Z</time>
      </trkpt>
      <trkpt lat="44.45961" lon="2.48422">
        <ele>510.5</ele>
        <time>2011-06-04T12:23:19Z</time>
      </trkpt>
      <trkpt lat="44.45963" lon="2.48408">
        <ele>508.8</ele>
        <time>2011-06-04T12:23:21Z</time>
      </trkpt>
      <trkpt lat="44.45965" lon="2.48393">
        <ele>507.3</ele>
        <time>2011-06-04T12:23:23Z</time>
      </trkpt>
      <trkpt lat="44.45966" lon="2.48387">
        <ele>506.8</ele>
        <time>2011-06-04T12:23:24Z</time>
      </trkpt>
      <trkpt lat="44.4597" lon="2.48376">
        <ele>505.9</ele>
        <time>2011-06-04T12:23:26Z</time>
      </trkpt>
      <trkpt lat="44.45976" lon="2.48365">
        <ele>505.2</ele>
        <time>2011-06-04T12:23:28Z</time>
      </trkpt>
      <trkpt lat="44.45984" lon="2.48348">
        <ele>504.2</ele>
        <time>2011-06-04T12:23:31Z</time>
      </trkpt>
      <trkpt lat="44.45994" lon="2.48322">
        <ele>502.7</ele>
        <time>2011-06-04T12:23:35Z</time>
      </trkpt>
      <trkpt lat="44.46011" lon="2.48281">
        <ele>500.4</ele>
        <time>2011-06-04T12:23:42Z</time>
      </trkpt>
      <trkpt lat="44.46016" lon="2.48269">
        <ele>499.8</ele>
        <time>2011-06-04T12:23:44Z</time>
      </trkpt>
      <trkpt lat="44.46027" lon="2.48249">
        <ele>498.9</ele>
        <time>2011-06-04T12:23:48Z</time>
      </trkpt>
      <trkpt lat="44.46046" lon="2.48217">
        <ele>498.4</ele>
        <time>2011-06-04T12:23:54Z</time>
      </trkpt>
      <trkpt lat="44.46058" lon="2.48199">
        <ele>498.2</ele>
        <time>2011-06-04T12:23:58Z</time>
      </trkpt>
      <trkpt lat="44.4607" lon="2.48178">
        <ele>497.9</ele>
        <time>2011-06-04T12:24:03Z</time>
      </trkpt>
      <trkpt lat="44.46079" lon="2.48164">
        <ele>497.6</ele>
        <time>2011-06-04T12:24:07Z</time>
      </trkpt>
      <trkpt lat="44.46093" lon="2.4815">
        <ele>494.9</ele>
        <time>2011-06-04T12:24:12Z</time>
      </trkpt>
      <trkpt lat="44.46107" lon="2.48135">
        <ele>491</ele>
        <time>2011-06-04T12:24:17Z</time>
      </trkpt>
      <trkpt lat="44.46113" lon="2.48129">
        <ele>489.5</ele>
        <time>2011-06-04T12:24:19Z</time>
      </trkpt>
      <trkpt lat="44.46128" lon="2.48118">
        <ele>486</ele>
        <time>2011-06-04T12:24:23Z</time>
      </trkpt>
      <trkpt lat="44.46134" lon="2.48111">
        <ele>484.4</ele>
        <time>2011-06-04T12:24:25Z</time>
      </trkpt>
      <trkpt lat="44.46138" lon="2.48106">
        <ele>483.4</ele>
        <time>2011-06-04T12:24:26Z</time>
      </trkpt>
      <trkpt lat="44.46149" lon="2.48085">
        <ele>480</ele>
        <time>2011-06-04T12:24:29Z</time>
      </trkpt>
      <trkpt lat="44.46154" lon="2.48077">
        <ele>478.7</ele>
        <time>2011-06-04T12:24:30Z</time>
      </trkpt>
      <trkpt lat="44.46169" lon="2.4806">
        <ele>475.4</ele>
        <time>2011-06-04T12:24:33Z</time>
      </trkpt>
      <trkpt lat="44.46175" lon="2.48055">
        <ele>474.7</ele>
        <time>2011-06-04T12:24:34Z</time>
      </trkpt>
      <trkpt lat="44.46182" lon="2.48053">
        <ele>474.1</ele>
        <time>2011-06-04T12:24:35Z</time>
      </trkpt>
      <trkpt lat="44.46204" lon="2.48049">
        <ele>472.6</ele>
        <time>2011-06-04T12:24:38Z</time>
      </trkpt>
      <trkpt lat="44.4621" lon="2.48051">
        <ele>472.3</ele>
        <time>2011-06-04T12:24:39Z</time>
      </trkpt>
      <trkpt lat="44.46215" lon="2.48054">
        <ele>472.1</ele>
        <time>2011-06-04T12:24:40Z</time>
      </trkpt>
      <trkpt lat="44.46221" lon="2.48059">
        <ele>472.1</ele>
        <time>2011-06-04T12:24:41Z</time>
      </trkpt>
      <trkpt lat="44.4623" lon="2.48072">
        <ele>472.4</ele>
        <time>2011-06-04T12:24:43Z</time>
      </trkpt>
      <trkpt lat="44.46235" lon="2.48077">
        <ele>472.4</ele>
        <time>2011-06-04T12:24:44Z</time>
      </trkpt>
      <trkpt lat="44.4624" lon="2.48079">
        <ele>472.2</ele>
        <time>2011-06-04T12:24:45Z</time>
      </trkpt>
      <trkpt lat="44.46246" lon="2.48079">
        <ele>471.9</ele>
        <time>2011-06-04T12:24:46Z</time>
      </trkpt>
      <trkpt lat="44.46252" lon="2.48078">
        <ele>471.5</ele>
        <time>2011-06-04T12:24:47Z</time>
      </trkpt>
      <trkpt lat="44.46258" lon="2.48078">
        <ele>471.3</ele>
        <time>2011-06-04T12:24:48Z</time>
      </trkpt>
      <trkpt lat="44.46263" lon="2.48079">
        <ele>471.2</ele>
        <time>2011-06-04T12:24:49Z</time>
      </trkpt>
      <trkpt lat="44.46268" lon="2.48081">
        <ele>471.2</ele>
        <time>2011-06-04T12:24:50Z</time>
      </trkpt>
      <trkpt lat="44.46272" lon="2.48084">
        <ele>471.2</ele>
        <time>2011-06-04T12:24:51Z</time>
      </trkpt>
      <trkpt lat="44.46281" lon="2.48092">
        <ele>471.7</ele>
        <time>2011-06-04T12:24:53Z</time>
      </trkpt>
      <trkpt lat="44.46285" lon="2.48094">
        <ele>471.6</ele>
        <time>2011-06-04T12:24:54Z</time>
      </trkpt>
      <trkpt lat="44.46293" lon="2.48092">
        <ele>471.2</ele>
        <time>2011-06-04T12:24:56Z</time>
      </trkpt>
      <trkpt lat="44.46309" lon="2.48082">
        <ele>469.8</ele>
        <time>2011-06-04T12:25:00Z</time>
      </trkpt>
      <trkpt lat="44.46313" lon="2.48081">
        <ele>469.6</ele>
        <time>2011-06-04T12:25:01Z</time>
      </trkpt>
      <trkpt lat="44.46327" lon="2.48079">
        <ele>469</ele>
        <time>2011-06-04T12:25:04Z</time>
      </trkpt>
      <trkpt lat="44.46338" lon="2.48076">
        <ele>468.7</ele>
        <time>2011-06-04T12:25:07Z</time>
      </trkpt>
      <trkpt lat="44.46356" lon="2.48067">
        <ele>468.8</ele>
        <time>2011-06-04T12:25:12Z</time>
      </trkpt>
      <trkpt lat="44.46374" lon="2.48055">
        <ele>468.8</ele>
        <time>2011-06-04T12:25:18Z</time>
      </trkpt>
      <trkpt lat="44.46394" lon="2.48042">
        <ele>468.7</ele>
        <time>2011-06-04T12:25:25Z</time>
      </trkpt>
      <trkpt lat="44.46405" lon="2.48035">
        <ele>468.6</ele>
        <time>2011-06-04T12:25:29Z</time>
      </trkpt>
      <trkpt lat="44.46411" lon="2.48032">
        <ele>468.7</ele>
        <time>2011-06-04T12:25:31Z</time>
      </trkpt>
      <trkpt lat="44.46416" lon="2.48026">
        <ele>468.4</ele>
        <time>2011-06-04T12:25:33Z</time>
      </trkpt>
      <trkpt lat="44.46418" lon="2.48016">
        <ele>468.1</ele>
        <time>2011-06-04T12:25:35Z</time>
      </trkpt>
      <trkpt lat="44.46418" lon="2.48011">
        <ele>467.8</ele>
        <time>2011-06-04T12:25:36Z</time>
      </trkpt>
      <trkpt lat="44.46421" lon="2.48">
        <ele>467.5</ele>
        <time>2011-06-04T12:25:38Z</time>
      </trkpt>
      <trkpt lat="44.46422" lon="2.4799">
        <ele>467.2</ele>
        <time>2011-06-04T12:25:40Z</time>
      </trkpt>
      <trkpt lat="44.46427" lon="2.4796">
        <ele>466.3</ele>
        <time>2011-06-04T12:25:45Z</time>
      </trkpt>
      <trkpt lat="44.46429" lon="2.47942">
        <ele>465.6</ele>
        <time>2011-06-04T12:25:48Z</time>
      </trkpt>
      <trkpt lat="44.46431" lon="2.47913">
        <ele>464.5</ele>
        <time>2011-06-04T12:25:53Z</time>
      </trkpt>
      <trkpt lat="44.46434" lon="2.4788">
        <ele>464.4</ele>
        <time>2011-06-04T12:25:58Z</time>
      </trkpt>
      <trkpt lat="44.46433" lon="2.47868">
        <ele>464.2</ele>
        <time>2011-06-04T12:26:00Z</time>
      </trkpt>
      <trkpt lat="44.46433" lon="2.47862">
        <ele>464.1</ele>
        <time>2011-06-04T12:26:01Z</time>
      </trkpt>
      <trkpt lat="44.46427" lon="2.47834">
        <ele>463.5</ele>
        <time>2011-06-04T12:26:06Z</time>
      </trkpt>
      <trkpt lat="44.46423" lon="2.47824">
        <ele>463.2</ele>
        <time>2011-06-04T12:26:08Z</time>
      </trkpt>
      <trkpt lat="44.46415" lon="2.47806">
        <ele>462.6</ele>
        <time>2011-06-04T12:26:12Z</time>
      </trkpt>
      <trkpt lat="44.46411" lon="2.47796">
        <ele>462.3</ele>
        <time>2011-06-04T12:26:14Z</time>
      </trkpt>
      <trkpt lat="44.46399" lon="2.47771">
        <ele>461.6</ele>
        <time>2011-06-04T12:26:19Z</time>
      </trkpt>
      <trkpt lat="44.46395" lon="2.47762">
        <ele>461.4</ele>
        <time>2011-06-04T12:26:21Z</time>
      </trkpt>
      <trkpt lat="44.46392" lon="2.47754">
        <ele>461.2</ele>
        <time>2011-06-04T12:26:23Z</time>
      </trkpt>
      <trkpt lat="44.46393" lon="2.47747">
        <ele>461</ele>
        <time>2011-06-04T12:26:25Z</time>
      </trkpt>
      <trkpt lat="44.46398" lon="2.47742">
        <ele>461.1</ele>
        <time>2011-06-04T12:26:27Z</time>
      </trkpt>
      <trkpt lat="44.46408" lon="2.47736">
        <ele>461.2</ele>
        <time>2011-06-04T12:26:30Z</time>
      </trkpt>
      <trkpt lat="44.46414" lon="2.47731">
        <ele>461.2</ele>
        <time>2011-06-04T12:26:32Z</time>
      </trkpt>
      <trkpt lat="44.46419" lon="2.47726">
        <ele>461.1</ele>
        <time>2011-06-04T12:26:34Z</time>
      </trkpt>
      <trkpt lat="44.46426" lon="2.47716">
        <ele>460.7</ele>
        <time>2011-06-04T12:26:37Z</time>
      </trkpt>
      <trkpt lat="44.46443" lon="2.47697">
        <ele>459.8</ele>
        <time>2011-06-04T12:26:44Z</time>
      </trkpt>
      <trkpt lat="44.46455" lon="2.47681">
        <ele>459.1</ele>
        <time>2011-06-04T12:26:49Z</time>
      </trkpt>
      <trkpt lat="44.4647" lon="2.47659">
        <ele>457.6</ele>
        <time>2011-06-04T12:26:55Z</time>
      </trkpt>
      <trkpt lat="44.46475" lon="2.47651">
        <ele>456.8</ele>
        <time>2011-06-04T12:26:57Z</time>
      </trkpt>
      <trkpt lat="44.46485" lon="2.4763">
        <ele>454.3</ele>
        <time>2011-06-04T12:27:02Z</time>
      </trkpt>
      <trkpt lat="44.46491" lon="2.47615">
        <ele>452.7</ele>
        <time>2011-06-04T12:27:05Z</time>
      </trkpt>
      <trkpt lat="44.46505" lon="2.47587">
        <ele>450</ele>
        <time>2011-06-04T12:27:10Z</time>
      </trkpt>
      <trkpt lat="44.4651" lon="2.47582">
        <ele>449.9</ele>
        <time>2011-06-04T12:27:11Z</time>
      </trkpt>
      <trkpt lat="44.46516" lon="2.47579">
        <ele>449.9</ele>
        <time>2011-06-04T12:27:12Z</time>
      </trkpt>
      <trkpt lat="44.46523" lon="2.47578">
        <ele>450.5</ele>
        <time>2011-06-04T12:27:13Z</time>
      </trkpt>
      <trkpt lat="44.46537" lon="2.47579">
        <ele>452.7</ele>
        <time>2011-06-04T12:27:15Z</time>
      </trkpt>
      <trkpt lat="44.46571" lon="2.47578">
        <ele>457.1</ele>
        <time>2011-06-04T12:27:19Z</time>
      </trkpt>
      <trkpt lat="44.46598" lon="2.4758">
        <ele>460.9</ele>
        <time>2011-06-04T12:27:22Z</time>
      </trkpt>
      <trkpt lat="44.46607" lon="2.47578">
        <ele>462.1</ele>
        <time>2011-06-04T12:27:23Z</time>
      </trkpt>
      <trkpt lat="44.46615" lon="2.47574">
        <ele>463.1</ele>
        <time>2011-06-04T12:27:24Z</time>
      </trkpt>
      <trkpt lat="44.46623" lon="2.47567">
        <ele>463.9</ele>
        <time>2011-06-04T12:27:25Z</time>
      </trkpt>
      <trkpt lat="44.46629" lon="2.47559">
        <ele>464.5</ele>
        <time>2011-06-04T12:27:26Z</time>
      </trkpt>
      <trkpt lat="44.46635" lon="2.47549">
        <ele>464.8</ele>
        <time>2011-06-04T12:27:27Z</time>
      </trkpt>
      <trkpt lat="44.46639" lon="2.47538">
        <ele>465</ele>
        <time>2011-06-04T12:27:28Z</time>
      </trkpt>
      <trkpt lat="44.46649" lon="2.47501">
        <ele>465</ele>
        <time>2011-06-04T12:27:31Z</time>
      </trkpt>
      <trkpt lat="44.46651" lon="2.47488">
        <ele>464.7</ele>
        <time>2011-06-04T12:27:32Z</time>
      </trkpt>
      <trkpt lat="44.46659" lon="2.47394">
        <ele>462.1</ele>
        <time>2011-06-04T12:27:39Z</time>
      </trkpt>
      <trkpt lat="44.46661" lon="2.47366">
        <ele>461.5</ele>
        <time>2011-06-04T12:27:41Z</time>
      </trkpt>
      <trkpt lat="44.4667" lon="2.47311">
        <ele>457</ele>
        <time>2011-06-04T12:27:45Z</time>
      </trkpt>
      <trkpt lat="44.46673" lon="2.47298">
        <ele>454.4</ele>
        <time>2011-06-04T12:27:46Z</time>
      </trkpt>
      <trkpt lat="44.46677" lon="2.47285">
        <ele>452.3</ele>
        <time>2011-06-04T12:27:47Z</time>
      </trkpt>
      <trkpt lat="44.46686" lon="2.47261">
        <ele>448.2</ele>
        <time>2011-06-04T12:27:49Z</time>
      </trkpt>
      <trkpt lat="44.46691" lon="2.4725">
        <ele>446.3</ele>
        <time>2011-06-04T12:27:50Z</time>
      </trkpt>
      <trkpt lat="44.46698" lon="2.4724">
        <ele>443.7</ele>
        <time>2011-06-04T12:27:51Z</time>
      </trkpt>
      <trkpt lat="44.46705" lon="2.47231">
        <ele>441.4</ele>
        <time>2011-06-04T12:27:52Z</time>
      </trkpt>
      <trkpt lat="44.46713" lon="2.47223">
        <ele>440</ele>
        <time>2011-06-04T12:27:53Z</time>
      </trkpt>
      <trkpt lat="44.46753" lon="2.47195">
        <ele>439.3</ele>
        <time>2011-06-04T12:27:58Z</time>
      </trkpt>
      <trkpt lat="44.46802" lon="2.47158">
        <ele>428.8</ele>
        <time>2011-06-04T12:28:04Z</time>
      </trkpt>
      <trkpt lat="44.46827" lon="2.47135">
        <ele>421.8</ele>
        <time>2011-06-04T12:28:07Z</time>
      </trkpt>
      <trkpt lat="44.46859" lon="2.471">
        <ele>409.5</ele>
        <time>2011-06-04T12:28:11Z</time>
      </trkpt>
      <trkpt lat="44.46868" lon="2.47093">
        <ele>406.9</ele>
        <time>2011-06-04T12:28:12Z</time>
      </trkpt>
      <trkpt lat="44.46876" lon="2.47086">
        <ele>404.8</ele>
        <time>2011-06-04T12:28:13Z</time>
      </trkpt>
      <trkpt lat="44.46893" lon="2.47076">
        <ele>401.6</ele>
        <time>2011-06-04T12:28:15Z</time>
      </trkpt>
      <trkpt lat="44.46901" lon="2.47073">
        <ele>400.8</ele>
        <time>2011-06-04T12:28:16Z</time>
      </trkpt>
      <trkpt lat="44.46908" lon="2.47072">
        <ele>400.3</ele>
        <time>2011-06-04T12:28:17Z</time>
      </trkpt>
      <trkpt lat="44.46916" lon="2.47073">
        <ele>400.8</ele>
        <time>2011-06-04T12:28:18Z</time>
      </trkpt>
      <trkpt lat="44.46923" lon="2.47077">
        <ele>403.2</ele>
        <time>2011-06-04T12:28:19Z</time>
      </trkpt>
      <trkpt lat="44.46941" lon="2.47091">
        <ele>412.4</ele>
        <time>2011-06-04T12:28:22Z</time>
      </trkpt>
      <trkpt lat="44.46945" lon="2.47093">
        <ele>413.6</ele>
        <time>2011-06-04T12:28:23Z</time>
      </trkpt>
      <trkpt lat="44.46944" lon="2.47086">
        <ele>411.7</ele>
        <time>2011-06-04T12:28:25Z</time>
      </trkpt>
      <trkpt lat="44.46935" lon="2.47066">
        <ele>402.9</ele>
        <time>2011-06-04T12:28:28Z</time>
      </trkpt>
      <trkpt lat="44.46931" lon="2.47058">
        <ele>399.3</ele>
        <time>2011-06-04T12:28:29Z</time>
      </trkpt>
      <trkpt lat="44.46925" lon="2.4705">
        <ele>395.4</ele>
        <time>2011-06-04T12:28:30Z</time>
      </trkpt>
      <trkpt lat="44.46918" lon="2.47045">
        <ele>392.1</ele>
        <time>2011-06-04T12:28:31Z</time>
      </trkpt>
      <trkpt lat="44.46911" lon="2.47043">
        <ele>391.4</ele>
        <time>2011-06-04T12:28:32Z</time>
      </trkpt>
      <trkpt lat="44.46904" lon="2.47043">
        <ele>391.4</ele>
        <time>2011-06-04T12:28:33Z</time>
      </trkpt>
      <trkpt lat="44.46898" lon="2.47044">
        <ele>391.8</ele>
        <time>2011-06-04T12:28:34Z</time>
      </trkpt>
      <trkpt lat="44.46878" lon="2.47051">
        <ele>393.8</ele>
        <time>2011-06-04T12:28:37Z</time>
      </trkpt>
      <trkpt lat="44.46872" lon="2.47055">
        <ele>395.1</ele>
        <time>2011-06-04T12:28:38Z</time>
      </trkpt>
      <trkpt lat="44.46867" lon="2.47057">
        <ele>395.9</ele>
        <time>2011-06-04T12:28:39Z</time>
      </trkpt>
      <trkpt lat="44.46864" lon="2.47056">
        <ele>395.1</ele>
        <time>2011-06-04T12:28:40Z</time>
      </trkpt>
      <trkpt lat="44.46865" lon="2.47049">
        <ele>393</ele>
        <time>2011-06-04T12:28:42Z</time>
      </trkpt>
      <trkpt lat="44.46874" lon="2.47041">
        <ele>390.6</ele>
        <time>2011-06-04T12:28:44Z</time>
      </trkpt>
      <trkpt lat="44.46884" lon="2.47028">
        <ele>386.5</ele>
        <time>2011-06-04T12:28:46Z</time>
      </trkpt>
      <trkpt lat="44.4689" lon="2.47021">
        <ele>384.5</ele>
        <time>2011-06-04T12:28:47Z</time>
      </trkpt>
      <trkpt lat="44.46915" lon="2.47002">
        <ele>378.4</ele>
        <time>2011-06-04T12:28:50Z</time>
      </trkpt>
      <trkpt lat="44.4694" lon="2.46986">
        <ele>379.2</ele>
        <time>2011-06-04T12:28:53Z</time>
      </trkpt>
      <trkpt lat="44.46948" lon="2.46982">
        <ele>379.8</ele>
        <time>2011-06-04T12:28:54Z</time>
      </trkpt>
      <trkpt lat="44.46956" lon="2.46981">
        <ele>381.1</ele>
        <time>2011-06-04T12:28:55Z</time>
      </trkpt>
      <trkpt lat="44.46965" lon="2.4698">
        <ele>382.5</ele>
        <time>2011-06-04T12:28:56Z</time>
      </trkpt>
      <trkpt lat="44.46973" lon="2.46978">
        <ele>383.8</ele>
        <time>2011-06-04T12:28:57Z</time>
      </trkpt>
      <trkpt lat="44.46981" lon="2.46975">
        <ele>384.3</ele>
        <time>2011-06-04T12:28:58Z</time>
      </trkpt>
      <trkpt lat="44.46987" lon="2.4697">
        <ele>384.3</ele>
        <time>2011-06-04T12:28:59Z</time>
      </trkpt>
      <trkpt lat="44.46994" lon="2.46963">
        <ele>383.8</ele>
        <time>2011-06-04T12:29:00Z</time>
      </trkpt>
      <trkpt lat="44.47" lon="2.46953">
        <ele>382.6</ele>
        <time>2011-06-04T12:29:01Z</time>
      </trkpt>
      <trkpt lat="44.47005" lon="2.46943">
        <ele>379.3</ele>
        <time>2011-06-04T12:29:02Z</time>
      </trkpt>
      <trkpt lat="44.4701" lon="2.46932">
        <ele>375.9</ele>
        <time>2011-06-04T12:29:03Z</time>
      </trkpt>
      <trkpt lat="44.47012" lon="2.4692">
        <ele>372.6</ele>
        <time>2011-06-04T12:29:04Z</time>
      </trkpt>
      <trkpt lat="44.47013" lon="2.46893">
        <ele>365</ele>
        <time>2011-06-04T12:29:06Z</time>
      </trkpt>
      <trkpt lat="44.47023" lon="2.46839">
        <ele>348.9</ele>
        <time>2011-06-04T12:29:10Z</time>
      </trkpt>
      <trkpt lat="44.47027" lon="2.46826">
        <ele>345.4</ele>
        <time>2011-06-04T12:29:11Z</time>
      </trkpt>
      <trkpt lat="44.47035" lon="2.468">
        <ele>338.2</ele>
        <time>2011-06-04T12:29:13Z</time>
      </trkpt>
      <trkpt lat="44.47055" lon="2.46735">
        <ele>319</ele>
        <time>2011-06-04T12:29:18Z</time>
      </trkpt>
      <trkpt lat="44.47063" lon="2.46697">
        <ele>308.4</ele>
        <time>2011-06-04T12:29:21Z</time>
      </trkpt>
      <trkpt lat="44.47067" lon="2.46685">
        <ele>305</ele>
        <time>2011-06-04T12:29:22Z</time>
      </trkpt>
      <trkpt lat="44.47072" lon="2.46674">
        <ele>301.6</ele>
        <time>2011-06-04T12:29:23Z</time>
      </trkpt>
      <trkpt lat="44.47082" lon="2.46658">
        <ele>297.5</ele>
        <time>2011-06-04T12:29:25Z</time>
      </trkpt>
      <trkpt lat="44.47085" lon="2.4665">
        <ele>296.1</ele>
        <time>2011-06-04T12:29:26Z</time>
      </trkpt>
      <trkpt lat="44.47083" lon="2.46642">
        <ele>294.6</ele>
        <time>2011-06-04T12:29:27Z</time>
      </trkpt>
      <trkpt lat="44.47078" lon="2.46636">
        <ele>294.1</ele>
        <time>2011-06-04T12:29:28Z</time>
      </trkpt>
      <trkpt lat="44.47071" lon="2.46634">
        <ele>294.1</ele>
        <time>2011-06-04T12:29:29Z</time>
      </trkpt>
      <trkpt lat="44.47063" lon="2.46633">
        <ele>294.7</ele>
        <time>2011-06-04T12:29:30Z</time>
      </trkpt>
      <trkpt lat="44.47055" lon="2.46632">
        <ele>294.9</ele>
        <time>2011-06-04T12:29:31Z</time>
      </trkpt>
      <trkpt lat="44.4705" lon="2.46629">
        <ele>294.7</ele>
        <time>2011-06-04T12:29:32Z</time>
      </trkpt>
      <trkpt lat="44.47048" lon="2.46626">
        <ele>294.1</ele>
        <time>2011-06-04T12:29:33Z</time>
      </trkpt>
      <trkpt lat="44.47051" lon="2.46619">
        <ele>292.8</ele>
        <time>2011-06-04T12:29:35Z</time>
      </trkpt>
      <trkpt lat="44.47054" lon="2.46618">
        <ele>292.3</ele>
        <time>2011-06-04T12:29:36Z</time>
      </trkpt>
      <trkpt lat="44.47074" lon="2.46613">
        <ele>290.6</ele>
        <time>2011-06-04T12:29:40Z</time>
      </trkpt>
      <trkpt lat="44.47079" lon="2.46613">
        <ele>290</ele>
        <time>2011-06-04T12:29:41Z</time>
      </trkpt>
      <trkpt lat="44.47085" lon="2.46614">
        <ele>290</ele>
        <time>2011-06-04T12:29:42Z</time>
      </trkpt>
      <trkpt lat="44.47091" lon="2.46616">
        <ele>289.9</ele>
        <time>2011-06-04T12:29:43Z</time>
      </trkpt>
      <trkpt lat="44.47125" lon="2.46634">
        <ele>290.8</ele>
        <time>2011-06-04T12:29:48Z</time>
      </trkpt>
      <trkpt lat="44.47129" lon="2.46635">
        <ele>290.8</ele>
        <time>2011-06-04T12:29:49Z</time>
      </trkpt>
      <trkpt lat="44.47134" lon="2.46629">
        <ele>289.8</ele>
        <time>2011-06-04T12:29:51Z</time>
      </trkpt>
      <trkpt lat="44.47135" lon="2.46622">
        <ele>288.8</ele>
        <time>2011-06-04T12:29:52Z</time>
      </trkpt>
      <trkpt lat="44.47137" lon="2.46608">
        <ele>286.7</ele>
        <time>2011-06-04T12:29:54Z</time>
      </trkpt>
      <trkpt lat="44.4714" lon="2.466">
        <ele>285.8</ele>
        <time>2011-06-04T12:29:56Z</time>
      </trkpt>
      <trkpt lat="44.47145" lon="2.46593">
        <ele>284.7</ele>
        <time>2011-06-04T12:30:00Z</time>
      </trkpt>
      <trkpt lat="44.47141" lon="2.46566">
        <ele>283.5</ele>
        <time>2011-06-04T12:30:06Z</time>
      </trkpt>
      <trkpt lat="44.4714" lon="2.4656">
        <ele>283.5</ele>
        <time>2011-06-04T12:30:07Z</time>
      </trkpt>
      <trkpt lat="44.47135" lon="2.46532">
        <ele>283.3</ele>
        <time>2011-06-04T12:30:13Z</time>
      </trkpt>
      <trkpt lat="44.47133" lon="2.46517">
        <ele>283.2</ele>
        <time>2011-06-04T12:30:16Z</time>
      </trkpt>
      <trkpt lat="44.47127" lon="2.46483">
        <ele>282.9</ele>
        <time>2011-06-04T12:30:23Z</time>
      </trkpt>
      <trkpt lat="44.47124" lon="2.46463">
        <ele>282.8</ele>
        <time>2011-06-04T12:30:27Z</time>
      </trkpt>
      <trkpt lat="44.47122" lon="2.46455">
        <ele>282.7</ele>
        <time>2011-06-04T12:30:29Z</time>
      </trkpt>
      <trkpt lat="44.47117" lon="2.46451">
        <ele>282.8</ele>
        <time>2011-06-04T12:30:31Z</time>
      </trkpt>
      <trkpt lat="44.47104" lon="2.46455">
        <ele>282.9</ele>
        <time>2011-06-04T12:30:35Z</time>
      </trkpt>
      <trkpt lat="44.47098" lon="2.46452">
        <ele>282.9</ele>
        <time>2011-06-04T12:30:37Z</time>
      </trkpt>
      <trkpt lat="44.47096" lon="2.46446">
        <ele>282.9</ele>
        <time>2011-06-04T12:30:38Z</time>
      </trkpt>
      <trkpt lat="44.47098" lon="2.46438">
        <ele>282.9</ele>
        <time>2011-06-04T12:30:39Z</time>
      </trkpt>
      <trkpt lat="44.47101" lon="2.46432">
        <ele>282.8</ele>
        <time>2011-06-04T12:30:40Z</time>
      </trkpt>
      <trkpt lat="44.47106" lon="2.46426">
        <ele>282.8</ele>
        <time>2011-06-04T12:30:41Z</time>
      </trkpt>
      <trkpt lat="44.47112" lon="2.46422">
        <ele>282.7</ele>
        <time>2011-06-04T12:30:42Z</time>
      </trkpt>
      <trkpt lat="44.47139" lon="2.46412">
        <ele>282.3</ele>
        <time>2011-06-04T12:30:46Z</time>
      </trkpt>
      <trkpt lat="44.47148" lon="2.46411">
        <ele>282.2</ele>
        <time>2011-06-04T12:30:47Z</time>
      </trkpt>
      <trkpt lat="44.47174" lon="2.46409">
        <ele>281.8</ele>
        <time>2011-06-04T12:30:50Z</time>
      </trkpt>
      <trkpt lat="44.47181" lon="2.4641">
        <ele>281.8</ele>
        <time>2011-06-04T12:30:51Z</time>
      </trkpt>
      <trkpt lat="44.47194" lon="2.46415">
        <ele>281.9</ele>
        <time>2011-06-04T12:30:53Z</time>
      </trkpt>
      <trkpt lat="44.47231" lon="2.46424">
        <ele>282.1</ele>
        <time>2011-06-04T12:30:58Z</time>
      </trkpt>
      <trkpt lat="44.47259" lon="2.46437">
        <ele>282</ele>
        <time>2011-06-04T12:31:02Z</time>
      </trkpt>
      <trkpt lat="44.47268" lon="2.46441">
        <ele>281.8</ele>
        <time>2011-06-04T12:31:03Z</time>
      </trkpt>
      <trkpt lat="44.47274" lon="2.4644">
        <ele>281.7</ele>
        <time>2011-06-04T12:31:04Z</time>
      </trkpt>
      <trkpt lat="44.47278" lon="2.46436">
        <ele>281.6</ele>
        <time>2011-06-04T12:31:05Z</time>
      </trkpt>
      <trkpt lat="44.47282" lon="2.46432">
        <ele>281.4</ele>
        <time>2011-06-04T12:31:06Z</time>
      </trkpt>
      <trkpt lat="44.47285" lon="2.46428">
        <ele>281.3</ele>
        <time>2011-06-04T12:31:07Z</time>
      </trkpt>
      <trkpt lat="44.47289" lon="2.46425">
        <ele>281.2</ele>
        <time>2011-06-04T12:31:08Z</time>
      </trkpt>
      <trkpt lat="44.47292" lon="2.46421">
        <ele>281</ele>
        <time>2011-06-04T12:31:09Z</time>
      </trkpt>
      <trkpt lat="44.47302" lon="2.46407">
        <ele>280.8</ele>
        <time>2011-06-04T12:31:12Z</time>
      </trkpt>
      <trkpt lat="44.47306" lon="2.46402">
        <ele>280.7</ele>
        <time>2011-06-04T12:31:13Z</time>
      </trkpt>
      <trkpt lat="44.47314" lon="2.46389">
        <ele>280.8</ele>
        <time>2011-06-04T12:31:16Z</time>
      </trkpt>
      <trkpt lat="44.47329" lon="2.46366">
        <ele>281.2</ele>
        <time>2011-06-04T12:31:21Z</time>
      </trkpt>
      <trkpt lat="44.47332" lon="2.46366">
        <ele>281.2</ele>
        <time>2011-06-04T12:31:22Z</time>
      </trkpt>
      <trkpt lat="44.47337" lon="2.46369">
        <ele>281.2</ele>
        <time>2011-06-04T12:31:24Z</time>
      </trkpt>
      <trkpt lat="44.47341" lon="2.46367">
        <ele>281.2</ele>
        <time>2011-06-04T12:31:26Z</time>
      </trkpt>
      <trkpt lat="44.47351" lon="2.46362">
        <ele>281.4</ele>
        <time>2011-06-04T12:31:31Z</time>
      </trkpt>
      <trkpt lat="44.47357" lon="2.4636">
        <ele>281.4</ele>
        <time>2011-06-04T12:31:34Z</time>
      </trkpt>
      <trkpt lat="44.47364" lon="2.4636">
        <ele>281.5</ele>
        <time>2011-06-04T12:31:37Z</time>
      </trkpt>
      <trkpt lat="44.47368" lon="2.46352">
        <ele>281.5</ele>
        <time>2011-06-04T12:31:41Z</time>
      </trkpt>
      <trkpt lat="44.4737" lon="2.46346">
        <ele>281.5</ele>
        <time>2011-06-04T12:31:43Z</time>
      </trkpt>
      <trkpt lat="44.47375" lon="2.46343">
        <ele>281.5</ele>
        <time>2011-06-04T12:31:48Z</time>
      </trkpt>
      <trkpt lat="44.47379" lon="2.46341">
        <ele>281.5</ele>
        <time>2011-06-04T12:31:51Z</time>
      </trkpt>
      <trkpt lat="44.47379" lon="2.4633">
        <ele>281.3</ele>
        <time>2011-06-04T12:31:53Z</time>
      </trkpt>
      <trkpt lat="44.47381" lon="2.46321">
        <ele>280.9</ele>
        <time>2011-06-04T12:31:55Z</time>
      </trkpt>
      <trkpt lat="44.47386" lon="2.46313">
        <ele>280.6</ele>
        <time>2011-06-04T12:32:01Z</time>
      </trkpt>
      <trkpt lat="44.47381" lon="2.46327">
        <ele>281.1</ele>
        <time>2011-06-04T12:32:06Z</time>
      </trkpt>
      <trkpt lat="44.47376" lon="2.46343">
        <ele>281.5</ele>
        <time>2011-06-04T12:32:09Z</time>
      </trkpt>
      <trkpt lat="44.47365" lon="2.46367">
        <ele>281.4</ele>
        <time>2011-06-04T12:32:14Z</time>
      </trkpt>
      <trkpt lat="44.47362" lon="2.46375">
        <ele>281.4</ele>
        <time>2011-06-04T12:32:17Z</time>
      </trkpt>
      <trkpt lat="44.47366" lon="2.46381">
        <ele>281.4</ele>
        <time>2011-06-04T12:32:19Z</time>
      </trkpt>
      <trkpt lat="44.47368" lon="2.46388">
        <ele>281.4</ele>
        <time>2011-06-04T12:32:21Z</time>
      </trkpt>
      <trkpt lat="44.47373" lon="2.46394">
        <ele>281.5</ele>
        <time>2011-06-04T12:32:24Z</time>
      </trkpt>
      <trkpt lat="44.47378" lon="2.46398">
        <ele>281.6</ele>
        <time>2011-06-04T12:32:25Z</time>
      </trkpt>
      <trkpt lat="44.47381" lon="2.46401">
        <ele>281.7</ele>
        <time>2011-06-04T12:32:26Z</time>
      </trkpt>
      <trkpt lat="44.47387" lon="2.46404">
        <ele>281.9</ele>
        <time>2011-06-04T12:32:29Z</time>
      </trkpt>
      <trkpt lat="44.47391" lon="2.46408">
        <ele>282</ele>
        <time>2011-06-04T12:32:31Z</time>
      </trkpt>
      <trkpt lat="44.47397" lon="2.46405">
        <ele>282.2</ele>
        <time>2011-06-04T12:32:36Z</time>
      </trkpt>
      <trkpt lat="44.47401" lon="2.46411">
        <ele>282.3</ele>
        <time>2011-06-04T12:32:39Z</time>
      </trkpt>
      <trkpt lat="44.47448" lon="2.46426">
        <ele>287.5</ele>
        <time>2011-06-04T12:32:47Z</time>
      </trkpt>
      <trkpt lat="44.47456" lon="2.4642">
        <ele>288.2</ele>
        <time>2011-06-04T12:32:52Z</time>
      </trkpt>
      <trkpt lat="44.47457" lon="2.46413">
        <ele>288.3</ele>
        <time>2011-06-04T12:32:54Z</time>
      </trkpt>
      <trkpt lat="44.47459" lon="2.46405">
        <ele>288.4</ele>
        <time>2011-06-04T12:32:56Z</time>
      </trkpt>
      <trkpt lat="44.47463" lon="2.46396">
        <ele>288.7</ele>
        <time>2011-06-04T12:32:59Z</time>
      </trkpt>
      <trkpt lat="44.47465" lon="2.46386">
        <ele>288.8</ele>
        <time>2011-06-04T12:33:02Z</time>
      </trkpt>
      <trkpt lat="44.47468" lon="2.46365">
        <ele>288.9</ele>
        <time>2011-06-04T12:33:08Z</time>
      </trkpt>
      <trkpt lat="44.47469" lon="2.46359">
        <ele>289</ele>
        <time>2011-06-04T12:33:12Z</time>
      </trkpt>
      <trkpt lat="44.47467" lon="2.46348">
        <ele>288.5</ele>
        <time>2011-06-04T12:33:23Z</time>
      </trkpt>
      <trkpt lat="44.47463" lon="2.46338">
        <ele>287.8</ele>
        <time>2011-06-04T12:33:38Z</time>
      </trkpt>
      <trkpt lat="44.4746" lon="2.46333">
        <ele>287.2</ele>
        <time>2011-06-04T12:33:48Z</time>
      </trkpt>
      <trkpt lat="44.47468" lon="2.46345">
        <ele>288.6</ele>
        <time>2011-06-04T12:36:37Z</time>
      </trkpt>
      <trkpt lat="44.47469" lon="2.46346">
        <ele>288.7</ele>
        <time>2011-06-04T12:36:38Z</time>
      </trkpt>
      <trkpt lat="44.47475" lon="2.46339">
        <ele>289.5</ele>
        <time>2011-06-04T12:37:10Z</time>
      </trkpt>
      <trkpt lat="44.47473" lon="2.46332">
        <ele>289.1</ele>
        <time>2011-06-04T12:40:13Z</time>
      </trkpt>
      <trkpt lat="44.47466" lon="2.46337">
        <ele>288.2</ele>
        <time>2011-06-04T12:41:11Z</time>
      </trkpt>
      <trkpt lat="44.47465" lon="2.46343">
        <ele>288.1</ele>
        <time>2011-06-04T12:41:46Z</time>
      </trkpt>
      <trkpt lat="44.47463" lon="2.4634">
        <ele>287.8</ele>
        <time>2011-06-04T12:43:35Z</time>
      </trkpt>
      <trkpt lat="44.47472" lon="2.46341">
        <ele>289</ele>
        <time>2011-06-04T12:44:12Z</time>
      </trkpt>
      <trkpt lat="44.47475" lon="2.46345">
        <ele>289.6</ele>
        <time>2011-06-04T12:44:38Z</time>
      </trkpt>
      <trkpt lat="44.47475" lon="2.46348">
        <ele>289.6</ele>
        <time>2011-06-04T12:46:12Z</time>
      </trkpt>
      <trkpt lat="44.47479" lon="2.46348">
        <ele>290.3</ele>
        <time>2011-06-04T12:50:12Z</time>
      </trkpt>
      <trkpt lat="44.47471" lon="2.46349">
        <ele>289.1</ele>
        <time>2011-06-04T12:52:35Z</time>
      </trkpt>
      <trkpt lat="44.47473" lon="2.46342">
        <ele>289.2</ele>
        <time>2011-06-04T12:53:42Z</time>
      </trkpt>
      <trkpt lat="44.47472" lon="2.46332">
        <ele>288.8</ele>
        <time>2011-06-04T12:54:02Z</time>
      </trkpt>
      <trkpt lat="44.47469" lon="2.46327">
        <ele>288.1</ele>
        <time>2011-06-04T12:54:15Z</time>
      </trkpt>
      <trkpt lat="44.47466" lon="2.46317">
        <ele>287</ele>
        <time>2011-06-04T12:54:23Z</time>
      </trkpt>
      <trkpt lat="44.47472" lon="2.46313">
        <ele>287.4</ele>
        <time>2011-06-04T12:54:28Z</time>
      </trkpt>
      <trkpt lat="44.47478" lon="2.46315">
        <ele>288.5</ele>
        <time>2011-06-04T12:54:31Z</time>
      </trkpt>
      <trkpt lat="44.47483" lon="2.46315">
        <ele>289.1</ele>
        <time>2011-06-04T12:54:33Z</time>
      </trkpt>
      <trkpt lat="44.4749" lon="2.4631">
        <ele>289.5</ele>
        <time>2011-06-04T12:54:37Z</time>
      </trkpt>
      <trkpt lat="44.47495" lon="2.46303">
        <ele>289.5</ele>
        <time>2011-06-04T12:54:41Z</time>
      </trkpt>
      <trkpt lat="44.47495" lon="2.46296">
        <ele>288.8</ele>
        <time>2011-06-04T12:54:44Z</time>
      </trkpt>
      <trkpt lat="44.47496" lon="2.46289">
        <ele>288.3</ele>
        <time>2011-06-04T12:54:47Z</time>
      </trkpt>
      <trkpt lat="44.475" lon="2.46283">
        <ele>288.2</ele>
        <time>2011-06-04T12:54:51Z</time>
      </trkpt>
      <trkpt lat="44.47511" lon="2.46276">
        <ele>289.5</ele>
        <time>2011-06-04T12:54:55Z</time>
      </trkpt>
      <trkpt lat="44.47516" lon="2.46271">
        <ele>289.7</ele>
        <time>2011-06-04T12:54:57Z</time>
      </trkpt>
      <trkpt lat="44.47518" lon="2.46267">
        <ele>289.8</ele>
        <time>2011-06-04T12:54:59Z</time>
      </trkpt>
      <trkpt lat="44.47523" lon="2.46264">
        <ele>290.2</ele>
        <time>2011-06-04T12:55:01Z</time>
      </trkpt>
      <trkpt lat="44.47527" lon="2.46263">
        <ele>290.6</ele>
        <time>2011-06-04T12:55:02Z</time>
      </trkpt>
      <trkpt lat="44.47535" lon="2.46257">
        <ele>291.3</ele>
        <time>2011-06-04T12:55:05Z</time>
      </trkpt>
      <trkpt lat="44.47542" lon="2.46252">
        <ele>291.7</ele>
        <time>2011-06-04T12:55:08Z</time>
      </trkpt>
      <trkpt lat="44.47547" lon="2.46249">
        <ele>292.2</ele>
        <time>2011-06-04T12:55:10Z</time>
      </trkpt>
      <trkpt lat="44.4755" lon="2.46247">
        <ele>292.4</ele>
        <time>2011-06-04T12:55:11Z</time>
      </trkpt>
      <trkpt lat="44.47566" lon="2.46242">
        <ele>294.3</ele>
        <time>2011-06-04T12:55:16Z</time>
      </trkpt>
      <trkpt lat="44.4757" lon="2.46241">
        <ele>294.7</ele>
        <time>2011-06-04T12:55:17Z</time>
      </trkpt>
      <trkpt lat="44.47575" lon="2.46238">
        <ele>295.1</ele>
        <time>2011-06-04T12:55:19Z</time>
      </trkpt>
      <trkpt lat="44.47593" lon="2.46232">
        <ele>297.1</ele>
        <time>2011-06-04T12:55:25Z</time>
      </trkpt>
      <trkpt lat="44.47601" lon="2.46228">
        <ele>298.1</ele>
        <time>2011-06-04T12:55:28Z</time>
      </trkpt>
      <trkpt lat="44.47603" lon="2.46226">
        <ele>298.3</ele>
        <time>2011-06-04T12:55:29Z</time>
      </trkpt>
      <trkpt lat="44.47607" lon="2.4622">
        <ele>298.3</ele>
        <time>2011-06-04T12:55:31Z</time>
      </trkpt>
      <trkpt lat="44.4762" lon="2.46207">
        <ele>298.9</ele>
        <time>2011-06-04T12:55:37Z</time>
      </trkpt>
      <trkpt lat="44.47628" lon="2.46193">
        <ele>298.8</ele>
        <time>2011-06-04T12:55:42Z</time>
      </trkpt>
      <trkpt lat="44.47642" lon="2.46174">
        <ele>299.4</ele>
        <time>2011-06-04T12:55:50Z</time>
      </trkpt>
      <trkpt lat="44.47648" lon="2.46166">
        <ele>299.7</ele>
        <time>2011-06-04T12:55:53Z</time>
      </trkpt>
      <trkpt lat="44.47662" lon="2.46146">
        <ele>300.8</ele>
        <time>2011-06-04T12:56:01Z</time>
      </trkpt>
      <trkpt lat="44.47665" lon="2.46142">
        <ele>301</ele>
        <time>2011-06-04T12:56:03Z</time>
      </trkpt>
      <trkpt lat="44.47671" lon="2.46134">
        <ele>301.4</ele>
        <time>2011-06-04T12:56:07Z</time>
      </trkpt>
      <trkpt lat="44.47677" lon="2.46127">
        <ele>302.3</ele>
        <time>2011-06-04T12:56:11Z</time>
      </trkpt>
      <trkpt lat="44.47689" lon="2.46113">
        <ele>303.7</ele>
        <time>2011-06-04T12:56:19Z</time>
      </trkpt>
      <trkpt lat="44.477" lon="2.46097">
        <ele>304.7</ele>
        <time>2011-06-04T12:56:27Z</time>
      </trkpt>
      <trkpt lat="44.47706" lon="2.46088">
        <ele>304.9</ele>
        <time>2011-06-04T12:56:31Z</time>
      </trkpt>
      <trkpt lat="44.47712" lon="2.4608">
        <ele>305.5</ele>
        <time>2011-06-04T12:56:35Z</time>
      </trkpt>
      <trkpt lat="44.47718" lon="2.46073">
        <ele>306.3</ele>
        <time>2011-06-04T12:56:39Z</time>
      </trkpt>
      <trkpt lat="44.47732" lon="2.46053">
        <ele>307.5</ele>
        <time>2011-06-04T12:56:49Z</time>
      </trkpt>
      <trkpt lat="44.47735" lon="2.46048">
        <ele>307.7</ele>
        <time>2011-06-04T12:56:51Z</time>
      </trkpt>
      <trkpt lat="44.47738" lon="2.46044">
        <ele>307.9</ele>
        <time>2011-06-04T12:56:53Z</time>
      </trkpt>
      <trkpt lat="44.47749" lon="2.46027">
        <ele>308.5</ele>
        <time>2011-06-04T12:57:00Z</time>
      </trkpt>
      <trkpt lat="44.47754" lon="2.46017">
        <ele>308.7</ele>
        <time>2011-06-04T12:57:04Z</time>
      </trkpt>
      <trkpt lat="44.47757" lon="2.46012">
        <ele>308.7</ele>
        <time>2011-06-04T12:57:06Z</time>
      </trkpt>
      <trkpt lat="44.47762" lon="2.46003">
        <ele>308.8</ele>
        <time>2011-06-04T12:57:10Z</time>
      </trkpt>
      <trkpt lat="44.47771" lon="2.45985">
        <ele>309.4</ele>
        <time>2011-06-04T12:57:17Z</time>
      </trkpt>
      <trkpt lat="44.47773" lon="2.4598">
        <ele>309.5</ele>
        <time>2011-06-04T12:57:19Z</time>
      </trkpt>
      <trkpt lat="44.47782" lon="2.45964">
        <ele>310.4</ele>
        <time>2011-06-04T12:57:25Z</time>
      </trkpt>
      <trkpt lat="44.47793" lon="2.4594">
        <ele>311.5</ele>
        <time>2011-06-04T12:57:34Z</time>
      </trkpt>
      <trkpt lat="44.478" lon="2.45927">
        <ele>312.3</ele>
        <time>2011-06-04T12:57:39Z</time>
      </trkpt>
      <trkpt lat="44.47807" lon="2.45915">
        <ele>313</ele>
        <time>2011-06-04T12:57:44Z</time>
      </trkpt>
      <trkpt lat="44.47816" lon="2.45902">
        <ele>313.1</ele>
        <time>2011-06-04T12:57:50Z</time>
      </trkpt>
      <trkpt lat="44.47832" lon="2.45882">
        <ele>313.3</ele>
        <time>2011-06-04T12:58:00Z</time>
      </trkpt>
      <trkpt lat="44.47838" lon="2.45874">
        <ele>312.7</ele>
        <time>2011-06-04T12:58:04Z</time>
      </trkpt>
      <trkpt lat="44.4785" lon="2.4586">
        <ele>311.3</ele>
        <time>2011-06-04T12:58:12Z</time>
      </trkpt>
      <trkpt lat="44.47852" lon="2.45857">
        <ele>310.9</ele>
        <time>2011-06-04T12:58:14Z</time>
      </trkpt>
      <trkpt lat="44.47865" lon="2.45844">
        <ele>310</ele>
        <time>2011-06-04T12:58:22Z</time>
      </trkpt>
      <trkpt lat="44.4789" lon="2.45826">
        <ele>309.3</ele>
        <time>2011-06-04T12:58:36Z</time>
      </trkpt>
      <trkpt lat="44.47898" lon="2.45822">
        <ele>309.5</ele>
        <time>2011-06-04T12:58:40Z</time>
      </trkpt>
      <trkpt lat="44.47902" lon="2.45821">
        <ele>309.7</ele>
        <time>2011-06-04T12:58:42Z</time>
      </trkpt>
      <trkpt lat="44.47911" lon="2.4582">
        <ele>310.3</ele>
        <time>2011-06-04T12:58:46Z</time>
      </trkpt>
      <trkpt lat="44.47924" lon="2.45821">
        <ele>311.8</ele>
        <time>2011-06-04T12:58:52Z</time>
      </trkpt>
      <trkpt lat="44.4794" lon="2.45826">
        <ele>314.9</ele>
        <time>2011-06-04T12:59:00Z</time>
      </trkpt>
      <trkpt lat="44.47953" lon="2.45829">
        <ele>317.3</ele>
        <time>2011-06-04T12:59:06Z</time>
      </trkpt>
      <trkpt lat="44.47982" lon="2.45831">
        <ele>321.9</ele>
        <time>2011-06-04T12:59:20Z</time>
      </trkpt>
      <trkpt lat="44.47997" lon="2.45829">
        <ele>324.2</ele>
        <time>2011-06-04T12:59:28Z</time>
      </trkpt>
      <trkpt lat="44.4802" lon="2.45818">
        <ele>327.4</ele>
        <time>2011-06-04T12:59:40Z</time>
      </trkpt>
      <trkpt lat="44.48031" lon="2.45811">
        <ele>328.7</ele>
        <time>2011-06-04T12:59:46Z</time>
      </trkpt>
      <trkpt lat="44.48044" lon="2.45797">
        <ele>330</ele>
        <time>2011-06-04T12:59:54Z</time>
      </trkpt>
      <trkpt lat="44.48046" lon="2.45793">
        <ele>330.1</ele>
        <time>2011-06-04T12:59:56Z</time>
      </trkpt>
      <trkpt lat="44.48061" lon="2.45773">
        <ele>331.5</ele>
        <time>2011-06-04T13:00:06Z</time>
      </trkpt>
      <trkpt lat="44.48064" lon="2.45769">
        <ele>331.6</ele>
        <time>2011-06-04T13:00:08Z</time>
      </trkpt>
      <trkpt lat="44.48076" lon="2.45753">
        <ele>332.7</ele>
        <time>2011-06-04T13:00:15Z</time>
      </trkpt>
      <trkpt lat="44.48085" lon="2.45733">
        <ele>333.2</ele>
        <time>2011-06-04T13:00:22Z</time>
      </trkpt>
      <trkpt lat="44.4809" lon="2.45718">
        <ele>332.8</ele>
        <time>2011-06-04T13:00:27Z</time>
      </trkpt>
      <trkpt lat="44.48093" lon="2.45705">
        <ele>332.1</ele>
        <time>2011-06-04T13:00:31Z</time>
      </trkpt>
      <trkpt lat="44.481" lon="2.45683">
        <ele>330.9</ele>
        <time>2011-06-04T13:00:38Z</time>
      </trkpt>
      <trkpt lat="44.48104" lon="2.45671">
        <ele>330.1</ele>
        <time>2011-06-04T13:00:42Z</time>
      </trkpt>
      <trkpt lat="44.48112" lon="2.45654">
        <ele>328.9</ele>
        <time>2011-06-04T13:00:48Z</time>
      </trkpt>
      <trkpt lat="44.48124" lon="2.45638">
        <ele>328</ele>
        <time>2011-06-04T13:00:55Z</time>
      </trkpt>
      <trkpt lat="44.48134" lon="2.45627">
        <ele>327.6</ele>
        <time>2011-06-04T13:01:01Z</time>
      </trkpt>
      <trkpt lat="44.48141" lon="2.45622">
        <ele>327.4</ele>
        <time>2011-06-04T13:01:04Z</time>
      </trkpt>
      <trkpt lat="44.48149" lon="2.45616">
        <ele>327.3</ele>
        <time>2011-06-04T13:01:08Z</time>
      </trkpt>
      <trkpt lat="44.48153" lon="2.45614">
        <ele>327.5</ele>
        <time>2011-06-04T13:01:10Z</time>
      </trkpt>
      <trkpt lat="44.48165" lon="2.45608">
        <ele>327.7</ele>
        <time>2011-06-04T13:01:16Z</time>
      </trkpt>
      <trkpt lat="44.48168" lon="2.45605">
        <ele>327.6</ele>
        <time>2011-06-04T13:01:18Z</time>
      </trkpt>
      <trkpt lat="44.48173" lon="2.45603">
        <ele>327.2</ele>
        <time>2011-06-04T13:01:20Z</time>
      </trkpt>
      <trkpt lat="44.48181" lon="2.45599">
        <ele>326.7</ele>
        <time>2011-06-04T13:01:24Z</time>
      </trkpt>
      <trkpt lat="44.48193" lon="2.45592">
        <ele>325.7</ele>
        <time>2011-06-04T13:01:30Z</time>
      </trkpt>
      <trkpt lat="44.482" lon="2.45587">
        <ele>325.2</ele>
        <time>2011-06-04T13:01:34Z</time>
      </trkpt>
      <trkpt lat="44.48208" lon="2.45584">
        <ele>324.5</ele>
        <time>2011-06-04T13:01:38Z</time>
      </trkpt>
      <trkpt lat="44.48215" lon="2.45581">
        <ele>324.1</ele>
        <time>2011-06-04T13:01:43Z</time>
      </trkpt>
      <trkpt lat="44.48222" lon="2.45583">
        <ele>324</ele>
        <time>2011-06-04T13:01:48Z</time>
      </trkpt>
      <trkpt lat="44.48224" lon="2.45587">
        <ele>324.2</ele>
        <time>2011-06-04T13:01:50Z</time>
      </trkpt>
      <trkpt lat="44.48224" lon="2.45594">
        <ele>325</ele>
        <time>2011-06-04T13:01:54Z</time>
      </trkpt>
      <trkpt lat="44.4822" lon="2.45599">
        <ele>325.6</ele>
        <time>2011-06-04T13:01:57Z</time>
      </trkpt>
      <trkpt lat="44.48215" lon="2.45605">
        <ele>326.2</ele>
        <time>2011-06-04T13:02:01Z</time>
      </trkpt>
      <trkpt lat="44.48212" lon="2.45607">
        <ele>326.5</ele>
        <time>2011-06-04T13:02:03Z</time>
      </trkpt>
      <trkpt lat="44.48197" lon="2.45628">
        <ele>328.7</ele>
        <time>2011-06-04T13:02:15Z</time>
      </trkpt>
      <trkpt lat="44.48195" lon="2.45632">
        <ele>329</ele>
        <time>2011-06-04T13:02:17Z</time>
      </trkpt>
      <trkpt lat="44.48183" lon="2.45648">
        <ele>330.5</ele>
        <time>2011-06-04T13:02:25Z</time>
      </trkpt>
      <trkpt lat="44.48169" lon="2.45668">
        <ele>332.2</ele>
        <time>2011-06-04T13:02:35Z</time>
      </trkpt>
      <trkpt lat="44.48166" lon="2.45673">
        <ele>333.1</ele>
        <time>2011-06-04T13:02:37Z</time>
      </trkpt>
      <trkpt lat="44.48164" lon="2.45678">
        <ele>333.7</ele>
        <time>2011-06-04T13:02:39Z</time>
      </trkpt>
      <trkpt lat="44.48162" lon="2.45687">
        <ele>335.2</ele>
        <time>2011-06-04T13:02:42Z</time>
      </trkpt>
      <trkpt lat="44.48161" lon="2.45693">
        <ele>336</ele>
        <time>2011-06-04T13:02:44Z</time>
      </trkpt>
      <trkpt lat="44.48161" lon="2.45699">
        <ele>337.2</ele>
        <time>2011-06-04T13:02:46Z</time>
      </trkpt>
      <trkpt lat="44.48163" lon="2.45716">
        <ele>340.3</ele>
        <time>2011-06-04T13:02:52Z</time>
      </trkpt>
      <trkpt lat="44.48171" lon="2.45743">
        <ele>345.6</ele>
        <time>2011-06-04T13:03:02Z</time>
      </trkpt>
      <trkpt lat="44.48176" lon="2.45758">
        <ele>348.5</ele>
        <time>2011-06-04T13:03:08Z</time>
      </trkpt>
      <trkpt lat="44.48183" lon="2.45786">
        <ele>353.7</ele>
        <time>2011-06-04T13:03:18Z</time>
      </trkpt>
      <trkpt lat="44.48184" lon="2.45797">
        <ele>355.9</ele>
        <time>2011-06-04T13:03:22Z</time>
      </trkpt>
      <trkpt lat="44.48185" lon="2.45808">
        <ele>357.8</ele>
        <time>2011-06-04T13:03:26Z</time>
      </trkpt>
      <trkpt lat="44.48185" lon="2.45814">
        <ele>359</ele>
        <time>2011-06-04T13:03:28Z</time>
      </trkpt>
      <trkpt lat="44.48183" lon="2.45825">
        <ele>360.9</ele>
        <time>2011-06-04T13:03:32Z</time>
      </trkpt>
      <trkpt lat="44.4818" lon="2.4583">
        <ele>361.8</ele>
        <time>2011-06-04T13:03:34Z</time>
      </trkpt>
      <trkpt lat="44.48176" lon="2.45838">
        <ele>363</ele>
        <time>2011-06-04T13:03:37Z</time>
      </trkpt>
      <trkpt lat="44.48154" lon="2.4586">
        <ele>363</ele>
        <time>2011-06-04T13:03:49Z</time>
      </trkpt>
      <trkpt lat="44.48148" lon="2.45867">
        <ele>362.5</ele>
        <time>2011-06-04T13:03:53Z</time>
      </trkpt>
      <trkpt lat="44.48144" lon="2.45873">
        <ele>362.8</ele>
        <time>2011-06-04T13:03:56Z</time>
      </trkpt>
      <trkpt lat="44.48141" lon="2.45881">
        <ele>363.3</ele>
        <time>2011-06-04T13:03:59Z</time>
      </trkpt>
      <trkpt lat="44.48131" lon="2.45911">
        <ele>365.8</ele>
        <time>2011-06-04T13:04:11Z</time>
      </trkpt>
      <trkpt lat="44.48128" lon="2.45916">
        <ele>366.1</ele>
        <time>2011-06-04T13:04:13Z</time>
      </trkpt>
      <trkpt lat="44.48126" lon="2.4592">
        <ele>366.4</ele>
        <time>2011-06-04T13:04:15Z</time>
      </trkpt>
      <trkpt lat="44.48117" lon="2.45934">
        <ele>368.1</ele>
        <time>2011-06-04T13:04:21Z</time>
      </trkpt>
      <trkpt lat="44.48102" lon="2.45953">
        <ele>369.4</ele>
        <time>2011-06-04T13:04:31Z</time>
      </trkpt>
      <trkpt lat="44.48086" lon="2.45969">
        <ele>369</ele>
        <time>2011-06-04T13:04:41Z</time>
      </trkpt>
      <trkpt lat="44.4807" lon="2.45982">
        <ele>368.4</ele>
        <time>2011-06-04T13:04:51Z</time>
      </trkpt>
      <trkpt lat="44.48066" lon="2.45984">
        <ele>367.9</ele>
        <time>2011-06-04T13:04:53Z</time>
      </trkpt>
      <trkpt lat="44.48059" lon="2.45989">
        <ele>367.5</ele>
        <time>2011-06-04T13:04:57Z</time>
      </trkpt>
      <trkpt lat="44.48051" lon="2.45993">
        <ele>366.9</ele>
        <time>2011-06-04T13:05:01Z</time>
      </trkpt>
      <trkpt lat="44.48048" lon="2.45995">
        <ele>366.7</ele>
        <time>2011-06-04T13:05:03Z</time>
      </trkpt>
      <trkpt lat="44.48032" lon="2.46004">
        <ele>365.3</ele>
        <time>2011-06-04T13:05:11Z</time>
      </trkpt>
      <trkpt lat="44.48029" lon="2.46007">
        <ele>365.7</ele>
        <time>2011-06-04T13:05:13Z</time>
      </trkpt>
      <trkpt lat="44.48015" lon="2.46027">
        <ele>369</ele>
        <time>2011-06-04T13:05:22Z</time>
      </trkpt>
      <trkpt lat="44.48009" lon="2.46035">
        <ele>370.2</ele>
        <time>2011-06-04T13:05:26Z</time>
      </trkpt>
      <trkpt lat="44.48" lon="2.46046">
        <ele>371.8</ele>
        <time>2011-06-04T13:05:32Z</time>
      </trkpt>
      <trkpt lat="44.47986" lon="2.46066">
        <ele>374.5</ele>
        <time>2011-06-04T13:05:42Z</time>
      </trkpt>
      <trkpt lat="44.47981" lon="2.46073">
        <ele>375.8</ele>
        <time>2011-06-04T13:05:45Z</time>
      </trkpt>
      <trkpt lat="44.47976" lon="2.46083">
        <ele>377.3</ele>
        <time>2011-06-04T13:05:49Z</time>
      </trkpt>
      <trkpt lat="44.47974" lon="2.46088">
        <ele>378.5</ele>
        <time>2011-06-04T13:05:51Z</time>
      </trkpt>
      <trkpt lat="44.47968" lon="2.46103">
        <ele>381.3</ele>
        <time>2011-06-04T13:05:57Z</time>
      </trkpt>
      <trkpt lat="44.47962" lon="2.46118">
        <ele>384.5</ele>
        <time>2011-06-04T13:06:03Z</time>
      </trkpt>
      <trkpt lat="44.4796" lon="2.46123">
        <ele>385.3</ele>
        <time>2011-06-04T13:06:05Z</time>
      </trkpt>
      <trkpt lat="44.47946" lon="2.46159">
        <ele>390.8</ele>
        <time>2011-06-04T13:06:19Z</time>
      </trkpt>
      <trkpt lat="44.47941" lon="2.46168">
        <ele>391.1</ele>
        <time>2011-06-04T13:06:23Z</time>
      </trkpt>
      <trkpt lat="44.47935" lon="2.46176">
        <ele>391</ele>
        <time>2011-06-04T13:06:27Z</time>
      </trkpt>
      <trkpt lat="44.47928" lon="2.4619">
        <ele>390.9</ele>
        <time>2011-06-04T13:06:33Z</time>
      </trkpt>
      <trkpt lat="44.47924" lon="2.462">
        <ele>391.6</ele>
        <time>2011-06-04T13:06:37Z</time>
      </trkpt>
      <trkpt lat="44.47921" lon="2.46211">
        <ele>392.9</ele>
        <time>2011-06-04T13:06:41Z</time>
      </trkpt>
      <trkpt lat="44.4792" lon="2.46222">
        <ele>394.9</ele>
        <time>2011-06-04T13:06:45Z</time>
      </trkpt>
      <trkpt lat="44.47919" lon="2.46244">
        <ele>399.5</ele>
        <time>2011-06-04T13:06:53Z</time>
      </trkpt>
      <trkpt lat="44.47919" lon="2.46254">
        <ele>401.4</ele>
        <time>2011-06-04T13:06:57Z</time>
      </trkpt>
      <trkpt lat="44.47921" lon="2.46268">
        <ele>403.1</ele>
        <time>2011-06-04T13:07:02Z</time>
      </trkpt>
      <trkpt lat="44.47924" lon="2.46286">
        <ele>406.3</ele>
        <time>2011-06-04T13:07:09Z</time>
      </trkpt>
      <trkpt lat="44.47927" lon="2.46296">
        <ele>408.7</ele>
        <time>2011-06-04T13:07:13Z</time>
      </trkpt>
      <trkpt lat="44.47928" lon="2.46306">
        <ele>410.2</ele>
        <time>2011-06-04T13:07:17Z</time>
      </trkpt>
      <trkpt lat="44.4793" lon="2.46342">
        <ele>412.5</ele>
        <time>2011-06-04T13:07:31Z</time>
      </trkpt>
      <trkpt lat="44.47932" lon="2.46352">
        <ele>412.1</ele>
        <time>2011-06-04T13:07:35Z</time>
      </trkpt>
      <trkpt lat="44.47933" lon="2.4637">
        <ele>411.2</ele>
        <time>2011-06-04T13:07:42Z</time>
      </trkpt>
      <trkpt lat="44.47936" lon="2.46381">
        <ele>411.5</ele>
        <time>2011-06-04T13:07:46Z</time>
      </trkpt>
      <trkpt lat="44.47944" lon="2.46402">
        <ele>413.2</ele>
        <time>2011-06-04T13:07:54Z</time>
      </trkpt>
      <trkpt lat="44.47946" lon="2.46407">
        <ele>414</ele>
        <time>2011-06-04T13:07:56Z</time>
      </trkpt>
      <trkpt lat="44.4796" lon="2.46428">
        <ele>418.1</ele>
        <time>2011-06-04T13:08:06Z</time>
      </trkpt>
      <trkpt lat="44.47971" lon="2.46446">
        <ele>420</ele>
        <time>2011-06-04T13:08:14Z</time>
      </trkpt>
      <trkpt lat="44.47976" lon="2.46455">
        <ele>420.4</ele>
        <time>2011-06-04T13:08:18Z</time>
      </trkpt>
      <trkpt lat="44.47979" lon="2.46464">
        <ele>420.1</ele>
        <time>2011-06-04T13:08:22Z</time>
      </trkpt>
      <trkpt lat="44.47988" lon="2.46481">
        <ele>420.7</ele>
        <time>2011-06-04T13:08:29Z</time>
      </trkpt>
      <trkpt lat="44.4799" lon="2.46485">
        <ele>421.2</ele>
        <time>2011-06-04T13:08:31Z</time>
      </trkpt>
      <trkpt lat="44.48004" lon="2.46508">
        <ele>423.9</ele>
        <time>2011-06-04T13:08:41Z</time>
      </trkpt>
      <trkpt lat="44.48007" lon="2.46513">
        <ele>424.8</ele>
        <time>2011-06-04T13:08:43Z</time>
      </trkpt>
      <trkpt lat="44.48011" lon="2.46525">
        <ele>426.5</ele>
        <time>2011-06-04T13:08:47Z</time>
      </trkpt>
      <trkpt lat="44.48014" lon="2.46535">
        <ele>427.5</ele>
        <time>2011-06-04T13:08:50Z</time>
      </trkpt>
      <trkpt lat="44.48015" lon="2.46544">
        <ele>427.9</ele>
        <time>2011-06-04T13:08:53Z</time>
      </trkpt>
      <trkpt lat="44.48015" lon="2.46565">
        <ele>427.3</ele>
        <time>2011-06-04T13:09:00Z</time>
      </trkpt>
      <trkpt lat="44.48014" lon="2.46574">
        <ele>426.2</ele>
        <time>2011-06-04T13:09:03Z</time>
      </trkpt>
      <trkpt lat="44.4801" lon="2.46582">
        <ele>424.1</ele>
        <time>2011-06-04T13:09:06Z</time>
      </trkpt>
      <trkpt lat="44.48007" lon="2.46587">
        <ele>423.1</ele>
        <time>2011-06-04T13:09:08Z</time>
      </trkpt>
      <trkpt lat="44.47994" lon="2.46604">
        <ele>420.8</ele>
        <time>2011-06-04T13:09:16Z</time>
      </trkpt>
      <trkpt lat="44.47991" lon="2.46608">
        <ele>420.6</ele>
        <time>2011-06-04T13:09:18Z</time>
      </trkpt>
      <trkpt lat="44.47986" lon="2.46614">
        <ele>419.7</ele>
        <time>2011-06-04T13:09:21Z</time>
      </trkpt>
      <trkpt lat="44.47971" lon="2.46627">
        <ele>416.7</ele>
        <time>2011-06-04T13:09:29Z</time>
      </trkpt>
      <trkpt lat="44.47961" lon="2.46636">
        <ele>415.3</ele>
        <time>2011-06-04T13:09:34Z</time>
      </trkpt>
      <trkpt lat="44.47944" lon="2.46652">
        <ele>413.2</ele>
        <time>2011-06-04T13:09:43Z</time>
      </trkpt>
      <trkpt lat="44.47926" lon="2.46663">
        <ele>410.2</ele>
        <time>2011-06-04T13:09:51Z</time>
      </trkpt>
      <trkpt lat="44.479" lon="2.46673">
        <ele>407.3</ele>
        <time>2011-06-04T13:10:01Z</time>
      </trkpt>
      <trkpt lat="44.47889" lon="2.46675">
        <ele>405.6</ele>
        <time>2011-06-04T13:10:05Z</time>
      </trkpt>
      <trkpt lat="44.47869" lon="2.46676">
        <ele>402</ele>
        <time>2011-06-04T13:10:12Z</time>
      </trkpt>
      <trkpt lat="44.47855" lon="2.46676">
        <ele>399</ele>
        <time>2011-06-04T13:10:17Z</time>
      </trkpt>
      <trkpt lat="44.47849" lon="2.46677">
        <ele>397.8</ele>
        <time>2011-06-04T13:10:19Z</time>
      </trkpt>
      <trkpt lat="44.47843" lon="2.46679">
        <ele>397.6</ele>
        <time>2011-06-04T13:10:21Z</time>
      </trkpt>
      <trkpt lat="44.4784" lon="2.46681">
        <ele>398</ele>
        <time>2011-06-04T13:10:22Z</time>
      </trkpt>
      <trkpt lat="44.4783" lon="2.46689">
        <ele>399.2</ele>
        <time>2011-06-04T13:10:25Z</time>
      </trkpt>
      <trkpt lat="44.47824" lon="2.46695">
        <ele>400.2</ele>
        <time>2011-06-04T13:10:27Z</time>
      </trkpt>
      <trkpt lat="44.47808" lon="2.46714">
        <ele>404.5</ele>
        <time>2011-06-04T13:10:33Z</time>
      </trkpt>
      <trkpt lat="44.47794" lon="2.46733">
        <ele>408.2</ele>
        <time>2011-06-04T13:10:39Z</time>
      </trkpt>
      <trkpt lat="44.47782" lon="2.46747">
        <ele>410.4</ele>
        <time>2011-06-04T13:10:44Z</time>
      </trkpt>
      <trkpt lat="44.47775" lon="2.46756">
        <ele>411.3</ele>
        <time>2011-06-04T13:10:47Z</time>
      </trkpt>
      <trkpt lat="44.47767" lon="2.4677">
        <ele>413</ele>
        <time>2011-06-04T13:10:51Z</time>
      </trkpt>
      <trkpt lat="44.47761" lon="2.46785">
        <ele>415.1</ele>
        <time>2011-06-04T13:10:55Z</time>
      </trkpt>
      <trkpt lat="44.47759" lon="2.46793">
        <ele>416.2</ele>
        <time>2011-06-04T13:10:57Z</time>
      </trkpt>
      <trkpt lat="44.47752" lon="2.46827">
        <ele>422</ele>
        <time>2011-06-04T13:11:05Z</time>
      </trkpt>
      <trkpt lat="44.4775" lon="2.4684">
        <ele>422.4</ele>
        <time>2011-06-04T13:11:08Z</time>
      </trkpt>
      <trkpt lat="44.47747" lon="2.46858">
        <ele>419.5</ele>
        <time>2011-06-04T13:11:12Z</time>
      </trkpt>
      <trkpt lat="44.47745" lon="2.4688">
        <ele>416.6</ele>
        <time>2011-06-04T13:11:17Z</time>
      </trkpt>
      <trkpt lat="44.47745" lon="2.46889">
        <ele>415.6</ele>
        <time>2011-06-04T13:11:19Z</time>
      </trkpt>
      <trkpt lat="44.47746" lon="2.46908">
        <ele>414.4</ele>
        <time>2011-06-04T13:11:23Z</time>
      </trkpt>
      <trkpt lat="44.47748" lon="2.46917">
        <ele>414.2</ele>
        <time>2011-06-04T13:11:25Z</time>
      </trkpt>
      <trkpt lat="44.47749" lon="2.46921">
        <ele>413.4</ele>
        <time>2011-06-04T13:11:26Z</time>
      </trkpt>
      <trkpt lat="44.47752" lon="2.46928">
        <ele>411.8</ele>
        <time>2011-06-04T13:11:28Z</time>
      </trkpt>
      <trkpt lat="44.47754" lon="2.46932">
        <ele>411.7</ele>
        <time>2011-06-04T13:11:29Z</time>
      </trkpt>
      <trkpt lat="44.47759" lon="2.46938">
        <ele>410.8</ele>
        <time>2011-06-04T13:11:31Z</time>
      </trkpt>
      <trkpt lat="44.47764" lon="2.46943">
        <ele>410.6</ele>
        <time>2011-06-04T13:11:33Z</time>
      </trkpt>
      <trkpt lat="44.47779" lon="2.46951">
        <ele>412.3</ele>
        <time>2011-06-04T13:11:38Z</time>
      </trkpt>
      <trkpt lat="44.47797" lon="2.46958">
        <ele>415.3</ele>
        <time>2011-06-04T13:11:44Z</time>
      </trkpt>
      <trkpt lat="44.47803" lon="2.46961">
        <ele>416.1</ele>
        <time>2011-06-04T13:11:46Z</time>
      </trkpt>
      <trkpt lat="44.47823" lon="2.46972">
        <ele>417</ele>
        <time>2011-06-04T13:11:53Z</time>
      </trkpt>
      <trkpt lat="44.47828" lon="2.46975">
        <ele>417.5</ele>
        <time>2011-06-04T13:11:55Z</time>
      </trkpt>
      <trkpt lat="44.4785" lon="2.46989">
        <ele>418.4</ele>
        <time>2011-06-04T13:12:03Z</time>
      </trkpt>
      <trkpt lat="44.47865" lon="2.46998">
        <ele>420</ele>
        <time>2011-06-04T13:12:09Z</time>
      </trkpt>
      <trkpt lat="44.47887" lon="2.47013">
        <ele>422</ele>
        <time>2011-06-04T13:12:18Z</time>
      </trkpt>
      <trkpt lat="44.47892" lon="2.47016">
        <ele>421.9</ele>
        <time>2011-06-04T13:12:20Z</time>
      </trkpt>
      <trkpt lat="44.47908" lon="2.47024">
        <ele>424.2</ele>
        <time>2011-06-04T13:12:27Z</time>
      </trkpt>
      <trkpt lat="44.47915" lon="2.47028">
        <ele>424.8</ele>
        <time>2011-06-04T13:12:30Z</time>
      </trkpt>
      <trkpt lat="44.47928" lon="2.47035">
        <ele>425.6</ele>
        <time>2011-06-04T13:12:35Z</time>
      </trkpt>
      <trkpt lat="44.4793" lon="2.47036">
        <ele>425.8</ele>
        <time>2011-06-04T13:12:36Z</time>
      </trkpt>
      <trkpt lat="44.47944" lon="2.47045">
        <ele>426.2</ele>
        <time>2011-06-04T13:12:42Z</time>
      </trkpt>
      <trkpt lat="44.4795" lon="2.47049">
        <ele>426.6</ele>
        <time>2011-06-04T13:12:45Z</time>
      </trkpt>
      <trkpt lat="44.47959" lon="2.47057">
        <ele>426.7</ele>
        <time>2011-06-04T13:12:50Z</time>
      </trkpt>
      <trkpt lat="44.47963" lon="2.47059">
        <ele>427.1</ele>
        <time>2011-06-04T13:12:52Z</time>
      </trkpt>
      <trkpt lat="44.4797" lon="2.47062">
        <ele>428.2</ele>
        <time>2011-06-04T13:12:55Z</time>
      </trkpt>
      <trkpt lat="44.47974" lon="2.47064">
        <ele>428.6</ele>
        <time>2011-06-04T13:12:57Z</time>
      </trkpt>
      <trkpt lat="44.47989" lon="2.47076">
        <ele>429.7</ele>
        <time>2011-06-04T13:13:05Z</time>
      </trkpt>
      <trkpt lat="44.48001" lon="2.47083">
        <ele>431.2</ele>
        <time>2011-06-04T13:13:11Z</time>
      </trkpt>
      <trkpt lat="44.48015" lon="2.47096">
        <ele>434.8</ele>
        <time>2011-06-04T13:13:19Z</time>
      </trkpt>
      <trkpt lat="44.48023" lon="2.47103">
        <ele>436.7</ele>
        <time>2011-06-04T13:13:23Z</time>
      </trkpt>
      <trkpt lat="44.48027" lon="2.47105">
        <ele>438</ele>
        <time>2011-06-04T13:13:25Z</time>
      </trkpt>
      <trkpt lat="44.48041" lon="2.47113">
        <ele>442.3</ele>
        <time>2011-06-04T13:13:32Z</time>
      </trkpt>
      <trkpt lat="44.48049" lon="2.47118">
        <ele>444.7</ele>
        <time>2011-06-04T13:13:36Z</time>
      </trkpt>
      <trkpt lat="44.48057" lon="2.47124">
        <ele>447.1</ele>
        <time>2011-06-04T13:13:40Z</time>
      </trkpt>
      <trkpt lat="44.4806" lon="2.47128">
        <ele>448.1</ele>
        <time>2011-06-04T13:13:42Z</time>
      </trkpt>
      <trkpt lat="44.48063" lon="2.47132">
        <ele>449</ele>
        <time>2011-06-04T13:13:44Z</time>
      </trkpt>
      <trkpt lat="44.48066" lon="2.47137">
        <ele>449.6</ele>
        <time>2011-06-04T13:13:46Z</time>
      </trkpt>
      <trkpt lat="44.48069" lon="2.47143">
        <ele>450.1</ele>
        <time>2011-06-04T13:13:48Z</time>
      </trkpt>
      <trkpt lat="44.4807" lon="2.47148">
        <ele>450.1</ele>
        <time>2011-06-04T13:13:50Z</time>
      </trkpt>
      <trkpt lat="44.4807" lon="2.4716">
        <ele>449.1</ele>
        <time>2011-06-04T13:13:54Z</time>
      </trkpt>
      <trkpt lat="44.48069" lon="2.47166">
        <ele>447.9</ele>
        <time>2011-06-04T13:13:56Z</time>
      </trkpt>
      <trkpt lat="44.48067" lon="2.47171">
        <ele>447.5</ele>
        <time>2011-06-04T13:13:58Z</time>
      </trkpt>
      <trkpt lat="44.48062" lon="2.4718">
        <ele>447</ele>
        <time>2011-06-04T13:14:02Z</time>
      </trkpt>
      <trkpt lat="44.48053" lon="2.47193">
        <ele>445</ele>
        <time>2011-06-04T13:14:08Z</time>
      </trkpt>
      <trkpt lat="44.48041" lon="2.47209">
        <ele>442.1</ele>
        <time>2011-06-04T13:14:16Z</time>
      </trkpt>
      <trkpt lat="44.48035" lon="2.47215">
        <ele>440.7</ele>
        <time>2011-06-04T13:14:20Z</time>
      </trkpt>
      <trkpt lat="44.4803" lon="2.47222">
        <ele>439.8</ele>
        <time>2011-06-04T13:14:24Z</time>
      </trkpt>
      <trkpt lat="44.48027" lon="2.47229">
        <ele>439.7</ele>
        <time>2011-06-04T13:14:28Z</time>
      </trkpt>
      <trkpt lat="44.48028" lon="2.4724">
        <ele>441.6</ele>
        <time>2011-06-04T13:14:32Z</time>
      </trkpt>
      <trkpt lat="44.48029" lon="2.47245">
        <ele>443</ele>
        <time>2011-06-04T13:14:34Z</time>
      </trkpt>
      <trkpt lat="44.48034" lon="2.47251">
        <ele>445.7</ele>
        <time>2011-06-04T13:14:38Z</time>
      </trkpt>
      <trkpt lat="44.48041" lon="2.47255">
        <ele>448.4</ele>
        <time>2011-06-04T13:14:43Z</time>
      </trkpt>
      <trkpt lat="44.48044" lon="2.47258">
        <ele>449.4</ele>
        <time>2011-06-04T13:14:45Z</time>
      </trkpt>
      <trkpt lat="44.48048" lon="2.47265">
        <ele>450.8</ele>
        <time>2011-06-04T13:14:49Z</time>
      </trkpt>
      <trkpt lat="44.48055" lon="2.4729">
        <ele>452.9</ele>
        <time>2011-06-04T13:15:01Z</time>
      </trkpt>
      <trkpt lat="44.48056" lon="2.47296">
        <ele>453.2</ele>
        <time>2011-06-04T13:15:05Z</time>
      </trkpt>
      <trkpt lat="44.48059" lon="2.47302">
        <ele>454.3</ele>
        <time>2011-06-04T13:15:17Z</time>
      </trkpt>
      <trkpt lat="44.48068" lon="2.47325">
        <ele>457.6</ele>
        <time>2011-06-04T13:15:41Z</time>
      </trkpt>
      <trkpt lat="44.48082" lon="2.47352">
        <ele>459.3</ele>
        <time>2011-06-04T13:16:07Z</time>
      </trkpt>
      <trkpt lat="44.4809" lon="2.47361">
        <ele>458.3</ele>
        <time>2011-06-04T13:16:18Z</time>
      </trkpt>
      <trkpt lat="44.48096" lon="2.47365">
        <ele>458.4</ele>
        <time>2011-06-04T13:16:25Z</time>
      </trkpt>
      <trkpt lat="44.48105" lon="2.47377">
        <ele>457.1</ele>
        <time>2011-06-04T13:16:38Z</time>
      </trkpt>
      <trkpt lat="44.48118" lon="2.47397">
        <ele>455.1</ele>
        <time>2011-06-04T13:16:58Z</time>
      </trkpt>
      <trkpt lat="44.48124" lon="2.47404">
        <ele>455.1</ele>
        <time>2011-06-04T13:17:06Z</time>
      </trkpt>
      <trkpt lat="44.48135" lon="2.47414">
        <ele>455.7</ele>
        <time>2011-06-04T13:17:19Z</time>
      </trkpt>
      <trkpt lat="44.48155" lon="2.47429">
        <ele>456.8</ele>
        <time>2011-06-04T13:17:44Z</time>
      </trkpt>
      <trkpt lat="44.48176" lon="2.47447">
        <ele>455.2</ele>
        <time>2011-06-04T13:18:07Z</time>
      </trkpt>
      <trkpt lat="44.48179" lon="2.4745">
        <ele>455</ele>
        <time>2011-06-04T13:18:12Z</time>
      </trkpt>
      <trkpt lat="44.48183" lon="2.47453">
        <ele>454.4</ele>
        <time>2011-06-04T13:18:17Z</time>
      </trkpt>
      <trkpt lat="44.4821" lon="2.47465">
        <ele>456.7</ele>
        <time>2011-06-04T13:18:58Z</time>
      </trkpt>
      <trkpt lat="44.48232" lon="2.47472">
        <ele>460.4</ele>
        <time>2011-06-04T13:19:14Z</time>
      </trkpt>
      <trkpt lat="44.4824" lon="2.47473">
        <ele>461.8</ele>
        <time>2011-06-04T13:19:19Z</time>
      </trkpt>
      <trkpt lat="44.48258" lon="2.4748">
        <ele>464.7</ele>
        <time>2011-06-04T13:19:32Z</time>
      </trkpt>
      <trkpt lat="44.48276" lon="2.47484">
        <ele>467.3</ele>
        <time>2011-06-04T13:19:44Z</time>
      </trkpt>
      <trkpt lat="44.48297" lon="2.4749">
        <ele>470.7</ele>
        <time>2011-06-04T13:19:58Z</time>
      </trkpt>
      <trkpt lat="44.4831" lon="2.47495">
        <ele>472.8</ele>
        <time>2011-06-04T13:20:07Z</time>
      </trkpt>
      <trkpt lat="44.48316" lon="2.47501">
        <ele>473.5</ele>
        <time>2011-06-04T13:20:13Z</time>
      </trkpt>
      <trkpt lat="44.48326" lon="2.47513">
        <ele>475.6</ele>
        <time>2011-06-04T13:20:29Z</time>
      </trkpt>
      <trkpt lat="44.48333" lon="2.47528">
        <ele>477.3</ele>
        <time>2011-06-04T13:20:48Z</time>
      </trkpt>
      <trkpt lat="44.48342" lon="2.47553">
        <ele>478.5</ele>
        <time>2011-06-04T13:21:15Z</time>
      </trkpt>
      <trkpt lat="44.48344" lon="2.47564">
        <ele>478.8</ele>
        <time>2011-06-04T13:21:27Z</time>
      </trkpt>
      <trkpt lat="44.48345" lon="2.47593">
        <ele>479.2</ele>
        <time>2011-06-04T13:22:05Z</time>
      </trkpt>
      <trkpt lat="44.48346" lon="2.476">
        <ele>479.4</ele>
        <time>2011-06-04T13:23:04Z</time>
      </trkpt>
      <trkpt lat="44.48351" lon="2.47606">
        <ele>480</ele>
        <time>2011-06-04T13:23:12Z</time>
      </trkpt>
      <trkpt lat="44.48355" lon="2.47608">
        <ele>480.4</ele>
        <time>2011-06-04T13:23:17Z</time>
      </trkpt>
      <trkpt lat="44.48359" lon="2.47611">
        <ele>480.7</ele>
        <time>2011-06-04T13:23:21Z</time>
      </trkpt>
      <trkpt lat="44.48366" lon="2.47614">
        <ele>481.3</ele>
        <time>2011-06-04T13:23:27Z</time>
      </trkpt>
      <trkpt lat="44.4837" lon="2.47617">
        <ele>481.7</ele>
        <time>2011-06-04T13:23:30Z</time>
      </trkpt>
      <trkpt lat="44.48374" lon="2.47617">
        <ele>482</ele>
        <time>2011-06-04T13:23:33Z</time>
      </trkpt>
      <trkpt lat="44.48378" lon="2.4762">
        <ele>482.4</ele>
        <time>2011-06-04T13:23:37Z</time>
      </trkpt>
      <trkpt lat="44.48394" lon="2.47621">
        <ele>483.6</ele>
        <time>2011-06-04T13:23:49Z</time>
      </trkpt>
      <trkpt lat="44.48412" lon="2.47619">
        <ele>485</ele>
        <time>2011-06-04T13:24:01Z</time>
      </trkpt>
      <trkpt lat="44.48418" lon="2.4762">
        <ele>485.2</ele>
        <time>2011-06-04T13:24:05Z</time>
      </trkpt>
      <trkpt lat="44.48445" lon="2.47621">
        <ele>480.9</ele>
        <time>2011-06-04T13:24:21Z</time>
      </trkpt>
      <trkpt lat="44.48452" lon="2.4762">
        <ele>479.9</ele>
        <time>2011-06-04T13:24:25Z</time>
      </trkpt>
      <trkpt lat="44.48466" lon="2.4762">
        <ele>477.6</ele>
        <time>2011-06-04T13:24:33Z</time>
      </trkpt>
      <trkpt lat="44.48472" lon="2.47621">
        <ele>476.8</ele>
        <time>2011-06-04T13:24:37Z</time>
      </trkpt>
      <trkpt lat="44.48476" lon="2.47623">
        <ele>476.3</ele>
        <time>2011-06-04T13:24:39Z</time>
      </trkpt>
      <trkpt lat="44.48489" lon="2.47625">
        <ele>474.6</ele>
        <time>2011-06-04T13:24:47Z</time>
      </trkpt>
      <trkpt lat="44.48505" lon="2.47625">
        <ele>470.7</ele>
        <time>2011-06-04T13:24:55Z</time>
      </trkpt>
      <trkpt lat="44.48508" lon="2.47625">
        <ele>468.8</ele>
        <time>2011-06-04T13:24:57Z</time>
      </trkpt>
      <trkpt lat="44.48515" lon="2.47624">
        <ele>465.9</ele>
        <time>2011-06-04T13:25:00Z</time>
      </trkpt>
      <trkpt lat="44.48523" lon="2.47624">
        <ele>461.9</ele>
        <time>2011-06-04T13:25:04Z</time>
      </trkpt>
      <trkpt lat="44.48529" lon="2.47625">
        <ele>458.9</ele>
        <time>2011-06-04T13:25:07Z</time>
      </trkpt>
      <trkpt lat="44.48532" lon="2.4763">
        <ele>458.2</ele>
        <time>2011-06-04T13:25:11Z</time>
      </trkpt>
      <trkpt lat="44.48529" lon="2.47638">
        <ele>461.4</ele>
        <time>2011-06-04T13:25:15Z</time>
      </trkpt>
      <trkpt lat="44.48527" lon="2.47644">
        <ele>462.9</ele>
        <time>2011-06-04T13:25:18Z</time>
      </trkpt>
      <trkpt lat="44.48531" lon="2.47641">
        <ele>460.5</ele>
        <time>2011-06-04T13:27:24Z</time>
      </trkpt>
      <trkpt lat="44.48532" lon="2.47644">
        <ele>460.6</ele>
        <time>2011-06-04T13:36:07Z</time>
      </trkpt>
      <trkpt lat="44.48531" lon="2.47636">
        <ele>459.7</ele>
        <time>2011-06-04T13:37:31Z</time>
      </trkpt>
      <trkpt lat="44.48532" lon="2.47628">
        <ele>458.1</ele>
        <time>2011-06-04T13:37:36Z</time>
      </trkpt>
      <trkpt lat="44.48538" lon="2.47626">
        <ele>454.9</ele>
        <time>2011-06-04T13:37:44Z</time>
      </trkpt>
      <trkpt lat="44.48542" lon="2.47634">
        <ele>454.3</ele>
        <time>2011-06-04T13:37:48Z</time>
      </trkpt>
      <trkpt lat="44.48545" lon="2.47645">
        <ele>454.5</ele>
        <time>2011-06-04T13:37:52Z</time>
      </trkpt>
      <trkpt lat="44.48557" lon="2.47667">
        <ele>452.5</ele>
        <time>2011-06-04T13:38:01Z</time>
      </trkpt>
      <trkpt lat="44.48563" lon="2.47682">
        <ele>451.5</ele>
        <time>2011-06-04T13:38:07Z</time>
      </trkpt>
      <trkpt lat="44.48568" lon="2.47693">
        <ele>450.7</ele>
        <time>2011-06-04T13:38:11Z</time>
      </trkpt>
      <trkpt lat="44.48574" lon="2.4771">
        <ele>450.6</ele>
        <time>2011-06-04T13:38:17Z</time>
      </trkpt>
      <trkpt lat="44.48579" lon="2.47723">
        <ele>450.1</ele>
        <time>2011-06-04T13:38:21Z</time>
      </trkpt>
      <trkpt lat="44.4858" lon="2.4773">
        <ele>450.3</ele>
        <time>2011-06-04T13:38:23Z</time>
      </trkpt>
      <trkpt lat="44.48587" lon="2.47749">
        <ele>450.3</ele>
        <time>2011-06-04T13:38:29Z</time>
      </trkpt>
      <trkpt lat="44.48588" lon="2.47755">
        <ele>450.5</ele>
        <time>2011-06-04T13:38:31Z</time>
      </trkpt>
      <trkpt lat="44.48592" lon="2.47777">
        <ele>452.3</ele>
        <time>2011-06-04T13:38:38Z</time>
      </trkpt>
      <trkpt lat="44.48595" lon="2.47796">
        <ele>453.5</ele>
        <time>2011-06-04T13:38:44Z</time>
      </trkpt>
      <trkpt lat="44.48596" lon="2.47802">
        <ele>454.2</ele>
        <time>2011-06-04T13:38:46Z</time>
      </trkpt>
      <trkpt lat="44.48597" lon="2.47809">
        <ele>454.4</ele>
        <time>2011-06-04T13:38:48Z</time>
      </trkpt>
      <trkpt lat="44.48601" lon="2.47819">
        <ele>454.2</ele>
        <time>2011-06-04T13:38:51Z</time>
      </trkpt>
      <trkpt lat="44.48603" lon="2.47826">
        <ele>454.4</ele>
        <time>2011-06-04T13:38:53Z</time>
      </trkpt>
      <trkpt lat="44.48612" lon="2.47851">
        <ele>454.3</ele>
        <time>2011-06-04T13:38:59Z</time>
      </trkpt>
      <trkpt lat="44.48624" lon="2.4788">
        <ele>454.9</ele>
        <time>2011-06-04T13:39:06Z</time>
      </trkpt>
      <trkpt lat="44.48631" lon="2.47895">
        <ele>454.9</ele>
        <time>2011-06-04T13:39:10Z</time>
      </trkpt>
      <trkpt lat="44.48641" lon="2.4792">
        <ele>456.2</ele>
        <time>2011-06-04T13:39:16Z</time>
      </trkpt>
      <trkpt lat="44.4865" lon="2.47939">
        <ele>458.1</ele>
        <time>2011-06-04T13:39:21Z</time>
      </trkpt>
      <trkpt lat="44.48661" lon="2.4796">
        <ele>461.8</ele>
        <time>2011-06-04T13:39:27Z</time>
      </trkpt>
      <trkpt lat="44.48671" lon="2.4798">
        <ele>466</ele>
        <time>2011-06-04T13:39:33Z</time>
      </trkpt>
      <trkpt lat="44.48678" lon="2.47993">
        <ele>468.6</ele>
        <time>2011-06-04T13:39:37Z</time>
      </trkpt>
      <trkpt lat="44.4868" lon="2.48">
        <ele>470</ele>
        <time>2011-06-04T13:39:39Z</time>
      </trkpt>
      <trkpt lat="44.48689" lon="2.48018">
        <ele>470.8</ele>
        <time>2011-06-04T13:39:45Z</time>
      </trkpt>
      <trkpt lat="44.48699" lon="2.48037">
        <ele>471.1</ele>
        <time>2011-06-04T13:39:51Z</time>
      </trkpt>
      <trkpt lat="44.48702" lon="2.48044">
        <ele>471.2</ele>
        <time>2011-06-04T13:39:53Z</time>
      </trkpt>
      <trkpt lat="44.48704" lon="2.48047">
        <ele>471.1</ele>
        <time>2011-06-04T13:39:54Z</time>
      </trkpt>
      <trkpt lat="44.48713" lon="2.48057">
        <ele>470.3</ele>
        <time>2011-06-04T13:39:58Z</time>
      </trkpt>
      <trkpt lat="44.48727" lon="2.48073">
        <ele>469.4</ele>
        <time>2011-06-04T13:40:04Z</time>
      </trkpt>
      <trkpt lat="44.48741" lon="2.48092">
        <ele>469</ele>
        <time>2011-06-04T13:40:10Z</time>
      </trkpt>
      <trkpt lat="44.48749" lon="2.48106">
        <ele>469.6</ele>
        <time>2011-06-04T13:40:14Z</time>
      </trkpt>
      <trkpt lat="44.48755" lon="2.48121">
        <ele>469.7</ele>
        <time>2011-06-04T13:40:18Z</time>
      </trkpt>
      <trkpt lat="44.48763" lon="2.48145">
        <ele>471.3</ele>
        <time>2011-06-04T13:40:24Z</time>
      </trkpt>
      <trkpt lat="44.48764" lon="2.48149">
        <ele>471.6</ele>
        <time>2011-06-04T13:40:25Z</time>
      </trkpt>
      <trkpt lat="44.4877" lon="2.48164">
        <ele>472.4</ele>
        <time>2011-06-04T13:40:29Z</time>
      </trkpt>
      <trkpt lat="44.48773" lon="2.48172">
        <ele>472.3</ele>
        <time>2011-06-04T13:40:31Z</time>
      </trkpt>
      <trkpt lat="44.48777" lon="2.48179">
        <ele>471.9</ele>
        <time>2011-06-04T13:40:33Z</time>
      </trkpt>
      <trkpt lat="44.48785" lon="2.48191">
        <ele>471.3</ele>
        <time>2011-06-04T13:40:37Z</time>
      </trkpt>
      <trkpt lat="44.48797" lon="2.4821">
        <ele>471.7</ele>
        <time>2011-06-04T13:40:43Z</time>
      </trkpt>
      <trkpt lat="44.48799" lon="2.48214">
        <ele>472</ele>
        <time>2011-06-04T13:40:44Z</time>
      </trkpt>
      <trkpt lat="44.48813" lon="2.48238">
        <ele>474.7</ele>
        <time>2011-06-04T13:40:51Z</time>
      </trkpt>
      <trkpt lat="44.48817" lon="2.48245">
        <ele>475.7</ele>
        <time>2011-06-04T13:40:53Z</time>
      </trkpt>
      <trkpt lat="44.48834" lon="2.48267">
        <ele>478.7</ele>
        <time>2011-06-04T13:41:01Z</time>
      </trkpt>
      <trkpt lat="44.48851" lon="2.48283">
        <ele>483.3</ele>
        <time>2011-06-04T13:41:09Z</time>
      </trkpt>
      <trkpt lat="44.48868" lon="2.48299">
        <ele>488.3</ele>
        <time>2011-06-04T13:41:17Z</time>
      </trkpt>
      <trkpt lat="44.48873" lon="2.48303">
        <ele>489.7</ele>
        <time>2011-06-04T13:41:20Z</time>
      </trkpt>
      <trkpt lat="44.4888" lon="2.48309">
        <ele>492</ele>
        <time>2011-06-04T13:41:25Z</time>
      </trkpt>
      <trkpt lat="44.48884" lon="2.48312">
        <ele>493</ele>
        <time>2011-06-04T13:41:27Z</time>
      </trkpt>
      <trkpt lat="44.48898" lon="2.48324">
        <ele>497.4</ele>
        <time>2011-06-04T13:41:34Z</time>
      </trkpt>
      <trkpt lat="44.48908" lon="2.48331">
        <ele>500.6</ele>
        <time>2011-06-04T13:41:39Z</time>
      </trkpt>
      <trkpt lat="44.48922" lon="2.4834">
        <ele>502.8</ele>
        <time>2011-06-04T13:41:45Z</time>
      </trkpt>
      <trkpt lat="44.48927" lon="2.48343">
        <ele>503.5</ele>
        <time>2011-06-04T13:41:47Z</time>
      </trkpt>
      <trkpt lat="44.48941" lon="2.4835">
        <ele>505.1</ele>
        <time>2011-06-04T13:41:53Z</time>
      </trkpt>
      <trkpt lat="44.48946" lon="2.48351">
        <ele>505.6</ele>
        <time>2011-06-04T13:41:55Z</time>
      </trkpt>
      <trkpt lat="44.4896" lon="2.48357">
        <ele>507.2</ele>
        <time>2011-06-04T13:42:01Z</time>
      </trkpt>
      <trkpt lat="44.48979" lon="2.48363">
        <ele>509</ele>
        <time>2011-06-04T13:42:09Z</time>
      </trkpt>
      <trkpt lat="44.48996" lon="2.48366">
        <ele>510.6</ele>
        <time>2011-06-04T13:42:16Z</time>
      </trkpt>
      <trkpt lat="44.49003" lon="2.48365">
        <ele>511.2</ele>
        <time>2011-06-04T13:42:19Z</time>
      </trkpt>
      <trkpt lat="44.49017" lon="2.48363">
        <ele>512.2</ele>
        <time>2011-06-04T13:42:25Z</time>
      </trkpt>
      <trkpt lat="44.49029" lon="2.48359">
        <ele>512.8</ele>
        <time>2011-06-04T13:42:30Z</time>
      </trkpt>
      <trkpt lat="44.4904" lon="2.48357">
        <ele>513.7</ele>
        <time>2011-06-04T13:42:35Z</time>
      </trkpt>
      <trkpt lat="44.49047" lon="2.48354">
        <ele>514.2</ele>
        <time>2011-06-04T13:42:38Z</time>
      </trkpt>
      <trkpt lat="44.49053" lon="2.4835">
        <ele>514.6</ele>
        <time>2011-06-04T13:42:41Z</time>
      </trkpt>
      <trkpt lat="44.49075" lon="2.48343">
        <ele>516.4</ele>
        <time>2011-06-04T13:42:51Z</time>
      </trkpt>
      <trkpt lat="44.49082" lon="2.48342">
        <ele>516.9</ele>
        <time>2011-06-04T13:42:54Z</time>
      </trkpt>
      <trkpt lat="44.49088" lon="2.48339">
        <ele>517.5</ele>
        <time>2011-06-04T13:42:57Z</time>
      </trkpt>
      <trkpt lat="44.49092" lon="2.48336">
        <ele>517.8</ele>
        <time>2011-06-04T13:42:59Z</time>
      </trkpt>
      <trkpt lat="44.49096" lon="2.48334">
        <ele>518.1</ele>
        <time>2011-06-04T13:43:01Z</time>
      </trkpt>
      <trkpt lat="44.49104" lon="2.48336">
        <ele>518.7</ele>
        <time>2011-06-04T13:43:05Z</time>
      </trkpt>
      <trkpt lat="44.49111" lon="2.48341">
        <ele>519.3</ele>
        <time>2011-06-04T13:43:09Z</time>
      </trkpt>
      <trkpt lat="44.49115" lon="2.48349">
        <ele>519.6</ele>
        <time>2011-06-04T13:43:13Z</time>
      </trkpt>
      <trkpt lat="44.49126" lon="2.48377">
        <ele>520</ele>
        <time>2011-06-04T13:43:25Z</time>
      </trkpt>
      <trkpt lat="44.4913" lon="2.48387">
        <ele>520.1</ele>
        <time>2011-06-04T13:43:29Z</time>
      </trkpt>
      <trkpt lat="44.49139" lon="2.48401">
        <ele>520.3</ele>
        <time>2011-06-04T13:43:35Z</time>
      </trkpt>
      <trkpt lat="44.49147" lon="2.48416">
        <ele>520.3</ele>
        <time>2011-06-04T13:43:41Z</time>
      </trkpt>
      <trkpt lat="44.49156" lon="2.48434">
        <ele>519.5</ele>
        <time>2011-06-04T13:43:47Z</time>
      </trkpt>
      <trkpt lat="44.49167" lon="2.48452">
        <ele>518.5</ele>
        <time>2011-06-04T13:43:52Z</time>
      </trkpt>
      <trkpt lat="44.49172" lon="2.48458">
        <ele>517.8</ele>
        <time>2011-06-04T13:43:54Z</time>
      </trkpt>
      <trkpt lat="44.49177" lon="2.48463">
        <ele>517.1</ele>
        <time>2011-06-04T13:43:56Z</time>
      </trkpt>
      <trkpt lat="44.49182" lon="2.48469">
        <ele>516.3</ele>
        <time>2011-06-04T13:43:59Z</time>
      </trkpt>
      <trkpt lat="44.49194" lon="2.48486">
        <ele>514.2</ele>
        <time>2011-06-04T13:44:05Z</time>
      </trkpt>
      <trkpt lat="44.49204" lon="2.48493">
        <ele>513</ele>
        <time>2011-06-04T13:44:08Z</time>
      </trkpt>
      <trkpt lat="44.49209" lon="2.485">
        <ele>512</ele>
        <time>2011-06-04T13:44:10Z</time>
      </trkpt>
      <trkpt lat="44.49211" lon="2.48507">
        <ele>510.5</ele>
        <time>2011-06-04T13:44:12Z</time>
      </trkpt>
      <trkpt lat="44.49201" lon="2.48527">
        <ele>507.4</ele>
        <time>2011-06-04T13:44:17Z</time>
      </trkpt>
      <trkpt lat="44.49194" lon="2.48541">
        <ele>505.3</ele>
        <time>2011-06-04T13:44:20Z</time>
      </trkpt>
      <trkpt lat="44.49191" lon="2.48546">
        <ele>504.7</ele>
        <time>2011-06-04T13:44:21Z</time>
      </trkpt>
      <trkpt lat="44.49182" lon="2.48555">
        <ele>503.9</ele>
        <time>2011-06-04T13:44:23Z</time>
      </trkpt>
      <trkpt lat="44.49178" lon="2.48559">
        <ele>503.7</ele>
        <time>2011-06-04T13:44:24Z</time>
      </trkpt>
      <trkpt lat="44.49171" lon="2.48558">
        <ele>504.9</ele>
        <time>2011-06-04T13:44:26Z</time>
      </trkpt>
      <trkpt lat="44.49164" lon="2.48553">
        <ele>506.4</ele>
        <time>2011-06-04T13:44:28Z</time>
      </trkpt>
      <trkpt lat="44.49157" lon="2.48553">
        <ele>506.8</ele>
        <time>2011-06-04T13:44:30Z</time>
      </trkpt>
      <trkpt lat="44.49153" lon="2.48556">
        <ele>506.5</ele>
        <time>2011-06-04T13:44:31Z</time>
      </trkpt>
      <trkpt lat="44.4915" lon="2.48561">
        <ele>505.9</ele>
        <time>2011-06-04T13:44:32Z</time>
      </trkpt>
      <trkpt lat="44.49139" lon="2.48579">
        <ele>504.1</ele>
        <time>2011-06-04T13:44:35Z</time>
      </trkpt>
      <trkpt lat="44.4914" lon="2.48589">
        <ele>501.9</ele>
        <time>2011-06-04T13:44:37Z</time>
      </trkpt>
      <trkpt lat="44.49144" lon="2.48598">
        <ele>499</ele>
        <time>2011-06-04T13:44:39Z</time>
      </trkpt>
      <trkpt lat="44.49156" lon="2.48627">
        <ele>489.9</ele>
        <time>2011-06-04T13:44:44Z</time>
      </trkpt>
      <trkpt lat="44.4916" lon="2.48632">
        <ele>488</ele>
        <time>2011-06-04T13:44:45Z</time>
      </trkpt>
      <trkpt lat="44.49164" lon="2.48636">
        <ele>486.3</ele>
        <time>2011-06-04T13:44:46Z</time>
      </trkpt>
      <trkpt lat="44.4917" lon="2.48638">
        <ele>484.9</ele>
        <time>2011-06-04T13:44:47Z</time>
      </trkpt>
      <trkpt lat="44.49176" lon="2.48639">
        <ele>483.7</ele>
        <time>2011-06-04T13:44:48Z</time>
      </trkpt>
      <trkpt lat="44.49182" lon="2.48639">
        <ele>482.8</ele>
        <time>2011-06-04T13:44:49Z</time>
      </trkpt>
      <trkpt lat="44.49188" lon="2.48638">
        <ele>482.3</ele>
        <time>2011-06-04T13:44:50Z</time>
      </trkpt>
      <trkpt lat="44.49194" lon="2.48638">
        <ele>481.5</ele>
        <time>2011-06-04T13:44:51Z</time>
      </trkpt>
      <trkpt lat="44.49209" lon="2.4864">
        <ele>479.2</ele>
        <time>2011-06-04T13:44:53Z</time>
      </trkpt>
      <trkpt lat="44.49215" lon="2.48639">
        <ele>478.7</ele>
        <time>2011-06-04T13:44:54Z</time>
      </trkpt>
      <trkpt lat="44.4922" lon="2.48637">
        <ele>478.3</ele>
        <time>2011-06-04T13:44:55Z</time>
      </trkpt>
      <trkpt lat="44.49231" lon="2.48628">
        <ele>479.4</ele>
        <time>2011-06-04T13:44:57Z</time>
      </trkpt>
      <trkpt lat="44.49252" lon="2.48614">
        <ele>480.7</ele>
        <time>2011-06-04T13:45:00Z</time>
      </trkpt>
      <trkpt lat="44.49277" lon="2.48604">
        <ele>483.7</ele>
        <time>2011-06-04T13:45:03Z</time>
      </trkpt>
      <trkpt lat="44.493" lon="2.48599">
        <ele>484.9</ele>
        <time>2011-06-04T13:45:06Z</time>
      </trkpt>
      <trkpt lat="44.49325" lon="2.48588">
        <ele>488.7</ele>
        <time>2011-06-04T13:45:10Z</time>
      </trkpt>
      <trkpt lat="44.49332" lon="2.48586">
        <ele>489.2</ele>
        <time>2011-06-04T13:45:11Z</time>
      </trkpt>
      <trkpt lat="44.49348" lon="2.48585">
        <ele>487.7</ele>
        <time>2011-06-04T13:45:13Z</time>
      </trkpt>
      <trkpt lat="44.49365" lon="2.48588">
        <ele>484.5</ele>
        <time>2011-06-04T13:45:15Z</time>
      </trkpt>
      <trkpt lat="44.49374" lon="2.48591">
        <ele>482.6</ele>
        <time>2011-06-04T13:45:16Z</time>
      </trkpt>
      <trkpt lat="44.49383" lon="2.48595">
        <ele>480.2</ele>
        <time>2011-06-04T13:45:17Z</time>
      </trkpt>
      <trkpt lat="44.49391" lon="2.486">
        <ele>477.2</ele>
        <time>2011-06-04T13:45:18Z</time>
      </trkpt>
      <trkpt lat="44.49426" lon="2.48631">
        <ele>461.9</ele>
        <time>2011-06-04T13:45:23Z</time>
      </trkpt>
      <trkpt lat="44.49434" lon="2.48636">
        <ele>459.1</ele>
        <time>2011-06-04T13:45:24Z</time>
      </trkpt>
      <trkpt lat="44.4945" lon="2.48641">
        <ele>454</ele>
        <time>2011-06-04T13:45:26Z</time>
      </trkpt>
      <trkpt lat="44.49458" lon="2.48641">
        <ele>452.2</ele>
        <time>2011-06-04T13:45:27Z</time>
      </trkpt>
      <trkpt lat="44.49466" lon="2.48639">
        <ele>451.3</ele>
        <time>2011-06-04T13:45:28Z</time>
      </trkpt>
      <trkpt lat="44.49473" lon="2.48634">
        <ele>451.2</ele>
        <time>2011-06-04T13:45:29Z</time>
      </trkpt>
      <trkpt lat="44.49486" lon="2.48621">
        <ele>452.1</ele>
        <time>2011-06-04T13:45:31Z</time>
      </trkpt>
      <trkpt lat="44.49497" lon="2.48608">
        <ele>453.1</ele>
        <time>2011-06-04T13:45:33Z</time>
      </trkpt>
      <trkpt lat="44.49509" lon="2.48597">
        <ele>454.5</ele>
        <time>2011-06-04T13:45:35Z</time>
      </trkpt>
      <trkpt lat="44.49545" lon="2.48572">
        <ele>456.5</ele>
        <time>2011-06-04T13:45:40Z</time>
      </trkpt>
      <trkpt lat="44.49563" lon="2.48556">
        <ele>458.3</ele>
        <time>2011-06-04T13:45:43Z</time>
      </trkpt>
      <trkpt lat="44.4958" lon="2.48536">
        <ele>461</ele>
        <time>2011-06-04T13:45:48Z</time>
      </trkpt>
      <trkpt lat="44.49599" lon="2.48518">
        <ele>467</ele>
        <time>2011-06-04T13:45:56Z</time>
      </trkpt>
      <trkpt lat="44.49604" lon="2.48514">
        <ele>468.5</ele>
        <time>2011-06-04T13:45:58Z</time>
      </trkpt>
      <trkpt lat="44.49619" lon="2.48502">
        <ele>472.6</ele>
        <time>2011-06-04T13:46:04Z</time>
      </trkpt>
      <trkpt lat="44.49634" lon="2.48496">
        <ele>476.3</ele>
        <time>2011-06-04T13:46:09Z</time>
      </trkpt>
      <trkpt lat="44.49642" lon="2.48492">
        <ele>478.5</ele>
        <time>2011-06-04T13:46:12Z</time>
      </trkpt>
      <trkpt lat="44.49658" lon="2.48488">
        <ele>481.3</ele>
        <time>2011-06-04T13:46:18Z</time>
      </trkpt>
      <trkpt lat="44.49672" lon="2.48485">
        <ele>484.3</ele>
        <time>2011-06-04T13:46:23Z</time>
      </trkpt>
      <trkpt lat="44.49696" lon="2.48477">
        <ele>492.8</ele>
        <time>2011-06-04T13:46:32Z</time>
      </trkpt>
      <trkpt lat="44.49709" lon="2.48474">
        <ele>496.7</ele>
        <time>2011-06-04T13:46:37Z</time>
      </trkpt>
      <trkpt lat="44.49714" lon="2.48474">
        <ele>498</ele>
        <time>2011-06-04T13:46:39Z</time>
      </trkpt>
      <trkpt lat="44.49735" lon="2.48476">
        <ele>503</ele>
        <time>2011-06-04T13:46:48Z</time>
      </trkpt>
      <trkpt lat="44.49739" lon="2.48476">
        <ele>503.9</ele>
        <time>2011-06-04T13:46:50Z</time>
      </trkpt>
      <trkpt lat="44.49752" lon="2.48479">
        <ele>506.3</ele>
        <time>2011-06-04T13:46:56Z</time>
      </trkpt>
      <trkpt lat="44.49758" lon="2.48482">
        <ele>507.3</ele>
        <time>2011-06-04T13:46:59Z</time>
      </trkpt>
      <trkpt lat="44.49769" lon="2.48489">
        <ele>508.5</ele>
        <time>2011-06-04T13:47:03Z</time>
      </trkpt>
      <trkpt lat="44.49786" lon="2.48502">
        <ele>510.9</ele>
        <time>2011-06-04T13:47:09Z</time>
      </trkpt>
      <trkpt lat="44.4979" lon="2.48507">
        <ele>512.4</ele>
        <time>2011-06-04T13:47:11Z</time>
      </trkpt>
      <trkpt lat="44.4979" lon="2.48514">
        <ele>512.9</ele>
        <time>2011-06-04T13:47:13Z</time>
      </trkpt>
      <trkpt lat="44.49781" lon="2.48539">
        <ele>511.3</ele>
        <time>2011-06-04T13:47:20Z</time>
      </trkpt>
      <trkpt lat="44.49773" lon="2.48562">
        <ele>510.1</ele>
        <time>2011-06-04T13:47:25Z</time>
      </trkpt>
      <trkpt lat="44.49771" lon="2.4857">
        <ele>509.9</ele>
        <time>2011-06-04T13:47:27Z</time>
      </trkpt>
      <trkpt lat="44.4977" lon="2.48578">
        <ele>509.8</ele>
        <time>2011-06-04T13:47:29Z</time>
      </trkpt>
      <trkpt lat="44.49768" lon="2.48593">
        <ele>509.4</ele>
        <time>2011-06-04T13:47:33Z</time>
      </trkpt>
      <trkpt lat="44.49768" lon="2.48603">
        <ele>509.2</ele>
        <time>2011-06-04T13:47:36Z</time>
      </trkpt>
      <trkpt lat="44.49768" lon="2.48607">
        <ele>509.1</ele>
        <time>2011-06-04T13:47:37Z</time>
      </trkpt>
      <trkpt lat="44.4977" lon="2.48618">
        <ele>509.5</ele>
        <time>2011-06-04T13:47:40Z</time>
      </trkpt>
      <trkpt lat="44.49772" lon="2.48627">
        <ele>510.1</ele>
        <time>2011-06-04T13:47:43Z</time>
      </trkpt>
      <trkpt lat="44.49774" lon="2.48635">
        <ele>511.1</ele>
        <time>2011-06-04T13:47:46Z</time>
      </trkpt>
      <trkpt lat="44.49784" lon="2.48659">
        <ele>515.1</ele>
        <time>2011-06-04T13:47:54Z</time>
      </trkpt>
      <trkpt lat="44.49792" lon="2.48675">
        <ele>518.8</ele>
        <time>2011-06-04T13:47:58Z</time>
      </trkpt>
      <trkpt lat="44.49794" lon="2.48684">
        <ele>520.4</ele>
        <time>2011-06-04T13:48:00Z</time>
      </trkpt>
      <trkpt lat="44.49798" lon="2.48703">
        <ele>523.1</ele>
        <time>2011-06-04T13:48:05Z</time>
      </trkpt>
      <trkpt lat="44.49804" lon="2.48722">
        <ele>526.6</ele>
        <time>2011-06-04T13:48:11Z</time>
      </trkpt>
      <trkpt lat="44.49805" lon="2.48733">
        <ele>527.4</ele>
        <time>2011-06-04T13:48:15Z</time>
      </trkpt>
      <trkpt lat="44.49804" lon="2.48742">
        <ele>527.4</ele>
        <time>2011-06-04T13:48:19Z</time>
      </trkpt>
      <trkpt lat="44.49801" lon="2.48751">
        <ele>526.5</ele>
        <time>2011-06-04T13:48:24Z</time>
      </trkpt>
      <trkpt lat="44.49798" lon="2.48756">
        <ele>525</ele>
        <time>2011-06-04T13:48:27Z</time>
      </trkpt>
      <trkpt lat="44.49785" lon="2.48772">
        <ele>517.8</ele>
        <time>2011-06-04T13:48:38Z</time>
      </trkpt>
      <trkpt lat="44.4978" lon="2.48779">
        <ele>515</ele>
        <time>2011-06-04T13:48:42Z</time>
      </trkpt>
      <trkpt lat="44.49779" lon="2.48785">
        <ele>513.9</ele>
        <time>2011-06-04T13:48:45Z</time>
      </trkpt>
      <trkpt lat="44.4978" lon="2.48792">
        <ele>514</ele>
        <time>2011-06-04T13:48:48Z</time>
      </trkpt>
      <trkpt lat="44.49782" lon="2.48797">
        <ele>514.8</ele>
        <time>2011-06-04T13:48:51Z</time>
      </trkpt>
      <trkpt lat="44.49787" lon="2.48803">
        <ele>516.9</ele>
        <time>2011-06-04T13:48:55Z</time>
      </trkpt>
      <trkpt lat="44.49792" lon="2.48811">
        <ele>518.8</ele>
        <time>2011-06-04T13:48:59Z</time>
      </trkpt>
      <trkpt lat="44.49806" lon="2.48834">
        <ele>524.1</ele>
        <time>2011-06-04T13:49:11Z</time>
      </trkpt>
      <trkpt lat="44.4981" lon="2.48841">
        <ele>524.9</ele>
        <time>2011-06-04T13:49:15Z</time>
      </trkpt>
      <trkpt lat="44.4982" lon="2.4886">
        <ele>525.8</ele>
        <time>2011-06-04T13:49:23Z</time>
      </trkpt>
      <trkpt lat="44.49826" lon="2.48867">
        <ele>527.5</ele>
        <time>2011-06-04T13:49:27Z</time>
      </trkpt>
      <trkpt lat="44.49837" lon="2.48873">
        <ele>530.9</ele>
        <time>2011-06-04T13:49:33Z</time>
      </trkpt>
      <trkpt lat="44.49844" lon="2.48877">
        <ele>533.2</ele>
        <time>2011-06-04T13:49:37Z</time>
      </trkpt>
      <trkpt lat="44.4985" lon="2.48883">
        <ele>534.6</ele>
        <time>2011-06-04T13:49:41Z</time>
      </trkpt>
      <trkpt lat="44.49857" lon="2.48893">
        <ele>536.3</ele>
        <time>2011-06-04T13:49:46Z</time>
      </trkpt>
      <trkpt lat="44.49864" lon="2.48905">
        <ele>537.5</ele>
        <time>2011-06-04T13:49:51Z</time>
      </trkpt>
      <trkpt lat="44.49868" lon="2.48913">
        <ele>537.9</ele>
        <time>2011-06-04T13:49:54Z</time>
      </trkpt>
      <trkpt lat="44.4987" lon="2.48921">
        <ele>538.6</ele>
        <time>2011-06-04T13:49:57Z</time>
      </trkpt>
      <trkpt lat="44.49873" lon="2.48938">
        <ele>540.7</ele>
        <time>2011-06-04T13:50:02Z</time>
      </trkpt>
      <trkpt lat="44.49873" lon="2.48942">
        <ele>541</ele>
        <time>2011-06-04T13:50:03Z</time>
      </trkpt>
      <trkpt lat="44.49873" lon="2.48949">
        <ele>541</ele>
        <time>2011-06-04T13:50:05Z</time>
      </trkpt>
      <trkpt lat="44.49872" lon="2.48956">
        <ele>540.7</ele>
        <time>2011-06-04T13:50:07Z</time>
      </trkpt>
      <trkpt lat="44.4987" lon="2.48962">
        <ele>539.8</ele>
        <time>2011-06-04T13:50:09Z</time>
      </trkpt>
      <trkpt lat="44.49864" lon="2.48972">
        <ele>537.9</ele>
        <time>2011-06-04T13:50:13Z</time>
      </trkpt>
      <trkpt lat="44.49857" lon="2.48983">
        <ele>535</ele>
        <time>2011-06-04T13:50:18Z</time>
      </trkpt>
      <trkpt lat="44.49849" lon="2.48991">
        <ele>532.1</ele>
        <time>2011-06-04T13:50:22Z</time>
      </trkpt>
      <trkpt lat="44.49829" lon="2.49009">
        <ele>526.8</ele>
        <time>2011-06-04T13:50:31Z</time>
      </trkpt>
      <trkpt lat="44.49824" lon="2.49014">
        <ele>526.1</ele>
        <time>2011-06-04T13:50:33Z</time>
      </trkpt>
      <trkpt lat="44.4981" lon="2.49024">
        <ele>523.7</ele>
        <time>2011-06-04T13:50:39Z</time>
      </trkpt>
      <trkpt lat="44.49803" lon="2.49027">
        <ele>521.7</ele>
        <time>2011-06-04T13:50:42Z</time>
      </trkpt>
      <trkpt lat="44.49792" lon="2.49029">
        <ele>518.7</ele>
        <time>2011-06-04T13:50:46Z</time>
      </trkpt>
      <trkpt lat="44.49778" lon="2.49034">
        <ele>515.2</ele>
        <time>2011-06-04T13:50:50Z</time>
      </trkpt>
      <trkpt lat="44.49774" lon="2.49036">
        <ele>514.2</ele>
        <time>2011-06-04T13:50:51Z</time>
      </trkpt>
      <trkpt lat="44.4977" lon="2.49044">
        <ele>515.1</ele>
        <time>2011-06-04T13:50:53Z</time>
      </trkpt>
      <trkpt lat="44.4977" lon="2.49055">
        <ele>517.6</ele>
        <time>2011-06-04T13:50:55Z</time>
      </trkpt>
      <trkpt lat="44.49772" lon="2.49082">
        <ele>525.1</ele>
        <time>2011-06-04T13:51:00Z</time>
      </trkpt>
      <trkpt lat="44.49773" lon="2.49106">
        <ele>525.2</ele>
        <time>2011-06-04T13:51:04Z</time>
      </trkpt>
      <trkpt lat="44.49772" lon="2.49125">
        <ele>524.3</ele>
        <time>2011-06-04T13:51:07Z</time>
      </trkpt>
      <trkpt lat="44.49766" lon="2.49155">
        <ele>522.2</ele>
        <time>2011-06-04T13:51:11Z</time>
      </trkpt>
      <trkpt lat="44.49762" lon="2.49171">
        <ele>520.1</ele>
        <time>2011-06-04T13:51:13Z</time>
      </trkpt>
      <trkpt lat="44.49755" lon="2.49194">
        <ele>512.6</ele>
        <time>2011-06-04T13:51:16Z</time>
      </trkpt>
      <trkpt lat="44.49754" lon="2.49202">
        <ele>510.4</ele>
        <time>2011-06-04T13:51:17Z</time>
      </trkpt>
      <trkpt lat="44.49753" lon="2.4921">
        <ele>508.4</ele>
        <time>2011-06-04T13:51:18Z</time>
      </trkpt>
      <trkpt lat="44.49754" lon="2.49217">
        <ele>507.1</ele>
        <time>2011-06-04T13:51:19Z</time>
      </trkpt>
      <trkpt lat="44.49756" lon="2.49224">
        <ele>505.6</ele>
        <time>2011-06-04T13:51:20Z</time>
      </trkpt>
      <trkpt lat="44.49762" lon="2.49237">
        <ele>503.5</ele>
        <time>2011-06-04T13:51:22Z</time>
      </trkpt>
      <trkpt lat="44.49765" lon="2.49243">
        <ele>502.8</ele>
        <time>2011-06-04T13:51:23Z</time>
      </trkpt>
      <trkpt lat="44.49778" lon="2.49261">
        <ele>501.3</ele>
        <time>2011-06-04T13:51:26Z</time>
      </trkpt>
      <trkpt lat="44.49781" lon="2.49268">
        <ele>500.8</ele>
        <time>2011-06-04T13:51:27Z</time>
      </trkpt>
      <trkpt lat="44.49786" lon="2.49273">
        <ele>500.7</ele>
        <time>2011-06-04T13:51:28Z</time>
      </trkpt>
      <trkpt lat="44.49796" lon="2.4928">
        <ele>501.8</ele>
        <time>2011-06-04T13:51:30Z</time>
      </trkpt>
      <trkpt lat="44.49802" lon="2.49283">
        <ele>502.7</ele>
        <time>2011-06-04T13:51:31Z</time>
      </trkpt>
      <trkpt lat="44.49808" lon="2.49285">
        <ele>503.9</ele>
        <time>2011-06-04T13:51:32Z</time>
      </trkpt>
      <trkpt lat="44.49819" lon="2.49286">
        <ele>506.4</ele>
        <time>2011-06-04T13:51:34Z</time>
      </trkpt>
      <trkpt lat="44.4983" lon="2.49288">
        <ele>508.6</ele>
        <time>2011-06-04T13:51:36Z</time>
      </trkpt>
      <trkpt lat="44.49839" lon="2.49289">
        <ele>512.2</ele>
        <time>2011-06-04T13:51:38Z</time>
      </trkpt>
      <trkpt lat="44.4986" lon="2.49291">
        <ele>521.8</ele>
        <time>2011-06-04T13:51:44Z</time>
      </trkpt>
      <trkpt lat="44.49866" lon="2.49294">
        <ele>524.4</ele>
        <time>2011-06-04T13:51:46Z</time>
      </trkpt>
      <trkpt lat="44.49869" lon="2.49297">
        <ele>525.5</ele>
        <time>2011-06-04T13:51:47Z</time>
      </trkpt>
      <trkpt lat="44.49874" lon="2.49304">
        <ele>527.4</ele>
        <time>2011-06-04T13:51:49Z</time>
      </trkpt>
      <trkpt lat="44.49878" lon="2.49312">
        <ele>528.5</ele>
        <time>2011-06-04T13:51:51Z</time>
      </trkpt>
      <trkpt lat="44.49881" lon="2.4932">
        <ele>529.6</ele>
        <time>2011-06-04T13:51:53Z</time>
      </trkpt>
      <trkpt lat="44.49885" lon="2.49332">
        <ele>530.5</ele>
        <time>2011-06-04T13:51:56Z</time>
      </trkpt>
      <trkpt lat="44.49887" lon="2.49343">
        <ele>531.3</ele>
        <time>2011-06-04T13:51:59Z</time>
      </trkpt>
      <trkpt lat="44.49892" lon="2.49367">
        <ele>532.2</ele>
        <time>2011-06-04T13:52:05Z</time>
      </trkpt>
      <trkpt lat="44.49897" lon="2.49387">
        <ele>533.8</ele>
        <time>2011-06-04T13:52:11Z</time>
      </trkpt>
      <trkpt lat="44.49901" lon="2.49394">
        <ele>535.3</ele>
        <time>2011-06-04T13:52:14Z</time>
      </trkpt>
      <trkpt lat="44.49907" lon="2.49408">
        <ele>537.5</ele>
        <time>2011-06-04T13:52:20Z</time>
      </trkpt>
      <trkpt lat="44.4991" lon="2.49417">
        <ele>538.5</ele>
        <time>2011-06-04T13:52:24Z</time>
      </trkpt>
      <trkpt lat="44.49914" lon="2.49438">
        <ele>539.8</ele>
        <time>2011-06-04T13:52:35Z</time>
      </trkpt>
      <trkpt lat="44.49918" lon="2.49447">
        <ele>541.3</ele>
        <time>2011-06-04T13:52:41Z</time>
      </trkpt>
      <trkpt lat="44.49919" lon="2.49452">
        <ele>541.4</ele>
        <time>2011-06-04T13:52:44Z</time>
      </trkpt>
      <trkpt lat="44.49917" lon="2.49462">
        <ele>540.6</ele>
        <time>2011-06-04T13:52:49Z</time>
      </trkpt>
      <trkpt lat="44.49916" lon="2.49471">
        <ele>539.7</ele>
        <time>2011-06-04T13:52:53Z</time>
      </trkpt>
      <trkpt lat="44.49913" lon="2.49478">
        <ele>538</ele>
        <time>2011-06-04T13:52:57Z</time>
      </trkpt>
      <trkpt lat="44.4991" lon="2.49482">
        <ele>537</ele>
        <time>2011-06-04T13:52:59Z</time>
      </trkpt>
      <trkpt lat="44.49905" lon="2.49486">
        <ele>534.6</ele>
        <time>2011-06-04T13:53:03Z</time>
      </trkpt>
      <trkpt lat="44.49895" lon="2.49492">
        <ele>530.9</ele>
        <time>2011-06-04T13:53:09Z</time>
      </trkpt>
      <trkpt lat="44.49889" lon="2.49495">
        <ele>528.5</ele>
        <time>2011-06-04T13:53:13Z</time>
      </trkpt>
      <trkpt lat="44.4988" lon="2.49499">
        <ele>524.8</ele>
        <time>2011-06-04T13:53:19Z</time>
      </trkpt>
      <trkpt lat="44.49874" lon="2.49502">
        <ele>522.8</ele>
        <time>2011-06-04T13:53:23Z</time>
      </trkpt>
      <trkpt lat="44.49867" lon="2.49504">
        <ele>520.8</ele>
        <time>2011-06-04T13:53:27Z</time>
      </trkpt>
      <trkpt lat="44.49841" lon="2.49514">
        <ele>514.4</ele>
        <time>2011-06-04T13:53:43Z</time>
      </trkpt>
      <trkpt lat="44.49835" lon="2.49517">
        <ele>512.6</ele>
        <time>2011-06-04T13:53:47Z</time>
      </trkpt>
      <trkpt lat="44.49822" lon="2.49524">
        <ele>513.2</ele>
        <time>2011-06-04T13:53:55Z</time>
      </trkpt>
      <trkpt lat="44.49798" lon="2.49536">
        <ele>514.8</ele>
        <time>2011-06-04T13:54:09Z</time>
      </trkpt>
      <trkpt lat="44.4979" lon="2.49539">
        <ele>515.4</ele>
        <time>2011-06-04T13:54:18Z</time>
      </trkpt>
      <trkpt lat="44.49783" lon="2.49545">
        <ele>516.7</ele>
        <time>2011-06-04T13:54:43Z</time>
      </trkpt>
      <trkpt lat="44.49778" lon="2.49546">
        <ele>516.7</ele>
        <time>2011-06-04T13:54:54Z</time>
      </trkpt>
      <trkpt lat="44.49771" lon="2.49548">
        <ele>517.1</ele>
        <time>2011-06-04T13:55:07Z</time>
      </trkpt>
      <trkpt lat="44.49763" lon="2.49554">
        <ele>518.5</ele>
        <time>2011-06-04T13:55:20Z</time>
      </trkpt>
      <trkpt lat="44.49757" lon="2.49562">
        <ele>521.2</ele>
        <time>2011-06-04T13:55:30Z</time>
      </trkpt>
      <trkpt lat="44.49754" lon="2.49566">
        <ele>522.6</ele>
        <time>2011-06-04T13:55:38Z</time>
      </trkpt>
      <trkpt lat="44.49751" lon="2.4957">
        <ele>524</ele>
        <time>2011-06-04T13:55:44Z</time>
      </trkpt>
      <trkpt lat="44.49747" lon="2.49573">
        <ele>525.4</ele>
        <time>2011-06-04T13:55:50Z</time>
      </trkpt>
      <trkpt lat="44.49743" lon="2.49576">
        <ele>526</ele>
        <time>2011-06-04T13:55:56Z</time>
      </trkpt>
      <trkpt lat="44.49736" lon="2.49578">
        <ele>526.4</ele>
        <time>2011-06-04T13:56:13Z</time>
      </trkpt>
      <trkpt lat="44.49728" lon="2.49578">
        <ele>525.7</ele>
        <time>2011-06-04T13:56:24Z</time>
      </trkpt>
      <trkpt lat="44.49721" lon="2.49582">
        <ele>526.7</ele>
        <time>2011-06-04T13:56:40Z</time>
      </trkpt>
      <trkpt lat="44.49717" lon="2.49586">
        <ele>527.3</ele>
        <time>2011-06-04T13:56:46Z</time>
      </trkpt>
      <trkpt lat="44.49713" lon="2.49588">
        <ele>527.7</ele>
        <time>2011-06-04T13:56:54Z</time>
      </trkpt>
      <trkpt lat="44.49691" lon="2.49596">
        <ele>528.8</ele>
        <time>2011-06-04T13:57:19Z</time>
      </trkpt>
      <trkpt lat="44.49684" lon="2.49599">
        <ele>529.1</ele>
        <time>2011-06-04T13:57:25Z</time>
      </trkpt>
      <trkpt lat="44.4968" lon="2.49601">
        <ele>529.2</ele>
        <time>2011-06-04T13:57:28Z</time>
      </trkpt>
      <trkpt lat="44.49674" lon="2.49606">
        <ele>530.5</ele>
        <time>2011-06-04T13:57:34Z</time>
      </trkpt>
      <trkpt lat="44.49658" lon="2.49614">
        <ele>532.3</ele>
        <time>2011-06-04T13:58:00Z</time>
      </trkpt>
      <trkpt lat="44.49651" lon="2.49617">
        <ele>532.9</ele>
        <time>2011-06-04T13:58:08Z</time>
      </trkpt>
      <trkpt lat="44.49635" lon="2.49627">
        <ele>535.7</ele>
        <time>2011-06-04T13:58:32Z</time>
      </trkpt>
      <trkpt lat="44.49627" lon="2.49629">
        <ele>536.3</ele>
        <time>2011-06-04T13:58:49Z</time>
      </trkpt>
      <trkpt lat="44.4962" lon="2.49635">
        <ele>537.7</ele>
        <time>2011-06-04T13:58:59Z</time>
      </trkpt>
      <trkpt lat="44.49616" lon="2.49638">
        <ele>538.9</ele>
        <time>2011-06-04T13:59:07Z</time>
      </trkpt>
      <trkpt lat="44.49613" lon="2.49647">
        <ele>541.4</ele>
        <time>2011-06-04T13:59:24Z</time>
      </trkpt>
      <trkpt lat="44.49615" lon="2.49652">
        <ele>543.9</ele>
        <time>2011-06-04T13:59:33Z</time>
      </trkpt>
      <trkpt lat="44.49616" lon="2.49658">
        <ele>545.7</ele>
        <time>2011-06-04T13:59:42Z</time>
      </trkpt>
      <trkpt lat="44.49615" lon="2.49664">
        <ele>547.5</ele>
        <time>2011-06-04T13:59:48Z</time>
      </trkpt>
      <trkpt lat="44.49615" lon="2.49675">
        <ele>549.2</ele>
        <time>2011-06-04T14:00:02Z</time>
      </trkpt>
      <trkpt lat="44.49615" lon="2.49697">
        <ele>550.1</ele>
        <time>2011-06-04T14:00:21Z</time>
      </trkpt>
      <trkpt lat="44.49614" lon="2.49719">
        <ele>550.9</ele>
        <time>2011-06-04T14:00:36Z</time>
      </trkpt>
      <trkpt lat="44.49614" lon="2.49726">
        <ele>551.1</ele>
        <time>2011-06-04T14:00:38Z</time>
      </trkpt>
      <trkpt lat="44.49617" lon="2.49735">
        <ele>551.6</ele>
        <time>2011-06-04T14:00:41Z</time>
      </trkpt>
      <trkpt lat="44.49623" lon="2.4974">
        <ele>552</ele>
        <time>2011-06-04T14:00:46Z</time>
      </trkpt>
      <trkpt lat="44.49625" lon="2.49746">
        <ele>552.3</ele>
        <time>2011-06-04T14:00:48Z</time>
      </trkpt>
      <trkpt lat="44.49629" lon="2.49758">
        <ele>552.2</ele>
        <time>2011-06-04T14:00:51Z</time>
      </trkpt>
      <trkpt lat="44.4963" lon="2.49765">
        <ele>551.7</ele>
        <time>2011-06-04T14:00:53Z</time>
      </trkpt>
      <trkpt lat="44.49633" lon="2.49781">
        <ele>550.7</ele>
        <time>2011-06-04T14:00:57Z</time>
      </trkpt>
      <trkpt lat="44.49638" lon="2.49789">
        <ele>550.4</ele>
        <time>2011-06-04T14:00:59Z</time>
      </trkpt>
      <trkpt lat="44.49644" lon="2.49796">
        <ele>550.1</ele>
        <time>2011-06-04T14:01:01Z</time>
      </trkpt>
      <trkpt lat="44.49647" lon="2.49803">
        <ele>549.9</ele>
        <time>2011-06-04T14:01:03Z</time>
      </trkpt>
      <trkpt lat="44.49651" lon="2.49811">
        <ele>549.5</ele>
        <time>2011-06-04T14:01:06Z</time>
      </trkpt>
      <trkpt lat="44.49655" lon="2.49821">
        <ele>549.1</ele>
        <time>2011-06-04T14:01:08Z</time>
      </trkpt>
      <trkpt lat="44.49656" lon="2.49828">
        <ele>548.8</ele>
        <time>2011-06-04T14:01:09Z</time>
      </trkpt>
      <trkpt lat="44.49665" lon="2.4985">
        <ele>548.2</ele>
        <time>2011-06-04T14:01:12Z</time>
      </trkpt>
      <trkpt lat="44.49668" lon="2.49858">
        <ele>548</ele>
        <time>2011-06-04T14:01:13Z</time>
      </trkpt>
      <trkpt lat="44.4967" lon="2.49867">
        <ele>547.7</ele>
        <time>2011-06-04T14:01:14Z</time>
      </trkpt>
      <trkpt lat="44.49669" lon="2.49876">
        <ele>547.3</ele>
        <time>2011-06-04T14:01:15Z</time>
      </trkpt>
      <trkpt lat="44.49667" lon="2.49884">
        <ele>546.6</ele>
        <time>2011-06-04T14:01:16Z</time>
      </trkpt>
      <trkpt lat="44.49663" lon="2.49893">
        <ele>546</ele>
        <time>2011-06-04T14:01:17Z</time>
      </trkpt>
      <trkpt lat="44.49659" lon="2.49901">
        <ele>545.5</ele>
        <time>2011-06-04T14:01:18Z</time>
      </trkpt>
      <trkpt lat="44.49655" lon="2.49908">
        <ele>544.9</ele>
        <time>2011-06-04T14:01:19Z</time>
      </trkpt>
      <trkpt lat="44.49641" lon="2.49922">
        <ele>544</ele>
        <time>2011-06-04T14:01:22Z</time>
      </trkpt>
      <trkpt lat="44.49632" lon="2.49927">
        <ele>543.9</ele>
        <time>2011-06-04T14:01:24Z</time>
      </trkpt>
      <trkpt lat="44.49612" lon="2.49933">
        <ele>543.4</ele>
        <time>2011-06-04T14:01:29Z</time>
      </trkpt>
      <trkpt lat="44.49608" lon="2.49935">
        <ele>543.3</ele>
        <time>2011-06-04T14:01:30Z</time>
      </trkpt>
      <trkpt lat="44.49599" lon="2.49939">
        <ele>543.3</ele>
        <time>2011-06-04T14:01:32Z</time>
      </trkpt>
      <trkpt lat="44.49595" lon="2.49942">
        <ele>543.3</ele>
        <time>2011-06-04T14:01:33Z</time>
      </trkpt>
      <trkpt lat="44.49591" lon="2.49946">
        <ele>543.4</ele>
        <time>2011-06-04T14:01:34Z</time>
      </trkpt>
      <trkpt lat="44.49576" lon="2.49961">
        <ele>543.6</ele>
        <time>2011-06-04T14:01:38Z</time>
      </trkpt>
      <trkpt lat="44.49569" lon="2.49971">
        <ele>543.7</ele>
        <time>2011-06-04T14:01:40Z</time>
      </trkpt>
      <trkpt lat="44.49553" lon="2.49989">
        <ele>543.6</ele>
        <time>2011-06-04T14:01:44Z</time>
      </trkpt>
      <trkpt lat="44.49529" lon="2.50014">
        <ele>543.3</ele>
        <time>2011-06-04T14:01:50Z</time>
      </trkpt>
      <trkpt lat="44.49521" lon="2.50024">
        <ele>543.2</ele>
        <time>2011-06-04T14:01:53Z</time>
      </trkpt>
      <trkpt lat="44.49518" lon="2.50034">
        <ele>543.6</ele>
        <time>2011-06-04T14:01:57Z</time>
      </trkpt>
      <trkpt lat="44.49516" lon="2.50043">
        <ele>543.9</ele>
        <time>2011-06-04T14:02:01Z</time>
      </trkpt>
      <trkpt lat="44.49511" lon="2.50056">
        <ele>544.2</ele>
        <time>2011-06-04T14:02:07Z</time>
      </trkpt>
      <trkpt lat="44.49509" lon="2.50062">
        <ele>544.4</ele>
        <time>2011-06-04T14:02:10Z</time>
      </trkpt>
      <trkpt lat="44.49506" lon="2.50081">
        <ele>545.4</ele>
        <time>2011-06-04T14:02:17Z</time>
      </trkpt>
      <trkpt lat="44.49504" lon="2.50092">
        <ele>545.6</ele>
        <time>2011-06-04T14:02:21Z</time>
      </trkpt>
      <trkpt lat="44.49504" lon="2.50105">
        <ele>546.1</ele>
        <time>2011-06-04T14:02:25Z</time>
      </trkpt>
      <trkpt lat="44.49503" lon="2.50118">
        <ele>546.5</ele>
        <time>2011-06-04T14:02:29Z</time>
      </trkpt>
      <trkpt lat="44.49505" lon="2.50142">
        <ele>547.5</ele>
        <time>2011-06-04T14:02:37Z</time>
      </trkpt>
      <trkpt lat="44.49504" lon="2.50153">
        <ele>547.8</ele>
        <time>2011-06-04T14:02:41Z</time>
      </trkpt>
      <trkpt lat="44.49502" lon="2.5016">
        <ele>548</ele>
        <time>2011-06-04T14:02:43Z</time>
      </trkpt>
      <trkpt lat="44.49498" lon="2.50174">
        <ele>548</ele>
        <time>2011-06-04T14:02:46Z</time>
      </trkpt>
      <trkpt lat="44.4949" lon="2.50209">
        <ele>547.9</ele>
        <time>2011-06-04T14:02:52Z</time>
      </trkpt>
      <trkpt lat="44.49488" lon="2.50215">
        <ele>547.9</ele>
        <time>2011-06-04T14:02:53Z</time>
      </trkpt>
      <trkpt lat="44.49481" lon="2.5023">
        <ele>547.6</ele>
        <time>2011-06-04T14:02:56Z</time>
      </trkpt>
      <trkpt lat="44.4947" lon="2.50251">
        <ele>546.8</ele>
        <time>2011-06-04T14:03:01Z</time>
      </trkpt>
      <trkpt lat="44.49467" lon="2.50259">
        <ele>546.7</ele>
        <time>2011-06-04T14:03:03Z</time>
      </trkpt>
      <trkpt lat="44.49465" lon="2.50267">
        <ele>546.9</ele>
        <time>2011-06-04T14:03:05Z</time>
      </trkpt>
      <trkpt lat="44.49465" lon="2.50275">
        <ele>547.2</ele>
        <time>2011-06-04T14:03:07Z</time>
      </trkpt>
      <trkpt lat="44.49468" lon="2.50281">
        <ele>547.6</ele>
        <time>2011-06-04T14:03:09Z</time>
      </trkpt>
      <trkpt lat="44.49484" lon="2.50307">
        <ele>549.6</ele>
        <time>2011-06-04T14:03:19Z</time>
      </trkpt>
      <trkpt lat="44.49488" lon="2.50312">
        <ele>549.9</ele>
        <time>2011-06-04T14:03:21Z</time>
      </trkpt>
      <trkpt lat="44.49491" lon="2.50317">
        <ele>550.2</ele>
        <time>2011-06-04T14:03:23Z</time>
      </trkpt>
      <trkpt lat="44.49495" lon="2.50323">
        <ele>550.6</ele>
        <time>2011-06-04T14:03:26Z</time>
      </trkpt>
      <trkpt lat="44.495" lon="2.50332">
        <ele>551</ele>
        <time>2011-06-04T14:03:30Z</time>
      </trkpt>
      <trkpt lat="44.49503" lon="2.50343">
        <ele>551.6</ele>
        <time>2011-06-04T14:03:34Z</time>
      </trkpt>
      <trkpt lat="44.49504" lon="2.50353">
        <ele>552.1</ele>
        <time>2011-06-04T14:03:38Z</time>
      </trkpt>
      <trkpt lat="44.49504" lon="2.50362">
        <ele>552.6</ele>
        <time>2011-06-04T14:03:42Z</time>
      </trkpt>
      <trkpt lat="44.49508" lon="2.50376">
        <ele>553.4</ele>
        <time>2011-06-04T14:03:48Z</time>
      </trkpt>
      <trkpt lat="44.4951" lon="2.5038">
        <ele>553.6</ele>
        <time>2011-06-04T14:03:50Z</time>
      </trkpt>
      <trkpt lat="44.49514" lon="2.50387">
        <ele>554.2</ele>
        <time>2011-06-04T14:03:54Z</time>
      </trkpt>
      <trkpt lat="44.49515" lon="2.50391">
        <ele>554.4</ele>
        <time>2011-06-04T14:03:56Z</time>
      </trkpt>
      <trkpt lat="44.4952" lon="2.50398">
        <ele>554.9</ele>
        <time>2011-06-04T14:04:00Z</time>
      </trkpt>
      <trkpt lat="44.49529" lon="2.50414">
        <ele>555.9</ele>
        <time>2011-06-04T14:04:09Z</time>
      </trkpt>
      <trkpt lat="44.49532" lon="2.50422">
        <ele>556.1</ele>
        <time>2011-06-04T14:04:12Z</time>
      </trkpt>
      <trkpt lat="44.49533" lon="2.5043">
        <ele>556.1</ele>
        <time>2011-06-04T14:04:15Z</time>
      </trkpt>
      <trkpt lat="44.49536" lon="2.50459">
        <ele>556.1</ele>
        <time>2011-06-04T14:04:25Z</time>
      </trkpt>
      <trkpt lat="44.49541" lon="2.5049">
        <ele>556</ele>
        <time>2011-06-04T14:04:38Z</time>
      </trkpt>
      <trkpt lat="44.49543" lon="2.50505">
        <ele>555.7</ele>
        <time>2011-06-04T14:04:44Z</time>
      </trkpt>
      <trkpt lat="44.49543" lon="2.5051">
        <ele>555.3</ele>
        <time>2011-06-04T14:04:46Z</time>
      </trkpt>
      <trkpt lat="44.49545" lon="2.50516">
        <ele>554.8</ele>
        <time>2011-06-04T14:04:48Z</time>
      </trkpt>
      <trkpt lat="44.49547" lon="2.50522">
        <ele>554.4</ele>
        <time>2011-06-04T14:04:50Z</time>
      </trkpt>
      <trkpt lat="44.49552" lon="2.50527">
        <ele>554</ele>
        <time>2011-06-04T14:04:52Z</time>
      </trkpt>
      <trkpt lat="44.49554" lon="2.50529">
        <ele>553.9</ele>
        <time>2011-06-04T14:04:53Z</time>
      </trkpt>
      <trkpt lat="44.4956" lon="2.50529">
        <ele>554</ele>
        <time>2011-06-04T14:04:55Z</time>
      </trkpt>
      <trkpt lat="44.49578" lon="2.50526">
        <ele>554.4</ele>
        <time>2011-06-04T14:05:01Z</time>
      </trkpt>
      <trkpt lat="44.49589" lon="2.50527">
        <ele>554.3</ele>
        <time>2011-06-04T14:05:04Z</time>
      </trkpt>
      <trkpt lat="44.496" lon="2.50528">
        <ele>553.7</ele>
        <time>2011-06-04T14:05:07Z</time>
      </trkpt>
      <trkpt lat="44.49607" lon="2.5053">
        <ele>553.3</ele>
        <time>2011-06-04T14:05:09Z</time>
      </trkpt>
      <trkpt lat="44.49618" lon="2.50534">
        <ele>552.3</ele>
        <time>2011-06-04T14:05:12Z</time>
      </trkpt>
      <trkpt lat="44.49638" lon="2.5054">
        <ele>551</ele>
        <time>2011-06-04T14:05:17Z</time>
      </trkpt>
      <trkpt lat="44.49654" lon="2.50544">
        <ele>549.9</ele>
        <time>2011-06-04T14:05:21Z</time>
      </trkpt>
      <trkpt lat="44.49667" lon="2.5055">
        <ele>548.7</ele>
        <time>2011-06-04T14:05:24Z</time>
      </trkpt>
      <trkpt lat="44.49682" lon="2.50553">
        <ele>549.2</ele>
        <time>2011-06-04T14:05:27Z</time>
      </trkpt>
      <trkpt lat="44.49691" lon="2.50557">
        <ele>549.3</ele>
        <time>2011-06-04T14:05:29Z</time>
      </trkpt>
      <trkpt lat="44.49709" lon="2.50569">
        <ele>549.5</ele>
        <time>2011-06-04T14:05:33Z</time>
      </trkpt>
      <trkpt lat="44.49714" lon="2.50572">
        <ele>549.7</ele>
        <time>2011-06-04T14:05:34Z</time>
      </trkpt>
      <trkpt lat="44.4972" lon="2.50572">
        <ele>550.1</ele>
        <time>2011-06-04T14:05:35Z</time>
      </trkpt>
      <trkpt lat="44.49725" lon="2.50571">
        <ele>550.6</ele>
        <time>2011-06-04T14:05:36Z</time>
      </trkpt>
      <trkpt lat="44.4974" lon="2.50562">
        <ele>551.9</ele>
        <time>2011-06-04T14:05:39Z</time>
      </trkpt>
      <trkpt lat="44.49754" lon="2.50556">
        <ele>553.2</ele>
        <time>2011-06-04T14:05:42Z</time>
      </trkpt>
      <trkpt lat="44.49777" lon="2.50551">
        <ele>556.3</ele>
        <time>2011-06-04T14:05:46Z</time>
      </trkpt>
      <trkpt lat="44.49783" lon="2.5055">
        <ele>557.2</ele>
        <time>2011-06-04T14:05:47Z</time>
      </trkpt>
      <trkpt lat="44.4979" lon="2.50553">
        <ele>557.9</ele>
        <time>2011-06-04T14:05:48Z</time>
      </trkpt>
      <trkpt lat="44.49794" lon="2.5056">
        <ele>558.5</ele>
        <time>2011-06-04T14:05:49Z</time>
      </trkpt>
      <trkpt lat="44.49797" lon="2.50569">
        <ele>558.8</ele>
        <time>2011-06-04T14:05:50Z</time>
      </trkpt>
      <trkpt lat="44.49797" lon="2.50578">
        <ele>558.7</ele>
        <time>2011-06-04T14:05:51Z</time>
      </trkpt>
      <trkpt lat="44.49796" lon="2.50594">
        <ele>558.7</ele>
        <time>2011-06-04T14:05:53Z</time>
      </trkpt>
      <trkpt lat="44.49796" lon="2.50601">
        <ele>558.8</ele>
        <time>2011-06-04T14:05:54Z</time>
      </trkpt>
      <trkpt lat="44.49798" lon="2.50608">
        <ele>559</ele>
        <time>2011-06-04T14:05:55Z</time>
      </trkpt>
      <trkpt lat="44.498" lon="2.50614">
        <ele>559.2</ele>
        <time>2011-06-04T14:05:56Z</time>
      </trkpt>
      <trkpt lat="44.49805" lon="2.50626">
        <ele>559.9</ele>
        <time>2011-06-04T14:05:58Z</time>
      </trkpt>
      <trkpt lat="44.49807" lon="2.50631">
        <ele>560.2</ele>
        <time>2011-06-04T14:05:59Z</time>
      </trkpt>
      <trkpt lat="44.49809" lon="2.50641">
        <ele>560.5</ele>
        <time>2011-06-04T14:06:01Z</time>
      </trkpt>
      <trkpt lat="44.49809" lon="2.5065">
        <ele>560.4</ele>
        <time>2011-06-04T14:06:03Z</time>
      </trkpt>
      <trkpt lat="44.49807" lon="2.50657">
        <ele>560.1</ele>
        <time>2011-06-04T14:06:05Z</time>
      </trkpt>
      <trkpt lat="44.49802" lon="2.50667">
        <ele>559.6</ele>
        <time>2011-06-04T14:06:09Z</time>
      </trkpt>
      <trkpt lat="44.49798" lon="2.50681">
        <ele>560.2</ele>
        <time>2011-06-04T14:06:14Z</time>
      </trkpt>
      <trkpt lat="44.49792" lon="2.50708">
        <ele>561.7</ele>
        <time>2011-06-04T14:06:25Z</time>
      </trkpt>
      <trkpt lat="44.49789" lon="2.50731">
        <ele>563.3</ele>
        <time>2011-06-04T14:06:35Z</time>
      </trkpt>
      <trkpt lat="44.49785" lon="2.50764">
        <ele>564.8</ele>
        <time>2011-06-04T14:06:47Z</time>
      </trkpt>
      <trkpt lat="44.49783" lon="2.50785">
        <ele>565.3</ele>
        <time>2011-06-04T14:06:55Z</time>
      </trkpt>
      <trkpt lat="44.49782" lon="2.50791">
        <ele>565.4</ele>
        <time>2011-06-04T14:06:57Z</time>
      </trkpt>
      <trkpt lat="44.49782" lon="2.50797">
        <ele>565.5</ele>
        <time>2011-06-04T14:06:59Z</time>
      </trkpt>
      <trkpt lat="44.49781" lon="2.50816">
        <ele>566</ele>
        <time>2011-06-04T14:07:05Z</time>
      </trkpt>
      <trkpt lat="44.4978" lon="2.50823">
        <ele>566.2</ele>
        <time>2011-06-04T14:07:07Z</time>
      </trkpt>
      <trkpt lat="44.49781" lon="2.50831">
        <ele>566.5</ele>
        <time>2011-06-04T14:07:09Z</time>
      </trkpt>
      <trkpt lat="44.49783" lon="2.50852">
        <ele>565.5</ele>
        <time>2011-06-04T14:07:15Z</time>
      </trkpt>
      <trkpt lat="44.49784" lon="2.50858">
        <ele>565.1</ele>
        <time>2011-06-04T14:07:17Z</time>
      </trkpt>
      <trkpt lat="44.49786" lon="2.50871">
        <ele>564.3</ele>
        <time>2011-06-04T14:07:21Z</time>
      </trkpt>
      <trkpt lat="44.49788" lon="2.50887">
        <ele>563.4</ele>
        <time>2011-06-04T14:07:26Z</time>
      </trkpt>
      <trkpt lat="44.4979" lon="2.50901">
        <ele>562.5</ele>
        <time>2011-06-04T14:07:30Z</time>
      </trkpt>
      <trkpt lat="44.49791" lon="2.5091">
        <ele>561.9</ele>
        <time>2011-06-04T14:07:32Z</time>
      </trkpt>
      <trkpt lat="44.49793" lon="2.5092">
        <ele>561.4</ele>
        <time>2011-06-04T14:07:34Z</time>
      </trkpt>
      <trkpt lat="44.49795" lon="2.50926">
        <ele>561.1</ele>
        <time>2011-06-04T14:07:35Z</time>
      </trkpt>
      <trkpt lat="44.49797" lon="2.50931">
        <ele>560.8</ele>
        <time>2011-06-04T14:07:36Z</time>
      </trkpt>
      <trkpt lat="44.49802" lon="2.50941">
        <ele>560.7</ele>
        <time>2011-06-04T14:07:38Z</time>
      </trkpt>
      <trkpt lat="44.49809" lon="2.5095">
        <ele>560.7</ele>
        <time>2011-06-04T14:07:40Z</time>
      </trkpt>
      <trkpt lat="44.49823" lon="2.50963">
        <ele>561.5</ele>
        <time>2011-06-04T14:07:43Z</time>
      </trkpt>
      <trkpt lat="44.49829" lon="2.50968">
        <ele>561.9</ele>
        <time>2011-06-04T14:07:44Z</time>
      </trkpt>
      <trkpt lat="44.49841" lon="2.5098">
        <ele>562.7</ele>
        <time>2011-06-04T14:07:46Z</time>
      </trkpt>
      <trkpt lat="44.49846" lon="2.50987">
        <ele>562.9</ele>
        <time>2011-06-04T14:07:47Z</time>
      </trkpt>
      <trkpt lat="44.4985" lon="2.50994">
        <ele>563.1</ele>
        <time>2011-06-04T14:07:48Z</time>
      </trkpt>
      <trkpt lat="44.49853" lon="2.51001">
        <ele>563.3</ele>
        <time>2011-06-04T14:07:49Z</time>
      </trkpt>
      <trkpt lat="44.49855" lon="2.51008">
        <ele>564</ele>
        <time>2011-06-04T14:07:50Z</time>
      </trkpt>
      <trkpt lat="44.49856" lon="2.51013">
        <ele>564.5</ele>
        <time>2011-06-04T14:07:51Z</time>
      </trkpt>
      <trkpt lat="44.49856" lon="2.51023">
        <ele>565.1</ele>
        <time>2011-06-04T14:07:53Z</time>
      </trkpt>
      <trkpt lat="44.49852" lon="2.51059">
        <ele>567.4</ele>
        <time>2011-06-04T14:08:01Z</time>
      </trkpt>
      <trkpt lat="44.49852" lon="2.51068">
        <ele>568.1</ele>
        <time>2011-06-04T14:08:03Z</time>
      </trkpt>
      <trkpt lat="44.4985" lon="2.51083">
        <ele>568.9</ele>
        <time>2011-06-04T14:08:07Z</time>
      </trkpt>
      <trkpt lat="44.49845" lon="2.51107">
        <ele>568.7</ele>
        <time>2011-06-04T14:08:13Z</time>
      </trkpt>
      <trkpt lat="44.49844" lon="2.51117">
        <ele>568.8</ele>
        <time>2011-06-04T14:08:15Z</time>
      </trkpt>
      <trkpt lat="44.49844" lon="2.51122">
        <ele>568.9</ele>
        <time>2011-06-04T14:08:16Z</time>
      </trkpt>
      <trkpt lat="44.49845" lon="2.51137">
        <ele>569.2</ele>
        <time>2011-06-04T14:08:19Z</time>
      </trkpt>
      <trkpt lat="44.4985" lon="2.5116">
        <ele>570.1</ele>
        <time>2011-06-04T14:08:24Z</time>
      </trkpt>
      <trkpt lat="44.49852" lon="2.51169">
        <ele>570.4</ele>
        <time>2011-06-04T14:08:26Z</time>
      </trkpt>
      <trkpt lat="44.4986" lon="2.51199">
        <ele>568.6</ele>
        <time>2011-06-04T14:08:33Z</time>
      </trkpt>
      <trkpt lat="44.49871" lon="2.51234">
        <ele>566.9</ele>
        <time>2011-06-04T14:08:39Z</time>
      </trkpt>
      <trkpt lat="44.49889" lon="2.51307">
        <ele>563.9</ele>
        <time>2011-06-04T14:08:47Z</time>
      </trkpt>
      <trkpt lat="44.49891" lon="2.51317">
        <ele>563.6</ele>
        <time>2011-06-04T14:08:48Z</time>
      </trkpt>
      <trkpt lat="44.49892" lon="2.51327">
        <ele>563</ele>
        <time>2011-06-04T14:08:49Z</time>
      </trkpt>
      <trkpt lat="44.49891" lon="2.51337">
        <ele>562.3</ele>
        <time>2011-06-04T14:08:50Z</time>
      </trkpt>
      <trkpt lat="44.49887" lon="2.51345">
        <ele>562</ele>
        <time>2011-06-04T14:08:51Z</time>
      </trkpt>
      <trkpt lat="44.49882" lon="2.51351">
        <ele>561.4</ele>
        <time>2011-06-04T14:08:52Z</time>
      </trkpt>
      <trkpt lat="44.49871" lon="2.51362">
        <ele>559.9</ele>
        <time>2011-06-04T14:08:54Z</time>
      </trkpt>
      <trkpt lat="44.49867" lon="2.51368">
        <ele>559.3</ele>
        <time>2011-06-04T14:08:55Z</time>
      </trkpt>
      <trkpt lat="44.49864" lon="2.51375">
        <ele>559</ele>
        <time>2011-06-04T14:08:56Z</time>
      </trkpt>
      <trkpt lat="44.49863" lon="2.51381">
        <ele>559</ele>
        <time>2011-06-04T14:08:57Z</time>
      </trkpt>
      <trkpt lat="44.49864" lon="2.51393">
        <ele>559.3</ele>
        <time>2011-06-04T14:08:59Z</time>
      </trkpt>
      <trkpt lat="44.49863" lon="2.51399">
        <ele>559.3</ele>
        <time>2011-06-04T14:09:00Z</time>
      </trkpt>
      <trkpt lat="44.49863" lon="2.51405">
        <ele>559.5</ele>
        <time>2011-06-04T14:09:01Z</time>
      </trkpt>
      <trkpt lat="44.49865" lon="2.51416">
        <ele>559.9</ele>
        <time>2011-06-04T14:09:03Z</time>
      </trkpt>
      <trkpt lat="44.49866" lon="2.51424">
        <ele>560.3</ele>
        <time>2011-06-04T14:09:05Z</time>
      </trkpt>
      <trkpt lat="44.49867" lon="2.51428">
        <ele>560.4</ele>
        <time>2011-06-04T14:09:06Z</time>
      </trkpt>
      <trkpt lat="44.49871" lon="2.51446">
        <ele>561.3</ele>
        <time>2011-06-04T14:09:11Z</time>
      </trkpt>
      <trkpt lat="44.49873" lon="2.51455">
        <ele>561.8</ele>
        <time>2011-06-04T14:09:14Z</time>
      </trkpt>
      <trkpt lat="44.49874" lon="2.51461">
        <ele>562</ele>
        <time>2011-06-04T14:09:16Z</time>
      </trkpt>
      <trkpt lat="44.49878" lon="2.51477">
        <ele>562.5</ele>
        <time>2011-06-04T14:09:22Z</time>
      </trkpt>
      <trkpt lat="44.49887" lon="2.51504">
        <ele>563.6</ele>
        <time>2011-06-04T14:09:34Z</time>
      </trkpt>
      <trkpt lat="44.49889" lon="2.51522">
        <ele>564.3</ele>
        <time>2011-06-04T14:09:42Z</time>
      </trkpt>
      <trkpt lat="44.49889" lon="2.51531">
        <ele>564.5</ele>
        <time>2011-06-04T14:09:46Z</time>
      </trkpt>
      <trkpt lat="44.49889" lon="2.5154">
        <ele>564.8</ele>
        <time>2011-06-04T14:09:50Z</time>
      </trkpt>
      <trkpt lat="44.49889" lon="2.51549">
        <ele>565</ele>
        <time>2011-06-04T14:09:54Z</time>
      </trkpt>
      <trkpt lat="44.4989" lon="2.51553">
        <ele>565.2</ele>
        <time>2011-06-04T14:09:56Z</time>
      </trkpt>
      <trkpt lat="44.49891" lon="2.51561">
        <ele>565.5</ele>
        <time>2011-06-04T14:10:00Z</time>
      </trkpt>
      <trkpt lat="44.49892" lon="2.51574">
        <ele>565.9</ele>
        <time>2011-06-04T14:10:06Z</time>
      </trkpt>
      <trkpt lat="44.49892" lon="2.51594">
        <ele>566.6</ele>
        <time>2011-06-04T14:10:15Z</time>
      </trkpt>
      <trkpt lat="44.4989" lon="2.51613">
        <ele>567.6</ele>
        <time>2011-06-04T14:10:24Z</time>
      </trkpt>
      <trkpt lat="44.49891" lon="2.51622">
        <ele>568</ele>
        <time>2011-06-04T14:10:28Z</time>
      </trkpt>
      <trkpt lat="44.4989" lon="2.51627">
        <ele>568.3</ele>
        <time>2011-06-04T14:10:30Z</time>
      </trkpt>
      <trkpt lat="44.49889" lon="2.51653">
        <ele>569.6</ele>
        <time>2011-06-04T14:10:42Z</time>
      </trkpt>
      <trkpt lat="44.49892" lon="2.51686">
        <ele>571.1</ele>
        <time>2011-06-04T14:10:57Z</time>
      </trkpt>
      <trkpt lat="44.49892" lon="2.5169">
        <ele>571.3</ele>
        <time>2011-06-04T14:10:59Z</time>
      </trkpt>
      <trkpt lat="44.49895" lon="2.51699">
        <ele>571.8</ele>
        <time>2011-06-04T14:11:03Z</time>
      </trkpt>
      <trkpt lat="44.49897" lon="2.51719">
        <ele>572.6</ele>
        <time>2011-06-04T14:11:11Z</time>
      </trkpt>
      <trkpt lat="44.49898" lon="2.51728">
        <ele>572.9</ele>
        <time>2011-06-04T14:11:15Z</time>
      </trkpt>
      <trkpt lat="44.49899" lon="2.5174">
        <ele>573.4</ele>
        <time>2011-06-04T14:11:20Z</time>
      </trkpt>
      <trkpt lat="44.49899" lon="2.51748">
        <ele>573.7</ele>
        <time>2011-06-04T14:11:23Z</time>
      </trkpt>
      <trkpt lat="44.499" lon="2.51753">
        <ele>573.9</ele>
        <time>2011-06-04T14:11:25Z</time>
      </trkpt>
      <trkpt lat="44.49899" lon="2.51796">
        <ele>575</ele>
        <time>2011-06-04T14:11:41Z</time>
      </trkpt>
      <trkpt lat="44.49898" lon="2.51835">
        <ele>576.1</ele>
        <time>2011-06-04T14:11:54Z</time>
      </trkpt>
      <trkpt lat="44.49898" lon="2.51855">
        <ele>577.1</ele>
        <time>2011-06-04T14:12:00Z</time>
      </trkpt>
      <trkpt lat="44.49898" lon="2.51861">
        <ele>577.5</ele>
        <time>2011-06-04T14:12:02Z</time>
      </trkpt>
      <trkpt lat="44.499" lon="2.51881">
        <ele>578.6</ele>
        <time>2011-06-04T14:12:08Z</time>
      </trkpt>
      <trkpt lat="44.49899" lon="2.51899">
        <ele>579.6</ele>
        <time>2011-06-04T14:12:13Z</time>
      </trkpt>
      <trkpt lat="44.49898" lon="2.51905">
        <ele>579.9</ele>
        <time>2011-06-04T14:12:15Z</time>
      </trkpt>
      <trkpt lat="44.49897" lon="2.51927">
        <ele>580.9</ele>
        <time>2011-06-04T14:12:21Z</time>
      </trkpt>
      <trkpt lat="44.49896" lon="2.51931">
        <ele>581</ele>
        <time>2011-06-04T14:12:22Z</time>
      </trkpt>
      <trkpt lat="44.49894" lon="2.51955">
        <ele>581.8</ele>
        <time>2011-06-04T14:12:28Z</time>
      </trkpt>
      <trkpt lat="44.49894" lon="2.5197">
        <ele>582.3</ele>
        <time>2011-06-04T14:12:32Z</time>
      </trkpt>
      <trkpt lat="44.49894" lon="2.51979">
        <ele>582.7</ele>
        <time>2011-06-04T14:12:35Z</time>
      </trkpt>
      <trkpt lat="44.49895" lon="2.52">
        <ele>583.5</ele>
        <time>2011-06-04T14:12:41Z</time>
      </trkpt>
      <trkpt lat="44.49896" lon="2.52009">
        <ele>583.7</ele>
        <time>2011-06-04T14:12:43Z</time>
      </trkpt>
      <trkpt lat="44.49898" lon="2.52025">
        <ele>584.2</ele>
        <time>2011-06-04T14:12:47Z</time>
      </trkpt>
      <trkpt lat="44.49899" lon="2.52038">
        <ele>584.5</ele>
        <time>2011-06-04T14:12:50Z</time>
      </trkpt>
      <trkpt lat="44.49899" lon="2.52047">
        <ele>584.7</ele>
        <time>2011-06-04T14:12:52Z</time>
      </trkpt>
      <trkpt lat="44.499" lon="2.52055">
        <ele>584.9</ele>
        <time>2011-06-04T14:12:54Z</time>
      </trkpt>
      <trkpt lat="44.49901" lon="2.52068">
        <ele>585.2</ele>
        <time>2011-06-04T14:12:57Z</time>
      </trkpt>
      <trkpt lat="44.49902" lon="2.52081">
        <ele>585.6</ele>
        <time>2011-06-04T14:13:00Z</time>
      </trkpt>
      <trkpt lat="44.49902" lon="2.5209">
        <ele>585.7</ele>
        <time>2011-06-04T14:13:02Z</time>
      </trkpt>
      <trkpt lat="44.49904" lon="2.52117">
        <ele>586</ele>
        <time>2011-06-04T14:13:08Z</time>
      </trkpt>
      <trkpt lat="44.49905" lon="2.52126">
        <ele>586.1</ele>
        <time>2011-06-04T14:13:10Z</time>
      </trkpt>
      <trkpt lat="44.4991" lon="2.52151">
        <ele>586.5</ele>
        <time>2011-06-04T14:13:15Z</time>
      </trkpt>
      <trkpt lat="44.49911" lon="2.52162">
        <ele>586.7</ele>
        <time>2011-06-04T14:13:17Z</time>
      </trkpt>
      <trkpt lat="44.49912" lon="2.52173">
        <ele>586.6</ele>
        <time>2011-06-04T14:13:19Z</time>
      </trkpt>
      <trkpt lat="44.49913" lon="2.52184">
        <ele>586.4</ele>
        <time>2011-06-04T14:13:21Z</time>
      </trkpt>
      <trkpt lat="44.49916" lon="2.52198">
        <ele>586.2</ele>
        <time>2011-06-04T14:13:23Z</time>
      </trkpt>
      <trkpt lat="44.49925" lon="2.52228">
        <ele>586.4</ele>
        <time>2011-06-04T14:13:27Z</time>
      </trkpt>
      <trkpt lat="44.49927" lon="2.52235">
        <ele>586.5</ele>
        <time>2011-06-04T14:13:28Z</time>
      </trkpt>
      <trkpt lat="44.49934" lon="2.52253">
        <ele>587.1</ele>
        <time>2011-06-04T14:13:31Z</time>
      </trkpt>
      <trkpt lat="44.49936" lon="2.52259">
        <ele>587.2</ele>
        <time>2011-06-04T14:13:32Z</time>
      </trkpt>
      <trkpt lat="44.49945" lon="2.52281">
        <ele>587.9</ele>
        <time>2011-06-04T14:13:37Z</time>
      </trkpt>
      <trkpt lat="44.49954" lon="2.52311">
        <ele>588.5</ele>
        <time>2011-06-04T14:13:44Z</time>
      </trkpt>
      <trkpt lat="44.4996" lon="2.52335">
        <ele>588.6</ele>
        <time>2011-06-04T14:13:49Z</time>
      </trkpt>
      <trkpt lat="44.49961" lon="2.5234">
        <ele>588.6</ele>
        <time>2011-06-04T14:13:50Z</time>
      </trkpt>
      <trkpt lat="44.49965" lon="2.52354">
        <ele>588.5</ele>
        <time>2011-06-04T14:13:53Z</time>
      </trkpt>
      <trkpt lat="44.49977" lon="2.52381">
        <ele>588.8</ele>
        <time>2011-06-04T14:13:59Z</time>
      </trkpt>
      <trkpt lat="44.4998" lon="2.5239">
        <ele>588.8</ele>
        <time>2011-06-04T14:14:01Z</time>
      </trkpt>
      <trkpt lat="44.49982" lon="2.52395">
        <ele>588.8</ele>
        <time>2011-06-04T14:14:02Z</time>
      </trkpt>
      <trkpt lat="44.49988" lon="2.52424">
        <ele>588.7</ele>
        <time>2011-06-04T14:14:08Z</time>
      </trkpt>
      <trkpt lat="44.49997" lon="2.52454">
        <ele>590.1</ele>
        <time>2011-06-04T14:14:15Z</time>
      </trkpt>
      <trkpt lat="44.50002" lon="2.5247">
        <ele>590.6</ele>
        <time>2011-06-04T14:14:19Z</time>
      </trkpt>
      <trkpt lat="44.5001" lon="2.52506">
        <ele>591.1</ele>
        <time>2011-06-04T14:14:25Z</time>
      </trkpt>
      <trkpt lat="44.50012" lon="2.52521">
        <ele>591.4</ele>
        <time>2011-06-04T14:14:27Z</time>
      </trkpt>
      <trkpt lat="44.50012" lon="2.52529">
        <ele>591.5</ele>
        <time>2011-06-04T14:14:28Z</time>
      </trkpt>
      <trkpt lat="44.50009" lon="2.52563">
        <ele>592</ele>
        <time>2011-06-04T14:14:33Z</time>
      </trkpt>
      <trkpt lat="44.50006" lon="2.52576">
        <ele>592.1</ele>
        <time>2011-06-04T14:14:35Z</time>
      </trkpt>
      <trkpt lat="44.50005" lon="2.52582">
        <ele>592.1</ele>
        <time>2011-06-04T14:14:36Z</time>
      </trkpt>
      <trkpt lat="44.50002" lon="2.52587">
        <ele>592.2</ele>
        <time>2011-06-04T14:14:37Z</time>
      </trkpt>
      <trkpt lat="44.49992" lon="2.5261">
        <ele>591.6</ele>
        <time>2011-06-04T14:14:42Z</time>
      </trkpt>
      <trkpt lat="44.49984" lon="2.52631">
        <ele>591.1</ele>
        <time>2011-06-04T14:14:47Z</time>
      </trkpt>
      <trkpt lat="44.49977" lon="2.52657">
        <ele>590.9</ele>
        <time>2011-06-04T14:14:53Z</time>
      </trkpt>
      <trkpt lat="44.49974" lon="2.52671">
        <ele>591</ele>
        <time>2011-06-04T14:14:56Z</time>
      </trkpt>
      <trkpt lat="44.49971" lon="2.52691">
        <ele>591.5</ele>
        <time>2011-06-04T14:15:00Z</time>
      </trkpt>
      <trkpt lat="44.4997" lon="2.52719">
        <ele>592.4</ele>
        <time>2011-06-04T14:15:06Z</time>
      </trkpt>
      <trkpt lat="44.4997" lon="2.52724">
        <ele>592.6</ele>
        <time>2011-06-04T14:15:07Z</time>
      </trkpt>
      <trkpt lat="44.49967" lon="2.5275">
        <ele>593.3</ele>
        <time>2011-06-04T14:15:12Z</time>
      </trkpt>
      <trkpt lat="44.49967" lon="2.52759">
        <ele>593.1</ele>
        <time>2011-06-04T14:15:14Z</time>
      </trkpt>
      <trkpt lat="44.49966" lon="2.52769">
        <ele>592.8</ele>
        <time>2011-06-04T14:15:16Z</time>
      </trkpt>
      <trkpt lat="44.49965" lon="2.52789">
        <ele>592.4</ele>
        <time>2011-06-04T14:15:20Z</time>
      </trkpt>
      <trkpt lat="44.49965" lon="2.52794">
        <ele>592.3</ele>
        <time>2011-06-04T14:15:21Z</time>
      </trkpt>
      <trkpt lat="44.49964" lon="2.52804">
        <ele>591.9</ele>
        <time>2011-06-04T14:15:23Z</time>
      </trkpt>
      <trkpt lat="44.49962" lon="2.52828">
        <ele>591.4</ele>
        <time>2011-06-04T14:15:28Z</time>
      </trkpt>
      <trkpt lat="44.49961" lon="2.52838">
        <ele>591.3</ele>
        <time>2011-06-04T14:15:30Z</time>
      </trkpt>
      <trkpt lat="44.4996" lon="2.52857">
        <ele>591.3</ele>
        <time>2011-06-04T14:15:34Z</time>
      </trkpt>
      <trkpt lat="44.4996" lon="2.5288">
        <ele>591.4</ele>
        <time>2011-06-04T14:15:39Z</time>
      </trkpt>
      <trkpt lat="44.49959" lon="2.52893">
        <ele>591.4</ele>
        <time>2011-06-04T14:15:42Z</time>
      </trkpt>
      <trkpt lat="44.49958" lon="2.52916">
        <ele>591.5</ele>
        <time>2011-06-04T14:15:47Z</time>
      </trkpt>
      <trkpt lat="44.49959" lon="2.52939">
        <ele>590.5</ele>
        <time>2011-06-04T14:15:52Z</time>
      </trkpt>
      <trkpt lat="44.4996" lon="2.52972">
        <ele>588.9</ele>
        <time>2011-06-04T14:15:59Z</time>
      </trkpt>
      <trkpt lat="44.4996" lon="2.52976">
        <ele>588.7</ele>
        <time>2011-06-04T14:16:00Z</time>
      </trkpt>
      <trkpt lat="44.4996" lon="2.53004">
        <ele>587.3</ele>
        <time>2011-06-04T14:16:06Z</time>
      </trkpt>
      <trkpt lat="44.49962" lon="2.53022">
        <ele>586.6</ele>
        <time>2011-06-04T14:16:10Z</time>
      </trkpt>
      <trkpt lat="44.49965" lon="2.53038">
        <ele>585.7</ele>
        <time>2011-06-04T14:16:14Z</time>
      </trkpt>
      <trkpt lat="44.49972" lon="2.53068">
        <ele>583.6</ele>
        <time>2011-06-04T14:16:22Z</time>
      </trkpt>
      <trkpt lat="44.49979" lon="2.53092">
        <ele>581</ele>
        <time>2011-06-04T14:16:29Z</time>
      </trkpt>
      <trkpt lat="44.49982" lon="2.53099">
        <ele>580.1</ele>
        <time>2011-06-04T14:16:31Z</time>
      </trkpt>
      <trkpt lat="44.49985" lon="2.53109">
        <ele>578.7</ele>
        <time>2011-06-04T14:16:34Z</time>
      </trkpt>
      <trkpt lat="44.49992" lon="2.53123">
        <ele>576.3</ele>
        <time>2011-06-04T14:16:39Z</time>
      </trkpt>
      <trkpt lat="44.49996" lon="2.53133">
        <ele>574.5</ele>
        <time>2011-06-04T14:16:43Z</time>
      </trkpt>
      <trkpt lat="44.49999" lon="2.53144">
        <ele>572.7</ele>
        <time>2011-06-04T14:16:47Z</time>
      </trkpt>
      <trkpt lat="44.50002" lon="2.53159">
        <ele>569.8</ele>
        <time>2011-06-04T14:16:53Z</time>
      </trkpt>
      <trkpt lat="44.50004" lon="2.53168">
        <ele>568.4</ele>
        <time>2011-06-04T14:16:56Z</time>
      </trkpt>
      <trkpt lat="44.50006" lon="2.53175">
        <ele>567.7</ele>
        <time>2011-06-04T14:16:58Z</time>
      </trkpt>
      <trkpt lat="44.50006" lon="2.53183">
        <ele>567.6</ele>
        <time>2011-06-04T14:17:00Z</time>
      </trkpt>
      <trkpt lat="44.50004" lon="2.53206">
        <ele>568.9</ele>
        <time>2011-06-04T14:17:05Z</time>
      </trkpt>
      <trkpt lat="44.49997" lon="2.53233">
        <ele>571.4</ele>
        <time>2011-06-04T14:17:10Z</time>
      </trkpt>
      <trkpt lat="44.49996" lon="2.53239">
        <ele>571.8</ele>
        <time>2011-06-04T14:17:11Z</time>
      </trkpt>
      <trkpt lat="44.4999" lon="2.53265">
        <ele>574</ele>
        <time>2011-06-04T14:17:15Z</time>
      </trkpt>
      <trkpt lat="44.49989" lon="2.53271">
        <ele>574.7</ele>
        <time>2011-06-04T14:17:16Z</time>
      </trkpt>
      <trkpt lat="44.49985" lon="2.53293">
        <ele>576.8</ele>
        <time>2011-06-04T14:17:19Z</time>
      </trkpt>
      <trkpt lat="44.49977" lon="2.53327">
        <ele>579.8</ele>
        <time>2011-06-04T14:17:23Z</time>
      </trkpt>
      <trkpt lat="44.49962" lon="2.53381">
        <ele>584.8</ele>
        <time>2011-06-04T14:17:29Z</time>
      </trkpt>
      <trkpt lat="44.49957" lon="2.53401">
        <ele>586</ele>
        <time>2011-06-04T14:17:31Z</time>
      </trkpt>
      <trkpt lat="44.49939" lon="2.53481">
        <ele>586</ele>
        <time>2011-06-04T14:17:38Z</time>
      </trkpt>
      <trkpt lat="44.49925" lon="2.53546">
        <ele>583</ele>
        <time>2011-06-04T14:17:43Z</time>
      </trkpt>
      <trkpt lat="44.49906" lon="2.53626">
        <ele>577.6</ele>
        <time>2011-06-04T14:17:49Z</time>
      </trkpt>
      <trkpt lat="44.49896" lon="2.53665">
        <ele>574.6</ele>
        <time>2011-06-04T14:17:52Z</time>
      </trkpt>
      <trkpt lat="44.49875" lon="2.53751">
        <ele>571.5</ele>
        <time>2011-06-04T14:17:59Z</time>
      </trkpt>
      <trkpt lat="44.49873" lon="2.53763">
        <ele>571.4</ele>
        <time>2011-06-04T14:18:00Z</time>
      </trkpt>
      <trkpt lat="44.49855" lon="2.53845">
        <ele>570.2</ele>
        <time>2011-06-04T14:18:07Z</time>
      </trkpt>
      <trkpt lat="44.49844" lon="2.5389">
        <ele>569.7</ele>
        <time>2011-06-04T14:18:11Z</time>
      </trkpt>
      <trkpt lat="44.49837" lon="2.53924">
        <ele>569.2</ele>
        <time>2011-06-04T14:18:14Z</time>
      </trkpt>
      <trkpt lat="44.49819" lon="2.53993">
        <ele>565.6</ele>
        <time>2011-06-04T14:18:20Z</time>
      </trkpt>
      <trkpt lat="44.49813" lon="2.54017">
        <ele>563.9</ele>
        <time>2011-06-04T14:18:22Z</time>
      </trkpt>
      <trkpt lat="44.49802" lon="2.54051">
        <ele>561.2</ele>
        <time>2011-06-04T14:18:25Z</time>
      </trkpt>
      <trkpt lat="44.49798" lon="2.54062">
        <ele>560.5</ele>
        <time>2011-06-04T14:18:26Z</time>
      </trkpt>
      <trkpt lat="44.49793" lon="2.54085">
        <ele>559</ele>
        <time>2011-06-04T14:18:28Z</time>
      </trkpt>
      <trkpt lat="44.49782" lon="2.54143">
        <ele>557.2</ele>
        <time>2011-06-04T14:18:33Z</time>
      </trkpt>
      <trkpt lat="44.49781" lon="2.54154">
        <ele>556.8</ele>
        <time>2011-06-04T14:18:34Z</time>
      </trkpt>
      <trkpt lat="44.49779" lon="2.54178">
        <ele>556.2</ele>
        <time>2011-06-04T14:18:36Z</time>
      </trkpt>
      <trkpt lat="44.49779" lon="2.54244">
        <ele>554.9</ele>
        <time>2011-06-04T14:18:42Z</time>
      </trkpt>
      <trkpt lat="44.49778" lon="2.54254">
        <ele>554.7</ele>
        <time>2011-06-04T14:18:43Z</time>
      </trkpt>
      <trkpt lat="44.49776" lon="2.54273">
        <ele>554.2</ele>
        <time>2011-06-04T14:18:45Z</time>
      </trkpt>
      <trkpt lat="44.49764" lon="2.54319">
        <ele>552.5</ele>
        <time>2011-06-04T14:18:50Z</time>
      </trkpt>
      <trkpt lat="44.49762" lon="2.54328">
        <ele>552.2</ele>
        <time>2011-06-04T14:18:51Z</time>
      </trkpt>
      <trkpt lat="44.49758" lon="2.54374">
        <ele>551.7</ele>
        <time>2011-06-04T14:18:56Z</time>
      </trkpt>
      <trkpt lat="44.49749" lon="2.54414">
        <ele>550.9</ele>
        <time>2011-06-04T14:19:01Z</time>
      </trkpt>
      <trkpt lat="44.49741" lon="2.54458">
        <ele>549.7</ele>
        <time>2011-06-04T14:19:07Z</time>
      </trkpt>
      <trkpt lat="44.4974" lon="2.54464">
        <ele>549.5</ele>
        <time>2011-06-04T14:19:08Z</time>
      </trkpt>
      <trkpt lat="44.49736" lon="2.54495">
        <ele>548.8</ele>
        <time>2011-06-04T14:19:13Z</time>
      </trkpt>
      <trkpt lat="44.49734" lon="2.54505">
        <ele>548.6</ele>
        <time>2011-06-04T14:19:15Z</time>
      </trkpt>
      <trkpt lat="44.49732" lon="2.54525">
        <ele>548.7</ele>
        <time>2011-06-04T14:19:19Z</time>
      </trkpt>
      <trkpt lat="44.49731" lon="2.5453">
        <ele>548.7</ele>
        <time>2011-06-04T14:19:20Z</time>
      </trkpt>
      <trkpt lat="44.49729" lon="2.54563">
        <ele>549.1</ele>
        <time>2011-06-04T14:19:27Z</time>
      </trkpt>
      <trkpt lat="44.49726" lon="2.54582">
        <ele>549.2</ele>
        <time>2011-06-04T14:19:31Z</time>
      </trkpt>
      <trkpt lat="44.49725" lon="2.54592">
        <ele>549.2</ele>
        <time>2011-06-04T14:19:33Z</time>
      </trkpt>
      <trkpt lat="44.49724" lon="2.54618">
        <ele>549.1</ele>
        <time>2011-06-04T14:19:38Z</time>
      </trkpt>
      <trkpt lat="44.49721" lon="2.54642">
        <ele>548.9</ele>
        <time>2011-06-04T14:19:43Z</time>
      </trkpt>
      <trkpt lat="44.49717" lon="2.5466">
        <ele>548.8</ele>
        <time>2011-06-04T14:19:47Z</time>
      </trkpt>
      <trkpt lat="44.49709" lon="2.54687">
        <ele>548.5</ele>
        <time>2011-06-04T14:19:53Z</time>
      </trkpt>
      <trkpt lat="44.497" lon="2.5471">
        <ele>548.4</ele>
        <time>2011-06-04T14:19:59Z</time>
      </trkpt>
      <trkpt lat="44.49694" lon="2.54724">
        <ele>548.5</ele>
        <time>2011-06-04T14:20:03Z</time>
      </trkpt>
      <trkpt lat="44.49692" lon="2.54728">
        <ele>548.5</ele>
        <time>2011-06-04T14:20:04Z</time>
      </trkpt>
      <trkpt lat="44.49686" lon="2.5474">
        <ele>548.6</ele>
        <time>2011-06-04T14:20:07Z</time>
      </trkpt>
      <trkpt lat="44.49683" lon="2.54748">
        <ele>548.8</ele>
        <time>2011-06-04T14:20:09Z</time>
      </trkpt>
      <trkpt lat="44.49678" lon="2.54772">
        <ele>548.1</ele>
        <time>2011-06-04T14:20:15Z</time>
      </trkpt>
      <trkpt lat="44.49672" lon="2.54802">
        <ele>547.1</ele>
        <time>2011-06-04T14:20:22Z</time>
      </trkpt>
      <trkpt lat="44.49665" lon="2.54829">
        <ele>546.2</ele>
        <time>2011-06-04T14:20:28Z</time>
      </trkpt>
      <trkpt lat="44.49664" lon="2.54833">
        <ele>546</ele>
        <time>2011-06-04T14:20:29Z</time>
      </trkpt>
      <trkpt lat="44.49656" lon="2.54869">
        <ele>544</ele>
        <time>2011-06-04T14:20:37Z</time>
      </trkpt>
      <trkpt lat="44.49653" lon="2.54879">
        <ele>543.5</ele>
        <time>2011-06-04T14:20:39Z</time>
      </trkpt>
      <trkpt lat="44.4964" lon="2.54911">
        <ele>542</ele>
        <time>2011-06-04T14:20:46Z</time>
      </trkpt>
      <trkpt lat="44.49636" lon="2.5492">
        <ele>541.8</ele>
        <time>2011-06-04T14:20:48Z</time>
      </trkpt>
      <trkpt lat="44.49624" lon="2.5494">
        <ele>542</ele>
        <time>2011-06-04T14:20:53Z</time>
      </trkpt>
      <trkpt lat="44.49619" lon="2.54948">
        <ele>542</ele>
        <time>2011-06-04T14:20:55Z</time>
      </trkpt>
      <trkpt lat="44.49612" lon="2.54959">
        <ele>542</ele>
        <time>2011-06-04T14:20:58Z</time>
      </trkpt>
      <trkpt lat="44.49608" lon="2.54968">
        <ele>541.9</ele>
        <time>2011-06-04T14:21:00Z</time>
      </trkpt>
      <trkpt lat="44.49601" lon="2.54988">
        <ele>541.6</ele>
        <time>2011-06-04T14:21:05Z</time>
      </trkpt>
      <trkpt lat="44.49592" lon="2.55008">
        <ele>541.6</ele>
        <time>2011-06-04T14:21:10Z</time>
      </trkpt>
      <trkpt lat="44.49584" lon="2.55035">
        <ele>542.6</ele>
        <time>2011-06-04T14:21:16Z</time>
      </trkpt>
      <trkpt lat="44.4958" lon="2.55052">
        <ele>543.5</ele>
        <time>2011-06-04T14:21:20Z</time>
      </trkpt>
      <trkpt lat="44.49579" lon="2.55061">
        <ele>543.9</ele>
        <time>2011-06-04T14:21:22Z</time>
      </trkpt>
      <trkpt lat="44.49578" lon="2.55071">
        <ele>544.3</ele>
        <time>2011-06-04T14:21:24Z</time>
      </trkpt>
      <trkpt lat="44.49577" lon="2.55084">
        <ele>544.9</ele>
        <time>2011-06-04T14:21:27Z</time>
      </trkpt>
      <trkpt lat="44.49574" lon="2.55096">
        <ele>545.5</ele>
        <time>2011-06-04T14:21:30Z</time>
      </trkpt>
      <trkpt lat="44.49572" lon="2.55107">
        <ele>545.9</ele>
        <time>2011-06-04T14:21:33Z</time>
      </trkpt>
      <trkpt lat="44.49565" lon="2.55134">
        <ele>547</ele>
        <time>2011-06-04T14:21:40Z</time>
      </trkpt>
      <trkpt lat="44.4956" lon="2.55148">
        <ele>547.6</ele>
        <time>2011-06-04T14:21:44Z</time>
      </trkpt>
      <trkpt lat="44.49558" lon="2.55156">
        <ele>547.9</ele>
        <time>2011-06-04T14:21:46Z</time>
      </trkpt>
      <trkpt lat="44.49553" lon="2.55173">
        <ele>548.4</ele>
        <time>2011-06-04T14:21:51Z</time>
      </trkpt>
      <trkpt lat="44.49546" lon="2.5519">
        <ele>548.6</ele>
        <time>2011-06-04T14:21:58Z</time>
      </trkpt>
      <trkpt lat="44.49545" lon="2.55196">
        <ele>548.7</ele>
        <time>2011-06-04T14:22:01Z</time>
      </trkpt>
      <trkpt lat="44.49556" lon="2.55224">
        <ele>549.5</ele>
        <time>2011-06-04T14:22:17Z</time>
      </trkpt>
      <trkpt lat="44.49563" lon="2.55236">
        <ele>549.7</ele>
        <time>2011-06-04T14:22:24Z</time>
      </trkpt>
      <trkpt lat="44.49566" lon="2.55238">
        <ele>549.8</ele>
        <time>2011-06-04T14:22:26Z</time>
      </trkpt>
      <trkpt lat="44.49572" lon="2.55239">
        <ele>549.8</ele>
        <time>2011-06-04T14:22:30Z</time>
      </trkpt>
      <trkpt lat="44.49591" lon="2.55237">
        <ele>549.3</ele>
        <time>2011-06-04T14:22:42Z</time>
      </trkpt>
      <trkpt lat="44.49595" lon="2.55236">
        <ele>549</ele>
        <time>2011-06-04T14:22:44Z</time>
      </trkpt>
      <trkpt lat="44.49614" lon="2.55229">
        <ele>547.7</ele>
        <time>2011-06-04T14:22:55Z</time>
      </trkpt>
      <trkpt lat="44.49626" lon="2.55223">
        <ele>547.1</ele>
        <time>2011-06-04T14:23:01Z</time>
      </trkpt>
      <trkpt lat="44.49643" lon="2.55218">
        <ele>546.2</ele>
        <time>2011-06-04T14:23:10Z</time>
      </trkpt>
      <trkpt lat="44.49655" lon="2.55214">
        <ele>545.8</ele>
        <time>2011-06-04T14:23:16Z</time>
      </trkpt>
      <trkpt lat="44.49666" lon="2.55209">
        <ele>545.5</ele>
        <time>2011-06-04T14:23:21Z</time>
      </trkpt>
      <trkpt lat="44.4968" lon="2.55203">
        <ele>546.2</ele>
        <time>2011-06-04T14:23:26Z</time>
      </trkpt>
      <trkpt lat="44.49695" lon="2.55193">
        <ele>546.9</ele>
        <time>2011-06-04T14:23:32Z</time>
      </trkpt>
      <trkpt lat="44.49712" lon="2.55183">
        <ele>547.5</ele>
        <time>2011-06-04T14:23:38Z</time>
      </trkpt>
      <trkpt lat="44.49717" lon="2.5518">
        <ele>547.6</ele>
        <time>2011-06-04T14:23:40Z</time>
      </trkpt>
      <trkpt lat="44.49733" lon="2.55174">
        <ele>547.9</ele>
        <time>2011-06-04T14:23:45Z</time>
      </trkpt>
      <trkpt lat="44.49738" lon="2.55171">
        <ele>547.9</ele>
        <time>2011-06-04T14:23:47Z</time>
      </trkpt>
      <trkpt lat="44.49754" lon="2.55164">
        <ele>548.2</ele>
        <time>2011-06-04T14:23:53Z</time>
      </trkpt>
      <trkpt lat="44.49762" lon="2.55161">
        <ele>548.3</ele>
        <time>2011-06-04T14:23:57Z</time>
      </trkpt>
      <trkpt lat="44.49768" lon="2.55165">
        <ele>548.1</ele>
        <time>2011-06-04T14:24:01Z</time>
      </trkpt>
      <trkpt lat="44.49783" lon="2.55182">
        <ele>547.8</ele>
        <time>2011-06-04T14:24:10Z</time>
      </trkpt>
      <trkpt lat="44.49787" lon="2.55187">
        <ele>547.8</ele>
        <time>2011-06-04T14:24:12Z</time>
      </trkpt>
      <trkpt lat="44.4979" lon="2.55192">
        <ele>547.7</ele>
        <time>2011-06-04T14:24:14Z</time>
      </trkpt>
      <trkpt lat="44.49791" lon="2.55197">
        <ele>547.6</ele>
        <time>2011-06-04T14:24:16Z</time>
      </trkpt>
      <trkpt lat="44.49794" lon="2.55213">
        <ele>547.5</ele>
        <time>2011-06-04T14:24:21Z</time>
      </trkpt>
      <trkpt lat="44.49796" lon="2.55233">
        <ele>547.2</ele>
        <time>2011-06-04T14:24:27Z</time>
      </trkpt>
      <trkpt lat="44.49799" lon="2.5524">
        <ele>547.1</ele>
        <time>2011-06-04T14:24:29Z</time>
      </trkpt>
      <trkpt lat="44.49806" lon="2.55253">
        <ele>546.9</ele>
        <time>2011-06-04T14:24:33Z</time>
      </trkpt>
      <trkpt lat="44.49816" lon="2.55274">
        <ele>546.6</ele>
        <time>2011-06-04T14:24:38Z</time>
      </trkpt>
      <trkpt lat="44.49819" lon="2.55278">
        <ele>546.6</ele>
        <time>2011-06-04T14:24:39Z</time>
      </trkpt>
      <trkpt lat="44.49832" lon="2.55291">
        <ele>546.5</ele>
        <time>2011-06-04T14:24:44Z</time>
      </trkpt>
      <trkpt lat="44.49843" lon="2.55304">
        <ele>547.4</ele>
        <time>2011-06-04T14:24:48Z</time>
      </trkpt>
      <trkpt lat="44.49852" lon="2.55312">
        <ele>548.6</ele>
        <time>2011-06-04T14:24:52Z</time>
      </trkpt>
      <trkpt lat="44.49861" lon="2.55319">
        <ele>549.6</ele>
        <time>2011-06-04T14:24:56Z</time>
      </trkpt>
      <trkpt lat="44.49876" lon="2.55327">
        <ele>551.6</ele>
        <time>2011-06-04T14:25:04Z</time>
      </trkpt>
      <trkpt lat="44.49894" lon="2.55338">
        <ele>554.3</ele>
        <time>2011-06-04T14:25:18Z</time>
      </trkpt>
      <trkpt lat="44.49912" lon="2.5535">
        <ele>557.1</ele>
        <time>2011-06-04T14:25:27Z</time>
      </trkpt>
      <trkpt lat="44.49931" lon="2.55362">
        <ele>560.1</ele>
        <time>2011-06-04T14:25:39Z</time>
      </trkpt>
      <trkpt lat="44.49937" lon="2.55366">
        <ele>560.9</ele>
        <time>2011-06-04T14:25:43Z</time>
      </trkpt>
      <trkpt lat="44.49948" lon="2.55373">
        <ele>562.5</ele>
        <time>2011-06-04T14:25:51Z</time>
      </trkpt>
      <trkpt lat="44.49958" lon="2.55379">
        <ele>563.8</ele>
        <time>2011-06-04T14:25:57Z</time>
      </trkpt>
      <trkpt lat="44.49969" lon="2.55386">
        <ele>565.3</ele>
        <time>2011-06-04T14:26:05Z</time>
      </trkpt>
      <trkpt lat="44.49981" lon="2.55393">
        <ele>566.7</ele>
        <time>2011-06-04T14:26:14Z</time>
      </trkpt>
      <trkpt lat="44.49989" lon="2.55398">
        <ele>567.6</ele>
        <time>2011-06-04T14:26:20Z</time>
      </trkpt>
      <trkpt lat="44.49995" lon="2.55403">
        <ele>568.3</ele>
        <time>2011-06-04T14:26:25Z</time>
      </trkpt>
      <trkpt lat="44.49998" lon="2.55408">
        <ele>568.7</ele>
        <time>2011-06-04T14:26:28Z</time>
      </trkpt>
      <trkpt lat="44.5" lon="2.55413">
        <ele>569</ele>
        <time>2011-06-04T14:26:31Z</time>
      </trkpt>
      <trkpt lat="44.50002" lon="2.55429">
        <ele>569</ele>
        <time>2011-06-04T14:26:40Z</time>
      </trkpt>
      <trkpt lat="44.50001" lon="2.55435">
        <ele>569</ele>
        <time>2011-06-04T14:26:47Z</time>
      </trkpt>
      <trkpt lat="44.50003" lon="2.5543">
        <ele>568.9</ele>
        <time>2011-06-04T14:27:27Z</time>
      </trkpt>
      <trkpt lat="44.5" lon="2.55435">
        <ele>569</ele>
        <time>2011-06-04T14:27:58Z</time>
      </trkpt>
      <trkpt lat="44.49996" lon="2.55438">
        <ele>568.6</ele>
        <time>2011-06-04T14:29:54Z</time>
      </trkpt>
      <trkpt lat="44.49997" lon="2.55432">
        <ele>568.7</ele>
        <time>2011-06-04T14:33:20Z</time>
      </trkpt>
      <trkpt lat="44.50001" lon="2.55436">
        <ele>569</ele>
        <time>2011-06-04T14:36:40Z</time>
      </trkpt>
      <trkpt lat="44.50006" lon="2.55434">
        <ele>568.9</ele>
        <time>2011-06-04T14:36:51Z</time>
      </trkpt>
      <trkpt lat="44.50007" lon="2.55428">
        <ele>568.9</ele>
        <time>2011-06-04T14:36:54Z</time>
      </trkpt>
      <trkpt lat="44.50015" lon="2.55408">
        <ele>568.6</ele>
        <time>2011-06-04T14:37:05Z</time>
      </trkpt>
      <trkpt lat="44.50025" lon="2.55387">
        <ele>568.4</ele>
        <time>2011-06-04T14:37:15Z</time>
      </trkpt>
      <trkpt lat="44.5003" lon="2.5538">
        <ele>568.3</ele>
        <time>2011-06-04T14:37:19Z</time>
      </trkpt>
      <trkpt lat="44.50033" lon="2.55376">
        <ele>568.3</ele>
        <time>2011-06-04T14:37:21Z</time>
      </trkpt>
      <trkpt lat="44.5004" lon="2.55373">
        <ele>568.3</ele>
        <time>2011-06-04T14:37:25Z</time>
      </trkpt>
      <trkpt lat="44.50047" lon="2.55375">
        <ele>568.2</ele>
        <time>2011-06-04T14:37:29Z</time>
      </trkpt>
      <trkpt lat="44.50051" lon="2.55388">
        <ele>568.1</ele>
        <time>2011-06-04T14:37:35Z</time>
      </trkpt>
      <trkpt lat="44.50052" lon="2.55398">
        <ele>568</ele>
        <time>2011-06-04T14:37:39Z</time>
      </trkpt>
      <trkpt lat="44.50056" lon="2.55402">
        <ele>567.8</ele>
        <time>2011-06-04T14:37:42Z</time>
      </trkpt>
      <trkpt lat="44.50061" lon="2.55405">
        <ele>567.7</ele>
        <time>2011-06-04T14:37:46Z</time>
      </trkpt>
      <trkpt lat="44.50067" lon="2.55407">
        <ele>567.6</ele>
        <time>2011-06-04T14:37:50Z</time>
      </trkpt>
      <trkpt lat="44.5007" lon="2.55407">
        <ele>567.5</ele>
        <time>2011-06-04T14:37:52Z</time>
      </trkpt>
      <trkpt lat="44.50083" lon="2.55404">
        <ele>567.3</ele>
        <time>2011-06-04T14:38:00Z</time>
      </trkpt>
      <trkpt lat="44.50092" lon="2.55403">
        <ele>564.9</ele>
        <time>2011-06-04T14:38:06Z</time>
      </trkpt>
      <trkpt lat="44.50099" lon="2.554">
        <ele>562.8</ele>
        <time>2011-06-04T14:38:11Z</time>
      </trkpt>
      <trkpt lat="44.50103" lon="2.55392">
        <ele>562</ele>
        <time>2011-06-04T14:38:16Z</time>
      </trkpt>
      <trkpt lat="44.50104" lon="2.55382">
        <ele>562.1</ele>
        <time>2011-06-04T14:38:20Z</time>
      </trkpt>
      <trkpt lat="44.50104" lon="2.55377">
        <ele>562.4</ele>
        <time>2011-06-04T14:38:22Z</time>
      </trkpt>
      <trkpt lat="44.50109" lon="2.55348">
        <ele>562.3</ele>
        <time>2011-06-04T14:38:32Z</time>
      </trkpt>
      <trkpt lat="44.5011" lon="2.55342">
        <ele>562.3</ele>
        <time>2011-06-04T14:38:34Z</time>
      </trkpt>
      <trkpt lat="44.50113" lon="2.55332">
        <ele>562.2</ele>
        <time>2011-06-04T14:38:38Z</time>
      </trkpt>
      <trkpt lat="44.50116" lon="2.55327">
        <ele>562.1</ele>
        <time>2011-06-04T14:38:40Z</time>
      </trkpt>
      <trkpt lat="44.50129" lon="2.55296">
        <ele>564.1</ele>
        <time>2011-06-04T14:38:52Z</time>
      </trkpt>
      <trkpt lat="44.50137" lon="2.55276">
        <ele>566.3</ele>
        <time>2011-06-04T14:39:00Z</time>
      </trkpt>
      <trkpt lat="44.50147" lon="2.55251">
        <ele>569.4</ele>
        <time>2011-06-04T14:39:10Z</time>
      </trkpt>
      <trkpt lat="44.50159" lon="2.55217">
        <ele>570.1</ele>
        <time>2011-06-04T14:39:24Z</time>
      </trkpt>
      <trkpt lat="44.5016" lon="2.55211">
        <ele>570.3</ele>
        <time>2011-06-04T14:39:26Z</time>
      </trkpt>
      <trkpt lat="44.5017" lon="2.55184">
        <ele>570.6</ele>
        <time>2011-06-04T14:39:36Z</time>
      </trkpt>
      <trkpt lat="44.50176" lon="2.55163">
        <ele>569.5</ele>
        <time>2011-06-04T14:39:43Z</time>
      </trkpt>
      <trkpt lat="44.50179" lon="2.55152">
        <ele>568.6</ele>
        <time>2011-06-04T14:39:47Z</time>
      </trkpt>
      <trkpt lat="44.50185" lon="2.55123">
        <ele>567.4</ele>
        <time>2011-06-04T14:39:57Z</time>
      </trkpt>
      <trkpt lat="44.5019" lon="2.5509">
        <ele>566.7</ele>
        <time>2011-06-04T14:40:09Z</time>
      </trkpt>
      <trkpt lat="44.50194" lon="2.5507">
        <ele>567.2</ele>
        <time>2011-06-04T14:40:17Z</time>
      </trkpt>
      <trkpt lat="44.50196" lon="2.55059">
        <ele>567.8</ele>
        <time>2011-06-04T14:40:23Z</time>
      </trkpt>
      <trkpt lat="44.50194" lon="2.55044">
        <ele>570.1</ele>
        <time>2011-06-04T14:40:30Z</time>
      </trkpt>
      <trkpt lat="44.50195" lon="2.55024">
        <ele>572.1</ele>
        <time>2011-06-04T14:40:39Z</time>
      </trkpt>
      <trkpt lat="44.50193" lon="2.55002">
        <ele>574.9</ele>
        <time>2011-06-04T14:40:49Z</time>
      </trkpt>
      <trkpt lat="44.50193" lon="2.54992">
        <ele>575.7</ele>
        <time>2011-06-04T14:40:53Z</time>
      </trkpt>
      <trkpt lat="44.50195" lon="2.5497">
        <ele>577.2</ele>
        <time>2011-06-04T14:41:04Z</time>
      </trkpt>
      <trkpt lat="44.50196" lon="2.54948">
        <ele>578.9</ele>
        <time>2011-06-04T14:41:16Z</time>
      </trkpt>
      <trkpt lat="44.50198" lon="2.54938">
        <ele>579.2</ele>
        <time>2011-06-04T14:41:22Z</time>
      </trkpt>
      <trkpt lat="44.50202" lon="2.54928">
        <ele>579</ele>
        <time>2011-06-04T14:41:28Z</time>
      </trkpt>
      <trkpt lat="44.50207" lon="2.54918">
        <ele>578.4</ele>
        <time>2011-06-04T14:41:34Z</time>
      </trkpt>
      <trkpt lat="44.50214" lon="2.54906">
        <ele>576.9</ele>
        <time>2011-06-04T14:41:41Z</time>
      </trkpt>
      <trkpt lat="44.50217" lon="2.54899">
        <ele>576</ele>
        <time>2011-06-04T14:41:45Z</time>
      </trkpt>
      <trkpt lat="44.50232" lon="2.54873">
        <ele>572.4</ele>
        <time>2011-06-04T14:41:56Z</time>
      </trkpt>
      <trkpt lat="44.5024" lon="2.54853">
        <ele>570.4</ele>
        <time>2011-06-04T14:42:04Z</time>
      </trkpt>
      <trkpt lat="44.50243" lon="2.54845">
        <ele>570</ele>
        <time>2011-06-04T14:42:08Z</time>
      </trkpt>
      <trkpt lat="44.50244" lon="2.54835">
        <ele>569.9</ele>
        <time>2011-06-04T14:42:12Z</time>
      </trkpt>
      <trkpt lat="44.50244" lon="2.54827">
        <ele>569.3</ele>
        <time>2011-06-04T14:42:14Z</time>
      </trkpt>
      <trkpt lat="44.50242" lon="2.54817">
        <ele>568.9</ele>
        <time>2011-06-04T14:42:16Z</time>
      </trkpt>
      <trkpt lat="44.50234" lon="2.5478">
        <ele>568.2</ele>
        <time>2011-06-04T14:42:21Z</time>
      </trkpt>
      <trkpt lat="44.50226" lon="2.54743">
        <ele>567</ele>
        <time>2011-06-04T14:42:25Z</time>
      </trkpt>
      <trkpt lat="44.50214" lon="2.54686">
        <ele>563.2</ele>
        <time>2011-06-04T14:42:30Z</time>
      </trkpt>
      <trkpt lat="44.50213" lon="2.54675">
        <ele>561.9</ele>
        <time>2011-06-04T14:42:31Z</time>
      </trkpt>
      <trkpt lat="44.50214" lon="2.54663">
        <ele>560.1</ele>
        <time>2011-06-04T14:42:32Z</time>
      </trkpt>
      <trkpt lat="44.50218" lon="2.54638">
        <ele>556.7</ele>
        <time>2011-06-04T14:42:34Z</time>
      </trkpt>
      <trkpt lat="44.5022" lon="2.54613">
        <ele>553.8</ele>
        <time>2011-06-04T14:42:36Z</time>
      </trkpt>
      <trkpt lat="44.5022" lon="2.54576">
        <ele>552.3</ele>
        <time>2011-06-04T14:42:39Z</time>
      </trkpt>
      <trkpt lat="44.50219" lon="2.54565">
        <ele>554</ele>
        <time>2011-06-04T14:42:40Z</time>
      </trkpt>
      <trkpt lat="44.50212" lon="2.54533">
        <ele>559.1</ele>
        <time>2011-06-04T14:42:43Z</time>
      </trkpt>
      <trkpt lat="44.50211" lon="2.54524">
        <ele>560.5</ele>
        <time>2011-06-04T14:42:44Z</time>
      </trkpt>
      <trkpt lat="44.5021" lon="2.54514">
        <ele>561.4</ele>
        <time>2011-06-04T14:42:45Z</time>
      </trkpt>
      <trkpt lat="44.5021" lon="2.54504">
        <ele>561.8</ele>
        <time>2011-06-04T14:42:46Z</time>
      </trkpt>
      <trkpt lat="44.50217" lon="2.54466">
        <ele>563.6</ele>
        <time>2011-06-04T14:42:50Z</time>
      </trkpt>
      <trkpt lat="44.5022" lon="2.54435">
        <ele>566.5</ele>
        <time>2011-06-04T14:42:54Z</time>
      </trkpt>
      <trkpt lat="44.50224" lon="2.54398">
        <ele>567.4</ele>
        <time>2011-06-04T14:42:59Z</time>
      </trkpt>
      <trkpt lat="44.50225" lon="2.54367">
        <ele>566.3</ele>
        <time>2011-06-04T14:43:03Z</time>
      </trkpt>
      <trkpt lat="44.50226" lon="2.54329">
        <ele>564.3</ele>
        <time>2011-06-04T14:43:08Z</time>
      </trkpt>
      <trkpt lat="44.50227" lon="2.54281">
        <ele>558.7</ele>
        <time>2011-06-04T14:43:14Z</time>
      </trkpt>
      <trkpt lat="44.50226" lon="2.54266">
        <ele>557.2</ele>
        <time>2011-06-04T14:43:16Z</time>
      </trkpt>
      <trkpt lat="44.50224" lon="2.54244">
        <ele>555.8</ele>
        <time>2011-06-04T14:43:19Z</time>
      </trkpt>
      <trkpt lat="44.50221" lon="2.5423">
        <ele>555.7</ele>
        <time>2011-06-04T14:43:21Z</time>
      </trkpt>
      <trkpt lat="44.50219" lon="2.54224">
        <ele>556</ele>
        <time>2011-06-04T14:43:22Z</time>
      </trkpt>
      <trkpt lat="44.50211" lon="2.54193">
        <ele>556.4</ele>
        <time>2011-06-04T14:43:27Z</time>
      </trkpt>
      <trkpt lat="44.50204" lon="2.5417">
        <ele>557.4</ele>
        <time>2011-06-04T14:43:31Z</time>
      </trkpt>
      <trkpt lat="44.50195" lon="2.54137">
        <ele>559.3</ele>
        <time>2011-06-04T14:43:37Z</time>
      </trkpt>
      <trkpt lat="44.50193" lon="2.54126">
        <ele>559.7</ele>
        <time>2011-06-04T14:43:39Z</time>
      </trkpt>
      <trkpt lat="44.50186" lon="2.54092">
        <ele>560.1</ele>
        <time>2011-06-04T14:43:45Z</time>
      </trkpt>
      <trkpt lat="44.50184" lon="2.54075">
        <ele>560</ele>
        <time>2011-06-04T14:43:48Z</time>
      </trkpt>
      <trkpt lat="44.50183" lon="2.54065">
        <ele>559.8</ele>
        <time>2011-06-04T14:43:50Z</time>
      </trkpt>
      <trkpt lat="44.50176" lon="2.54024">
        <ele>559.9</ele>
        <time>2011-06-04T14:43:57Z</time>
      </trkpt>
      <trkpt lat="44.50175" lon="2.54011">
        <ele>559.5</ele>
        <time>2011-06-04T14:43:59Z</time>
      </trkpt>
      <trkpt lat="44.50171" lon="2.53986">
        <ele>559.1</ele>
        <time>2011-06-04T14:44:03Z</time>
      </trkpt>
      <trkpt lat="44.50163" lon="2.53947">
        <ele>558.5</ele>
        <time>2011-06-04T14:44:09Z</time>
      </trkpt>
      <trkpt lat="44.50155" lon="2.53916">
        <ele>558.5</ele>
        <time>2011-06-04T14:44:14Z</time>
      </trkpt>
      <trkpt lat="44.50146" lon="2.5389">
        <ele>558.4</ele>
        <time>2011-06-04T14:44:19Z</time>
      </trkpt>
      <trkpt lat="44.50138" lon="2.53866">
        <ele>558.6</ele>
        <time>2011-06-04T14:44:24Z</time>
      </trkpt>
      <trkpt lat="44.50136" lon="2.5386">
        <ele>558.5</ele>
        <time>2011-06-04T14:44:25Z</time>
      </trkpt>
      <trkpt lat="44.50124" lon="2.53816">
        <ele>557.9</ele>
        <time>2011-06-04T14:44:32Z</time>
      </trkpt>
      <trkpt lat="44.50118" lon="2.53781">
        <ele>556.2</ele>
        <time>2011-06-04T14:44:36Z</time>
      </trkpt>
      <trkpt lat="44.50115" lon="2.53753">
        <ele>554</ele>
        <time>2011-06-04T14:44:39Z</time>
      </trkpt>
      <trkpt lat="44.50112" lon="2.5369">
        <ele>553.4</ele>
        <time>2011-06-04T14:44:46Z</time>
      </trkpt>
      <trkpt lat="44.50111" lon="2.53666">
        <ele>553.3</ele>
        <time>2011-06-04T14:44:49Z</time>
      </trkpt>
      <trkpt lat="44.5011" lon="2.53646">
        <ele>554.6</ele>
        <time>2011-06-04T14:44:52Z</time>
      </trkpt>
      <trkpt lat="44.50111" lon="2.53634">
        <ele>554.8</ele>
        <time>2011-06-04T14:44:54Z</time>
      </trkpt>
      <trkpt lat="44.50112" lon="2.53629">
        <ele>554.6</ele>
        <time>2011-06-04T14:44:55Z</time>
      </trkpt>
      <trkpt lat="44.50114" lon="2.53619">
        <ele>553.7</ele>
        <time>2011-06-04T14:44:57Z</time>
      </trkpt>
      <trkpt lat="44.50122" lon="2.53592">
        <ele>550.9</ele>
        <time>2011-06-04T14:45:02Z</time>
      </trkpt>
      <trkpt lat="44.5013" lon="2.53551">
        <ele>547.3</ele>
        <time>2011-06-04T14:45:07Z</time>
      </trkpt>
      <trkpt lat="44.50133" lon="2.53521">
        <ele>545.6</ele>
        <time>2011-06-04T14:45:10Z</time>
      </trkpt>
      <trkpt lat="44.50133" lon="2.535">
        <ele>545.5</ele>
        <time>2011-06-04T14:45:12Z</time>
      </trkpt>
      <trkpt lat="44.50131" lon="2.53489">
        <ele>545.6</ele>
        <time>2011-06-04T14:45:13Z</time>
      </trkpt>
      <trkpt lat="44.50128" lon="2.53479">
        <ele>546.5</ele>
        <time>2011-06-04T14:45:14Z</time>
      </trkpt>
      <trkpt lat="44.50119" lon="2.5346">
        <ele>549.2</ele>
        <time>2011-06-04T14:45:16Z</time>
      </trkpt>
      <trkpt lat="44.50108" lon="2.53441">
        <ele>552.8</ele>
        <time>2011-06-04T14:45:18Z</time>
      </trkpt>
      <trkpt lat="44.50103" lon="2.53431">
        <ele>554.6</ele>
        <time>2011-06-04T14:45:19Z</time>
      </trkpt>
      <trkpt lat="44.50093" lon="2.5341">
        <ele>556.4</ele>
        <time>2011-06-04T14:45:21Z</time>
      </trkpt>
      <trkpt lat="44.50077" lon="2.53359">
        <ele>554.4</ele>
        <time>2011-06-04T14:45:25Z</time>
      </trkpt>
      <trkpt lat="44.50071" lon="2.53331">
        <ele>552</ele>
        <time>2011-06-04T14:45:27Z</time>
      </trkpt>
      <trkpt lat="44.50066" lon="2.53291">
        <ele>549.1</ele>
        <time>2011-06-04T14:45:30Z</time>
      </trkpt>
      <trkpt lat="44.50062" lon="2.53263">
        <ele>547.3</ele>
        <time>2011-06-04T14:45:32Z</time>
      </trkpt>
      <trkpt lat="44.50061" lon="2.5325">
        <ele>546</ele>
        <time>2011-06-04T14:45:33Z</time>
      </trkpt>
      <trkpt lat="44.50062" lon="2.53236">
        <ele>545.2</ele>
        <time>2011-06-04T14:45:34Z</time>
      </trkpt>
      <trkpt lat="44.50064" lon="2.53223">
        <ele>543.9</ele>
        <time>2011-06-04T14:45:35Z</time>
      </trkpt>
      <trkpt lat="44.50067" lon="2.53209">
        <ele>541.9</ele>
        <time>2011-06-04T14:45:36Z</time>
      </trkpt>
      <trkpt lat="44.50085" lon="2.53149">
        <ele>533</ele>
        <time>2011-06-04T14:45:41Z</time>
      </trkpt>
      <trkpt lat="44.50106" lon="2.53073">
        <ele>527</ele>
        <time>2011-06-04T14:45:48Z</time>
      </trkpt>
      <trkpt lat="44.50121" lon="2.53028">
        <ele>528.5</ele>
        <time>2011-06-04T14:45:53Z</time>
      </trkpt>
      <trkpt lat="44.50125" lon="2.53007">
        <ele>530.2</ele>
        <time>2011-06-04T14:45:56Z</time>
      </trkpt>
      <trkpt lat="44.50129" lon="2.52995">
        <ele>530.7</ele>
        <time>2011-06-04T14:45:58Z</time>
      </trkpt>
      <trkpt lat="44.50131" lon="2.52989">
        <ele>531.2</ele>
        <time>2011-06-04T14:45:59Z</time>
      </trkpt>
      <trkpt lat="44.50132" lon="2.52983">
        <ele>532</ele>
        <time>2011-06-04T14:46:00Z</time>
      </trkpt>
      <trkpt lat="44.50135" lon="2.52972">
        <ele>532.9</ele>
        <time>2011-06-04T14:46:02Z</time>
      </trkpt>
      <trkpt lat="44.50136" lon="2.52963">
        <ele>533.7</ele>
        <time>2011-06-04T14:46:04Z</time>
      </trkpt>
      <trkpt lat="44.50142" lon="2.52947">
        <ele>534.6</ele>
        <time>2011-06-04T14:46:08Z</time>
      </trkpt>
      <trkpt lat="44.50152" lon="2.52928">
        <ele>534.5</ele>
        <time>2011-06-04T14:46:13Z</time>
      </trkpt>
      <trkpt lat="44.50156" lon="2.52917">
        <ele>534.9</ele>
        <time>2011-06-04T14:46:15Z</time>
      </trkpt>
      <trkpt lat="44.50166" lon="2.52886">
        <ele>534</ele>
        <time>2011-06-04T14:46:19Z</time>
      </trkpt>
      <trkpt lat="44.5017" lon="2.52868">
        <ele>533.7</ele>
        <time>2011-06-04T14:46:21Z</time>
      </trkpt>
      <trkpt lat="44.50176" lon="2.5285">
        <ele>532.5</ele>
        <time>2011-06-04T14:46:23Z</time>
      </trkpt>
      <trkpt lat="44.50193" lon="2.5281">
        <ele>529.8</ele>
        <time>2011-06-04T14:46:27Z</time>
      </trkpt>
      <trkpt lat="44.5021" lon="2.52782">
        <ele>527.3</ele>
        <time>2011-06-04T14:46:30Z</time>
      </trkpt>
      <trkpt lat="44.50255" lon="2.52719">
        <ele>519.7</ele>
        <time>2011-06-04T14:46:37Z</time>
      </trkpt>
      <trkpt lat="44.50261" lon="2.52709">
        <ele>520</ele>
        <time>2011-06-04T14:46:38Z</time>
      </trkpt>
      <trkpt lat="44.50271" lon="2.52686">
        <ele>521</ele>
        <time>2011-06-04T14:46:40Z</time>
      </trkpt>
      <trkpt lat="44.50275" lon="2.52674">
        <ele>521.9</ele>
        <time>2011-06-04T14:46:41Z</time>
      </trkpt>
      <trkpt lat="44.50277" lon="2.52661">
        <ele>521.6</ele>
        <time>2011-06-04T14:46:42Z</time>
      </trkpt>
      <trkpt lat="44.50277" lon="2.52649">
        <ele>520.1</ele>
        <time>2011-06-04T14:46:43Z</time>
      </trkpt>
      <trkpt lat="44.50276" lon="2.52636">
        <ele>518.8</ele>
        <time>2011-06-04T14:46:44Z</time>
      </trkpt>
      <trkpt lat="44.50274" lon="2.52625">
        <ele>518</ele>
        <time>2011-06-04T14:46:45Z</time>
      </trkpt>
      <trkpt lat="44.50262" lon="2.52578">
        <ele>515.9</ele>
        <time>2011-06-04T14:46:49Z</time>
      </trkpt>
      <trkpt lat="44.5026" lon="2.52566">
        <ele>514.5</ele>
        <time>2011-06-04T14:46:50Z</time>
      </trkpt>
      <trkpt lat="44.50261" lon="2.52554">
        <ele>512.3</ele>
        <time>2011-06-04T14:46:51Z</time>
      </trkpt>
      <trkpt lat="44.5027" lon="2.52516">
        <ele>503.3</ele>
        <time>2011-06-04T14:46:54Z</time>
      </trkpt>
      <trkpt lat="44.50273" lon="2.5249">
        <ele>499.6</ele>
        <time>2011-06-04T14:46:56Z</time>
      </trkpt>
      <trkpt lat="44.50274" lon="2.52464">
        <ele>498.2</ele>
        <time>2011-06-04T14:46:58Z</time>
      </trkpt>
      <trkpt lat="44.50276" lon="2.52451">
        <ele>497</ele>
        <time>2011-06-04T14:46:59Z</time>
      </trkpt>
      <trkpt lat="44.50281" lon="2.52368">
        <ele>496</ele>
        <time>2011-06-04T14:47:05Z</time>
      </trkpt>
      <trkpt lat="44.50282" lon="2.52354">
        <ele>495.9</ele>
        <time>2011-06-04T14:47:06Z</time>
      </trkpt>
      <trkpt lat="44.50285" lon="2.52312">
        <ele>497.9</ele>
        <time>2011-06-04T14:47:09Z</time>
      </trkpt>
      <trkpt lat="44.50289" lon="2.52284">
        <ele>498.7</ele>
        <time>2011-06-04T14:47:11Z</time>
      </trkpt>
      <trkpt lat="44.503" lon="2.52244">
        <ele>499.8</ele>
        <time>2011-06-04T14:47:14Z</time>
      </trkpt>
      <trkpt lat="44.50305" lon="2.52231">
        <ele>500.2</ele>
        <time>2011-06-04T14:47:15Z</time>
      </trkpt>
      <trkpt lat="44.5031" lon="2.52219">
        <ele>500.2</ele>
        <time>2011-06-04T14:47:16Z</time>
      </trkpt>
      <trkpt lat="44.50324" lon="2.52197">
        <ele>499.6</ele>
        <time>2011-06-04T14:47:18Z</time>
      </trkpt>
      <trkpt lat="44.50332" lon="2.52187">
        <ele>499</ele>
        <time>2011-06-04T14:47:19Z</time>
      </trkpt>
      <trkpt lat="44.50341" lon="2.52178">
        <ele>498.2</ele>
        <time>2011-06-04T14:47:20Z</time>
      </trkpt>
      <trkpt lat="44.50369" lon="2.52159">
        <ele>491.4</ele>
        <time>2011-06-04T14:47:23Z</time>
      </trkpt>
      <trkpt lat="44.50376" lon="2.52152">
        <ele>488.9</ele>
        <time>2011-06-04T14:47:24Z</time>
      </trkpt>
      <trkpt lat="44.5038" lon="2.52142">
        <ele>486.9</ele>
        <time>2011-06-04T14:47:25Z</time>
      </trkpt>
      <trkpt lat="44.50381" lon="2.5213">
        <ele>485.9</ele>
        <time>2011-06-04T14:47:26Z</time>
      </trkpt>
      <trkpt lat="44.5038" lon="2.52118">
        <ele>485.6</ele>
        <time>2011-06-04T14:47:27Z</time>
      </trkpt>
      <trkpt lat="44.50371" lon="2.52082">
        <ele>486.3</ele>
        <time>2011-06-04T14:47:30Z</time>
      </trkpt>
      <trkpt lat="44.50367" lon="2.52055">
        <ele>484.3</ele>
        <time>2011-06-04T14:47:32Z</time>
      </trkpt>
      <trkpt lat="44.50368" lon="2.52027">
        <ele>481</ele>
        <time>2011-06-04T14:47:34Z</time>
      </trkpt>
      <trkpt lat="44.50371" lon="2.52013">
        <ele>478.7</ele>
        <time>2011-06-04T14:47:35Z</time>
      </trkpt>
      <trkpt lat="44.50374" lon="2.52">
        <ele>475.8</ele>
        <time>2011-06-04T14:47:36Z</time>
      </trkpt>
      <trkpt lat="44.50384" lon="2.51975">
        <ele>472.7</ele>
        <time>2011-06-04T14:47:38Z</time>
      </trkpt>
      <trkpt lat="44.50396" lon="2.51959">
        <ele>468.1</ele>
        <time>2011-06-04T14:47:40Z</time>
      </trkpt>
      <trkpt lat="44.50402" lon="2.51953">
        <ele>465.8</ele>
        <time>2011-06-04T14:47:41Z</time>
      </trkpt>
      <trkpt lat="44.50407" lon="2.51945">
        <ele>463.5</ele>
        <time>2011-06-04T14:47:42Z</time>
      </trkpt>
      <trkpt lat="44.5041" lon="2.51934">
        <ele>462.1</ele>
        <time>2011-06-04T14:47:43Z</time>
      </trkpt>
      <trkpt lat="44.50411" lon="2.51921">
        <ele>462</ele>
        <time>2011-06-04T14:47:44Z</time>
      </trkpt>
      <trkpt lat="44.50409" lon="2.51894">
        <ele>461.9</ele>
        <time>2011-06-04T14:47:46Z</time>
      </trkpt>
      <trkpt lat="44.50408" lon="2.51866">
        <ele>461.3</ele>
        <time>2011-06-04T14:47:48Z</time>
      </trkpt>
      <trkpt lat="44.50411" lon="2.51838">
        <ele>458.1</ele>
        <time>2011-06-04T14:47:50Z</time>
      </trkpt>
      <trkpt lat="44.50414" lon="2.51825">
        <ele>455.9</ele>
        <time>2011-06-04T14:47:51Z</time>
      </trkpt>
      <trkpt lat="44.50419" lon="2.51813">
        <ele>453.2</ele>
        <time>2011-06-04T14:47:52Z</time>
      </trkpt>
      <trkpt lat="44.50424" lon="2.51801">
        <ele>450.3</ele>
        <time>2011-06-04T14:47:53Z</time>
      </trkpt>
      <trkpt lat="44.50427" lon="2.51789">
        <ele>448.2</ele>
        <time>2011-06-04T14:47:54Z</time>
      </trkpt>
      <trkpt lat="44.50427" lon="2.51776">
        <ele>447.7</ele>
        <time>2011-06-04T14:47:55Z</time>
      </trkpt>
      <trkpt lat="44.50424" lon="2.51764">
        <ele>448.8</ele>
        <time>2011-06-04T14:47:56Z</time>
      </trkpt>
      <trkpt lat="44.50414" lon="2.51741">
        <ele>452.3</ele>
        <time>2011-06-04T14:47:58Z</time>
      </trkpt>
      <trkpt lat="44.50409" lon="2.51729">
        <ele>453.3</ele>
        <time>2011-06-04T14:47:59Z</time>
      </trkpt>
      <trkpt lat="44.50407" lon="2.51716">
        <ele>452.3</ele>
        <time>2011-06-04T14:48:00Z</time>
      </trkpt>
      <trkpt lat="44.50406" lon="2.51702">
        <ele>450.9</ele>
        <time>2011-06-04T14:48:01Z</time>
      </trkpt>
      <trkpt lat="44.50407" lon="2.51688">
        <ele>448.5</ele>
        <time>2011-06-04T14:48:02Z</time>
      </trkpt>
      <trkpt lat="44.50413" lon="2.51645">
        <ele>440.3</ele>
        <time>2011-06-04T14:48:05Z</time>
      </trkpt>
      <trkpt lat="44.50414" lon="2.5163">
        <ele>438.2</ele>
        <time>2011-06-04T14:48:06Z</time>
      </trkpt>
      <trkpt lat="44.50414" lon="2.51615">
        <ele>436.5</ele>
        <time>2011-06-04T14:48:07Z</time>
      </trkpt>
      <trkpt lat="44.50413" lon="2.516">
        <ele>435.8</ele>
        <time>2011-06-04T14:48:08Z</time>
      </trkpt>
      <trkpt lat="44.5041" lon="2.51586">
        <ele>436</ele>
        <time>2011-06-04T14:48:09Z</time>
      </trkpt>
      <trkpt lat="44.50405" lon="2.51573">
        <ele>438.7</ele>
        <time>2011-06-04T14:48:10Z</time>
      </trkpt>
      <trkpt lat="44.50396" lon="2.51551">
        <ele>444.5</ele>
        <time>2011-06-04T14:48:12Z</time>
      </trkpt>
      <trkpt lat="44.50394" lon="2.5154">
        <ele>446</ele>
        <time>2011-06-04T14:48:13Z</time>
      </trkpt>
      <trkpt lat="44.50394" lon="2.51529">
        <ele>446.4</ele>
        <time>2011-06-04T14:48:14Z</time>
      </trkpt>
      <trkpt lat="44.50397" lon="2.51518">
        <ele>445.7</ele>
        <time>2011-06-04T14:48:15Z</time>
      </trkpt>
      <trkpt lat="44.50401" lon="2.51509">
        <ele>444.6</ele>
        <time>2011-06-04T14:48:16Z</time>
      </trkpt>
      <trkpt lat="44.50406" lon="2.51501">
        <ele>442.9</ele>
        <time>2011-06-04T14:48:17Z</time>
      </trkpt>
      <trkpt lat="44.50419" lon="2.51487">
        <ele>439.7</ele>
        <time>2011-06-04T14:48:19Z</time>
      </trkpt>
      <trkpt lat="44.50426" lon="2.5148">
        <ele>438</ele>
        <time>2011-06-04T14:48:20Z</time>
      </trkpt>
      <trkpt lat="44.50431" lon="2.51472">
        <ele>436.8</ele>
        <time>2011-06-04T14:48:21Z</time>
      </trkpt>
      <trkpt lat="44.50436" lon="2.51461">
        <ele>436.4</ele>
        <time>2011-06-04T14:48:22Z</time>
      </trkpt>
      <trkpt lat="44.50441" lon="2.51438">
        <ele>436.9</ele>
        <time>2011-06-04T14:48:24Z</time>
      </trkpt>
      <trkpt lat="44.50444" lon="2.51413">
        <ele>437.8</ele>
        <time>2011-06-04T14:48:26Z</time>
      </trkpt>
      <trkpt lat="44.50444" lon="2.51387">
        <ele>436.9</ele>
        <time>2011-06-04T14:48:28Z</time>
      </trkpt>
      <trkpt lat="44.50443" lon="2.51373">
        <ele>436.7</ele>
        <time>2011-06-04T14:48:29Z</time>
      </trkpt>
      <trkpt lat="44.50438" lon="2.51346">
        <ele>437.5</ele>
        <time>2011-06-04T14:48:31Z</time>
      </trkpt>
      <trkpt lat="44.50436" lon="2.51333">
        <ele>437.6</ele>
        <time>2011-06-04T14:48:32Z</time>
      </trkpt>
      <trkpt lat="44.50436" lon="2.51319">
        <ele>437.3</ele>
        <time>2011-06-04T14:48:33Z</time>
      </trkpt>
      <trkpt lat="44.50438" lon="2.51305">
        <ele>436.2</ele>
        <time>2011-06-04T14:48:34Z</time>
      </trkpt>
      <trkpt lat="44.50443" lon="2.51293">
        <ele>434.1</ele>
        <time>2011-06-04T14:48:35Z</time>
      </trkpt>
      <trkpt lat="44.50462" lon="2.51257">
        <ele>425.9</ele>
        <time>2011-06-04T14:48:38Z</time>
      </trkpt>
      <trkpt lat="44.50467" lon="2.51243">
        <ele>424.1</ele>
        <time>2011-06-04T14:48:39Z</time>
      </trkpt>
      <trkpt lat="44.50474" lon="2.51215">
        <ele>422.9</ele>
        <time>2011-06-04T14:48:41Z</time>
      </trkpt>
      <trkpt lat="44.50485" lon="2.51113">
        <ele>423.2</ele>
        <time>2011-06-04T14:48:48Z</time>
      </trkpt>
      <trkpt lat="44.50487" lon="2.51084">
        <ele>423.6</ele>
        <time>2011-06-04T14:48:50Z</time>
      </trkpt>
      <trkpt lat="44.50487" lon="2.51069">
        <ele>423.3</ele>
        <time>2011-06-04T14:48:51Z</time>
      </trkpt>
      <trkpt lat="44.50486" lon="2.51055">
        <ele>423.4</ele>
        <time>2011-06-04T14:48:52Z</time>
      </trkpt>
      <trkpt lat="44.50479" lon="2.5101">
        <ele>424.1</ele>
        <time>2011-06-04T14:48:55Z</time>
      </trkpt>
      <trkpt lat="44.50479" lon="2.50995">
        <ele>424.3</ele>
        <time>2011-06-04T14:48:56Z</time>
      </trkpt>
      <trkpt lat="44.50483" lon="2.5095">
        <ele>424.8</ele>
        <time>2011-06-04T14:48:59Z</time>
      </trkpt>
      <trkpt lat="44.50483" lon="2.50939">
        <ele>425.2</ele>
        <time>2011-06-04T14:49:00Z</time>
      </trkpt>
      <trkpt lat="44.50481" lon="2.50908">
        <ele>427</ele>
        <time>2011-06-04T14:49:06Z</time>
      </trkpt>
      <trkpt lat="44.50481" lon="2.50899">
        <ele>427.1</ele>
        <time>2011-06-04T14:49:10Z</time>
      </trkpt>
      <trkpt lat="44.50481" lon="2.50889">
        <ele>427.5</ele>
        <time>2011-06-04T14:49:15Z</time>
      </trkpt>
      <trkpt lat="44.50479" lon="2.50878">
        <ele>428.3</ele>
        <time>2011-06-04T14:49:21Z</time>
      </trkpt>
      <trkpt lat="44.50481" lon="2.50872">
        <ele>428.3</ele>
        <time>2011-06-04T14:49:24Z</time>
      </trkpt>
      <trkpt lat="44.50483" lon="2.50855">
        <ele>428.1</ele>
        <time>2011-06-04T14:49:36Z</time>
      </trkpt>
      <trkpt lat="44.50479" lon="2.50844">
        <ele>429.5</ele>
        <time>2011-06-04T14:49:49Z</time>
      </trkpt>
      <trkpt lat="44.50478" lon="2.50838">
        <ele>430.2</ele>
        <time>2011-06-04T14:49:56Z</time>
      </trkpt>
      <trkpt lat="44.50474" lon="2.50829">
        <ele>431.9</ele>
        <time>2011-06-04T14:50:08Z</time>
      </trkpt>
      <trkpt lat="44.50472" lon="2.50823">
        <ele>432.6</ele>
        <time>2011-06-04T14:50:14Z</time>
      </trkpt>
      <trkpt lat="44.5047" lon="2.50819">
        <ele>433.6</ele>
        <time>2011-06-04T14:50:24Z</time>
      </trkpt>
      <trkpt lat="44.50469" lon="2.50812">
        <ele>434</ele>
        <time>2011-06-04T14:50:34Z</time>
      </trkpt>
      <trkpt lat="44.50465" lon="2.50796">
        <ele>435.9</ele>
        <time>2011-06-04T14:50:55Z</time>
      </trkpt>
      <trkpt lat="44.50463" lon="2.5079">
        <ele>436.9</ele>
        <time>2011-06-04T14:51:02Z</time>
      </trkpt>
      <trkpt lat="44.5046" lon="2.50774">
        <ele>439</ele>
        <time>2011-06-04T14:51:28Z</time>
      </trkpt>
      <trkpt lat="44.50456" lon="2.5077">
        <ele>440.5</ele>
        <time>2011-06-04T14:51:54Z</time>
      </trkpt>
      <trkpt lat="44.50459" lon="2.50765">
        <ele>439.5</ele>
        <time>2011-06-04T14:52:12Z</time>
      </trkpt>
      <trkpt lat="44.50459" lon="2.50756">
        <ele>439.9</ele>
        <time>2011-06-04T14:52:19Z</time>
      </trkpt>
      <trkpt lat="44.50461" lon="2.50742">
        <ele>439.4</ele>
        <time>2011-06-04T14:52:25Z</time>
      </trkpt>
      <trkpt lat="44.50466" lon="2.5072">
        <ele>437.3</ele>
        <time>2011-06-04T14:52:31Z</time>
      </trkpt>
      <trkpt lat="44.50466" lon="2.50715">
        <ele>437</ele>
        <time>2011-06-04T14:52:32Z</time>
      </trkpt>
      <trkpt lat="44.50473" lon="2.50682">
        <ele>434.1</ele>
        <time>2011-06-04T14:52:39Z</time>
      </trkpt>
      <trkpt lat="44.50477" lon="2.50666">
        <ele>432.5</ele>
        <time>2011-06-04T14:52:42Z</time>
      </trkpt>
      <trkpt lat="44.50488" lon="2.50631">
        <ele>430.2</ele>
        <time>2011-06-04T14:52:48Z</time>
      </trkpt>
      <trkpt lat="44.50489" lon="2.50624">
        <ele>430</ele>
        <time>2011-06-04T14:52:49Z</time>
      </trkpt>
      <trkpt lat="44.50501" lon="2.50589">
        <ele>427.1</ele>
        <time>2011-06-04T14:52:54Z</time>
      </trkpt>
      <trkpt lat="44.50506" lon="2.50571">
        <ele>424.9</ele>
        <time>2011-06-04T14:52:56Z</time>
      </trkpt>
      <trkpt lat="44.50506" lon="2.50561">
        <ele>424.2</ele>
        <time>2011-06-04T14:52:57Z</time>
      </trkpt>
      <trkpt lat="44.50506" lon="2.50551">
        <ele>423.7</ele>
        <time>2011-06-04T14:52:58Z</time>
      </trkpt>
      <trkpt lat="44.50505" lon="2.5054">
        <ele>423.6</ele>
        <time>2011-06-04T14:52:59Z</time>
      </trkpt>
      <trkpt lat="44.50501" lon="2.50516">
        <ele>424.3</ele>
        <time>2011-06-04T14:53:01Z</time>
      </trkpt>
      <trkpt lat="44.50498" lon="2.50503">
        <ele>424.9</ele>
        <time>2011-06-04T14:53:02Z</time>
      </trkpt>
      <trkpt lat="44.50494" lon="2.50489">
        <ele>425</ele>
        <time>2011-06-04T14:53:03Z</time>
      </trkpt>
      <trkpt lat="44.50473" lon="2.50436">
        <ele>425.2</ele>
        <time>2011-06-04T14:53:07Z</time>
      </trkpt>
      <trkpt lat="44.50466" lon="2.5041">
        <ele>424.2</ele>
        <time>2011-06-04T14:53:09Z</time>
      </trkpt>
      <trkpt lat="44.50463" lon="2.50388">
        <ele>423</ele>
        <time>2011-06-04T14:53:11Z</time>
      </trkpt>
      <trkpt lat="44.50463" lon="2.50377">
        <ele>422.1</ele>
        <time>2011-06-04T14:53:12Z</time>
      </trkpt>
      <trkpt lat="44.50465" lon="2.50357">
        <ele>419.8</ele>
        <time>2011-06-04T14:53:14Z</time>
      </trkpt>
      <trkpt lat="44.50466" lon="2.5035">
        <ele>418.7</ele>
        <time>2011-06-04T14:53:15Z</time>
      </trkpt>
      <trkpt lat="44.5047" lon="2.50333">
        <ele>416.1</ele>
        <time>2011-06-04T14:53:18Z</time>
      </trkpt>
      <trkpt lat="44.50472" lon="2.50311">
        <ele>415.6</ele>
        <time>2011-06-04T14:53:23Z</time>
      </trkpt>
      <trkpt lat="44.50471" lon="2.50305">
        <ele>415.7</ele>
        <time>2011-06-04T14:53:25Z</time>
      </trkpt>
      <trkpt lat="44.50472" lon="2.50296">
        <ele>415.6</ele>
        <time>2011-06-04T14:53:28Z</time>
      </trkpt>
      <trkpt lat="44.5047" lon="2.50274">
        <ele>416.3</ele>
        <time>2011-06-04T14:53:36Z</time>
      </trkpt>
      <trkpt lat="44.50469" lon="2.50269">
        <ele>416.5</ele>
        <time>2011-06-04T14:53:38Z</time>
      </trkpt>
      <trkpt lat="44.50466" lon="2.50259">
        <ele>417.3</ele>
        <time>2011-06-04T14:53:42Z</time>
      </trkpt>
      <trkpt lat="44.50461" lon="2.50253">
        <ele>418.7</ele>
        <time>2011-06-04T14:53:46Z</time>
      </trkpt>
      <trkpt lat="44.50455" lon="2.50247">
        <ele>420.5</ele>
        <time>2011-06-04T14:53:50Z</time>
      </trkpt>
      <trkpt lat="44.50448" lon="2.50245">
        <ele>422.3</ele>
        <time>2011-06-04T14:53:54Z</time>
      </trkpt>
      <trkpt lat="44.50441" lon="2.5024">
        <ele>424.1</ele>
        <time>2011-06-04T14:53:59Z</time>
      </trkpt>
      <trkpt lat="44.50427" lon="2.50231">
        <ele>427.3</ele>
        <time>2011-06-04T14:54:09Z</time>
      </trkpt>
      <trkpt lat="44.50424" lon="2.50228">
        <ele>428.1</ele>
        <time>2011-06-04T14:54:12Z</time>
      </trkpt>
      <trkpt lat="44.50413" lon="2.5022">
        <ele>431.2</ele>
        <time>2011-06-04T14:54:21Z</time>
      </trkpt>
      <trkpt lat="44.5041" lon="2.50216">
        <ele>432.1</ele>
        <time>2011-06-04T14:54:24Z</time>
      </trkpt>
      <trkpt lat="44.50406" lon="2.50206">
        <ele>433.3</ele>
        <time>2011-06-04T14:54:31Z</time>
      </trkpt>
      <trkpt lat="44.50405" lon="2.502">
        <ele>433.2</ele>
        <time>2011-06-04T14:54:35Z</time>
      </trkpt>
      <trkpt lat="44.50406" lon="2.50194">
        <ele>432.7</ele>
        <time>2011-06-04T14:54:39Z</time>
      </trkpt>
      <trkpt lat="44.50408" lon="2.50188">
        <ele>431.7</ele>
        <time>2011-06-04T14:54:44Z</time>
      </trkpt>
      <trkpt lat="44.50411" lon="2.50179">
        <ele>429.8</ele>
        <time>2011-06-04T14:54:51Z</time>
      </trkpt>
      <trkpt lat="44.50413" lon="2.50175">
        <ele>428.7</ele>
        <time>2011-06-04T14:54:54Z</time>
      </trkpt>
      <trkpt lat="44.50419" lon="2.50166">
        <ele>426.5</ele>
        <time>2011-06-04T14:55:00Z</time>
      </trkpt>
      <trkpt lat="44.50425" lon="2.50159">
        <ele>425.3</ele>
        <time>2011-06-04T14:55:06Z</time>
      </trkpt>
      <trkpt lat="44.5043" lon="2.50153">
        <ele>424.5</ele>
        <time>2011-06-04T14:55:10Z</time>
      </trkpt>
      <trkpt lat="44.50433" lon="2.50145">
        <ele>423.9</ele>
        <time>2011-06-04T14:55:14Z</time>
      </trkpt>
      <trkpt lat="44.50434" lon="2.50138">
        <ele>423.6</ele>
        <time>2011-06-04T14:55:17Z</time>
      </trkpt>
      <trkpt lat="44.50432" lon="2.50122">
        <ele>424</ele>
        <time>2011-06-04T14:55:25Z</time>
      </trkpt>
      <trkpt lat="44.50427" lon="2.50101">
        <ele>425.3</ele>
        <time>2011-06-04T14:55:35Z</time>
      </trkpt>
      <trkpt lat="44.50422" lon="2.50085">
        <ele>426.5</ele>
        <time>2011-06-04T14:55:44Z</time>
      </trkpt>
      <trkpt lat="44.50419" lon="2.50075">
        <ele>428.2</ele>
        <time>2011-06-04T14:55:50Z</time>
      </trkpt>
      <trkpt lat="44.50413" lon="2.50067">
        <ele>430.9</ele>
        <time>2011-06-04T14:55:56Z</time>
      </trkpt>
      <trkpt lat="44.50404" lon="2.50047">
        <ele>435.8</ele>
        <time>2011-06-04T14:56:08Z</time>
      </trkpt>
      <trkpt lat="44.504" lon="2.50039">
        <ele>437.9</ele>
        <time>2011-06-04T14:56:14Z</time>
      </trkpt>
      <trkpt lat="44.50397" lon="2.50033">
        <ele>439.5</ele>
        <time>2011-06-04T14:56:18Z</time>
      </trkpt>
      <trkpt lat="44.50391" lon="2.50027">
        <ele>441.8</ele>
        <time>2011-06-04T14:56:23Z</time>
      </trkpt>
      <trkpt lat="44.50386" lon="2.50018">
        <ele>443.8</ele>
        <time>2011-06-04T14:56:29Z</time>
      </trkpt>
      <trkpt lat="44.50383" lon="2.50014">
        <ele>444.9</ele>
        <time>2011-06-04T14:56:33Z</time>
      </trkpt>
      <trkpt lat="44.50379" lon="2.50006">
        <ele>446.6</ele>
        <time>2011-06-04T14:56:39Z</time>
      </trkpt>
      <trkpt lat="44.50377" lon="2.50002">
        <ele>447.5</ele>
        <time>2011-06-04T14:56:42Z</time>
      </trkpt>
      <trkpt lat="44.50372" lon="2.49983">
        <ele>453.2</ele>
        <time>2011-06-04T14:56:54Z</time>
      </trkpt>
      <trkpt lat="44.50372" lon="2.49977">
        <ele>454.7</ele>
        <time>2011-06-04T14:56:57Z</time>
      </trkpt>
      <trkpt lat="44.50374" lon="2.49966">
        <ele>456.9</ele>
        <time>2011-06-04T14:57:05Z</time>
      </trkpt>
      <trkpt lat="44.50379" lon="2.49957">
        <ele>457.2</ele>
        <time>2011-06-04T14:57:14Z</time>
      </trkpt>
      <trkpt lat="44.50383" lon="2.49954">
        <ele>456.2</ele>
        <time>2011-06-04T14:57:19Z</time>
      </trkpt>
      <trkpt lat="44.5039" lon="2.49953">
        <ele>454.5</ele>
        <time>2011-06-04T14:57:24Z</time>
      </trkpt>
      <trkpt lat="44.50394" lon="2.49952">
        <ele>453.4</ele>
        <time>2011-06-04T14:57:27Z</time>
      </trkpt>
      <trkpt lat="44.50401" lon="2.49948">
        <ele>452</ele>
        <time>2011-06-04T14:57:32Z</time>
      </trkpt>
      <trkpt lat="44.50408" lon="2.49943">
        <ele>451.1</ele>
        <time>2011-06-04T14:57:37Z</time>
      </trkpt>
      <trkpt lat="44.50417" lon="2.49937">
        <ele>449.3</ele>
        <time>2011-06-04T14:57:43Z</time>
      </trkpt>
      <trkpt lat="44.50424" lon="2.49934">
        <ele>447.9</ele>
        <time>2011-06-04T14:57:47Z</time>
      </trkpt>
      <trkpt lat="44.5043" lon="2.49928">
        <ele>447</ele>
        <time>2011-06-04T14:57:51Z</time>
      </trkpt>
      <trkpt lat="44.50438" lon="2.49917">
        <ele>446.6</ele>
        <time>2011-06-04T14:57:57Z</time>
      </trkpt>
      <trkpt lat="44.50441" lon="2.4991">
        <ele>447</ele>
        <time>2011-06-04T14:58:01Z</time>
      </trkpt>
      <trkpt lat="44.50443" lon="2.49904">
        <ele>448.1</ele>
        <time>2011-06-04T14:58:04Z</time>
      </trkpt>
      <trkpt lat="44.50445" lon="2.49884">
        <ele>452.3</ele>
        <time>2011-06-04T14:58:12Z</time>
      </trkpt>
      <trkpt lat="44.50445" lon="2.49874">
        <ele>455.1</ele>
        <time>2011-06-04T14:58:16Z</time>
      </trkpt>
      <trkpt lat="44.50444" lon="2.49868">
        <ele>457</ele>
        <time>2011-06-04T14:58:18Z</time>
      </trkpt>
      <trkpt lat="44.50442" lon="2.49861">
        <ele>459.1</ele>
        <time>2011-06-04T14:58:21Z</time>
      </trkpt>
      <trkpt lat="44.50442" lon="2.49855">
        <ele>460.8</ele>
        <time>2011-06-04T14:58:24Z</time>
      </trkpt>
      <trkpt lat="44.50442" lon="2.49849">
        <ele>462</ele>
        <time>2011-06-04T14:58:27Z</time>
      </trkpt>
      <trkpt lat="44.50443" lon="2.49843">
        <ele>463.4</ele>
        <time>2011-06-04T14:58:31Z</time>
      </trkpt>
      <trkpt lat="44.50446" lon="2.49832">
        <ele>465.4</ele>
        <time>2011-06-04T14:58:37Z</time>
      </trkpt>
      <trkpt lat="44.50448" lon="2.49827">
        <ele>467</ele>
        <time>2011-06-04T14:58:41Z</time>
      </trkpt>
      <trkpt lat="44.50454" lon="2.49814">
        <ele>469.7</ele>
        <time>2011-06-04T14:58:50Z</time>
      </trkpt>
      <trkpt lat="44.5046" lon="2.49807">
        <ele>470.4</ele>
        <time>2011-06-04T14:58:56Z</time>
      </trkpt>
      <trkpt lat="44.50471" lon="2.49799">
        <ele>470.4</ele>
        <time>2011-06-04T14:59:05Z</time>
      </trkpt>
      <trkpt lat="44.50474" lon="2.49796">
        <ele>470.7</ele>
        <time>2011-06-04T14:59:07Z</time>
      </trkpt>
      <trkpt lat="44.50481" lon="2.49786">
        <ele>472.6</ele>
        <time>2011-06-04T14:59:14Z</time>
      </trkpt>
      <trkpt lat="44.50486" lon="2.49776">
        <ele>474.7</ele>
        <time>2011-06-04T14:59:21Z</time>
      </trkpt>
      <trkpt lat="44.50491" lon="2.49762">
        <ele>478.5</ele>
        <time>2011-06-04T14:59:29Z</time>
      </trkpt>
      <trkpt lat="44.50494" lon="2.49758">
        <ele>479.3</ele>
        <time>2011-06-04T14:59:32Z</time>
      </trkpt>
      <trkpt lat="44.50498" lon="2.49754">
        <ele>480</ele>
        <time>2011-06-04T14:59:35Z</time>
      </trkpt>
      <trkpt lat="44.50505" lon="2.49749">
        <ele>478.7</ele>
        <time>2011-06-04T14:59:41Z</time>
      </trkpt>
      <trkpt lat="44.50513" lon="2.49746">
        <ele>475.3</ele>
        <time>2011-06-04T14:59:47Z</time>
      </trkpt>
      <trkpt lat="44.50517" lon="2.49746">
        <ele>473.4</ele>
        <time>2011-06-04T14:59:50Z</time>
      </trkpt>
      <trkpt lat="44.50525" lon="2.49742">
        <ele>470</ele>
        <time>2011-06-04T14:59:56Z</time>
      </trkpt>
      <trkpt lat="44.50528" lon="2.49741">
        <ele>468.5</ele>
        <time>2011-06-04T14:59:59Z</time>
      </trkpt>
      <trkpt lat="44.50545" lon="2.49734">
        <ele>461.7</ele>
        <time>2011-06-04T15:00:11Z</time>
      </trkpt>
      <trkpt lat="44.50551" lon="2.49731">
        <ele>459.3</ele>
        <time>2011-06-04T15:00:15Z</time>
      </trkpt>
      <trkpt lat="44.50554" lon="2.49729">
        <ele>458.1</ele>
        <time>2011-06-04T15:00:17Z</time>
      </trkpt>
      <trkpt lat="44.50557" lon="2.49722">
        <ele>456.9</ele>
        <time>2011-06-04T15:00:21Z</time>
      </trkpt>
      <trkpt lat="44.50558" lon="2.49716">
        <ele>456.8</ele>
        <time>2011-06-04T15:00:23Z</time>
      </trkpt>
      <trkpt lat="44.50558" lon="2.49707">
        <ele>457.3</ele>
        <time>2011-06-04T15:00:26Z</time>
      </trkpt>
      <trkpt lat="44.50552" lon="2.49693">
        <ele>460.2</ele>
        <time>2011-06-04T15:00:30Z</time>
      </trkpt>
      <trkpt lat="44.50546" lon="2.49683">
        <ele>462.7</ele>
        <time>2011-06-04T15:00:32Z</time>
      </trkpt>
      <trkpt lat="44.50542" lon="2.49678">
        <ele>464.2</ele>
        <time>2011-06-04T15:00:33Z</time>
      </trkpt>
      <trkpt lat="44.50537" lon="2.49674">
        <ele>466</ele>
        <time>2011-06-04T15:00:34Z</time>
      </trkpt>
      <trkpt lat="44.50531" lon="2.49672">
        <ele>467.8</ele>
        <time>2011-06-04T15:00:35Z</time>
      </trkpt>
      <trkpt lat="44.50503" lon="2.49664">
        <ele>475.9</ele>
        <time>2011-06-04T15:00:39Z</time>
      </trkpt>
      <trkpt lat="44.50474" lon="2.49649">
        <ele>477.5</ele>
        <time>2011-06-04T15:00:43Z</time>
      </trkpt>
      <trkpt lat="44.50438" lon="2.49628">
        <ele>476.8</ele>
        <time>2011-06-04T15:00:48Z</time>
      </trkpt>
      <trkpt lat="44.50424" lon="2.49618">
        <ele>475.3</ele>
        <time>2011-06-04T15:00:50Z</time>
      </trkpt>
      <trkpt lat="44.50411" lon="2.49606">
        <ele>473.4</ele>
        <time>2011-06-04T15:00:52Z</time>
      </trkpt>
      <trkpt lat="44.50391" lon="2.49583">
        <ele>469.9</ele>
        <time>2011-06-04T15:00:56Z</time>
      </trkpt>
      <trkpt lat="44.50387" lon="2.49577">
        <ele>469.5</ele>
        <time>2011-06-04T15:00:57Z</time>
      </trkpt>
      <trkpt lat="44.50384" lon="2.49569">
        <ele>468.8</ele>
        <time>2011-06-04T15:00:58Z</time>
      </trkpt>
      <trkpt lat="44.50382" lon="2.49561">
        <ele>467.8</ele>
        <time>2011-06-04T15:00:59Z</time>
      </trkpt>
      <trkpt lat="44.50381" lon="2.49553">
        <ele>466.6</ele>
        <time>2011-06-04T15:01:00Z</time>
      </trkpt>
      <trkpt lat="44.50379" lon="2.49527">
        <ele>462.6</ele>
        <time>2011-06-04T15:01:03Z</time>
      </trkpt>
      <trkpt lat="44.5038" lon="2.49518">
        <ele>460.9</ele>
        <time>2011-06-04T15:01:04Z</time>
      </trkpt>
      <trkpt lat="44.50387" lon="2.49501">
        <ele>456.1</ele>
        <time>2011-06-04T15:01:06Z</time>
      </trkpt>
      <trkpt lat="44.50392" lon="2.49493">
        <ele>455.5</ele>
        <time>2011-06-04T15:01:07Z</time>
      </trkpt>
      <trkpt lat="44.50397" lon="2.49486">
        <ele>455.1</ele>
        <time>2011-06-04T15:01:08Z</time>
      </trkpt>
      <trkpt lat="44.50412" lon="2.4947">
        <ele>453.1</ele>
        <time>2011-06-04T15:01:11Z</time>
      </trkpt>
      <trkpt lat="44.50417" lon="2.49466">
        <ele>452.4</ele>
        <time>2011-06-04T15:01:12Z</time>
      </trkpt>
      <trkpt lat="44.50423" lon="2.49463">
        <ele>451.7</ele>
        <time>2011-06-04T15:01:13Z</time>
      </trkpt>
      <trkpt lat="44.50429" lon="2.49461">
        <ele>450.8</ele>
        <time>2011-06-04T15:01:14Z</time>
      </trkpt>
      <trkpt lat="44.50442" lon="2.49462">
        <ele>448.6</ele>
        <time>2011-06-04T15:01:16Z</time>
      </trkpt>
      <trkpt lat="44.50447" lon="2.4946">
        <ele>447.8</ele>
        <time>2011-06-04T15:01:17Z</time>
      </trkpt>
      <trkpt lat="44.50452" lon="2.49457">
        <ele>447.4</ele>
        <time>2011-06-04T15:01:18Z</time>
      </trkpt>
      <trkpt lat="44.50457" lon="2.49451">
        <ele>447.4</ele>
        <time>2011-06-04T15:01:19Z</time>
      </trkpt>
      <trkpt lat="44.5046" lon="2.49444">
        <ele>447.8</ele>
        <time>2011-06-04T15:01:20Z</time>
      </trkpt>
      <trkpt lat="44.50465" lon="2.49429">
        <ele>449</ele>
        <time>2011-06-04T15:01:22Z</time>
      </trkpt>
      <trkpt lat="44.50469" lon="2.49422">
        <ele>449.2</ele>
        <time>2011-06-04T15:01:23Z</time>
      </trkpt>
      <trkpt lat="44.50474" lon="2.49417">
        <ele>449.1</ele>
        <time>2011-06-04T15:01:24Z</time>
      </trkpt>
      <trkpt lat="44.50478" lon="2.49414">
        <ele>448.6</ele>
        <time>2011-06-04T15:01:25Z</time>
      </trkpt>
      <trkpt lat="44.50483" lon="2.49411">
        <ele>448</ele>
        <time>2011-06-04T15:01:26Z</time>
      </trkpt>
      <trkpt lat="44.50493" lon="2.49407">
        <ele>446.4</ele>
        <time>2011-06-04T15:01:29Z</time>
      </trkpt>
      <trkpt lat="44.50506" lon="2.49401">
        <ele>444.3</ele>
        <time>2011-06-04T15:01:34Z</time>
      </trkpt>
      <trkpt lat="44.50508" lon="2.494">
        <ele>444</ele>
        <time>2011-06-04T15:01:35Z</time>
      </trkpt>
      <trkpt lat="44.50521" lon="2.49393">
        <ele>442.1</ele>
        <time>2011-06-04T15:01:40Z</time>
      </trkpt>
      <trkpt lat="44.50533" lon="2.49384">
        <ele>440.3</ele>
        <time>2011-06-04T15:01:46Z</time>
      </trkpt>
      <trkpt lat="44.50539" lon="2.49381">
        <ele>439.5</ele>
        <time>2011-06-04T15:01:49Z</time>
      </trkpt>
      <trkpt lat="44.5056" lon="2.4937">
        <ele>436.5</ele>
        <time>2011-06-04T15:01:59Z</time>
      </trkpt>
      <trkpt lat="44.50564" lon="2.49366">
        <ele>436.2</ele>
        <time>2011-06-04T15:02:01Z</time>
      </trkpt>
      <trkpt lat="44.50567" lon="2.4936">
        <ele>436.1</ele>
        <time>2011-06-04T15:02:03Z</time>
      </trkpt>
      <trkpt lat="44.5057" lon="2.49351">
        <ele>436.6</ele>
        <time>2011-06-04T15:02:05Z</time>
      </trkpt>
      <trkpt lat="44.50571" lon="2.4934">
        <ele>437.6</ele>
        <time>2011-06-04T15:02:07Z</time>
      </trkpt>
      <trkpt lat="44.50571" lon="2.49334">
        <ele>438.4</ele>
        <time>2011-06-04T15:02:08Z</time>
      </trkpt>
      <trkpt lat="44.50568" lon="2.49328">
        <ele>437.6</ele>
        <time>2011-06-04T15:02:09Z</time>
      </trkpt>
      <trkpt lat="44.50558" lon="2.49309">
        <ele>434.7</ele>
        <time>2011-06-04T15:02:12Z</time>
      </trkpt>
      <trkpt lat="44.50552" lon="2.49294">
        <ele>432</ele>
        <time>2011-06-04T15:02:14Z</time>
      </trkpt>
      <trkpt lat="44.50548" lon="2.49287">
        <ele>431.2</ele>
        <time>2011-06-04T15:02:15Z</time>
      </trkpt>
      <trkpt lat="44.50543" lon="2.49281">
        <ele>430.5</ele>
        <time>2011-06-04T15:02:16Z</time>
      </trkpt>
      <trkpt lat="44.50538" lon="2.49275">
        <ele>430.4</ele>
        <time>2011-06-04T15:02:17Z</time>
      </trkpt>
      <trkpt lat="44.50531" lon="2.49269">
        <ele>430</ele>
        <time>2011-06-04T15:02:18Z</time>
      </trkpt>
      <trkpt lat="44.50525" lon="2.49265">
        <ele>430.4</ele>
        <time>2011-06-04T15:02:19Z</time>
      </trkpt>
      <trkpt lat="44.50489" lon="2.49249">
        <ele>434.5</ele>
        <time>2011-06-04T15:02:24Z</time>
      </trkpt>
      <trkpt lat="44.50469" lon="2.49237">
        <ele>436</ele>
        <time>2011-06-04T15:02:27Z</time>
      </trkpt>
      <trkpt lat="44.50457" lon="2.49225">
        <ele>434.9</ele>
        <time>2011-06-04T15:02:29Z</time>
      </trkpt>
      <trkpt lat="44.50449" lon="2.4922">
        <ele>435.4</ele>
        <time>2011-06-04T15:02:30Z</time>
      </trkpt>
      <trkpt lat="44.50442" lon="2.49218">
        <ele>436.6</ele>
        <time>2011-06-04T15:02:31Z</time>
      </trkpt>
      <trkpt lat="44.50434" lon="2.49217">
        <ele>438.8</ele>
        <time>2011-06-04T15:02:32Z</time>
      </trkpt>
      <trkpt lat="44.50411" lon="2.4922">
        <ele>444.5</ele>
        <time>2011-06-04T15:02:35Z</time>
      </trkpt>
      <trkpt lat="44.50405" lon="2.49218">
        <ele>444.8</ele>
        <time>2011-06-04T15:02:36Z</time>
      </trkpt>
      <trkpt lat="44.50398" lon="2.49215">
        <ele>444.7</ele>
        <time>2011-06-04T15:02:37Z</time>
      </trkpt>
      <trkpt lat="44.50392" lon="2.4921">
        <ele>443.6</ele>
        <time>2011-06-04T15:02:38Z</time>
      </trkpt>
      <trkpt lat="44.50386" lon="2.49205">
        <ele>442.5</ele>
        <time>2011-06-04T15:02:39Z</time>
      </trkpt>
      <trkpt lat="44.5037" lon="2.49186">
        <ele>437.9</ele>
        <time>2011-06-04T15:02:42Z</time>
      </trkpt>
      <trkpt lat="44.50365" lon="2.49179">
        <ele>436.3</ele>
        <time>2011-06-04T15:02:43Z</time>
      </trkpt>
      <trkpt lat="44.50362" lon="2.49171">
        <ele>434.2</ele>
        <time>2011-06-04T15:02:44Z</time>
      </trkpt>
      <trkpt lat="44.50359" lon="2.49162">
        <ele>432.9</ele>
        <time>2011-06-04T15:02:45Z</time>
      </trkpt>
      <trkpt lat="44.50356" lon="2.49152">
        <ele>432.4</ele>
        <time>2011-06-04T15:02:46Z</time>
      </trkpt>
      <trkpt lat="44.50355" lon="2.49142">
        <ele>431.9</ele>
        <time>2011-06-04T15:02:47Z</time>
      </trkpt>
      <trkpt lat="44.50355" lon="2.49133">
        <ele>431.3</ele>
        <time>2011-06-04T15:02:48Z</time>
      </trkpt>
      <trkpt lat="44.50356" lon="2.49124">
        <ele>430.3</ele>
        <time>2011-06-04T15:02:49Z</time>
      </trkpt>
      <trkpt lat="44.50358" lon="2.49116">
        <ele>429</ele>
        <time>2011-06-04T15:02:50Z</time>
      </trkpt>
      <trkpt lat="44.50361" lon="2.49109">
        <ele>427.8</ele>
        <time>2011-06-04T15:02:51Z</time>
      </trkpt>
      <trkpt lat="44.50368" lon="2.49098">
        <ele>425.3</ele>
        <time>2011-06-04T15:02:53Z</time>
      </trkpt>
      <trkpt lat="44.5037" lon="2.49093">
        <ele>424.3</ele>
        <time>2011-06-04T15:02:54Z</time>
      </trkpt>
      <trkpt lat="44.50373" lon="2.49085">
        <ele>422.7</ele>
        <time>2011-06-04T15:02:56Z</time>
      </trkpt>
      <trkpt lat="44.50376" lon="2.49072">
        <ele>424.2</ele>
        <time>2011-06-04T15:03:00Z</time>
      </trkpt>
      <trkpt lat="44.50378" lon="2.49054">
        <ele>427.6</ele>
        <time>2011-06-04T15:03:05Z</time>
      </trkpt>
      <trkpt lat="44.5038" lon="2.49044">
        <ele>428.9</ele>
        <time>2011-06-04T15:03:08Z</time>
      </trkpt>
      <trkpt lat="44.50383" lon="2.49039">
        <ele>429.7</ele>
        <time>2011-06-04T15:03:10Z</time>
      </trkpt>
      <trkpt lat="44.50386" lon="2.49034">
        <ele>429.7</ele>
        <time>2011-06-04T15:03:12Z</time>
      </trkpt>
      <trkpt lat="44.50403" lon="2.49022">
        <ele>428.1</ele>
        <time>2011-06-04T15:03:21Z</time>
      </trkpt>
      <trkpt lat="44.5041" lon="2.4902">
        <ele>427.2</ele>
        <time>2011-06-04T15:03:25Z</time>
      </trkpt>
      <trkpt lat="44.50417" lon="2.49015">
        <ele>426.7</ele>
        <time>2011-06-04T15:03:30Z</time>
      </trkpt>
      <trkpt lat="44.50428" lon="2.49006">
        <ele>426.5</ele>
        <time>2011-06-04T15:03:35Z</time>
      </trkpt>
      <trkpt lat="44.50441" lon="2.48994">
        <ele>428.5</ele>
        <time>2011-06-04T15:03:39Z</time>
      </trkpt>
      <trkpt lat="44.50444" lon="2.4899">
        <ele>429.4</ele>
        <time>2011-06-04T15:03:41Z</time>
      </trkpt>
      <trkpt lat="44.50448" lon="2.48987">
        <ele>429.8</ele>
        <time>2011-06-04T15:03:55Z</time>
      </trkpt>
      <trkpt lat="44.5046" lon="2.48972">
        <ele>433.7</ele>
        <time>2011-06-04T15:04:14Z</time>
      </trkpt>
      <trkpt lat="44.50473" lon="2.48959">
        <ele>436.4</ele>
        <time>2011-06-04T15:04:34Z</time>
      </trkpt>
      <trkpt lat="44.50474" lon="2.48958">
        <ele>436.7</ele>
        <time>2011-06-04T15:04:35Z</time>
      </trkpt>
      <trkpt lat="44.50492" lon="2.48937">
        <ele>441.3</ele>
        <time>2011-06-04T15:05:07Z</time>
      </trkpt>
      <trkpt lat="44.50495" lon="2.48934">
        <ele>441.6</ele>
        <time>2011-06-04T15:05:13Z</time>
      </trkpt>
      <trkpt lat="44.5051" lon="2.48923">
        <ele>442.9</ele>
        <time>2011-06-04T15:05:34Z</time>
      </trkpt>
      <trkpt lat="44.50521" lon="2.48913">
        <ele>444.5</ele>
        <time>2011-06-04T15:06:00Z</time>
      </trkpt>
      <trkpt lat="44.50533" lon="2.48899">
        <ele>445.4</ele>
        <time>2011-06-04T15:06:12Z</time>
      </trkpt>
      <trkpt lat="44.50545" lon="2.48887">
        <ele>445.4</ele>
        <time>2011-06-04T15:06:22Z</time>
      </trkpt>
      <trkpt lat="44.50559" lon="2.48879">
        <ele>444.2</ele>
        <time>2011-06-04T15:06:30Z</time>
      </trkpt>
      <trkpt lat="44.50576" lon="2.48874">
        <ele>441.5</ele>
        <time>2011-06-04T15:06:42Z</time>
      </trkpt>
      <trkpt lat="44.50582" lon="2.4887">
        <ele>440.9</ele>
        <time>2011-06-04T15:06:46Z</time>
      </trkpt>
      <trkpt lat="44.50596" lon="2.48859">
        <ele>436.7</ele>
        <time>2011-06-04T15:06:57Z</time>
      </trkpt>
      <trkpt lat="44.506" lon="2.48852">
        <ele>435.3</ele>
        <time>2011-06-04T15:07:01Z</time>
      </trkpt>
      <trkpt lat="44.50605" lon="2.48842">
        <ele>434.1</ele>
        <time>2011-06-04T15:07:05Z</time>
      </trkpt>
      <trkpt lat="44.5061" lon="2.48825">
        <ele>432</ele>
        <time>2011-06-04T15:07:10Z</time>
      </trkpt>
      <trkpt lat="44.50611" lon="2.4882">
        <ele>431.1</ele>
        <time>2011-06-04T15:07:12Z</time>
      </trkpt>
      <trkpt lat="44.50613" lon="2.488">
        <ele>429.4</ele>
        <time>2011-06-04T15:07:19Z</time>
      </trkpt>
      <trkpt lat="44.50613" lon="2.48791">
        <ele>429</ele>
        <time>2011-06-04T15:07:22Z</time>
      </trkpt>
      <trkpt lat="44.5061" lon="2.4877">
        <ele>429.5</ele>
        <time>2011-06-04T15:07:30Z</time>
      </trkpt>
      <trkpt lat="44.50602" lon="2.48753">
        <ele>432.4</ele>
        <time>2011-06-04T15:07:35Z</time>
      </trkpt>
      <trkpt lat="44.50598" lon="2.48748">
        <ele>434.2</ele>
        <time>2011-06-04T15:07:36Z</time>
      </trkpt>
      <trkpt lat="44.50594" lon="2.48744">
        <ele>436.3</ele>
        <time>2011-06-04T15:07:37Z</time>
      </trkpt>
      <trkpt lat="44.50585" lon="2.48739">
        <ele>440.7</ele>
        <time>2011-06-04T15:07:40Z</time>
      </trkpt>
      <trkpt lat="44.50586" lon="2.48729">
        <ele>441</ele>
        <time>2011-06-04T15:07:45Z</time>
      </trkpt>
      <trkpt lat="44.5059" lon="2.48722">
        <ele>439.7</ele>
        <time>2011-06-04T15:07:49Z</time>
      </trkpt>
      <trkpt lat="44.50595" lon="2.48715">
        <ele>437.9</ele>
        <time>2011-06-04T15:07:54Z</time>
      </trkpt>
      <trkpt lat="44.50601" lon="2.4871">
        <ele>436.3</ele>
        <time>2011-06-04T15:07:58Z</time>
      </trkpt>
      <trkpt lat="44.50605" lon="2.48702">
        <ele>435.3</ele>
        <time>2011-06-04T15:08:02Z</time>
      </trkpt>
      <trkpt lat="44.50611" lon="2.4868">
        <ele>435.5</ele>
        <time>2011-06-04T15:08:09Z</time>
      </trkpt>
      <trkpt lat="44.50613" lon="2.48675">
        <ele>435.2</ele>
        <time>2011-06-04T15:08:11Z</time>
      </trkpt>
      <trkpt lat="44.50616" lon="2.48667">
        <ele>435.1</ele>
        <time>2011-06-04T15:08:13Z</time>
      </trkpt>
      <trkpt lat="44.50617" lon="2.48657">
        <ele>437</ele>
        <time>2011-06-04T15:08:15Z</time>
      </trkpt>
      <trkpt lat="44.50617" lon="2.48649">
        <ele>438.7</ele>
        <time>2011-06-04T15:08:17Z</time>
      </trkpt>
      <trkpt lat="44.50615" lon="2.48642">
        <ele>440.5</ele>
        <time>2011-06-04T15:08:19Z</time>
      </trkpt>
      <trkpt lat="44.50614" lon="2.48635">
        <ele>442.3</ele>
        <time>2011-06-04T15:08:21Z</time>
      </trkpt>
      <trkpt lat="44.5062" lon="2.48629">
        <ele>442.1</ele>
        <time>2011-06-04T15:08:27Z</time>
      </trkpt>
      <trkpt lat="44.50626" lon="2.48629">
        <ele>440</ele>
        <time>2011-06-04T15:08:32Z</time>
      </trkpt>
      <trkpt lat="44.50632" lon="2.48628">
        <ele>438.2</ele>
        <time>2011-06-04T15:08:35Z</time>
      </trkpt>
      <trkpt lat="44.50636" lon="2.48626">
        <ele>437.4</ele>
        <time>2011-06-04T15:08:37Z</time>
      </trkpt>
      <trkpt lat="44.50642" lon="2.48625">
        <ele>436</ele>
        <time>2011-06-04T15:08:39Z</time>
      </trkpt>
      <trkpt lat="44.50652" lon="2.4862">
        <ele>434.1</ele>
        <time>2011-06-04T15:08:43Z</time>
      </trkpt>
      <trkpt lat="44.50656" lon="2.48615">
        <ele>433.8</ele>
        <time>2011-06-04T15:08:45Z</time>
      </trkpt>
      <trkpt lat="44.5066" lon="2.48608">
        <ele>434.3</ele>
        <time>2011-06-04T15:08:48Z</time>
      </trkpt>
      <trkpt lat="44.50662" lon="2.48603">
        <ele>434.8</ele>
        <time>2011-06-04T15:08:50Z</time>
      </trkpt>
      <trkpt lat="44.50667" lon="2.48593">
        <ele>435</ele>
        <time>2011-06-04T15:08:54Z</time>
      </trkpt>
      <trkpt lat="44.5067" lon="2.48586">
        <ele>435.3</ele>
        <time>2011-06-04T15:08:57Z</time>
      </trkpt>
      <trkpt lat="44.50672" lon="2.48578">
        <ele>435.7</ele>
        <time>2011-06-04T15:09:01Z</time>
      </trkpt>
      <trkpt lat="44.50673" lon="2.48573">
        <ele>435.7</ele>
        <time>2011-06-04T15:09:06Z</time>
      </trkpt>
      <trkpt lat="44.5068" lon="2.48558">
        <ele>434.7</ele>
        <time>2011-06-04T15:09:19Z</time>
      </trkpt>
      <trkpt lat="44.50683" lon="2.48553">
        <ele>434.1</ele>
        <time>2011-06-04T15:09:26Z</time>
      </trkpt>
      <trkpt lat="44.50685" lon="2.48542">
        <ele>434.1</ele>
        <time>2011-06-04T15:09:35Z</time>
      </trkpt>
      <trkpt lat="44.50686" lon="2.48536">
        <ele>434.4</ele>
        <time>2011-06-04T15:09:40Z</time>
      </trkpt>
      <trkpt lat="44.5069" lon="2.48521">
        <ele>434.1</ele>
        <time>2011-06-04T15:09:52Z</time>
      </trkpt>
      <trkpt lat="44.50692" lon="2.485">
        <ele>434.7</ele>
        <time>2011-06-04T15:10:06Z</time>
      </trkpt>
      <trkpt lat="44.50689" lon="2.4849">
        <ele>435.8</ele>
        <time>2011-06-04T15:10:14Z</time>
      </trkpt>
      <trkpt lat="44.50685" lon="2.4848">
        <ele>437.3</ele>
        <time>2011-06-04T15:10:22Z</time>
      </trkpt>
      <trkpt lat="44.50683" lon="2.48469">
        <ele>438.4</ele>
        <time>2011-06-04T15:10:28Z</time>
      </trkpt>
      <trkpt lat="44.50679" lon="2.4846">
        <ele>439.8</ele>
        <time>2011-06-04T15:10:35Z</time>
      </trkpt>
      <trkpt lat="44.50674" lon="2.48453">
        <ele>441.2</ele>
        <time>2011-06-04T15:10:41Z</time>
      </trkpt>
      <trkpt lat="44.50669" lon="2.48446">
        <ele>442.9</ele>
        <time>2011-06-04T15:10:48Z</time>
      </trkpt>
      <trkpt lat="44.50655" lon="2.48419">
        <ele>447.6</ele>
        <time>2011-06-04T15:11:13Z</time>
      </trkpt>
      <trkpt lat="44.50649" lon="2.48411">
        <ele>449.6</ele>
        <time>2011-06-04T15:11:24Z</time>
      </trkpt>
      <trkpt lat="44.50645" lon="2.48402">
        <ele>451</ele>
        <time>2011-06-04T15:11:29Z</time>
      </trkpt>
      <trkpt lat="44.50645" lon="2.48396">
        <ele>451.3</ele>
        <time>2011-06-04T15:11:32Z</time>
      </trkpt>
      <trkpt lat="44.50643" lon="2.48364">
        <ele>452.7</ele>
        <time>2011-06-04T15:11:50Z</time>
      </trkpt>
      <trkpt lat="44.50643" lon="2.48358">
        <ele>452.8</ele>
        <time>2011-06-04T15:11:53Z</time>
      </trkpt>
      <trkpt lat="44.50644" lon="2.48352">
        <ele>452.6</ele>
        <time>2011-06-04T15:11:56Z</time>
      </trkpt>
      <trkpt lat="44.50649" lon="2.48329">
        <ele>451.7</ele>
        <time>2011-06-04T15:12:09Z</time>
      </trkpt>
      <trkpt lat="44.50648" lon="2.48309">
        <ele>452.3</ele>
        <time>2011-06-04T15:12:17Z</time>
      </trkpt>
      <trkpt lat="44.50648" lon="2.48293">
        <ele>452.8</ele>
        <time>2011-06-04T15:12:22Z</time>
      </trkpt>
      <trkpt lat="44.50646" lon="2.4828">
        <ele>453.5</ele>
        <time>2011-06-04T15:12:24Z</time>
      </trkpt>
      <trkpt lat="44.50643" lon="2.48243">
        <ele>454.7</ele>
        <time>2011-06-04T15:12:28Z</time>
      </trkpt>
      <trkpt lat="44.50642" lon="2.48224">
        <ele>454.4</ele>
        <time>2011-06-04T15:12:30Z</time>
      </trkpt>
      <trkpt lat="44.50642" lon="2.48215">
        <ele>454.1</ele>
        <time>2011-06-04T15:12:31Z</time>
      </trkpt>
      <trkpt lat="44.50638" lon="2.48167">
        <ele>453.1</ele>
        <time>2011-06-04T15:12:36Z</time>
      </trkpt>
      <trkpt lat="44.50635" lon="2.48147">
        <ele>451.6</ele>
        <time>2011-06-04T15:12:38Z</time>
      </trkpt>
      <trkpt lat="44.50628" lon="2.48121">
        <ele>450.8</ele>
        <time>2011-06-04T15:12:41Z</time>
      </trkpt>
      <trkpt lat="44.50625" lon="2.48114">
        <ele>450.6</ele>
        <time>2011-06-04T15:12:42Z</time>
      </trkpt>
      <trkpt lat="44.50615" lon="2.48095">
        <ele>451.6</ele>
        <time>2011-06-04T15:12:46Z</time>
      </trkpt>
      <trkpt lat="44.50609" lon="2.48088">
        <ele>452.8</ele>
        <time>2011-06-04T15:12:49Z</time>
      </trkpt>
      <trkpt lat="44.50604" lon="2.48085">
        <ele>453.9</ele>
        <time>2011-06-04T15:12:51Z</time>
      </trkpt>
      <trkpt lat="44.50602" lon="2.48085">
        <ele>454.7</ele>
        <time>2011-06-04T15:12:52Z</time>
      </trkpt>
      <trkpt lat="44.50597" lon="2.48084">
        <ele>456</ele>
        <time>2011-06-04T15:12:54Z</time>
      </trkpt>
      <trkpt lat="44.50585" lon="2.48089">
        <ele>460.1</ele>
        <time>2011-06-04T15:12:59Z</time>
      </trkpt>
      <trkpt lat="44.50576" lon="2.48094">
        <ele>461.9</ele>
        <time>2011-06-04T15:13:03Z</time>
      </trkpt>
      <trkpt lat="44.50572" lon="2.48097">
        <ele>462.7</ele>
        <time>2011-06-04T15:13:05Z</time>
      </trkpt>
      <trkpt lat="44.50568" lon="2.481">
        <ele>463.7</ele>
        <time>2011-06-04T15:13:07Z</time>
      </trkpt>
      <trkpt lat="44.50554" lon="2.48113">
        <ele>467</ele>
        <time>2011-06-04T15:13:14Z</time>
      </trkpt>
      <trkpt lat="44.50551" lon="2.48115">
        <ele>467.8</ele>
        <time>2011-06-04T15:13:15Z</time>
      </trkpt>
      <trkpt lat="44.50545" lon="2.48118">
        <ele>468.9</ele>
        <time>2011-06-04T15:13:17Z</time>
      </trkpt>
      <trkpt lat="44.50541" lon="2.48119">
        <ele>469.6</ele>
        <time>2011-06-04T15:13:18Z</time>
      </trkpt>
      <trkpt lat="44.50535" lon="2.48119">
        <ele>470.7</ele>
        <time>2011-06-04T15:13:20Z</time>
      </trkpt>
      <trkpt lat="44.5053" lon="2.48117">
        <ele>471.4</ele>
        <time>2011-06-04T15:13:22Z</time>
      </trkpt>
      <trkpt lat="44.50526" lon="2.48115">
        <ele>471.7</ele>
        <time>2011-06-04T15:13:24Z</time>
      </trkpt>
      <trkpt lat="44.50514" lon="2.48105">
        <ele>472.4</ele>
        <time>2011-06-04T15:13:30Z</time>
      </trkpt>
      <trkpt lat="44.50509" lon="2.48103">
        <ele>473</ele>
        <time>2011-06-04T15:13:32Z</time>
      </trkpt>
      <trkpt lat="44.50503" lon="2.48102">
        <ele>473.7</ele>
        <time>2011-06-04T15:13:35Z</time>
      </trkpt>
      <trkpt lat="44.50495" lon="2.48102">
        <ele>474.3</ele>
        <time>2011-06-04T15:13:39Z</time>
      </trkpt>
      <trkpt lat="44.5048" lon="2.48107">
        <ele>475.3</ele>
        <time>2011-06-04T15:13:48Z</time>
      </trkpt>
      <trkpt lat="44.50473" lon="2.48111">
        <ele>476.3</ele>
        <time>2011-06-04T15:13:53Z</time>
      </trkpt>
      <trkpt lat="44.50466" lon="2.48112">
        <ele>476.8</ele>
        <time>2011-06-04T15:13:59Z</time>
      </trkpt>
      <trkpt lat="44.50458" lon="2.48112">
        <ele>477.1</ele>
        <time>2011-06-04T15:14:05Z</time>
      </trkpt>
      <trkpt lat="44.50457" lon="2.48112">
        <ele>477.2</ele>
        <time>2011-06-04T15:14:06Z</time>
      </trkpt>
      <trkpt lat="44.50447" lon="2.48107">
        <ele>476.7</ele>
        <time>2011-06-04T15:14:14Z</time>
      </trkpt>
      <trkpt lat="44.50434" lon="2.48102">
        <ele>476.2</ele>
        <time>2011-06-04T15:14:23Z</time>
      </trkpt>
      <trkpt lat="44.5043" lon="2.48099">
        <ele>475.8</ele>
        <time>2011-06-04T15:14:26Z</time>
      </trkpt>
      <trkpt lat="44.50427" lon="2.48096">
        <ele>475.2</ele>
        <time>2011-06-04T15:14:29Z</time>
      </trkpt>
      <trkpt lat="44.50423" lon="2.48093">
        <ele>474.7</ele>
        <time>2011-06-04T15:14:32Z</time>
      </trkpt>
      <trkpt lat="44.50397" lon="2.48081">
        <ele>476.3</ele>
        <time>2011-06-04T15:14:51Z</time>
      </trkpt>
      <trkpt lat="44.50384" lon="2.48076">
        <ele>478</ele>
        <time>2011-06-04T15:14:59Z</time>
      </trkpt>
      <trkpt lat="44.50362" lon="2.4806">
        <ele>479.3</ele>
        <time>2011-06-04T15:15:13Z</time>
      </trkpt>
      <trkpt lat="44.50354" lon="2.48052">
        <ele>479.3</ele>
        <time>2011-06-04T15:15:19Z</time>
      </trkpt>
      <trkpt lat="44.50348" lon="2.48047">
        <ele>479.7</ele>
        <time>2011-06-04T15:15:23Z</time>
      </trkpt>
      <trkpt lat="44.50343" lon="2.48041">
        <ele>479.4</ele>
        <time>2011-06-04T15:15:27Z</time>
      </trkpt>
      <trkpt lat="44.50337" lon="2.48035">
        <ele>479.6</ele>
        <time>2011-06-04T15:15:31Z</time>
      </trkpt>
      <trkpt lat="44.50329" lon="2.48022">
        <ele>479</ele>
        <time>2011-06-04T15:15:37Z</time>
      </trkpt>
      <trkpt lat="44.50326" lon="2.48018">
        <ele>479.2</ele>
        <time>2011-06-04T15:15:40Z</time>
      </trkpt>
      <trkpt lat="44.50316" lon="2.48006">
        <ele>479.9</ele>
        <time>2011-06-04T15:15:48Z</time>
      </trkpt>
      <trkpt lat="44.50311" lon="2.47999">
        <ele>480.3</ele>
        <time>2011-06-04T15:15:52Z</time>
      </trkpt>
      <trkpt lat="44.50305" lon="2.47994">
        <ele>481.1</ele>
        <time>2011-06-04T15:15:56Z</time>
      </trkpt>
      <trkpt lat="44.50301" lon="2.47987">
        <ele>481.1</ele>
        <time>2011-06-04T15:16:00Z</time>
      </trkpt>
      <trkpt lat="44.50295" lon="2.47981">
        <ele>482</ele>
        <time>2011-06-04T15:16:04Z</time>
      </trkpt>
      <trkpt lat="44.50285" lon="2.47969">
        <ele>482.8</ele>
        <time>2011-06-04T15:16:11Z</time>
      </trkpt>
      <trkpt lat="44.50272" lon="2.47951">
        <ele>482.9</ele>
        <time>2011-06-04T15:16:20Z</time>
      </trkpt>
      <trkpt lat="44.50268" lon="2.47941">
        <ele>482.3</ele>
        <time>2011-06-04T15:16:24Z</time>
      </trkpt>
      <trkpt lat="44.50265" lon="2.47937">
        <ele>482.4</ele>
        <time>2011-06-04T15:16:26Z</time>
      </trkpt>
      <trkpt lat="44.5026" lon="2.47931">
        <ele>482.5</ele>
        <time>2011-06-04T15:16:30Z</time>
      </trkpt>
      <trkpt lat="44.50253" lon="2.47928">
        <ele>483.6</ele>
        <time>2011-06-04T15:16:34Z</time>
      </trkpt>
      <trkpt lat="44.50246" lon="2.47924">
        <ele>484.6</ele>
        <time>2011-06-04T15:16:38Z</time>
      </trkpt>
      <trkpt lat="44.50242" lon="2.47921">
        <ele>485.3</ele>
        <time>2011-06-04T15:16:40Z</time>
      </trkpt>
      <trkpt lat="44.50236" lon="2.47914">
        <ele>485.7</ele>
        <time>2011-06-04T15:16:42Z</time>
      </trkpt>
      <trkpt lat="44.50233" lon="2.4791">
        <ele>485.9</ele>
        <time>2011-06-04T15:16:43Z</time>
      </trkpt>
      <trkpt lat="44.5021" lon="2.47884">
        <ele>488.1</ele>
        <time>2011-06-04T15:16:49Z</time>
      </trkpt>
      <trkpt lat="44.50206" lon="2.47879">
        <ele>488.3</ele>
        <time>2011-06-04T15:16:50Z</time>
      </trkpt>
      <trkpt lat="44.50201" lon="2.47871">
        <ele>488.6</ele>
        <time>2011-06-04T15:16:51Z</time>
      </trkpt>
      <trkpt lat="44.50198" lon="2.47863">
        <ele>488.1</ele>
        <time>2011-06-04T15:16:52Z</time>
      </trkpt>
      <trkpt lat="44.50195" lon="2.47853">
        <ele>487.5</ele>
        <time>2011-06-04T15:16:53Z</time>
      </trkpt>
      <trkpt lat="44.50193" lon="2.47843">
        <ele>486.2</ele>
        <time>2011-06-04T15:16:54Z</time>
      </trkpt>
      <trkpt lat="44.50192" lon="2.47833">
        <ele>484.9</ele>
        <time>2011-06-04T15:16:55Z</time>
      </trkpt>
      <trkpt lat="44.50192" lon="2.47814">
        <ele>484.8</ele>
        <time>2011-06-04T15:16:57Z</time>
      </trkpt>
      <trkpt lat="44.50193" lon="2.47806">
        <ele>484.5</ele>
        <time>2011-06-04T15:16:58Z</time>
      </trkpt>
      <trkpt lat="44.50194" lon="2.47793">
        <ele>483.9</ele>
        <time>2011-06-04T15:17:00Z</time>
      </trkpt>
      <trkpt lat="44.50197" lon="2.47782">
        <ele>483</ele>
        <time>2011-06-04T15:17:03Z</time>
      </trkpt>
      <trkpt lat="44.502" lon="2.4778">
        <ele>481.8</ele>
        <time>2011-06-04T15:17:05Z</time>
      </trkpt>
      <trkpt lat="44.50204" lon="2.47779">
        <ele>480.1</ele>
        <time>2011-06-04T15:17:07Z</time>
      </trkpt>
      <trkpt lat="44.50207" lon="2.47777">
        <ele>479.3</ele>
        <time>2011-06-04T15:17:08Z</time>
      </trkpt>
      <trkpt lat="44.5021" lon="2.47772">
        <ele>478</ele>
        <time>2011-06-04T15:17:10Z</time>
      </trkpt>
      <trkpt lat="44.50213" lon="2.47766">
        <ele>476.7</ele>
        <time>2011-06-04T15:17:13Z</time>
      </trkpt>
      <trkpt lat="44.50212" lon="2.47757">
        <ele>477.2</ele>
        <time>2011-06-04T15:17:58Z</time>
      </trkpt>
      <trkpt lat="44.50208" lon="2.47761">
        <ele>478.6</ele>
        <time>2011-06-04T15:19:30Z</time>
      </trkpt>
      <trkpt lat="44.50212" lon="2.47758">
        <ele>477.1</ele>
        <time>2011-06-04T15:21:03Z</time>
      </trkpt>
      <trkpt lat="44.50212" lon="2.47764">
        <ele>477.3</ele>
        <time>2011-06-04T15:22:35Z</time>
      </trkpt>
      <trkpt lat="44.50209" lon="2.47773">
        <ele>478.3</ele>
        <time>2011-06-04T15:23:03Z</time>
      </trkpt>
      <trkpt lat="44.50206" lon="2.47778">
        <ele>479.5</ele>
        <time>2011-06-04T15:23:05Z</time>
      </trkpt>
      <trkpt lat="44.50196" lon="2.4779">
        <ele>483.3</ele>
        <time>2011-06-04T15:23:11Z</time>
      </trkpt>
      <trkpt lat="44.50194" lon="2.47795">
        <ele>484</ele>
        <time>2011-06-04T15:23:13Z</time>
      </trkpt>
      <trkpt lat="44.50194" lon="2.47801">
        <ele>484</ele>
        <time>2011-06-04T15:23:15Z</time>
      </trkpt>
      <trkpt lat="44.50195" lon="2.47807">
        <ele>483.8</ele>
        <time>2011-06-04T15:23:17Z</time>
      </trkpt>
      <trkpt lat="44.50199" lon="2.47806">
        <ele>482.2</ele>
        <time>2011-06-04T15:23:20Z</time>
      </trkpt>
      <trkpt lat="44.50204" lon="2.47798">
        <ele>480.3</ele>
        <time>2011-06-04T15:23:22Z</time>
      </trkpt>
      <trkpt lat="44.50217" lon="2.47783">
        <ele>475.5</ele>
        <time>2011-06-04T15:23:25Z</time>
      </trkpt>
      <trkpt lat="44.50229" lon="2.47771">
        <ele>471.1</ele>
        <time>2011-06-04T15:23:27Z</time>
      </trkpt>
      <trkpt lat="44.50235" lon="2.47763">
        <ele>468.8</ele>
        <time>2011-06-04T15:23:28Z</time>
      </trkpt>
      <trkpt lat="44.50245" lon="2.47743">
        <ele>465.6</ele>
        <time>2011-06-04T15:23:30Z</time>
      </trkpt>
      <trkpt lat="44.50248" lon="2.47733">
        <ele>465.3</ele>
        <time>2011-06-04T15:23:31Z</time>
      </trkpt>
      <trkpt lat="44.50253" lon="2.47712">
        <ele>466.2</ele>
        <time>2011-06-04T15:23:33Z</time>
      </trkpt>
      <trkpt lat="44.50256" lon="2.477">
        <ele>466.7</ele>
        <time>2011-06-04T15:23:34Z</time>
      </trkpt>
      <trkpt lat="44.5028" lon="2.47648">
        <ele>466</ele>
        <time>2011-06-04T15:23:39Z</time>
      </trkpt>
      <trkpt lat="44.50286" lon="2.47637">
        <ele>465</ele>
        <time>2011-06-04T15:23:40Z</time>
      </trkpt>
      <trkpt lat="44.50292" lon="2.47627">
        <ele>463.9</ele>
        <time>2011-06-04T15:23:41Z</time>
      </trkpt>
      <trkpt lat="44.50307" lon="2.4761">
        <ele>461.2</ele>
        <time>2011-06-04T15:23:43Z</time>
      </trkpt>
      <trkpt lat="44.50314" lon="2.47601">
        <ele>459.9</ele>
        <time>2011-06-04T15:23:44Z</time>
      </trkpt>
      <trkpt lat="44.50319" lon="2.47591">
        <ele>458.9</ele>
        <time>2011-06-04T15:23:45Z</time>
      </trkpt>
      <trkpt lat="44.50322" lon="2.4758">
        <ele>458</ele>
        <time>2011-06-04T15:23:46Z</time>
      </trkpt>
      <trkpt lat="44.50323" lon="2.47568">
        <ele>456.8</ele>
        <time>2011-06-04T15:23:47Z</time>
      </trkpt>
      <trkpt lat="44.50323" lon="2.47544">
        <ele>455</ele>
        <time>2011-06-04T15:23:49Z</time>
      </trkpt>
      <trkpt lat="44.50322" lon="2.47535">
        <ele>454.4</ele>
        <time>2011-06-04T15:23:50Z</time>
      </trkpt>
      <trkpt lat="44.50318" lon="2.47525">
        <ele>454.4</ele>
        <time>2011-06-04T15:23:52Z</time>
      </trkpt>
      <trkpt lat="44.50313" lon="2.47521">
        <ele>455</ele>
        <time>2011-06-04T15:23:54Z</time>
      </trkpt>
      <trkpt lat="44.50302" lon="2.47517">
        <ele>456.5</ele>
        <time>2011-06-04T15:23:57Z</time>
      </trkpt>
      <trkpt lat="44.50298" lon="2.47514">
        <ele>457</ele>
        <time>2011-06-04T15:23:58Z</time>
      </trkpt>
      <trkpt lat="44.50294" lon="2.47509">
        <ele>457.4</ele>
        <time>2011-06-04T15:23:59Z</time>
      </trkpt>
      <trkpt lat="44.50291" lon="2.47503">
        <ele>457.4</ele>
        <time>2011-06-04T15:24:00Z</time>
      </trkpt>
      <trkpt lat="44.50288" lon="2.47496">
        <ele>457</ele>
        <time>2011-06-04T15:24:01Z</time>
      </trkpt>
      <trkpt lat="44.50286" lon="2.47489">
        <ele>456.4</ele>
        <time>2011-06-04T15:24:02Z</time>
      </trkpt>
      <trkpt lat="44.50278" lon="2.47452">
        <ele>452.7</ele>
        <time>2011-06-04T15:24:06Z</time>
      </trkpt>
      <trkpt lat="44.50275" lon="2.47443">
        <ele>452</ele>
        <time>2011-06-04T15:24:07Z</time>
      </trkpt>
      <trkpt lat="44.50273" lon="2.47433">
        <ele>450.8</ele>
        <time>2011-06-04T15:24:08Z</time>
      </trkpt>
      <trkpt lat="44.50273" lon="2.47425">
        <ele>449.7</ele>
        <time>2011-06-04T15:24:09Z</time>
      </trkpt>
      <trkpt lat="44.50275" lon="2.47416">
        <ele>448.3</ele>
        <time>2011-06-04T15:24:10Z</time>
      </trkpt>
      <trkpt lat="44.50275" lon="2.47407">
        <ele>447.5</ele>
        <time>2011-06-04T15:24:11Z</time>
      </trkpt>
      <trkpt lat="44.50275" lon="2.47384">
        <ele>445.8</ele>
        <time>2011-06-04T15:24:14Z</time>
      </trkpt>
      <trkpt lat="44.50276" lon="2.47372">
        <ele>444.7</ele>
        <time>2011-06-04T15:24:16Z</time>
      </trkpt>
      <trkpt lat="44.50276" lon="2.47361">
        <ele>443.8</ele>
        <time>2011-06-04T15:24:18Z</time>
      </trkpt>
      <trkpt lat="44.50283" lon="2.47324">
        <ele>440.3</ele>
        <time>2011-06-04T15:24:24Z</time>
      </trkpt>
      <trkpt lat="44.50291" lon="2.47301">
        <ele>438.7</ele>
        <time>2011-06-04T15:24:28Z</time>
      </trkpt>
      <trkpt lat="44.50298" lon="2.47284">
        <ele>436.7</ele>
        <time>2011-06-04T15:24:33Z</time>
      </trkpt>
      <trkpt lat="44.50302" lon="2.47274">
        <ele>435.4</ele>
        <time>2011-06-04T15:24:38Z</time>
      </trkpt>
      <trkpt lat="44.50304" lon="2.47265">
        <ele>434.6</ele>
        <time>2011-06-04T15:24:41Z</time>
      </trkpt>
      <trkpt lat="44.50305" lon="2.47251">
        <ele>434.2</ele>
        <time>2011-06-04T15:24:45Z</time>
      </trkpt>
      <trkpt lat="44.50307" lon="2.4723">
        <ele>435.4</ele>
        <time>2011-06-04T15:24:49Z</time>
      </trkpt>
      <trkpt lat="44.50309" lon="2.47224">
        <ele>435.4</ele>
        <time>2011-06-04T15:24:50Z</time>
      </trkpt>
      <trkpt lat="44.50311" lon="2.47219">
        <ele>435.1</ele>
        <time>2011-06-04T15:24:51Z</time>
      </trkpt>
      <trkpt lat="44.50327" lon="2.47194">
        <ele>432.8</ele>
        <time>2011-06-04T15:24:55Z</time>
      </trkpt>
      <trkpt lat="44.50369" lon="2.47149">
        <ele>425.9</ele>
        <time>2011-06-04T15:25:02Z</time>
      </trkpt>
      <trkpt lat="44.50395" lon="2.47127">
        <ele>423.1</ele>
        <time>2011-06-04T15:25:06Z</time>
      </trkpt>
      <trkpt lat="44.5041" lon="2.47112">
        <ele>422.7</ele>
        <time>2011-06-04T15:25:08Z</time>
      </trkpt>
      <trkpt lat="44.50417" lon="2.47104">
        <ele>423.3</ele>
        <time>2011-06-04T15:25:09Z</time>
      </trkpt>
      <trkpt lat="44.50428" lon="2.47084">
        <ele>425.3</ele>
        <time>2011-06-04T15:25:11Z</time>
      </trkpt>
      <trkpt lat="44.50434" lon="2.47074">
        <ele>425</ele>
        <time>2011-06-04T15:25:12Z</time>
      </trkpt>
      <trkpt lat="44.50442" lon="2.47066">
        <ele>424.4</ele>
        <time>2011-06-04T15:25:13Z</time>
      </trkpt>
      <trkpt lat="44.50473" lon="2.47038">
        <ele>423.4</ele>
        <time>2011-06-04T15:25:17Z</time>
      </trkpt>
      <trkpt lat="44.50512" lon="2.46995">
        <ele>425.7</ele>
        <time>2011-06-04T15:25:23Z</time>
      </trkpt>
      <trkpt lat="44.50519" lon="2.46989">
        <ele>424.3</ele>
        <time>2011-06-04T15:25:24Z</time>
      </trkpt>
      <trkpt lat="44.50526" lon="2.46984">
        <ele>423</ele>
        <time>2011-06-04T15:25:25Z</time>
      </trkpt>
      <trkpt lat="44.5055" lon="2.46971">
        <ele>418.7</ele>
        <time>2011-06-04T15:25:29Z</time>
      </trkpt>
      <trkpt lat="44.50574" lon="2.46954">
        <ele>417.2</ele>
        <time>2011-06-04T15:25:33Z</time>
      </trkpt>
      <trkpt lat="44.50606" lon="2.46927">
        <ele>416.4</ele>
        <time>2011-06-04T15:25:38Z</time>
      </trkpt>
      <trkpt lat="44.50617" lon="2.46916">
        <ele>415.4</ele>
        <time>2011-06-04T15:25:40Z</time>
      </trkpt>
      <trkpt lat="44.50652" lon="2.46898">
        <ele>408.2</ele>
        <time>2011-06-04T15:25:45Z</time>
      </trkpt>
      <trkpt lat="44.50658" lon="2.46892">
        <ele>407.4</ele>
        <time>2011-06-04T15:25:46Z</time>
      </trkpt>
      <trkpt lat="44.50671" lon="2.46878">
        <ele>406.5</ele>
        <time>2011-06-04T15:25:48Z</time>
      </trkpt>
      <trkpt lat="44.50684" lon="2.4686">
        <ele>405.3</ele>
        <time>2011-06-04T15:25:50Z</time>
      </trkpt>
      <trkpt lat="44.50721" lon="2.46819">
        <ele>399.9</ele>
        <time>2011-06-04T15:25:55Z</time>
      </trkpt>
      <trkpt lat="44.5074" lon="2.46796">
        <ele>397.8</ele>
        <time>2011-06-04T15:25:59Z</time>
      </trkpt>
      <trkpt lat="44.50746" lon="2.46794">
        <ele>396.7</ele>
        <time>2011-06-04T15:26:01Z</time>
      </trkpt>
      <trkpt lat="44.5075" lon="2.46798">
        <ele>395</ele>
        <time>2011-06-04T15:26:03Z</time>
      </trkpt>
      <trkpt lat="44.50752" lon="2.46804">
        <ele>393.5</ele>
        <time>2011-06-04T15:26:05Z</time>
      </trkpt>
      <trkpt lat="44.50752" lon="2.46808">
        <ele>392.8</ele>
        <time>2011-06-04T15:26:06Z</time>
      </trkpt>
      <trkpt lat="44.5075" lon="2.46818">
        <ele>391.5</ele>
        <time>2011-06-04T15:26:08Z</time>
      </trkpt>
      <trkpt lat="44.50747" lon="2.46828">
        <ele>390.7</ele>
        <time>2011-06-04T15:26:10Z</time>
      </trkpt>
      <trkpt lat="44.50739" lon="2.46844">
        <ele>390.5</ele>
        <time>2011-06-04T15:26:13Z</time>
      </trkpt>
      <trkpt lat="44.50731" lon="2.46856">
        <ele>390.4</ele>
        <time>2011-06-04T15:26:15Z</time>
      </trkpt>
      <trkpt lat="44.5072" lon="2.46878">
        <ele>389.8</ele>
        <time>2011-06-04T15:26:18Z</time>
      </trkpt>
      <trkpt lat="44.50712" lon="2.46896">
        <ele>388.8</ele>
        <time>2011-06-04T15:26:20Z</time>
      </trkpt>
      <trkpt lat="44.50705" lon="2.46916">
        <ele>387.3</ele>
        <time>2011-06-04T15:26:22Z</time>
      </trkpt>
      <trkpt lat="44.50701" lon="2.46925">
        <ele>387.1</ele>
        <time>2011-06-04T15:26:23Z</time>
      </trkpt>
      <trkpt lat="44.50696" lon="2.46933">
        <ele>387.5</ele>
        <time>2011-06-04T15:26:24Z</time>
      </trkpt>
      <trkpt lat="44.50689" lon="2.46939">
        <ele>388.4</ele>
        <time>2011-06-04T15:26:25Z</time>
      </trkpt>
      <trkpt lat="44.50674" lon="2.46946">
        <ele>391.9</ele>
        <time>2011-06-04T15:26:27Z</time>
      </trkpt>
      <trkpt lat="44.50667" lon="2.46951">
        <ele>393.1</ele>
        <time>2011-06-04T15:26:28Z</time>
      </trkpt>
      <trkpt lat="44.5066" lon="2.46958">
        <ele>393.5</ele>
        <time>2011-06-04T15:26:29Z</time>
      </trkpt>
      <trkpt lat="44.50654" lon="2.46966">
        <ele>393.2</ele>
        <time>2011-06-04T15:26:30Z</time>
      </trkpt>
      <trkpt lat="44.50649" lon="2.46976">
        <ele>392.3</ele>
        <time>2011-06-04T15:26:31Z</time>
      </trkpt>
      <trkpt lat="44.50646" lon="2.46987">
        <ele>390.9</ele>
        <time>2011-06-04T15:26:32Z</time>
      </trkpt>
      <trkpt lat="44.50641" lon="2.4701">
        <ele>386.9</ele>
        <time>2011-06-04T15:26:34Z</time>
      </trkpt>
      <trkpt lat="44.5064" lon="2.4702">
        <ele>385.1</ele>
        <time>2011-06-04T15:26:35Z</time>
      </trkpt>
      <trkpt lat="44.50637" lon="2.4703">
        <ele>383.5</ele>
        <time>2011-06-04T15:26:36Z</time>
      </trkpt>
      <trkpt lat="44.50634" lon="2.47038">
        <ele>382.9</ele>
        <time>2011-06-04T15:26:37Z</time>
      </trkpt>
      <trkpt lat="44.50628" lon="2.47043">
        <ele>383.2</ele>
        <time>2011-06-04T15:26:38Z</time>
      </trkpt>
      <trkpt lat="44.50616" lon="2.47052">
        <ele>384.4</ele>
        <time>2011-06-04T15:26:40Z</time>
      </trkpt>
      <trkpt lat="44.5061" lon="2.47058">
        <ele>384.8</ele>
        <time>2011-06-04T15:26:41Z</time>
      </trkpt>
      <trkpt lat="44.50604" lon="2.47065">
        <ele>384.8</ele>
        <time>2011-06-04T15:26:42Z</time>
      </trkpt>
      <trkpt lat="44.50599" lon="2.47072">
        <ele>384.5</ele>
        <time>2011-06-04T15:26:43Z</time>
      </trkpt>
      <trkpt lat="44.50594" lon="2.47081">
        <ele>383.8</ele>
        <time>2011-06-04T15:26:44Z</time>
      </trkpt>
      <trkpt lat="44.50589" lon="2.47088">
        <ele>384.5</ele>
        <time>2011-06-04T15:26:45Z</time>
      </trkpt>
      <trkpt lat="44.50582" lon="2.47093">
        <ele>385.9</ele>
        <time>2011-06-04T15:26:46Z</time>
      </trkpt>
      <trkpt lat="44.50567" lon="2.47099">
        <ele>389.3</ele>
        <time>2011-06-04T15:26:48Z</time>
      </trkpt>
      <trkpt lat="44.5056" lon="2.47103">
        <ele>390.8</ele>
        <time>2011-06-04T15:26:49Z</time>
      </trkpt>
      <trkpt lat="44.50553" lon="2.47108">
        <ele>392</ele>
        <time>2011-06-04T15:26:50Z</time>
      </trkpt>
      <trkpt lat="44.50516" lon="2.47149">
        <ele>395.2</ele>
        <time>2011-06-04T15:26:57Z</time>
      </trkpt>
      <trkpt lat="44.50511" lon="2.47154">
        <ele>395.3</ele>
        <time>2011-06-04T15:26:58Z</time>
      </trkpt>
      <trkpt lat="44.505" lon="2.47163">
        <ele>395.7</ele>
        <time>2011-06-04T15:27:00Z</time>
      </trkpt>
      <trkpt lat="44.50489" lon="2.47176">
        <ele>397.7</ele>
        <time>2011-06-04T15:27:02Z</time>
      </trkpt>
      <trkpt lat="44.50485" lon="2.47184">
        <ele>399.1</ele>
        <time>2011-06-04T15:27:03Z</time>
      </trkpt>
      <trkpt lat="44.50479" lon="2.47202">
        <ele>401.8</ele>
        <time>2011-06-04T15:27:05Z</time>
      </trkpt>
      <trkpt lat="44.50477" lon="2.47211">
        <ele>402.8</ele>
        <time>2011-06-04T15:27:06Z</time>
      </trkpt>
      <trkpt lat="44.50477" lon="2.47218">
        <ele>403.5</ele>
        <time>2011-06-04T15:27:07Z</time>
      </trkpt>
      <trkpt lat="44.50484" lon="2.47224">
        <ele>403.3</ele>
        <time>2011-06-04T15:27:09Z</time>
      </trkpt>
      <trkpt lat="44.5049" lon="2.47224">
        <ele>402.5</ele>
        <time>2011-06-04T15:27:11Z</time>
      </trkpt>
      <trkpt lat="44.50504" lon="2.47217">
        <ele>399.9</ele>
        <time>2011-06-04T15:27:21Z</time>
      </trkpt>
      <trkpt lat="44.50519" lon="2.47213">
        <ele>397.5</ele>
        <time>2011-06-04T15:27:30Z</time>
      </trkpt>
      <trkpt lat="44.50527" lon="2.47212">
        <ele>396.6</ele>
        <time>2011-06-04T15:27:35Z</time>
      </trkpt>
      <trkpt lat="44.50539" lon="2.47214">
        <ele>395.3</ele>
        <time>2011-06-04T15:27:41Z</time>
      </trkpt>
      <trkpt lat="44.50544" lon="2.47215">
        <ele>394.8</ele>
        <time>2011-06-04T15:27:43Z</time>
      </trkpt>
      <trkpt lat="44.50548" lon="2.47216">
        <ele>394.2</ele>
        <time>2011-06-04T15:27:45Z</time>
      </trkpt>
      <trkpt lat="44.50561" lon="2.47218">
        <ele>393</ele>
        <time>2011-06-04T15:27:50Z</time>
      </trkpt>
      <trkpt lat="44.50578" lon="2.47221">
        <ele>391.3</ele>
        <time>2011-06-04T15:27:57Z</time>
      </trkpt>
      <trkpt lat="44.50585" lon="2.47221">
        <ele>390.6</ele>
        <time>2011-06-04T15:28:00Z</time>
      </trkpt>
      <trkpt lat="44.50602" lon="2.47221">
        <ele>388</ele>
        <time>2011-06-04T15:28:07Z</time>
      </trkpt>
      <trkpt lat="44.50616" lon="2.47219">
        <ele>385.9</ele>
        <time>2011-06-04T15:28:13Z</time>
      </trkpt>
      <trkpt lat="44.50622" lon="2.47217">
        <ele>384.8</ele>
        <time>2011-06-04T15:28:16Z</time>
      </trkpt>
      <trkpt lat="44.5063" lon="2.47218">
        <ele>383.7</ele>
        <time>2011-06-04T15:28:19Z</time>
      </trkpt>
      <trkpt lat="44.50635" lon="2.47219">
        <ele>383.2</ele>
        <time>2011-06-04T15:28:21Z</time>
      </trkpt>
      <trkpt lat="44.50637" lon="2.47221">
        <ele>383</ele>
        <time>2011-06-04T15:28:22Z</time>
      </trkpt>
      <trkpt lat="44.5064" lon="2.47227">
        <ele>383.3</ele>
        <time>2011-06-04T15:28:24Z</time>
      </trkpt>
      <trkpt lat="44.50641" lon="2.47232">
        <ele>383.9</ele>
        <time>2011-06-04T15:28:26Z</time>
      </trkpt>
      <trkpt lat="44.50638" lon="2.4724">
        <ele>385.2</ele>
        <time>2011-06-04T15:28:30Z</time>
      </trkpt>
      <trkpt lat="44.50631" lon="2.47248">
        <ele>387.2</ele>
        <time>2011-06-04T15:28:36Z</time>
      </trkpt>
      <trkpt lat="44.50626" lon="2.47253">
        <ele>388.8</ele>
        <time>2011-06-04T15:28:40Z</time>
      </trkpt>
      <trkpt lat="44.50623" lon="2.47257">
        <ele>389.9</ele>
        <time>2011-06-04T15:28:43Z</time>
      </trkpt>
      <trkpt lat="44.50613" lon="2.4727">
        <ele>393.5</ele>
        <time>2011-06-04T15:28:51Z</time>
      </trkpt>
      <trkpt lat="44.50606" lon="2.47279">
        <ele>395.8</ele>
        <time>2011-06-04T15:28:57Z</time>
      </trkpt>
      <trkpt lat="44.50588" lon="2.47301">
        <ele>400.7</ele>
        <time>2011-06-04T15:29:09Z</time>
      </trkpt>
      <trkpt lat="44.50581" lon="2.47312">
        <ele>402.5</ele>
        <time>2011-06-04T15:29:13Z</time>
      </trkpt>
      <trkpt lat="44.50578" lon="2.47318">
        <ele>403.4</ele>
        <time>2011-06-04T15:29:15Z</time>
      </trkpt>
      <trkpt lat="44.50574" lon="2.47329">
        <ele>404.9</ele>
        <time>2011-06-04T15:29:19Z</time>
      </trkpt>
      <trkpt lat="44.5057" lon="2.47335">
        <ele>405.9</ele>
        <time>2011-06-04T15:29:21Z</time>
      </trkpt>
      <trkpt lat="44.50566" lon="2.47345">
        <ele>408.5</ele>
        <time>2011-06-04T15:29:25Z</time>
      </trkpt>
      <trkpt lat="44.50557" lon="2.47359">
        <ele>411.7</ele>
        <time>2011-06-04T15:29:30Z</time>
      </trkpt>
      <trkpt lat="44.50555" lon="2.47363">
        <ele>412.6</ele>
        <time>2011-06-04T15:29:32Z</time>
      </trkpt>
      <trkpt lat="44.50552" lon="2.47367">
        <ele>413.8</ele>
        <time>2011-06-04T15:29:34Z</time>
      </trkpt>
      <trkpt lat="44.50546" lon="2.47377">
        <ele>415.8</ele>
        <time>2011-06-04T15:29:38Z</time>
      </trkpt>
      <trkpt lat="44.50544" lon="2.47384">
        <ele>417.1</ele>
        <time>2011-06-04T15:29:40Z</time>
      </trkpt>
      <trkpt lat="44.50545" lon="2.4739">
        <ele>418.5</ele>
        <time>2011-06-04T15:29:42Z</time>
      </trkpt>
      <trkpt lat="44.50549" lon="2.47396">
        <ele>419.9</ele>
        <time>2011-06-04T15:29:45Z</time>
      </trkpt>
      <trkpt lat="44.50556" lon="2.47401">
        <ele>421</ele>
        <time>2011-06-04T15:29:51Z</time>
      </trkpt>
      <trkpt lat="44.50561" lon="2.47401">
        <ele>421.1</ele>
        <time>2011-06-04T15:29:53Z</time>
      </trkpt>
      <trkpt lat="44.50565" lon="2.47399">
        <ele>420.9</ele>
        <time>2011-06-04T15:29:56Z</time>
      </trkpt>
      <trkpt lat="44.50568" lon="2.47396">
        <ele>420.4</ele>
        <time>2011-06-04T15:29:58Z</time>
      </trkpt>
      <trkpt lat="44.50571" lon="2.47391">
        <ele>419.2</ele>
        <time>2011-06-04T15:30:00Z</time>
      </trkpt>
      <trkpt lat="44.50575" lon="2.47388">
        <ele>418.3</ele>
        <time>2011-06-04T15:30:02Z</time>
      </trkpt>
      <trkpt lat="44.50586" lon="2.4738">
        <ele>416.3</ele>
        <time>2011-06-04T15:30:06Z</time>
      </trkpt>
      <trkpt lat="44.50598" lon="2.47369">
        <ele>413</ele>
        <time>2011-06-04T15:30:11Z</time>
      </trkpt>
      <trkpt lat="44.5061" lon="2.47362">
        <ele>410.7</ele>
        <time>2011-06-04T15:30:15Z</time>
      </trkpt>
      <trkpt lat="44.50634" lon="2.47354">
        <ele>407.2</ele>
        <time>2011-06-04T15:30:23Z</time>
      </trkpt>
      <trkpt lat="44.50646" lon="2.47352">
        <ele>406.2</ele>
        <time>2011-06-04T15:30:27Z</time>
      </trkpt>
      <trkpt lat="44.50661" lon="2.47351">
        <ele>405.2</ele>
        <time>2011-06-04T15:30:32Z</time>
      </trkpt>
      <trkpt lat="44.50669" lon="2.47352">
        <ele>404.8</ele>
        <time>2011-06-04T15:30:35Z</time>
      </trkpt>
      <trkpt lat="44.50675" lon="2.47354">
        <ele>404.2</ele>
        <time>2011-06-04T15:30:37Z</time>
      </trkpt>
      <trkpt lat="44.50682" lon="2.47357">
        <ele>404</ele>
        <time>2011-06-04T15:30:39Z</time>
      </trkpt>
      <trkpt lat="44.50697" lon="2.47366">
        <ele>403.4</ele>
        <time>2011-06-04T15:30:44Z</time>
      </trkpt>
      <trkpt lat="44.507" lon="2.47367">
        <ele>403.1</ele>
        <time>2011-06-04T15:30:45Z</time>
      </trkpt>
      <trkpt lat="44.50706" lon="2.47368">
        <ele>402.4</ele>
        <time>2011-06-04T15:30:47Z</time>
      </trkpt>
      <trkpt lat="44.50711" lon="2.47368">
        <ele>401.2</ele>
        <time>2011-06-04T15:30:49Z</time>
      </trkpt>
      <trkpt lat="44.50736" lon="2.47362">
        <ele>396.4</ele>
        <time>2011-06-04T15:30:58Z</time>
      </trkpt>
      <trkpt lat="44.5075" lon="2.47361">
        <ele>393.9</ele>
        <time>2011-06-04T15:31:04Z</time>
      </trkpt>
      <trkpt lat="44.50753" lon="2.47362">
        <ele>393.3</ele>
        <time>2011-06-04T15:31:05Z</time>
      </trkpt>
      <trkpt lat="44.50759" lon="2.47365">
        <ele>392</ele>
        <time>2011-06-04T15:31:07Z</time>
      </trkpt>
      <trkpt lat="44.50761" lon="2.47367">
        <ele>391.4</ele>
        <time>2011-06-04T15:31:08Z</time>
      </trkpt>
      <trkpt lat="44.50782" lon="2.47386">
        <ele>386.4</ele>
        <time>2011-06-04T15:31:16Z</time>
      </trkpt>
      <trkpt lat="44.50788" lon="2.47394">
        <ele>384.9</ele>
        <time>2011-06-04T15:31:19Z</time>
      </trkpt>
      <trkpt lat="44.50796" lon="2.47407">
        <ele>382.8</ele>
        <time>2011-06-04T15:31:23Z</time>
      </trkpt>
      <trkpt lat="44.50801" lon="2.47417">
        <ele>381.6</ele>
        <time>2011-06-04T15:31:26Z</time>
      </trkpt>
      <trkpt lat="44.50804" lon="2.47424">
        <ele>380.3</ele>
        <time>2011-06-04T15:31:28Z</time>
      </trkpt>
      <trkpt lat="44.50805" lon="2.47431">
        <ele>379.2</ele>
        <time>2011-06-04T15:31:30Z</time>
      </trkpt>
      <trkpt lat="44.50806" lon="2.47444">
        <ele>378.3</ele>
        <time>2011-06-04T15:31:34Z</time>
      </trkpt>
      <trkpt lat="44.50805" lon="2.4746">
        <ele>377.8</ele>
        <time>2011-06-04T15:31:41Z</time>
      </trkpt>
      <trkpt lat="44.50802" lon="2.47469">
        <ele>378.2</ele>
        <time>2011-06-04T15:31:45Z</time>
      </trkpt>
      <trkpt lat="44.50795" lon="2.47479">
        <ele>380.4</ele>
        <time>2011-06-04T15:31:50Z</time>
      </trkpt>
      <trkpt lat="44.50798" lon="2.47485">
        <ele>378.9</ele>
        <time>2011-06-04T15:31:55Z</time>
      </trkpt>
      <trkpt lat="44.50805" lon="2.47481">
        <ele>376.5</ele>
        <time>2011-06-04T15:31:58Z</time>
      </trkpt>
      <trkpt lat="44.50813" lon="2.47473">
        <ele>374</ele>
        <time>2011-06-04T15:32:01Z</time>
      </trkpt>
      <trkpt lat="44.50821" lon="2.47458">
        <ele>371.6</ele>
        <time>2011-06-04T15:32:04Z</time>
      </trkpt>
      <trkpt lat="44.50826" lon="2.47448">
        <ele>370.4</ele>
        <time>2011-06-04T15:32:06Z</time>
      </trkpt>
      <trkpt lat="44.50829" lon="2.47443">
        <ele>369.8</ele>
        <time>2011-06-04T15:32:07Z</time>
      </trkpt>
      <trkpt lat="44.50832" lon="2.47437">
        <ele>369.2</ele>
        <time>2011-06-04T15:32:08Z</time>
      </trkpt>
      <trkpt lat="44.50834" lon="2.4743">
        <ele>369</ele>
        <time>2011-06-04T15:32:09Z</time>
      </trkpt>
      <trkpt lat="44.50834" lon="2.47423">
        <ele>369.5</ele>
        <time>2011-06-04T15:32:10Z</time>
      </trkpt>
      <trkpt lat="44.50834" lon="2.47404">
        <ele>370.1</ele>
        <time>2011-06-04T15:32:13Z</time>
      </trkpt>
      <trkpt lat="44.50833" lon="2.47398">
        <ele>370.3</ele>
        <time>2011-06-04T15:32:14Z</time>
      </trkpt>
      <trkpt lat="44.50832" lon="2.47391">
        <ele>370.8</ele>
        <time>2011-06-04T15:32:15Z</time>
      </trkpt>
      <trkpt lat="44.50829" lon="2.47384">
        <ele>371.7</ele>
        <time>2011-06-04T15:32:16Z</time>
      </trkpt>
      <trkpt lat="44.50826" lon="2.47377">
        <ele>372.7</ele>
        <time>2011-06-04T15:32:17Z</time>
      </trkpt>
      <trkpt lat="44.50822" lon="2.4737">
        <ele>373.9</ele>
        <time>2011-06-04T15:32:18Z</time>
      </trkpt>
      <trkpt lat="44.50806" lon="2.47346">
        <ele>378</ele>
        <time>2011-06-04T15:32:22Z</time>
      </trkpt>
      <trkpt lat="44.50799" lon="2.47337">
        <ele>379.5</ele>
        <time>2011-06-04T15:32:24Z</time>
      </trkpt>
      <trkpt lat="44.50798" lon="2.47328">
        <ele>378.3</ele>
        <time>2011-06-04T15:32:27Z</time>
      </trkpt>
      <trkpt lat="44.50803" lon="2.47329">
        <ele>377.1</ele>
        <time>2011-06-04T15:32:29Z</time>
      </trkpt>
      <trkpt lat="44.50814" lon="2.47338">
        <ele>375.8</ele>
        <time>2011-06-04T15:32:32Z</time>
      </trkpt>
      <trkpt lat="44.50837" lon="2.47353">
        <ele>369.9</ele>
        <time>2011-06-04T15:32:38Z</time>
      </trkpt>
      <trkpt lat="44.50842" lon="2.47355">
        <ele>368.9</ele>
        <time>2011-06-04T15:32:39Z</time>
      </trkpt>
      <trkpt lat="44.50861" lon="2.47361">
        <ele>364.5</ele>
        <time>2011-06-04T15:32:43Z</time>
      </trkpt>
      <trkpt lat="44.50877" lon="2.47369">
        <ele>360.6</ele>
        <time>2011-06-04T15:32:46Z</time>
      </trkpt>
      <trkpt lat="44.50883" lon="2.47373">
        <ele>359.2</ele>
        <time>2011-06-04T15:32:47Z</time>
      </trkpt>
      <trkpt lat="44.50888" lon="2.47378">
        <ele>357.9</ele>
        <time>2011-06-04T15:32:48Z</time>
      </trkpt>
      <trkpt lat="44.50892" lon="2.47385">
        <ele>356.8</ele>
        <time>2011-06-04T15:32:49Z</time>
      </trkpt>
      <trkpt lat="44.50895" lon="2.47393">
        <ele>356</ele>
        <time>2011-06-04T15:32:50Z</time>
      </trkpt>
      <trkpt lat="44.50897" lon="2.47406">
        <ele>355.1</ele>
        <time>2011-06-04T15:32:52Z</time>
      </trkpt>
      <trkpt lat="44.50898" lon="2.47411">
        <ele>354.7</ele>
        <time>2011-06-04T15:32:53Z</time>
      </trkpt>
      <trkpt lat="44.50904" lon="2.4741">
        <ele>353.3</ele>
        <time>2011-06-04T15:32:55Z</time>
      </trkpt>
      <trkpt lat="44.50921" lon="2.47391">
        <ele>350.5</ele>
        <time>2011-06-04T15:32:59Z</time>
      </trkpt>
      <trkpt lat="44.50925" lon="2.47385">
        <ele>350.3</ele>
        <time>2011-06-04T15:33:00Z</time>
      </trkpt>
      <trkpt lat="44.50929" lon="2.47378">
        <ele>350.1</ele>
        <time>2011-06-04T15:33:01Z</time>
      </trkpt>
      <trkpt lat="44.50932" lon="2.47371">
        <ele>350.2</ele>
        <time>2011-06-04T15:33:02Z</time>
      </trkpt>
      <trkpt lat="44.50933" lon="2.47363">
        <ele>350.4</ele>
        <time>2011-06-04T15:33:03Z</time>
      </trkpt>
      <trkpt lat="44.50933" lon="2.47355">
        <ele>350.6</ele>
        <time>2011-06-04T15:33:04Z</time>
      </trkpt>
      <trkpt lat="44.50935" lon="2.4735">
        <ele>350.6</ele>
        <time>2011-06-04T15:33:05Z</time>
      </trkpt>
      <trkpt lat="44.50939" lon="2.47347">
        <ele>350.3</ele>
        <time>2011-06-04T15:33:06Z</time>
      </trkpt>
      <trkpt lat="44.50945" lon="2.47347">
        <ele>349.8</ele>
        <time>2011-06-04T15:33:07Z</time>
      </trkpt>
      <trkpt lat="44.50951" lon="2.4735">
        <ele>349.1</ele>
        <time>2011-06-04T15:33:08Z</time>
      </trkpt>
      <trkpt lat="44.50956" lon="2.47354">
        <ele>348.4</ele>
        <time>2011-06-04T15:33:09Z</time>
      </trkpt>
      <trkpt lat="44.50962" lon="2.4736">
        <ele>347.5</ele>
        <time>2011-06-04T15:33:10Z</time>
      </trkpt>
      <trkpt lat="44.50978" lon="2.47384">
        <ele>344.9</ele>
        <time>2011-06-04T15:33:13Z</time>
      </trkpt>
      <trkpt lat="44.50984" lon="2.47392">
        <ele>343.8</ele>
        <time>2011-06-04T15:33:14Z</time>
      </trkpt>
      <trkpt lat="44.50991" lon="2.47399">
        <ele>342.8</ele>
        <time>2011-06-04T15:33:15Z</time>
      </trkpt>
      <trkpt lat="44.5101" lon="2.47412">
        <ele>341.1</ele>
        <time>2011-06-04T15:33:18Z</time>
      </trkpt>
      <trkpt lat="44.51016" lon="2.47414">
        <ele>340.9</ele>
        <time>2011-06-04T15:33:19Z</time>
      </trkpt>
      <trkpt lat="44.51022" lon="2.47416">
        <ele>340.8</ele>
        <time>2011-06-04T15:33:20Z</time>
      </trkpt>
      <trkpt lat="44.51028" lon="2.47415">
        <ele>340.7</ele>
        <time>2011-06-04T15:33:21Z</time>
      </trkpt>
      <trkpt lat="44.51034" lon="2.47414">
        <ele>340.7</ele>
        <time>2011-06-04T15:33:22Z</time>
      </trkpt>
      <trkpt lat="44.51051" lon="2.47409">
        <ele>340.6</ele>
        <time>2011-06-04T15:33:25Z</time>
      </trkpt>
      <trkpt lat="44.51056" lon="2.47406">
        <ele>340.6</ele>
        <time>2011-06-04T15:33:26Z</time>
      </trkpt>
      <trkpt lat="44.51067" lon="2.47397">
        <ele>340.6</ele>
        <time>2011-06-04T15:33:28Z</time>
      </trkpt>
      <trkpt lat="44.51092" lon="2.47369">
        <ele>338.8</ele>
        <time>2011-06-04T15:33:33Z</time>
      </trkpt>
      <trkpt lat="44.51109" lon="2.47344">
        <ele>336.3</ele>
        <time>2011-06-04T15:33:37Z</time>
      </trkpt>
      <trkpt lat="44.51113" lon="2.47339">
        <ele>335.7</ele>
        <time>2011-06-04T15:33:38Z</time>
      </trkpt>
      <trkpt lat="44.51121" lon="2.47331">
        <ele>334.5</ele>
        <time>2011-06-04T15:33:40Z</time>
      </trkpt>
      <trkpt lat="44.51129" lon="2.47327">
        <ele>333.1</ele>
        <time>2011-06-04T15:33:42Z</time>
      </trkpt>
      <trkpt lat="44.51133" lon="2.47322">
        <ele>332.2</ele>
        <time>2011-06-04T15:33:44Z</time>
      </trkpt>
      <trkpt lat="44.51138" lon="2.47321">
        <ele>331.3</ele>
        <time>2011-06-04T15:33:46Z</time>
      </trkpt>
      <trkpt lat="44.51155" lon="2.47317">
        <ele>328.7</ele>
        <time>2011-06-04T15:33:53Z</time>
      </trkpt>
      <trkpt lat="44.51162" lon="2.47314">
        <ele>327.8</ele>
        <time>2011-06-04T15:33:55Z</time>
      </trkpt>
      <trkpt lat="44.51175" lon="2.47305">
        <ele>322.7</ele>
        <time>2011-06-04T15:33:59Z</time>
      </trkpt>
      <trkpt lat="44.51194" lon="2.47288">
        <ele>315.1</ele>
        <time>2011-06-04T15:34:04Z</time>
      </trkpt>
      <trkpt lat="44.51219" lon="2.47261">
        <ele>309.9</ele>
        <time>2011-06-04T15:34:09Z</time>
      </trkpt>
      <trkpt lat="44.51232" lon="2.47251">
        <ele>308.2</ele>
        <time>2011-06-04T15:34:11Z</time>
      </trkpt>
      <trkpt lat="44.51245" lon="2.47243">
        <ele>305.3</ele>
        <time>2011-06-04T15:34:13Z</time>
      </trkpt>
      <trkpt lat="44.51277" lon="2.47232">
        <ele>297</ele>
        <time>2011-06-04T15:34:17Z</time>
      </trkpt>
      <trkpt lat="44.513" lon="2.4722">
        <ele>292.6</ele>
        <time>2011-06-04T15:34:20Z</time>
      </trkpt>
      <trkpt lat="44.51329" lon="2.47206">
        <ele>287.2</ele>
        <time>2011-06-04T15:34:24Z</time>
      </trkpt>
      <trkpt lat="44.51336" lon="2.47203">
        <ele>286</ele>
        <time>2011-06-04T15:34:25Z</time>
      </trkpt>
      <trkpt lat="44.51359" lon="2.47198">
        <ele>282.8</ele>
        <time>2011-06-04T15:34:29Z</time>
      </trkpt>
      <trkpt lat="44.51363" lon="2.47196">
        <ele>282.2</ele>
        <time>2011-06-04T15:34:30Z</time>
      </trkpt>
      <trkpt lat="44.51367" lon="2.47193">
        <ele>282</ele>
        <time>2011-06-04T15:34:31Z</time>
      </trkpt>
      <trkpt lat="44.51371" lon="2.4719">
        <ele>281.7</ele>
        <time>2011-06-04T15:34:32Z</time>
      </trkpt>
      <trkpt lat="44.51379" lon="2.47181">
        <ele>281.8</ele>
        <time>2011-06-04T15:34:34Z</time>
      </trkpt>
      <trkpt lat="44.51388" lon="2.47171">
        <ele>281.9</ele>
        <time>2011-06-04T15:34:36Z</time>
      </trkpt>
      <trkpt lat="44.51398" lon="2.47163">
        <ele>280.8</ele>
        <time>2011-06-04T15:34:38Z</time>
      </trkpt>
      <trkpt lat="44.51425" lon="2.47139">
        <ele>281.1</ele>
        <time>2011-06-04T15:34:43Z</time>
      </trkpt>
      <trkpt lat="44.51431" lon="2.47134">
        <ele>281.2</ele>
        <time>2011-06-04T15:34:44Z</time>
      </trkpt>
      <trkpt lat="44.51448" lon="2.47124">
        <ele>281.7</ele>
        <time>2011-06-04T15:34:47Z</time>
      </trkpt>
      <trkpt lat="44.51471" lon="2.47104">
        <ele>284.9</ele>
        <time>2011-06-04T15:34:52Z</time>
      </trkpt>
      <trkpt lat="44.51479" lon="2.47098">
        <ele>285.6</ele>
        <time>2011-06-04T15:34:54Z</time>
      </trkpt>
      <trkpt lat="44.5149" lon="2.47087">
        <ele>287.8</ele>
        <time>2011-06-04T15:34:59Z</time>
      </trkpt>
      <trkpt lat="44.51494" lon="2.47081">
        <ele>289.1</ele>
        <time>2011-06-04T15:35:01Z</time>
      </trkpt>
      <trkpt lat="44.51496" lon="2.47077">
        <ele>289.6</ele>
        <time>2011-06-04T15:35:02Z</time>
      </trkpt>
      <trkpt lat="44.51511" lon="2.47037">
        <ele>295.6</ele>
        <time>2011-06-04T15:35:07Z</time>
      </trkpt>
      <trkpt lat="44.51521" lon="2.47004">
        <ele>301.1</ele>
        <time>2011-06-04T15:35:10Z</time>
      </trkpt>
      <trkpt lat="44.51527" lon="2.46992">
        <ele>300.4</ele>
        <time>2011-06-04T15:35:11Z</time>
      </trkpt>
      <trkpt lat="44.51567" lon="2.4692">
        <ele>296.2</ele>
        <time>2011-06-04T15:35:18Z</time>
      </trkpt>
      <trkpt lat="44.51583" lon="2.46887">
        <ele>291.2</ele>
        <time>2011-06-04T15:35:21Z</time>
      </trkpt>
      <trkpt lat="44.51615" lon="2.46837">
        <ele>275.7</ele>
        <time>2011-06-04T15:35:27Z</time>
      </trkpt>
      <trkpt lat="44.51619" lon="2.46831">
        <ele>274.4</ele>
        <time>2011-06-04T15:35:28Z</time>
      </trkpt>
      <trkpt lat="44.51625" lon="2.46825">
        <ele>273.1</ele>
        <time>2011-06-04T15:35:29Z</time>
      </trkpt>
      <trkpt lat="44.51631" lon="2.46819">
        <ele>271.8</ele>
        <time>2011-06-04T15:35:30Z</time>
      </trkpt>
      <trkpt lat="44.51638" lon="2.46815">
        <ele>270.3</ele>
        <time>2011-06-04T15:35:31Z</time>
      </trkpt>
      <trkpt lat="44.51667" lon="2.46803">
        <ele>264.8</ele>
        <time>2011-06-04T15:35:35Z</time>
      </trkpt>
      <trkpt lat="44.51674" lon="2.46802">
        <ele>264.1</ele>
        <time>2011-06-04T15:35:36Z</time>
      </trkpt>
      <trkpt lat="44.51714" lon="2.46795">
        <ele>260</ele>
        <time>2011-06-04T15:35:41Z</time>
      </trkpt>
      <trkpt lat="44.51721" lon="2.46795">
        <ele>259.3</ele>
        <time>2011-06-04T15:35:42Z</time>
      </trkpt>
      <trkpt lat="44.51728" lon="2.46795">
        <ele>258.7</ele>
        <time>2011-06-04T15:35:43Z</time>
      </trkpt>
      <trkpt lat="44.51734" lon="2.46798">
        <ele>258.2</ele>
        <time>2011-06-04T15:35:44Z</time>
      </trkpt>
      <trkpt lat="44.51739" lon="2.46802">
        <ele>257.9</ele>
        <time>2011-06-04T15:35:45Z</time>
      </trkpt>
      <trkpt lat="44.51743" lon="2.46809">
        <ele>257.8</ele>
        <time>2011-06-04T15:35:46Z</time>
      </trkpt>
      <trkpt lat="44.51752" lon="2.46827">
        <ele>258.3</ele>
        <time>2011-06-04T15:35:49Z</time>
      </trkpt>
      <trkpt lat="44.51755" lon="2.46832">
        <ele>259.3</ele>
        <time>2011-06-04T15:35:50Z</time>
      </trkpt>
      <trkpt lat="44.51772" lon="2.46846">
        <ele>264.3</ele>
        <time>2011-06-04T15:35:56Z</time>
      </trkpt>
      <trkpt lat="44.51777" lon="2.46849">
        <ele>265.8</ele>
        <time>2011-06-04T15:35:58Z</time>
      </trkpt>
      <trkpt lat="44.5178" lon="2.46838">
        <ele>266.2</ele>
        <time>2011-06-04T15:36:18Z</time>
      </trkpt>
      <trkpt lat="44.5178" lon="2.46828">
        <ele>265.5</ele>
        <time>2011-06-04T15:36:23Z</time>
      </trkpt>
      <trkpt lat="44.51778" lon="2.46823">
        <ele>264.6</ele>
        <time>2011-06-04T15:36:26Z</time>
      </trkpt>
      <trkpt lat="44.51774" lon="2.46814">
        <ele>263.3</ele>
        <time>2011-06-04T15:36:32Z</time>
      </trkpt>
      <trkpt lat="44.51769" lon="2.46797">
        <ele>261.1</ele>
        <time>2011-06-04T15:36:41Z</time>
      </trkpt>
      <trkpt lat="44.51768" lon="2.46792">
        <ele>260.5</ele>
        <time>2011-06-04T15:36:43Z</time>
      </trkpt>
      <trkpt lat="44.51766" lon="2.46782">
        <ele>259.4</ele>
        <time>2011-06-04T15:36:47Z</time>
      </trkpt>
      <trkpt lat="44.51766" lon="2.46771">
        <ele>258.9</ele>
        <time>2011-06-04T15:36:51Z</time>
      </trkpt>
      <trkpt lat="44.51763" lon="2.46761">
        <ele>257.9</ele>
        <time>2011-06-04T15:36:55Z</time>
      </trkpt>
      <trkpt lat="44.51762" lon="2.46754">
        <ele>257.4</ele>
        <time>2011-06-04T15:37:02Z</time>
      </trkpt>
      <trkpt lat="44.51759" lon="2.46744">
        <ele>256.6</ele>
        <time>2011-06-04T15:37:13Z</time>
      </trkpt>
      <trkpt lat="44.51756" lon="2.4674">
        <ele>256.1</ele>
        <time>2011-06-04T15:37:20Z</time>
      </trkpt>
      <trkpt lat="44.51745" lon="2.46731">
        <ele>255.6</ele>
        <time>2011-06-04T15:37:54Z</time>
      </trkpt>
      <trkpt lat="44.5174" lon="2.46732">
        <ele>256.1</ele>
        <time>2011-06-04T15:38:09Z</time>
      </trkpt>
      <trkpt lat="44.51733" lon="2.46739">
        <ele>256.8</ele>
        <time>2011-06-04T15:38:24Z</time>
      </trkpt>
      <trkpt lat="44.51725" lon="2.46742">
        <ele>257.6</ele>
        <time>2011-06-04T15:38:35Z</time>
      </trkpt>
      <trkpt lat="44.51695" lon="2.46743">
        <ele>260.6</ele>
        <time>2011-06-04T15:39:22Z</time>
      </trkpt>
      <trkpt lat="44.51676" lon="2.4674">
        <ele>262.8</ele>
        <time>2011-06-04T15:39:42Z</time>
      </trkpt>
      <trkpt lat="44.51668" lon="2.46738">
        <ele>263.8</ele>
        <time>2011-06-04T15:39:50Z</time>
      </trkpt>
      <trkpt lat="44.5166" lon="2.46737">
        <ele>265.1</ele>
        <time>2011-06-04T15:39:58Z</time>
      </trkpt>
      <trkpt lat="44.51648" lon="2.46733">
        <ele>267.7</ele>
        <time>2011-06-04T15:40:10Z</time>
      </trkpt>
      <trkpt lat="44.51637" lon="2.46734">
        <ele>269.9</ele>
        <time>2011-06-04T15:40:20Z</time>
      </trkpt>
      <trkpt lat="44.51625" lon="2.46737">
        <ele>271.5</ele>
        <time>2011-06-04T15:40:31Z</time>
      </trkpt>
      <trkpt lat="44.51609" lon="2.46742">
        <ele>273.5</ele>
        <time>2011-06-04T15:40:55Z</time>
      </trkpt>
      <trkpt lat="44.51601" lon="2.46744">
        <ele>274.6</ele>
        <time>2011-06-04T15:41:08Z</time>
      </trkpt>
      <trkpt lat="44.51597" lon="2.46746">
        <ele>275</ele>
        <time>2011-06-04T15:41:17Z</time>
      </trkpt>
      <trkpt lat="44.5159" lon="2.46752">
        <ele>275.1</ele>
        <time>2011-06-04T15:41:26Z</time>
      </trkpt>
      <trkpt lat="44.51586" lon="2.46762">
        <ele>276.3</ele>
        <time>2011-06-04T15:41:36Z</time>
      </trkpt>
      <trkpt lat="44.51583" lon="2.46766">
        <ele>277</ele>
        <time>2011-06-04T15:41:41Z</time>
      </trkpt>
      <trkpt lat="44.5158" lon="2.46771">
        <ele>277.7</ele>
        <time>2011-06-04T15:41:46Z</time>
      </trkpt>
      <trkpt lat="44.51575" lon="2.46779">
        <ele>278.9</ele>
        <time>2011-06-04T15:41:57Z</time>
      </trkpt>
      <trkpt lat="44.51572" lon="2.46784">
        <ele>279.4</ele>
        <time>2011-06-04T15:42:01Z</time>
      </trkpt>
      <trkpt lat="44.51568" lon="2.46794">
        <ele>280.2</ele>
        <time>2011-06-04T15:42:12Z</time>
      </trkpt>
      <trkpt lat="44.51565" lon="2.46799">
        <ele>280.7</ele>
        <time>2011-06-04T15:42:20Z</time>
      </trkpt>
      <trkpt lat="44.51561" lon="2.46807">
        <ele>281.2</ele>
        <time>2011-06-04T15:42:28Z</time>
      </trkpt>
      <trkpt lat="44.51555" lon="2.46816">
        <ele>281.6</ele>
        <time>2011-06-04T15:42:38Z</time>
      </trkpt>
      <trkpt lat="44.51543" lon="2.46831">
        <ele>282</ele>
        <time>2011-06-04T15:42:58Z</time>
      </trkpt>
      <trkpt lat="44.51539" lon="2.46832">
        <ele>282.1</ele>
        <time>2011-06-04T15:43:02Z</time>
      </trkpt>
      <trkpt lat="44.51535" lon="2.46832">
        <ele>282.2</ele>
        <time>2011-06-04T15:43:08Z</time>
      </trkpt>
      <trkpt lat="44.51523" lon="2.4683">
        <ele>282.7</ele>
        <time>2011-06-04T15:43:19Z</time>
      </trkpt>
      <trkpt lat="44.51518" lon="2.4683">
        <ele>282.9</ele>
        <time>2011-06-04T15:43:24Z</time>
      </trkpt>
      <trkpt lat="44.51511" lon="2.46833">
        <ele>282.7</ele>
        <time>2011-06-04T15:43:34Z</time>
      </trkpt>
      <trkpt lat="44.515" lon="2.4684">
        <ele>283.8</ele>
        <time>2011-06-04T15:43:46Z</time>
      </trkpt>
      <trkpt lat="44.51488" lon="2.46852">
        <ele>287</ele>
        <time>2011-06-04T15:43:59Z</time>
      </trkpt>
      <trkpt lat="44.5148" lon="2.46857">
        <ele>288.5</ele>
        <time>2011-06-04T15:44:10Z</time>
      </trkpt>
      <trkpt lat="44.51474" lon="2.46866">
        <ele>289.8</ele>
        <time>2011-06-04T15:44:30Z</time>
      </trkpt>
      <trkpt lat="44.51468" lon="2.46871">
        <ele>290.7</ele>
        <time>2011-06-04T15:44:37Z</time>
      </trkpt>
      <trkpt lat="44.51461" lon="2.46877">
        <ele>291.5</ele>
        <time>2011-06-04T15:44:45Z</time>
      </trkpt>
      <trkpt lat="44.51438" lon="2.46887">
        <ele>293.2</ele>
        <time>2011-06-04T15:45:10Z</time>
      </trkpt>
      <trkpt lat="44.51424" lon="2.46899">
        <ele>293.3</ele>
        <time>2011-06-04T15:45:30Z</time>
      </trkpt>
      <trkpt lat="44.51416" lon="2.46901">
        <ele>293.4</ele>
        <time>2011-06-04T15:45:40Z</time>
      </trkpt>
      <trkpt lat="44.51413" lon="2.46904">
        <ele>294</ele>
        <time>2011-06-04T15:45:44Z</time>
      </trkpt>
      <trkpt lat="44.51402" lon="2.46909">
        <ele>296.2</ele>
        <time>2011-06-04T15:45:55Z</time>
      </trkpt>
      <trkpt lat="44.51398" lon="2.46911">
        <ele>297.1</ele>
        <time>2011-06-04T15:45:59Z</time>
      </trkpt>
      <trkpt lat="44.51391" lon="2.46913">
        <ele>298.6</ele>
        <time>2011-06-04T15:46:05Z</time>
      </trkpt>
      <trkpt lat="44.51376" lon="2.46915">
        <ele>301.9</ele>
        <time>2011-06-04T15:46:18Z</time>
      </trkpt>
      <trkpt lat="44.5136" lon="2.46921">
        <ele>305.6</ele>
        <time>2011-06-04T15:46:34Z</time>
      </trkpt>
      <trkpt lat="44.51343" lon="2.46924">
        <ele>309.8</ele>
        <time>2011-06-04T15:46:51Z</time>
      </trkpt>
      <trkpt lat="44.51331" lon="2.46922">
        <ele>312</ele>
        <time>2011-06-04T15:46:56Z</time>
      </trkpt>
      <trkpt lat="44.51325" lon="2.46922">
        <ele>312.2</ele>
        <time>2011-06-04T15:46:58Z</time>
      </trkpt>
      <trkpt lat="44.5132" lon="2.46926">
        <ele>312.4</ele>
        <time>2011-06-04T15:47:00Z</time>
      </trkpt>
      <trkpt lat="44.51316" lon="2.46932">
        <ele>312.6</ele>
        <time>2011-06-04T15:47:02Z</time>
      </trkpt>
      <trkpt lat="44.51311" lon="2.46935">
        <ele>312.9</ele>
        <time>2011-06-04T15:47:04Z</time>
      </trkpt>
      <trkpt lat="44.51306" lon="2.46932">
        <ele>313</ele>
        <time>2011-06-04T15:47:06Z</time>
      </trkpt>
      <trkpt lat="44.51304" lon="2.46929">
        <ele>313.1</ele>
        <time>2011-06-04T15:47:07Z</time>
      </trkpt>
      <trkpt lat="44.51297" lon="2.46916">
        <ele>312.9</ele>
        <time>2011-06-04T15:47:11Z</time>
      </trkpt>
      <trkpt lat="44.51287" lon="2.46905">
        <ele>312.7</ele>
        <time>2011-06-04T15:47:14Z</time>
      </trkpt>
      <trkpt lat="44.51285" lon="2.469">
        <ele>312.6</ele>
        <time>2011-06-04T15:47:15Z</time>
      </trkpt>
      <trkpt lat="44.51282" lon="2.46891">
        <ele>312.2</ele>
        <time>2011-06-04T15:47:18Z</time>
      </trkpt>
      <trkpt lat="44.51279" lon="2.46884">
        <ele>311.8</ele>
        <time>2011-06-04T15:47:21Z</time>
      </trkpt>
      <trkpt lat="44.51273" lon="2.46863">
        <ele>310.3</ele>
        <time>2011-06-04T15:47:26Z</time>
      </trkpt>
      <trkpt lat="44.51273" lon="2.46858">
        <ele>309.9</ele>
        <time>2011-06-04T15:47:28Z</time>
      </trkpt>
      <trkpt lat="44.51276" lon="2.46848">
        <ele>309.8</ele>
        <time>2011-06-04T15:47:36Z</time>
      </trkpt>
      <trkpt lat="44.51281" lon="2.46841">
        <ele>310.2</ele>
        <time>2011-06-04T15:47:45Z</time>
      </trkpt>
      <trkpt lat="44.51288" lon="2.46823">
        <ele>309.7</ele>
        <time>2011-06-04T15:47:57Z</time>
      </trkpt>
      <trkpt lat="44.5129" lon="2.46818">
        <ele>309.4</ele>
        <time>2011-06-04T15:48:01Z</time>
      </trkpt>
      <trkpt lat="44.51292" lon="2.46808">
        <ele>308.7</ele>
        <time>2011-06-04T15:48:07Z</time>
      </trkpt>
      <trkpt lat="44.513" lon="2.46793">
        <ele>308.4</ele>
        <time>2011-06-04T15:48:17Z</time>
      </trkpt>
      <trkpt lat="44.51304" lon="2.46788">
        <ele>308.7</ele>
        <time>2011-06-04T15:48:19Z</time>
      </trkpt>
      <trkpt lat="44.51307" lon="2.46782">
        <ele>308.5</ele>
        <time>2011-06-04T15:48:21Z</time>
      </trkpt>
      <trkpt lat="44.51312" lon="2.46776">
        <ele>308.8</ele>
        <time>2011-06-04T15:48:24Z</time>
      </trkpt>
      <trkpt lat="44.51316" lon="2.46771">
        <ele>308.9</ele>
        <time>2011-06-04T15:48:26Z</time>
      </trkpt>
      <trkpt lat="44.5132" lon="2.46765">
        <ele>309</ele>
        <time>2011-06-04T15:48:28Z</time>
      </trkpt>
      <trkpt lat="44.51329" lon="2.4676">
        <ele>310.1</ele>
        <time>2011-06-04T15:48:31Z</time>
      </trkpt>
      <trkpt lat="44.51333" lon="2.46756">
        <ele>310.4</ele>
        <time>2011-06-04T15:48:33Z</time>
      </trkpt>
      <trkpt lat="44.51336" lon="2.4675">
        <ele>309.9</ele>
        <time>2011-06-04T15:48:35Z</time>
      </trkpt>
      <trkpt lat="44.51342" lon="2.46743">
        <ele>309.3</ele>
        <time>2011-06-04T15:48:38Z</time>
      </trkpt>
      <trkpt lat="44.5135" lon="2.46731">
        <ele>308.1</ele>
        <time>2011-06-04T15:48:42Z</time>
      </trkpt>
      <trkpt lat="44.51367" lon="2.46714">
        <ele>308</ele>
        <time>2011-06-04T15:48:47Z</time>
      </trkpt>
      <trkpt lat="44.51369" lon="2.46711">
        <ele>308</ele>
        <time>2011-06-04T15:48:48Z</time>
      </trkpt>
      <trkpt lat="44.51374" lon="2.46703">
        <ele>308</ele>
        <time>2011-06-04T15:48:50Z</time>
      </trkpt>
      <trkpt lat="44.51379" lon="2.46698">
        <ele>308.2</ele>
        <time>2011-06-04T15:48:52Z</time>
      </trkpt>
      <trkpt lat="44.5138" lon="2.46694">
        <ele>308.3</ele>
        <time>2011-06-04T15:48:53Z</time>
      </trkpt>
      <trkpt lat="44.51383" lon="2.46685">
        <ele>308.1</ele>
        <time>2011-06-04T15:48:56Z</time>
      </trkpt>
      <trkpt lat="44.51389" lon="2.46663">
        <ele>307.3</ele>
        <time>2011-06-04T15:49:02Z</time>
      </trkpt>
      <trkpt lat="44.51392" lon="2.46656">
        <ele>307.1</ele>
        <time>2011-06-04T15:49:04Z</time>
      </trkpt>
      <trkpt lat="44.51397" lon="2.46645">
        <ele>307.2</ele>
        <time>2011-06-04T15:49:08Z</time>
      </trkpt>
      <trkpt lat="44.51402" lon="2.46632">
        <ele>306.6</ele>
        <time>2011-06-04T15:49:12Z</time>
      </trkpt>
      <trkpt lat="44.51409" lon="2.46619">
        <ele>306.7</ele>
        <time>2011-06-04T15:49:16Z</time>
      </trkpt>
      <trkpt lat="44.51412" lon="2.46609">
        <ele>306.2</ele>
        <time>2011-06-04T15:49:18Z</time>
      </trkpt>
      <trkpt lat="44.51413" lon="2.46598">
        <ele>305.1</ele>
        <time>2011-06-04T15:49:20Z</time>
      </trkpt>
      <trkpt lat="44.51412" lon="2.46586">
        <ele>303</ele>
        <time>2011-06-04T15:49:22Z</time>
      </trkpt>
      <trkpt lat="44.51413" lon="2.46575">
        <ele>301.4</ele>
        <time>2011-06-04T15:49:24Z</time>
      </trkpt>
      <trkpt lat="44.51415" lon="2.46565">
        <ele>300.3</ele>
        <time>2011-06-04T15:49:26Z</time>
      </trkpt>
      <trkpt lat="44.51423" lon="2.46543">
        <ele>298.1</ele>
        <time>2011-06-04T15:49:30Z</time>
      </trkpt>
      <trkpt lat="44.51426" lon="2.4653">
        <ele>296.7</ele>
        <time>2011-06-04T15:49:32Z</time>
      </trkpt>
      <trkpt lat="44.5143" lon="2.46492">
        <ele>291.5</ele>
        <time>2011-06-04T15:49:37Z</time>
      </trkpt>
      <trkpt lat="44.5143" lon="2.46475">
        <ele>289.4</ele>
        <time>2011-06-04T15:49:39Z</time>
      </trkpt>
      <trkpt lat="44.51429" lon="2.46467">
        <ele>288.2</ele>
        <time>2011-06-04T15:49:40Z</time>
      </trkpt>
      <trkpt lat="44.51426" lon="2.46441">
        <ele>283.9</ele>
        <time>2011-06-04T15:49:43Z</time>
      </trkpt>
      <trkpt lat="44.51423" lon="2.46426">
        <ele>281.3</ele>
        <time>2011-06-04T15:49:45Z</time>
      </trkpt>
      <trkpt lat="44.51422" lon="2.46419">
        <ele>280.4</ele>
        <time>2011-06-04T15:49:46Z</time>
      </trkpt>
      <trkpt lat="44.51422" lon="2.46413">
        <ele>279.4</ele>
        <time>2011-06-04T15:49:47Z</time>
      </trkpt>
      <trkpt lat="44.51424" lon="2.46394">
        <ele>277.8</ele>
        <time>2011-06-04T15:49:50Z</time>
      </trkpt>
      <trkpt lat="44.51426" lon="2.46385">
        <ele>277.1</ele>
        <time>2011-06-04T15:49:52Z</time>
      </trkpt>
      <trkpt lat="44.51428" lon="2.46376">
        <ele>276.4</ele>
        <time>2011-06-04T15:49:54Z</time>
      </trkpt>
      <trkpt lat="44.51427" lon="2.4636">
        <ele>274.3</ele>
        <time>2011-06-04T15:49:58Z</time>
      </trkpt>
      <trkpt lat="44.51428" lon="2.46352">
        <ele>273.6</ele>
        <time>2011-06-04T15:50:00Z</time>
      </trkpt>
      <trkpt lat="44.5143" lon="2.46349">
        <ele>273.5</ele>
        <time>2011-06-04T15:50:01Z</time>
      </trkpt>
      <trkpt lat="44.51434" lon="2.46343">
        <ele>273.3</ele>
        <time>2011-06-04T15:50:03Z</time>
      </trkpt>
      <trkpt lat="44.5144" lon="2.46337">
        <ele>273.3</ele>
        <time>2011-06-04T15:50:05Z</time>
      </trkpt>
      <trkpt lat="44.51446" lon="2.46328">
        <ele>273.1</ele>
        <time>2011-06-04T15:50:08Z</time>
      </trkpt>
      <trkpt lat="44.5145" lon="2.46324">
        <ele>273</ele>
        <time>2011-06-04T15:50:10Z</time>
      </trkpt>
      <trkpt lat="44.51454" lon="2.4632">
        <ele>273.1</ele>
        <time>2011-06-04T15:50:12Z</time>
      </trkpt>
      <trkpt lat="44.5146" lon="2.46314">
        <ele>272.9</ele>
        <time>2011-06-04T15:50:14Z</time>
      </trkpt>
      <trkpt lat="44.51468" lon="2.46308">
        <ele>272.9</ele>
        <time>2011-06-04T15:50:16Z</time>
      </trkpt>
      <trkpt lat="44.51477" lon="2.46304">
        <ele>273.1</ele>
        <time>2011-06-04T15:50:18Z</time>
      </trkpt>
      <trkpt lat="44.51481" lon="2.46301">
        <ele>272.9</ele>
        <time>2011-06-04T15:50:19Z</time>
      </trkpt>
      <trkpt lat="44.51484" lon="2.46292">
        <ele>271.8</ele>
        <time>2011-06-04T15:50:21Z</time>
      </trkpt>
      <trkpt lat="44.51486" lon="2.46282">
        <ele>270.2</ele>
        <time>2011-06-04T15:50:23Z</time>
      </trkpt>
      <trkpt lat="44.51491" lon="2.46271">
        <ele>268.6</ele>
        <time>2011-06-04T15:50:26Z</time>
      </trkpt>
      <trkpt lat="44.51494" lon="2.46264">
        <ele>267.4</ele>
        <time>2011-06-04T15:50:28Z</time>
      </trkpt>
      <trkpt lat="44.515" lon="2.46257">
        <ele>266.2</ele>
        <time>2011-06-04T15:50:30Z</time>
      </trkpt>
      <trkpt lat="44.51502" lon="2.46253">
        <ele>265.5</ele>
        <time>2011-06-04T15:50:31Z</time>
      </trkpt>
      <trkpt lat="44.51506" lon="2.46237">
        <ele>266.1</ele>
        <time>2011-06-04T15:50:35Z</time>
      </trkpt>
      <trkpt lat="44.5151" lon="2.46227">
        <ele>266.7</ele>
        <time>2011-06-04T15:50:37Z</time>
      </trkpt>
      <trkpt lat="44.51512" lon="2.46223">
        <ele>266.9</ele>
        <time>2011-06-04T15:50:38Z</time>
      </trkpt>
      <trkpt lat="44.51519" lon="2.46216">
        <ele>267.2</ele>
        <time>2011-06-04T15:50:40Z</time>
      </trkpt>
      <trkpt lat="44.51533" lon="2.46207">
        <ele>267.3</ele>
        <time>2011-06-04T15:50:44Z</time>
      </trkpt>
      <trkpt lat="44.51549" lon="2.46199">
        <ele>266.8</ele>
        <time>2011-06-04T15:50:49Z</time>
      </trkpt>
      <trkpt lat="44.51552" lon="2.46198">
        <ele>266.7</ele>
        <time>2011-06-04T15:50:50Z</time>
      </trkpt>
      <trkpt lat="44.51561" lon="2.4619">
        <ele>266.2</ele>
        <time>2011-06-04T15:50:54Z</time>
      </trkpt>
      <trkpt lat="44.51567" lon="2.46184">
        <ele>265.8</ele>
        <time>2011-06-04T15:50:57Z</time>
      </trkpt>
      <trkpt lat="44.51578" lon="2.46177">
        <ele>264.8</ele>
        <time>2011-06-04T15:51:01Z</time>
      </trkpt>
      <trkpt lat="44.51585" lon="2.46173">
        <ele>264.4</ele>
        <time>2011-06-04T15:51:03Z</time>
      </trkpt>
      <trkpt lat="44.5159" lon="2.46169">
        <ele>264.4</ele>
        <time>2011-06-04T15:51:05Z</time>
      </trkpt>
      <trkpt lat="44.516" lon="2.46158">
        <ele>264.5</ele>
        <time>2011-06-04T15:51:09Z</time>
      </trkpt>
      <trkpt lat="44.51607" lon="2.46152">
        <ele>264.6</ele>
        <time>2011-06-04T15:51:11Z</time>
      </trkpt>
      <trkpt lat="44.5161" lon="2.46149">
        <ele>264.6</ele>
        <time>2011-06-04T15:51:12Z</time>
      </trkpt>
      <trkpt lat="44.51615" lon="2.46142">
        <ele>264.5</ele>
        <time>2011-06-04T15:51:14Z</time>
      </trkpt>
      <trkpt lat="44.51617" lon="2.46138">
        <ele>264.4</ele>
        <time>2011-06-04T15:51:15Z</time>
      </trkpt>
      <trkpt lat="44.51628" lon="2.46124">
        <ele>264</ele>
        <time>2011-06-04T15:51:19Z</time>
      </trkpt>
      <trkpt lat="44.51635" lon="2.46119">
        <ele>263.7</ele>
        <time>2011-06-04T15:51:21Z</time>
      </trkpt>
      <trkpt lat="44.51638" lon="2.46116">
        <ele>263.5</ele>
        <time>2011-06-04T15:51:22Z</time>
      </trkpt>
      <trkpt lat="44.51642" lon="2.46109">
        <ele>263.1</ele>
        <time>2011-06-04T15:51:24Z</time>
      </trkpt>
      <trkpt lat="44.51646" lon="2.46103">
        <ele>262.7</ele>
        <time>2011-06-04T15:51:26Z</time>
      </trkpt>
      <trkpt lat="44.51651" lon="2.46096">
        <ele>262.3</ele>
        <time>2011-06-04T15:51:28Z</time>
      </trkpt>
      <trkpt lat="44.51654" lon="2.46089">
        <ele>261.7</ele>
        <time>2011-06-04T15:51:30Z</time>
      </trkpt>
      <trkpt lat="44.51657" lon="2.4608">
        <ele>261</ele>
        <time>2011-06-04T15:51:32Z</time>
      </trkpt>
      <trkpt lat="44.51659" lon="2.4607">
        <ele>260.4</ele>
        <time>2011-06-04T15:51:34Z</time>
      </trkpt>
      <trkpt lat="44.51659" lon="2.46064">
        <ele>260</ele>
        <time>2011-06-04T15:51:35Z</time>
      </trkpt>
      <trkpt lat="44.51658" lon="2.46058">
        <ele>259.7</ele>
        <time>2011-06-04T15:51:36Z</time>
      </trkpt>
      <trkpt lat="44.51657" lon="2.46052">
        <ele>259.3</ele>
        <time>2011-06-04T15:51:37Z</time>
      </trkpt>
      <trkpt lat="44.51655" lon="2.46045">
        <ele>259</ele>
        <time>2011-06-04T15:51:38Z</time>
      </trkpt>
      <trkpt lat="44.51647" lon="2.46026">
        <ele>258.2</ele>
        <time>2011-06-04T15:51:41Z</time>
      </trkpt>
      <trkpt lat="44.51636" lon="2.45996">
        <ele>257</ele>
        <time>2011-06-04T15:51:45Z</time>
      </trkpt>
      <trkpt lat="44.5162" lon="2.45947">
        <ele>256.1</ele>
        <time>2011-06-04T15:51:51Z</time>
      </trkpt>
      <trkpt lat="44.51597" lon="2.45903">
        <ele>255.5</ele>
        <time>2011-06-04T15:51:57Z</time>
      </trkpt>
      <trkpt lat="44.51594" lon="2.45894">
        <ele>255.5</ele>
        <time>2011-06-04T15:51:58Z</time>
      </trkpt>
      <trkpt lat="44.51584" lon="2.45867">
        <ele>255.4</ele>
        <time>2011-06-04T15:52:01Z</time>
      </trkpt>
      <trkpt lat="44.51583" lon="2.45857">
        <ele>255.3</ele>
        <time>2011-06-04T15:52:02Z</time>
      </trkpt>
      <trkpt lat="44.51582" lon="2.45846">
        <ele>255.3</ele>
        <time>2011-06-04T15:52:03Z</time>
      </trkpt>
      <trkpt lat="44.51582" lon="2.45836">
        <ele>255.2</ele>
        <time>2011-06-04T15:52:04Z</time>
      </trkpt>
      <trkpt lat="44.51582" lon="2.45826">
        <ele>254.9</ele>
        <time>2011-06-04T15:52:05Z</time>
      </trkpt>
      <trkpt lat="44.51587" lon="2.4576">
        <ele>253.2</ele>
        <time>2011-06-04T15:52:12Z</time>
      </trkpt>
      <trkpt lat="44.5159" lon="2.45743">
        <ele>252.9</ele>
        <time>2011-06-04T15:52:14Z</time>
      </trkpt>
      <trkpt lat="44.51598" lon="2.45702">
        <ele>252.4</ele>
        <time>2011-06-04T15:52:19Z</time>
      </trkpt>
      <trkpt lat="44.51604" lon="2.4567">
        <ele>252</ele>
        <time>2011-06-04T15:52:23Z</time>
      </trkpt>
      <trkpt lat="44.51605" lon="2.45662">
        <ele>252</ele>
        <time>2011-06-04T15:52:24Z</time>
      </trkpt>
      <trkpt lat="44.51608" lon="2.4562">
        <ele>251.7</ele>
        <time>2011-06-04T15:52:29Z</time>
      </trkpt>
      <trkpt lat="44.51608" lon="2.45597">
        <ele>251.5</ele>
        <time>2011-06-04T15:52:32Z</time>
      </trkpt>
      <trkpt lat="44.51609" lon="2.45589">
        <ele>251.4</ele>
        <time>2011-06-04T15:52:33Z</time>
      </trkpt>
      <trkpt lat="44.5161" lon="2.45583">
        <ele>251.4</ele>
        <time>2011-06-04T15:52:34Z</time>
      </trkpt>
      <trkpt lat="44.51612" lon="2.45576">
        <ele>251.3</ele>
        <time>2011-06-04T15:52:35Z</time>
      </trkpt>
      <trkpt lat="44.51615" lon="2.4557">
        <ele>251.3</ele>
        <time>2011-06-04T15:52:36Z</time>
      </trkpt>
      <trkpt lat="44.51618" lon="2.45565">
        <ele>251.2</ele>
        <time>2011-06-04T15:52:37Z</time>
      </trkpt>
      <trkpt lat="44.51636" lon="2.45546">
        <ele>251.1</ele>
        <time>2011-06-04T15:52:42Z</time>
      </trkpt>
      <trkpt lat="44.51641" lon="2.45539">
        <ele>251.2</ele>
        <time>2011-06-04T15:52:44Z</time>
      </trkpt>
      <trkpt lat="44.51648" lon="2.45523">
        <ele>251.4</ele>
        <time>2011-06-04T15:52:48Z</time>
      </trkpt>
      <trkpt lat="44.51657" lon="2.45504">
        <ele>251.8</ele>
        <time>2011-06-04T15:52:52Z</time>
      </trkpt>
      <trkpt lat="44.51663" lon="2.45484">
        <ele>252.2</ele>
        <time>2011-06-04T15:52:55Z</time>
      </trkpt>
      <trkpt lat="44.51676" lon="2.45435">
        <ele>252.8</ele>
        <time>2011-06-04T15:53:02Z</time>
      </trkpt>
      <trkpt lat="44.51684" lon="2.45404">
        <ele>252.9</ele>
        <time>2011-06-04T15:53:07Z</time>
      </trkpt>
      <trkpt lat="44.51691" lon="2.45373">
        <ele>252.7</ele>
        <time>2011-06-04T15:53:12Z</time>
      </trkpt>
      <trkpt lat="44.51691" lon="2.45367">
        <ele>252.6</ele>
        <time>2011-06-04T15:53:13Z</time>
      </trkpt>
      <trkpt lat="44.5169" lon="2.4536">
        <ele>252.6</ele>
        <time>2011-06-04T15:53:14Z</time>
      </trkpt>
      <trkpt lat="44.51689" lon="2.45354">
        <ele>252.6</ele>
        <time>2011-06-04T15:53:15Z</time>
      </trkpt>
      <trkpt lat="44.51681" lon="2.45338">
        <ele>252.7</ele>
        <time>2011-06-04T15:53:18Z</time>
      </trkpt>
      <trkpt lat="44.5168" lon="2.45333">
        <ele>252.7</ele>
        <time>2011-06-04T15:53:19Z</time>
      </trkpt>
      <trkpt lat="44.51679" lon="2.45326">
        <ele>252.5</ele>
        <time>2011-06-04T15:53:20Z</time>
      </trkpt>
      <trkpt lat="44.51678" lon="2.4532">
        <ele>252.4</ele>
        <time>2011-06-04T15:53:21Z</time>
      </trkpt>
      <trkpt lat="44.51678" lon="2.45313">
        <ele>252.3</ele>
        <time>2011-06-04T15:53:22Z</time>
      </trkpt>
      <trkpt lat="44.51679" lon="2.45306">
        <ele>252.1</ele>
        <time>2011-06-04T15:53:23Z</time>
      </trkpt>
      <trkpt lat="44.5168" lon="2.453">
        <ele>251.9</ele>
        <time>2011-06-04T15:53:24Z</time>
      </trkpt>
      <trkpt lat="44.51682" lon="2.45293">
        <ele>251.8</ele>
        <time>2011-06-04T15:53:25Z</time>
      </trkpt>
      <trkpt lat="44.51699" lon="2.45259">
        <ele>250.8</ele>
        <time>2011-06-04T15:53:32Z</time>
      </trkpt>
      <trkpt lat="44.51708" lon="2.45236">
        <ele>250.5</ele>
        <time>2011-06-04T15:53:36Z</time>
      </trkpt>
      <trkpt lat="44.51716" lon="2.45218">
        <ele>250.4</ele>
        <time>2011-06-04T15:53:39Z</time>
      </trkpt>
      <trkpt lat="44.51722" lon="2.45208">
        <ele>250.3</ele>
        <time>2011-06-04T15:53:41Z</time>
      </trkpt>
      <trkpt lat="44.51728" lon="2.45199">
        <ele>250.3</ele>
        <time>2011-06-04T15:53:43Z</time>
      </trkpt>
      <trkpt lat="44.51732" lon="2.45195">
        <ele>250.2</ele>
        <time>2011-06-04T15:53:44Z</time>
      </trkpt>
      <trkpt lat="44.51747" lon="2.45178">
        <ele>250</ele>
        <time>2011-06-04T15:53:48Z</time>
      </trkpt>
      <trkpt lat="44.51755" lon="2.4517">
        <ele>250.1</ele>
        <time>2011-06-04T15:53:50Z</time>
      </trkpt>
      <trkpt lat="44.51778" lon="2.45155">
        <ele>250.8</ele>
        <time>2011-06-04T15:53:55Z</time>
      </trkpt>
      <trkpt lat="44.51809" lon="2.45128">
        <ele>251.6</ele>
        <time>2011-06-04T15:54:02Z</time>
      </trkpt>
      <trkpt lat="44.51814" lon="2.45124">
        <ele>251.6</ele>
        <time>2011-06-04T15:54:03Z</time>
      </trkpt>
      <trkpt lat="44.51842" lon="2.45103">
        <ele>252.3</ele>
        <time>2011-06-04T15:54:09Z</time>
      </trkpt>
      <trkpt lat="44.51861" lon="2.4509">
        <ele>253</ele>
        <time>2011-06-04T15:54:13Z</time>
      </trkpt>
      <trkpt lat="44.51884" lon="2.45072">
        <ele>254.1</ele>
        <time>2011-06-04T15:54:18Z</time>
      </trkpt>
      <trkpt lat="44.51888" lon="2.45068">
        <ele>254.4</ele>
        <time>2011-06-04T15:54:19Z</time>
      </trkpt>
      <trkpt lat="44.5189" lon="2.45063">
        <ele>254.6</ele>
        <time>2011-06-04T15:54:20Z</time>
      </trkpt>
      <trkpt lat="44.51892" lon="2.45057">
        <ele>254.9</ele>
        <time>2011-06-04T15:54:21Z</time>
      </trkpt>
      <trkpt lat="44.51896" lon="2.45011">
        <ele>256.5</ele>
        <time>2011-06-04T15:54:28Z</time>
      </trkpt>
      <trkpt lat="44.51898" lon="2.44997">
        <ele>257</ele>
        <time>2011-06-04T15:54:30Z</time>
      </trkpt>
      <trkpt lat="44.519" lon="2.44983">
        <ele>257.5</ele>
        <time>2011-06-04T15:54:32Z</time>
      </trkpt>
      <trkpt lat="44.51904" lon="2.44971">
        <ele>258</ele>
        <time>2011-06-04T15:54:34Z</time>
      </trkpt>
      <trkpt lat="44.51907" lon="2.44965">
        <ele>258.3</ele>
        <time>2011-06-04T15:54:35Z</time>
      </trkpt>
      <trkpt lat="44.51909" lon="2.44961">
        <ele>258.6</ele>
        <time>2011-06-04T15:54:36Z</time>
      </trkpt>
      <trkpt lat="44.51916" lon="2.44955">
        <ele>259.1</ele>
        <time>2011-06-04T15:54:38Z</time>
      </trkpt>
      <trkpt lat="44.51924" lon="2.4495">
        <ele>260.8</ele>
        <time>2011-06-04T15:54:40Z</time>
      </trkpt>
      <trkpt lat="44.51927" lon="2.44947">
        <ele>261.7</ele>
        <time>2011-06-04T15:54:41Z</time>
      </trkpt>
      <trkpt lat="44.51933" lon="2.44941">
        <ele>263.1</ele>
        <time>2011-06-04T15:54:43Z</time>
      </trkpt>
      <trkpt lat="44.51937" lon="2.44934">
        <ele>264.2</ele>
        <time>2011-06-04T15:54:45Z</time>
      </trkpt>
      <trkpt lat="44.51939" lon="2.44925">
        <ele>265.1</ele>
        <time>2011-06-04T15:54:47Z</time>
      </trkpt>
      <trkpt lat="44.51941" lon="2.44915">
        <ele>265.9</ele>
        <time>2011-06-04T15:54:49Z</time>
      </trkpt>
      <trkpt lat="44.51945" lon="2.44884">
        <ele>268.3</ele>
        <time>2011-06-04T15:54:55Z</time>
      </trkpt>
      <trkpt lat="44.5195" lon="2.44853">
        <ele>271.3</ele>
        <time>2011-06-04T15:55:01Z</time>
      </trkpt>
      <trkpt lat="44.51955" lon="2.44832">
        <ele>273.8</ele>
        <time>2011-06-04T15:55:05Z</time>
      </trkpt>
      <trkpt lat="44.51959" lon="2.44806">
        <ele>277.5</ele>
        <time>2011-06-04T15:55:11Z</time>
      </trkpt>
      <trkpt lat="44.51963" lon="2.44794">
        <ele>279.7</ele>
        <time>2011-06-04T15:55:23Z</time>
      </trkpt>
      <trkpt lat="44.51963" lon="2.44788">
        <ele>280.4</ele>
        <time>2011-06-04T15:56:04Z</time>
      </trkpt>
      <trkpt lat="44.51961" lon="2.44788">
        <ele>279.7</ele>
        <time>2011-06-04T15:58:03Z</time>
      </trkpt>
      <trkpt lat="44.51965" lon="2.44784">
        <ele>281.2</ele>
        <time>2011-06-04T15:59:23Z</time>
      </trkpt>
      <trkpt lat="44.51961" lon="2.44788">
        <ele>279.7</ele>
        <time>2011-06-04T16:03:41Z</time>
      </trkpt>
      <trkpt lat="44.51963" lon="2.44794">
        <ele>280</ele>
        <time>2011-06-04T16:05:00Z</time>
      </trkpt>
      <trkpt lat="44.51966" lon="2.44786">
        <ele>281.7</ele>
        <time>2011-06-04T16:05:31Z</time>
      </trkpt>
      <trkpt lat="44.51966" lon="2.4477">
        <ele>283</ele>
        <time>2011-06-04T16:05:37Z</time>
      </trkpt>
      <trkpt lat="44.51964" lon="2.44761">
        <ele>283.5</ele>
        <time>2011-06-04T16:05:40Z</time>
      </trkpt>
      <trkpt lat="44.51963" lon="2.44736">
        <ele>285</ele>
        <time>2011-06-04T16:05:50Z</time>
      </trkpt>
      <trkpt lat="44.51962" lon="2.4473">
        <ele>285.1</ele>
        <time>2011-06-04T16:05:53Z</time>
      </trkpt>
      <trkpt lat="44.51956" lon="2.44725">
        <ele>283.3</ele>
        <time>2011-06-04T16:05:57Z</time>
      </trkpt>
      <trkpt lat="44.51938" lon="2.44726">
        <ele>277</ele>
        <time>2011-06-04T16:06:04Z</time>
      </trkpt>
      <trkpt lat="44.51932" lon="2.44723">
        <ele>275</ele>
        <time>2011-06-04T16:06:06Z</time>
      </trkpt>
      <trkpt lat="44.51927" lon="2.44716">
        <ele>273.6</ele>
        <time>2011-06-04T16:06:08Z</time>
      </trkpt>
      <trkpt lat="44.51911" lon="2.44687">
        <ele>270.7</ele>
        <time>2011-06-04T16:06:15Z</time>
      </trkpt>
      <trkpt lat="44.51905" lon="2.44669">
        <ele>270.3</ele>
        <time>2011-06-04T16:06:19Z</time>
      </trkpt>
      <trkpt lat="44.51904" lon="2.44659">
        <ele>271.1</ele>
        <time>2011-06-04T16:06:21Z</time>
      </trkpt>
      <trkpt lat="44.51907" lon="2.4465">
        <ele>272.7</ele>
        <time>2011-06-04T16:06:23Z</time>
      </trkpt>
      <trkpt lat="44.51916" lon="2.44632">
        <ele>277</ele>
        <time>2011-06-04T16:06:28Z</time>
      </trkpt>
      <trkpt lat="44.51921" lon="2.44617">
        <ele>280.3</ele>
        <time>2011-06-04T16:06:32Z</time>
      </trkpt>
      <trkpt lat="44.51924" lon="2.4461">
        <ele>281.9</ele>
        <time>2011-06-04T16:06:34Z</time>
      </trkpt>
      <trkpt lat="44.51926" lon="2.44602">
        <ele>283.3</ele>
        <time>2011-06-04T16:06:36Z</time>
      </trkpt>
      <trkpt lat="44.51929" lon="2.44586">
        <ele>285.8</ele>
        <time>2011-06-04T16:06:40Z</time>
      </trkpt>
      <trkpt lat="44.51931" lon="2.44559">
        <ele>287.3</ele>
        <time>2011-06-04T16:06:46Z</time>
      </trkpt>
      <trkpt lat="44.51932" lon="2.4455">
        <ele>287.9</ele>
        <time>2011-06-04T16:06:48Z</time>
      </trkpt>
      <trkpt lat="44.51934" lon="2.44543">
        <ele>288.6</ele>
        <time>2011-06-04T16:06:50Z</time>
      </trkpt>
      <trkpt lat="44.51939" lon="2.44531">
        <ele>290</ele>
        <time>2011-06-04T16:06:53Z</time>
      </trkpt>
      <trkpt lat="44.51942" lon="2.44492">
        <ele>291</ele>
        <time>2011-06-04T16:07:02Z</time>
      </trkpt>
      <trkpt lat="44.51943" lon="2.44472">
        <ele>289.9</ele>
        <time>2011-06-04T16:07:06Z</time>
      </trkpt>
      <trkpt lat="44.51941" lon="2.44411">
        <ele>285.3</ele>
        <time>2011-06-04T16:07:17Z</time>
      </trkpt>
      <trkpt lat="44.51937" lon="2.44367">
        <ele>280.9</ele>
        <time>2011-06-04T16:07:24Z</time>
      </trkpt>
      <trkpt lat="44.51936" lon="2.44353">
        <ele>279.6</ele>
        <time>2011-06-04T16:07:26Z</time>
      </trkpt>
      <trkpt lat="44.51931" lon="2.44319">
        <ele>277.1</ele>
        <time>2011-06-04T16:07:31Z</time>
      </trkpt>
      <trkpt lat="44.51927" lon="2.4429">
        <ele>276.3</ele>
        <time>2011-06-04T16:07:35Z</time>
      </trkpt>
      <trkpt lat="44.51918" lon="2.44256">
        <ele>274.4</ele>
        <time>2011-06-04T16:07:40Z</time>
      </trkpt>
      <trkpt lat="44.51904" lon="2.44213">
        <ele>272.4</ele>
        <time>2011-06-04T16:07:46Z</time>
      </trkpt>
      <trkpt lat="44.51889" lon="2.44174">
        <ele>271.1</ele>
        <time>2011-06-04T16:07:51Z</time>
      </trkpt>
      <trkpt lat="44.51886" lon="2.44167">
        <ele>271</ele>
        <time>2011-06-04T16:07:52Z</time>
      </trkpt>
      <trkpt lat="44.51875" lon="2.44137">
        <ele>270</ele>
        <time>2011-06-04T16:07:56Z</time>
      </trkpt>
      <trkpt lat="44.51869" lon="2.44113">
        <ele>270</ele>
        <time>2011-06-04T16:07:59Z</time>
      </trkpt>
      <trkpt lat="44.51866" lon="2.44095">
        <ele>270.3</ele>
        <time>2011-06-04T16:08:01Z</time>
      </trkpt>
      <trkpt lat="44.5186" lon="2.44036">
        <ele>269.5</ele>
        <time>2011-06-04T16:08:08Z</time>
      </trkpt>
      <trkpt lat="44.5186" lon="2.43994">
        <ele>268.6</ele>
        <time>2011-06-04T16:08:13Z</time>
      </trkpt>
      <trkpt lat="44.51865" lon="2.43946">
        <ele>265.9</ele>
        <time>2011-06-04T16:08:19Z</time>
      </trkpt>
      <trkpt lat="44.51866" lon="2.4393">
        <ele>265.1</ele>
        <time>2011-06-04T16:08:21Z</time>
      </trkpt>
      <trkpt lat="44.51866" lon="2.43914">
        <ele>264.3</ele>
        <time>2011-06-04T16:08:23Z</time>
      </trkpt>
      <trkpt lat="44.51865" lon="2.43907">
        <ele>264.3</ele>
        <time>2011-06-04T16:08:24Z</time>
      </trkpt>
      <trkpt lat="44.51861" lon="2.43885">
        <ele>264</ele>
        <time>2011-06-04T16:08:27Z</time>
      </trkpt>
      <trkpt lat="44.51852" lon="2.43852">
        <ele>263</ele>
        <time>2011-06-04T16:08:32Z</time>
      </trkpt>
      <trkpt lat="44.51839" lon="2.43813">
        <ele>262.2</ele>
        <time>2011-06-04T16:08:38Z</time>
      </trkpt>
      <trkpt lat="44.5183" lon="2.43781">
        <ele>262</ele>
        <time>2011-06-04T16:08:43Z</time>
      </trkpt>
      <trkpt lat="44.51828" lon="2.43775">
        <ele>262</ele>
        <time>2011-06-04T16:08:44Z</time>
      </trkpt>
      <trkpt lat="44.51819" lon="2.43743">
        <ele>262.4</ele>
        <time>2011-06-04T16:08:49Z</time>
      </trkpt>
      <trkpt lat="44.51808" lon="2.4371">
        <ele>264.1</ele>
        <time>2011-06-04T16:08:54Z</time>
      </trkpt>
      <trkpt lat="44.51803" lon="2.43691">
        <ele>265.2</ele>
        <time>2011-06-04T16:08:57Z</time>
      </trkpt>
      <trkpt lat="44.51796" lon="2.43672">
        <ele>266.3</ele>
        <time>2011-06-04T16:09:00Z</time>
      </trkpt>
      <trkpt lat="44.5179" lon="2.43659">
        <ele>267.9</ele>
        <time>2011-06-04T16:09:02Z</time>
      </trkpt>
      <trkpt lat="44.51784" lon="2.43648">
        <ele>269.9</ele>
        <time>2011-06-04T16:09:04Z</time>
      </trkpt>
      <trkpt lat="44.51776" lon="2.43638">
        <ele>271.6</ele>
        <time>2011-06-04T16:09:06Z</time>
      </trkpt>
      <trkpt lat="44.51761" lon="2.43626">
        <ele>274.4</ele>
        <time>2011-06-04T16:09:09Z</time>
      </trkpt>
      <trkpt lat="44.51735" lon="2.43607">
        <ele>276.8</ele>
        <time>2011-06-04T16:09:14Z</time>
      </trkpt>
      <trkpt lat="44.51709" lon="2.4359">
        <ele>277.6</ele>
        <time>2011-06-04T16:09:19Z</time>
      </trkpt>
      <trkpt lat="44.517" lon="2.43581">
        <ele>278.6</ele>
        <time>2011-06-04T16:09:21Z</time>
      </trkpt>
      <trkpt lat="44.51695" lon="2.43576">
        <ele>279.4</ele>
        <time>2011-06-04T16:09:22Z</time>
      </trkpt>
      <trkpt lat="44.51687" lon="2.43565">
        <ele>281.5</ele>
        <time>2011-06-04T16:09:24Z</time>
      </trkpt>
      <trkpt lat="44.51676" lon="2.43543">
        <ele>285.7</ele>
        <time>2011-06-04T16:09:27Z</time>
      </trkpt>
      <trkpt lat="44.51667" lon="2.4352">
        <ele>290.8</ele>
        <time>2011-06-04T16:09:30Z</time>
      </trkpt>
      <trkpt lat="44.51654" lon="2.43483">
        <ele>293.5</ele>
        <time>2011-06-04T16:09:35Z</time>
      </trkpt>
      <trkpt lat="44.51645" lon="2.43452">
        <ele>294.4</ele>
        <time>2011-06-04T16:09:39Z</time>
      </trkpt>
      <trkpt lat="44.51642" lon="2.43435">
        <ele>295.1</ele>
        <time>2011-06-04T16:09:41Z</time>
      </trkpt>
      <trkpt lat="44.51633" lon="2.43378">
        <ele>294.6</ele>
        <time>2011-06-04T16:09:48Z</time>
      </trkpt>
      <trkpt lat="44.5163" lon="2.43362">
        <ele>293.8</ele>
        <time>2011-06-04T16:09:50Z</time>
      </trkpt>
      <trkpt lat="44.51619" lon="2.43295">
        <ele>288.2</ele>
        <time>2011-06-04T16:09:58Z</time>
      </trkpt>
      <trkpt lat="44.51617" lon="2.43273">
        <ele>286.4</ele>
        <time>2011-06-04T16:10:01Z</time>
      </trkpt>
      <trkpt lat="44.51616" lon="2.4326">
        <ele>285.8</ele>
        <time>2011-06-04T16:10:03Z</time>
      </trkpt>
      <trkpt lat="44.51618" lon="2.43244">
        <ele>284.9</ele>
        <time>2011-06-04T16:10:11Z</time>
      </trkpt>
      <trkpt lat="44.51618" lon="2.43239">
        <ele>284.2</ele>
        <time>2011-06-04T16:10:13Z</time>
      </trkpt>
      <trkpt lat="44.51617" lon="2.43232">
        <ele>283</ele>
        <time>2011-06-04T16:10:16Z</time>
      </trkpt>
      <trkpt lat="44.51617" lon="2.43216">
        <ele>280.9</ele>
        <time>2011-06-04T16:10:20Z</time>
      </trkpt>
      <trkpt lat="44.51618" lon="2.43198">
        <ele>279.1</ele>
        <time>2011-06-04T16:10:24Z</time>
      </trkpt>
      <trkpt lat="44.51619" lon="2.43193">
        <ele>278.4</ele>
        <time>2011-06-04T16:10:25Z</time>
      </trkpt>
      <trkpt lat="44.51619" lon="2.4317">
        <ele>275.3</ele>
        <time>2011-06-04T16:10:30Z</time>
      </trkpt>
      <trkpt lat="44.51619" lon="2.43156">
        <ele>274.1</ele>
        <time>2011-06-04T16:10:33Z</time>
      </trkpt>
      <trkpt lat="44.51619" lon="2.43137">
        <ele>272.4</ele>
        <time>2011-06-04T16:10:37Z</time>
      </trkpt>
      <trkpt lat="44.51619" lon="2.43119">
        <ele>270.9</ele>
        <time>2011-06-04T16:10:41Z</time>
      </trkpt>
      <trkpt lat="44.51618" lon="2.43087">
        <ele>268.1</ele>
        <time>2011-06-04T16:10:48Z</time>
      </trkpt>
      <trkpt lat="44.51617" lon="2.43077">
        <ele>267.6</ele>
        <time>2011-06-04T16:10:50Z</time>
      </trkpt>
      <trkpt lat="44.51617" lon="2.43068">
        <ele>267.2</ele>
        <time>2011-06-04T16:10:52Z</time>
      </trkpt>
      <trkpt lat="44.51617" lon="2.43045">
        <ele>266.3</ele>
        <time>2011-06-04T16:10:57Z</time>
      </trkpt>
      <trkpt lat="44.51618" lon="2.43017">
        <ele>265.3</ele>
        <time>2011-06-04T16:11:03Z</time>
      </trkpt>
      <trkpt lat="44.51618" lon="2.42981">
        <ele>264.4</ele>
        <time>2011-06-04T16:11:11Z</time>
      </trkpt>
      <trkpt lat="44.51619" lon="2.42968">
        <ele>264.3</ele>
        <time>2011-06-04T16:11:14Z</time>
      </trkpt>
      <trkpt lat="44.51621" lon="2.42948">
        <ele>264.1</ele>
        <time>2011-06-04T16:11:18Z</time>
      </trkpt>
      <trkpt lat="44.51624" lon="2.42934">
        <ele>264.2</ele>
        <time>2011-06-04T16:11:21Z</time>
      </trkpt>
      <trkpt lat="44.51627" lon="2.42925">
        <ele>264.2</ele>
        <time>2011-06-04T16:11:23Z</time>
      </trkpt>
      <trkpt lat="44.5163" lon="2.42916">
        <ele>264.3</ele>
        <time>2011-06-04T16:11:25Z</time>
      </trkpt>
      <trkpt lat="44.51634" lon="2.4291">
        <ele>264.5</ele>
        <time>2011-06-04T16:11:27Z</time>
      </trkpt>
      <trkpt lat="44.51654" lon="2.42894">
        <ele>265.4</ele>
        <time>2011-06-04T16:11:34Z</time>
      </trkpt>
      <trkpt lat="44.51672" lon="2.42882">
        <ele>265.7</ele>
        <time>2011-06-04T16:11:40Z</time>
      </trkpt>
      <trkpt lat="44.51678" lon="2.42879">
        <ele>265.6</ele>
        <time>2011-06-04T16:11:42Z</time>
      </trkpt>
      <trkpt lat="44.51688" lon="2.42877">
        <ele>265.4</ele>
        <time>2011-06-04T16:11:45Z</time>
      </trkpt>
      <trkpt lat="44.51698" lon="2.42874">
        <ele>265.3</ele>
        <time>2011-06-04T16:11:48Z</time>
      </trkpt>
      <trkpt lat="44.51713" lon="2.42873">
        <ele>265.1</ele>
        <time>2011-06-04T16:11:53Z</time>
      </trkpt>
      <trkpt lat="44.51734" lon="2.42872">
        <ele>265</ele>
        <time>2011-06-04T16:11:59Z</time>
      </trkpt>
      <trkpt lat="44.51752" lon="2.42872">
        <ele>264.8</ele>
        <time>2011-06-04T16:12:04Z</time>
      </trkpt>
      <trkpt lat="44.51771" lon="2.42872">
        <ele>265.1</ele>
        <time>2011-06-04T16:12:09Z</time>
      </trkpt>
      <trkpt lat="44.51787" lon="2.42873">
        <ele>265.3</ele>
        <time>2011-06-04T16:12:14Z</time>
      </trkpt>
      <trkpt lat="44.51793" lon="2.42873">
        <ele>265.4</ele>
        <time>2011-06-04T16:12:16Z</time>
      </trkpt>
      <trkpt lat="44.518" lon="2.42871">
        <ele>265.5</ele>
        <time>2011-06-04T16:12:18Z</time>
      </trkpt>
      <trkpt lat="44.51807" lon="2.42871">
        <ele>265.5</ele>
        <time>2011-06-04T16:12:20Z</time>
      </trkpt>
      <trkpt lat="44.51816" lon="2.42871">
        <ele>265.7</ele>
        <time>2011-06-04T16:12:23Z</time>
      </trkpt>
      <trkpt lat="44.51821" lon="2.4287">
        <ele>265.7</ele>
        <time>2011-06-04T16:12:25Z</time>
      </trkpt>
      <trkpt lat="44.51821" lon="2.42861">
        <ele>265.5</ele>
        <time>2011-06-04T16:12:29Z</time>
      </trkpt>
      <trkpt lat="44.51818" lon="2.42856">
        <ele>265.3</ele>
        <time>2011-06-04T16:12:31Z</time>
      </trkpt>
      <trkpt lat="44.51807" lon="2.4284">
        <ele>264.6</ele>
        <time>2011-06-04T16:12:37Z</time>
      </trkpt>
      <trkpt lat="44.51802" lon="2.42835">
        <ele>264.3</ele>
        <time>2011-06-04T16:12:39Z</time>
      </trkpt>
      <trkpt lat="44.51793" lon="2.42822">
        <ele>263.5</ele>
        <time>2011-06-04T16:12:43Z</time>
      </trkpt>
      <trkpt lat="44.51776" lon="2.42798">
        <ele>261.9</ele>
        <time>2011-06-04T16:12:49Z</time>
      </trkpt>
      <trkpt lat="44.51765" lon="2.4278">
        <ele>260.7</ele>
        <time>2011-06-04T16:12:53Z</time>
      </trkpt>
      <trkpt lat="44.5174" lon="2.4275">
        <ele>259.3</ele>
        <time>2011-06-04T16:13:00Z</time>
      </trkpt>
      <trkpt lat="44.51722" lon="2.42728">
        <ele>258.7</ele>
        <time>2011-06-04T16:13:05Z</time>
      </trkpt>
      <trkpt lat="44.51718" lon="2.42723">
        <ele>258.5</ele>
        <time>2011-06-04T16:13:06Z</time>
      </trkpt>
      <trkpt lat="44.51716" lon="2.42718">
        <ele>258.3</ele>
        <time>2011-06-04T16:13:07Z</time>
      </trkpt>
      <trkpt lat="44.51717" lon="2.42707">
        <ele>257.6</ele>
        <time>2011-06-04T16:13:09Z</time>
      </trkpt>
      <trkpt lat="44.51719" lon="2.42702">
        <ele>257.2</ele>
        <time>2011-06-04T16:13:10Z</time>
      </trkpt>
      <trkpt lat="44.51726" lon="2.42697">
        <ele>256.6</ele>
        <time>2011-06-04T16:13:12Z</time>
      </trkpt>
      <trkpt lat="44.51733" lon="2.42694">
        <ele>256.2</ele>
        <time>2011-06-04T16:13:14Z</time>
      </trkpt>
      <trkpt lat="44.51736" lon="2.42692">
        <ele>256</ele>
        <time>2011-06-04T16:13:15Z</time>
      </trkpt>
      <trkpt lat="44.51758" lon="2.42682">
        <ele>254.9</ele>
        <time>2011-06-04T16:13:20Z</time>
      </trkpt>
      <trkpt lat="44.51763" lon="2.42679">
        <ele>254.7</ele>
        <time>2011-06-04T16:13:21Z</time>
      </trkpt>
      <trkpt lat="44.51806" lon="2.42648">
        <ele>252.9</ele>
        <time>2011-06-04T16:13:29Z</time>
      </trkpt>
      <trkpt lat="44.5182" lon="2.4264">
        <ele>252.4</ele>
        <time>2011-06-04T16:13:31Z</time>
      </trkpt>
      <trkpt lat="44.51827" lon="2.42634">
        <ele>252</ele>
        <time>2011-06-04T16:13:32Z</time>
      </trkpt>
      <trkpt lat="44.51833" lon="2.42627">
        <ele>251.6</ele>
        <time>2011-06-04T16:13:33Z</time>
      </trkpt>
      <trkpt lat="44.51848" lon="2.42603">
        <ele>250.2</ele>
        <time>2011-06-04T16:13:36Z</time>
      </trkpt>
      <trkpt lat="44.51853" lon="2.42597">
        <ele>249.8</ele>
        <time>2011-06-04T16:13:37Z</time>
      </trkpt>
      <trkpt lat="44.51858" lon="2.42593">
        <ele>249.5</ele>
        <time>2011-06-04T16:13:38Z</time>
      </trkpt>
      <trkpt lat="44.51863" lon="2.42592">
        <ele>249.5</ele>
        <time>2011-06-04T16:13:39Z</time>
      </trkpt>
      <trkpt lat="44.51868" lon="2.42593">
        <ele>249.5</ele>
        <time>2011-06-04T16:13:40Z</time>
      </trkpt>
      <trkpt lat="44.51881" lon="2.42599">
        <ele>249.9</ele>
        <time>2011-06-04T16:13:43Z</time>
      </trkpt>
      <trkpt lat="44.51889" lon="2.42602">
        <ele>250.1</ele>
        <time>2011-06-04T16:13:45Z</time>
      </trkpt>
      <trkpt lat="44.51907" lon="2.42613">
        <ele>250.7</ele>
        <time>2011-06-04T16:13:50Z</time>
      </trkpt>
      <trkpt lat="44.51923" lon="2.42628">
        <ele>251.6</ele>
        <time>2011-06-04T16:13:56Z</time>
      </trkpt>
      <trkpt lat="44.51928" lon="2.42631">
        <ele>251.7</ele>
        <time>2011-06-04T16:13:58Z</time>
      </trkpt>
      <trkpt lat="44.51941" lon="2.42637">
        <ele>252</ele>
        <time>2011-06-04T16:14:03Z</time>
      </trkpt>
      <trkpt lat="44.51946" lon="2.42641">
        <ele>252.2</ele>
        <time>2011-06-04T16:14:05Z</time>
      </trkpt>
      <trkpt lat="44.51962" lon="2.42656">
        <ele>252.8</ele>
        <time>2011-06-04T16:14:11Z</time>
      </trkpt>
      <trkpt lat="44.51976" lon="2.42668">
        <ele>253.4</ele>
        <time>2011-06-04T16:14:16Z</time>
      </trkpt>
      <trkpt lat="44.51988" lon="2.4268">
        <ele>254.4</ele>
        <time>2011-06-04T16:14:20Z</time>
      </trkpt>
      <trkpt lat="44.52004" lon="2.42692">
        <ele>255.5</ele>
        <time>2011-06-04T16:14:25Z</time>
      </trkpt>
      <trkpt lat="44.52013" lon="2.42697">
        <ele>256.2</ele>
        <time>2011-06-04T16:14:28Z</time>
      </trkpt>
      <trkpt lat="44.52019" lon="2.427">
        <ele>256.6</ele>
        <time>2011-06-04T16:14:30Z</time>
      </trkpt>
      <trkpt lat="44.52025" lon="2.42703">
        <ele>257.1</ele>
        <time>2011-06-04T16:14:32Z</time>
      </trkpt>
      <trkpt lat="44.52028" lon="2.42706">
        <ele>257.4</ele>
        <time>2011-06-04T16:14:33Z</time>
      </trkpt>
      <trkpt lat="44.52032" lon="2.42713">
        <ele>258.1</ele>
        <time>2011-06-04T16:14:35Z</time>
      </trkpt>
      <trkpt lat="44.52037" lon="2.42718">
        <ele>258.8</ele>
        <time>2011-06-04T16:14:37Z</time>
      </trkpt>
      <trkpt lat="44.52043" lon="2.4272">
        <ele>259.1</ele>
        <time>2011-06-04T16:14:39Z</time>
      </trkpt>
      <trkpt lat="44.52047" lon="2.4272">
        <ele>259.1</ele>
        <time>2011-06-04T16:14:41Z</time>
      </trkpt>
      <trkpt lat="44.52058" lon="2.42722">
        <ele>259.6</ele>
        <time>2011-06-04T16:14:47Z</time>
      </trkpt>
      <trkpt lat="44.5207" lon="2.42732">
        <ele>260.8</ele>
        <time>2011-06-04T16:14:55Z</time>
      </trkpt>
      <trkpt lat="44.52075" lon="2.42736">
        <ele>261.4</ele>
        <time>2011-06-04T16:14:57Z</time>
      </trkpt>
      <trkpt lat="44.52092" lon="2.4275">
        <ele>263.2</ele>
        <time>2011-06-04T16:15:01Z</time>
      </trkpt>
      <trkpt lat="44.52096" lon="2.42755">
        <ele>263.7</ele>
        <time>2011-06-04T16:15:02Z</time>
      </trkpt>
      <trkpt lat="44.52099" lon="2.42759">
        <ele>264.2</ele>
        <time>2011-06-04T16:15:03Z</time>
      </trkpt>
      <trkpt lat="44.52101" lon="2.42764">
        <ele>264.5</ele>
        <time>2011-06-04T16:15:04Z</time>
      </trkpt>
      <trkpt lat="44.52105" lon="2.42784">
        <ele>266</ele>
        <time>2011-06-04T16:15:21Z</time>
      </trkpt>
    </trkseg>
  </trk>
</gpx>